<?xml version='1.0' encoding='UTF-8'?><gpx version="1.1" creator="JPX - https://github.com/jenetics/jpx" xmlns="http://www.topografix.com/GPX/1/1"><trk><trkseg><trkpt lat="46.0728251" lon="9.3041295"><ele>207.0</ele><time>2026-05-04T06:08:17.722Z</time></trkpt><trkpt lat="46.0729192" lon="9.3041345"><ele>207.0</ele><time>2026-05-04T06:09:17.716Z</time></trkpt><trkpt lat="46.0729584" lon="9.3040358"><ele>207.0</ele><time>2026-05-04T06:09:46.612Z</time></trkpt><trkpt lat="46.0729007" lon="9.3040927"><ele>207.0</ele><time>2026-05-04T06:09:55.735Z</time></trkpt><trkpt lat="46.072959" lon="9.3042216"><ele>207.0</ele><time>2026-05-04T06:33:05.049Z</time></trkpt><trkpt lat="46.0729597" lon="9.30413"><ele>207.0</ele><time>2026-05-04T06:33:52.048Z</time></trkpt><trkpt lat="46.0729563" lon="9.304012"><ele>207.00000000000003</ele><time>2026-05-04T06:33:56.048Z</time></trkpt><trkpt lat="46.0729436" lon="9.3039084"><ele>207.0</ele><time>2026-05-04T06:34:00.049Z</time></trkpt><trkpt lat="46.0729276" lon="9.3038148"><ele>207.0</ele><time>2026-05-04T06:34:03.048Z</time></trkpt><trkpt lat="46.0728755" lon="9.3037183"><ele>207.0</ele><time>2026-05-04T06:34:06.049Z</time></trkpt><trkpt lat="46.0728645" lon="9.3036276"><ele>207.0</ele><time>2026-05-04T06:34:09.049Z</time></trkpt><trkpt lat="46.0728884" lon="9.3037276"><ele>207.00000000000003</ele><time>2026-05-04T06:34:18.049Z</time></trkpt><trkpt lat="46.0729267" lon="9.3038096"><ele>207.0</ele><time>2026-05-04T06:34:20.048Z</time></trkpt><trkpt lat="46.0729592" lon="9.3038902"><ele>207.00000000000003</ele><time>2026-05-04T06:34:25.049Z</time></trkpt><trkpt lat="46.0729484" lon="9.3040097"><ele>207.0</ele><time>2026-05-04T06:34:30.049Z</time></trkpt><trkpt lat="46.072937" lon="9.3041092"><ele>207.0</ele><time>2026-05-04T06:34:32.049Z</time></trkpt><trkpt lat="46.0728969" lon="9.3041809"><ele>207.0</ele><time>2026-05-04T06:34:37.048Z</time></trkpt><trkpt lat="46.072961" lon="9.3041599"><ele>207.0</ele><time>2026-05-04T06:43:13.05Z</time></trkpt><trkpt lat="46.0729579" lon="9.3040423"><ele>207.00000000000003</ele><time>2026-05-04T06:44:08.051Z</time></trkpt><trkpt lat="46.0729564" lon="9.30395"><ele>207.0</ele><time>2026-05-04T06:44:11.052Z</time></trkpt><trkpt lat="46.0729454" lon="9.3038552"><ele>207.0</ele><time>2026-05-04T06:44:14.051Z</time></trkpt><trkpt lat="46.0728944" lon="9.3037463"><ele>207.0</ele><time>2026-05-04T06:44:17.051Z</time></trkpt><trkpt lat="46.0728697" lon="9.3036605"><ele>207.0</ele><time>2026-05-04T06:44:19.051Z</time></trkpt><trkpt lat="46.0728743" lon="9.3035584"><ele>207.0</ele><time>2026-05-04T06:44:21.051Z</time></trkpt><trkpt lat="46.0729051" lon="9.3034473"><ele>207.0</ele><time>2026-05-04T06:44:23.05Z</time></trkpt><trkpt lat="46.0729329" lon="9.3033332"><ele>207.0</ele><time>2026-05-04T06:44:25.049Z</time></trkpt><trkpt lat="46.0729544" lon="9.3032121"><ele>207.0</ele><time>2026-05-04T06:44:27.049Z</time></trkpt><trkpt lat="46.0729665" lon="9.3030913"><ele>207.0</ele><time>2026-05-04T06:44:29.05Z</time></trkpt><trkpt lat="46.0729782" lon="9.3029734"><ele>207.0</ele><time>2026-05-04T06:44:31.051Z</time></trkpt><trkpt lat="46.0730171" lon="9.3028464"><ele>207.0</ele><time>2026-05-04T06:44:34.051Z</time></trkpt><trkpt lat="46.0730853" lon="9.3028463"><ele>207.0</ele><time>2026-05-04T06:44:39.05Z</time></trkpt><trkpt lat="46.0731485" lon="9.3029489"><ele>207.0</ele><time>2026-05-04T06:44:42.051Z</time></trkpt><trkpt lat="46.073204" lon="9.3030339"><ele>207.0</ele><time>2026-05-04T06:44:44.05Z</time></trkpt><trkpt lat="46.0732625" lon="9.3031241"><ele>207.0</ele><time>2026-05-04T06:44:46.051Z</time></trkpt><trkpt lat="46.0733254" lon="9.3032051"><ele>207.0</ele><time>2026-05-04T06:44:48.049Z</time></trkpt><trkpt lat="46.073375" lon="9.3033078"><ele>207.0</ele><time>2026-05-04T06:44:50.05Z</time></trkpt><trkpt lat="46.0733937" lon="9.3033995"><ele>207.0</ele><time>2026-05-04T06:44:52.049Z</time></trkpt><trkpt lat="46.0734105" lon="9.3035143"><ele>207.0</ele><time>2026-05-04T06:44:54.052Z</time></trkpt><trkpt lat="46.0734467" lon="9.3036298"><ele>207.0</ele><time>2026-05-04T06:44:56.05Z</time></trkpt><trkpt lat="46.0735071" lon="9.30373"><ele>207.0</ele><time>2026-05-04T06:44:58.051Z</time></trkpt><trkpt lat="46.0735592" lon="9.3038163"><ele>207.0</ele><time>2026-05-04T06:45:00.051Z</time></trkpt><trkpt lat="46.0736143" lon="9.3039099"><ele>207.0</ele><time>2026-05-04T06:45:02.051Z</time></trkpt><trkpt lat="46.0736753" lon="9.3039968"><ele>207.0</ele><time>2026-05-04T06:45:04.05Z</time></trkpt><trkpt lat="46.0737382" lon="9.3040809"><ele>207.0</ele><time>2026-05-04T06:45:06.05Z</time></trkpt><trkpt lat="46.0738009" lon="9.3041625"><ele>207.16666666666666</ele><time>2026-05-04T06:45:08.05Z</time></trkpt><trkpt lat="46.0738556" lon="9.3042498"><ele>207.33333333333331</ele><time>2026-05-04T06:45:10.05Z</time></trkpt><trkpt lat="46.0739072" lon="9.3043412"><ele>207.5</ele><time>2026-05-04T06:45:12.051Z</time></trkpt><trkpt lat="46.0739528" lon="9.3044232"><ele>207.66666666666666</ele><time>2026-05-04T06:45:14.052Z</time></trkpt><trkpt lat="46.0740079" lon="9.3044942"><ele>207.83333333333331</ele><time>2026-05-04T06:45:16.05Z</time></trkpt><trkpt lat="46.0740489" lon="9.3045751"><ele>208.0</ele><time>2026-05-04T06:45:18.052Z</time></trkpt><trkpt lat="46.0741087" lon="9.304676"><ele>207.99999999999997</ele><time>2026-05-04T06:45:21.05Z</time></trkpt><trkpt lat="46.0741633" lon="9.304768"><ele>208.0</ele><time>2026-05-04T06:45:24.05Z</time></trkpt><trkpt lat="46.0742142" lon="9.304833"><ele>208.0</ele><time>2026-05-04T06:45:28.051Z</time></trkpt><trkpt lat="46.0742996" lon="9.3047962"><ele>208.0</ele><time>2026-05-04T06:45:31.05Z</time></trkpt><trkpt lat="46.0743669" lon="9.3047528"><ele>207.99999999999997</ele><time>2026-05-04T06:45:33.05Z</time></trkpt><trkpt lat="46.074443" lon="9.3047145"><ele>208.0</ele><time>2026-05-04T06:45:35.05Z</time></trkpt><trkpt lat="46.0745235" lon="9.3046675"><ele>207.99999999999997</ele><time>2026-05-04T06:45:37.052Z</time></trkpt><trkpt lat="46.0746018" lon="9.3046248"><ele>208.0</ele><time>2026-05-04T06:45:39.051Z</time></trkpt><trkpt lat="46.0746864" lon="9.3045838"><ele>208.0</ele><time>2026-05-04T06:45:41.051Z</time></trkpt><trkpt lat="46.0747744" lon="9.3045485"><ele>208.0</ele><time>2026-05-04T06:45:43.051Z</time></trkpt><trkpt lat="46.0748602" lon="9.3045158"><ele>207.99999999999997</ele><time>2026-05-04T06:45:45.05Z</time></trkpt><trkpt lat="46.0749536" lon="9.3044864"><ele>208.0</ele><time>2026-05-04T06:45:47.052Z</time></trkpt><trkpt lat="46.0750379" lon="9.3044452"><ele>208.2</ele><time>2026-05-04T06:45:49.049Z</time></trkpt><trkpt lat="46.075123" lon="9.3044101"><ele>208.4</ele><time>2026-05-04T06:45:51.051Z</time></trkpt><trkpt lat="46.0752197" lon="9.3043877"><ele>208.6</ele><time>2026-05-04T06:45:53.051Z</time></trkpt><trkpt lat="46.0753204" lon="9.3043776"><ele>208.79999999999998</ele><time>2026-05-04T06:45:55.05Z</time></trkpt><trkpt lat="46.0754149" lon="9.3043735"><ele>209.0</ele><time>2026-05-04T06:45:57.051Z</time></trkpt><trkpt lat="46.0754963" lon="9.3043539"><ele>209.0</ele><time>2026-05-04T06:45:59.049Z</time></trkpt><trkpt lat="46.0755906" lon="9.3043571"><ele>209.0</ele><time>2026-05-04T06:46:01.051Z</time></trkpt><trkpt lat="46.0756974" lon="9.3043596"><ele>209.0</ele><time>2026-05-04T06:46:03.05Z</time></trkpt><trkpt lat="46.0757988" lon="9.3043572"><ele>209.0</ele><time>2026-05-04T06:46:05.05Z</time></trkpt><trkpt lat="46.0758995" lon="9.3043602"><ele>209.0</ele><time>2026-05-04T06:46:07.05Z</time></trkpt><trkpt lat="46.0759856" lon="9.3043701"><ele>209.33333333333334</ele><time>2026-05-04T06:46:09.049Z</time></trkpt><trkpt lat="46.0760941" lon="9.3043837"><ele>209.66666666666669</ele><time>2026-05-04T06:46:11.052Z</time></trkpt><trkpt lat="46.0761874" lon="9.3043792"><ele>210.0</ele><time>2026-05-04T06:46:13.05Z</time></trkpt><trkpt lat="46.0762701" lon="9.3044061"><ele>210.33333333333331</ele><time>2026-05-04T06:46:15.05Z</time></trkpt><trkpt lat="46.0763396" lon="9.3044324"><ele>210.66666666666666</ele><time>2026-05-04T06:46:18.05Z</time></trkpt><trkpt lat="46.0764052" lon="9.3044513"><ele>211.0</ele><time>2026-05-04T06:46:26.051Z</time></trkpt><trkpt lat="46.0764687" lon="9.3044558"><ele>210.99999999999997</ele><time>2026-05-04T06:46:29.051Z</time></trkpt><trkpt lat="46.0765318" lon="9.3044596"><ele>211.0</ele><time>2026-05-04T06:46:31.051Z</time></trkpt><trkpt lat="46.0766" lon="9.3044762"><ele>211.0</ele><time>2026-05-04T06:46:33.052Z</time></trkpt><trkpt lat="46.0766745" lon="9.304492"><ele>211.0</ele><time>2026-05-04T06:46:35.049Z</time></trkpt><trkpt lat="46.0767559" lon="9.3045118"><ele>210.99999999999997</ele><time>2026-05-04T06:46:37.05Z</time></trkpt><trkpt lat="46.0768326" lon="9.3045218"><ele>211.0</ele><time>2026-05-04T06:46:39.051Z</time></trkpt><trkpt lat="46.0769185" lon="9.304536"><ele>210.8</ele><time>2026-05-04T06:46:41.05Z</time></trkpt><trkpt lat="46.0770073" lon="9.3045512"><ele>210.60000000000002</ele><time>2026-05-04T06:46:43.052Z</time></trkpt><trkpt lat="46.07711" lon="9.3045683"><ele>210.4</ele><time>2026-05-04T06:46:45.05Z</time></trkpt><trkpt lat="46.0772018" lon="9.3046014"><ele>210.2</ele><time>2026-05-04T06:46:47.05Z</time></trkpt><trkpt lat="46.077281" lon="9.3046232"><ele>210.0</ele><time>2026-05-04T06:46:49.052Z</time></trkpt><trkpt lat="46.077389" lon="9.3046612"><ele>210.2</ele><time>2026-05-04T06:46:51.05Z</time></trkpt><trkpt lat="46.0774883" lon="9.3047044"><ele>210.4</ele><time>2026-05-04T06:46:53.051Z</time></trkpt><trkpt lat="46.0775937" lon="9.3047599"><ele>210.60000000000002</ele><time>2026-05-04T06:46:55.052Z</time></trkpt><trkpt lat="46.077685" lon="9.3048133"><ele>210.8</ele><time>2026-05-04T06:46:57.051Z</time></trkpt><trkpt lat="46.0777723" lon="9.3048698"><ele>211.0</ele><time>2026-05-04T06:46:59.051Z</time></trkpt><trkpt lat="46.0778719" lon="9.3049358"><ele>211.5</ele><time>2026-05-04T06:47:01.051Z</time></trkpt><trkpt lat="46.0779616" lon="9.3049954"><ele>212.0</ele><time>2026-05-04T06:47:03.051Z</time></trkpt><trkpt lat="46.0780849" lon="9.3051249"><ele>212.5</ele><time>2026-05-04T06:47:05.051Z</time></trkpt><trkpt lat="46.0781874" lon="9.305232"><ele>213.0</ele><time>2026-05-04T06:47:07.052Z</time></trkpt><trkpt lat="46.0782518" lon="9.3052995"><ele>213.2</ele><time>2026-05-04T06:47:09.051Z</time></trkpt><trkpt lat="46.0783363" lon="9.3053882"><ele>213.4</ele><time>2026-05-04T06:47:11.051Z</time></trkpt><trkpt lat="46.0784123" lon="9.30548"><ele>213.59999999999997</ele><time>2026-05-04T06:47:13.05Z</time></trkpt><trkpt lat="46.0784631" lon="9.3055427"><ele>213.79999999999998</ele><time>2026-05-04T06:47:14.05Z</time></trkpt><trkpt lat="46.0785474" lon="9.3056518"><ele>214.0</ele><time>2026-05-04T06:47:16.051Z</time></trkpt><trkpt lat="46.0785885" lon="9.3057582"><ele>214.2</ele><time>2026-05-04T06:47:18.051Z</time></trkpt><trkpt lat="46.0786569" lon="9.3058752"><ele>214.39999999999998</ele><time>2026-05-04T06:47:20.051Z</time></trkpt><trkpt lat="46.0787243" lon="9.3059975"><ele>214.6</ele><time>2026-05-04T06:47:22.051Z</time></trkpt><trkpt lat="46.0787788" lon="9.3061196"><ele>214.8</ele><time>2026-05-04T06:47:24.052Z</time></trkpt><trkpt lat="46.078833" lon="9.3062445"><ele>215.0</ele><time>2026-05-04T06:47:26.051Z</time></trkpt><trkpt lat="46.0789042" lon="9.3063784"><ele>214.6</ele><time>2026-05-04T06:47:28.051Z</time></trkpt><trkpt lat="46.0789573" lon="9.3064804"><ele>214.2</ele><time>2026-05-04T06:47:30.05Z</time></trkpt><trkpt lat="46.0790273" lon="9.3066329"><ele>213.8</ele><time>2026-05-04T06:47:32.05Z</time></trkpt><trkpt lat="46.0790783" lon="9.3067495"><ele>213.4</ele><time>2026-05-04T06:47:34.051Z</time></trkpt><trkpt lat="46.0791369" lon="9.306869"><ele>213.0</ele><time>2026-05-04T06:47:36.052Z</time></trkpt><trkpt lat="46.0791874" lon="9.3069835"><ele>212.8</ele><time>2026-05-04T06:47:38.052Z</time></trkpt><trkpt lat="46.079248" lon="9.307108"><ele>212.60000000000002</ele><time>2026-05-04T06:47:40.05Z</time></trkpt><trkpt lat="46.0793127" lon="9.3072386"><ele>212.39999999999998</ele><time>2026-05-04T06:47:42.05Z</time></trkpt><trkpt lat="46.0793599" lon="9.3073664"><ele>212.2</ele><time>2026-05-04T06:47:44.05Z</time></trkpt><trkpt lat="46.0794185" lon="9.3075015"><ele>212.0</ele><time>2026-05-04T06:47:46.051Z</time></trkpt><trkpt lat="46.079486" lon="9.3076219"><ele>212.0</ele><time>2026-05-04T06:47:48.051Z</time></trkpt><trkpt lat="46.0795512" lon="9.3077602"><ele>212.0</ele><time>2026-05-04T06:47:50.05Z</time></trkpt><trkpt lat="46.0796088" lon="9.3078743"><ele>212.0</ele><time>2026-05-04T06:47:52.051Z</time></trkpt><trkpt lat="46.079672" lon="9.307995"><ele>212.0</ele><time>2026-05-04T06:47:54.05Z</time></trkpt><trkpt lat="46.079744" lon="9.3081136"><ele>212.0</ele><time>2026-05-04T06:47:56.05Z</time></trkpt><trkpt lat="46.0798085" lon="9.308239"><ele>212.2</ele><time>2026-05-04T06:47:58.051Z</time></trkpt><trkpt lat="46.0798678" lon="9.3083706"><ele>212.39999999999998</ele><time>2026-05-04T06:48:00.051Z</time></trkpt><trkpt lat="46.0799232" lon="9.3084884"><ele>212.60000000000002</ele><time>2026-05-04T06:48:02.05Z</time></trkpt><trkpt lat="46.079988" lon="9.3086189"><ele>212.8</ele><time>2026-05-04T06:48:04.051Z</time></trkpt><trkpt lat="46.0800476" lon="9.3087535"><ele>213.0</ele><time>2026-05-04T06:48:06.051Z</time></trkpt><trkpt lat="46.0801137" lon="9.3088785"><ele>213.2</ele><time>2026-05-04T06:48:08.051Z</time></trkpt><trkpt lat="46.0801673" lon="9.3090045"><ele>213.4</ele><time>2026-05-04T06:48:10.052Z</time></trkpt><trkpt lat="46.0802321" lon="9.3091314"><ele>213.59999999999997</ele><time>2026-05-04T06:48:12.051Z</time></trkpt><trkpt lat="46.080298" lon="9.30927"><ele>213.79999999999998</ele><time>2026-05-04T06:48:14.05Z</time></trkpt><trkpt lat="46.08036" lon="9.3094125"><ele>214.0</ele><time>2026-05-04T06:48:16.051Z</time></trkpt><trkpt lat="46.0804181" lon="9.309536"><ele>214.0</ele><time>2026-05-04T06:48:18.051Z</time></trkpt><trkpt lat="46.0804861" lon="9.3096742"><ele>213.99999999999997</ele><time>2026-05-04T06:48:20.05Z</time></trkpt><trkpt lat="46.0805231" lon="9.3097477"><ele>213.99999999999997</ele><time>2026-05-04T06:48:21.051Z</time></trkpt><trkpt lat="46.0805859" lon="9.3098812"><ele>214.0</ele><time>2026-05-04T06:48:23.051Z</time></trkpt><trkpt lat="46.0806554" lon="9.3100131"><ele>214.0</ele><time>2026-05-04T06:48:25.051Z</time></trkpt><trkpt lat="46.0807291" lon="9.3101425"><ele>212.75</ele><time>2026-05-04T06:48:27.05Z</time></trkpt><trkpt lat="46.0808083" lon="9.3102611"><ele>211.5</ele><time>2026-05-04T06:48:29.051Z</time></trkpt><trkpt lat="46.0808936" lon="9.3103632"><ele>210.25</ele><time>2026-05-04T06:48:31.051Z</time></trkpt><trkpt lat="46.080986" lon="9.3104688"><ele>209.0</ele><time>2026-05-04T06:48:33.052Z</time></trkpt><trkpt lat="46.081082" lon="9.310558"><ele>211.6</ele><time>2026-05-04T06:48:35.052Z</time></trkpt><trkpt lat="46.0811752" lon="9.3106439"><ele>214.2</ele><time>2026-05-04T06:48:37.052Z</time></trkpt><trkpt lat="46.0812769" lon="9.3107113"><ele>216.79999999999998</ele><time>2026-05-04T06:48:39.051Z</time></trkpt><trkpt lat="46.0813795" lon="9.3107617"><ele>219.39999999999998</ele><time>2026-05-04T06:48:41.051Z</time></trkpt><trkpt lat="46.081486" lon="9.3108061"><ele>222.0</ele><time>2026-05-04T06:48:43.05Z</time></trkpt><trkpt lat="46.0815919" lon="9.3108373"><ele>219.75</ele><time>2026-05-04T06:48:45.051Z</time></trkpt><trkpt lat="46.0817057" lon="9.3108682"><ele>217.5</ele><time>2026-05-04T06:48:47.051Z</time></trkpt><trkpt lat="46.0818189" lon="9.3108905"><ele>215.25</ele><time>2026-05-04T06:48:49.05Z</time></trkpt><trkpt lat="46.0819285" lon="9.3109108"><ele>213.0</ele><time>2026-05-04T06:48:51.051Z</time></trkpt><trkpt lat="46.0820435" lon="9.3109298"><ele>213.0</ele><time>2026-05-04T06:48:53.052Z</time></trkpt><trkpt lat="46.0821092" lon="9.3109432"><ele>213.0</ele><time>2026-05-04T06:48:54.051Z</time></trkpt><trkpt lat="46.0821713" lon="9.3109605"><ele>213.0</ele><time>2026-05-04T06:48:55.051Z</time></trkpt><trkpt lat="46.0822801" lon="9.3110169"><ele>213.0</ele><time>2026-05-04T06:48:57.051Z</time></trkpt><trkpt lat="46.0823407" lon="9.311046"><ele>213.0</ele><time>2026-05-04T06:48:58.051Z</time></trkpt><trkpt lat="46.0824551" lon="9.3111215"><ele>213.0</ele><time>2026-05-04T06:49:00.05Z</time></trkpt><trkpt lat="46.0825119" lon="9.3111759"><ele>211.60000000000002</ele><time>2026-05-04T06:49:01.05Z</time></trkpt><trkpt lat="46.082607" lon="9.311243"><ele>210.20000000000002</ele><time>2026-05-04T06:49:03.051Z</time></trkpt><trkpt lat="46.0826723" lon="9.3112654"><ele>208.8</ele><time>2026-05-04T06:49:04.051Z</time></trkpt><trkpt lat="46.0827396" lon="9.3112823"><ele>207.4</ele><time>2026-05-04T06:49:05.051Z</time></trkpt><trkpt lat="46.0828659" lon="9.3112779"><ele>206.0</ele><time>2026-05-04T06:49:07.051Z</time></trkpt><trkpt lat="46.0829887" lon="9.3112345"><ele>206.0</ele><time>2026-05-04T06:49:09.051Z</time></trkpt><trkpt lat="46.0830983" lon="9.3112115"><ele>206.0</ele><time>2026-05-04T06:49:11.051Z</time></trkpt><trkpt lat="46.0832172" lon="9.3111813"><ele>206.0</ele><time>2026-05-04T06:49:13.052Z</time></trkpt><trkpt lat="46.083326" lon="9.311174"><ele>206.0</ele><time>2026-05-04T06:49:15.051Z</time></trkpt><trkpt lat="46.0833975" lon="9.3111581"><ele>206.0</ele><time>2026-05-04T06:49:16.05Z</time></trkpt><trkpt lat="46.0835121" lon="9.3111413"><ele>207.0</ele><time>2026-05-04T06:49:18.051Z</time></trkpt><trkpt lat="46.0835819" lon="9.3111058"><ele>208.0</ele><time>2026-05-04T06:49:19.051Z</time></trkpt><trkpt lat="46.0836991" lon="9.3110733"><ele>209.0</ele><time>2026-05-04T06:49:21.053Z</time></trkpt><trkpt lat="46.0838211" lon="9.3110495"><ele>210.0</ele><time>2026-05-04T06:49:23.053Z</time></trkpt><trkpt lat="46.0838906" lon="9.3110404"><ele>211.0</ele><time>2026-05-04T06:49:24.051Z</time></trkpt><trkpt lat="46.084002" lon="9.311001"><ele>212.75</ele><time>2026-05-04T06:49:26.051Z</time></trkpt><trkpt lat="46.0841212" lon="9.3109784"><ele>214.5</ele><time>2026-05-04T06:49:28.052Z</time></trkpt><trkpt lat="46.0842491" lon="9.3109782"><ele>216.25</ele><time>2026-05-04T06:49:30.052Z</time></trkpt><trkpt lat="46.0843559" lon="9.3109534"><ele>218.0</ele><time>2026-05-04T06:49:32.051Z</time></trkpt><trkpt lat="46.0844682" lon="9.3109131"><ele>218.0</ele><time>2026-05-04T06:49:34.051Z</time></trkpt><trkpt lat="46.0845775" lon="9.3108829"><ele>218.0</ele><time>2026-05-04T06:49:36.05Z</time></trkpt><trkpt lat="46.0846851" lon="9.3108424"><ele>218.0</ele><time>2026-05-04T06:49:38.051Z</time></trkpt><trkpt lat="46.0848052" lon="9.3108014"><ele>218.0</ele><time>2026-05-04T06:49:40.051Z</time></trkpt><trkpt lat="46.0849125" lon="9.3107563"><ele>218.60000000000002</ele><time>2026-05-04T06:49:42.051Z</time></trkpt><trkpt lat="46.0850249" lon="9.3106972"><ele>219.20000000000002</ele><time>2026-05-04T06:49:44.052Z</time></trkpt><trkpt lat="46.0851303" lon="9.3106446"><ele>219.8</ele><time>2026-05-04T06:49:46.05Z</time></trkpt><trkpt lat="46.0852306" lon="9.3105956"><ele>220.4</ele><time>2026-05-04T06:49:48.051Z</time></trkpt><trkpt lat="46.0853354" lon="9.3105398"><ele>221.0</ele><time>2026-05-04T06:49:50.052Z</time></trkpt><trkpt lat="46.0854363" lon="9.3104683"><ele>218.0</ele><time>2026-05-04T06:49:52.052Z</time></trkpt><trkpt lat="46.0855304" lon="9.310409"><ele>215.00000000000003</ele><time>2026-05-04T06:49:54.051Z</time></trkpt><trkpt lat="46.0856306" lon="9.3103799"><ele>212.0</ele><time>2026-05-04T06:49:56.051Z</time></trkpt><trkpt lat="46.0857212" lon="9.3103434"><ele>209.0</ele><time>2026-05-04T06:49:58.052Z</time></trkpt><trkpt lat="46.0858126" lon="9.31032"><ele>206.0</ele><time>2026-05-04T06:50:00.052Z</time></trkpt><trkpt lat="46.085902" lon="9.3102956"><ele>206.0</ele><time>2026-05-04T06:50:02.052Z</time></trkpt><trkpt lat="46.0859912" lon="9.3102614"><ele>206.0</ele><time>2026-05-04T06:50:04.051Z</time></trkpt><trkpt lat="46.0860747" lon="9.3102369"><ele>206.0</ele><time>2026-05-04T06:50:06.052Z</time></trkpt><trkpt lat="46.0861676" lon="9.3102019"><ele>206.0</ele><time>2026-05-04T06:50:08.051Z</time></trkpt><trkpt lat="46.0862515" lon="9.3101732"><ele>206.0</ele><time>2026-05-04T06:50:10.051Z</time></trkpt><trkpt lat="46.0863458" lon="9.3101409"><ele>206.00000000000003</ele><time>2026-05-04T06:50:12.051Z</time></trkpt><trkpt lat="46.0864297" lon="9.310124"><ele>206.0</ele><time>2026-05-04T06:50:14.051Z</time></trkpt><trkpt lat="46.0865089" lon="9.3100902"><ele>206.0</ele><time>2026-05-04T06:50:16.05Z</time></trkpt><trkpt lat="46.0865935" lon="9.3100858"><ele>206.0</ele><time>2026-05-04T06:50:18.05Z</time></trkpt><trkpt lat="46.0866821" lon="9.3100869"><ele>206.00000000000003</ele><time>2026-05-04T06:50:20.052Z</time></trkpt><trkpt lat="46.0867691" lon="9.3100835"><ele>206.0</ele><time>2026-05-04T06:50:22.051Z</time></trkpt><trkpt lat="46.0868533" lon="9.3100776"><ele>208.00000000000003</ele><time>2026-05-04T06:50:24.051Z</time></trkpt><trkpt lat="46.0869459" lon="9.3100661"><ele>210.0</ele><time>2026-05-04T06:50:26.052Z</time></trkpt><trkpt lat="46.0870311" lon="9.3100611"><ele>212.0</ele><time>2026-05-04T06:50:28.05Z</time></trkpt><trkpt lat="46.0871211" lon="9.31007"><ele>214.0</ele><time>2026-05-04T06:50:30.05Z</time></trkpt><trkpt lat="46.087197" lon="9.3100984"><ele>216.00000000000003</ele><time>2026-05-04T06:50:32.052Z</time></trkpt><trkpt lat="46.0872782" lon="9.310131"><ele>218.0</ele><time>2026-05-04T06:50:34.052Z</time></trkpt><trkpt lat="46.0873523" lon="9.3101823"><ele>218.00000000000003</ele><time>2026-05-04T06:50:36.051Z</time></trkpt><trkpt lat="46.0874261" lon="9.3102391"><ele>218.0</ele><time>2026-05-04T06:50:38.051Z</time></trkpt><trkpt lat="46.0875009" lon="9.3103094"><ele>218.0</ele><time>2026-05-04T06:50:40.05Z</time></trkpt><trkpt lat="46.0875851" lon="9.3103739"><ele>218.0</ele><time>2026-05-04T06:50:42.051Z</time></trkpt><trkpt lat="46.0876604" lon="9.3104288"><ele>218.00000000000003</ele><time>2026-05-04T06:50:44.052Z</time></trkpt><trkpt lat="46.0877334" lon="9.3104828"><ele>218.0</ele><time>2026-05-04T06:50:46.052Z</time></trkpt><trkpt lat="46.0878047" lon="9.3105344"><ele>221.16666666666669</ele><time>2026-05-04T06:50:48.051Z</time></trkpt><trkpt lat="46.0878706" lon="9.3105912"><ele>224.33333333333334</ele><time>2026-05-04T06:50:50.051Z</time></trkpt><trkpt lat="46.087938" lon="9.3106532"><ele>227.5</ele><time>2026-05-04T06:50:52.05Z</time></trkpt><trkpt lat="46.0880055" lon="9.3107101"><ele>230.66666666666669</ele><time>2026-05-04T06:50:54.052Z</time></trkpt><trkpt lat="46.088098" lon="9.3107499"><ele>233.83333333333334</ele><time>2026-05-04T06:50:56.052Z</time></trkpt><trkpt lat="46.0881543" lon="9.3108103"><ele>237.0</ele><time>2026-05-04T06:50:58.05Z</time></trkpt><trkpt lat="46.0882111" lon="9.3108755"><ele>235.16666666666666</ele><time>2026-05-04T06:51:00.051Z</time></trkpt><trkpt lat="46.0882766" lon="9.3109363"><ele>233.33333333333331</ele><time>2026-05-04T06:51:02.051Z</time></trkpt><trkpt lat="46.0883391" lon="9.3109879"><ele>231.5</ele><time>2026-05-04T06:51:04.051Z</time></trkpt><trkpt lat="46.0883949" lon="9.3110368"><ele>229.66666666666666</ele><time>2026-05-04T06:51:06.053Z</time></trkpt><trkpt lat="46.0884743" lon="9.3110804"><ele>227.83333333333331</ele><time>2026-05-04T06:51:08.053Z</time></trkpt><trkpt lat="46.0885515" lon="9.3111287"><ele>226.0</ele><time>2026-05-04T06:51:10.051Z</time></trkpt><trkpt lat="46.0886208" lon="9.3111763"><ele>225.99999999999997</ele><time>2026-05-04T06:51:12.051Z</time></trkpt><trkpt lat="46.0886911" lon="9.3112288"><ele>226.0</ele><time>2026-05-04T06:51:14.052Z</time></trkpt><trkpt lat="46.0887575" lon="9.3112811"><ele>226.0</ele><time>2026-05-04T06:51:16.053Z</time></trkpt><trkpt lat="46.0888212" lon="9.3113338"><ele>226.0</ele><time>2026-05-04T06:51:18.052Z</time></trkpt><trkpt lat="46.0888867" lon="9.311369"><ele>225.99999999999997</ele><time>2026-05-04T06:51:20.051Z</time></trkpt><trkpt lat="46.0889566" lon="9.3114025"><ele>226.0</ele><time>2026-05-04T06:51:22.051Z</time></trkpt><trkpt lat="46.0890374" lon="9.3114329"><ele>228.49999999999997</ele><time>2026-05-04T06:51:24.05Z</time></trkpt><trkpt lat="46.0891263" lon="9.3114583"><ele>231.0</ele><time>2026-05-04T06:51:26.051Z</time></trkpt><trkpt lat="46.0892087" lon="9.3114775"><ele>233.5</ele><time>2026-05-04T06:51:28.05Z</time></trkpt><trkpt lat="46.0892977" lon="9.3115024"><ele>236.0</ele><time>2026-05-04T06:51:30.052Z</time></trkpt><trkpt lat="46.0893928" lon="9.3114865"><ele>238.49999999999997</ele><time>2026-05-04T06:51:33.051Z</time></trkpt><trkpt lat="46.0894614" lon="9.3114363"><ele>241.0</ele><time>2026-05-04T06:51:35.051Z</time></trkpt><trkpt lat="46.0895407" lon="9.3114209"><ele>241.0</ele><time>2026-05-04T06:51:37.053Z</time></trkpt><trkpt lat="46.0896361" lon="9.3114221"><ele>241.00000000000003</ele><time>2026-05-04T06:51:39.052Z</time></trkpt><trkpt lat="46.0897258" lon="9.3114551"><ele>241.00000000000003</ele><time>2026-05-04T06:51:41.05Z</time></trkpt><trkpt lat="46.0898304" lon="9.3114991"><ele>241.0</ele><time>2026-05-04T06:51:43.051Z</time></trkpt><trkpt lat="46.0899534" lon="9.3115104"><ele>241.0</ele><time>2026-05-04T06:51:45.052Z</time></trkpt><trkpt lat="46.0900719" lon="9.3115506"><ele>241.20000000000002</ele><time>2026-05-04T06:51:47.052Z</time></trkpt><trkpt lat="46.0901802" lon="9.3115811"><ele>241.40000000000003</ele><time>2026-05-04T06:51:49.05Z</time></trkpt><trkpt lat="46.0903029" lon="9.3116196"><ele>241.6</ele><time>2026-05-04T06:51:51.052Z</time></trkpt><trkpt lat="46.0903665" lon="9.3116454"><ele>241.8</ele><time>2026-05-04T06:51:52.052Z</time></trkpt><trkpt lat="46.0904533" lon="9.31167"><ele>242.0</ele><time>2026-05-04T06:51:53.053Z</time></trkpt><trkpt lat="46.0905891" lon="9.3117268"><ele>242.0</ele><time>2026-05-04T06:51:55.052Z</time></trkpt><trkpt lat="46.0906603" lon="9.3117621"><ele>241.99999999999997</ele><time>2026-05-04T06:51:56.052Z</time></trkpt><trkpt lat="46.0907284" lon="9.3118105"><ele>242.0</ele><time>2026-05-04T06:51:57.051Z</time></trkpt><trkpt lat="46.0907824" lon="9.3118757"><ele>242.0</ele><time>2026-05-04T06:51:58.051Z</time></trkpt><trkpt lat="46.0908412" lon="9.3119382"><ele>241.99999999999997</ele><time>2026-05-04T06:51:59.052Z</time></trkpt><trkpt lat="46.0909012" lon="9.3120003"><ele>242.0</ele><time>2026-05-04T06:52:00.051Z</time></trkpt><trkpt lat="46.0909632" lon="9.3120645"><ele>242.0</ele><time>2026-05-04T06:52:01.052Z</time></trkpt><trkpt lat="46.0910304" lon="9.3121351"><ele>238.83333333333334</ele><time>2026-05-04T06:52:02.052Z</time></trkpt><trkpt lat="46.09111" lon="9.3122118"><ele>235.66666666666669</ele><time>2026-05-04T06:52:03.052Z</time></trkpt><trkpt lat="46.0911844" lon="9.3122789"><ele>232.5</ele><time>2026-05-04T06:52:04.051Z</time></trkpt><trkpt lat="46.0912548" lon="9.3123397"><ele>229.33333333333331</ele><time>2026-05-04T06:52:05.052Z</time></trkpt><trkpt lat="46.0913275" lon="9.3123892"><ele>226.16666666666666</ele><time>2026-05-04T06:52:06.051Z</time></trkpt><trkpt lat="46.0913838" lon="9.3124408"><ele>223.0</ele><time>2026-05-04T06:52:07.05Z</time></trkpt><trkpt lat="46.091456" lon="9.3124848"><ele>223.49999999999997</ele><time>2026-05-04T06:52:08.051Z</time></trkpt><trkpt lat="46.0915241" lon="9.3125203"><ele>224.0</ele><time>2026-05-04T06:52:09.052Z</time></trkpt><trkpt lat="46.0916036" lon="9.3125542"><ele>224.5</ele><time>2026-05-04T06:52:10.052Z</time></trkpt><trkpt lat="46.0916774" lon="9.3125811"><ele>225.0</ele><time>2026-05-04T06:52:11.052Z</time></trkpt><trkpt lat="46.091754" lon="9.3126078"><ele>225.49999999999997</ele><time>2026-05-04T06:52:12.052Z</time></trkpt><trkpt lat="46.0918262" lon="9.312645"><ele>226.0</ele><time>2026-05-04T06:52:13.052Z</time></trkpt><trkpt lat="46.0918919" lon="9.3126854"><ele>225.99999999999997</ele><time>2026-05-04T06:52:14.052Z</time></trkpt><trkpt lat="46.0919649" lon="9.3127368"><ele>226.0</ele><time>2026-05-04T06:52:15.053Z</time></trkpt><trkpt lat="46.0920355" lon="9.3127844"><ele>226.0</ele><time>2026-05-04T06:52:16.053Z</time></trkpt><trkpt lat="46.0921003" lon="9.3128451"><ele>226.0</ele><time>2026-05-04T06:52:17.051Z</time></trkpt><trkpt lat="46.0921792" lon="9.3128971"><ele>225.99999999999997</ele><time>2026-05-04T06:52:18.05Z</time></trkpt><trkpt lat="46.0922529" lon="9.3129498"><ele>226.0</ele><time>2026-05-04T06:52:19.051Z</time></trkpt><trkpt lat="46.0923394" lon="9.3130061"><ele>225.99999999999997</ele><time>2026-05-04T06:52:20.052Z</time></trkpt><trkpt lat="46.0924109" lon="9.3130557"><ele>226.0</ele><time>2026-05-04T06:52:21.052Z</time></trkpt><trkpt lat="46.0924868" lon="9.3131048"><ele>226.0</ele><time>2026-05-04T06:52:22.052Z</time></trkpt><trkpt lat="46.0925686" lon="9.3131538"><ele>226.0</ele><time>2026-05-04T06:52:23.053Z</time></trkpt><trkpt lat="46.0926473" lon="9.31322"><ele>225.99999999999997</ele><time>2026-05-04T06:52:24.051Z</time></trkpt><trkpt lat="46.0927327" lon="9.3132879"><ele>226.0</ele><time>2026-05-04T06:52:25.052Z</time></trkpt><trkpt lat="46.0928091" lon="9.313345"><ele>226.33333333333331</ele><time>2026-05-04T06:52:26.052Z</time></trkpt><trkpt lat="46.0928831" lon="9.3133998"><ele>226.66666666666666</ele><time>2026-05-04T06:52:27.05Z</time></trkpt><trkpt lat="46.0929564" lon="9.3134534"><ele>227.0</ele><time>2026-05-04T06:52:28.052Z</time></trkpt><trkpt lat="46.0930319" lon="9.3135146"><ele>227.33333333333331</ele><time>2026-05-04T06:52:29.051Z</time></trkpt><trkpt lat="46.0931044" lon="9.3135721"><ele>227.66666666666666</ele><time>2026-05-04T06:52:30.052Z</time></trkpt><trkpt lat="46.0931744" lon="9.3136258"><ele>228.0</ele><time>2026-05-04T06:52:31.052Z</time></trkpt><trkpt lat="46.0932414" lon="9.3136971"><ele>228.83333333333334</ele><time>2026-05-04T06:52:32.051Z</time></trkpt><trkpt lat="46.093313" lon="9.3137512"><ele>229.66666666666669</ele><time>2026-05-04T06:52:33.052Z</time></trkpt><trkpt lat="46.0933882" lon="9.3138038"><ele>230.5</ele><time>2026-05-04T06:52:34.052Z</time></trkpt><trkpt lat="46.0934542" lon="9.3138561"><ele>231.33333333333334</ele><time>2026-05-04T06:52:35.053Z</time></trkpt><trkpt lat="46.0935259" lon="9.3139158"><ele>232.16666666666669</ele><time>2026-05-04T06:52:36.051Z</time></trkpt><trkpt lat="46.0936022" lon="9.3139768"><ele>233.0</ele><time>2026-05-04T06:52:37.051Z</time></trkpt><trkpt lat="46.0936776" lon="9.3140397"><ele>233.00000000000003</ele><time>2026-05-04T06:52:38.051Z</time></trkpt><trkpt lat="46.0937529" lon="9.314109"><ele>233.0</ele><time>2026-05-04T06:52:39.051Z</time></trkpt><trkpt lat="46.0938235" lon="9.314177"><ele>233.0</ele><time>2026-05-04T06:52:40.051Z</time></trkpt><trkpt lat="46.0938881" lon="9.3142468"><ele>233.0</ele><time>2026-05-04T06:52:41.051Z</time></trkpt><trkpt lat="46.0939362" lon="9.3143411"><ele>233.00000000000003</ele><time>2026-05-04T06:52:42.05Z</time></trkpt><trkpt lat="46.0939982" lon="9.3144264"><ele>233.0</ele><time>2026-05-04T06:52:43.052Z</time></trkpt><trkpt lat="46.0940466" lon="9.314517"><ele>231.66666666666669</ele><time>2026-05-04T06:52:44.051Z</time></trkpt><trkpt lat="46.094099" lon="9.314602"><ele>230.33333333333334</ele><time>2026-05-04T06:52:45.053Z</time></trkpt><trkpt lat="46.0941507" lon="9.3146816"><ele>229.0</ele><time>2026-05-04T06:52:46.051Z</time></trkpt><trkpt lat="46.0942041" lon="9.3147616"><ele>227.66666666666669</ele><time>2026-05-04T06:52:47.05Z</time></trkpt><trkpt lat="46.0942554" lon="9.3148422"><ele>226.33333333333334</ele><time>2026-05-04T06:52:48.051Z</time></trkpt><trkpt lat="46.0943035" lon="9.3149207"><ele>225.0</ele><time>2026-05-04T06:52:49.051Z</time></trkpt><trkpt lat="46.0943514" lon="9.315"><ele>225.00000000000003</ele><time>2026-05-04T06:52:50.052Z</time></trkpt><trkpt lat="46.0944013" lon="9.3150764"><ele>225.0</ele><time>2026-05-04T06:52:51.053Z</time></trkpt><trkpt lat="46.094449" lon="9.3151485"><ele>225.00000000000003</ele><time>2026-05-04T06:52:52.052Z</time></trkpt><trkpt lat="46.0945005" lon="9.3152173"><ele>225.00000000000003</ele><time>2026-05-04T06:52:53.051Z</time></trkpt><trkpt lat="46.0945474" lon="9.3152931"><ele>225.0</ele><time>2026-05-04T06:52:54.051Z</time></trkpt><trkpt lat="46.094597" lon="9.3153595"><ele>225.00000000000003</ele><time>2026-05-04T06:52:55.052Z</time></trkpt><trkpt lat="46.0946474" lon="9.3154335"><ele>225.00000000000003</ele><time>2026-05-04T06:52:56.052Z</time></trkpt><trkpt lat="46.0946942" lon="9.3155098"><ele>224.00000000000003</ele><time>2026-05-04T06:52:57.051Z</time></trkpt><trkpt lat="46.0947422" lon="9.315578"><ele>223.0</ele><time>2026-05-04T06:52:58.052Z</time></trkpt><trkpt lat="46.0947913" lon="9.315649"><ele>222.0</ele><time>2026-05-04T06:52:59.051Z</time></trkpt><trkpt lat="46.09484" lon="9.3157199"><ele>221.0</ele><time>2026-05-04T06:53:00.053Z</time></trkpt><trkpt lat="46.0948921" lon="9.3157918"><ele>220.0</ele><time>2026-05-04T06:53:01.051Z</time></trkpt><trkpt lat="46.0949402" lon="9.3158732"><ele>219.0</ele><time>2026-05-04T06:53:02.051Z</time></trkpt><trkpt lat="46.0949869" lon="9.3159413"><ele>218.0</ele><time>2026-05-04T06:53:03.051Z</time></trkpt><trkpt lat="46.0950408" lon="9.3160075"><ele>218.00000000000003</ele><time>2026-05-04T06:53:04.051Z</time></trkpt><trkpt lat="46.0950876" lon="9.3160735"><ele>218.0</ele><time>2026-05-04T06:53:05.05Z</time></trkpt><trkpt lat="46.0951414" lon="9.3161252"><ele>218.0</ele><time>2026-05-04T06:53:06.051Z</time></trkpt><trkpt lat="46.0952026" lon="9.3161738"><ele>218.0</ele><time>2026-05-04T06:53:07.051Z</time></trkpt><trkpt lat="46.095263" lon="9.3162171"><ele>218.00000000000003</ele><time>2026-05-04T06:53:08.051Z</time></trkpt><trkpt lat="46.0953837" lon="9.3162899"><ele>218.0</ele><time>2026-05-04T06:53:10.053Z</time></trkpt><trkpt lat="46.0954558" lon="9.3163127"><ele>218.0</ele><time>2026-05-04T06:53:11.051Z</time></trkpt><trkpt lat="46.095586" lon="9.3163586"><ele>218.0</ele><time>2026-05-04T06:53:13.052Z</time></trkpt><trkpt lat="46.0956488" lon="9.3163796"><ele>218.0</ele><time>2026-05-04T06:53:14.051Z</time></trkpt><trkpt lat="46.0957745" lon="9.3164227"><ele>218.0</ele><time>2026-05-04T06:53:16.053Z</time></trkpt><trkpt lat="46.0958438" lon="9.3164426"><ele>218.0</ele><time>2026-05-04T06:53:17.053Z</time></trkpt><trkpt lat="46.0959694" lon="9.3164921"><ele>219.00000000000003</ele><time>2026-05-04T06:53:19.053Z</time></trkpt><trkpt lat="46.0960398" lon="9.3165159"><ele>220.0</ele><time>2026-05-04T06:53:20.053Z</time></trkpt><trkpt lat="46.0961088" lon="9.3165399"><ele>221.0</ele><time>2026-05-04T06:53:21.052Z</time></trkpt><trkpt lat="46.0961774" lon="9.3165636"><ele>222.0</ele><time>2026-05-04T06:53:22.05Z</time></trkpt><trkpt lat="46.0962416" lon="9.3165917"><ele>223.00000000000003</ele><time>2026-05-04T06:53:23.053Z</time></trkpt><trkpt lat="46.0963099" lon="9.3166127"><ele>224.0</ele><time>2026-05-04T06:53:24.053Z</time></trkpt><trkpt lat="46.0964221" lon="9.3166526"><ele>224.0</ele><time>2026-05-04T06:53:26.051Z</time></trkpt><trkpt lat="46.0965386" lon="9.3166628"><ele>223.99999999999997</ele><time>2026-05-04T06:53:28.052Z</time></trkpt><trkpt lat="46.096608" lon="9.3166581"><ele>223.99999999999997</ele><time>2026-05-04T06:53:29.051Z</time></trkpt><trkpt lat="46.0966785" lon="9.3166378"><ele>224.0</ele><time>2026-05-04T06:53:30.051Z</time></trkpt><trkpt lat="46.0968059" lon="9.3165976"><ele>224.0</ele><time>2026-05-04T06:53:32.052Z</time></trkpt><trkpt lat="46.0968713" lon="9.316577"><ele>223.66666666666669</ele><time>2026-05-04T06:53:33.053Z</time></trkpt><trkpt lat="46.0969975" lon="9.3165569"><ele>223.33333333333334</ele><time>2026-05-04T06:53:35.051Z</time></trkpt><trkpt lat="46.0970659" lon="9.3165488"><ele>223.0</ele><time>2026-05-04T06:53:36.051Z</time></trkpt><trkpt lat="46.0971405" lon="9.3165556"><ele>222.66666666666669</ele><time>2026-05-04T06:53:37.051Z</time></trkpt><trkpt lat="46.0972116" lon="9.3165674"><ele>222.33333333333334</ele><time>2026-05-04T06:53:38.051Z</time></trkpt><trkpt lat="46.0972773" lon="9.3165829"><ele>222.0</ele><time>2026-05-04T06:53:39.051Z</time></trkpt><trkpt lat="46.0973432" lon="9.3166124"><ele>222.0</ele><time>2026-05-04T06:53:40.051Z</time></trkpt><trkpt lat="46.0974159" lon="9.3166487"><ele>222.0</ele><time>2026-05-04T06:53:41.051Z</time></trkpt><trkpt lat="46.0974782" lon="9.3166879"><ele>222.0</ele><time>2026-05-04T06:53:42.051Z</time></trkpt><trkpt lat="46.0975395" lon="9.3167296"><ele>222.0</ele><time>2026-05-04T06:53:43.052Z</time></trkpt><trkpt lat="46.0975983" lon="9.3167748"><ele>222.0</ele><time>2026-05-04T06:53:44.052Z</time></trkpt><trkpt lat="46.097657" lon="9.3168229"><ele>222.0</ele><time>2026-05-04T06:53:45.052Z</time></trkpt><trkpt lat="46.097721" lon="9.3168755"><ele>222.0</ele><time>2026-05-04T06:53:46.053Z</time></trkpt><trkpt lat="46.0977806" lon="9.3169291"><ele>221.0</ele><time>2026-05-04T06:53:47.052Z</time></trkpt><trkpt lat="46.097839" lon="9.3169739"><ele>220.0</ele><time>2026-05-04T06:53:48.051Z</time></trkpt><trkpt lat="46.0979486" lon="9.3170466"><ele>219.0</ele><time>2026-05-04T06:53:50.052Z</time></trkpt><trkpt lat="46.0980454" lon="9.3170902"><ele>218.0</ele><time>2026-05-04T06:53:52.052Z</time></trkpt><trkpt lat="46.0981599" lon="9.3171188"><ele>217.0</ele><time>2026-05-04T06:53:54.052Z</time></trkpt><trkpt lat="46.0982654" lon="9.3171353"><ele>215.39999999999998</ele><time>2026-05-04T06:53:56.052Z</time></trkpt><trkpt lat="46.0983754" lon="9.3171371"><ele>213.79999999999998</ele><time>2026-05-04T06:53:58.052Z</time></trkpt><trkpt lat="46.0984925" lon="9.3171431"><ele>212.2</ele><time>2026-05-04T06:54:00.051Z</time></trkpt><trkpt lat="46.0985603" lon="9.3171396"><ele>210.6</ele><time>2026-05-04T06:54:01.052Z</time></trkpt><trkpt lat="46.0986705" lon="9.3171071"><ele>209.0</ele><time>2026-05-04T06:54:03.051Z</time></trkpt><trkpt lat="46.0987869" lon="9.3170981"><ele>209.0</ele><time>2026-05-04T06:54:05.053Z</time></trkpt><trkpt lat="46.098906" lon="9.3170884"><ele>209.0</ele><time>2026-05-04T06:54:07.051Z</time></trkpt><trkpt lat="46.0990149" lon="9.3170959"><ele>209.0</ele><time>2026-05-04T06:54:09.051Z</time></trkpt><trkpt lat="46.099125" lon="9.3170928"><ele>209.0</ele><time>2026-05-04T06:54:11.05Z</time></trkpt><trkpt lat="46.0992512" lon="9.3170909"><ele>208.39999999999998</ele><time>2026-05-04T06:54:13.052Z</time></trkpt><trkpt lat="46.0993702" lon="9.317107"><ele>207.8</ele><time>2026-05-04T06:54:15.05Z</time></trkpt><trkpt lat="46.0994915" lon="9.317103"><ele>207.2</ele><time>2026-05-04T06:54:17.053Z</time></trkpt><trkpt lat="46.0996233" lon="9.3171062"><ele>206.60000000000002</ele><time>2026-05-04T06:54:19.052Z</time></trkpt><trkpt lat="46.0996856" lon="9.3171296"><ele>206.0</ele><time>2026-05-04T06:54:20.052Z</time></trkpt><trkpt lat="46.0997735" lon="9.3171447"><ele>206.00000000000003</ele><time>2026-05-04T06:54:22.053Z</time></trkpt><trkpt lat="46.0998847" lon="9.317148"><ele>206.0</ele><time>2026-05-04T06:54:24.052Z</time></trkpt><trkpt lat="46.0999999" lon="9.3171858"><ele>206.0</ele><time>2026-05-04T06:54:26.051Z</time></trkpt><trkpt lat="46.1000699" lon="9.3172169"><ele>206.0</ele><time>2026-05-04T06:54:27.051Z</time></trkpt><trkpt lat="46.1001329" lon="9.3172423"><ele>206.00000000000003</ele><time>2026-05-04T06:54:28.051Z</time></trkpt><trkpt lat="46.1001901" lon="9.3172826"><ele>206.0</ele><time>2026-05-04T06:54:29.053Z</time></trkpt><trkpt lat="46.1002952" lon="9.3173443"><ele>210.0</ele><time>2026-05-04T06:54:31.052Z</time></trkpt><trkpt lat="46.1003553" lon="9.3173819"><ele>214.0</ele><time>2026-05-04T06:54:32.052Z</time></trkpt><trkpt lat="46.1004685" lon="9.3174539"><ele>218.00000000000003</ele><time>2026-05-04T06:54:34.052Z</time></trkpt><trkpt lat="46.1005591" lon="9.3175199"><ele>222.0</ele><time>2026-05-04T06:54:35.053Z</time></trkpt><trkpt lat="46.1006123" lon="9.3175791"><ele>226.0</ele><time>2026-05-04T06:54:36.052Z</time></trkpt><trkpt lat="46.1007252" lon="9.3176427"><ele>224.85714285714286</ele><time>2026-05-04T06:54:38.05Z</time></trkpt><trkpt lat="46.1008301" lon="9.3177061"><ele>223.7142857142857</ele><time>2026-05-04T06:54:40.052Z</time></trkpt><trkpt lat="46.1008873" lon="9.3177474"><ele>222.57142857142856</ele><time>2026-05-04T06:54:41.052Z</time></trkpt><trkpt lat="46.1009497" lon="9.3177892"><ele>221.42857142857144</ele><time>2026-05-04T06:54:42.051Z</time></trkpt><trkpt lat="46.1010049" lon="9.3178382"><ele>220.28571428571428</ele><time>2026-05-04T06:54:43.051Z</time></trkpt><trkpt lat="46.1010688" lon="9.3178789"><ele>219.14285714285714</ele><time>2026-05-04T06:54:44.051Z</time></trkpt><trkpt lat="46.1011328" lon="9.3179123"><ele>218.0</ele><time>2026-05-04T06:54:45.052Z</time></trkpt><trkpt lat="46.1011947" lon="9.3179529"><ele>218.0</ele><time>2026-05-04T06:54:46.052Z</time></trkpt><trkpt lat="46.101253" lon="9.3179955"><ele>218.0</ele><time>2026-05-04T06:54:47.053Z</time></trkpt><trkpt lat="46.101317" lon="9.3180379"><ele>218.0</ele><time>2026-05-04T06:54:48.052Z</time></trkpt><trkpt lat="46.1013805" lon="9.3180669"><ele>218.0</ele><time>2026-05-04T06:54:49.051Z</time></trkpt><trkpt lat="46.1014398" lon="9.3181054"><ele>218.0</ele><time>2026-05-04T06:54:50.051Z</time></trkpt><trkpt lat="46.101505" lon="9.3181407"><ele>218.0</ele><time>2026-05-04T06:54:51.052Z</time></trkpt><trkpt lat="46.101567" lon="9.3181834"><ele>218.0</ele><time>2026-05-04T06:54:52.052Z</time></trkpt><trkpt lat="46.1016635" lon="9.3182874"><ele>218.2</ele><time>2026-05-04T06:54:54.052Z</time></trkpt><trkpt lat="46.1017745" lon="9.3183796"><ele>218.4</ele><time>2026-05-04T06:54:56.053Z</time></trkpt><trkpt lat="46.1018347" lon="9.3184288"><ele>218.59999999999997</ele><time>2026-05-04T06:54:57.052Z</time></trkpt><trkpt lat="46.1019296" lon="9.3185254"><ele>218.79999999999998</ele><time>2026-05-04T06:54:59.052Z</time></trkpt><trkpt lat="46.1020157" lon="9.3186412"><ele>219.0</ele><time>2026-05-04T06:55:01.051Z</time></trkpt><trkpt lat="46.1020917" lon="9.3187706"><ele>219.0</ele><time>2026-05-04T06:55:03.052Z</time></trkpt><trkpt lat="46.1021608" lon="9.3189106"><ele>219.0</ele><time>2026-05-04T06:55:05.051Z</time></trkpt><trkpt lat="46.1022502" lon="9.3190358"><ele>219.0</ele><time>2026-05-04T06:55:07.052Z</time></trkpt><trkpt lat="46.1023615" lon="9.3191556"><ele>219.0</ele><time>2026-05-04T06:55:09.052Z</time></trkpt><trkpt lat="46.1024688" lon="9.3192637"><ele>219.0</ele><time>2026-05-04T06:55:11.053Z</time></trkpt><trkpt lat="46.1025223" lon="9.3193193"><ele>219.0</ele><time>2026-05-04T06:55:12.051Z</time></trkpt><trkpt lat="46.1025911" lon="9.319379"><ele>219.0</ele><time>2026-05-04T06:55:13.051Z</time></trkpt><trkpt lat="46.1026526" lon="9.3194228"><ele>219.0</ele><time>2026-05-04T06:55:14.052Z</time></trkpt><trkpt lat="46.1027171" lon="9.3194729"><ele>219.0</ele><time>2026-05-04T06:55:15.052Z</time></trkpt><trkpt lat="46.1028196" lon="9.3195648"><ele>219.0</ele><time>2026-05-04T06:55:17.051Z</time></trkpt><trkpt lat="46.1028783" lon="9.3196082"><ele>219.0</ele><time>2026-05-04T06:55:18.051Z</time></trkpt><trkpt lat="46.1029347" lon="9.3196527"><ele>219.0</ele><time>2026-05-04T06:55:19.051Z</time></trkpt><trkpt lat="46.103042" lon="9.3197423"><ele>219.0</ele><time>2026-05-04T06:55:21.051Z</time></trkpt><trkpt lat="46.1031061" lon="9.3197942"><ele>219.0</ele><time>2026-05-04T06:55:22.052Z</time></trkpt><trkpt lat="46.1031623" lon="9.3198406"><ele>219.0</ele><time>2026-05-04T06:55:23.052Z</time></trkpt><trkpt lat="46.103215" lon="9.3199024"><ele>219.0</ele><time>2026-05-04T06:55:24.051Z</time></trkpt><trkpt lat="46.1032724" lon="9.3199538"><ele>218.14285714285714</ele><time>2026-05-04T06:55:25.051Z</time></trkpt><trkpt lat="46.1033286" lon="9.3200244"><ele>217.28571428571428</ele><time>2026-05-04T06:55:26.052Z</time></trkpt><trkpt lat="46.1033917" lon="9.3200755"><ele>216.42857142857142</ele><time>2026-05-04T06:55:27.052Z</time></trkpt><trkpt lat="46.1034486" lon="9.320126"><ele>215.57142857142856</ele><time>2026-05-04T06:55:28.052Z</time></trkpt><trkpt lat="46.1035037" lon="9.3201712"><ele>214.71428571428572</ele><time>2026-05-04T06:55:29.052Z</time></trkpt><trkpt lat="46.1035597" lon="9.3202295"><ele>213.85714285714283</ele><time>2026-05-04T06:55:30.053Z</time></trkpt><trkpt lat="46.1036164" lon="9.3202815"><ele>213.0</ele><time>2026-05-04T06:55:31.053Z</time></trkpt><trkpt lat="46.1036698" lon="9.3203373"><ele>212.99999999999997</ele><time>2026-05-04T06:55:32.051Z</time></trkpt><trkpt lat="46.1037245" lon="9.3203913"><ele>213.0</ele><time>2026-05-04T06:55:33.052Z</time></trkpt><trkpt lat="46.1037703" lon="9.3204546"><ele>213.0</ele><time>2026-05-04T06:55:34.054Z</time></trkpt><trkpt lat="46.1038294" lon="9.3205032"><ele>213.0</ele><time>2026-05-04T06:55:35.052Z</time></trkpt><trkpt lat="46.1038847" lon="9.3205566"><ele>213.0</ele><time>2026-05-04T06:55:36.052Z</time></trkpt><trkpt lat="46.103943" lon="9.3206122"><ele>212.99999999999997</ele><time>2026-05-04T06:55:37.052Z</time></trkpt><trkpt lat="46.1039974" lon="9.3206617"><ele>213.0</ele><time>2026-05-04T06:55:38.052Z</time></trkpt><trkpt lat="46.1040529" lon="9.3207117"><ele>214.60000000000002</ele><time>2026-05-04T06:55:39.052Z</time></trkpt><trkpt lat="46.1041649" lon="9.3207971"><ele>216.20000000000002</ele><time>2026-05-04T06:55:41.052Z</time></trkpt><trkpt lat="46.1042214" lon="9.3208408"><ele>217.8</ele><time>2026-05-04T06:55:42.051Z</time></trkpt><trkpt lat="46.1042796" lon="9.320902"><ele>219.4</ele><time>2026-05-04T06:55:43.053Z</time></trkpt><trkpt lat="46.1043433" lon="9.3209509"><ele>221.0</ele><time>2026-05-04T06:55:44.052Z</time></trkpt><trkpt lat="46.1044702" lon="9.3210049"><ele>221.00000000000003</ele><time>2026-05-04T06:55:46.052Z</time></trkpt><trkpt lat="46.1045352" lon="9.3210352"><ele>221.0</ele><time>2026-05-04T06:55:47.052Z</time></trkpt><trkpt lat="46.1046405" lon="9.3210946"><ele>221.0</ele><time>2026-05-04T06:55:49.052Z</time></trkpt><trkpt lat="46.1047041" lon="9.3211123"><ele>221.0</ele><time>2026-05-04T06:55:50.052Z</time></trkpt><trkpt lat="46.1047658" lon="9.3211366"><ele>221.00000000000003</ele><time>2026-05-04T06:55:51.052Z</time></trkpt><trkpt lat="46.1048532" lon="9.321178"><ele>221.0</ele><time>2026-05-04T06:55:53.052Z</time></trkpt><trkpt lat="46.1049506" lon="9.3211825"><ele>220.8</ele><time>2026-05-04T06:55:55.052Z</time></trkpt><trkpt lat="46.1050589" lon="9.3211776"><ele>220.60000000000002</ele><time>2026-05-04T06:55:57.052Z</time></trkpt><trkpt lat="46.1051674" lon="9.3211596"><ele>220.4</ele><time>2026-05-04T06:55:59.052Z</time></trkpt><trkpt lat="46.1052685" lon="9.3211267"><ele>220.2</ele><time>2026-05-04T06:56:01.052Z</time></trkpt><trkpt lat="46.1053805" lon="9.3211259"><ele>220.0</ele><time>2026-05-04T06:56:03.052Z</time></trkpt><trkpt lat="46.1054871" lon="9.3210994"><ele>220.0</ele><time>2026-05-04T06:56:05.052Z</time></trkpt><trkpt lat="46.1056019" lon="9.3210548"><ele>220.0</ele><time>2026-05-04T06:56:07.052Z</time></trkpt><trkpt lat="46.1057029" lon="9.3210097"><ele>220.0</ele><time>2026-05-04T06:56:09.054Z</time></trkpt><trkpt lat="46.1058081" lon="9.320988"><ele>220.0</ele><time>2026-05-04T06:56:11.053Z</time></trkpt><trkpt lat="46.1059072" lon="9.3209644"><ele>220.0</ele><time>2026-05-04T06:56:13.052Z</time></trkpt><trkpt lat="46.1060546" lon="9.3208888"><ele>219.0</ele><time>2026-05-04T06:56:16.052Z</time></trkpt><trkpt lat="46.1061536" lon="9.3208451"><ele>218.0</ele><time>2026-05-04T06:56:18.052Z</time></trkpt><trkpt lat="46.1062558" lon="9.3208115"><ele>217.0</ele><time>2026-05-04T06:56:20.051Z</time></trkpt><trkpt lat="46.1063738" lon="9.3207551"><ele>216.0</ele><time>2026-05-04T06:56:23.053Z</time></trkpt><trkpt lat="46.1064442" lon="9.3206906"><ele>215.0</ele><time>2026-05-04T06:56:25.052Z</time></trkpt><trkpt lat="46.1065204" lon="9.3206195"><ele>214.8</ele><time>2026-05-04T06:56:27.053Z</time></trkpt><trkpt lat="46.1066014" lon="9.3205418"><ele>214.6</ele><time>2026-05-04T06:56:29.051Z</time></trkpt><trkpt lat="46.1066757" lon="9.3204603"><ele>214.39999999999998</ele><time>2026-05-04T06:56:31.498Z</time></trkpt><trkpt lat="46.1067534" lon="9.3203651"><ele>214.2</ele><time>2026-05-04T06:56:33.052Z</time></trkpt><trkpt lat="46.1068314" lon="9.3202873"><ele>214.0</ele><time>2026-05-04T06:56:35.053Z</time></trkpt><trkpt lat="46.1069098" lon="9.3202352"><ele>214.0</ele><time>2026-05-04T06:56:37.052Z</time></trkpt><trkpt lat="46.106988" lon="9.3201924"><ele>213.99999999999997</ele><time>2026-05-04T06:56:39.052Z</time></trkpt><trkpt lat="46.1070711" lon="9.320155"><ele>213.99999999999997</ele><time>2026-05-04T06:56:41.052Z</time></trkpt><trkpt lat="46.1071541" lon="9.3201255"><ele>214.0</ele><time>2026-05-04T06:56:43.051Z</time></trkpt><trkpt lat="46.1072971" lon="9.3201136"><ele>214.0</ele><time>2026-05-04T06:56:45.052Z</time></trkpt><trkpt lat="46.1074044" lon="9.3201169"><ele>216.6</ele><time>2026-05-04T06:56:47.051Z</time></trkpt><trkpt lat="46.1075077" lon="9.3201086"><ele>219.2</ele><time>2026-05-04T06:56:49.051Z</time></trkpt><trkpt lat="46.1075976" lon="9.3200999"><ele>221.79999999999998</ele><time>2026-05-04T06:56:51.051Z</time></trkpt><trkpt lat="46.107669" lon="9.3199789"><ele>224.39999999999998</ele><time>2026-05-04T06:56:53.051Z</time></trkpt><trkpt lat="46.1077621" lon="9.3199131"><ele>227.0</ele><time>2026-05-04T06:56:55.052Z</time></trkpt><trkpt lat="46.1078595" lon="9.3198877"><ele>227.0</ele><time>2026-05-04T06:56:57.051Z</time></trkpt><trkpt lat="46.1079643" lon="9.3198784"><ele>227.0</ele><time>2026-05-04T06:56:59.052Z</time></trkpt><trkpt lat="46.1080554" lon="9.3198416"><ele>227.0</ele><time>2026-05-04T06:57:01.052Z</time></trkpt><trkpt lat="46.108149" lon="9.3198288"><ele>227.0</ele><time>2026-05-04T06:57:03.053Z</time></trkpt><trkpt lat="46.1082412" lon="9.3197989"><ele>227.0</ele><time>2026-05-04T06:57:05.052Z</time></trkpt><trkpt lat="46.1083336" lon="9.3197504"><ele>229.39999999999998</ele><time>2026-05-04T06:57:07.052Z</time></trkpt><trkpt lat="46.1084252" lon="9.3197396"><ele>231.79999999999998</ele><time>2026-05-04T06:57:09.054Z</time></trkpt><trkpt lat="46.1085226" lon="9.3196768"><ele>234.2</ele><time>2026-05-04T06:57:11.052Z</time></trkpt><trkpt lat="46.1086106" lon="9.3196697"><ele>236.6</ele><time>2026-05-04T06:57:13.052Z</time></trkpt><trkpt lat="46.1087047" lon="9.3196823"><ele>239.0</ele><time>2026-05-04T06:57:15.052Z</time></trkpt><trkpt lat="46.1087839" lon="9.3196637"><ele>237.00000000000003</ele><time>2026-05-04T06:57:17.051Z</time></trkpt><trkpt lat="46.108878" lon="9.3196399"><ele>235.0</ele><time>2026-05-04T06:57:19.053Z</time></trkpt><trkpt lat="46.1089574" lon="9.3196103"><ele>233.0</ele><time>2026-05-04T06:57:21.052Z</time></trkpt><trkpt lat="46.1090432" lon="9.3195829"><ele>231.0</ele><time>2026-05-04T06:57:23.053Z</time></trkpt><trkpt lat="46.1091242" lon="9.3195396"><ele>229.00000000000003</ele><time>2026-05-04T06:57:25.052Z</time></trkpt><trkpt lat="46.1091943" lon="9.3194729"><ele>227.0</ele><time>2026-05-04T06:57:27.051Z</time></trkpt><trkpt lat="46.1092616" lon="9.3194065"><ele>227.00000000000003</ele><time>2026-05-04T06:57:29.051Z</time></trkpt><trkpt lat="46.1093401" lon="9.3193511"><ele>227.0</ele><time>2026-05-04T06:57:31.051Z</time></trkpt><trkpt lat="46.109387" lon="9.3192535"><ele>227.0</ele><time>2026-05-04T06:57:33.052Z</time></trkpt><trkpt lat="46.1094421" lon="9.3191377"><ele>227.0</ele><time>2026-05-04T06:57:35.052Z</time></trkpt><trkpt lat="46.1095126" lon="9.3190537"><ele>227.00000000000003</ele><time>2026-05-04T06:57:37.052Z</time></trkpt><trkpt lat="46.1095836" lon="9.3189818"><ele>227.0</ele><time>2026-05-04T06:57:39.052Z</time></trkpt><trkpt lat="46.1096551" lon="9.3189114"><ele>226.33333333333334</ele><time>2026-05-04T06:57:41.053Z</time></trkpt><trkpt lat="46.1097156" lon="9.318816"><ele>225.66666666666669</ele><time>2026-05-04T06:57:43.051Z</time></trkpt><trkpt lat="46.1097785" lon="9.3187338"><ele>225.0</ele><time>2026-05-04T06:57:45.052Z</time></trkpt><trkpt lat="46.1098426" lon="9.3186575"><ele>224.33333333333331</ele><time>2026-05-04T06:57:47.052Z</time></trkpt><trkpt lat="46.1099077" lon="9.3185604"><ele>223.66666666666666</ele><time>2026-05-04T06:57:49.053Z</time></trkpt><trkpt lat="46.1099716" lon="9.3184995"><ele>223.0</ele><time>2026-05-04T06:57:51.052Z</time></trkpt><trkpt lat="46.1100549" lon="9.318449"><ele>222.99999999999997</ele><time>2026-05-04T06:57:53.053Z</time></trkpt><trkpt lat="46.1101387" lon="9.3184105"><ele>223.0</ele><time>2026-05-04T06:57:55.052Z</time></trkpt><trkpt lat="46.1102191" lon="9.3183714"><ele>223.0</ele><time>2026-05-04T06:57:57.053Z</time></trkpt><trkpt lat="46.1103018" lon="9.3183489"><ele>223.0</ele><time>2026-05-04T06:57:59.053Z</time></trkpt><trkpt lat="46.1103851" lon="9.3183468"><ele>222.99999999999997</ele><time>2026-05-04T06:58:01.052Z</time></trkpt><trkpt lat="46.110466" lon="9.3183609"><ele>223.0</ele><time>2026-05-04T06:58:03.053Z</time></trkpt><trkpt lat="46.1105495" lon="9.3183728"><ele>222.99999999999997</ele><time>2026-05-04T06:58:05.053Z</time></trkpt><trkpt lat="46.1106304" lon="9.3183577"><ele>223.0</ele><time>2026-05-04T06:58:07.053Z</time></trkpt><trkpt lat="46.110709" lon="9.3183192"><ele>223.0</ele><time>2026-05-04T06:58:09.052Z</time></trkpt><trkpt lat="46.1107841" lon="9.3182664"><ele>223.0</ele><time>2026-05-04T06:58:11.053Z</time></trkpt><trkpt lat="46.1108574" lon="9.318187"><ele>222.99999999999997</ele><time>2026-05-04T06:58:13.054Z</time></trkpt><trkpt lat="46.1109349" lon="9.318103"><ele>223.0</ele><time>2026-05-04T06:58:15.054Z</time></trkpt><trkpt lat="46.1110008" lon="9.3180016"><ele>225.0</ele><time>2026-05-04T06:58:17.053Z</time></trkpt><trkpt lat="46.1110839" lon="9.3179526"><ele>227.0</ele><time>2026-05-04T06:58:19.051Z</time></trkpt><trkpt lat="46.1111562" lon="9.3178721"><ele>229.0</ele><time>2026-05-04T06:58:21.052Z</time></trkpt><trkpt lat="46.1112253" lon="9.3177685"><ele>231.0</ele><time>2026-05-04T06:58:23.051Z</time></trkpt><trkpt lat="46.1112952" lon="9.3176619"><ele>233.0</ele><time>2026-05-04T06:58:25.053Z</time></trkpt><trkpt lat="46.1113614" lon="9.317585"><ele>233.0</ele><time>2026-05-04T06:58:27.052Z</time></trkpt><trkpt lat="46.1114297" lon="9.3175065"><ele>233.0</ele><time>2026-05-04T06:58:29.052Z</time></trkpt><trkpt lat="46.1114903" lon="9.3174258"><ele>233.0</ele><time>2026-05-04T06:58:31.052Z</time></trkpt><trkpt lat="46.1115991" lon="9.3173025"><ele>233.0</ele><time>2026-05-04T06:58:34.053Z</time></trkpt><trkpt lat="46.11166" lon="9.3172042"><ele>233.0</ele><time>2026-05-04T06:58:36.052Z</time></trkpt><trkpt lat="46.1117266" lon="9.3171149"><ele>233.8</ele><time>2026-05-04T06:58:38.052Z</time></trkpt><trkpt lat="46.1118041" lon="9.317057"><ele>234.60000000000002</ele><time>2026-05-04T06:58:40.052Z</time></trkpt><trkpt lat="46.111876" lon="9.3169659"><ele>235.39999999999998</ele><time>2026-05-04T06:58:42.051Z</time></trkpt><trkpt lat="46.1119576" lon="9.3169143"><ele>236.2</ele><time>2026-05-04T06:58:44.053Z</time></trkpt><trkpt lat="46.1120381" lon="9.3168701"><ele>237.0</ele><time>2026-05-04T06:58:46.051Z</time></trkpt><trkpt lat="46.1121285" lon="9.3168474"><ele>237.0</ele><time>2026-05-04T06:58:48.053Z</time></trkpt><trkpt lat="46.1122154" lon="9.3168494"><ele>237.0</ele><time>2026-05-04T06:58:50.052Z</time></trkpt><trkpt lat="46.1123075" lon="9.3168646"><ele>237.0</ele><time>2026-05-04T06:58:52.052Z</time></trkpt><trkpt lat="46.1123926" lon="9.3168666"><ele>237.0</ele><time>2026-05-04T06:58:54.051Z</time></trkpt><trkpt lat="46.1124732" lon="9.3168794"><ele>237.0</ele><time>2026-05-04T06:58:56.053Z</time></trkpt><trkpt lat="46.1125543" lon="9.3168911"><ele>237.0</ele><time>2026-05-04T06:58:58.052Z</time></trkpt><trkpt lat="46.1126363" lon="9.3168952"><ele>239.16666666666666</ele><time>2026-05-04T06:59:00.053Z</time></trkpt><trkpt lat="46.1127204" lon="9.3168828"><ele>241.33333333333331</ele><time>2026-05-04T06:59:02.053Z</time></trkpt><trkpt lat="46.1127962" lon="9.3168682"><ele>243.5</ele><time>2026-05-04T06:59:04.052Z</time></trkpt><trkpt lat="46.1128676" lon="9.316843"><ele>245.66666666666666</ele><time>2026-05-04T06:59:06.054Z</time></trkpt><trkpt lat="46.1129427" lon="9.3168201"><ele>247.83333333333331</ele><time>2026-05-04T06:59:08.053Z</time></trkpt><trkpt lat="46.1130308" lon="9.3167626"><ele>250.0</ele><time>2026-05-04T06:59:11.054Z</time></trkpt><trkpt lat="46.1131308" lon="9.3167746"><ele>249.99999999999997</ele><time>2026-05-04T06:59:13.054Z</time></trkpt><trkpt lat="46.1132118" lon="9.3167545"><ele>250.0</ele><time>2026-05-04T06:59:15.053Z</time></trkpt><trkpt lat="46.1132882" lon="9.3167716"><ele>250.0</ele><time>2026-05-04T06:59:17.053Z</time></trkpt><trkpt lat="46.1133625" lon="9.3167717"><ele>250.0</ele><time>2026-05-04T06:59:19.053Z</time></trkpt><trkpt lat="46.1134395" lon="9.3167702"><ele>249.99999999999997</ele><time>2026-05-04T06:59:21.053Z</time></trkpt><trkpt lat="46.1135153" lon="9.3167888"><ele>250.0</ele><time>2026-05-04T06:59:23.052Z</time></trkpt><trkpt lat="46.1135894" lon="9.3168311"><ele>250.57142857142856</ele><time>2026-05-04T06:59:25.054Z</time></trkpt><trkpt lat="46.1136619" lon="9.3168789"><ele>251.14285714285717</ele><time>2026-05-04T06:59:27.053Z</time></trkpt><trkpt lat="46.1137211" lon="9.3169388"><ele>251.71428571428572</ele><time>2026-05-04T06:59:29.053Z</time></trkpt><trkpt lat="46.1137725" lon="9.3169983"><ele>252.28571428571428</ele><time>2026-05-04T06:59:31.052Z</time></trkpt><trkpt lat="46.1138254" lon="9.3170659"><ele>252.85714285714283</ele><time>2026-05-04T06:59:33.054Z</time></trkpt><trkpt lat="46.1138888" lon="9.3171189"><ele>253.42857142857144</ele><time>2026-05-04T06:59:35.051Z</time></trkpt><trkpt lat="46.1139535" lon="9.31716"><ele>254.0</ele><time>2026-05-04T06:59:37.053Z</time></trkpt><trkpt lat="46.114019" lon="9.3172052"><ele>254.14285714285717</ele><time>2026-05-04T06:59:39.053Z</time></trkpt><trkpt lat="46.1140758" lon="9.317254"><ele>254.28571428571428</ele><time>2026-05-04T06:59:41.052Z</time></trkpt><trkpt lat="46.1141375" lon="9.3173098"><ele>254.42857142857144</ele><time>2026-05-04T06:59:43.053Z</time></trkpt><trkpt lat="46.1141951" lon="9.3173819"><ele>254.57142857142858</ele><time>2026-05-04T06:59:45.052Z</time></trkpt><trkpt lat="46.1142498" lon="9.3174498"><ele>254.71428571428572</ele><time>2026-05-04T06:59:47.053Z</time></trkpt><trkpt lat="46.1142949" lon="9.3175375"><ele>254.85714285714286</ele><time>2026-05-04T06:59:49.053Z</time></trkpt><trkpt lat="46.1143396" lon="9.3176349"><ele>255.0</ele><time>2026-05-04T06:59:51.053Z</time></trkpt><trkpt lat="46.1143804" lon="9.3177326"><ele>255.0</ele><time>2026-05-04T06:59:53.053Z</time></trkpt><trkpt lat="46.1144125" lon="9.3178326"><ele>255.0</ele><time>2026-05-04T06:59:55.053Z</time></trkpt><trkpt lat="46.1144444" lon="9.3179339"><ele>255.0</ele><time>2026-05-04T06:59:57.052Z</time></trkpt><trkpt lat="46.114466" lon="9.3180374"><ele>255.0</ele><time>2026-05-04T06:59:59.052Z</time></trkpt><trkpt lat="46.1144896" lon="9.3181462"><ele>255.0</ele><time>2026-05-04T07:00:01.053Z</time></trkpt><trkpt lat="46.1145071" lon="9.3182596"><ele>255.0</ele><time>2026-05-04T07:00:03.053Z</time></trkpt><trkpt lat="46.1145225" lon="9.3183851"><ele>255.66666666666666</ele><time>2026-05-04T07:00:05.052Z</time></trkpt><trkpt lat="46.1145333" lon="9.3185427"><ele>256.3333333333333</ele><time>2026-05-04T07:00:07.052Z</time></trkpt><trkpt lat="46.1145301" lon="9.3187139"><ele>257.0</ele><time>2026-05-04T07:00:09.054Z</time></trkpt><trkpt lat="46.1145302" lon="9.3188103"><ele>257.66666666666663</ele><time>2026-05-04T07:00:10.052Z</time></trkpt><trkpt lat="46.1145284" lon="9.3189083"><ele>258.3333333333333</ele><time>2026-05-04T07:00:11.054Z</time></trkpt><trkpt lat="46.1145392" lon="9.3190188"><ele>259.0</ele><time>2026-05-04T07:00:12.053Z</time></trkpt><trkpt lat="46.1145336" lon="9.3191297"><ele>259.8333333333333</ele><time>2026-05-04T07:00:13.053Z</time></trkpt><trkpt lat="46.1145254" lon="9.3192555"><ele>260.66666666666663</ele><time>2026-05-04T07:00:14.054Z</time></trkpt><trkpt lat="46.1145237" lon="9.3193845"><ele>261.5</ele><time>2026-05-04T07:00:15.052Z</time></trkpt><trkpt lat="46.114522" lon="9.3195128"><ele>262.3333333333333</ele><time>2026-05-04T07:00:16.053Z</time></trkpt><trkpt lat="46.1145076" lon="9.3196428"><ele>263.1666666666667</ele><time>2026-05-04T07:00:17.053Z</time></trkpt><trkpt lat="46.1144976" lon="9.3197725"><ele>264.0</ele><time>2026-05-04T07:00:18.053Z</time></trkpt><trkpt lat="46.1144916" lon="9.3199259"><ele>264.0</ele><time>2026-05-04T07:00:19.053Z</time></trkpt><trkpt lat="46.1144909" lon="9.3200704"><ele>264.0</ele><time>2026-05-04T07:00:20.052Z</time></trkpt><trkpt lat="46.1144997" lon="9.3202258"><ele>264.0</ele><time>2026-05-04T07:00:21.053Z</time></trkpt><trkpt lat="46.114495" lon="9.3203771"><ele>264.0</ele><time>2026-05-04T07:00:22.053Z</time></trkpt><trkpt lat="46.1144923" lon="9.3205435"><ele>264.0</ele><time>2026-05-04T07:00:23.053Z</time></trkpt><trkpt lat="46.1144946" lon="9.3207126"><ele>264.59999999999997</ele><time>2026-05-04T07:00:24.052Z</time></trkpt><trkpt lat="46.114488" lon="9.3208776"><ele>265.2</ele><time>2026-05-04T07:00:25.052Z</time></trkpt><trkpt lat="46.1144777" lon="9.3210362"><ele>265.79999999999995</ele><time>2026-05-04T07:00:26.051Z</time></trkpt><trkpt lat="46.1144687" lon="9.3211938"><ele>266.4</ele><time>2026-05-04T07:00:27.053Z</time></trkpt><trkpt lat="46.1144684" lon="9.3213494"><ele>267.0</ele><time>2026-05-04T07:00:28.053Z</time></trkpt><trkpt lat="46.1144778" lon="9.3215155"><ele>267.4</ele><time>2026-05-04T07:00:29.053Z</time></trkpt><trkpt lat="46.1144735" lon="9.3216717"><ele>267.79999999999995</ele><time>2026-05-04T07:00:30.052Z</time></trkpt><trkpt lat="46.1144821" lon="9.3218288"><ele>268.2</ele><time>2026-05-04T07:00:31.055Z</time></trkpt><trkpt lat="46.1145012" lon="9.3219857"><ele>268.59999999999997</ele><time>2026-05-04T07:00:32.052Z</time></trkpt><trkpt lat="46.1145122" lon="9.3221504"><ele>269.0</ele><time>2026-05-04T07:00:33.052Z</time></trkpt><trkpt lat="46.1145262" lon="9.3223042"><ele>269.2</ele><time>2026-05-04T07:00:34.054Z</time></trkpt><trkpt lat="46.1145407" lon="9.3224609"><ele>269.4</ele><time>2026-05-04T07:00:35.052Z</time></trkpt><trkpt lat="46.1145501" lon="9.3226192"><ele>269.6</ele><time>2026-05-04T07:00:36.053Z</time></trkpt><trkpt lat="46.1145446" lon="9.3227844"><ele>269.8</ele><time>2026-05-04T07:00:37.053Z</time></trkpt><trkpt lat="46.1145534" lon="9.322946"><ele>270.0</ele><time>2026-05-04T07:00:38.052Z</time></trkpt><trkpt lat="46.1145692" lon="9.3230984"><ele>270.4</ele><time>2026-05-04T07:00:39.052Z</time></trkpt><trkpt lat="46.1146046" lon="9.3232492"><ele>270.8</ele><time>2026-05-04T07:00:40.053Z</time></trkpt><trkpt lat="46.1146345" lon="9.3233964"><ele>271.2</ele><time>2026-05-04T07:00:41.052Z</time></trkpt><trkpt lat="46.1146682" lon="9.3235507"><ele>271.6</ele><time>2026-05-04T07:00:42.053Z</time></trkpt><trkpt lat="46.114697" lon="9.3237022"><ele>272.0</ele><time>2026-05-04T07:00:43.053Z</time></trkpt><trkpt lat="46.1147007" lon="9.3238683"><ele>271.25</ele><time>2026-05-04T07:00:44.053Z</time></trkpt><trkpt lat="46.1147117" lon="9.3240354"><ele>270.5</ele><time>2026-05-04T07:00:45.054Z</time></trkpt><trkpt lat="46.1147112" lon="9.3241884"><ele>269.75</ele><time>2026-05-04T07:00:46.053Z</time></trkpt><trkpt lat="46.1146973" lon="9.3243502"><ele>269.0</ele><time>2026-05-04T07:00:47.052Z</time></trkpt><trkpt lat="46.1146592" lon="9.3245087"><ele>269.0</ele><time>2026-05-04T07:00:48.053Z</time></trkpt><trkpt lat="46.1146006" lon="9.3246616"><ele>269.0</ele><time>2026-05-04T07:00:49.051Z</time></trkpt><trkpt lat="46.1145472" lon="9.3248089"><ele>269.0</ele><time>2026-05-04T07:00:50.053Z</time></trkpt><trkpt lat="46.1144534" lon="9.3249041"><ele>269.0</ele><time>2026-05-04T07:00:51.054Z</time></trkpt><trkpt lat="46.114387" lon="9.3250237"><ele>265.25</ele><time>2026-05-04T07:00:52.053Z</time></trkpt><trkpt lat="46.1143147" lon="9.3251551"><ele>261.5</ele><time>2026-05-04T07:00:53.052Z</time></trkpt><trkpt lat="46.1142593" lon="9.3253094"><ele>257.75</ele><time>2026-05-04T07:00:54.053Z</time></trkpt><trkpt lat="46.1142123" lon="9.3254585"><ele>254.0</ele><time>2026-05-04T07:00:55.052Z</time></trkpt><trkpt lat="46.1141837" lon="9.3256285"><ele>250.79999999999998</ele><time>2026-05-04T07:00:56.054Z</time></trkpt><trkpt lat="46.1141495" lon="9.3257848"><ele>247.59999999999997</ele><time>2026-05-04T07:00:57.053Z</time></trkpt><trkpt lat="46.1141128" lon="9.3259346"><ele>244.4</ele><time>2026-05-04T07:00:58.053Z</time></trkpt><trkpt lat="46.1140893" lon="9.3260773"><ele>241.2</ele><time>2026-05-04T07:00:59.052Z</time></trkpt><trkpt lat="46.1140555" lon="9.3262049"><ele>238.0</ele><time>2026-05-04T07:01:00.053Z</time></trkpt><trkpt lat="46.1140341" lon="9.3263474"><ele>247.60000000000002</ele><time>2026-05-04T07:01:01.053Z</time></trkpt><trkpt lat="46.1140132" lon="9.3264804"><ele>257.20000000000005</ele><time>2026-05-04T07:01:02.053Z</time></trkpt><trkpt lat="46.1139902" lon="9.3266118"><ele>266.8</ele><time>2026-05-04T07:01:03.053Z</time></trkpt><trkpt lat="46.1139904" lon="9.3267508"><ele>276.40000000000003</ele><time>2026-05-04T07:01:04.052Z</time></trkpt><trkpt lat="46.1139778" lon="9.3268747"><ele>286.0</ele><time>2026-05-04T07:01:05.052Z</time></trkpt><trkpt lat="46.1139733" lon="9.3270014"><ele>286.0</ele><time>2026-05-04T07:01:06.053Z</time></trkpt><trkpt lat="46.1139674" lon="9.3271294"><ele>286.0</ele><time>2026-05-04T07:01:07.054Z</time></trkpt><trkpt lat="46.1139739" lon="9.3272541"><ele>286.0</ele><time>2026-05-04T07:01:08.053Z</time></trkpt><trkpt lat="46.1139817" lon="9.3273841"><ele>286.0</ele><time>2026-05-04T07:01:09.052Z</time></trkpt><trkpt lat="46.1139919" lon="9.3275179"><ele>286.0</ele><time>2026-05-04T07:01:10.053Z</time></trkpt><trkpt lat="46.1140035" lon="9.3276445"><ele>286.0</ele><time>2026-05-04T07:01:11.053Z</time></trkpt><trkpt lat="46.1139973" lon="9.3277736"><ele>285.66666666666663</ele><time>2026-05-04T07:01:12.054Z</time></trkpt><trkpt lat="46.1140179" lon="9.3278924"><ele>285.3333333333333</ele><time>2026-05-04T07:01:13.052Z</time></trkpt><trkpt lat="46.1140429" lon="9.3280071"><ele>285.0</ele><time>2026-05-04T07:01:14.053Z</time></trkpt><trkpt lat="46.1140801" lon="9.3281292"><ele>284.6666666666667</ele><time>2026-05-04T07:01:15.052Z</time></trkpt><trkpt lat="46.114135" lon="9.3282284"><ele>284.33333333333337</ele><time>2026-05-04T07:01:16.052Z</time></trkpt><trkpt lat="46.1141879" lon="9.3283179"><ele>284.0</ele><time>2026-05-04T07:01:17.053Z</time></trkpt><trkpt lat="46.1142407" lon="9.3284092"><ele>275.6666666666667</ele><time>2026-05-04T07:01:18.053Z</time></trkpt><trkpt lat="46.1142869" lon="9.3285147"><ele>267.33333333333337</ele><time>2026-05-04T07:01:19.053Z</time></trkpt><trkpt lat="46.1143221" lon="9.3286158"><ele>259.0</ele><time>2026-05-04T07:01:20.053Z</time></trkpt><trkpt lat="46.1143446" lon="9.3287302"><ele>250.66666666666669</ele><time>2026-05-04T07:01:21.053Z</time></trkpt><trkpt lat="46.1143742" lon="9.3288547"><ele>242.33333333333334</ele><time>2026-05-04T07:01:22.053Z</time></trkpt><trkpt lat="46.1143862" lon="9.3289813"><ele>234.0</ele><time>2026-05-04T07:01:23.053Z</time></trkpt><trkpt lat="46.1144117" lon="9.3290978"><ele>234.0</ele><time>2026-05-04T07:01:24.053Z</time></trkpt><trkpt lat="46.1144139" lon="9.3292047"><ele>234.0</ele><time>2026-05-04T07:01:25.052Z</time></trkpt><trkpt lat="46.1143964" lon="9.3293083"><ele>234.0</ele><time>2026-05-04T07:01:26.054Z</time></trkpt><trkpt lat="46.1143855" lon="9.3294172"><ele>234.0</ele><time>2026-05-04T07:01:27.053Z</time></trkpt><trkpt lat="46.1144053" lon="9.3295521"><ele>234.0</ele><time>2026-05-04T07:01:28.052Z</time></trkpt><trkpt lat="46.1144116" lon="9.3296646"><ele>234.0</ele><time>2026-05-04T07:01:29.054Z</time></trkpt><trkpt lat="46.1144199" lon="9.3297729"><ele>234.5</ele><time>2026-05-04T07:01:30.052Z</time></trkpt><trkpt lat="46.114427" lon="9.3298927"><ele>235.0</ele><time>2026-05-04T07:01:31.054Z</time></trkpt><trkpt lat="46.114428" lon="9.3300057"><ele>235.5</ele><time>2026-05-04T07:01:32.053Z</time></trkpt><trkpt lat="46.1144394" lon="9.3301244"><ele>236.0</ele><time>2026-05-04T07:01:33.053Z</time></trkpt><trkpt lat="46.1144494" lon="9.3302495"><ele>236.5</ele><time>2026-05-04T07:01:34.053Z</time></trkpt><trkpt lat="46.1144729" lon="9.3303783"><ele>237.0</ele><time>2026-05-04T07:01:35.053Z</time></trkpt><trkpt lat="46.1144706" lon="9.3304915"><ele>238.33333333333334</ele><time>2026-05-04T07:01:36.053Z</time></trkpt><trkpt lat="46.1144904" lon="9.3306221"><ele>239.66666666666669</ele><time>2026-05-04T07:01:37.053Z</time></trkpt><trkpt lat="46.1144977" lon="9.3307521"><ele>241.0</ele><time>2026-05-04T07:01:38.052Z</time></trkpt><trkpt lat="46.1145258" lon="9.3308734"><ele>242.33333333333334</ele><time>2026-05-04T07:01:39.053Z</time></trkpt><trkpt lat="46.1145483" lon="9.3309783"><ele>243.66666666666669</ele><time>2026-05-04T07:01:40.053Z</time></trkpt><trkpt lat="46.1145799" lon="9.3310941"><ele>245.0</ele><time>2026-05-04T07:01:41.052Z</time></trkpt><trkpt lat="46.1146073" lon="9.3312045"><ele>245.00000000000003</ele><time>2026-05-04T07:01:42.052Z</time></trkpt><trkpt lat="46.1146392" lon="9.3313252"><ele>245.0</ele><time>2026-05-04T07:01:43.053Z</time></trkpt><trkpt lat="46.1146818" lon="9.3314427"><ele>245.0</ele><time>2026-05-04T07:01:44.053Z</time></trkpt><trkpt lat="46.114719" lon="9.3315493"><ele>245.0</ele><time>2026-05-04T07:01:45.053Z</time></trkpt><trkpt lat="46.1147391" lon="9.3316667"><ele>245.00000000000003</ele><time>2026-05-04T07:01:46.054Z</time></trkpt><trkpt lat="46.114779" lon="9.3317683"><ele>245.0</ele><time>2026-05-04T07:01:47.052Z</time></trkpt><trkpt lat="46.1148239" lon="9.3318704"><ele>246.0</ele><time>2026-05-04T07:01:48.054Z</time></trkpt><trkpt lat="46.114841" lon="9.3319684"><ele>247.0</ele><time>2026-05-04T07:01:49.053Z</time></trkpt><trkpt lat="46.1148471" lon="9.332076"><ele>248.0</ele><time>2026-05-04T07:01:50.052Z</time></trkpt><trkpt lat="46.1148874" lon="9.3321745"><ele>249.0</ele><time>2026-05-04T07:01:51.053Z</time></trkpt><trkpt lat="46.1149212" lon="9.3322682"><ele>250.0</ele><time>2026-05-04T07:01:52.053Z</time></trkpt><trkpt lat="46.1149587" lon="9.3323693"><ele>251.0</ele><time>2026-05-04T07:01:53.053Z</time></trkpt><trkpt lat="46.1149825" lon="9.3324577"><ele>252.0</ele><time>2026-05-04T07:01:54.052Z</time></trkpt><trkpt lat="46.1150145" lon="9.3325627"><ele>251.16666666666666</ele><time>2026-05-04T07:01:55.053Z</time></trkpt><trkpt lat="46.1150504" lon="9.3326681"><ele>250.33333333333331</ele><time>2026-05-04T07:01:56.052Z</time></trkpt><trkpt lat="46.1150895" lon="9.3327676"><ele>249.5</ele><time>2026-05-04T07:01:57.054Z</time></trkpt><trkpt lat="46.1151407" lon="9.3328619"><ele>248.66666666666666</ele><time>2026-05-04T07:01:58.053Z</time></trkpt><trkpt lat="46.1151909" lon="9.3329562"><ele>247.83333333333331</ele><time>2026-05-04T07:01:59.053Z</time></trkpt><trkpt lat="46.1152464" lon="9.3330519"><ele>247.0</ele><time>2026-05-04T07:02:00.054Z</time></trkpt><trkpt lat="46.1153044" lon="9.333156"><ele>247.0</ele><time>2026-05-04T07:02:01.053Z</time></trkpt><trkpt lat="46.1153578" lon="9.3332478"><ele>247.0</ele><time>2026-05-04T07:02:02.052Z</time></trkpt><trkpt lat="46.1154153" lon="9.3333444"><ele>247.0</ele><time>2026-05-04T07:02:03.053Z</time></trkpt><trkpt lat="46.1154758" lon="9.3334481"><ele>247.0</ele><time>2026-05-04T07:02:04.052Z</time></trkpt><trkpt lat="46.1155318" lon="9.3335528"><ele>247.0</ele><time>2026-05-04T07:02:05.053Z</time></trkpt><trkpt lat="46.1155898" lon="9.3336789"><ele>247.0</ele><time>2026-05-04T07:02:06.052Z</time></trkpt><trkpt lat="46.1156454" lon="9.3337942"><ele>247.0</ele><time>2026-05-04T07:02:07.053Z</time></trkpt><trkpt lat="46.115695" lon="9.3339152"><ele>247.0</ele><time>2026-05-04T07:02:08.053Z</time></trkpt><trkpt lat="46.1157413" lon="9.3340376"><ele>247.0</ele><time>2026-05-04T07:02:09.054Z</time></trkpt><trkpt lat="46.1157818" lon="9.3341641"><ele>247.0</ele><time>2026-05-04T07:02:10.053Z</time></trkpt><trkpt lat="46.1158258" lon="9.334285"><ele>246.0</ele><time>2026-05-04T07:02:11.053Z</time></trkpt><trkpt lat="46.1158675" lon="9.3344087"><ele>245.0</ele><time>2026-05-04T07:02:12.052Z</time></trkpt><trkpt lat="46.1158905" lon="9.334542"><ele>244.0</ele><time>2026-05-04T07:02:13.053Z</time></trkpt><trkpt lat="46.1159076" lon="9.3346738"><ele>243.0</ele><time>2026-05-04T07:02:14.053Z</time></trkpt><trkpt lat="46.1159266" lon="9.3347964"><ele>242.0</ele><time>2026-05-04T07:02:15.052Z</time></trkpt><trkpt lat="46.1159266" lon="9.3349239"><ele>242.00000000000003</ele><time>2026-05-04T07:02:16.052Z</time></trkpt><trkpt lat="46.1159421" lon="9.3350493"><ele>242.0</ele><time>2026-05-04T07:02:17.054Z</time></trkpt><trkpt lat="46.1159718" lon="9.3351554"><ele>242.0</ele><time>2026-05-04T07:02:18.053Z</time></trkpt><trkpt lat="46.116007" lon="9.3352612"><ele>242.0</ele><time>2026-05-04T07:02:19.052Z</time></trkpt><trkpt lat="46.1160492" lon="9.3353675"><ele>242.00000000000003</ele><time>2026-05-04T07:02:20.053Z</time></trkpt><trkpt lat="46.1160967" lon="9.3354637"><ele>242.0</ele><time>2026-05-04T07:02:21.052Z</time></trkpt><trkpt lat="46.1161546" lon="9.3355661"><ele>246.2</ele><time>2026-05-04T07:02:22.053Z</time></trkpt><trkpt lat="46.1162138" lon="9.3356647"><ele>250.39999999999998</ele><time>2026-05-04T07:02:23.053Z</time></trkpt><trkpt lat="46.1162759" lon="9.3357651"><ele>254.60000000000002</ele><time>2026-05-04T07:02:24.054Z</time></trkpt><trkpt lat="46.1163327" lon="9.3358723"><ele>258.8</ele><time>2026-05-04T07:02:25.053Z</time></trkpt><trkpt lat="46.1163833" lon="9.3359748"><ele>263.0</ele><time>2026-05-04T07:02:26.054Z</time></trkpt><trkpt lat="46.1164366" lon="9.3360966"><ele>263.0</ele><time>2026-05-04T07:02:27.054Z</time></trkpt><trkpt lat="46.1164859" lon="9.3362098"><ele>263.0</ele><time>2026-05-04T07:02:28.053Z</time></trkpt><trkpt lat="46.1165385" lon="9.3363186"><ele>263.0</ele><time>2026-05-04T07:02:29.053Z</time></trkpt><trkpt lat="46.1165642" lon="9.3364228"><ele>263.0</ele><time>2026-05-04T07:02:30.052Z</time></trkpt><trkpt lat="46.1166188" lon="9.336544"><ele>263.0</ele><time>2026-05-04T07:02:31.052Z</time></trkpt><trkpt lat="46.1166688" lon="9.3366608"><ele>257.2</ele><time>2026-05-04T07:02:32.055Z</time></trkpt><trkpt lat="46.116722" lon="9.3367787"><ele>251.4</ele><time>2026-05-04T07:02:33.054Z</time></trkpt><trkpt lat="46.116773" lon="9.3369157"><ele>245.59999999999997</ele><time>2026-05-04T07:02:34.053Z</time></trkpt><trkpt lat="46.1168223" lon="9.3370248"><ele>239.79999999999998</ele><time>2026-05-04T07:02:35.052Z</time></trkpt><trkpt lat="46.1168676" lon="9.3371477"><ele>234.0</ele><time>2026-05-04T07:02:36.054Z</time></trkpt><trkpt lat="46.1168978" lon="9.337277"><ele>234.0</ele><time>2026-05-04T07:02:37.052Z</time></trkpt><trkpt lat="46.1169404" lon="9.3373996"><ele>234.0</ele><time>2026-05-04T07:02:38.054Z</time></trkpt><trkpt lat="46.1169633" lon="9.3375133"><ele>234.0</ele><time>2026-05-04T07:02:39.053Z</time></trkpt><trkpt lat="46.1169893" lon="9.3376397"><ele>234.0</ele><time>2026-05-04T07:02:40.053Z</time></trkpt><trkpt lat="46.1170055" lon="9.3377691"><ele>234.0</ele><time>2026-05-04T07:02:41.054Z</time></trkpt><trkpt lat="46.1170133" lon="9.3378918"><ele>234.0</ele><time>2026-05-04T07:02:42.053Z</time></trkpt><trkpt lat="46.1170098" lon="9.3380036"><ele>235.0</ele><time>2026-05-04T07:02:43.053Z</time></trkpt><trkpt lat="46.1170006" lon="9.3381241"><ele>236.0</ele><time>2026-05-04T07:02:44.053Z</time></trkpt><trkpt lat="46.1169912" lon="9.3382366"><ele>237.0</ele><time>2026-05-04T07:02:45.052Z</time></trkpt><trkpt lat="46.116991" lon="9.3383515"><ele>238.0</ele><time>2026-05-04T07:02:46.054Z</time></trkpt><trkpt lat="46.1169683" lon="9.3384762"><ele>239.0</ele><time>2026-05-04T07:02:47.052Z</time></trkpt><trkpt lat="46.116962" lon="9.3385869"><ele>240.0</ele><time>2026-05-04T07:02:48.054Z</time></trkpt><trkpt lat="46.1169632" lon="9.3387065"><ele>240.0</ele><time>2026-05-04T07:02:49.054Z</time></trkpt><trkpt lat="46.1169125" lon="9.338825"><ele>240.0</ele><time>2026-05-04T07:02:50.053Z</time></trkpt><trkpt lat="46.1169238" lon="9.3389551"><ele>240.0</ele><time>2026-05-04T07:02:51.055Z</time></trkpt><trkpt lat="46.1169077" lon="9.3390662"><ele>240.0</ele><time>2026-05-04T07:02:52.053Z</time></trkpt><trkpt lat="46.1169025" lon="9.3391615"><ele>240.0</ele><time>2026-05-04T07:02:53.055Z</time></trkpt><trkpt lat="46.116875" lon="9.3392769"><ele>240.0</ele><time>2026-05-04T07:02:54.053Z</time></trkpt><trkpt lat="46.1168445" lon="9.3393863"><ele>239.5</ele><time>2026-05-04T07:02:55.053Z</time></trkpt><trkpt lat="46.1168167" lon="9.3394965"><ele>239.0</ele><time>2026-05-04T07:02:56.053Z</time></trkpt><trkpt lat="46.11679" lon="9.3395954"><ele>238.5</ele><time>2026-05-04T07:02:57.052Z</time></trkpt><trkpt lat="46.1167686" lon="9.3396998"><ele>238.0</ele><time>2026-05-04T07:02:58.053Z</time></trkpt><trkpt lat="46.1167491" lon="9.3398033"><ele>237.5</ele><time>2026-05-04T07:02:59.053Z</time></trkpt><trkpt lat="46.1167267" lon="9.3399035"><ele>237.0</ele><time>2026-05-04T07:03:00.054Z</time></trkpt><trkpt lat="46.1167165" lon="9.3400108"><ele>235.0</ele><time>2026-05-04T07:03:01.052Z</time></trkpt><trkpt lat="46.1166948" lon="9.3401074"><ele>233.0</ele><time>2026-05-04T07:03:02.053Z</time></trkpt><trkpt lat="46.1166623" lon="9.3401911"><ele>231.0</ele><time>2026-05-04T07:03:03.052Z</time></trkpt><trkpt lat="46.1166138" lon="9.3403628"><ele>229.0</ele><time>2026-05-04T07:03:05.052Z</time></trkpt><trkpt lat="46.1165869" lon="9.3404592"><ele>227.0</ele><time>2026-05-04T07:03:06.054Z</time></trkpt><trkpt lat="46.1165733" lon="9.3405661"><ele>225.0</ele><time>2026-05-04T07:03:07.053Z</time></trkpt><trkpt lat="46.1165504" lon="9.3406689"><ele>231.42857142857144</ele><time>2026-05-04T07:03:08.054Z</time></trkpt><trkpt lat="46.1165319" lon="9.3407705"><ele>237.85714285714286</ele><time>2026-05-04T07:03:09.055Z</time></trkpt><trkpt lat="46.1165076" lon="9.3408585"><ele>244.28571428571428</ele><time>2026-05-04T07:03:10.052Z</time></trkpt><trkpt lat="46.116487" lon="9.3409566"><ele>250.71428571428572</ele><time>2026-05-04T07:03:11.052Z</time></trkpt><trkpt lat="46.1164722" lon="9.3410533"><ele>257.1428571428571</ele><time>2026-05-04T07:03:12.054Z</time></trkpt><trkpt lat="46.1164495" lon="9.3411487"><ele>263.57142857142856</ele><time>2026-05-04T07:03:13.054Z</time></trkpt><trkpt lat="46.1164224" lon="9.3412462"><ele>270.0</ele><time>2026-05-04T07:03:14.053Z</time></trkpt><trkpt lat="46.1164017" lon="9.3413347"><ele>266.2</ele><time>2026-05-04T07:03:15.052Z</time></trkpt><trkpt lat="46.1163525" lon="9.3415226"><ele>262.4</ele><time>2026-05-04T07:03:17.054Z</time></trkpt><trkpt lat="46.1163293" lon="9.3416247"><ele>258.6</ele><time>2026-05-04T07:03:18.053Z</time></trkpt><trkpt lat="46.1163177" lon="9.3417296"><ele>254.8</ele><time>2026-05-04T07:03:19.052Z</time></trkpt><trkpt lat="46.1162904" lon="9.3418216"><ele>251.0</ele><time>2026-05-04T07:03:20.053Z</time></trkpt><trkpt lat="46.1162359" lon="9.3419906"><ele>251.00000000000003</ele><time>2026-05-04T07:03:22.054Z</time></trkpt><trkpt lat="46.1162195" lon="9.3420881"><ele>251.0</ele><time>2026-05-04T07:03:23.053Z</time></trkpt><trkpt lat="46.1162027" lon="9.3421794"><ele>251.0</ele><time>2026-05-04T07:03:24.055Z</time></trkpt><trkpt lat="46.1162058" lon="9.3422893"><ele>251.0</ele><time>2026-05-04T07:03:25.054Z</time></trkpt><trkpt lat="46.1161962" lon="9.3423862"><ele>251.00000000000003</ele><time>2026-05-04T07:03:26.053Z</time></trkpt><trkpt lat="46.1161933" lon="9.3425708"><ele>251.0</ele><time>2026-05-04T07:03:28.053Z</time></trkpt><trkpt lat="46.1161873" lon="9.3427583"><ele>249.20000000000002</ele><time>2026-05-04T07:03:30.054Z</time></trkpt><trkpt lat="46.1161891" lon="9.3428495"><ele>247.40000000000003</ele><time>2026-05-04T07:03:31.053Z</time></trkpt><trkpt lat="46.1162007" lon="9.343021"><ele>245.6</ele><time>2026-05-04T07:03:33.054Z</time></trkpt><trkpt lat="46.116218" lon="9.3431206"><ele>243.8</ele><time>2026-05-04T07:03:34.052Z</time></trkpt><trkpt lat="46.1161733" lon="9.3432812"><ele>242.0</ele><time>2026-05-04T07:03:36.052Z</time></trkpt><trkpt lat="46.1161953" lon="9.3434622"><ele>240.2</ele><time>2026-05-04T07:03:38.054Z</time></trkpt><trkpt lat="46.1162156" lon="9.3436284"><ele>238.39999999999998</ele><time>2026-05-04T07:03:40.053Z</time></trkpt><trkpt lat="46.116232" lon="9.3438033"><ele>236.60000000000002</ele><time>2026-05-04T07:03:42.053Z</time></trkpt><trkpt lat="46.1162478" lon="9.3438935"><ele>234.8</ele><time>2026-05-04T07:03:43.055Z</time></trkpt><trkpt lat="46.116258" lon="9.3439879"><ele>233.0</ele><time>2026-05-04T07:03:44.053Z</time></trkpt><trkpt lat="46.1162735" lon="9.3441549"><ele>232.71428571428572</ele><time>2026-05-04T07:03:46.054Z</time></trkpt><trkpt lat="46.1162876" lon="9.3442498"><ele>232.42857142857142</ele><time>2026-05-04T07:03:47.054Z</time></trkpt><trkpt lat="46.1162999" lon="9.3443474"><ele>232.14285714285714</ele><time>2026-05-04T07:03:48.054Z</time></trkpt><trkpt lat="46.1163108" lon="9.344444"><ele>231.85714285714286</ele><time>2026-05-04T07:03:49.054Z</time></trkpt><trkpt lat="46.1163181" lon="9.344541"><ele>231.57142857142856</ele><time>2026-05-04T07:03:50.054Z</time></trkpt><trkpt lat="46.1163394" lon="9.3446493"><ele>231.28571428571428</ele><time>2026-05-04T07:03:51.053Z</time></trkpt><trkpt lat="46.1163553" lon="9.3447468"><ele>231.0</ele><time>2026-05-04T07:03:52.053Z</time></trkpt><trkpt lat="46.1163766" lon="9.3449244"><ele>232.28571428571428</ele><time>2026-05-04T07:03:54.053Z</time></trkpt><trkpt lat="46.1163972" lon="9.3450287"><ele>233.57142857142856</ele><time>2026-05-04T07:03:55.054Z</time></trkpt><trkpt lat="46.1164093" lon="9.3451312"><ele>234.85714285714286</ele><time>2026-05-04T07:03:56.054Z</time></trkpt><trkpt lat="46.1164202" lon="9.3452263"><ele>236.14285714285714</ele><time>2026-05-04T07:03:57.053Z</time></trkpt><trkpt lat="46.1164387" lon="9.3453176"><ele>237.42857142857142</ele><time>2026-05-04T07:03:58.054Z</time></trkpt><trkpt lat="46.116462" lon="9.3454041"><ele>238.71428571428572</ele><time>2026-05-04T07:03:59.054Z</time></trkpt><trkpt lat="46.1164936" lon="9.3454869"><ele>240.0</ele><time>2026-05-04T07:04:00.054Z</time></trkpt><trkpt lat="46.1165402" lon="9.3455693"><ele>235.42857142857144</ele><time>2026-05-04T07:04:01.055Z</time></trkpt><trkpt lat="46.1165764" lon="9.3456499"><ele>230.85714285714283</ele><time>2026-05-04T07:04:02.053Z</time></trkpt><trkpt lat="46.1166177" lon="9.3457292"><ele>226.28571428571428</ele><time>2026-05-04T07:04:03.055Z</time></trkpt><trkpt lat="46.1166621" lon="9.3458033"><ele>221.71428571428572</ele><time>2026-05-04T07:04:04.055Z</time></trkpt><trkpt lat="46.1167081" lon="9.3458817"><ele>217.14285714285717</ele><time>2026-05-04T07:04:05.052Z</time></trkpt><trkpt lat="46.1167516" lon="9.3459761"><ele>212.57142857142856</ele><time>2026-05-04T07:04:06.054Z</time></trkpt><trkpt lat="46.1167902" lon="9.3460523"><ele>208.0</ele><time>2026-05-04T07:04:07.053Z</time></trkpt><trkpt lat="46.1168744" lon="9.3461782"><ele>208.0</ele><time>2026-05-04T07:04:09.053Z</time></trkpt><trkpt lat="46.1169595" lon="9.3462916"><ele>208.0</ele><time>2026-05-04T07:04:11.054Z</time></trkpt><trkpt lat="46.1170576" lon="9.3463829"><ele>208.0</ele><time>2026-05-04T07:04:13.053Z</time></trkpt><trkpt lat="46.1171115" lon="9.3464368"><ele>208.0</ele><time>2026-05-04T07:04:14.054Z</time></trkpt><trkpt lat="46.1172116" lon="9.3465046"><ele>208.0</ele><time>2026-05-04T07:04:16.053Z</time></trkpt><trkpt lat="46.1173207" lon="9.3465509"><ele>207.0</ele><time>2026-05-04T07:04:18.054Z</time></trkpt><trkpt lat="46.1174365" lon="9.3465905"><ele>206.0</ele><time>2026-05-04T07:04:20.054Z</time></trkpt><trkpt lat="46.1175595" lon="9.3466478"><ele>205.0</ele><time>2026-05-04T07:04:22.052Z</time></trkpt><trkpt lat="46.11768" lon="9.3466904"><ele>204.0</ele><time>2026-05-04T07:04:24.054Z</time></trkpt><trkpt lat="46.1177413" lon="9.3467191"><ele>203.0</ele><time>2026-05-04T07:04:25.054Z</time></trkpt><trkpt lat="46.1178454" lon="9.3467584"><ele>203.0</ele><time>2026-05-04T07:04:27.053Z</time></trkpt><trkpt lat="46.1179574" lon="9.3467899"><ele>203.0</ele><time>2026-05-04T07:04:29.052Z</time></trkpt><trkpt lat="46.1180639" lon="9.3468187"><ele>203.0</ele><time>2026-05-04T07:04:31.053Z</time></trkpt><trkpt lat="46.1181769" lon="9.346851"><ele>203.0</ele><time>2026-05-04T07:04:33.053Z</time></trkpt><trkpt lat="46.1182826" lon="9.3468909"><ele>203.0</ele><time>2026-05-04T07:04:35.054Z</time></trkpt><trkpt lat="46.1183884" lon="9.3469387"><ele>202.60000000000002</ele><time>2026-05-04T07:04:37.055Z</time></trkpt><trkpt lat="46.1184925" lon="9.3469742"><ele>202.20000000000002</ele><time>2026-05-04T07:04:39.053Z</time></trkpt><trkpt lat="46.1186019" lon="9.3469862"><ele>201.8</ele><time>2026-05-04T07:04:41.052Z</time></trkpt><trkpt lat="46.1186982" lon="9.3470285"><ele>201.4</ele><time>2026-05-04T07:04:43.052Z</time></trkpt><trkpt lat="46.1187845" lon="9.3470592"><ele>201.0</ele><time>2026-05-04T07:04:45.054Z</time></trkpt><trkpt lat="46.1188801" lon="9.3470987"><ele>201.0</ele><time>2026-05-04T07:04:47.054Z</time></trkpt><trkpt lat="46.1189703" lon="9.3471385"><ele>201.0</ele><time>2026-05-04T07:04:49.055Z</time></trkpt><trkpt lat="46.1190825" lon="9.3471607"><ele>201.0</ele><time>2026-05-04T07:04:51.054Z</time></trkpt><trkpt lat="46.1191816" lon="9.3471845"><ele>201.0</ele><time>2026-05-04T07:04:53.053Z</time></trkpt><trkpt lat="46.1192744" lon="9.3472215"><ele>201.0</ele><time>2026-05-04T07:04:55.055Z</time></trkpt><trkpt lat="46.1193687" lon="9.3472584"><ele>202.4</ele><time>2026-05-04T07:04:57.052Z</time></trkpt><trkpt lat="46.1194553" lon="9.3472879"><ele>203.8</ele><time>2026-05-04T07:04:59.053Z</time></trkpt><trkpt lat="46.1195562" lon="9.3473238"><ele>205.20000000000002</ele><time>2026-05-04T07:05:01.053Z</time></trkpt><trkpt lat="46.1196571" lon="9.3473617"><ele>206.60000000000002</ele><time>2026-05-04T07:05:03.055Z</time></trkpt><trkpt lat="46.1197663" lon="9.3474074"><ele>208.0</ele><time>2026-05-04T07:05:05.053Z</time></trkpt><trkpt lat="46.1198795" lon="9.3474747"><ele>207.49999999999997</ele><time>2026-05-04T07:05:07.054Z</time></trkpt><trkpt lat="46.1199887" lon="9.3475419"><ele>207.0</ele><time>2026-05-04T07:05:09.054Z</time></trkpt><trkpt lat="46.1200505" lon="9.3475737"><ele>206.5</ele><time>2026-05-04T07:05:10.054Z</time></trkpt><trkpt lat="46.1201151" lon="9.3475988"><ele>206.0</ele><time>2026-05-04T07:05:11.052Z</time></trkpt><trkpt lat="46.1201804" lon="9.3476262"><ele>205.49999999999997</ele><time>2026-05-04T07:05:12.054Z</time></trkpt><trkpt lat="46.1202421" lon="9.3476617"><ele>205.0</ele><time>2026-05-04T07:05:13.054Z</time></trkpt><trkpt lat="46.1203596" lon="9.3477274"><ele>205.0</ele><time>2026-05-04T07:05:15.053Z</time></trkpt><trkpt lat="46.1204189" lon="9.3477605"><ele>205.0</ele><time>2026-05-04T07:05:16.054Z</time></trkpt><trkpt lat="46.1204786" lon="9.3477909"><ele>205.0</ele><time>2026-05-04T07:05:17.053Z</time></trkpt><trkpt lat="46.1205875" lon="9.3478553"><ele>205.0</ele><time>2026-05-04T07:05:19.054Z</time></trkpt><trkpt lat="46.1206997" lon="9.3479266"><ele>205.0</ele><time>2026-05-04T07:05:21.054Z</time></trkpt><trkpt lat="46.1208158" lon="9.3479819"><ele>205.33333333333331</ele><time>2026-05-04T07:05:23.053Z</time></trkpt><trkpt lat="46.1209342" lon="9.3480449"><ele>205.66666666666666</ele><time>2026-05-04T07:05:25.055Z</time></trkpt><trkpt lat="46.1209962" lon="9.3480749"><ele>206.0</ele><time>2026-05-04T07:05:26.053Z</time></trkpt><trkpt lat="46.1210598" lon="9.3480979"><ele>206.33333333333331</ele><time>2026-05-04T07:05:27.053Z</time></trkpt><trkpt lat="46.1211223" lon="9.3481243"><ele>206.66666666666666</ele><time>2026-05-04T07:05:28.053Z</time></trkpt><trkpt lat="46.1212366" lon="9.3481894"><ele>207.0</ele><time>2026-05-04T07:05:30.052Z</time></trkpt><trkpt lat="46.1212969" lon="9.34822"><ele>207.0</ele><time>2026-05-04T07:05:31.053Z</time></trkpt><trkpt lat="46.1214215" lon="9.3482691"><ele>207.0</ele><time>2026-05-04T07:05:33.054Z</time></trkpt><trkpt lat="46.1214815" lon="9.3482982"><ele>207.0</ele><time>2026-05-04T07:05:34.054Z</time></trkpt><trkpt lat="46.1215996" lon="9.3483543"><ele>207.0</ele><time>2026-05-04T07:05:36.054Z</time></trkpt><trkpt lat="46.1217024" lon="9.3484033"><ele>207.0</ele><time>2026-05-04T07:05:38.054Z</time></trkpt><trkpt lat="46.1218082" lon="9.3484586"><ele>206.8</ele><time>2026-05-04T07:05:40.053Z</time></trkpt><trkpt lat="46.1219143" lon="9.3485182"><ele>206.6</ele><time>2026-05-04T07:05:42.054Z</time></trkpt><trkpt lat="46.1220179" lon="9.3485666"><ele>206.4</ele><time>2026-05-04T07:05:44.054Z</time></trkpt><trkpt lat="46.1221072" lon="9.348619"><ele>206.20000000000002</ele><time>2026-05-04T07:05:46.053Z</time></trkpt><trkpt lat="46.1222048" lon="9.3486717"><ele>206.0</ele><time>2026-05-04T07:05:48.053Z</time></trkpt><trkpt lat="46.1223075" lon="9.3487174"><ele>206.20000000000002</ele><time>2026-05-04T07:05:50.053Z</time></trkpt><trkpt lat="46.1224023" lon="9.3487727"><ele>206.4</ele><time>2026-05-04T07:05:52.053Z</time></trkpt><trkpt lat="46.1224944" lon="9.3488258"><ele>206.6</ele><time>2026-05-04T07:05:54.053Z</time></trkpt><trkpt lat="46.1225826" lon="9.3488649"><ele>206.8</ele><time>2026-05-04T07:05:56.054Z</time></trkpt><trkpt lat="46.1226742" lon="9.3489131"><ele>207.0</ele><time>2026-05-04T07:05:58.055Z</time></trkpt><trkpt lat="46.1227683" lon="9.3489523"><ele>207.0</ele><time>2026-05-04T07:06:00.055Z</time></trkpt><trkpt lat="46.1228576" lon="9.3489924"><ele>207.0</ele><time>2026-05-04T07:06:02.054Z</time></trkpt><trkpt lat="46.1229391" lon="9.3490245"><ele>207.0</ele><time>2026-05-04T07:06:04.055Z</time></trkpt><trkpt lat="46.1230251" lon="9.3490703"><ele>207.0</ele><time>2026-05-04T07:06:06.053Z</time></trkpt><trkpt lat="46.1231066" lon="9.3491084"><ele>207.0</ele><time>2026-05-04T07:06:08.054Z</time></trkpt><trkpt lat="46.1231958" lon="9.3491554"><ele>207.5</ele><time>2026-05-04T07:06:10.055Z</time></trkpt><trkpt lat="46.1232697" lon="9.349202"><ele>208.0</ele><time>2026-05-04T07:06:12.053Z</time></trkpt><trkpt lat="46.1233396" lon="9.3492224"><ele>208.5</ele><time>2026-05-04T07:06:14.054Z</time></trkpt><trkpt lat="46.1234154" lon="9.3492617"><ele>209.0</ele><time>2026-05-04T07:06:16.052Z</time></trkpt><trkpt lat="46.123508" lon="9.3493113"><ele>209.5</ele><time>2026-05-04T07:06:18.053Z</time></trkpt><trkpt lat="46.1235989" lon="9.3493203"><ele>210.0</ele><time>2026-05-04T07:06:20.054Z</time></trkpt><trkpt lat="46.1236501" lon="9.3492094"><ele>210.0</ele><time>2026-05-04T07:06:22.055Z</time></trkpt><trkpt lat="46.1236644" lon="9.3490616"><ele>210.0</ele><time>2026-05-04T07:06:24.053Z</time></trkpt><trkpt lat="46.123679" lon="9.3488901"><ele>210.0</ele><time>2026-05-04T07:06:26.053Z</time></trkpt><trkpt lat="46.1236995" lon="9.3487194"><ele>210.0</ele><time>2026-05-04T07:06:28.053Z</time></trkpt><trkpt lat="46.1237271" lon="9.3485408"><ele>209.4</ele><time>2026-05-04T07:06:30.054Z</time></trkpt><trkpt lat="46.1237419" lon="9.3483715"><ele>208.8</ele><time>2026-05-04T07:06:32.054Z</time></trkpt><trkpt lat="46.1237606" lon="9.3482113"><ele>208.2</ele><time>2026-05-04T07:06:34.055Z</time></trkpt><trkpt lat="46.1237718" lon="9.3480825"><ele>207.6</ele><time>2026-05-04T07:06:36.053Z</time></trkpt><trkpt lat="46.1237947" lon="9.3479607"><ele>207.0</ele><time>2026-05-04T07:06:39.054Z</time></trkpt><trkpt lat="46.1238639" lon="9.3479642"><ele>207.0</ele><time>2026-05-04T07:06:41.054Z</time></trkpt><trkpt lat="46.1239278" lon="9.3480337"><ele>207.0</ele><time>2026-05-04T07:06:43.055Z</time></trkpt><trkpt lat="46.124004" lon="9.348097"><ele>207.0</ele><time>2026-05-04T07:06:45.054Z</time></trkpt><trkpt lat="46.1240813" lon="9.3481851"><ele>207.0</ele><time>2026-05-04T07:06:47.054Z</time></trkpt><trkpt lat="46.1241637" lon="9.3482523"><ele>207.0</ele><time>2026-05-04T07:06:49.054Z</time></trkpt><trkpt lat="46.1242452" lon="9.3483286"><ele>206.39999999999998</ele><time>2026-05-04T07:06:51.052Z</time></trkpt><trkpt lat="46.124338" lon="9.3484217"><ele>205.79999999999998</ele><time>2026-05-04T07:06:53.054Z</time></trkpt><trkpt lat="46.1244257" lon="9.34851"><ele>205.2</ele><time>2026-05-04T07:06:55.055Z</time></trkpt><trkpt lat="46.1244962" lon="9.3486054"><ele>204.6</ele><time>2026-05-04T07:06:57.055Z</time></trkpt><trkpt lat="46.1245649" lon="9.3487094"><ele>204.0</ele><time>2026-05-04T07:06:59.054Z</time></trkpt><trkpt lat="46.1246312" lon="9.3488039"><ele>204.2</ele><time>2026-05-04T07:07:01.054Z</time></trkpt><trkpt lat="46.1247086" lon="9.3489149"><ele>204.39999999999998</ele><time>2026-05-04T07:07:03.053Z</time></trkpt><trkpt lat="46.1247727" lon="9.3490251"><ele>204.6</ele><time>2026-05-04T07:07:05.055Z</time></trkpt><trkpt lat="46.1248372" lon="9.3491333"><ele>204.8</ele><time>2026-05-04T07:07:07.053Z</time></trkpt><trkpt lat="46.1249004" lon="9.3492029"><ele>205.0</ele><time>2026-05-04T07:07:09.055Z</time></trkpt><trkpt lat="46.1249624" lon="9.3492958"><ele>204.6</ele><time>2026-05-04T07:07:11.055Z</time></trkpt><trkpt lat="46.1250646" lon="9.3494267"><ele>204.2</ele><time>2026-05-04T07:07:14.054Z</time></trkpt><trkpt lat="46.1251301" lon="9.3495094"><ele>203.8</ele><time>2026-05-04T07:07:16.054Z</time></trkpt><trkpt lat="46.1251827" lon="9.3496007"><ele>203.4</ele><time>2026-05-04T07:07:18.054Z</time></trkpt><trkpt lat="46.1252332" lon="9.3496833"><ele>203.0</ele><time>2026-05-04T07:07:20.054Z</time></trkpt><trkpt lat="46.125271" lon="9.3497745"><ele>203.66666666666669</ele><time>2026-05-04T07:07:22.055Z</time></trkpt><trkpt lat="46.1253145" lon="9.3498788"><ele>204.33333333333334</ele><time>2026-05-04T07:07:24.054Z</time></trkpt><trkpt lat="46.125359" lon="9.3499659"><ele>205.0</ele><time>2026-05-04T07:07:26.054Z</time></trkpt><trkpt lat="46.1254001" lon="9.3500424"><ele>205.66666666666669</ele><time>2026-05-04T07:07:28.053Z</time></trkpt><trkpt lat="46.1254524" lon="9.3501185"><ele>206.33333333333334</ele><time>2026-05-04T07:09:37.055Z</time></trkpt><trkpt lat="46.1255185" lon="9.3501871"><ele>207.0</ele><time>2026-05-04T07:09:41.055Z</time></trkpt><trkpt lat="46.1255788" lon="9.3502678"><ele>207.0</ele><time>2026-05-04T07:09:44.054Z</time></trkpt><trkpt lat="46.1256427" lon="9.3503562"><ele>207.0</ele><time>2026-05-04T07:09:47.054Z</time></trkpt><trkpt lat="46.1256854" lon="9.3504275"><ele>207.0</ele><time>2026-05-04T07:09:49.055Z</time></trkpt><trkpt lat="46.125741" lon="9.3504973"><ele>207.0</ele><time>2026-05-04T07:09:51.055Z</time></trkpt><trkpt lat="46.1258012" lon="9.3505697"><ele>207.0</ele><time>2026-05-04T07:09:53.054Z</time></trkpt><trkpt lat="46.1258636" lon="9.3506522"><ele>207.0</ele><time>2026-05-04T07:09:55.055Z</time></trkpt><trkpt lat="46.1259288" lon="9.3507312"><ele>207.39999999999998</ele><time>2026-05-04T07:09:57.055Z</time></trkpt><trkpt lat="46.125995" lon="9.3508151"><ele>207.79999999999998</ele><time>2026-05-04T07:09:59.053Z</time></trkpt><trkpt lat="46.1260597" lon="9.3508997"><ele>208.2</ele><time>2026-05-04T07:10:01.055Z</time></trkpt><trkpt lat="46.1261354" lon="9.3509733"><ele>208.6</ele><time>2026-05-04T07:10:03.054Z</time></trkpt><trkpt lat="46.1262072" lon="9.3510562"><ele>209.0</ele><time>2026-05-04T07:10:05.055Z</time></trkpt><trkpt lat="46.1262792" lon="9.3511528"><ele>209.0</ele><time>2026-05-04T07:10:07.055Z</time></trkpt><trkpt lat="46.1263524" lon="9.3512464"><ele>209.0</ele><time>2026-05-04T07:10:09.054Z</time></trkpt><trkpt lat="46.1264087" lon="9.3513596"><ele>209.0</ele><time>2026-05-04T07:10:11.056Z</time></trkpt><trkpt lat="46.1264813" lon="9.3514544"><ele>209.0</ele><time>2026-05-04T07:10:13.053Z</time></trkpt><trkpt lat="46.1265668" lon="9.3515512"><ele>209.0</ele><time>2026-05-04T07:10:15.056Z</time></trkpt><trkpt lat="46.1266834" lon="9.3515828"><ele>209.0</ele><time>2026-05-04T07:10:17.054Z</time></trkpt><trkpt lat="46.126802" lon="9.3515752"><ele>209.0</ele><time>2026-05-04T07:10:19.055Z</time></trkpt><trkpt lat="46.1269245" lon="9.3515875"><ele>209.0</ele><time>2026-05-04T07:10:21.055Z</time></trkpt><trkpt lat="46.1270439" lon="9.3515876"><ele>209.0</ele><time>2026-05-04T07:10:23.056Z</time></trkpt><trkpt lat="46.1271752" lon="9.3515918"><ele>209.0</ele><time>2026-05-04T07:10:25.053Z</time></trkpt><trkpt lat="46.1272401" lon="9.3516001"><ele>209.0</ele><time>2026-05-04T07:10:26.054Z</time></trkpt><trkpt lat="46.1273628" lon="9.3516489"><ele>209.0</ele><time>2026-05-04T07:10:28.054Z</time></trkpt><trkpt lat="46.1274326" lon="9.3516951"><ele>209.0</ele><time>2026-05-04T07:10:29.054Z</time></trkpt><trkpt lat="46.127491" lon="9.3517384"><ele>209.0</ele><time>2026-05-04T07:10:30.055Z</time></trkpt><trkpt lat="46.1276004" lon="9.3518053"><ele>209.0</ele><time>2026-05-04T07:10:32.054Z</time></trkpt><trkpt lat="46.1277064" lon="9.3518579"><ele>209.0</ele><time>2026-05-04T07:10:34.054Z</time></trkpt><trkpt lat="46.1278175" lon="9.3518903"><ele>209.0</ele><time>2026-05-04T07:10:36.055Z</time></trkpt><trkpt lat="46.12793" lon="9.351911"><ele>209.0</ele><time>2026-05-04T07:10:38.054Z</time></trkpt><trkpt lat="46.128045" lon="9.351944"><ele>209.00000000000003</ele><time>2026-05-04T07:10:40.054Z</time></trkpt><trkpt lat="46.1281452" lon="9.3520074"><ele>209.0</ele><time>2026-05-04T07:10:42.056Z</time></trkpt><trkpt lat="46.1282064" lon="9.3520523"><ele>209.0</ele><time>2026-05-04T07:10:43.055Z</time></trkpt><trkpt lat="46.1282612" lon="9.3521037"><ele>209.0</ele><time>2026-05-04T07:10:44.054Z</time></trkpt><trkpt lat="46.1283185" lon="9.3521632"><ele>209.00000000000003</ele><time>2026-05-04T07:10:45.054Z</time></trkpt><trkpt lat="46.1283693" lon="9.3522197"><ele>209.0</ele><time>2026-05-04T07:10:46.054Z</time></trkpt><trkpt lat="46.1284673" lon="9.3523237"><ele>209.0</ele><time>2026-05-04T07:10:48.054Z</time></trkpt><trkpt lat="46.1285596" lon="9.3524279"><ele>209.0</ele><time>2026-05-04T07:10:50.055Z</time></trkpt><trkpt lat="46.1286447" lon="9.3525258"><ele>209.0</ele><time>2026-05-04T07:10:52.056Z</time></trkpt><trkpt lat="46.1287262" lon="9.3526326"><ele>209.0</ele><time>2026-05-04T07:10:54.055Z</time></trkpt><trkpt lat="46.1287943" lon="9.3527398"><ele>209.0</ele><time>2026-05-04T07:10:56.055Z</time></trkpt><trkpt lat="46.1288681" lon="9.3528296"><ele>209.0</ele><time>2026-05-04T07:10:58.054Z</time></trkpt><trkpt lat="46.1289352" lon="9.3529228"><ele>209.0</ele><time>2026-05-04T07:11:00.055Z</time></trkpt><trkpt lat="46.1290048" lon="9.3530254"><ele>209.0</ele><time>2026-05-04T07:11:02.053Z</time></trkpt><trkpt lat="46.1290828" lon="9.3531266"><ele>209.0</ele><time>2026-05-04T07:11:04.056Z</time></trkpt><trkpt lat="46.1291526" lon="9.3532287"><ele>209.0</ele><time>2026-05-04T07:11:06.054Z</time></trkpt><trkpt lat="46.1292318" lon="9.3533347"><ele>209.39999999999998</ele><time>2026-05-04T07:11:08.056Z</time></trkpt><trkpt lat="46.1293056" lon="9.353446"><ele>209.8</ele><time>2026-05-04T07:11:10.053Z</time></trkpt><trkpt lat="46.1293769" lon="9.3535629"><ele>210.2</ele><time>2026-05-04T07:11:12.054Z</time></trkpt><trkpt lat="46.1294574" lon="9.3536755"><ele>210.60000000000002</ele><time>2026-05-04T07:11:14.056Z</time></trkpt><trkpt lat="46.1295395" lon="9.3538026"><ele>211.0</ele><time>2026-05-04T07:11:16.055Z</time></trkpt><trkpt lat="46.1296077" lon="9.3539096"><ele>211.0</ele><time>2026-05-04T07:11:18.053Z</time></trkpt><trkpt lat="46.1296839" lon="9.3540197"><ele>211.0</ele><time>2026-05-04T07:11:20.055Z</time></trkpt><trkpt lat="46.1297456" lon="9.3541342"><ele>211.0</ele><time>2026-05-04T07:11:22.056Z</time></trkpt><trkpt lat="46.1297894" lon="9.3542544"><ele>211.0</ele><time>2026-05-04T07:11:24.056Z</time></trkpt><trkpt lat="46.129823" lon="9.3543774"><ele>211.0</ele><time>2026-05-04T07:11:26.056Z</time></trkpt><trkpt lat="46.1298491" lon="9.3545033"><ele>211.0</ele><time>2026-05-04T07:11:28.055Z</time></trkpt><trkpt lat="46.1298883" lon="9.3546392"><ele>211.0</ele><time>2026-05-04T07:11:30.054Z</time></trkpt><trkpt lat="46.1299319" lon="9.3547808"><ele>211.0</ele><time>2026-05-04T07:11:32.055Z</time></trkpt><trkpt lat="46.1299706" lon="9.354919"><ele>211.0</ele><time>2026-05-04T07:11:34.056Z</time></trkpt><trkpt lat="46.1300132" lon="9.3550445"><ele>211.0</ele><time>2026-05-04T07:11:36.056Z</time></trkpt><trkpt lat="46.1300678" lon="9.355185"><ele>210.8</ele><time>2026-05-04T07:11:38.054Z</time></trkpt><trkpt lat="46.1301178" lon="9.3553144"><ele>210.60000000000002</ele><time>2026-05-04T07:11:40.054Z</time></trkpt><trkpt lat="46.1301607" lon="9.3554559"><ele>210.4</ele><time>2026-05-04T07:11:42.055Z</time></trkpt><trkpt lat="46.1302078" lon="9.3556142"><ele>210.2</ele><time>2026-05-04T07:11:44.055Z</time></trkpt><trkpt lat="46.1302412" lon="9.3557726"><ele>210.0</ele><time>2026-05-04T07:11:46.054Z</time></trkpt><trkpt lat="46.1302801" lon="9.3559216"><ele>210.0</ele><time>2026-05-04T07:11:48.053Z</time></trkpt><trkpt lat="46.1303127" lon="9.3560572"><ele>210.0</ele><time>2026-05-04T07:11:50.056Z</time></trkpt><trkpt lat="46.1303447" lon="9.3561886"><ele>210.0</ele><time>2026-05-04T07:11:52.055Z</time></trkpt><trkpt lat="46.1303664" lon="9.3563221"><ele>210.0</ele><time>2026-05-04T07:11:54.055Z</time></trkpt><trkpt lat="46.1303785" lon="9.3564559"><ele>210.0</ele><time>2026-05-04T07:11:56.056Z</time></trkpt><trkpt lat="46.1303918" lon="9.3565656"><ele>210.42857142857142</ele><time>2026-05-04T07:11:58.055Z</time></trkpt><trkpt lat="46.1304086" lon="9.3566607"><ele>210.85714285714286</ele><time>2026-05-04T07:12:00.055Z</time></trkpt><trkpt lat="46.1304351" lon="9.3567436"><ele>211.28571428571428</ele><time>2026-05-04T07:12:02.054Z</time></trkpt><trkpt lat="46.1304778" lon="9.3568618"><ele>211.71428571428572</ele><time>2026-05-04T07:12:05.054Z</time></trkpt><trkpt lat="46.1305096" lon="9.3569434"><ele>212.14285714285714</ele><time>2026-05-04T07:12:07.056Z</time></trkpt><trkpt lat="46.1305319" lon="9.357065"><ele>212.57142857142856</ele><time>2026-05-04T07:12:10.055Z</time></trkpt><trkpt lat="46.1305556" lon="9.3571612"><ele>213.0</ele><time>2026-05-04T07:12:12.056Z</time></trkpt><trkpt lat="46.130587" lon="9.35728"><ele>213.4</ele><time>2026-05-04T07:12:14.054Z</time></trkpt><trkpt lat="46.13063" lon="9.3573938"><ele>213.8</ele><time>2026-05-04T07:12:16.055Z</time></trkpt><trkpt lat="46.1306788" lon="9.3575304"><ele>214.2</ele><time>2026-05-04T07:12:18.056Z</time></trkpt><trkpt lat="46.1307188" lon="9.3576759"><ele>214.6</ele><time>2026-05-04T07:12:20.056Z</time></trkpt><trkpt lat="46.1307681" lon="9.3578326"><ele>215.0</ele><time>2026-05-04T07:12:22.055Z</time></trkpt><trkpt lat="46.13084" lon="9.3579753"><ele>214.33333333333334</ele><time>2026-05-04T07:12:24.055Z</time></trkpt><trkpt lat="46.1309233" lon="9.3581081"><ele>213.66666666666669</ele><time>2026-05-04T07:12:26.054Z</time></trkpt><trkpt lat="46.1309887" lon="9.3582644"><ele>213.0</ele><time>2026-05-04T07:12:28.055Z</time></trkpt><trkpt lat="46.13102" lon="9.3583501"><ele>212.33333333333331</ele><time>2026-05-04T07:12:29.055Z</time></trkpt><trkpt lat="46.1310488" lon="9.3584309"><ele>211.66666666666666</ele><time>2026-05-04T07:12:30.055Z</time></trkpt><trkpt lat="46.1310745" lon="9.358514"><ele>211.0</ele><time>2026-05-04T07:12:31.055Z</time></trkpt><trkpt lat="46.1311032" lon="9.358686"><ele>211.0</ele><time>2026-05-04T07:12:33.055Z</time></trkpt><trkpt lat="46.1311288" lon="9.3588594"><ele>211.0</ele><time>2026-05-04T07:12:35.055Z</time></trkpt><trkpt lat="46.1311528" lon="9.3589443"><ele>211.0</ele><time>2026-05-04T07:12:36.055Z</time></trkpt><trkpt lat="46.1311829" lon="9.3590281"><ele>211.0</ele><time>2026-05-04T07:12:37.053Z</time></trkpt><trkpt lat="46.1312433" lon="9.3591832"><ele>211.0</ele><time>2026-05-04T07:12:39.056Z</time></trkpt><trkpt lat="46.1312917" lon="9.3593551"><ele>211.16666666666666</ele><time>2026-05-04T07:12:41.056Z</time></trkpt><trkpt lat="46.1313219" lon="9.3595247"><ele>211.33333333333331</ele><time>2026-05-04T07:12:43.055Z</time></trkpt><trkpt lat="46.1313616" lon="9.3596937"><ele>211.5</ele><time>2026-05-04T07:12:45.055Z</time></trkpt><trkpt lat="46.1313972" lon="9.3597711"><ele>211.66666666666669</ele><time>2026-05-04T07:12:46.055Z</time></trkpt><trkpt lat="46.1314319" lon="9.3598522"><ele>211.83333333333334</ele><time>2026-05-04T07:12:47.055Z</time></trkpt><trkpt lat="46.1314666" lon="9.3599298"><ele>212.0</ele><time>2026-05-04T07:12:48.054Z</time></trkpt><trkpt lat="46.1315024" lon="9.3600066"><ele>211.85714285714286</ele><time>2026-05-04T07:12:49.055Z</time></trkpt><trkpt lat="46.1315386" lon="9.3600843"><ele>211.7142857142857</ele><time>2026-05-04T07:12:50.055Z</time></trkpt><trkpt lat="46.1315781" lon="9.3601684"><ele>211.57142857142856</ele><time>2026-05-04T07:12:51.054Z</time></trkpt><trkpt lat="46.1316175" lon="9.3602467"><ele>211.42857142857144</ele><time>2026-05-04T07:12:52.055Z</time></trkpt><trkpt lat="46.1316558" lon="9.3603269"><ele>211.28571428571428</ele><time>2026-05-04T07:12:53.055Z</time></trkpt><trkpt lat="46.1316974" lon="9.3604094"><ele>211.14285714285714</ele><time>2026-05-04T07:12:54.055Z</time></trkpt><trkpt lat="46.1317376" lon="9.3604924"><ele>211.0</ele><time>2026-05-04T07:12:55.055Z</time></trkpt><trkpt lat="46.1317789" lon="9.3605726"><ele>211.42857142857144</ele><time>2026-05-04T07:12:56.054Z</time></trkpt><trkpt lat="46.1318207" lon="9.3606573"><ele>211.85714285714286</ele><time>2026-05-04T07:12:57.056Z</time></trkpt><trkpt lat="46.1318674" lon="9.3607413"><ele>212.28571428571428</ele><time>2026-05-04T07:12:58.054Z</time></trkpt><trkpt lat="46.1319127" lon="9.3608257"><ele>212.71428571428572</ele><time>2026-05-04T07:12:59.056Z</time></trkpt><trkpt lat="46.1319527" lon="9.360913"><ele>213.14285714285714</ele><time>2026-05-04T07:13:00.055Z</time></trkpt><trkpt lat="46.1319902" lon="9.3609969"><ele>213.57142857142858</ele><time>2026-05-04T07:13:01.054Z</time></trkpt><trkpt lat="46.1320313" lon="9.3610748"><ele>214.0</ele><time>2026-05-04T07:13:02.055Z</time></trkpt><trkpt lat="46.1320708" lon="9.3611565"><ele>214.00000000000003</ele><time>2026-05-04T07:13:03.055Z</time></trkpt><trkpt lat="46.1321096" lon="9.3612407"><ele>214.0</ele><time>2026-05-04T07:13:04.055Z</time></trkpt><trkpt lat="46.1321491" lon="9.3613225"><ele>214.0</ele><time>2026-05-04T07:13:05.054Z</time></trkpt><trkpt lat="46.1321939" lon="9.3614052"><ele>214.0</ele><time>2026-05-04T07:13:06.055Z</time></trkpt><trkpt lat="46.1322397" lon="9.3614872"><ele>214.0</ele><time>2026-05-04T07:13:07.055Z</time></trkpt><trkpt lat="46.1322846" lon="9.3615769"><ele>214.00000000000003</ele><time>2026-05-04T07:13:08.053Z</time></trkpt><trkpt lat="46.1323291" lon="9.3616618"><ele>214.0</ele><time>2026-05-04T07:13:09.056Z</time></trkpt><trkpt lat="46.1323738" lon="9.3617456"><ele>213.2</ele><time>2026-05-04T07:13:10.055Z</time></trkpt><trkpt lat="46.1324203" lon="9.3618272"><ele>212.39999999999998</ele><time>2026-05-04T07:13:11.054Z</time></trkpt><trkpt lat="46.132463" lon="9.3619144"><ele>211.6</ele><time>2026-05-04T07:13:12.055Z</time></trkpt><trkpt lat="46.1325012" lon="9.3620008"><ele>210.8</ele><time>2026-05-04T07:13:13.055Z</time></trkpt><trkpt lat="46.1325666" lon="9.3621553"><ele>210.0</ele><time>2026-05-04T07:13:15.437Z</time></trkpt><trkpt lat="46.1326478" lon="9.3623287"><ele>210.0</ele><time>2026-05-04T07:13:17.055Z</time></trkpt><trkpt lat="46.1326935" lon="9.3624143"><ele>210.0</ele><time>2026-05-04T07:13:18.054Z</time></trkpt><trkpt lat="46.1327339" lon="9.3625014"><ele>210.0</ele><time>2026-05-04T07:13:19.055Z</time></trkpt><trkpt lat="46.1327726" lon="9.3625833"><ele>210.0</ele><time>2026-05-04T07:13:20.055Z</time></trkpt><trkpt lat="46.1328133" lon="9.3626623"><ele>210.0</ele><time>2026-05-04T07:13:21.054Z</time></trkpt><trkpt lat="46.1328533" lon="9.3627459"><ele>210.0</ele><time>2026-05-04T07:13:22.054Z</time></trkpt><trkpt lat="46.1328934" lon="9.3628289"><ele>210.0</ele><time>2026-05-04T07:13:23.056Z</time></trkpt><trkpt lat="46.1329339" lon="9.3629109"><ele>210.0</ele><time>2026-05-04T07:13:24.054Z</time></trkpt><trkpt lat="46.1329728" lon="9.3629898"><ele>210.0</ele><time>2026-05-04T07:13:25.055Z</time></trkpt><trkpt lat="46.1330054" lon="9.3630703"><ele>210.0</ele><time>2026-05-04T07:13:26.055Z</time></trkpt><trkpt lat="46.1330432" lon="9.3631466"><ele>210.0</ele><time>2026-05-04T07:13:27.055Z</time></trkpt><trkpt lat="46.1330858" lon="9.363217"><ele>210.0</ele><time>2026-05-04T07:13:28.055Z</time></trkpt><trkpt lat="46.133125" lon="9.3632905"><ele>210.0</ele><time>2026-05-04T07:13:29.055Z</time></trkpt><trkpt lat="46.1332012" lon="9.3634299"><ele>210.0</ele><time>2026-05-04T07:13:31.055Z</time></trkpt><trkpt lat="46.1332656" lon="9.3635584"><ele>209.5</ele><time>2026-05-04T07:13:33.055Z</time></trkpt><trkpt lat="46.1333166" lon="9.3636571"><ele>209.0</ele><time>2026-05-04T07:13:35.055Z</time></trkpt><trkpt lat="46.1333821" lon="9.3637409"><ele>208.5</ele><time>2026-05-04T07:13:37.056Z</time></trkpt><trkpt lat="46.1334434" lon="9.3637968"><ele>208.0</ele><time>2026-05-04T07:13:39.056Z</time></trkpt><trkpt lat="46.1335109" lon="9.3638393"><ele>207.5</ele><time>2026-05-04T07:13:41.055Z</time></trkpt><trkpt lat="46.1335877" lon="9.3638583"><ele>207.0</ele><time>2026-05-04T07:13:43.054Z</time></trkpt><trkpt lat="46.1336761" lon="9.3638259"><ele>207.0</ele><time>2026-05-04T07:13:45.056Z</time></trkpt><trkpt lat="46.1337756" lon="9.3638045"><ele>207.0</ele><time>2026-05-04T07:13:47.055Z</time></trkpt><trkpt lat="46.1338567" lon="9.3637528"><ele>207.0</ele><time>2026-05-04T07:13:49.055Z</time></trkpt><trkpt lat="46.1339412" lon="9.3637099"><ele>207.0</ele><time>2026-05-04T07:13:51.055Z</time></trkpt><trkpt lat="46.1340296" lon="9.3636636"><ele>207.0</ele><time>2026-05-04T07:13:53.056Z</time></trkpt><trkpt lat="46.1341388" lon="9.3636022"><ele>206.57142857142858</ele><time>2026-05-04T07:13:55.055Z</time></trkpt><trkpt lat="46.1341997" lon="9.3635632"><ele>206.14285714285714</ele><time>2026-05-04T07:13:56.056Z</time></trkpt><trkpt lat="46.1342609" lon="9.3635131"><ele>205.71428571428572</ele><time>2026-05-04T07:13:57.055Z</time></trkpt><trkpt lat="46.1343272" lon="9.3634748"><ele>205.28571428571428</ele><time>2026-05-04T07:13:58.055Z</time></trkpt><trkpt lat="46.1343917" lon="9.3634273"><ele>204.85714285714286</ele><time>2026-05-04T07:13:59.056Z</time></trkpt><trkpt lat="46.1344581" lon="9.3633793"><ele>204.42857142857144</ele><time>2026-05-04T07:14:00.056Z</time></trkpt><trkpt lat="46.1345184" lon="9.3633357"><ele>204.0</ele><time>2026-05-04T07:14:01.055Z</time></trkpt><trkpt lat="46.1345916" lon="9.3632963"><ele>204.0</ele><time>2026-05-04T07:14:02.056Z</time></trkpt><trkpt lat="46.1346629" lon="9.3632566"><ele>204.0</ele><time>2026-05-04T07:14:03.055Z</time></trkpt><trkpt lat="46.1347332" lon="9.3632132"><ele>204.0</ele><time>2026-05-04T07:14:04.055Z</time></trkpt><trkpt lat="46.1347974" lon="9.3631447"><ele>204.0</ele><time>2026-05-04T07:14:05.057Z</time></trkpt><trkpt lat="46.1348612" lon="9.363089"><ele>204.0</ele><time>2026-05-04T07:14:06.054Z</time></trkpt><trkpt lat="46.1349349" lon="9.3630464"><ele>204.0</ele><time>2026-05-04T07:14:07.055Z</time></trkpt><trkpt lat="46.1350044" lon="9.3629986"><ele>203.5</ele><time>2026-05-04T07:14:08.055Z</time></trkpt><trkpt lat="46.1350803" lon="9.3629458"><ele>203.0</ele><time>2026-05-04T07:14:09.056Z</time></trkpt><trkpt lat="46.1351597" lon="9.362902"><ele>202.5</ele><time>2026-05-04T07:14:10.055Z</time></trkpt><trkpt lat="46.135231" lon="9.362859"><ele>202.0</ele><time>2026-05-04T07:14:11.056Z</time></trkpt><trkpt lat="46.1353058" lon="9.3628108"><ele>201.5</ele><time>2026-05-04T07:14:12.055Z</time></trkpt><trkpt lat="46.1353736" lon="9.3627674"><ele>201.0</ele><time>2026-05-04T07:14:13.056Z</time></trkpt><trkpt lat="46.1354414" lon="9.362732"><ele>201.0</ele><time>2026-05-04T07:14:14.056Z</time></trkpt><trkpt lat="46.1355007" lon="9.3627"><ele>201.0</ele><time>2026-05-04T07:14:15.054Z</time></trkpt><trkpt lat="46.135572" lon="9.3626688"><ele>201.0</ele><time>2026-05-04T07:14:17.056Z</time></trkpt><trkpt lat="46.1356299" lon="9.3627331"><ele>201.0</ele><time>2026-05-04T07:14:19.056Z</time></trkpt><trkpt lat="46.1356478" lon="9.3628438"><ele>201.0</ele><time>2026-05-04T07:14:21.054Z</time></trkpt><trkpt lat="46.1356485" lon="9.3629584"><ele>201.0</ele><time>2026-05-04T07:14:23.054Z</time></trkpt><trkpt lat="46.1356591" lon="9.3630928"><ele>201.20000000000002</ele><time>2026-05-04T07:14:25.054Z</time></trkpt><trkpt lat="46.1356668" lon="9.3632284"><ele>201.4</ele><time>2026-05-04T07:14:27.056Z</time></trkpt><trkpt lat="46.1356769" lon="9.3633683"><ele>201.6</ele><time>2026-05-04T07:14:29.055Z</time></trkpt><trkpt lat="46.1356862" lon="9.3635336"><ele>201.8</ele><time>2026-05-04T07:14:31.055Z</time></trkpt><trkpt lat="46.1356954" lon="9.3636943"><ele>202.0</ele><time>2026-05-04T07:14:33.055Z</time></trkpt><trkpt lat="46.135704" lon="9.3638512"><ele>201.6</ele><time>2026-05-04T07:14:35.055Z</time></trkpt><trkpt lat="46.135725" lon="9.364014"><ele>201.2</ele><time>2026-05-04T07:14:37.055Z</time></trkpt><trkpt lat="46.1357728" lon="9.3641838"><ele>200.8</ele><time>2026-05-04T07:14:39.056Z</time></trkpt><trkpt lat="46.1358144" lon="9.3643374"><ele>200.4</ele><time>2026-05-04T07:14:41.054Z</time></trkpt><trkpt lat="46.13584" lon="9.3644212"><ele>200.0</ele><time>2026-05-04T07:14:42.055Z</time></trkpt><trkpt lat="46.1358912" lon="9.3645658"><ele>200.25</ele><time>2026-05-04T07:14:44.055Z</time></trkpt><trkpt lat="46.135938" lon="9.3647165"><ele>200.5</ele><time>2026-05-04T07:14:46.055Z</time></trkpt><trkpt lat="46.1359815" lon="9.364869"><ele>200.75</ele><time>2026-05-04T07:14:48.055Z</time></trkpt><trkpt lat="46.1360278" lon="9.3650206"><ele>201.0</ele><time>2026-05-04T07:14:50.056Z</time></trkpt><trkpt lat="46.1360735" lon="9.3651791"><ele>201.0</ele><time>2026-05-04T07:14:52.056Z</time></trkpt><trkpt lat="46.1361344" lon="9.3653321"><ele>201.0</ele><time>2026-05-04T07:14:54.054Z</time></trkpt><trkpt lat="46.1362023" lon="9.3654543"><ele>201.0</ele><time>2026-05-04T07:14:56.054Z</time></trkpt><trkpt lat="46.1362838" lon="9.365562"><ele>201.0</ele><time>2026-05-04T07:14:58.055Z</time></trkpt><trkpt lat="46.1363705" lon="9.3656674"><ele>201.20000000000002</ele><time>2026-05-04T07:15:00.055Z</time></trkpt><trkpt lat="46.1364488" lon="9.3657622"><ele>201.4</ele><time>2026-05-04T07:15:02.055Z</time></trkpt><trkpt lat="46.1365158" lon="9.3658702"><ele>201.6</ele><time>2026-05-04T07:15:04.054Z</time></trkpt><trkpt lat="46.1365727" lon="9.3660169"><ele>201.8</ele><time>2026-05-04T07:15:06.055Z</time></trkpt><trkpt lat="46.1365984" lon="9.3661122"><ele>202.0</ele><time>2026-05-04T07:15:07.055Z</time></trkpt><trkpt lat="46.1366335" lon="9.3662786"><ele>201.66666666666666</ele><time>2026-05-04T07:15:09.054Z</time></trkpt><trkpt lat="46.1366506" lon="9.3664375"><ele>201.33333333333331</ele><time>2026-05-04T07:15:11.056Z</time></trkpt><trkpt lat="46.1366741" lon="9.3666115"><ele>201.0</ele><time>2026-05-04T07:15:13.055Z</time></trkpt><trkpt lat="46.1366921" lon="9.3667021"><ele>200.66666666666669</ele><time>2026-05-04T07:15:14.057Z</time></trkpt><trkpt lat="46.1367061" lon="9.3668018"><ele>200.33333333333334</ele><time>2026-05-04T07:15:15.054Z</time></trkpt><trkpt lat="46.1367171" lon="9.3668988"><ele>200.0</ele><time>2026-05-04T07:15:16.056Z</time></trkpt><trkpt lat="46.13673" lon="9.3669896"><ele>200.0</ele><time>2026-05-04T07:15:17.057Z</time></trkpt><trkpt lat="46.136755" lon="9.367077"><ele>200.0</ele><time>2026-05-04T07:15:18.057Z</time></trkpt><trkpt lat="46.1367835" lon="9.3671616"><ele>200.0</ele><time>2026-05-04T07:15:19.055Z</time></trkpt><trkpt lat="46.1368469" lon="9.3673049"><ele>200.0</ele><time>2026-05-04T07:15:21.055Z</time></trkpt><trkpt lat="46.136898" lon="9.3674457"><ele>200.0</ele><time>2026-05-04T07:15:23.056Z</time></trkpt><trkpt lat="46.1369584" lon="9.3675812"><ele>200.4</ele><time>2026-05-04T07:15:25.055Z</time></trkpt><trkpt lat="46.137026" lon="9.3677092"><ele>200.8</ele><time>2026-05-04T07:15:27.055Z</time></trkpt><trkpt lat="46.1370868" lon="9.3678308"><ele>201.2</ele><time>2026-05-04T07:15:29.055Z</time></trkpt><trkpt lat="46.1371497" lon="9.3679596"><ele>201.6</ele><time>2026-05-04T07:15:31.056Z</time></trkpt><trkpt lat="46.1372161" lon="9.3680711"><ele>202.0</ele><time>2026-05-04T07:15:33.055Z</time></trkpt><trkpt lat="46.137267" lon="9.3681831"><ele>202.49999999999997</ele><time>2026-05-04T07:15:35.056Z</time></trkpt><trkpt lat="46.137285" lon="9.3683225"><ele>203.0</ele><time>2026-05-04T07:15:37.056Z</time></trkpt><trkpt lat="46.1372911" lon="9.3684538"><ele>203.5</ele><time>2026-05-04T07:15:39.054Z</time></trkpt><trkpt lat="46.1372842" lon="9.3685847"><ele>204.0</ele><time>2026-05-04T07:15:41.054Z</time></trkpt><trkpt lat="46.1372773" lon="9.3686955"><ele>204.49999999999997</ele><time>2026-05-04T07:15:43.056Z</time></trkpt><trkpt lat="46.1372746" lon="9.3687937"><ele>205.0</ele><time>2026-05-04T07:15:45.056Z</time></trkpt><trkpt lat="46.1372695" lon="9.3688979"><ele>205.0</ele><time>2026-05-04T07:15:47.056Z</time></trkpt><trkpt lat="46.1372739" lon="9.3689964"><ele>205.0</ele><time>2026-05-04T07:15:49.054Z</time></trkpt><trkpt lat="46.1372769" lon="9.3690977"><ele>205.0</ele><time>2026-05-04T07:15:51.057Z</time></trkpt><trkpt lat="46.137258" lon="9.3691982"><ele>205.0</ele><time>2026-05-04T07:15:53.056Z</time></trkpt><trkpt lat="46.137219" lon="9.3692823"><ele>205.0</ele><time>2026-05-04T07:15:55.054Z</time></trkpt><trkpt lat="46.1371895" lon="9.3693784"><ele>205.0</ele><time>2026-05-04T07:15:57.054Z</time></trkpt><trkpt lat="46.1371706" lon="9.3694793"><ele>205.0</ele><time>2026-05-04T07:15:59.055Z</time></trkpt><trkpt lat="46.1371546" lon="9.3695848"><ele>204.99999999999997</ele><time>2026-05-04T07:16:01.055Z</time></trkpt><trkpt lat="46.1371386" lon="9.3696752"><ele>205.0</ele><time>2026-05-04T07:16:03.056Z</time></trkpt><trkpt lat="46.1371126" lon="9.3697968"><ele>205.0</ele><time>2026-05-04T07:16:06.054Z</time></trkpt><trkpt lat="46.1370817" lon="9.3698839"><ele>205.0</ele><time>2026-05-04T07:16:08.056Z</time></trkpt><trkpt lat="46.1370589" lon="9.3700154"><ele>204.99999999999997</ele><time>2026-05-04T07:16:11.055Z</time></trkpt><trkpt lat="46.1370304" lon="9.3701316"><ele>205.0</ele><time>2026-05-04T07:16:14.056Z</time></trkpt><trkpt lat="46.1370464" lon="9.370246"><ele>204.99999999999997</ele><time>2026-05-04T07:16:17.056Z</time></trkpt><trkpt lat="46.1370766" lon="9.3703295"><ele>205.0</ele><time>2026-05-04T07:16:19.054Z</time></trkpt><trkpt lat="46.1371124" lon="9.3704473"><ele>205.0</ele><time>2026-05-04T07:16:22.056Z</time></trkpt><trkpt lat="46.137154" lon="9.3705591"><ele>205.0</ele><time>2026-05-04T07:16:25.055Z</time></trkpt><trkpt lat="46.1371827" lon="9.3706813"><ele>204.99999999999997</ele><time>2026-05-04T07:16:28.056Z</time></trkpt><trkpt lat="46.1372023" lon="9.3707682"><ele>205.0</ele><time>2026-05-04T07:16:30.057Z</time></trkpt><trkpt lat="46.1372224" lon="9.3708914"><ele>205.2</ele><time>2026-05-04T07:16:33.056Z</time></trkpt><trkpt lat="46.1372683" lon="9.3710087"><ele>205.4</ele><time>2026-05-04T07:16:36.055Z</time></trkpt><trkpt lat="46.1373177" lon="9.3711432"><ele>205.60000000000002</ele><time>2026-05-04T07:16:39.056Z</time></trkpt><trkpt lat="46.1373657" lon="9.3712298"><ele>205.8</ele><time>2026-05-04T07:16:41.055Z</time></trkpt><trkpt lat="46.1374192" lon="9.3713201"><ele>206.0</ele><time>2026-05-04T07:16:43.056Z</time></trkpt><trkpt lat="46.1374745" lon="9.3714309"><ele>205.20000000000002</ele><time>2026-05-04T07:16:45.057Z</time></trkpt><trkpt lat="46.1375066" lon="9.3715811"><ele>204.4</ele><time>2026-05-04T07:16:47.056Z</time></trkpt><trkpt lat="46.1375508" lon="9.3717128"><ele>203.6</ele><time>2026-05-04T07:16:49.057Z</time></trkpt><trkpt lat="46.1375946" lon="9.3718233"><ele>202.8</ele><time>2026-05-04T07:16:51.055Z</time></trkpt><trkpt lat="46.1376406" lon="9.3719291"><ele>202.0</ele><time>2026-05-04T07:16:53.055Z</time></trkpt><trkpt lat="46.1376851" lon="9.3720367"><ele>202.0</ele><time>2026-05-04T07:16:55.056Z</time></trkpt><trkpt lat="46.1377786" lon="9.3720969"><ele>202.0</ele><time>2026-05-04T07:16:57.055Z</time></trkpt><trkpt lat="46.1378638" lon="9.3721679"><ele>202.0</ele><time>2026-05-04T07:16:59.056Z</time></trkpt><trkpt lat="46.1379472" lon="9.3722147"><ele>202.0</ele><time>2026-05-04T07:17:01.055Z</time></trkpt><trkpt lat="46.1380162" lon="9.3722786"><ele>202.0</ele><time>2026-05-04T07:17:03.055Z</time></trkpt><trkpt lat="46.1380924" lon="9.3723203"><ele>202.16666666666666</ele><time>2026-05-04T07:17:05.056Z</time></trkpt><trkpt lat="46.1381723" lon="9.3723613"><ele>202.33333333333331</ele><time>2026-05-04T07:17:07.055Z</time></trkpt><trkpt lat="46.1382438" lon="9.3724139"><ele>202.5</ele><time>2026-05-04T07:17:09.056Z</time></trkpt><trkpt lat="46.1383189" lon="9.372478"><ele>202.66666666666669</ele><time>2026-05-04T07:17:11.056Z</time></trkpt><trkpt lat="46.1383964" lon="9.3725532"><ele>202.83333333333334</ele><time>2026-05-04T07:17:13.055Z</time></trkpt><trkpt lat="46.1384539" lon="9.3726493"><ele>203.0</ele><time>2026-05-04T07:17:15.056Z</time></trkpt><trkpt lat="46.1384674" lon="9.372779"><ele>202.60000000000002</ele><time>2026-05-04T07:17:17.055Z</time></trkpt><trkpt lat="46.1384738" lon="9.3729175"><ele>202.20000000000002</ele><time>2026-05-04T07:17:19.056Z</time></trkpt><trkpt lat="46.1384838" lon="9.3730462"><ele>201.8</ele><time>2026-05-04T07:17:21.055Z</time></trkpt><trkpt lat="46.1385012" lon="9.3731896"><ele>201.4</ele><time>2026-05-04T07:17:23.055Z</time></trkpt><trkpt lat="46.1385148" lon="9.37332"><ele>201.0</ele><time>2026-05-04T07:17:25.056Z</time></trkpt><trkpt lat="46.1385228" lon="9.373457"><ele>201.0</ele><time>2026-05-04T07:17:27.056Z</time></trkpt><trkpt lat="46.1385397" lon="9.3735933"><ele>201.0</ele><time>2026-05-04T07:17:29.056Z</time></trkpt><trkpt lat="46.1385522" lon="9.373717"><ele>201.0</ele><time>2026-05-04T07:17:31.055Z</time></trkpt><trkpt lat="46.1385663" lon="9.3738371"><ele>201.0</ele><time>2026-05-04T07:17:33.056Z</time></trkpt><trkpt lat="46.1385754" lon="9.3739638"><ele>201.0</ele><time>2026-05-04T07:17:35.056Z</time></trkpt><trkpt lat="46.1385826" lon="9.3740801"><ele>201.0</ele><time>2026-05-04T07:17:37.057Z</time></trkpt><trkpt lat="46.1385965" lon="9.3742332"><ele>201.60000000000002</ele><time>2026-05-04T07:17:39.056Z</time></trkpt><trkpt lat="46.1385964" lon="9.3743794"><ele>202.2</ele><time>2026-05-04T07:17:41.056Z</time></trkpt><trkpt lat="46.1385719" lon="9.3745119"><ele>202.8</ele><time>2026-05-04T07:17:43.056Z</time></trkpt><trkpt lat="46.1385115" lon="9.3746061"><ele>203.39999999999998</ele><time>2026-05-04T07:17:45.056Z</time></trkpt><trkpt lat="46.1384627" lon="9.3747239"><ele>204.0</ele><time>2026-05-04T07:17:47.056Z</time></trkpt><trkpt lat="46.1384887" lon="9.3748512"><ele>204.6</ele><time>2026-05-04T07:17:49.056Z</time></trkpt><trkpt lat="46.1385662" lon="9.3749274"><ele>205.2</ele><time>2026-05-04T07:17:51.056Z</time></trkpt><trkpt lat="46.1386455" lon="9.3750084"><ele>205.79999999999998</ele><time>2026-05-04T07:17:53.055Z</time></trkpt><trkpt lat="46.1387033" lon="9.3751167"><ele>206.39999999999998</ele><time>2026-05-04T07:17:55.056Z</time></trkpt><trkpt lat="46.1387655" lon="9.3752385"><ele>207.0</ele><time>2026-05-04T07:17:57.055Z</time></trkpt><trkpt lat="46.1388264" lon="9.3753624"><ele>207.0</ele><time>2026-05-04T07:17:59.056Z</time></trkpt><trkpt lat="46.1388866" lon="9.3754794"><ele>207.0</ele><time>2026-05-04T07:18:01.056Z</time></trkpt><trkpt lat="46.1389508" lon="9.3756159"><ele>207.0</ele><time>2026-05-04T07:18:03.057Z</time></trkpt><trkpt lat="46.1390002" lon="9.3757473"><ele>207.0</ele><time>2026-05-04T07:18:05.056Z</time></trkpt><trkpt lat="46.1390285" lon="9.3758714"><ele>207.0</ele><time>2026-05-04T07:18:07.056Z</time></trkpt><trkpt lat="46.1390459" lon="9.3759897"><ele>207.2</ele><time>2026-05-04T07:18:09.055Z</time></trkpt><trkpt lat="46.1390741" lon="9.376112"><ele>207.39999999999998</ele><time>2026-05-04T07:18:11.056Z</time></trkpt><trkpt lat="46.1391106" lon="9.376234"><ele>207.60000000000002</ele><time>2026-05-04T07:18:13.056Z</time></trkpt><trkpt lat="46.1391462" lon="9.3763588"><ele>207.8</ele><time>2026-05-04T07:18:15.055Z</time></trkpt><trkpt lat="46.1391863" lon="9.3764869"><ele>208.0</ele><time>2026-05-04T07:18:17.057Z</time></trkpt><trkpt lat="46.139228" lon="9.376612"><ele>208.0</ele><time>2026-05-04T07:18:19.054Z</time></trkpt><trkpt lat="46.1392671" lon="9.3767325"><ele>208.0</ele><time>2026-05-04T07:18:21.056Z</time></trkpt><trkpt lat="46.1393158" lon="9.3768703"><ele>208.0</ele><time>2026-05-04T07:18:23.056Z</time></trkpt><trkpt lat="46.1393599" lon="9.3769977"><ele>208.0</ele><time>2026-05-04T07:18:25.056Z</time></trkpt><trkpt lat="46.139405" lon="9.3771234"><ele>208.0</ele><time>2026-05-04T07:18:27.055Z</time></trkpt><trkpt lat="46.1394573" lon="9.3772566"><ele>208.2</ele><time>2026-05-04T07:18:29.056Z</time></trkpt><trkpt lat="46.1395138" lon="9.3773787"><ele>208.4</ele><time>2026-05-04T07:18:31.055Z</time></trkpt><trkpt lat="46.1395621" lon="9.3775112"><ele>208.6</ele><time>2026-05-04T07:18:33.056Z</time></trkpt><trkpt lat="46.1396203" lon="9.3776487"><ele>208.79999999999998</ele><time>2026-05-04T07:18:35.057Z</time></trkpt><trkpt lat="46.1396799" lon="9.3777674"><ele>209.0</ele><time>2026-05-04T07:18:37.056Z</time></trkpt><trkpt lat="46.1397498" lon="9.3778751"><ele>209.0</ele><time>2026-05-04T07:18:39.057Z</time></trkpt><trkpt lat="46.1398303" lon="9.3779894"><ele>209.0</ele><time>2026-05-04T07:18:41.055Z</time></trkpt><trkpt lat="46.1398854" lon="9.3780869"><ele>209.0</ele><time>2026-05-04T07:18:43.056Z</time></trkpt><trkpt lat="46.1399388" lon="9.3782018"><ele>209.0</ele><time>2026-05-04T07:18:45.056Z</time></trkpt><trkpt lat="46.1399787" lon="9.3783148"><ele>209.0</ele><time>2026-05-04T07:18:47.056Z</time></trkpt><trkpt lat="46.1400227" lon="9.3784341"><ele>208.79999999999998</ele><time>2026-05-04T07:18:49.056Z</time></trkpt><trkpt lat="46.1400626" lon="9.3785611"><ele>208.6</ele><time>2026-05-04T07:18:51.055Z</time></trkpt><trkpt lat="46.1401067" lon="9.3787038"><ele>208.4</ele><time>2026-05-04T07:18:53.056Z</time></trkpt><trkpt lat="46.1401466" lon="9.3788393"><ele>208.2</ele><time>2026-05-04T07:18:55.056Z</time></trkpt><trkpt lat="46.1401791" lon="9.3789761"><ele>208.0</ele><time>2026-05-04T07:18:57.054Z</time></trkpt><trkpt lat="46.1402237" lon="9.3791194"><ele>208.4</ele><time>2026-05-04T07:18:59.056Z</time></trkpt><trkpt lat="46.1402542" lon="9.3792062"><ele>208.8</ele><time>2026-05-04T07:19:00.057Z</time></trkpt><trkpt lat="46.1402941" lon="9.379363"><ele>209.2</ele><time>2026-05-04T07:19:02.057Z</time></trkpt><trkpt lat="46.1403245" lon="9.379514"><ele>209.6</ele><time>2026-05-04T07:19:04.057Z</time></trkpt><trkpt lat="46.1403505" lon="9.379673"><ele>210.0</ele><time>2026-05-04T07:19:06.056Z</time></trkpt><trkpt lat="46.1403701" lon="9.379813"><ele>210.4</ele><time>2026-05-04T07:19:08.056Z</time></trkpt><trkpt lat="46.1404094" lon="9.3799792"><ele>210.8</ele><time>2026-05-04T07:19:10.057Z</time></trkpt><trkpt lat="46.1404426" lon="9.3801232"><ele>211.2</ele><time>2026-05-04T07:19:12.056Z</time></trkpt><trkpt lat="46.1405039" lon="9.3802593"><ele>211.6</ele><time>2026-05-04T07:19:14.057Z</time></trkpt><trkpt lat="46.1405412" lon="9.3804003"><ele>212.0</ele><time>2026-05-04T07:19:16.056Z</time></trkpt><trkpt lat="46.1405688" lon="9.3805509"><ele>212.6</ele><time>2026-05-04T07:19:18.055Z</time></trkpt><trkpt lat="46.1405992" lon="9.3807222"><ele>213.2</ele><time>2026-05-04T07:19:20.056Z</time></trkpt><trkpt lat="46.1406381" lon="9.3808772"><ele>213.8</ele><time>2026-05-04T07:19:22.056Z</time></trkpt><trkpt lat="46.1406705" lon="9.3810304"><ele>214.4</ele><time>2026-05-04T07:19:24.056Z</time></trkpt><trkpt lat="46.1406798" lon="9.3811213"><ele>215.0</ele><time>2026-05-04T07:19:25.056Z</time></trkpt><trkpt lat="46.1407109" lon="9.3812807"><ele>214.0</ele><time>2026-05-04T07:19:27.055Z</time></trkpt><trkpt lat="46.1407371" lon="9.3814248"><ele>213.0</ele><time>2026-05-04T07:19:29.056Z</time></trkpt><trkpt lat="46.1407667" lon="9.3815646"><ele>212.0</ele><time>2026-05-04T07:19:31.056Z</time></trkpt><trkpt lat="46.1408103" lon="9.3817282"><ele>211.0</ele><time>2026-05-04T07:19:33.057Z</time></trkpt><trkpt lat="46.1408444" lon="9.3818596"><ele>210.0</ele><time>2026-05-04T07:19:35.057Z</time></trkpt><trkpt lat="46.1408811" lon="9.3820039"><ele>210.0</ele><time>2026-05-04T07:19:37.057Z</time></trkpt><trkpt lat="46.1409138" lon="9.3821699"><ele>210.0</ele><time>2026-05-04T07:19:39.055Z</time></trkpt><trkpt lat="46.1409596" lon="9.3823109"><ele>210.0</ele><time>2026-05-04T07:19:41.055Z</time></trkpt><trkpt lat="46.1409846" lon="9.3824441"><ele>210.0</ele><time>2026-05-04T07:19:43.055Z</time></trkpt><trkpt lat="46.1410144" lon="9.3825897"><ele>210.0</ele><time>2026-05-04T07:19:45.057Z</time></trkpt><trkpt lat="46.1410539" lon="9.3827308"><ele>210.4</ele><time>2026-05-04T07:19:47.056Z</time></trkpt><trkpt lat="46.1410919" lon="9.3828772"><ele>210.8</ele><time>2026-05-04T07:19:49.055Z</time></trkpt><trkpt lat="46.1411525" lon="9.383009"><ele>211.2</ele><time>2026-05-04T07:19:51.056Z</time></trkpt><trkpt lat="46.1412508" lon="9.3830501"><ele>211.6</ele><time>2026-05-04T07:19:53.057Z</time></trkpt><trkpt lat="46.1413482" lon="9.3830321"><ele>212.0</ele><time>2026-05-04T07:19:55.055Z</time></trkpt><trkpt lat="46.1414507" lon="9.3830275"><ele>211.0</ele><time>2026-05-04T07:19:57.055Z</time></trkpt><trkpt lat="46.141555" lon="9.3830383"><ele>210.0</ele><time>2026-05-04T07:19:59.057Z</time></trkpt><trkpt lat="46.1417117" lon="9.3831206"><ele>209.0</ele><time>2026-05-04T07:20:02.056Z</time></trkpt><trkpt lat="46.141789" lon="9.3832146"><ele>208.0</ele><time>2026-05-04T07:20:04.056Z</time></trkpt><trkpt lat="46.1418462" lon="9.3833264"><ele>208.0</ele><time>2026-05-04T07:20:06.055Z</time></trkpt><trkpt lat="46.1418729" lon="9.3834464"><ele>208.0</ele><time>2026-05-04T07:20:08.057Z</time></trkpt><trkpt lat="46.1418756" lon="9.3835413"><ele>208.0</ele><time>2026-05-04T07:20:10.057Z</time></trkpt><trkpt lat="46.1418578" lon="9.3836414"><ele>208.0</ele><time>2026-05-04T07:20:12.056Z</time></trkpt><trkpt lat="46.1418366" lon="9.3837633"><ele>208.0</ele><time>2026-05-04T07:20:15.055Z</time></trkpt><trkpt lat="46.14181" lon="9.3838486"><ele>208.0</ele><time>2026-05-04T07:20:17.056Z</time></trkpt><trkpt lat="46.1417768" lon="9.3839269"><ele>208.0</ele><time>2026-05-04T07:20:19.056Z</time></trkpt><trkpt lat="46.1417167" lon="9.3840111"><ele>208.16666666666666</ele><time>2026-05-04T07:20:22.056Z</time></trkpt><trkpt lat="46.1416606" lon="9.384079"><ele>208.33333333333331</ele><time>2026-05-04T07:20:25.056Z</time></trkpt><trkpt lat="46.1415894" lon="9.3841278"><ele>208.5</ele><time>2026-05-04T07:20:30.057Z</time></trkpt><trkpt lat="46.1415116" lon="9.3841598"><ele>208.66666666666669</ele><time>2026-05-04T07:20:34.056Z</time></trkpt><trkpt lat="46.1414353" lon="9.3841847"><ele>208.83333333333334</ele><time>2026-05-04T07:20:38.055Z</time></trkpt><trkpt lat="46.1413605" lon="9.3842171"><ele>209.0</ele><time>2026-05-04T07:20:41.056Z</time></trkpt><trkpt lat="46.1412714" lon="9.3842498"><ele>209.66666666666669</ele><time>2026-05-04T07:20:44.056Z</time></trkpt><trkpt lat="46.141203" lon="9.3842688"><ele>210.33333333333334</ele><time>2026-05-04T07:20:46.057Z</time></trkpt><trkpt lat="46.1411182" lon="9.3842895"><ele>211.0</ele><time>2026-05-04T07:20:48.057Z</time></trkpt><trkpt lat="46.1410058" lon="9.3843313"><ele>211.66666666666669</ele><time>2026-05-04T07:20:50.057Z</time></trkpt><trkpt lat="46.1409389" lon="9.3843604"><ele>212.33333333333334</ele><time>2026-05-04T07:20:51.057Z</time></trkpt><trkpt lat="46.1408703" lon="9.3843934"><ele>213.0</ele><time>2026-05-04T07:20:52.057Z</time></trkpt><trkpt lat="46.1408015" lon="9.3844257"><ele>212.99999999999997</ele><time>2026-05-04T07:20:53.057Z</time></trkpt><trkpt lat="46.1407317" lon="9.384456"><ele>213.0</ele><time>2026-05-04T07:20:54.056Z</time></trkpt><trkpt lat="46.1406551" lon="9.384484"><ele>213.0</ele><time>2026-05-04T07:20:55.055Z</time></trkpt><trkpt lat="46.1405781" lon="9.3845096"><ele>213.0</ele><time>2026-05-04T07:20:56.057Z</time></trkpt><trkpt lat="46.1405053" lon="9.3845308"><ele>213.0</ele><time>2026-05-04T07:20:57.056Z</time></trkpt><trkpt lat="46.1404391" lon="9.384548"><ele>212.99999999999997</ele><time>2026-05-04T07:20:58.056Z</time></trkpt><trkpt lat="46.1403809" lon="9.3845859"><ele>213.0</ele><time>2026-05-04T07:20:59.055Z</time></trkpt><trkpt lat="46.1402923" lon="9.3846372"><ele>213.83333333333334</ele><time>2026-05-04T07:21:01.055Z</time></trkpt><trkpt lat="46.1402278" lon="9.3846856"><ele>214.66666666666669</ele><time>2026-05-04T07:21:03.056Z</time></trkpt><trkpt lat="46.1402067" lon="9.3847875"><ele>215.5</ele><time>2026-05-04T07:21:05.056Z</time></trkpt><trkpt lat="46.140229" lon="9.3849161"><ele>216.33333333333334</ele><time>2026-05-04T07:21:07.058Z</time></trkpt><trkpt lat="46.1402722" lon="9.3850522"><ele>217.16666666666669</ele><time>2026-05-04T07:21:09.055Z</time></trkpt><trkpt lat="46.1403136" lon="9.3851949"><ele>218.0</ele><time>2026-05-04T07:21:11.056Z</time></trkpt><trkpt lat="46.1403617" lon="9.385338"><ele>218.0</ele><time>2026-05-04T07:21:13.056Z</time></trkpt><trkpt lat="46.140386" lon="9.385422"><ele>218.0</ele><time>2026-05-04T07:21:14.058Z</time></trkpt><trkpt lat="46.1404315" lon="9.3855845"><ele>218.0</ele><time>2026-05-04T07:21:16.057Z</time></trkpt><trkpt lat="46.1404733" lon="9.3857413"><ele>218.0</ele><time>2026-05-04T07:21:18.057Z</time></trkpt><trkpt lat="46.1405175" lon="9.3858958"><ele>218.0</ele><time>2026-05-04T07:21:20.057Z</time></trkpt><trkpt lat="46.1405725" lon="9.3860493"><ele>218.25</ele><time>2026-05-04T07:21:22.058Z</time></trkpt><trkpt lat="46.1406185" lon="9.3862044"><ele>218.5</ele><time>2026-05-04T07:21:24.055Z</time></trkpt><trkpt lat="46.1406706" lon="9.386354"><ele>218.75</ele><time>2026-05-04T07:21:26.056Z</time></trkpt><trkpt lat="46.140714" lon="9.3864997"><ele>219.0</ele><time>2026-05-04T07:21:28.056Z</time></trkpt><trkpt lat="46.1407542" lon="9.3866448"><ele>218.0</ele><time>2026-05-04T07:21:30.056Z</time></trkpt><trkpt lat="46.1408074" lon="9.3867936"><ele>217.0</ele><time>2026-05-04T07:21:32.055Z</time></trkpt><trkpt lat="46.1408641" lon="9.3869408"><ele>216.0</ele><time>2026-05-04T07:21:34.056Z</time></trkpt><trkpt lat="46.140921" lon="9.3870775"><ele>215.0</ele><time>2026-05-04T07:21:36.057Z</time></trkpt><trkpt lat="46.1409783" lon="9.3872296"><ele>214.83333333333334</ele><time>2026-05-04T07:21:38.056Z</time></trkpt><trkpt lat="46.1410383" lon="9.3873858"><ele>214.66666666666669</ele><time>2026-05-04T07:21:40.056Z</time></trkpt><trkpt lat="46.141069" lon="9.3874662"><ele>214.5</ele><time>2026-05-04T07:21:41.056Z</time></trkpt><trkpt lat="46.1411252" lon="9.3876256"><ele>214.33333333333331</ele><time>2026-05-04T07:21:43.056Z</time></trkpt><trkpt lat="46.1411443" lon="9.3877128"><ele>214.16666666666666</ele><time>2026-05-04T07:21:44.055Z</time></trkpt><trkpt lat="46.1411668" lon="9.3877981"><ele>214.0</ele><time>2026-05-04T07:21:45.057Z</time></trkpt><trkpt lat="46.1412133" lon="9.3879531"><ele>214.0</ele><time>2026-05-04T07:21:47.056Z</time></trkpt><trkpt lat="46.1412562" lon="9.3881109"><ele>214.0</ele><time>2026-05-04T07:21:49.056Z</time></trkpt><trkpt lat="46.1413162" lon="9.3882573"><ele>214.0</ele><time>2026-05-04T07:21:51.056Z</time></trkpt><trkpt lat="46.1413676" lon="9.3884129"><ele>214.0</ele><time>2026-05-04T07:21:53.058Z</time></trkpt><trkpt lat="46.1414183" lon="9.3885659"><ele>214.0</ele><time>2026-05-04T07:21:55.055Z</time></trkpt><trkpt lat="46.1414643" lon="9.3887203"><ele>213.99999999999997</ele><time>2026-05-04T07:21:57.056Z</time></trkpt><trkpt lat="46.1414858" lon="9.3888058"><ele>213.99999999999997</ele><time>2026-05-04T07:21:58.057Z</time></trkpt><trkpt lat="46.1415321" lon="9.3889766"><ele>214.0</ele><time>2026-05-04T07:22:00.056Z</time></trkpt><trkpt lat="46.1415499" lon="9.3890683"><ele>214.0</ele><time>2026-05-04T07:22:01.057Z</time></trkpt><trkpt lat="46.1415813" lon="9.3892403"><ele>213.57142857142858</ele><time>2026-05-04T07:22:03.056Z</time></trkpt><trkpt lat="46.1415989" lon="9.3893298"><ele>213.14285714285714</ele><time>2026-05-04T07:22:04.055Z</time></trkpt><trkpt lat="46.1416236" lon="9.3894174"><ele>212.71428571428572</ele><time>2026-05-04T07:22:05.057Z</time></trkpt><trkpt lat="46.1416579" lon="9.389496"><ele>212.28571428571428</ele><time>2026-05-04T07:22:06.057Z</time></trkpt><trkpt lat="46.1416913" lon="9.3895785"><ele>211.85714285714286</ele><time>2026-05-04T07:22:07.057Z</time></trkpt><trkpt lat="46.1417185" lon="9.3896669"><ele>211.42857142857144</ele><time>2026-05-04T07:22:08.057Z</time></trkpt><trkpt lat="46.1417467" lon="9.3897529"><ele>211.0</ele><time>2026-05-04T07:22:09.057Z</time></trkpt><trkpt lat="46.1417719" lon="9.3898377"><ele>211.0</ele><time>2026-05-04T07:22:10.058Z</time></trkpt><trkpt lat="46.1418197" lon="9.3900027"><ele>211.0</ele><time>2026-05-04T07:22:12.055Z</time></trkpt><trkpt lat="46.1418552" lon="9.3901676"><ele>211.0</ele><time>2026-05-04T07:22:14.056Z</time></trkpt><trkpt lat="46.1418599" lon="9.3903304"><ele>211.0</ele><time>2026-05-04T07:22:16.056Z</time></trkpt><trkpt lat="46.1418577" lon="9.3904527"><ele>211.0</ele><time>2026-05-04T07:22:18.058Z</time></trkpt><trkpt lat="46.1418269" lon="9.390544"><ele>210.99999999999997</ele><time>2026-05-04T07:22:27.057Z</time></trkpt><trkpt lat="46.1417991" lon="9.3906561"><ele>211.0</ele><time>2026-05-04T07:22:30.056Z</time></trkpt><trkpt lat="46.1417909" lon="9.3907666"><ele>211.0</ele><time>2026-05-04T07:22:32.057Z</time></trkpt><trkpt lat="46.1417733" lon="9.3908761"><ele>211.0</ele><time>2026-05-04T07:22:34.056Z</time></trkpt><trkpt lat="46.1417504" lon="9.3909995"><ele>210.99999999999997</ele><time>2026-05-04T07:22:36.057Z</time></trkpt><trkpt lat="46.1417276" lon="9.3911236"><ele>211.0</ele><time>2026-05-04T07:22:38.056Z</time></trkpt><trkpt lat="46.1417041" lon="9.3912347"><ele>211.16666666666666</ele><time>2026-05-04T07:22:40.056Z</time></trkpt><trkpt lat="46.1416855" lon="9.3914028"><ele>211.33333333333331</ele><time>2026-05-04T07:22:43.058Z</time></trkpt><trkpt lat="46.1416509" lon="9.3915107"><ele>211.5</ele><time>2026-05-04T07:22:45.056Z</time></trkpt><trkpt lat="46.1415923" lon="9.3915644"><ele>211.66666666666669</ele><time>2026-05-04T07:22:47.057Z</time></trkpt><trkpt lat="46.1415192" lon="9.3915986"><ele>211.83333333333334</ele><time>2026-05-04T07:22:49.057Z</time></trkpt><trkpt lat="46.1414407" lon="9.3916088"><ele>212.0</ele><time>2026-05-04T07:22:51.057Z</time></trkpt><trkpt lat="46.1413583" lon="9.3916174"><ele>212.2</ele><time>2026-05-04T07:22:53.057Z</time></trkpt><trkpt lat="46.1412691" lon="9.3916077"><ele>212.39999999999998</ele><time>2026-05-04T07:22:55.057Z</time></trkpt><trkpt lat="46.141171" lon="9.3916133"><ele>212.60000000000002</ele><time>2026-05-04T07:22:57.058Z</time></trkpt><trkpt lat="46.1410731" lon="9.3916032"><ele>212.8</ele><time>2026-05-04T07:22:59.056Z</time></trkpt><trkpt lat="46.1409858" lon="9.3915801"><ele>213.0</ele><time>2026-05-04T07:23:01.056Z</time></trkpt><trkpt lat="46.1409019" lon="9.3915368"><ele>213.0</ele><time>2026-05-04T07:23:03.056Z</time></trkpt><trkpt lat="46.1408151" lon="9.3914911"><ele>213.0</ele><time>2026-05-04T07:23:05.056Z</time></trkpt><trkpt lat="46.1407331" lon="9.3914495"><ele>213.0</ele><time>2026-05-04T07:23:07.056Z</time></trkpt><trkpt lat="46.1406422" lon="9.3914168"><ele>213.0</ele><time>2026-05-04T07:23:09.056Z</time></trkpt><trkpt lat="46.1405512" lon="9.391394"><ele>213.0</ele><time>2026-05-04T07:23:11.057Z</time></trkpt><trkpt lat="46.1404665" lon="9.3913675"><ele>214.0</ele><time>2026-05-04T07:23:13.057Z</time></trkpt><trkpt lat="46.1403842" lon="9.3913365"><ele>215.0</ele><time>2026-05-04T07:23:15.055Z</time></trkpt><trkpt lat="46.1403046" lon="9.3913222"><ele>216.0</ele><time>2026-05-04T07:23:17.056Z</time></trkpt><trkpt lat="46.1402247" lon="9.3913076"><ele>217.0</ele><time>2026-05-04T07:23:19.056Z</time></trkpt><trkpt lat="46.1401509" lon="9.3912779"><ele>218.0</ele><time>2026-05-04T07:23:21.057Z</time></trkpt><trkpt lat="46.1400744" lon="9.3912485"><ele>219.0</ele><time>2026-05-04T07:23:24.057Z</time></trkpt><trkpt lat="46.1400106" lon="9.3913087"><ele>218.6</ele><time>2026-05-04T07:23:52.057Z</time></trkpt><trkpt lat="46.140011" lon="9.3914463"><ele>218.2</ele><time>2026-05-04T07:23:55.057Z</time></trkpt><trkpt lat="46.1400156" lon="9.3915628"><ele>217.79999999999998</ele><time>2026-05-04T07:23:57.056Z</time></trkpt><trkpt lat="46.1400217" lon="9.3916945"><ele>217.39999999999998</ele><time>2026-05-04T07:23:59.056Z</time></trkpt><trkpt lat="46.1400237" lon="9.3918432"><ele>217.0</ele><time>2026-05-04T07:24:01.058Z</time></trkpt><trkpt lat="46.1400282" lon="9.3919836"><ele>217.0</ele><time>2026-05-04T07:24:03.057Z</time></trkpt><trkpt lat="46.1400296" lon="9.3921444"><ele>217.0</ele><time>2026-05-04T07:24:05.057Z</time></trkpt><trkpt lat="46.1400268" lon="9.3923142"><ele>217.0</ele><time>2026-05-04T07:24:07.058Z</time></trkpt><trkpt lat="46.140032" lon="9.3924821"><ele>217.0</ele><time>2026-05-04T07:24:09.057Z</time></trkpt><trkpt lat="46.1400357" lon="9.3926432"><ele>217.16666666666666</ele><time>2026-05-04T07:24:11.057Z</time></trkpt><trkpt lat="46.1400505" lon="9.3928134"><ele>217.33333333333331</ele><time>2026-05-04T07:24:13.056Z</time></trkpt><trkpt lat="46.1400477" lon="9.392905"><ele>217.5</ele><time>2026-05-04T07:24:14.057Z</time></trkpt><trkpt lat="46.1400449" lon="9.3929964"><ele>217.66666666666669</ele><time>2026-05-04T07:24:15.056Z</time></trkpt><trkpt lat="46.1400453" lon="9.3930901"><ele>217.83333333333334</ele><time>2026-05-04T07:24:16.056Z</time></trkpt><trkpt lat="46.1400635" lon="9.3932774"><ele>218.0</ele><time>2026-05-04T07:24:18.057Z</time></trkpt><trkpt lat="46.140066" lon="9.3933714"><ele>218.0</ele><time>2026-05-04T07:24:19.057Z</time></trkpt><trkpt lat="46.1400573" lon="9.3934673"><ele>218.0</ele><time>2026-05-04T07:24:20.056Z</time></trkpt><trkpt lat="46.1400146" lon="9.3936512"><ele>218.0</ele><time>2026-05-04T07:24:22.056Z</time></trkpt><trkpt lat="46.1399852" lon="9.3937404"><ele>218.0</ele><time>2026-05-04T07:24:23.057Z</time></trkpt><trkpt lat="46.1399553" lon="9.3938212"><ele>218.0</ele><time>2026-05-04T07:24:24.057Z</time></trkpt><trkpt lat="46.1399222" lon="9.3939979"><ele>218.00000000000003</ele><time>2026-05-04T07:24:26.057Z</time></trkpt><trkpt lat="46.1398951" lon="9.3941697"><ele>218.0</ele><time>2026-05-04T07:24:28.056Z</time></trkpt><trkpt lat="46.1398637" lon="9.3943275"><ele>218.0</ele><time>2026-05-04T07:24:30.057Z</time></trkpt><trkpt lat="46.139848" lon="9.3944171"><ele>218.0</ele><time>2026-05-04T07:24:31.056Z</time></trkpt><trkpt lat="46.1398296" lon="9.3945064"><ele>218.00000000000003</ele><time>2026-05-04T07:24:32.056Z</time></trkpt><trkpt lat="46.1398072" lon="9.3945975"><ele>218.0</ele><time>2026-05-04T07:24:33.056Z</time></trkpt><trkpt lat="46.1397751" lon="9.3947451"><ele>217.8</ele><time>2026-05-04T07:24:35.057Z</time></trkpt><trkpt lat="46.1397304" lon="9.3949027"><ele>217.60000000000002</ele><time>2026-05-04T07:24:37.057Z</time></trkpt><trkpt lat="46.1396957" lon="9.3950582"><ele>217.39999999999998</ele><time>2026-05-04T07:24:39.056Z</time></trkpt><trkpt lat="46.1396553" lon="9.3952352"><ele>217.2</ele><time>2026-05-04T07:24:41.057Z</time></trkpt><trkpt lat="46.1396328" lon="9.3953246"><ele>217.0</ele><time>2026-05-04T07:24:42.058Z</time></trkpt><trkpt lat="46.1396113" lon="9.3954125"><ele>216.99999999999997</ele><time>2026-05-04T07:24:43.057Z</time></trkpt><trkpt lat="46.1395898" lon="9.3954999"><ele>217.0</ele><time>2026-05-04T07:24:44.058Z</time></trkpt><trkpt lat="46.1395477" lon="9.3956671"><ele>217.0</ele><time>2026-05-04T07:24:46.056Z</time></trkpt><trkpt lat="46.1395273" lon="9.395755"><ele>217.0</ele><time>2026-05-04T07:24:47.058Z</time></trkpt><trkpt lat="46.1395036" lon="9.3958442"><ele>216.99999999999997</ele><time>2026-05-04T07:24:48.057Z</time></trkpt><trkpt lat="46.1394596" lon="9.3960033"><ele>217.0</ele><time>2026-05-04T07:24:50.057Z</time></trkpt><trkpt lat="46.1394167" lon="9.3961714"><ele>217.0</ele><time>2026-05-04T07:24:52.056Z</time></trkpt><trkpt lat="46.1393714" lon="9.3963353"><ele>217.0</ele><time>2026-05-04T07:24:54.058Z</time></trkpt><trkpt lat="46.1393325" lon="9.3964918"><ele>217.0</ele><time>2026-05-04T07:24:56.057Z</time></trkpt><trkpt lat="46.1392987" lon="9.3966531"><ele>217.0</ele><time>2026-05-04T07:24:58.058Z</time></trkpt><trkpt lat="46.1392574" lon="9.3968172"><ele>216.99999999999997</ele><time>2026-05-04T07:25:00.057Z</time></trkpt><trkpt lat="46.1392383" lon="9.3969044"><ele>217.0</ele><time>2026-05-04T07:25:01.056Z</time></trkpt><trkpt lat="46.1391908" lon="9.3970726"><ele>217.0</ele><time>2026-05-04T07:25:03.057Z</time></trkpt><trkpt lat="46.1391703" lon="9.3971602"><ele>217.0</ele><time>2026-05-04T07:25:04.057Z</time></trkpt><trkpt lat="46.1391517" lon="9.3972476"><ele>216.99999999999997</ele><time>2026-05-04T07:25:05.057Z</time></trkpt><trkpt lat="46.1391314" lon="9.3973429"><ele>217.0</ele><time>2026-05-04T07:25:06.056Z</time></trkpt><trkpt lat="46.1391013" lon="9.3974422"><ele>216.83333333333331</ele><time>2026-05-04T07:25:07.057Z</time></trkpt><trkpt lat="46.1390762" lon="9.3975306"><ele>216.66666666666666</ele><time>2026-05-04T07:25:08.056Z</time></trkpt><trkpt lat="46.1390556" lon="9.3976176"><ele>216.5</ele><time>2026-05-04T07:25:09.057Z</time></trkpt><trkpt lat="46.1390108" lon="9.3977874"><ele>216.33333333333331</ele><time>2026-05-04T07:25:11.057Z</time></trkpt><trkpt lat="46.1389867" lon="9.3978756"><ele>216.16666666666666</ele><time>2026-05-04T07:25:12.057Z</time></trkpt><trkpt lat="46.1389657" lon="9.397968"><ele>216.0</ele><time>2026-05-04T07:25:13.057Z</time></trkpt><trkpt lat="46.1389431" lon="9.3980625"><ele>216.33333333333334</ele><time>2026-05-04T07:25:14.058Z</time></trkpt><trkpt lat="46.1389189" lon="9.3981558"><ele>216.66666666666669</ele><time>2026-05-04T07:25:15.056Z</time></trkpt><trkpt lat="46.1388992" lon="9.3982434"><ele>217.0</ele><time>2026-05-04T07:25:16.057Z</time></trkpt><trkpt lat="46.1388767" lon="9.3983305"><ele>217.33333333333334</ele><time>2026-05-04T07:25:17.057Z</time></trkpt><trkpt lat="46.1388556" lon="9.3984167"><ele>217.66666666666669</ele><time>2026-05-04T07:25:18.057Z</time></trkpt><trkpt lat="46.138817" lon="9.3985865"><ele>218.0</ele><time>2026-05-04T07:25:20.058Z</time></trkpt><trkpt lat="46.1387883" lon="9.3986762"><ele>218.0</ele><time>2026-05-04T07:25:21.056Z</time></trkpt><trkpt lat="46.1387627" lon="9.3987687"><ele>218.0</ele><time>2026-05-04T07:25:22.056Z</time></trkpt><trkpt lat="46.1387365" lon="9.3988641"><ele>218.0</ele><time>2026-05-04T07:25:23.058Z</time></trkpt><trkpt lat="46.1387119" lon="9.3989583"><ele>218.0</ele><time>2026-05-04T07:25:24.057Z</time></trkpt><trkpt lat="46.1386901" lon="9.3990509"><ele>218.0</ele><time>2026-05-04T07:25:25.056Z</time></trkpt><trkpt lat="46.1386666" lon="9.3991434"><ele>218.0</ele><time>2026-05-04T07:25:26.057Z</time></trkpt><trkpt lat="46.1386427" lon="9.399238"><ele>218.0</ele><time>2026-05-04T07:25:27.057Z</time></trkpt><trkpt lat="46.1386212" lon="9.3993335"><ele>217.85714285714286</ele><time>2026-05-04T07:25:28.056Z</time></trkpt><trkpt lat="46.1386009" lon="9.3994229"><ele>217.71428571428572</ele><time>2026-05-04T07:25:29.057Z</time></trkpt><trkpt lat="46.1385807" lon="9.3995139"><ele>217.57142857142856</ele><time>2026-05-04T07:25:30.058Z</time></trkpt><trkpt lat="46.1385552" lon="9.3996078"><ele>217.42857142857144</ele><time>2026-05-04T07:25:31.058Z</time></trkpt><trkpt lat="46.1385295" lon="9.3997031"><ele>217.28571428571428</ele><time>2026-05-04T07:25:32.057Z</time></trkpt><trkpt lat="46.1385025" lon="9.399808"><ele>217.14285714285714</ele><time>2026-05-04T07:25:33.057Z</time></trkpt><trkpt lat="46.1384775" lon="9.3999069"><ele>217.0</ele><time>2026-05-04T07:25:34.058Z</time></trkpt><trkpt lat="46.1384525" lon="9.4000081"><ele>216.57142857142858</ele><time>2026-05-04T07:25:35.057Z</time></trkpt><trkpt lat="46.1384245" lon="9.4001081"><ele>216.14285714285714</ele><time>2026-05-04T07:25:36.057Z</time></trkpt><trkpt lat="46.1383989" lon="9.4002092"><ele>215.71428571428572</ele><time>2026-05-04T07:25:37.059Z</time></trkpt><trkpt lat="46.1383741" lon="9.400315"><ele>215.28571428571428</ele><time>2026-05-04T07:25:38.057Z</time></trkpt><trkpt lat="46.1383502" lon="9.4004099"><ele>214.85714285714286</ele><time>2026-05-04T07:25:39.058Z</time></trkpt><trkpt lat="46.1383196" lon="9.4005061"><ele>214.42857142857144</ele><time>2026-05-04T07:25:40.057Z</time></trkpt><trkpt lat="46.1382922" lon="9.4006057"><ele>214.0</ele><time>2026-05-04T07:25:41.057Z</time></trkpt><trkpt lat="46.1382658" lon="9.4007111"><ele>213.71428571428572</ele><time>2026-05-04T07:25:42.056Z</time></trkpt><trkpt lat="46.1382373" lon="9.4008146"><ele>213.42857142857144</ele><time>2026-05-04T07:25:43.057Z</time></trkpt><trkpt lat="46.1382117" lon="9.4009189"><ele>213.14285714285717</ele><time>2026-05-04T07:25:44.057Z</time></trkpt><trkpt lat="46.1381866" lon="9.401021"><ele>212.85714285714286</ele><time>2026-05-04T07:25:45.058Z</time></trkpt><trkpt lat="46.1381636" lon="9.4011221"><ele>212.57142857142856</ele><time>2026-05-04T07:25:46.057Z</time></trkpt><trkpt lat="46.1381361" lon="9.4012196"><ele>212.2857142857143</ele><time>2026-05-04T07:25:47.058Z</time></trkpt><trkpt lat="46.1381136" lon="9.4013205"><ele>212.0</ele><time>2026-05-04T07:25:48.057Z</time></trkpt><trkpt lat="46.1380902" lon="9.4014169"><ele>212.66666666666669</ele><time>2026-05-04T07:25:49.057Z</time></trkpt><trkpt lat="46.1380685" lon="9.4015132"><ele>213.33333333333334</ele><time>2026-05-04T07:25:50.058Z</time></trkpt><trkpt lat="46.1380291" lon="9.401696"><ele>214.0</ele><time>2026-05-04T07:25:52.058Z</time></trkpt><trkpt lat="46.1379998" lon="9.4017991"><ele>214.66666666666669</ele><time>2026-05-04T07:25:53.057Z</time></trkpt><trkpt lat="46.1379727" lon="9.4018941"><ele>215.33333333333334</ele><time>2026-05-04T07:25:54.057Z</time></trkpt><trkpt lat="46.1379391" lon="9.4019845"><ele>216.0</ele><time>2026-05-04T07:25:55.057Z</time></trkpt><trkpt lat="46.1379156" lon="9.402077"><ele>215.83333333333334</ele><time>2026-05-04T07:25:56.058Z</time></trkpt><trkpt lat="46.1379009" lon="9.4021706"><ele>215.66666666666669</ele><time>2026-05-04T07:25:57.058Z</time></trkpt><trkpt lat="46.1378756" lon="9.4022652"><ele>215.5</ele><time>2026-05-04T07:25:58.058Z</time></trkpt><trkpt lat="46.1378591" lon="9.4023727"><ele>215.33333333333334</ele><time>2026-05-04T07:25:59.056Z</time></trkpt><trkpt lat="46.1378376" lon="9.402463"><ele>215.16666666666669</ele><time>2026-05-04T07:26:00.056Z</time></trkpt><trkpt lat="46.137814" lon="9.4025568"><ele>215.0</ele><time>2026-05-04T07:26:01.056Z</time></trkpt><trkpt lat="46.1377683" lon="9.4027416"><ele>215.00000000000003</ele><time>2026-05-04T07:26:03.057Z</time></trkpt><trkpt lat="46.1377378" lon="9.4028318"><ele>215.0</ele><time>2026-05-04T07:26:04.057Z</time></trkpt><trkpt lat="46.1377158" lon="9.4029362"><ele>215.0</ele><time>2026-05-04T07:26:05.057Z</time></trkpt><trkpt lat="46.1376869" lon="9.4030286"><ele>215.0</ele><time>2026-05-04T07:26:06.058Z</time></trkpt><trkpt lat="46.1376575" lon="9.4031355"><ele>215.00000000000003</ele><time>2026-05-04T07:26:07.058Z</time></trkpt><trkpt lat="46.137628" lon="9.4032534"><ele>215.0</ele><time>2026-05-04T07:26:08.058Z</time></trkpt><trkpt lat="46.1376044" lon="9.4033672"><ele>214.66666666666669</ele><time>2026-05-04T07:26:09.056Z</time></trkpt><trkpt lat="46.1375798" lon="9.4034733"><ele>214.33333333333334</ele><time>2026-05-04T07:26:10.057Z</time></trkpt><trkpt lat="46.137554" lon="9.4035749"><ele>214.0</ele><time>2026-05-04T07:26:11.056Z</time></trkpt><trkpt lat="46.137531" lon="9.4036751"><ele>213.66666666666669</ele><time>2026-05-04T07:26:12.056Z</time></trkpt><trkpt lat="46.1374999" lon="9.4037766"><ele>213.33333333333334</ele><time>2026-05-04T07:26:13.057Z</time></trkpt><trkpt lat="46.1374704" lon="9.4038752"><ele>213.0</ele><time>2026-05-04T07:26:14.058Z</time></trkpt><trkpt lat="46.1374428" lon="9.4039784"><ele>212.99999999999997</ele><time>2026-05-04T07:26:15.057Z</time></trkpt><trkpt lat="46.1374159" lon="9.4040778"><ele>213.0</ele><time>2026-05-04T07:26:16.056Z</time></trkpt><trkpt lat="46.1373906" lon="9.4041707"><ele>213.0</ele><time>2026-05-04T07:26:17.056Z</time></trkpt><trkpt lat="46.1373601" lon="9.4042659"><ele>213.0</ele><time>2026-05-04T07:26:18.056Z</time></trkpt><trkpt lat="46.1373421" lon="9.4043587"><ele>213.0</ele><time>2026-05-04T07:26:19.058Z</time></trkpt><trkpt lat="46.1373222" lon="9.4044496"><ele>212.99999999999997</ele><time>2026-05-04T07:26:20.057Z</time></trkpt><trkpt lat="46.1372934" lon="9.4045738"><ele>213.0</ele><time>2026-05-04T07:26:22.057Z</time></trkpt><trkpt lat="46.1372661" lon="9.4046833"><ele>213.0</ele><time>2026-05-04T07:26:24.058Z</time></trkpt><trkpt lat="46.1372447" lon="9.4047705"><ele>213.0</ele><time>2026-05-04T07:26:26.058Z</time></trkpt><trkpt lat="46.137213" lon="9.4048739"><ele>213.0</ele><time>2026-05-04T07:26:29.056Z</time></trkpt><trkpt lat="46.1371978" lon="9.4049876"><ele>213.0</ele><time>2026-05-04T07:26:31.058Z</time></trkpt><trkpt lat="46.137177" lon="9.405113"><ele>213.0</ele><time>2026-05-04T07:26:33.059Z</time></trkpt><trkpt lat="46.1371391" lon="9.4052499"><ele>213.0</ele><time>2026-05-04T07:26:35.059Z</time></trkpt><trkpt lat="46.1371021" lon="9.4054133"><ele>212.83333333333334</ele><time>2026-05-04T07:26:37.058Z</time></trkpt><trkpt lat="46.1370819" lon="9.4055013"><ele>212.66666666666669</ele><time>2026-05-04T07:26:38.057Z</time></trkpt><trkpt lat="46.1370578" lon="9.4055889"><ele>212.5</ele><time>2026-05-04T07:26:39.056Z</time></trkpt><trkpt lat="46.1370203" lon="9.405757"><ele>212.33333333333334</ele><time>2026-05-04T07:26:41.058Z</time></trkpt><trkpt lat="46.1370016" lon="9.4058584"><ele>212.16666666666669</ele><time>2026-05-04T07:26:42.057Z</time></trkpt><trkpt lat="46.1369783" lon="9.4059528"><ele>212.0</ele><time>2026-05-04T07:26:43.057Z</time></trkpt><trkpt lat="46.1369484" lon="9.4060503"><ele>212.00000000000003</ele><time>2026-05-04T07:26:44.058Z</time></trkpt><trkpt lat="46.1369243" lon="9.4061438"><ele>212.0</ele><time>2026-05-04T07:26:45.056Z</time></trkpt><trkpt lat="46.1368883" lon="9.4062603"><ele>212.0</ele><time>2026-05-04T07:26:46.056Z</time></trkpt><trkpt lat="46.1368638" lon="9.4063623"><ele>212.0</ele><time>2026-05-04T07:26:47.056Z</time></trkpt><trkpt lat="46.1368433" lon="9.4064622"><ele>212.00000000000003</ele><time>2026-05-04T07:26:48.056Z</time></trkpt><trkpt lat="46.1368224" lon="9.4065659"><ele>212.0</ele><time>2026-05-04T07:26:49.057Z</time></trkpt><trkpt lat="46.1367995" lon="9.4066652"><ele>212.00000000000003</ele><time>2026-05-04T07:26:50.057Z</time></trkpt><trkpt lat="46.1367721" lon="9.4067739"><ele>212.0</ele><time>2026-05-04T07:26:51.057Z</time></trkpt><trkpt lat="46.1367455" lon="9.4068772"><ele>212.0</ele><time>2026-05-04T07:26:52.058Z</time></trkpt><trkpt lat="46.1367214" lon="9.4069816"><ele>212.0</ele><time>2026-05-04T07:26:53.057Z</time></trkpt><trkpt lat="46.1366801" lon="9.407152"><ele>212.00000000000003</ele><time>2026-05-04T07:26:55.056Z</time></trkpt><trkpt lat="46.1366492" lon="9.4072634"><ele>212.0</ele><time>2026-05-04T07:26:56.058Z</time></trkpt><trkpt lat="46.1366154" lon="9.407368"><ele>211.66666666666669</ele><time>2026-05-04T07:26:57.056Z</time></trkpt><trkpt lat="46.1365818" lon="9.4074717"><ele>211.33333333333334</ele><time>2026-05-04T07:26:58.058Z</time></trkpt><trkpt lat="46.1365548" lon="9.407583"><ele>211.0</ele><time>2026-05-04T07:26:59.058Z</time></trkpt><trkpt lat="46.1365238" lon="9.4076928"><ele>210.66666666666669</ele><time>2026-05-04T07:27:00.056Z</time></trkpt><trkpt lat="46.1364955" lon="9.4078048"><ele>210.33333333333334</ele><time>2026-05-04T07:27:01.057Z</time></trkpt><trkpt lat="46.1364686" lon="9.4079102"><ele>210.0</ele><time>2026-05-04T07:27:02.056Z</time></trkpt><trkpt lat="46.1364411" lon="9.4080142"><ele>210.0</ele><time>2026-05-04T07:27:03.057Z</time></trkpt><trkpt lat="46.1364116" lon="9.4081235"><ele>210.0</ele><time>2026-05-04T07:27:04.057Z</time></trkpt><trkpt lat="46.1363786" lon="9.4082431"><ele>210.0</ele><time>2026-05-04T07:27:05.056Z</time></trkpt><trkpt lat="46.1363451" lon="9.408369"><ele>210.0</ele><time>2026-05-04T07:27:06.057Z</time></trkpt><trkpt lat="46.1363119" lon="9.4084842"><ele>210.0</ele><time>2026-05-04T07:27:07.057Z</time></trkpt><trkpt lat="46.136284" lon="9.4085902"><ele>210.0</ele><time>2026-05-04T07:27:08.056Z</time></trkpt><trkpt lat="46.1362561" lon="9.4087036"><ele>210.0</ele><time>2026-05-04T07:27:09.059Z</time></trkpt><trkpt lat="46.1362324" lon="9.4088218"><ele>210.0</ele><time>2026-05-04T07:27:10.058Z</time></trkpt><trkpt lat="46.1362213" lon="9.4089346"><ele>210.0</ele><time>2026-05-04T07:27:11.057Z</time></trkpt><trkpt lat="46.1362127" lon="9.4090439"><ele>210.0</ele><time>2026-05-04T07:27:12.058Z</time></trkpt><trkpt lat="46.1362111" lon="9.4091566"><ele>210.0</ele><time>2026-05-04T07:27:13.057Z</time></trkpt><trkpt lat="46.1362098" lon="9.4092743"><ele>210.0</ele><time>2026-05-04T07:27:14.058Z</time></trkpt><trkpt lat="46.1362167" lon="9.4093836"><ele>210.16666666666666</ele><time>2026-05-04T07:27:15.058Z</time></trkpt><trkpt lat="46.1362303" lon="9.4094903"><ele>210.33333333333331</ele><time>2026-05-04T07:27:16.057Z</time></trkpt><trkpt lat="46.1362509" lon="9.4096883"><ele>210.5</ele><time>2026-05-04T07:27:18.057Z</time></trkpt><trkpt lat="46.1362667" lon="9.4097894"><ele>210.66666666666666</ele><time>2026-05-04T07:27:19.057Z</time></trkpt><trkpt lat="46.1362771" lon="9.4098885"><ele>210.83333333333331</ele><time>2026-05-04T07:27:20.059Z</time></trkpt><trkpt lat="46.1362877" lon="9.409993"><ele>211.0</ele><time>2026-05-04T07:27:21.057Z</time></trkpt><trkpt lat="46.1362988" lon="9.4100987"><ele>212.0</ele><time>2026-05-04T07:27:22.058Z</time></trkpt><trkpt lat="46.1363116" lon="9.4102025"><ele>213.0</ele><time>2026-05-04T07:27:23.059Z</time></trkpt><trkpt lat="46.1363286" lon="9.4102988"><ele>214.0</ele><time>2026-05-04T07:27:24.057Z</time></trkpt><trkpt lat="46.1363433" lon="9.4104019"><ele>215.0</ele><time>2026-05-04T07:27:25.057Z</time></trkpt><trkpt lat="46.1363601" lon="9.4105001"><ele>216.0</ele><time>2026-05-04T07:27:26.057Z</time></trkpt><trkpt lat="46.1363828" lon="9.4105983"><ele>217.0</ele><time>2026-05-04T07:27:27.056Z</time></trkpt><trkpt lat="46.1364026" lon="9.4106961"><ele>218.0</ele><time>2026-05-04T07:27:28.058Z</time></trkpt><trkpt lat="46.1364269" lon="9.4108031"><ele>218.4</ele><time>2026-05-04T07:27:29.058Z</time></trkpt><trkpt lat="46.1364549" lon="9.410899"><ele>218.8</ele><time>2026-05-04T07:27:30.057Z</time></trkpt><trkpt lat="46.1364923" lon="9.4110726"><ele>219.2</ele><time>2026-05-04T07:27:32.057Z</time></trkpt><trkpt lat="46.1365166" lon="9.4112392"><ele>219.6</ele><time>2026-05-04T07:27:34.058Z</time></trkpt><trkpt lat="46.1365503" lon="9.4114118"><ele>220.0</ele><time>2026-05-04T07:27:36.056Z</time></trkpt><trkpt lat="46.1365765" lon="9.4115813"><ele>219.16666666666666</ele><time>2026-05-04T07:27:38.058Z</time></trkpt><trkpt lat="46.1365922" lon="9.4116739"><ele>218.33333333333331</ele><time>2026-05-04T07:27:39.058Z</time></trkpt><trkpt lat="46.1366097" lon="9.4117677"><ele>217.5</ele><time>2026-05-04T07:27:40.057Z</time></trkpt><trkpt lat="46.1366277" lon="9.4118635"><ele>216.66666666666669</ele><time>2026-05-04T07:27:41.057Z</time></trkpt><trkpt lat="46.136659" lon="9.4120606"><ele>215.83333333333334</ele><time>2026-05-04T07:27:43.058Z</time></trkpt><trkpt lat="46.1366733" lon="9.4121629"><ele>215.0</ele><time>2026-05-04T07:27:44.057Z</time></trkpt><trkpt lat="46.1366912" lon="9.4122603"><ele>215.00000000000003</ele><time>2026-05-04T07:27:45.057Z</time></trkpt><trkpt lat="46.1367099" lon="9.4123784"><ele>215.0</ele><time>2026-05-04T07:27:46.057Z</time></trkpt><trkpt lat="46.1367263" lon="9.4124828"><ele>215.0</ele><time>2026-05-04T07:27:47.058Z</time></trkpt><trkpt lat="46.1367443" lon="9.4125948"><ele>215.0</ele><time>2026-05-04T07:27:48.057Z</time></trkpt><trkpt lat="46.1367682" lon="9.412687"><ele>215.00000000000003</ele><time>2026-05-04T07:27:49.056Z</time></trkpt><trkpt lat="46.1367863" lon="9.4127923"><ele>215.0</ele><time>2026-05-04T07:27:50.058Z</time></trkpt><trkpt lat="46.1368059" lon="9.4128884"><ele>216.50000000000003</ele><time>2026-05-04T07:27:51.057Z</time></trkpt><trkpt lat="46.1368224" lon="9.4129918"><ele>218.0</ele><time>2026-05-04T07:27:52.056Z</time></trkpt><trkpt lat="46.1368438" lon="9.4130901"><ele>219.5</ele><time>2026-05-04T07:27:53.058Z</time></trkpt><trkpt lat="46.1368498" lon="9.4131828"><ele>221.0</ele><time>2026-05-04T07:27:54.059Z</time></trkpt><trkpt lat="46.1368592" lon="9.4132736"><ele>222.50000000000003</ele><time>2026-05-04T07:27:55.058Z</time></trkpt><trkpt lat="46.1369109" lon="9.4134425"><ele>224.0</ele><time>2026-05-04T07:27:57.057Z</time></trkpt><trkpt lat="46.1370132" lon="9.4135179"><ele>224.0</ele><time>2026-05-04T07:27:59.057Z</time></trkpt><trkpt lat="46.1371385" lon="9.4134599"><ele>223.99999999999997</ele><time>2026-05-04T07:28:01.059Z</time></trkpt><trkpt lat="46.1372067" lon="9.4134217"><ele>223.99999999999997</ele><time>2026-05-04T07:28:02.057Z</time></trkpt><trkpt lat="46.137335" lon="9.4133779"><ele>224.0</ele><time>2026-05-04T07:28:04.059Z</time></trkpt><trkpt lat="46.1374113" lon="9.4133918"><ele>224.0</ele><time>2026-05-04T07:28:05.057Z</time></trkpt><trkpt lat="46.1374633" lon="9.4134453"><ele>220.71428571428572</ele><time>2026-05-04T07:28:06.057Z</time></trkpt><trkpt lat="46.1375026" lon="9.4135256"><ele>217.42857142857144</ele><time>2026-05-04T07:28:07.058Z</time></trkpt><trkpt lat="46.1375448" lon="9.4136122"><ele>214.14285714285714</ele><time>2026-05-04T07:28:08.057Z</time></trkpt><trkpt lat="46.1375814" lon="9.4137024"><ele>210.85714285714286</ele><time>2026-05-04T07:28:09.058Z</time></trkpt><trkpt lat="46.1376274" lon="9.4137867"><ele>207.57142857142858</ele><time>2026-05-04T07:28:10.057Z</time></trkpt><trkpt lat="46.1376934" lon="9.4138567"><ele>204.28571428571428</ele><time>2026-05-04T07:28:11.058Z</time></trkpt><trkpt lat="46.1377616" lon="9.4138973"><ele>201.0</ele><time>2026-05-04T07:28:12.058Z</time></trkpt><trkpt lat="46.137836" lon="9.4139177"><ele>201.0</ele><time>2026-05-04T07:28:13.057Z</time></trkpt><trkpt lat="46.1379061" lon="9.4139126"><ele>201.0</ele><time>2026-05-04T07:28:14.057Z</time></trkpt><trkpt lat="46.1379902" lon="9.4138998"><ele>201.0</ele><time>2026-05-04T07:28:15.057Z</time></trkpt><trkpt lat="46.1380629" lon="9.4138856"><ele>201.0</ele><time>2026-05-04T07:28:16.056Z</time></trkpt><trkpt lat="46.1381371" lon="9.4138649"><ele>201.0</ele><time>2026-05-04T07:28:17.057Z</time></trkpt><trkpt lat="46.1382143" lon="9.4138477"><ele>201.0</ele><time>2026-05-04T07:28:18.058Z</time></trkpt><trkpt lat="46.1382848" lon="9.4138232"><ele>200.83333333333334</ele><time>2026-05-04T07:28:19.059Z</time></trkpt><trkpt lat="46.1383575" lon="9.4137963"><ele>200.66666666666669</ele><time>2026-05-04T07:28:20.057Z</time></trkpt><trkpt lat="46.1384345" lon="9.4137753"><ele>200.5</ele><time>2026-05-04T07:28:21.057Z</time></trkpt><trkpt lat="46.1385147" lon="9.4137737"><ele>200.33333333333334</ele><time>2026-05-04T07:28:22.056Z</time></trkpt><trkpt lat="46.1385926" lon="9.4137622"><ele>200.16666666666669</ele><time>2026-05-04T07:28:23.056Z</time></trkpt><trkpt lat="46.1386634" lon="9.4137404"><ele>200.0</ele><time>2026-05-04T07:28:24.058Z</time></trkpt><trkpt lat="46.1387284" lon="9.4137236"><ele>200.00000000000003</ele><time>2026-05-04T07:28:25.056Z</time></trkpt><trkpt lat="46.1388021" lon="9.4137111"><ele>200.0</ele><time>2026-05-04T07:28:26.057Z</time></trkpt><trkpt lat="46.1388654" lon="9.4136977"><ele>200.0</ele><time>2026-05-04T07:28:27.058Z</time></trkpt><trkpt lat="46.1389359" lon="9.4136793"><ele>200.0</ele><time>2026-05-04T07:28:28.058Z</time></trkpt><trkpt lat="46.139051" lon="9.4136339"><ele>200.00000000000003</ele><time>2026-05-04T07:28:30.057Z</time></trkpt><trkpt lat="46.1391154" lon="9.4136149"><ele>200.0</ele><time>2026-05-04T07:28:31.057Z</time></trkpt><trkpt lat="46.1391856" lon="9.4135919"><ele>199.83333333333334</ele><time>2026-05-04T07:28:32.057Z</time></trkpt><trkpt lat="46.1392516" lon="9.4135809"><ele>199.66666666666669</ele><time>2026-05-04T07:28:33.059Z</time></trkpt><trkpt lat="46.1393784" lon="9.4135558"><ele>199.5</ele><time>2026-05-04T07:28:35.057Z</time></trkpt><trkpt lat="46.1394491" lon="9.4135375"><ele>199.33333333333331</ele><time>2026-05-04T07:28:36.058Z</time></trkpt><trkpt lat="46.1395273" lon="9.4135166"><ele>199.16666666666666</ele><time>2026-05-04T07:28:37.058Z</time></trkpt><trkpt lat="46.1395961" lon="9.4135135"><ele>199.0</ele><time>2026-05-04T07:28:38.058Z</time></trkpt><trkpt lat="46.1396634" lon="9.4135027"><ele>198.99999999999997</ele><time>2026-05-04T07:28:39.058Z</time></trkpt><trkpt lat="46.1397321" lon="9.4134827"><ele>199.0</ele><time>2026-05-04T07:28:40.058Z</time></trkpt><trkpt lat="46.1398529" lon="9.4134965"><ele>199.0</ele><time>2026-05-04T07:28:42.057Z</time></trkpt><trkpt lat="46.1399108" lon="9.4135381"><ele>199.0</ele><time>2026-05-04T07:28:43.058Z</time></trkpt><trkpt lat="46.1400069" lon="9.4136392"><ele>198.99999999999997</ele><time>2026-05-04T07:28:45.059Z</time></trkpt><trkpt lat="46.1400646" lon="9.4136911"><ele>199.0</ele><time>2026-05-04T07:28:46.057Z</time></trkpt><trkpt lat="46.1401268" lon="9.413741"><ele>198.83333333333331</ele><time>2026-05-04T07:28:47.057Z</time></trkpt><trkpt lat="46.1401854" lon="9.4137877"><ele>198.66666666666666</ele><time>2026-05-04T07:28:48.057Z</time></trkpt><trkpt lat="46.1402523" lon="9.4138288"><ele>198.5</ele><time>2026-05-04T07:28:49.059Z</time></trkpt><trkpt lat="46.1403137" lon="9.4138762"><ele>198.33333333333331</ele><time>2026-05-04T07:28:50.058Z</time></trkpt><trkpt lat="46.1404233" lon="9.4139773"><ele>198.16666666666666</ele><time>2026-05-04T07:28:52.058Z</time></trkpt><trkpt lat="46.1404795" lon="9.4140208"><ele>198.0</ele><time>2026-05-04T07:28:53.058Z</time></trkpt><trkpt lat="46.1405733" lon="9.4141027"><ele>198.2</ele><time>2026-05-04T07:28:55.057Z</time></trkpt><trkpt lat="46.1406702" lon="9.4141827"><ele>198.4</ele><time>2026-05-04T07:28:57.058Z</time></trkpt><trkpt lat="46.1406841" lon="9.4143167"><ele>198.6</ele><time>2026-05-04T07:28:59.057Z</time></trkpt><trkpt lat="46.1406276" lon="9.4144433"><ele>198.79999999999998</ele><time>2026-05-04T07:29:01.057Z</time></trkpt><trkpt lat="46.1405683" lon="9.4145709"><ele>199.0</ele><time>2026-05-04T07:29:03.056Z</time></trkpt><trkpt lat="46.1405082" lon="9.41471"><ele>199.0</ele><time>2026-05-04T07:29:05.058Z</time></trkpt><trkpt lat="46.1404763" lon="9.4147888"><ele>199.0</ele><time>2026-05-04T07:29:06.058Z</time></trkpt><trkpt lat="46.1404189" lon="9.4149462"><ele>199.0</ele><time>2026-05-04T07:29:08.056Z</time></trkpt><trkpt lat="46.1403478" lon="9.4151079"><ele>199.0</ele><time>2026-05-04T07:29:10.057Z</time></trkpt><trkpt lat="46.1402874" lon="9.4152619"><ele>199.0</ele><time>2026-05-04T07:29:12.058Z</time></trkpt><trkpt lat="46.140252" lon="9.4153416"><ele>199.16666666666666</ele><time>2026-05-04T07:29:13.058Z</time></trkpt><trkpt lat="46.1401877" lon="9.4154969"><ele>199.33333333333331</ele><time>2026-05-04T07:29:15.057Z</time></trkpt><trkpt lat="46.1401556" lon="9.4155809"><ele>199.5</ele><time>2026-05-04T07:29:16.057Z</time></trkpt><trkpt lat="46.1401278" lon="9.4156632"><ele>199.66666666666669</ele><time>2026-05-04T07:29:17.058Z</time></trkpt><trkpt lat="46.1400678" lon="9.4158025"><ele>199.83333333333334</ele><time>2026-05-04T07:29:19.058Z</time></trkpt><trkpt lat="46.1400312" lon="9.4158824"><ele>200.0</ele><time>2026-05-04T07:29:20.056Z</time></trkpt><trkpt lat="46.139993" lon="9.4159668"><ele>200.0</ele><time>2026-05-04T07:29:21.058Z</time></trkpt><trkpt lat="46.1399352" lon="9.4161262"><ele>200.0</ele><time>2026-05-04T07:29:23.058Z</time></trkpt><trkpt lat="46.1398704" lon="9.416279"><ele>200.0</ele><time>2026-05-04T07:29:25.057Z</time></trkpt><trkpt lat="46.1398052" lon="9.4164224"><ele>200.0</ele><time>2026-05-04T07:29:27.058Z</time></trkpt><trkpt lat="46.1397582" lon="9.4165762"><ele>200.6</ele><time>2026-05-04T07:29:29.058Z</time></trkpt><trkpt lat="46.1397153" lon="9.4166949"><ele>201.2</ele><time>2026-05-04T07:29:31.057Z</time></trkpt><trkpt lat="46.1396489" lon="9.4168145"><ele>201.8</ele><time>2026-05-04T07:29:33.058Z</time></trkpt><trkpt lat="46.1396012" lon="9.4169493"><ele>202.4</ele><time>2026-05-04T07:29:35.057Z</time></trkpt><trkpt lat="46.1395506" lon="9.417093"><ele>203.0</ele><time>2026-05-04T07:29:37.058Z</time></trkpt><trkpt lat="46.1395159" lon="9.4171708"><ele>203.2</ele><time>2026-05-04T07:29:38.058Z</time></trkpt><trkpt lat="46.1394636" lon="9.4173232"><ele>203.4</ele><time>2026-05-04T07:29:40.057Z</time></trkpt><trkpt lat="46.1394033" lon="9.4174749"><ele>203.6</ele><time>2026-05-04T07:29:42.057Z</time></trkpt><trkpt lat="46.1393538" lon="9.4176064"><ele>203.79999999999998</ele><time>2026-05-04T07:29:44.057Z</time></trkpt><trkpt lat="46.1393636" lon="9.4177392"><ele>204.0</ele><time>2026-05-04T07:29:46.058Z</time></trkpt><trkpt lat="46.1394494" lon="9.4178168"><ele>204.0</ele><time>2026-05-04T07:29:48.058Z</time></trkpt><trkpt lat="46.1395545" lon="9.4178222"><ele>204.0</ele><time>2026-05-04T07:29:50.058Z</time></trkpt><trkpt lat="46.1396669" lon="9.4178221"><ele>204.0</ele><time>2026-05-04T07:29:52.058Z</time></trkpt><trkpt lat="46.1397749" lon="9.4178431"><ele>204.0</ele><time>2026-05-04T07:29:54.056Z</time></trkpt><trkpt lat="46.1398904" lon="9.4179074"><ele>204.0</ele><time>2026-05-04T07:29:56.058Z</time></trkpt><trkpt lat="46.1399579" lon="9.4179487"><ele>204.0</ele><time>2026-05-04T07:29:57.058Z</time></trkpt><trkpt lat="46.1400159" lon="9.417985"><ele>204.0</ele><time>2026-05-04T07:29:58.058Z</time></trkpt><trkpt lat="46.1400785" lon="9.418013"><ele>204.0</ele><time>2026-05-04T07:29:59.058Z</time></trkpt><trkpt lat="46.1401446" lon="9.4180182"><ele>204.0</ele><time>2026-05-04T07:30:00.057Z</time></trkpt><trkpt lat="46.1402115" lon="9.4180257"><ele>204.0</ele><time>2026-05-04T07:30:01.057Z</time></trkpt><trkpt lat="46.1402869" lon="9.4180364"><ele>204.0</ele><time>2026-05-04T07:30:02.058Z</time></trkpt><trkpt lat="46.1403564" lon="9.4180399"><ele>204.0</ele><time>2026-05-04T07:30:03.059Z</time></trkpt><trkpt lat="46.1404208" lon="9.4180305"><ele>204.0</ele><time>2026-05-04T07:30:04.058Z</time></trkpt><trkpt lat="46.1404878" lon="9.4180233"><ele>204.0</ele><time>2026-05-04T07:30:05.059Z</time></trkpt><trkpt lat="46.1405545" lon="9.4180124"><ele>204.0</ele><time>2026-05-04T07:30:06.057Z</time></trkpt><trkpt lat="46.1406788" lon="9.4180029"><ele>204.0</ele><time>2026-05-04T07:30:08.057Z</time></trkpt><trkpt lat="46.1407525" lon="9.4179954"><ele>204.0</ele><time>2026-05-04T07:30:09.059Z</time></trkpt><trkpt lat="46.1408261" lon="9.4179931"><ele>204.16666666666666</ele><time>2026-05-04T07:30:10.059Z</time></trkpt><trkpt lat="46.1408908" lon="9.4179948"><ele>204.33333333333331</ele><time>2026-05-04T07:30:11.058Z</time></trkpt><trkpt lat="46.1409572" lon="9.4179875"><ele>204.5</ele><time>2026-05-04T07:30:12.057Z</time></trkpt><trkpt lat="46.1410213" lon="9.4179825"><ele>204.66666666666666</ele><time>2026-05-04T07:30:13.058Z</time></trkpt><trkpt lat="46.141144" lon="9.4179752"><ele>204.83333333333331</ele><time>2026-05-04T07:30:15.059Z</time></trkpt><trkpt lat="46.1412086" lon="9.4179714"><ele>205.0</ele><time>2026-05-04T07:30:16.058Z</time></trkpt><trkpt lat="46.1413302" lon="9.4179572"><ele>205.33333333333331</ele><time>2026-05-04T07:30:18.057Z</time></trkpt><trkpt lat="46.1413963" lon="9.417947"><ele>205.66666666666666</ele><time>2026-05-04T07:30:19.058Z</time></trkpt><trkpt lat="46.1415141" lon="9.4179342"><ele>206.0</ele><time>2026-05-04T07:30:21.058Z</time></trkpt><trkpt lat="46.1415772" lon="9.4179284"><ele>206.33333333333331</ele><time>2026-05-04T07:30:23.059Z</time></trkpt><trkpt lat="46.1416436" lon="9.4180176"><ele>206.66666666666666</ele><time>2026-05-04T07:30:27.058Z</time></trkpt><trkpt lat="46.1416978" lon="9.4180799"><ele>207.0</ele><time>2026-05-04T07:30:29.057Z</time></trkpt><trkpt lat="46.1417691" lon="9.418119"><ele>206.2</ele><time>2026-05-04T07:30:31.058Z</time></trkpt><trkpt lat="46.1418528" lon="9.4181244"><ele>205.39999999999998</ele><time>2026-05-04T07:30:33.059Z</time></trkpt><trkpt lat="46.1419191" lon="9.4180245"><ele>204.60000000000002</ele><time>2026-05-04T07:30:35.058Z</time></trkpt><trkpt lat="46.1419176" lon="9.4178686"><ele>203.8</ele><time>2026-05-04T07:30:37.058Z</time></trkpt><trkpt lat="46.1418744" lon="9.4177285"><ele>203.0</ele><time>2026-05-04T07:30:39.058Z</time></trkpt><trkpt lat="46.1418415" lon="9.4175708"><ele>203.0</ele><time>2026-05-04T07:30:41.058Z</time></trkpt><trkpt lat="46.1418335" lon="9.4174066"><ele>203.0</ele><time>2026-05-04T07:30:43.058Z</time></trkpt><trkpt lat="46.1418511" lon="9.4172335"><ele>203.0</ele><time>2026-05-04T07:30:45.058Z</time></trkpt><trkpt lat="46.1418711" lon="9.4170635"><ele>203.0</ele><time>2026-05-04T07:30:47.057Z</time></trkpt><trkpt lat="46.1419244" lon="9.4168237"><ele>202.75</ele><time>2026-05-04T07:30:50.058Z</time></trkpt><trkpt lat="46.1419865" lon="9.4166788"><ele>202.5</ele><time>2026-05-04T07:30:52.059Z</time></trkpt><trkpt lat="46.1420624" lon="9.4165411"><ele>202.25</ele><time>2026-05-04T07:30:54.058Z</time></trkpt><trkpt lat="46.1421071" lon="9.416376"><ele>202.0</ele><time>2026-05-04T07:30:56.058Z</time></trkpt><trkpt lat="46.1421695" lon="9.4162233"><ele>201.83333333333331</ele><time>2026-05-04T07:30:58.058Z</time></trkpt><trkpt lat="46.1422173" lon="9.4161617"><ele>201.66666666666666</ele><time>2026-05-04T07:30:59.057Z</time></trkpt><trkpt lat="46.1422709" lon="9.416108"><ele>201.5</ele><time>2026-05-04T07:31:00.058Z</time></trkpt><trkpt lat="46.1423613" lon="9.4160338"><ele>201.33333333333331</ele><time>2026-05-04T07:31:02.057Z</time></trkpt><trkpt lat="46.1424335" lon="9.4159796"><ele>201.16666666666666</ele><time>2026-05-04T07:31:04.059Z</time></trkpt><trkpt lat="46.1425339" lon="9.4159622"><ele>201.0</ele><time>2026-05-04T07:31:07.059Z</time></trkpt><trkpt lat="46.142631" lon="9.4160006"><ele>201.0</ele><time>2026-05-04T07:31:09.059Z</time></trkpt><trkpt lat="46.1427385" lon="9.416041"><ele>201.0</ele><time>2026-05-04T07:31:11.059Z</time></trkpt><trkpt lat="46.1428493" lon="9.4160464"><ele>201.0</ele><time>2026-05-04T07:31:13.057Z</time></trkpt><trkpt lat="46.142953" lon="9.4160099"><ele>201.0</ele><time>2026-05-04T07:31:15.058Z</time></trkpt><trkpt lat="46.143053" lon="9.4160006"><ele>201.0</ele><time>2026-05-04T07:31:17.057Z</time></trkpt><trkpt lat="46.1431329" lon="9.4160977"><ele>201.0</ele><time>2026-05-04T07:31:19.059Z</time></trkpt><trkpt lat="46.1431254" lon="9.4162581"><ele>201.0</ele><time>2026-05-04T07:31:21.057Z</time></trkpt><trkpt lat="46.1430715" lon="9.4164171"><ele>201.0</ele><time>2026-05-04T07:31:23.057Z</time></trkpt><trkpt lat="46.1430785" lon="9.4165813"><ele>201.0</ele><time>2026-05-04T07:31:25.059Z</time></trkpt><trkpt lat="46.1431472" lon="9.4167314"><ele>201.16666666666666</ele><time>2026-05-04T07:31:27.059Z</time></trkpt><trkpt lat="46.1431952" lon="9.4167909"><ele>201.33333333333331</ele><time>2026-05-04T07:31:28.059Z</time></trkpt><trkpt lat="46.143296" lon="9.4168954"><ele>201.5</ele><time>2026-05-04T07:31:30.058Z</time></trkpt><trkpt lat="46.1433484" lon="9.4169514"><ele>201.66666666666666</ele><time>2026-05-04T07:31:31.058Z</time></trkpt><trkpt lat="46.1434281" lon="9.4170786"><ele>201.83333333333331</ele><time>2026-05-04T07:31:33.058Z</time></trkpt><trkpt lat="46.1434552" lon="9.4171621"><ele>202.0</ele><time>2026-05-04T07:31:34.058Z</time></trkpt><trkpt lat="46.1434694" lon="9.4172519"><ele>201.25</ele><time>2026-05-04T07:31:35.058Z</time></trkpt><trkpt lat="46.1434755" lon="9.4174274"><ele>200.5</ele><time>2026-05-04T07:31:37.059Z</time></trkpt><trkpt lat="46.1434858" lon="9.4175932"><ele>199.75</ele><time>2026-05-04T07:31:39.057Z</time></trkpt><trkpt lat="46.1434953" lon="9.4177517"><ele>199.0</ele><time>2026-05-04T07:31:41.057Z</time></trkpt><trkpt lat="46.1435132" lon="9.4179072"><ele>199.0</ele><time>2026-05-04T07:31:43.058Z</time></trkpt><trkpt lat="46.1435277" lon="9.4180723"><ele>199.0</ele><time>2026-05-04T07:31:45.058Z</time></trkpt><trkpt lat="46.1435564" lon="9.4182402"><ele>199.0</ele><time>2026-05-04T07:31:47.059Z</time></trkpt><trkpt lat="46.1436291" lon="9.4183494"><ele>199.0</ele><time>2026-05-04T07:31:49.058Z</time></trkpt><trkpt lat="46.1437375" lon="9.4183939"><ele>199.0</ele><time>2026-05-04T07:31:51.058Z</time></trkpt><trkpt lat="46.1438275" lon="9.4184541"><ele>199.0</ele><time>2026-05-04T07:31:53.058Z</time></trkpt><trkpt lat="46.1439072" lon="9.418559"><ele>199.0</ele><time>2026-05-04T07:31:55.057Z</time></trkpt><trkpt lat="46.1439567" lon="9.4187028"><ele>199.0</ele><time>2026-05-04T07:31:57.059Z</time></trkpt><trkpt lat="46.1439706" lon="9.418858"><ele>199.0</ele><time>2026-05-04T07:31:59.058Z</time></trkpt><trkpt lat="46.1439843" lon="9.4190359"><ele>199.0</ele><time>2026-05-04T07:32:01.059Z</time></trkpt><trkpt lat="46.1439947" lon="9.4191258"><ele>199.0</ele><time>2026-05-04T07:32:02.059Z</time></trkpt><trkpt lat="46.1440147" lon="9.4193103"><ele>199.0</ele><time>2026-05-04T07:32:04.059Z</time></trkpt><trkpt lat="46.1440426" lon="9.4194912"><ele>199.0</ele><time>2026-05-04T07:32:06.058Z</time></trkpt><trkpt lat="46.1440557" lon="9.4195846"><ele>199.0</ele><time>2026-05-04T07:32:07.058Z</time></trkpt><trkpt lat="46.1440675" lon="9.4196743"><ele>198.99999999999997</ele><time>2026-05-04T07:32:08.058Z</time></trkpt><trkpt lat="46.1440716" lon="9.4197722"><ele>199.0</ele><time>2026-05-04T07:32:09.058Z</time></trkpt><trkpt lat="46.1440833" lon="9.4198651"><ele>199.0</ele><time>2026-05-04T07:32:10.057Z</time></trkpt><trkpt lat="46.1440971" lon="9.4199571"><ele>199.0</ele><time>2026-05-04T07:32:11.058Z</time></trkpt><trkpt lat="46.1441074" lon="9.4201382"><ele>198.99999999999997</ele><time>2026-05-04T07:32:13.059Z</time></trkpt><trkpt lat="46.1440985" lon="9.4202322"><ele>199.0</ele><time>2026-05-04T07:32:14.057Z</time></trkpt><trkpt lat="46.1440719" lon="9.4204032"><ele>199.49999999999997</ele><time>2026-05-04T07:32:16.058Z</time></trkpt><trkpt lat="46.1440455" lon="9.4204974"><ele>200.0</ele><time>2026-05-04T07:32:17.057Z</time></trkpt><trkpt lat="46.144022" lon="9.4205856"><ele>200.5</ele><time>2026-05-04T07:32:18.058Z</time></trkpt><trkpt lat="46.1439788" lon="9.4207425"><ele>201.0</ele><time>2026-05-04T07:32:20.057Z</time></trkpt><trkpt lat="46.1439531" lon="9.4208277"><ele>201.49999999999997</ele><time>2026-05-04T07:32:21.058Z</time></trkpt><trkpt lat="46.1439061" lon="9.4209856"><ele>202.0</ele><time>2026-05-04T07:32:23.059Z</time></trkpt><trkpt lat="46.1438677" lon="9.4211432"><ele>202.0</ele><time>2026-05-04T07:32:25.058Z</time></trkpt><trkpt lat="46.1438293" lon="9.4213065"><ele>202.0</ele><time>2026-05-04T07:32:27.057Z</time></trkpt><trkpt lat="46.1437791" lon="9.4214544"><ele>202.0</ele><time>2026-05-04T07:32:29.06Z</time></trkpt><trkpt lat="46.1437395" lon="9.4216121"><ele>202.0</ele><time>2026-05-04T07:32:31.058Z</time></trkpt><trkpt lat="46.1437021" lon="9.4217546"><ele>201.99999999999997</ele><time>2026-05-04T07:32:33.059Z</time></trkpt><trkpt lat="46.1436733" lon="9.4218485"><ele>202.0</ele><time>2026-05-04T07:32:35.058Z</time></trkpt><trkpt lat="46.1436651" lon="9.4219612"><ele>202.0</ele><time>2026-05-04T07:33:55.058Z</time></trkpt><trkpt lat="46.1436523" lon="9.4220854"><ele>202.0</ele><time>2026-05-04T07:33:58.057Z</time></trkpt><trkpt lat="46.1436166" lon="9.4221886"><ele>201.99999999999997</ele><time>2026-05-04T07:34:00.058Z</time></trkpt><trkpt lat="46.1435811" lon="9.4223057"><ele>202.0</ele><time>2026-05-04T07:34:02.059Z</time></trkpt><trkpt lat="46.1435404" lon="9.4224505"><ele>202.0</ele><time>2026-05-04T07:34:04.057Z</time></trkpt><trkpt lat="46.1435008" lon="9.4225829"><ele>202.0</ele><time>2026-05-04T07:34:06.059Z</time></trkpt><trkpt lat="46.143455" lon="9.4227175"><ele>202.0</ele><time>2026-05-04T07:34:08.059Z</time></trkpt><trkpt lat="46.1434101" lon="9.4228685"><ele>202.0</ele><time>2026-05-04T07:34:10.059Z</time></trkpt><trkpt lat="46.1433548" lon="9.4230222"><ele>202.0</ele><time>2026-05-04T07:34:12.058Z</time></trkpt><trkpt lat="46.1433018" lon="9.4231704"><ele>201.75</ele><time>2026-05-04T07:34:14.058Z</time></trkpt><trkpt lat="46.143259" lon="9.4233172"><ele>201.5</ele><time>2026-05-04T07:34:16.058Z</time></trkpt><trkpt lat="46.1431915" lon="9.42355"><ele>201.25</ele><time>2026-05-04T07:34:19.057Z</time></trkpt><trkpt lat="46.1431474" lon="9.423693"><ele>201.0</ele><time>2026-05-04T07:34:21.06Z</time></trkpt><trkpt lat="46.1431133" lon="9.4238495"><ele>200.75</ele><time>2026-05-04T07:34:23.058Z</time></trkpt><trkpt lat="46.143067" lon="9.4240021"><ele>200.5</ele><time>2026-05-04T07:34:25.058Z</time></trkpt><trkpt lat="46.143025" lon="9.424154"><ele>200.25</ele><time>2026-05-04T07:34:27.057Z</time></trkpt><trkpt lat="46.1429813" lon="9.4243093"><ele>200.0</ele><time>2026-05-04T07:34:29.058Z</time></trkpt><trkpt lat="46.1429296" lon="9.4244499"><ele>200.0</ele><time>2026-05-04T07:34:31.06Z</time></trkpt><trkpt lat="46.1428914" lon="9.4245971"><ele>200.0</ele><time>2026-05-04T07:34:33.058Z</time></trkpt><trkpt lat="46.1428474" lon="9.4247505"><ele>200.0</ele><time>2026-05-04T07:34:35.06Z</time></trkpt><trkpt lat="46.1427955" lon="9.4249085"><ele>200.0</ele><time>2026-05-04T07:34:37.059Z</time></trkpt><trkpt lat="46.1427508" lon="9.4250618"><ele>200.00000000000003</ele><time>2026-05-04T07:34:39.058Z</time></trkpt><trkpt lat="46.1427138" lon="9.4252005"><ele>200.0</ele><time>2026-05-04T07:34:41.059Z</time></trkpt><trkpt lat="46.1426794" lon="9.4253351"><ele>200.0</ele><time>2026-05-04T07:34:43.059Z</time></trkpt><trkpt lat="46.1426499" lon="9.4254442"><ele>200.0</ele><time>2026-05-04T07:34:45.06Z</time></trkpt><trkpt lat="46.1426114" lon="9.4255203"><ele>200.00000000000003</ele><time>2026-05-04T07:34:47.058Z</time></trkpt><trkpt lat="46.1425802" lon="9.425631"><ele>200.0</ele><time>2026-05-04T07:34:49.059Z</time></trkpt><trkpt lat="46.1425466" lon="9.4257533"><ele>200.16666666666669</ele><time>2026-05-04T07:34:51.057Z</time></trkpt><trkpt lat="46.1425096" lon="9.4258827"><ele>200.33333333333334</ele><time>2026-05-04T07:34:53.06Z</time></trkpt><trkpt lat="46.1424686" lon="9.4259974"><ele>200.5</ele><time>2026-05-04T07:34:55.06Z</time></trkpt><trkpt lat="46.1424329" lon="9.4260918"><ele>200.66666666666669</ele><time>2026-05-04T07:34:57.06Z</time></trkpt><trkpt lat="46.1424155" lon="9.4262048"><ele>200.83333333333334</ele><time>2026-05-04T07:35:01.059Z</time></trkpt><trkpt lat="46.142483" lon="9.4262647"><ele>201.0</ele><time>2026-05-04T07:35:04.059Z</time></trkpt><trkpt lat="46.1425582" lon="9.4262819"><ele>201.0</ele><time>2026-05-04T07:35:06.059Z</time></trkpt><trkpt lat="46.142661" lon="9.426283"><ele>201.0</ele><time>2026-05-04T07:35:08.058Z</time></trkpt><trkpt lat="46.1427584" lon="9.4263011"><ele>201.0</ele><time>2026-05-04T07:35:10.058Z</time></trkpt><trkpt lat="46.142864" lon="9.4263237"><ele>201.0</ele><time>2026-05-04T07:35:12.059Z</time></trkpt><trkpt lat="46.1429669" lon="9.42635"><ele>201.0</ele><time>2026-05-04T07:35:14.058Z</time></trkpt><trkpt lat="46.1430711" lon="9.4263682"><ele>201.5</ele><time>2026-05-04T07:35:16.059Z</time></trkpt><trkpt lat="46.1431752" lon="9.4263605"><ele>202.0</ele><time>2026-05-04T07:35:18.058Z</time></trkpt><trkpt lat="46.1432915" lon="9.4263435"><ele>202.5</ele><time>2026-05-04T07:35:20.059Z</time></trkpt><trkpt lat="46.1434105" lon="9.4263253"><ele>203.0</ele><time>2026-05-04T07:35:22.059Z</time></trkpt><trkpt lat="46.1435287" lon="9.4263131"><ele>203.0</ele><time>2026-05-04T07:35:24.06Z</time></trkpt><trkpt lat="46.1436012" lon="9.4263037"><ele>203.0</ele><time>2026-05-04T07:35:25.058Z</time></trkpt><trkpt lat="46.1437185" lon="9.4262913"><ele>203.0</ele><time>2026-05-04T07:35:27.059Z</time></trkpt><trkpt lat="46.1437815" lon="9.4262884"><ele>203.0</ele><time>2026-05-04T07:35:28.057Z</time></trkpt><trkpt lat="46.1438885" lon="9.4262597"><ele>203.0</ele><time>2026-05-04T07:35:30.059Z</time></trkpt><trkpt lat="46.1440022" lon="9.4262391"><ele>203.4</ele><time>2026-05-04T07:35:32.059Z</time></trkpt><trkpt lat="46.1440656" lon="9.4262319"><ele>203.8</ele><time>2026-05-04T07:35:33.058Z</time></trkpt><trkpt lat="46.1441284" lon="9.4262119"><ele>204.2</ele><time>2026-05-04T07:35:34.059Z</time></trkpt><trkpt lat="46.144246" lon="9.4262011"><ele>204.6</ele><time>2026-05-04T07:35:36.058Z</time></trkpt><trkpt lat="46.1443702" lon="9.4262152"><ele>205.0</ele><time>2026-05-04T07:35:38.058Z</time></trkpt><trkpt lat="46.1444881" lon="9.4262075"><ele>205.0</ele><time>2026-05-04T07:35:40.059Z</time></trkpt><trkpt lat="46.1445943" lon="9.4262329"><ele>205.0</ele><time>2026-05-04T07:35:42.059Z</time></trkpt><trkpt lat="46.1446545" lon="9.4263715"><ele>205.0</ele><time>2026-05-04T07:35:44.06Z</time></trkpt><trkpt lat="46.1446828" lon="9.4265316"><ele>205.0</ele><time>2026-05-04T07:35:46.058Z</time></trkpt><trkpt lat="46.1446942" lon="9.4266999"><ele>204.6</ele><time>2026-05-04T07:35:48.057Z</time></trkpt><trkpt lat="46.1447055" lon="9.426863"><ele>204.2</ele><time>2026-05-04T07:35:50.059Z</time></trkpt><trkpt lat="46.1447653" lon="9.4270099"><ele>203.8</ele><time>2026-05-04T07:35:52.059Z</time></trkpt><trkpt lat="46.1448747" lon="9.4270845"><ele>203.4</ele><time>2026-05-04T07:35:54.059Z</time></trkpt><trkpt lat="46.1449398" lon="9.4271842"><ele>203.0</ele><time>2026-05-04T07:35:56.059Z</time></trkpt><trkpt lat="46.1449379" lon="9.4273348"><ele>202.75</ele><time>2026-05-04T07:35:58.058Z</time></trkpt><trkpt lat="46.1449088" lon="9.4274887"><ele>202.5</ele><time>2026-05-04T07:36:00.06Z</time></trkpt><trkpt lat="46.1448629" lon="9.4276407"><ele>202.25</ele><time>2026-05-04T07:36:02.059Z</time></trkpt><trkpt lat="46.1448025" lon="9.4277817"><ele>202.0</ele><time>2026-05-04T07:36:04.059Z</time></trkpt><trkpt lat="46.1447447" lon="9.4279353"><ele>201.99999999999997</ele><time>2026-05-04T07:36:06.06Z</time></trkpt><trkpt lat="46.1447114" lon="9.4280169"><ele>202.0</ele><time>2026-05-04T07:36:07.059Z</time></trkpt><trkpt lat="46.1446443" lon="9.428176"><ele>202.0</ele><time>2026-05-04T07:36:09.058Z</time></trkpt><trkpt lat="46.1446082" lon="9.4282535"><ele>202.0</ele><time>2026-05-04T07:36:10.058Z</time></trkpt><trkpt lat="46.1445761" lon="9.4283322"><ele>201.99999999999997</ele><time>2026-05-04T07:36:11.058Z</time></trkpt><trkpt lat="46.1445446" lon="9.4284198"><ele>202.0</ele><time>2026-05-04T07:36:12.059Z</time></trkpt><trkpt lat="46.1445179" lon="9.4285024"><ele>202.0</ele><time>2026-05-04T07:36:13.058Z</time></trkpt><trkpt lat="46.1444821" lon="9.4285803"><ele>202.0</ele><time>2026-05-04T07:36:14.059Z</time></trkpt><trkpt lat="46.1444519" lon="9.4286604"><ele>202.0</ele><time>2026-05-04T07:36:15.058Z</time></trkpt><trkpt lat="46.1444233" lon="9.4287441"><ele>202.0</ele><time>2026-05-04T07:36:16.058Z</time></trkpt><trkpt lat="46.1443944" lon="9.4288263"><ele>202.0</ele><time>2026-05-04T07:36:17.06Z</time></trkpt><trkpt lat="46.1443595" lon="9.4289045"><ele>202.0</ele><time>2026-05-04T07:36:18.059Z</time></trkpt><trkpt lat="46.1443259" lon="9.4289839"><ele>202.0</ele><time>2026-05-04T07:36:19.06Z</time></trkpt><trkpt lat="46.1442942" lon="9.429064"><ele>202.0</ele><time>2026-05-04T07:36:20.059Z</time></trkpt><trkpt lat="46.1442246" lon="9.4292085"><ele>201.83333333333331</ele><time>2026-05-04T07:36:22.058Z</time></trkpt><trkpt lat="46.1441932" lon="9.4292887"><ele>201.66666666666666</ele><time>2026-05-04T07:36:23.059Z</time></trkpt><trkpt lat="46.1441566" lon="9.4293659"><ele>201.5</ele><time>2026-05-04T07:36:24.059Z</time></trkpt><trkpt lat="46.1441215" lon="9.4294453"><ele>201.33333333333331</ele><time>2026-05-04T07:36:25.058Z</time></trkpt><trkpt lat="46.1440621" lon="9.4295984"><ele>201.16666666666666</ele><time>2026-05-04T07:36:27.059Z</time></trkpt><trkpt lat="46.1440312" lon="9.4296808"><ele>201.0</ele><time>2026-05-04T07:36:28.058Z</time></trkpt><trkpt lat="46.1439731" lon="9.4298356"><ele>201.0</ele><time>2026-05-04T07:36:30.058Z</time></trkpt><trkpt lat="46.1439159" lon="9.4299941"><ele>201.0</ele><time>2026-05-04T07:36:32.059Z</time></trkpt><trkpt lat="46.1438594" lon="9.4301488"><ele>201.0</ele><time>2026-05-04T07:36:34.059Z</time></trkpt><trkpt lat="46.1438074" lon="9.4303111"><ele>201.0</ele><time>2026-05-04T07:36:36.059Z</time></trkpt><trkpt lat="46.1437788" lon="9.4303949"><ele>201.0</ele><time>2026-05-04T07:36:37.059Z</time></trkpt><trkpt lat="46.1437208" lon="9.430558"><ele>201.0</ele><time>2026-05-04T07:36:39.059Z</time></trkpt><trkpt lat="46.1436899" lon="9.4306411"><ele>201.0</ele><time>2026-05-04T07:36:40.06Z</time></trkpt><trkpt lat="46.1436547" lon="9.4307206"><ele>201.0</ele><time>2026-05-04T07:36:41.059Z</time></trkpt><trkpt lat="46.1436245" lon="9.4308025"><ele>201.0</ele><time>2026-05-04T07:36:42.058Z</time></trkpt><trkpt lat="46.1435999" lon="9.430887"><ele>201.0</ele><time>2026-05-04T07:36:43.059Z</time></trkpt><trkpt lat="46.1435403" lon="9.4310505"><ele>201.0</ele><time>2026-05-04T07:36:45.06Z</time></trkpt><trkpt lat="46.1435014" lon="9.4311314"><ele>201.0</ele><time>2026-05-04T07:36:46.06Z</time></trkpt><trkpt lat="46.143466" lon="9.4312132"><ele>201.0</ele><time>2026-05-04T07:36:47.06Z</time></trkpt><trkpt lat="46.1434336" lon="9.4312947"><ele>201.0</ele><time>2026-05-04T07:36:48.06Z</time></trkpt><trkpt lat="46.1434008" lon="9.4313777"><ele>201.0</ele><time>2026-05-04T07:36:49.06Z</time></trkpt><trkpt lat="46.1433724" lon="9.431462"><ele>201.0</ele><time>2026-05-04T07:36:50.059Z</time></trkpt><trkpt lat="46.1433479" lon="9.4315473"><ele>201.0</ele><time>2026-05-04T07:36:51.06Z</time></trkpt><trkpt lat="46.1433169" lon="9.4316303"><ele>201.0</ele><time>2026-05-04T07:36:52.059Z</time></trkpt><trkpt lat="46.1432856" lon="9.4317167"><ele>201.0</ele><time>2026-05-04T07:36:53.059Z</time></trkpt><trkpt lat="46.1432528" lon="9.4318014"><ele>201.0</ele><time>2026-05-04T07:36:54.059Z</time></trkpt><trkpt lat="46.1432196" lon="9.431891"><ele>201.0</ele><time>2026-05-04T07:36:55.058Z</time></trkpt><trkpt lat="46.1431863" lon="9.4319761"><ele>201.0</ele><time>2026-05-04T07:36:56.058Z</time></trkpt><trkpt lat="46.1431546" lon="9.4320573"><ele>201.0</ele><time>2026-05-04T07:36:57.059Z</time></trkpt><trkpt lat="46.143124" lon="9.4321445"><ele>201.0</ele><time>2026-05-04T07:36:58.059Z</time></trkpt><trkpt lat="46.1430953" lon="9.4322319"><ele>201.0</ele><time>2026-05-04T07:36:59.059Z</time></trkpt><trkpt lat="46.1430712" lon="9.4323243"><ele>200.85714285714286</ele><time>2026-05-04T07:37:00.06Z</time></trkpt><trkpt lat="46.1430516" lon="9.4324116"><ele>200.71428571428572</ele><time>2026-05-04T07:37:01.059Z</time></trkpt><trkpt lat="46.1430275" lon="9.4325034"><ele>200.57142857142858</ele><time>2026-05-04T07:37:02.058Z</time></trkpt><trkpt lat="46.1430022" lon="9.432593"><ele>200.42857142857144</ele><time>2026-05-04T07:37:03.06Z</time></trkpt><trkpt lat="46.1429747" lon="9.4326873"><ele>200.28571428571428</ele><time>2026-05-04T07:37:04.059Z</time></trkpt><trkpt lat="46.1429459" lon="9.4327869"><ele>200.14285714285717</ele><time>2026-05-04T07:37:05.059Z</time></trkpt><trkpt lat="46.14292" lon="9.4328829"><ele>200.0</ele><time>2026-05-04T07:37:06.06Z</time></trkpt><trkpt lat="46.1428944" lon="9.432977"><ele>200.2857142857143</ele><time>2026-05-04T07:37:07.059Z</time></trkpt><trkpt lat="46.1428685" lon="9.4330675"><ele>200.57142857142858</ele><time>2026-05-04T07:37:08.058Z</time></trkpt><trkpt lat="46.1428417" lon="9.433162"><ele>200.85714285714286</ele><time>2026-05-04T07:37:09.059Z</time></trkpt><trkpt lat="46.1428135" lon="9.4332536"><ele>201.14285714285717</ele><time>2026-05-04T07:37:10.059Z</time></trkpt><trkpt lat="46.1427884" lon="9.4333451"><ele>201.42857142857142</ele><time>2026-05-04T07:37:11.059Z</time></trkpt><trkpt lat="46.1427634" lon="9.4334359"><ele>201.71428571428572</ele><time>2026-05-04T07:37:12.058Z</time></trkpt><trkpt lat="46.1427367" lon="9.4335279"><ele>202.0</ele><time>2026-05-04T07:37:13.059Z</time></trkpt><trkpt lat="46.1427157" lon="9.4336136"><ele>201.99999999999997</ele><time>2026-05-04T07:37:14.058Z</time></trkpt><trkpt lat="46.142688" lon="9.4336979"><ele>202.0</ele><time>2026-05-04T07:37:15.058Z</time></trkpt><trkpt lat="46.142636" lon="9.4338661"><ele>202.0</ele><time>2026-05-04T07:37:17.059Z</time></trkpt><trkpt lat="46.1426061" lon="9.4339503"><ele>202.0</ele><time>2026-05-04T07:37:18.06Z</time></trkpt><trkpt lat="46.1425651" lon="9.4340243"><ele>201.99999999999997</ele><time>2026-05-04T07:37:19.059Z</time></trkpt><trkpt lat="46.1425161" lon="9.4340864"><ele>202.0</ele><time>2026-05-04T07:37:20.059Z</time></trkpt><trkpt lat="46.142403" lon="9.4341351"><ele>201.83333333333331</ele><time>2026-05-04T07:37:22.058Z</time></trkpt><trkpt lat="46.1423395" lon="9.4341344"><ele>201.66666666666666</ele><time>2026-05-04T07:37:23.058Z</time></trkpt><trkpt lat="46.1422213" lon="9.434096"><ele>201.5</ele><time>2026-05-04T07:37:25.059Z</time></trkpt><trkpt lat="46.1420965" lon="9.4340855"><ele>201.33333333333331</ele><time>2026-05-04T07:37:27.058Z</time></trkpt><trkpt lat="46.1420297" lon="9.4340806"><ele>201.16666666666666</ele><time>2026-05-04T07:37:28.06Z</time></trkpt><trkpt lat="46.1419625" lon="9.4340918"><ele>201.0</ele><time>2026-05-04T07:37:29.058Z</time></trkpt><trkpt lat="46.1418891" lon="9.4340995"><ele>201.0</ele><time>2026-05-04T07:37:30.059Z</time></trkpt><trkpt lat="46.1417665" lon="9.4341027"><ele>201.0</ele><time>2026-05-04T07:37:32.059Z</time></trkpt><trkpt lat="46.14165" lon="9.4340851"><ele>201.0</ele><time>2026-05-04T07:37:34.058Z</time></trkpt><trkpt lat="46.1415274" lon="9.4340764"><ele>201.0</ele><time>2026-05-04T07:37:36.059Z</time></trkpt><trkpt lat="46.1414029" lon="9.4340844"><ele>201.0</ele><time>2026-05-04T07:37:38.059Z</time></trkpt><trkpt lat="46.1412788" lon="9.4340905"><ele>201.0</ele><time>2026-05-04T07:37:40.059Z</time></trkpt><trkpt lat="46.1412157" lon="9.4340958"><ele>201.0</ele><time>2026-05-04T07:37:41.059Z</time></trkpt><trkpt lat="46.1411489" lon="9.4340965"><ele>201.0</ele><time>2026-05-04T07:37:42.059Z</time></trkpt><trkpt lat="46.1410816" lon="9.4341031"><ele>201.0</ele><time>2026-05-04T07:37:43.058Z</time></trkpt><trkpt lat="46.1410158" lon="9.4340995"><ele>201.0</ele><time>2026-05-04T07:37:44.059Z</time></trkpt><trkpt lat="46.1409482" lon="9.43409"><ele>201.0</ele><time>2026-05-04T07:37:45.06Z</time></trkpt><trkpt lat="46.1408279" lon="9.4340666"><ele>201.0</ele><time>2026-05-04T07:37:47.06Z</time></trkpt><trkpt lat="46.1407615" lon="9.4340515"><ele>201.0</ele><time>2026-05-04T07:37:48.06Z</time></trkpt><trkpt lat="46.1406956" lon="9.4340411"><ele>201.0</ele><time>2026-05-04T07:37:49.06Z</time></trkpt><trkpt lat="46.1406308" lon="9.4340359"><ele>201.0</ele><time>2026-05-04T07:37:50.059Z</time></trkpt><trkpt lat="46.1405636" lon="9.4340311"><ele>201.0</ele><time>2026-05-04T07:37:51.059Z</time></trkpt><trkpt lat="46.1404978" lon="9.4340295"><ele>201.14285714285714</ele><time>2026-05-04T07:37:52.058Z</time></trkpt><trkpt lat="46.1404287" lon="9.4340482"><ele>201.2857142857143</ele><time>2026-05-04T07:37:53.06Z</time></trkpt><trkpt lat="46.1403653" lon="9.4340895"><ele>201.42857142857144</ele><time>2026-05-04T07:37:54.059Z</time></trkpt><trkpt lat="46.1403095" lon="9.434148"><ele>201.57142857142856</ele><time>2026-05-04T07:37:55.06Z</time></trkpt><trkpt lat="46.1402679" lon="9.4342228"><ele>201.71428571428572</ele><time>2026-05-04T07:37:56.058Z</time></trkpt><trkpt lat="46.1402363" lon="9.4343103"><ele>201.85714285714286</ele><time>2026-05-04T07:37:57.059Z</time></trkpt><trkpt lat="46.1402101" lon="9.4344086"><ele>202.0</ele><time>2026-05-04T07:37:58.059Z</time></trkpt><trkpt lat="46.1401813" lon="9.4345019"><ele>202.0</ele><time>2026-05-04T07:37:59.06Z</time></trkpt><trkpt lat="46.1401461" lon="9.4345929"><ele>202.0</ele><time>2026-05-04T07:38:00.059Z</time></trkpt><trkpt lat="46.1401067" lon="9.4346803"><ele>202.0</ele><time>2026-05-04T07:38:01.059Z</time></trkpt><trkpt lat="46.1400736" lon="9.434768"><ele>202.0</ele><time>2026-05-04T07:38:02.059Z</time></trkpt><trkpt lat="46.1400485" lon="9.4348607"><ele>202.0</ele><time>2026-05-04T07:38:03.06Z</time></trkpt><trkpt lat="46.1400237" lon="9.4349544"><ele>202.0</ele><time>2026-05-04T07:38:04.058Z</time></trkpt><trkpt lat="46.1399958" lon="9.4350454"><ele>202.0</ele><time>2026-05-04T07:38:05.06Z</time></trkpt><trkpt lat="46.1399667" lon="9.4351366"><ele>201.85714285714286</ele><time>2026-05-04T07:38:06.059Z</time></trkpt><trkpt lat="46.1399361" lon="9.4352249"><ele>201.71428571428572</ele><time>2026-05-04T07:38:07.06Z</time></trkpt><trkpt lat="46.1399081" lon="9.4353089"><ele>201.57142857142856</ele><time>2026-05-04T07:38:08.059Z</time></trkpt><trkpt lat="46.1398857" lon="9.4353983"><ele>201.42857142857144</ele><time>2026-05-04T07:38:09.058Z</time></trkpt><trkpt lat="46.1398576" lon="9.4354811"><ele>201.2857142857143</ele><time>2026-05-04T07:38:10.06Z</time></trkpt><trkpt lat="46.1398279" lon="9.4355716"><ele>201.14285714285714</ele><time>2026-05-04T07:38:11.059Z</time></trkpt><trkpt lat="46.1397993" lon="9.4356555"><ele>201.0</ele><time>2026-05-04T07:38:12.06Z</time></trkpt><trkpt lat="46.1397711" lon="9.4357398"><ele>201.0</ele><time>2026-05-04T07:38:13.059Z</time></trkpt><trkpt lat="46.1397492" lon="9.4358292"><ele>201.0</ele><time>2026-05-04T07:38:14.06Z</time></trkpt><trkpt lat="46.1397245" lon="9.4359179"><ele>201.0</ele><time>2026-05-04T07:38:15.06Z</time></trkpt><trkpt lat="46.1397013" lon="9.4360072"><ele>201.0</ele><time>2026-05-04T07:38:16.059Z</time></trkpt><trkpt lat="46.1396762" lon="9.4360983"><ele>201.0</ele><time>2026-05-04T07:38:17.059Z</time></trkpt><trkpt lat="46.1396494" lon="9.4361859"><ele>201.0</ele><time>2026-05-04T07:38:18.06Z</time></trkpt><trkpt lat="46.1396033" lon="9.4363503"><ele>200.60000000000002</ele><time>2026-05-04T07:38:20.06Z</time></trkpt><trkpt lat="46.1395596" lon="9.4365224"><ele>200.2</ele><time>2026-05-04T07:38:22.06Z</time></trkpt><trkpt lat="46.1395373" lon="9.4366136"><ele>199.8</ele><time>2026-05-04T07:38:23.059Z</time></trkpt><trkpt lat="46.1395127" lon="9.4367009"><ele>199.39999999999998</ele><time>2026-05-04T07:38:24.06Z</time></trkpt><trkpt lat="46.1394652" lon="9.4368633"><ele>199.0</ele><time>2026-05-04T07:38:26.059Z</time></trkpt><trkpt lat="46.1394205" lon="9.4370267"><ele>199.16666666666666</ele><time>2026-05-04T07:38:28.059Z</time></trkpt><trkpt lat="46.1393678" lon="9.4371866"><ele>199.33333333333331</ele><time>2026-05-04T07:38:30.061Z</time></trkpt><trkpt lat="46.1393385" lon="9.4372683"><ele>199.5</ele><time>2026-05-04T07:38:31.06Z</time></trkpt><trkpt lat="46.1393128" lon="9.4373582"><ele>199.66666666666669</ele><time>2026-05-04T07:38:32.06Z</time></trkpt><trkpt lat="46.1392879" lon="9.4374507"><ele>199.83333333333334</ele><time>2026-05-04T07:38:33.06Z</time></trkpt><trkpt lat="46.1392614" lon="9.4375471"><ele>200.0</ele><time>2026-05-04T07:38:34.059Z</time></trkpt><trkpt lat="46.1392313" lon="9.4376419"><ele>200.00000000000003</ele><time>2026-05-04T07:38:35.06Z</time></trkpt><trkpt lat="46.1392111" lon="9.4377291"><ele>200.0</ele><time>2026-05-04T07:38:36.06Z</time></trkpt><trkpt lat="46.1391659" lon="9.4378873"><ele>200.0</ele><time>2026-05-04T07:38:38.059Z</time></trkpt><trkpt lat="46.1391168" lon="9.4380507"><ele>200.0</ele><time>2026-05-04T07:38:40.058Z</time></trkpt><trkpt lat="46.1390936" lon="9.4381387"><ele>200.00000000000003</ele><time>2026-05-04T07:38:41.058Z</time></trkpt><trkpt lat="46.139065" lon="9.4382334"><ele>200.0</ele><time>2026-05-04T07:38:42.06Z</time></trkpt><trkpt lat="46.1390288" lon="9.4383797"><ele>200.4</ele><time>2026-05-04T07:38:44.06Z</time></trkpt><trkpt lat="46.1389782" lon="9.4385451"><ele>200.8</ele><time>2026-05-04T07:38:46.06Z</time></trkpt><trkpt lat="46.1389332" lon="9.4387176"><ele>201.2</ele><time>2026-05-04T07:38:48.061Z</time></trkpt><trkpt lat="46.1388938" lon="9.4388857"><ele>201.6</ele><time>2026-05-04T07:38:50.059Z</time></trkpt><trkpt lat="46.1388704" lon="9.4389716"><ele>202.0</ele><time>2026-05-04T07:38:51.06Z</time></trkpt><trkpt lat="46.1388456" lon="9.4390596"><ele>202.0</ele><time>2026-05-04T07:38:52.059Z</time></trkpt><trkpt lat="46.1388052" lon="9.4392252"><ele>202.0</ele><time>2026-05-04T07:38:54.059Z</time></trkpt><trkpt lat="46.1387872" lon="9.4393126"><ele>202.0</ele><time>2026-05-04T07:38:55.06Z</time></trkpt><trkpt lat="46.1387716" lon="9.4394013"><ele>202.0</ele><time>2026-05-04T07:38:56.06Z</time></trkpt><trkpt lat="46.1387413" lon="9.439651"><ele>202.0</ele><time>2026-05-04T07:38:59.059Z</time></trkpt><trkpt lat="46.1387295" lon="9.4397424"><ele>202.16666666666666</ele><time>2026-05-04T07:39:00.06Z</time></trkpt><trkpt lat="46.1387072" lon="9.4398417"><ele>202.33333333333331</ele><time>2026-05-04T07:39:01.058Z</time></trkpt><trkpt lat="46.1386972" lon="9.4399354"><ele>202.5</ele><time>2026-05-04T07:39:02.06Z</time></trkpt><trkpt lat="46.1386899" lon="9.4400284"><ele>202.66666666666669</ele><time>2026-05-04T07:39:03.059Z</time></trkpt><trkpt lat="46.1386799" lon="9.4402062"><ele>202.83333333333334</ele><time>2026-05-04T07:39:05.06Z</time></trkpt><trkpt lat="46.1386728" lon="9.4402983"><ele>203.0</ele><time>2026-05-04T07:39:06.059Z</time></trkpt><trkpt lat="46.1386673" lon="9.440391"><ele>203.0</ele><time>2026-05-04T07:39:07.06Z</time></trkpt><trkpt lat="46.138662" lon="9.4405725"><ele>203.0</ele><time>2026-05-04T07:39:09.06Z</time></trkpt><trkpt lat="46.1386627" lon="9.440748"><ele>203.0</ele><time>2026-05-04T07:39:11.059Z</time></trkpt><trkpt lat="46.1386618" lon="9.440843"><ele>203.0</ele><time>2026-05-04T07:39:12.061Z</time></trkpt><trkpt lat="46.1386598" lon="9.4409339"><ele>203.0</ele><time>2026-05-04T07:39:13.06Z</time></trkpt><trkpt lat="46.1386575" lon="9.4411169"><ele>203.0</ele><time>2026-05-04T07:39:15.059Z</time></trkpt><trkpt lat="46.1386619" lon="9.441294"><ele>203.0</ele><time>2026-05-04T07:39:17.058Z</time></trkpt><trkpt lat="46.1386561" lon="9.4414746"><ele>203.0</ele><time>2026-05-04T07:39:19.059Z</time></trkpt><trkpt lat="46.1386558" lon="9.4415706"><ele>203.0</ele><time>2026-05-04T07:39:20.059Z</time></trkpt><trkpt lat="46.1386516" lon="9.4417477"><ele>203.0</ele><time>2026-05-04T07:39:22.06Z</time></trkpt><trkpt lat="46.1386546" lon="9.4419117"><ele>202.8</ele><time>2026-05-04T07:39:24.059Z</time></trkpt><trkpt lat="46.1386569" lon="9.4420819"><ele>202.60000000000002</ele><time>2026-05-04T07:39:26.06Z</time></trkpt><trkpt lat="46.1386554" lon="9.4422592"><ele>202.39999999999998</ele><time>2026-05-04T07:39:28.06Z</time></trkpt><trkpt lat="46.1386511" lon="9.4423503"><ele>202.2</ele><time>2026-05-04T07:39:29.06Z</time></trkpt><trkpt lat="46.1386459" lon="9.4425182"><ele>202.0</ele><time>2026-05-04T07:39:31.059Z</time></trkpt><trkpt lat="46.1386472" lon="9.4427015"><ele>202.0</ele><time>2026-05-04T07:39:33.06Z</time></trkpt><trkpt lat="46.1386539" lon="9.4428782"><ele>202.0</ele><time>2026-05-04T07:39:35.06Z</time></trkpt><trkpt lat="46.1386559" lon="9.4430504"><ele>202.0</ele><time>2026-05-04T07:39:37.06Z</time></trkpt><trkpt lat="46.1386526" lon="9.4431429"><ele>202.0</ele><time>2026-05-04T07:39:38.059Z</time></trkpt><trkpt lat="46.1386466" lon="9.4433193"><ele>202.0</ele><time>2026-05-04T07:39:40.06Z</time></trkpt><trkpt lat="46.1386435" lon="9.4434966"><ele>201.99999999999997</ele><time>2026-05-04T07:39:42.059Z</time></trkpt><trkpt lat="46.1386493" lon="9.4436788"><ele>202.0</ele><time>2026-05-04T07:39:44.059Z</time></trkpt><trkpt lat="46.1386518" lon="9.4437709"><ele>202.0</ele><time>2026-05-04T07:39:45.061Z</time></trkpt><trkpt lat="46.1386548" lon="9.4439498"><ele>202.0</ele><time>2026-05-04T07:39:47.061Z</time></trkpt><trkpt lat="46.1386545" lon="9.4440419"><ele>201.99999999999997</ele><time>2026-05-04T07:39:48.06Z</time></trkpt><trkpt lat="46.1386533" lon="9.4441339"><ele>202.0</ele><time>2026-05-04T07:39:49.06Z</time></trkpt><trkpt lat="46.1386582" lon="9.4443129"><ele>202.25</ele><time>2026-05-04T07:39:51.06Z</time></trkpt><trkpt lat="46.1386619" lon="9.4444974"><ele>202.5</ele><time>2026-05-04T07:39:53.058Z</time></trkpt><trkpt lat="46.1386591" lon="9.4446634"><ele>202.75</ele><time>2026-05-04T07:39:55.058Z</time></trkpt><trkpt lat="46.1386544" lon="9.4448323"><ele>203.0</ele><time>2026-05-04T07:39:57.061Z</time></trkpt><trkpt lat="46.1386603" lon="9.4450225"><ele>203.25</ele><time>2026-05-04T07:39:59.059Z</time></trkpt><trkpt lat="46.1386565" lon="9.4451902"><ele>203.5</ele><time>2026-05-04T07:40:01.06Z</time></trkpt><trkpt lat="46.1386593" lon="9.4453681"><ele>203.75</ele><time>2026-05-04T07:40:03.06Z</time></trkpt><trkpt lat="46.1386562" lon="9.4455447"><ele>204.0</ele><time>2026-05-04T07:40:05.06Z</time></trkpt><trkpt lat="46.1386645" lon="9.4457286"><ele>204.0</ele><time>2026-05-04T07:40:07.06Z</time></trkpt><trkpt lat="46.1386642" lon="9.4458233"><ele>204.0</ele><time>2026-05-04T07:40:08.06Z</time></trkpt><trkpt lat="46.1386625" lon="9.4460029"><ele>204.0</ele><time>2026-05-04T07:40:10.06Z</time></trkpt><trkpt lat="46.1386643" lon="9.4461734"><ele>204.0</ele><time>2026-05-04T07:40:12.059Z</time></trkpt><trkpt lat="46.1386592" lon="9.4463458"><ele>204.0</ele><time>2026-05-04T07:40:14.061Z</time></trkpt><trkpt lat="46.1386665" lon="9.4465189"><ele>204.0</ele><time>2026-05-04T07:40:16.059Z</time></trkpt><trkpt lat="46.1386692" lon="9.4466098"><ele>204.0</ele><time>2026-05-04T07:40:17.06Z</time></trkpt><trkpt lat="46.1386683" lon="9.4467009"><ele>204.0</ele><time>2026-05-04T07:40:18.06Z</time></trkpt><trkpt lat="46.1386723" lon="9.4467941"><ele>204.0</ele><time>2026-05-04T07:40:19.059Z</time></trkpt><trkpt lat="46.1386773" lon="9.4469757"><ele>204.0</ele><time>2026-05-04T07:40:21.06Z</time></trkpt><trkpt lat="46.1386808" lon="9.447156"><ele>204.0</ele><time>2026-05-04T07:40:23.061Z</time></trkpt><trkpt lat="46.1386789" lon="9.4473273"><ele>204.0</ele><time>2026-05-04T07:40:25.061Z</time></trkpt><trkpt lat="46.138671" lon="9.4474953"><ele>204.0</ele><time>2026-05-04T07:40:27.06Z</time></trkpt><trkpt lat="46.1386719" lon="9.44767"><ele>204.0</ele><time>2026-05-04T07:40:29.061Z</time></trkpt><trkpt lat="46.1386714" lon="9.4478442"><ele>204.0</ele><time>2026-05-04T07:40:31.059Z</time></trkpt><trkpt lat="46.1386674" lon="9.4480231"><ele>204.0</ele><time>2026-05-04T07:40:33.061Z</time></trkpt><trkpt lat="46.1386647" lon="9.4481958"><ele>204.0</ele><time>2026-05-04T07:40:35.06Z</time></trkpt><trkpt lat="46.1386676" lon="9.4483651"><ele>204.0</ele><time>2026-05-04T07:40:37.06Z</time></trkpt><trkpt lat="46.1386683" lon="9.4484577"><ele>204.0</ele><time>2026-05-04T07:40:38.06Z</time></trkpt><trkpt lat="46.1386705" lon="9.4486331"><ele>204.0</ele><time>2026-05-04T07:40:40.06Z</time></trkpt><trkpt lat="46.1386667" lon="9.4487292"><ele>204.0</ele><time>2026-05-04T07:40:41.06Z</time></trkpt><trkpt lat="46.1386669" lon="9.4488204"><ele>204.0</ele><time>2026-05-04T07:40:42.061Z</time></trkpt><trkpt lat="46.138663" lon="9.4490033"><ele>204.0</ele><time>2026-05-04T07:40:44.061Z</time></trkpt><trkpt lat="46.1386613" lon="9.4491829"><ele>204.0</ele><time>2026-05-04T07:40:46.06Z</time></trkpt><trkpt lat="46.1386682" lon="9.4492746"><ele>204.0</ele><time>2026-05-04T07:40:47.06Z</time></trkpt><trkpt lat="46.1386744" lon="9.4493663"><ele>204.0</ele><time>2026-05-04T07:40:48.06Z</time></trkpt><trkpt lat="46.1386693" lon="9.4495365"><ele>204.2</ele><time>2026-05-04T07:40:50.059Z</time></trkpt><trkpt lat="46.1386621" lon="9.4497104"><ele>204.39999999999998</ele><time>2026-05-04T07:40:52.059Z</time></trkpt><trkpt lat="46.1386568" lon="9.4498019"><ele>204.6</ele><time>2026-05-04T07:40:53.058Z</time></trkpt><trkpt lat="46.138653" lon="9.4499808"><ele>204.8</ele><time>2026-05-04T07:40:55.06Z</time></trkpt><trkpt lat="46.1386596" lon="9.450074"><ele>205.0</ele><time>2026-05-04T07:40:56.059Z</time></trkpt><trkpt lat="46.1386683" lon="9.4502526"><ele>205.0</ele><time>2026-05-04T07:40:58.061Z</time></trkpt><trkpt lat="46.1386646" lon="9.4503449"><ele>205.0</ele><time>2026-05-04T07:40:59.061Z</time></trkpt><trkpt lat="46.1386602" lon="9.4504426"><ele>205.0</ele><time>2026-05-04T07:41:00.06Z</time></trkpt><trkpt lat="46.1386671" lon="9.4506151"><ele>205.0</ele><time>2026-05-04T07:41:02.058Z</time></trkpt><trkpt lat="46.1386702" lon="9.4507877"><ele>205.0</ele><time>2026-05-04T07:41:04.06Z</time></trkpt><trkpt lat="46.1386725" lon="9.45096"><ele>205.25</ele><time>2026-05-04T07:41:06.06Z</time></trkpt><trkpt lat="46.1386835" lon="9.4511398"><ele>205.5</ele><time>2026-05-04T07:41:08.06Z</time></trkpt><trkpt lat="46.1386985" lon="9.4513154"><ele>205.75</ele><time>2026-05-04T07:41:10.06Z</time></trkpt><trkpt lat="46.1387044" lon="9.4514896"><ele>206.0</ele><time>2026-05-04T07:41:12.06Z</time></trkpt><trkpt lat="46.1387127" lon="9.4516652"><ele>206.8</ele><time>2026-05-04T07:41:14.059Z</time></trkpt><trkpt lat="46.1387157" lon="9.4518483"><ele>207.60000000000002</ele><time>2026-05-04T07:41:16.06Z</time></trkpt><trkpt lat="46.1387173" lon="9.4520274"><ele>208.4</ele><time>2026-05-04T07:41:18.06Z</time></trkpt><trkpt lat="46.1387128" lon="9.4521193"><ele>209.2</ele><time>2026-05-04T07:41:19.06Z</time></trkpt><trkpt lat="46.1387022" lon="9.4522971"><ele>210.0</ele><time>2026-05-04T07:41:21.061Z</time></trkpt><trkpt lat="46.1386863" lon="9.4524642"><ele>210.75</ele><time>2026-05-04T07:41:23.06Z</time></trkpt><trkpt lat="46.1386656" lon="9.4526299"><ele>211.5</ele><time>2026-05-04T07:41:25.059Z</time></trkpt><trkpt lat="46.1386617" lon="9.4527918"><ele>212.25</ele><time>2026-05-04T07:41:27.06Z</time></trkpt><trkpt lat="46.1386668" lon="9.4529679"><ele>213.0</ele><time>2026-05-04T07:41:29.06Z</time></trkpt><trkpt lat="46.138672" lon="9.4531373"><ele>213.0</ele><time>2026-05-04T07:41:31.061Z</time></trkpt><trkpt lat="46.1386832" lon="9.4533097"><ele>213.0</ele><time>2026-05-04T07:41:33.059Z</time></trkpt><trkpt lat="46.1386848" lon="9.453487"><ele>213.0</ele><time>2026-05-04T07:41:35.06Z</time></trkpt><trkpt lat="46.1386823" lon="9.4535778"><ele>213.0</ele><time>2026-05-04T07:41:36.06Z</time></trkpt><trkpt lat="46.1386827" lon="9.4536723"><ele>213.0</ele><time>2026-05-04T07:41:37.061Z</time></trkpt><trkpt lat="46.1386842" lon="9.4538466"><ele>213.0</ele><time>2026-05-04T07:41:39.059Z</time></trkpt><trkpt lat="46.13869" lon="9.4540199"><ele>213.0</ele><time>2026-05-04T07:41:41.06Z</time></trkpt><trkpt lat="46.1386935" lon="9.4541981"><ele>213.0</ele><time>2026-05-04T07:41:43.061Z</time></trkpt><trkpt lat="46.138698" lon="9.454366"><ele>213.0</ele><time>2026-05-04T07:41:45.059Z</time></trkpt><trkpt lat="46.1386958" lon="9.4545402"><ele>213.0</ele><time>2026-05-04T07:41:47.06Z</time></trkpt><trkpt lat="46.1386903" lon="9.4547108"><ele>213.0</ele><time>2026-05-04T07:41:49.059Z</time></trkpt><trkpt lat="46.1386887" lon="9.4548848"><ele>213.0</ele><time>2026-05-04T07:41:51.06Z</time></trkpt><trkpt lat="46.1386897" lon="9.4550595"><ele>213.0</ele><time>2026-05-04T07:41:53.059Z</time></trkpt><trkpt lat="46.1386927" lon="9.4552366"><ele>213.0</ele><time>2026-05-04T07:41:55.06Z</time></trkpt><trkpt lat="46.1386951" lon="9.4553283"><ele>213.0</ele><time>2026-05-04T07:41:56.059Z</time></trkpt><trkpt lat="46.1386943" lon="9.4554239"><ele>213.0</ele><time>2026-05-04T07:41:57.059Z</time></trkpt><trkpt lat="46.1386956" lon="9.455516"><ele>213.0</ele><time>2026-05-04T07:41:58.059Z</time></trkpt><trkpt lat="46.1387009" lon="9.4556074"><ele>213.0</ele><time>2026-05-04T07:41:59.06Z</time></trkpt><trkpt lat="46.1387138" lon="9.4557776"><ele>213.0</ele><time>2026-05-04T07:42:01.06Z</time></trkpt><trkpt lat="46.1387813" lon="9.4559146"><ele>213.5</ele><time>2026-05-04T07:42:03.06Z</time></trkpt><trkpt lat="46.1388885" lon="9.455977"><ele>214.0</ele><time>2026-05-04T07:42:05.059Z</time></trkpt><trkpt lat="46.1390075" lon="9.4559704"><ele>214.5</ele><time>2026-05-04T07:42:07.059Z</time></trkpt><trkpt lat="46.1391255" lon="9.4559774"><ele>215.0</ele><time>2026-05-04T07:42:09.059Z</time></trkpt><trkpt lat="46.139254" lon="9.4559754"><ele>213.0</ele><time>2026-05-04T07:42:11.06Z</time></trkpt><trkpt lat="46.1393767" lon="9.4559654"><ele>211.0</ele><time>2026-05-04T07:42:13.06Z</time></trkpt><trkpt lat="46.1394986" lon="9.4559763"><ele>209.0</ele><time>2026-05-04T07:42:15.06Z</time></trkpt><trkpt lat="46.1396199" lon="9.4559825"><ele>207.0</ele><time>2026-05-04T07:42:17.06Z</time></trkpt><trkpt lat="46.1397191" lon="9.4559812"><ele>207.0</ele><time>2026-05-04T07:42:19.059Z</time></trkpt><trkpt lat="46.1398201" lon="9.4559161"><ele>207.0</ele><time>2026-05-04T07:42:21.06Z</time></trkpt><trkpt lat="46.1399121" lon="9.4558014"><ele>207.0</ele><time>2026-05-04T07:42:23.06Z</time></trkpt><trkpt lat="46.1399875" lon="9.4556644"><ele>207.0</ele><time>2026-05-04T07:42:25.059Z</time></trkpt><trkpt lat="46.1400614" lon="9.4555204"><ele>207.00000000000003</ele><time>2026-05-04T07:42:27.06Z</time></trkpt><trkpt lat="46.1400985" lon="9.4554398"><ele>207.0</ele><time>2026-05-04T07:42:28.06Z</time></trkpt><trkpt lat="46.1401326" lon="9.4553546"><ele>207.0</ele><time>2026-05-04T07:42:29.06Z</time></trkpt><trkpt lat="46.1401565" lon="9.4552663"><ele>207.0</ele><time>2026-05-04T07:42:30.06Z</time></trkpt><trkpt lat="46.1401753" lon="9.4551761"><ele>207.0</ele><time>2026-05-04T07:42:31.06Z</time></trkpt><trkpt lat="46.1402005" lon="9.4550908"><ele>207.00000000000003</ele><time>2026-05-04T07:42:32.06Z</time></trkpt><trkpt lat="46.1402273" lon="9.455007"><ele>207.0</ele><time>2026-05-04T07:42:33.059Z</time></trkpt><trkpt lat="46.1403098" lon="9.4547659"><ele>207.00000000000003</ele><time>2026-05-04T07:42:36.061Z</time></trkpt><trkpt lat="46.140332" lon="9.4546743"><ele>207.0</ele><time>2026-05-04T07:42:37.061Z</time></trkpt><trkpt lat="46.1403578" lon="9.4545852"><ele>207.0</ele><time>2026-05-04T07:42:38.06Z</time></trkpt><trkpt lat="46.140383" lon="9.4544927"><ele>207.0</ele><time>2026-05-04T07:42:39.061Z</time></trkpt><trkpt lat="46.140407" lon="9.4544077"><ele>207.0</ele><time>2026-05-04T07:42:40.06Z</time></trkpt><trkpt lat="46.1404381" lon="9.4543254"><ele>207.00000000000003</ele><time>2026-05-04T07:42:41.059Z</time></trkpt><trkpt lat="46.1404663" lon="9.4542417"><ele>207.0</ele><time>2026-05-04T07:42:42.06Z</time></trkpt><trkpt lat="46.1405239" lon="9.4540878"><ele>206.5</ele><time>2026-05-04T07:42:44.059Z</time></trkpt><trkpt lat="46.1405887" lon="9.4539357"><ele>206.0</ele><time>2026-05-04T07:42:46.06Z</time></trkpt><trkpt lat="46.1406452" lon="9.4537834"><ele>205.5</ele><time>2026-05-04T07:42:48.061Z</time></trkpt><trkpt lat="46.14068" lon="9.4536344"><ele>205.0</ele><time>2026-05-04T07:42:50.061Z</time></trkpt><trkpt lat="46.1407448" lon="9.4535108"><ele>204.83333333333331</ele><time>2026-05-04T07:42:52.06Z</time></trkpt><trkpt lat="46.1408521" lon="9.4534353"><ele>204.66666666666666</ele><time>2026-05-04T07:42:54.059Z</time></trkpt><trkpt lat="46.1409181" lon="9.4533968"><ele>204.5</ele><time>2026-05-04T07:42:55.061Z</time></trkpt><trkpt lat="46.1409831" lon="9.4533588"><ele>204.33333333333331</ele><time>2026-05-04T07:42:56.06Z</time></trkpt><trkpt lat="46.141045" lon="9.4533234"><ele>204.16666666666666</ele><time>2026-05-04T07:42:57.06Z</time></trkpt><trkpt lat="46.1411121" lon="9.4532865"><ele>204.0</ele><time>2026-05-04T07:42:58.061Z</time></trkpt><trkpt lat="46.1411778" lon="9.4532466"><ele>204.0</ele><time>2026-05-04T07:42:59.061Z</time></trkpt><trkpt lat="46.1412416" lon="9.4532066"><ele>204.0</ele><time>2026-05-04T07:43:00.06Z</time></trkpt><trkpt lat="46.1413069" lon="9.4531636"><ele>204.0</ele><time>2026-05-04T07:43:01.06Z</time></trkpt><trkpt lat="46.1413752" lon="9.4531311"><ele>204.0</ele><time>2026-05-04T07:43:02.06Z</time></trkpt><trkpt lat="46.1414329" lon="9.4530835"><ele>204.0</ele><time>2026-05-04T07:43:03.061Z</time></trkpt><trkpt lat="46.1415035" lon="9.4530482"><ele>204.0</ele><time>2026-05-04T07:43:04.06Z</time></trkpt><trkpt lat="46.1415723" lon="9.453011"><ele>204.0</ele><time>2026-05-04T07:43:05.06Z</time></trkpt><trkpt lat="46.1416429" lon="9.4529748"><ele>203.85714285714286</ele><time>2026-05-04T07:43:06.06Z</time></trkpt><trkpt lat="46.1417123" lon="9.4529328"><ele>203.71428571428572</ele><time>2026-05-04T07:43:07.059Z</time></trkpt><trkpt lat="46.1417843" lon="9.4528928"><ele>203.57142857142856</ele><time>2026-05-04T07:43:08.061Z</time></trkpt><trkpt lat="46.1418577" lon="9.4528514"><ele>203.42857142857144</ele><time>2026-05-04T07:43:09.06Z</time></trkpt><trkpt lat="46.1419132" lon="9.4528085"><ele>203.28571428571428</ele><time>2026-05-04T07:43:10.061Z</time></trkpt><trkpt lat="46.1419744" lon="9.4527706"><ele>203.14285714285714</ele><time>2026-05-04T07:43:11.06Z</time></trkpt><trkpt lat="46.1420431" lon="9.452736"><ele>203.0</ele><time>2026-05-04T07:43:12.059Z</time></trkpt><trkpt lat="46.142123" lon="9.4527261"><ele>203.00000000000003</ele><time>2026-05-04T07:43:13.061Z</time></trkpt><trkpt lat="46.142193" lon="9.4526995"><ele>203.0</ele><time>2026-05-04T07:43:14.061Z</time></trkpt><trkpt lat="46.1422721" lon="9.4527093"><ele>203.0</ele><time>2026-05-04T07:43:15.061Z</time></trkpt><trkpt lat="46.1423476" lon="9.4527313"><ele>203.0</ele><time>2026-05-04T07:43:16.06Z</time></trkpt><trkpt lat="46.1424238" lon="9.4527545"><ele>203.00000000000003</ele><time>2026-05-04T07:43:17.06Z</time></trkpt><trkpt lat="46.142496" lon="9.4527804"><ele>203.0</ele><time>2026-05-04T07:43:18.059Z</time></trkpt><trkpt lat="46.1425691" lon="9.4528125"><ele>203.00000000000003</ele><time>2026-05-04T07:43:19.06Z</time></trkpt><trkpt lat="46.1426384" lon="9.4528421"><ele>203.0</ele><time>2026-05-04T07:43:20.06Z</time></trkpt><trkpt lat="46.1427068" lon="9.4528616"><ele>203.0</ele><time>2026-05-04T07:43:21.061Z</time></trkpt><trkpt lat="46.1427725" lon="9.4528651"><ele>203.0</ele><time>2026-05-04T07:43:22.059Z</time></trkpt><trkpt lat="46.1429019" lon="9.4528653"><ele>203.00000000000003</ele><time>2026-05-04T07:43:24.061Z</time></trkpt><trkpt lat="46.1429799" lon="9.4528127"><ele>203.0</ele><time>2026-05-04T07:43:25.06Z</time></trkpt><trkpt lat="46.1430483" lon="9.4528041"><ele>203.0</ele><time>2026-05-04T07:43:26.06Z</time></trkpt><trkpt lat="46.1431744" lon="9.4527967"><ele>203.0</ele><time>2026-05-04T07:43:28.06Z</time></trkpt><trkpt lat="46.1432418" lon="9.4527923"><ele>203.0</ele><time>2026-05-04T07:43:29.061Z</time></trkpt><trkpt lat="46.1433649" lon="9.452782"><ele>203.0</ele><time>2026-05-04T07:43:31.06Z</time></trkpt><trkpt lat="46.143439" lon="9.4527806"><ele>203.0</ele><time>2026-05-04T07:43:32.06Z</time></trkpt><trkpt lat="46.1435057" lon="9.4527756"><ele>203.0</ele><time>2026-05-04T07:43:33.061Z</time></trkpt><trkpt lat="46.143569" lon="9.4527899"><ele>203.0</ele><time>2026-05-04T07:43:34.06Z</time></trkpt><trkpt lat="46.1436312" lon="9.4528191"><ele>203.0</ele><time>2026-05-04T07:43:35.06Z</time></trkpt><trkpt lat="46.1436949" lon="9.452863"><ele>203.0</ele><time>2026-05-04T07:43:36.059Z</time></trkpt><trkpt lat="46.1437517" lon="9.4529125"><ele>203.0</ele><time>2026-05-04T07:43:37.06Z</time></trkpt><trkpt lat="46.143811" lon="9.4529702"><ele>203.0</ele><time>2026-05-04T07:43:38.06Z</time></trkpt><trkpt lat="46.1438666" lon="9.4530351"><ele>203.0</ele><time>2026-05-04T07:43:39.062Z</time></trkpt><trkpt lat="46.1439109" lon="9.4531012"><ele>203.0</ele><time>2026-05-04T07:43:40.061Z</time></trkpt><trkpt lat="46.1439483" lon="9.4531746"><ele>203.0</ele><time>2026-05-04T07:43:41.06Z</time></trkpt><trkpt lat="46.1439828" lon="9.4533494"><ele>203.0</ele><time>2026-05-04T07:43:43.061Z</time></trkpt><trkpt lat="46.1440056" lon="9.4535227"><ele>203.0</ele><time>2026-05-04T07:43:45.061Z</time></trkpt><trkpt lat="46.1440434" lon="9.4536763"><ele>203.0</ele><time>2026-05-04T07:43:47.06Z</time></trkpt><trkpt lat="46.1440831" lon="9.4538357"><ele>203.00000000000003</ele><time>2026-05-04T07:43:49.06Z</time></trkpt><trkpt lat="46.1441181" lon="9.4539739"><ele>203.0</ele><time>2026-05-04T07:43:51.059Z</time></trkpt><trkpt lat="46.1441491" lon="9.4540915"><ele>203.0</ele><time>2026-05-04T07:43:53.06Z</time></trkpt><trkpt lat="46.1441693" lon="9.4541869"><ele>203.0</ele><time>2026-05-04T07:43:55.06Z</time></trkpt><trkpt lat="46.144199" lon="9.454307"><ele>203.00000000000003</ele><time>2026-05-04T07:43:58.059Z</time></trkpt><trkpt lat="46.1442751" lon="9.4543552"><ele>203.0</ele><time>2026-05-04T07:44:01.06Z</time></trkpt><trkpt lat="46.1443571" lon="9.4543655"><ele>203.0</ele><time>2026-05-04T07:44:03.06Z</time></trkpt><trkpt lat="46.1444555" lon="9.4543913"><ele>203.0</ele><time>2026-05-04T07:44:05.06Z</time></trkpt><trkpt lat="46.1445425" lon="9.4544178"><ele>203.0</ele><time>2026-05-04T07:44:07.06Z</time></trkpt><trkpt lat="46.1446324" lon="9.4544489"><ele>203.0</ele><time>2026-05-04T07:44:09.061Z</time></trkpt><trkpt lat="46.1447291" lon="9.4545039"><ele>203.0</ele><time>2026-05-04T07:44:11.062Z</time></trkpt><trkpt lat="46.1448197" lon="9.4545523"><ele>202.75</ele><time>2026-05-04T07:44:13.061Z</time></trkpt><trkpt lat="46.1449194" lon="9.4546053"><ele>202.5</ele><time>2026-05-04T07:44:15.059Z</time></trkpt><trkpt lat="46.1450394" lon="9.4546587"><ele>202.25</ele><time>2026-05-04T07:44:17.06Z</time></trkpt><trkpt lat="46.1451374" lon="9.4547081"><ele>202.0</ele><time>2026-05-04T07:44:19.06Z</time></trkpt><trkpt lat="46.145244" lon="9.4547664"><ele>202.8</ele><time>2026-05-04T07:44:21.06Z</time></trkpt><trkpt lat="46.1453371" lon="9.4548356"><ele>203.6</ele><time>2026-05-04T07:44:23.06Z</time></trkpt><trkpt lat="46.1454473" lon="9.4549014"><ele>204.4</ele><time>2026-05-04T07:44:25.061Z</time></trkpt><trkpt lat="46.1455109" lon="9.4549319"><ele>205.20000000000002</ele><time>2026-05-04T07:44:26.061Z</time></trkpt><trkpt lat="46.1456327" lon="9.4549736"><ele>206.0</ele><time>2026-05-04T07:44:28.061Z</time></trkpt><trkpt lat="46.1456961" lon="9.4549963"><ele>205.0</ele><time>2026-05-04T07:44:29.061Z</time></trkpt><trkpt lat="46.1458126" lon="9.4550422"><ele>204.0</ele><time>2026-05-04T07:44:31.061Z</time></trkpt><trkpt lat="46.1459146" lon="9.4550962"><ele>203.0</ele><time>2026-05-04T07:44:33.061Z</time></trkpt><trkpt lat="46.1460244" lon="9.4551715"><ele>202.0</ele><time>2026-05-04T07:44:35.061Z</time></trkpt><trkpt lat="46.1460931" lon="9.4552059"><ele>201.0</ele><time>2026-05-04T07:44:36.06Z</time></trkpt><trkpt lat="46.1462182" lon="9.4552584"><ele>201.0</ele><time>2026-05-04T07:44:38.061Z</time></trkpt><trkpt lat="46.1462792" lon="9.4552856"><ele>201.0</ele><time>2026-05-04T07:44:39.059Z</time></trkpt><trkpt lat="46.1463406" lon="9.4553222"><ele>201.0</ele><time>2026-05-04T07:44:40.061Z</time></trkpt><trkpt lat="46.1464601" lon="9.4553691"><ele>201.0</ele><time>2026-05-04T07:44:42.06Z</time></trkpt><trkpt lat="46.146565" lon="9.4554403"><ele>201.0</ele><time>2026-05-04T07:44:44.059Z</time></trkpt><trkpt lat="46.1466756" lon="9.4555098"><ele>201.20000000000002</ele><time>2026-05-04T07:44:46.061Z</time></trkpt><trkpt lat="46.1467446" lon="9.4555484"><ele>201.4</ele><time>2026-05-04T07:44:47.06Z</time></trkpt><trkpt lat="46.1468517" lon="9.4556275"><ele>201.6</ele><time>2026-05-04T07:44:49.06Z</time></trkpt><trkpt lat="46.1469581" lon="9.4557054"><ele>201.8</ele><time>2026-05-04T07:44:51.061Z</time></trkpt><trkpt lat="46.1470623" lon="9.4557993"><ele>202.0</ele><time>2026-05-04T07:44:53.06Z</time></trkpt><trkpt lat="46.1471187" lon="9.455849"><ele>202.0</ele><time>2026-05-04T07:44:54.061Z</time></trkpt><trkpt lat="46.1472278" lon="9.4559229"><ele>202.0</ele><time>2026-05-04T07:44:56.06Z</time></trkpt><trkpt lat="46.1473167" lon="9.456014"><ele>202.0</ele><time>2026-05-04T07:44:58.06Z</time></trkpt><trkpt lat="46.1474231" lon="9.4561185"><ele>202.0</ele><time>2026-05-04T07:45:00.059Z</time></trkpt><trkpt lat="46.1474811" lon="9.4561702"><ele>202.0</ele><time>2026-05-04T07:45:01.061Z</time></trkpt><trkpt lat="46.1475864" lon="9.456263"><ele>202.6</ele><time>2026-05-04T07:45:03.06Z</time></trkpt><trkpt lat="46.1476438" lon="9.4563116"><ele>203.2</ele><time>2026-05-04T07:45:04.061Z</time></trkpt><trkpt lat="46.1477594" lon="9.4564239"><ele>203.8</ele><time>2026-05-04T07:45:06.061Z</time></trkpt><trkpt lat="46.1478637" lon="9.456536"><ele>204.4</ele><time>2026-05-04T07:45:08.061Z</time></trkpt><trkpt lat="46.1479441" lon="9.4566341"><ele>205.0</ele><time>2026-05-04T07:45:10.061Z</time></trkpt><trkpt lat="46.1479979" lon="9.4566853"><ele>205.0</ele><time>2026-05-04T07:45:11.061Z</time></trkpt><trkpt lat="46.1480529" lon="9.4567312"><ele>205.0</ele><time>2026-05-04T07:45:12.06Z</time></trkpt><trkpt lat="46.1481625" lon="9.4568448"><ele>205.0</ele><time>2026-05-04T07:45:14.062Z</time></trkpt><trkpt lat="46.1482656" lon="9.4569494"><ele>205.0</ele><time>2026-05-04T07:45:16.06Z</time></trkpt><trkpt lat="46.1483173" lon="9.4570141"><ele>205.0</ele><time>2026-05-04T07:45:17.062Z</time></trkpt><trkpt lat="46.1484055" lon="9.4571321"><ele>204.4</ele><time>2026-05-04T07:45:19.062Z</time></trkpt><trkpt lat="46.1484975" lon="9.4572477"><ele>203.8</ele><time>2026-05-04T07:45:21.059Z</time></trkpt><trkpt lat="46.1485474" lon="9.4573039"><ele>203.2</ele><time>2026-05-04T07:45:22.061Z</time></trkpt><trkpt lat="46.1486365" lon="9.4574275"><ele>202.6</ele><time>2026-05-04T07:45:24.06Z</time></trkpt><trkpt lat="46.1486801" lon="9.4574995"><ele>202.0</ele><time>2026-05-04T07:45:25.061Z</time></trkpt><trkpt lat="46.1487661" lon="9.4576163"><ele>202.0</ele><time>2026-05-04T07:45:27.061Z</time></trkpt><trkpt lat="46.1488587" lon="9.457757"><ele>202.0</ele><time>2026-05-04T07:45:29.061Z</time></trkpt><trkpt lat="46.1489312" lon="9.4578716"><ele>202.0</ele><time>2026-05-04T07:45:31.06Z</time></trkpt><trkpt lat="46.1489748" lon="9.4579419"><ele>202.0</ele><time>2026-05-04T07:45:32.06Z</time></trkpt><trkpt lat="46.1490265" lon="9.4580177"><ele>202.0</ele><time>2026-05-04T07:45:33.061Z</time></trkpt><trkpt lat="46.1491097" lon="9.4581612"><ele>202.33333333333331</ele><time>2026-05-04T07:45:35.061Z</time></trkpt><trkpt lat="46.1491487" lon="9.4582383"><ele>202.66666666666666</ele><time>2026-05-04T07:45:36.061Z</time></trkpt><trkpt lat="46.1492169" lon="9.4583799"><ele>203.0</ele><time>2026-05-04T07:45:38.061Z</time></trkpt><trkpt lat="46.1492558" lon="9.4584543"><ele>203.33333333333331</ele><time>2026-05-04T07:45:39.059Z</time></trkpt><trkpt lat="46.1492976" lon="9.4585244"><ele>203.66666666666666</ele><time>2026-05-04T07:45:40.059Z</time></trkpt><trkpt lat="46.1493383" lon="9.4586025"><ele>204.0</ele><time>2026-05-04T07:45:41.061Z</time></trkpt><trkpt lat="46.1494044" lon="9.4587407"><ele>203.79999999999998</ele><time>2026-05-04T07:45:43.061Z</time></trkpt><trkpt lat="46.1494547" lon="9.4588856"><ele>203.6</ele><time>2026-05-04T07:45:45.06Z</time></trkpt><trkpt lat="46.1495019" lon="9.4590415"><ele>203.4</ele><time>2026-05-04T07:45:47.059Z</time></trkpt><trkpt lat="46.1495181" lon="9.4591326"><ele>203.2</ele><time>2026-05-04T07:45:48.062Z</time></trkpt><trkpt lat="46.1495356" lon="9.4592245"><ele>203.0</ele><time>2026-05-04T07:45:49.062Z</time></trkpt><trkpt lat="46.149551" lon="9.4593984"><ele>203.0</ele><time>2026-05-04T07:45:51.06Z</time></trkpt><trkpt lat="46.1495372" lon="9.4595753"><ele>203.0</ele><time>2026-05-04T07:45:53.061Z</time></trkpt><trkpt lat="46.1495114" lon="9.4596645"><ele>203.0</ele><time>2026-05-04T07:45:54.061Z</time></trkpt><trkpt lat="46.14945" lon="9.4598068"><ele>203.0</ele><time>2026-05-04T07:45:56.059Z</time></trkpt><trkpt lat="46.1493973" lon="9.4599449"><ele>203.0</ele><time>2026-05-04T07:45:58.06Z</time></trkpt><trkpt lat="46.1493589" lon="9.4600237"><ele>203.00000000000003</ele><time>2026-05-04T07:45:59.062Z</time></trkpt><trkpt lat="46.1493338" lon="9.4601464"><ele>203.0</ele><time>2026-05-04T07:46:01.06Z</time></trkpt><trkpt lat="46.1493111" lon="9.4602691"><ele>203.0</ele><time>2026-05-04T07:46:02.059Z</time></trkpt><trkpt lat="46.149273" lon="9.4603706"><ele>203.0</ele><time>2026-05-04T07:46:04.06Z</time></trkpt><trkpt lat="46.1492496" lon="9.4604587"><ele>203.00000000000003</ele><time>2026-05-04T07:46:06.061Z</time></trkpt><trkpt lat="46.14921" lon="9.4605797"><ele>203.0</ele><time>2026-05-04T07:46:09.06Z</time></trkpt><trkpt lat="46.1491825" lon="9.4606836"><ele>203.0</ele><time>2026-05-04T07:46:11.06Z</time></trkpt><trkpt lat="46.1491596" lon="9.4607953"><ele>203.0</ele><time>2026-05-04T07:46:13.062Z</time></trkpt><trkpt lat="46.1491198" lon="9.4609"><ele>203.0</ele><time>2026-05-04T07:46:15.06Z</time></trkpt><trkpt lat="46.1490701" lon="9.4610074"><ele>203.0</ele><time>2026-05-04T07:46:17.061Z</time></trkpt><trkpt lat="46.1489988" lon="9.4611127"><ele>203.0</ele><time>2026-05-04T07:46:19.059Z</time></trkpt><trkpt lat="46.1489321" lon="9.4612263"><ele>203.0</ele><time>2026-05-04T07:46:21.059Z</time></trkpt><trkpt lat="46.1488421" lon="9.4613449"><ele>203.0</ele><time>2026-05-04T07:46:23.059Z</time></trkpt><trkpt lat="46.1487808" lon="9.4614394"><ele>203.0</ele><time>2026-05-04T07:46:25.06Z</time></trkpt><trkpt lat="46.1487018" lon="9.461535"><ele>203.0</ele><time>2026-05-04T07:46:27.061Z</time></trkpt><trkpt lat="46.1486207" lon="9.4616187"><ele>203.0</ele><time>2026-05-04T07:46:29.061Z</time></trkpt><trkpt lat="46.1485284" lon="9.4617216"><ele>203.0</ele><time>2026-05-04T07:46:31.061Z</time></trkpt><trkpt lat="46.1484414" lon="9.4618395"><ele>203.0</ele><time>2026-05-04T07:46:33.06Z</time></trkpt><trkpt lat="46.1483484" lon="9.4619406"><ele>203.0</ele><time>2026-05-04T07:46:35.061Z</time></trkpt><trkpt lat="46.1482958" lon="9.461992"><ele>203.0</ele><time>2026-05-04T07:46:36.06Z</time></trkpt><trkpt lat="46.1482066" lon="9.4620998"><ele>203.0</ele><time>2026-05-04T07:46:38.061Z</time></trkpt><trkpt lat="46.1481204" lon="9.4621992"><ele>203.25</ele><time>2026-05-04T07:46:40.06Z</time></trkpt><trkpt lat="46.1480254" lon="9.4623074"><ele>203.5</ele><time>2026-05-04T07:46:42.06Z</time></trkpt><trkpt lat="46.1479317" lon="9.4624229"><ele>203.75</ele><time>2026-05-04T07:46:44.061Z</time></trkpt><trkpt lat="46.1478349" lon="9.4625429"><ele>204.0</ele><time>2026-05-04T07:46:46.061Z</time></trkpt><trkpt lat="46.1477469" lon="9.4626613"><ele>204.0</ele><time>2026-05-04T07:46:48.061Z</time></trkpt><trkpt lat="46.1476584" lon="9.4627779"><ele>204.0</ele><time>2026-05-04T07:46:50.062Z</time></trkpt><trkpt lat="46.1476135" lon="9.462842"><ele>204.0</ele><time>2026-05-04T07:46:51.061Z</time></trkpt><trkpt lat="46.1475732" lon="9.462912"><ele>204.0</ele><time>2026-05-04T07:46:52.062Z</time></trkpt><trkpt lat="46.1475291" lon="9.4629806"><ele>204.0</ele><time>2026-05-04T07:46:53.06Z</time></trkpt><trkpt lat="46.1474534" lon="9.4631205"><ele>204.0</ele><time>2026-05-04T07:46:55.061Z</time></trkpt><trkpt lat="46.1473819" lon="9.4632708"><ele>204.2</ele><time>2026-05-04T07:46:57.06Z</time></trkpt><trkpt lat="46.1473085" lon="9.4634103"><ele>204.39999999999998</ele><time>2026-05-04T07:46:59.06Z</time></trkpt><trkpt lat="46.1472737" lon="9.4634887"><ele>204.6</ele><time>2026-05-04T07:47:00.06Z</time></trkpt><trkpt lat="46.147237" lon="9.4635687"><ele>204.8</ele><time>2026-05-04T07:47:01.061Z</time></trkpt><trkpt lat="46.1471835" lon="9.4637268"><ele>205.0</ele><time>2026-05-04T07:47:03.062Z</time></trkpt><trkpt lat="46.1471158" lon="9.4638847"><ele>205.0</ele><time>2026-05-04T07:47:05.061Z</time></trkpt><trkpt lat="46.1470739" lon="9.4639595"><ele>205.0</ele><time>2026-05-04T07:47:06.06Z</time></trkpt><trkpt lat="46.1470372" lon="9.4640335"><ele>205.0</ele><time>2026-05-04T07:47:07.06Z</time></trkpt><trkpt lat="46.1469727" lon="9.4641796"><ele>205.0</ele><time>2026-05-04T07:47:09.061Z</time></trkpt><trkpt lat="46.1469118" lon="9.4643343"><ele>205.0</ele><time>2026-05-04T07:47:11.06Z</time></trkpt><trkpt lat="46.1468532" lon="9.4644886"><ele>204.99999999999997</ele><time>2026-05-04T07:47:13.06Z</time></trkpt><trkpt lat="46.1468228" lon="9.4645703"><ele>205.0</ele><time>2026-05-04T07:47:14.061Z</time></trkpt><trkpt lat="46.1467927" lon="9.4647415"><ele>205.0</ele><time>2026-05-04T07:47:16.061Z</time></trkpt><trkpt lat="46.1467856" lon="9.4649291"><ele>205.0</ele><time>2026-05-04T07:47:18.061Z</time></trkpt><trkpt lat="46.1467796" lon="9.4650226"><ele>204.99999999999997</ele><time>2026-05-04T07:47:19.06Z</time></trkpt><trkpt lat="46.1467769" lon="9.4651177"><ele>205.0</ele><time>2026-05-04T07:47:20.061Z</time></trkpt><trkpt lat="46.1467659" lon="9.4652231"><ele>204.85714285714286</ele><time>2026-05-04T07:47:21.061Z</time></trkpt><trkpt lat="46.1467612" lon="9.465325"><ele>204.7142857142857</ele><time>2026-05-04T07:47:22.06Z</time></trkpt><trkpt lat="46.1467611" lon="9.4654282"><ele>204.57142857142856</ele><time>2026-05-04T07:47:23.06Z</time></trkpt><trkpt lat="46.1467589" lon="9.4655321"><ele>204.42857142857144</ele><time>2026-05-04T07:47:24.061Z</time></trkpt><trkpt lat="46.1467586" lon="9.465641"><ele>204.28571428571428</ele><time>2026-05-04T07:47:25.061Z</time></trkpt><trkpt lat="46.1467739" lon="9.4657409"><ele>204.14285714285714</ele><time>2026-05-04T07:47:26.061Z</time></trkpt><trkpt lat="46.1467986" lon="9.4658428"><ele>204.0</ele><time>2026-05-04T07:47:27.061Z</time></trkpt><trkpt lat="46.1468272" lon="9.4659317"><ele>204.0</ele><time>2026-05-04T07:47:28.061Z</time></trkpt><trkpt lat="46.1468455" lon="9.4660226"><ele>204.0</ele><time>2026-05-04T07:47:29.06Z</time></trkpt><trkpt lat="46.1468653" lon="9.4661112"><ele>204.0</ele><time>2026-05-04T07:47:30.06Z</time></trkpt><trkpt lat="46.1468985" lon="9.4662604"><ele>204.0</ele><time>2026-05-04T07:47:32.061Z</time></trkpt><trkpt lat="46.1469175" lon="9.4663561"><ele>204.0</ele><time>2026-05-04T07:47:33.062Z</time></trkpt><trkpt lat="46.1469357" lon="9.466458"><ele>204.0</ele><time>2026-05-04T07:47:34.061Z</time></trkpt><trkpt lat="46.14699" lon="9.4666334"><ele>204.0</ele><time>2026-05-04T07:47:36.06Z</time></trkpt><trkpt lat="46.1470115" lon="9.4667341"><ele>204.0</ele><time>2026-05-04T07:47:37.061Z</time></trkpt><trkpt lat="46.1470425" lon="9.4669097"><ele>204.0</ele><time>2026-05-04T07:47:39.061Z</time></trkpt><trkpt lat="46.1470646" lon="9.4669969"><ele>204.0</ele><time>2026-05-04T07:47:40.061Z</time></trkpt><trkpt lat="46.1470844" lon="9.4670986"><ele>204.0</ele><time>2026-05-04T07:47:41.06Z</time></trkpt><trkpt lat="46.147093" lon="9.4671981"><ele>204.0</ele><time>2026-05-04T07:47:42.06Z</time></trkpt><trkpt lat="46.1471265" lon="9.4673656"><ele>204.0</ele><time>2026-05-04T07:47:44.061Z</time></trkpt><trkpt lat="46.1471628" lon="9.4675428"><ele>204.0</ele><time>2026-05-04T07:47:46.061Z</time></trkpt><trkpt lat="46.1471786" lon="9.4676402"><ele>204.0</ele><time>2026-05-04T07:47:47.062Z</time></trkpt><trkpt lat="46.1471988" lon="9.4677302"><ele>204.0</ele><time>2026-05-04T07:47:48.061Z</time></trkpt><trkpt lat="46.1472441" lon="9.4678889"><ele>204.0</ele><time>2026-05-04T07:47:50.06Z</time></trkpt><trkpt lat="46.14728" lon="9.4680513"><ele>204.0</ele><time>2026-05-04T07:47:52.061Z</time></trkpt><trkpt lat="46.1473007" lon="9.4681377"><ele>204.0</ele><time>2026-05-04T07:47:53.061Z</time></trkpt><trkpt lat="46.1473496" lon="9.4682958"><ele>204.0</ele><time>2026-05-04T07:47:55.06Z</time></trkpt><trkpt lat="46.1474022" lon="9.4684477"><ele>204.0</ele><time>2026-05-04T07:47:57.06Z</time></trkpt><trkpt lat="46.1474557" lon="9.468611"><ele>204.0</ele><time>2026-05-04T07:47:59.061Z</time></trkpt><trkpt lat="46.1474716" lon="9.4687105"><ele>204.14285714285714</ele><time>2026-05-04T07:48:00.061Z</time></trkpt><trkpt lat="46.1474722" lon="9.4688106"><ele>204.28571428571428</ele><time>2026-05-04T07:48:01.06Z</time></trkpt><trkpt lat="46.1474299" lon="9.4689733"><ele>204.42857142857144</ele><time>2026-05-04T07:48:03.06Z</time></trkpt><trkpt lat="46.1473966" lon="9.469051"><ele>204.57142857142856</ele><time>2026-05-04T07:48:04.062Z</time></trkpt><trkpt lat="46.1473577" lon="9.4691281"><ele>204.7142857142857</ele><time>2026-05-04T07:48:05.06Z</time></trkpt><trkpt lat="46.147327" lon="9.4692078"><ele>204.85714285714286</ele><time>2026-05-04T07:48:06.061Z</time></trkpt><trkpt lat="46.1472974" lon="9.4692917"><ele>205.0</ele><time>2026-05-04T07:48:07.06Z</time></trkpt><trkpt lat="46.1472664" lon="9.4693724"><ele>205.0</ele><time>2026-05-04T07:48:08.061Z</time></trkpt><trkpt lat="46.147214" lon="9.4695227"><ele>205.0</ele><time>2026-05-04T07:48:10.061Z</time></trkpt><trkpt lat="46.1471674" lon="9.4696769"><ele>205.0</ele><time>2026-05-04T07:48:12.06Z</time></trkpt><trkpt lat="46.1471752" lon="9.4698442"><ele>205.0</ele><time>2026-05-04T07:48:14.062Z</time></trkpt><trkpt lat="46.1472357" lon="9.4699365"><ele>205.0</ele><time>2026-05-04T07:48:16.062Z</time></trkpt><trkpt lat="46.1473433" lon="9.4699969"><ele>204.99999999999997</ele><time>2026-05-04T07:48:18.061Z</time></trkpt><trkpt lat="46.1474352" lon="9.4700465"><ele>205.0</ele><time>2026-05-04T07:48:20.061Z</time></trkpt><trkpt lat="46.1475001" lon="9.4701174"><ele>205.0</ele><time>2026-05-04T07:48:22.061Z</time></trkpt><trkpt lat="46.1475593" lon="9.4702138"><ele>205.0</ele><time>2026-05-04T07:48:24.06Z</time></trkpt><trkpt lat="46.1476226" lon="9.4703392"><ele>204.99999999999997</ele><time>2026-05-04T07:48:26.06Z</time></trkpt><trkpt lat="46.1476632" lon="9.4704212"><ele>205.0</ele><time>2026-05-04T07:48:27.061Z</time></trkpt><trkpt lat="46.147703" lon="9.4705052"><ele>205.2</ele><time>2026-05-04T07:48:28.061Z</time></trkpt><trkpt lat="46.1477378" lon="9.4705888"><ele>205.4</ele><time>2026-05-04T07:48:29.062Z</time></trkpt><trkpt lat="46.1478026" lon="9.4707295"><ele>205.60000000000002</ele><time>2026-05-04T07:48:31.061Z</time></trkpt><trkpt lat="46.1478634" lon="9.4708728"><ele>205.8</ele><time>2026-05-04T07:48:33.061Z</time></trkpt><trkpt lat="46.1479225" lon="9.4710162"><ele>206.0</ele><time>2026-05-04T07:48:35.061Z</time></trkpt><trkpt lat="46.1479532" lon="9.4711881"><ele>206.0</ele><time>2026-05-04T07:48:37.062Z</time></trkpt><trkpt lat="46.1479514" lon="9.4713289"><ele>206.0</ele><time>2026-05-04T07:48:39.06Z</time></trkpt><trkpt lat="46.1479074" lon="9.4714885"><ele>206.0</ele><time>2026-05-04T07:48:41.06Z</time></trkpt><trkpt lat="46.1478664" lon="9.4716413"><ele>206.0</ele><time>2026-05-04T07:48:43.061Z</time></trkpt><trkpt lat="46.1478743" lon="9.4717454"><ele>206.0</ele><time>2026-05-04T07:48:44.063Z</time></trkpt><trkpt lat="46.1478662" lon="9.4719002"><ele>206.0</ele><time>2026-05-04T07:48:46.062Z</time></trkpt><trkpt lat="46.1478476" lon="9.4719987"><ele>206.0</ele><time>2026-05-04T07:48:47.061Z</time></trkpt><trkpt lat="46.1478284" lon="9.4721836"><ele>206.0</ele><time>2026-05-04T07:48:49.063Z</time></trkpt><trkpt lat="46.147812" lon="9.4723528"><ele>206.0</ele><time>2026-05-04T07:48:51.061Z</time></trkpt><trkpt lat="46.1477923" lon="9.4725203"><ele>206.0</ele><time>2026-05-04T07:48:53.063Z</time></trkpt><trkpt lat="46.1477555" lon="9.4726927"><ele>206.33333333333334</ele><time>2026-05-04T07:48:55.061Z</time></trkpt><trkpt lat="46.1477315" lon="9.4727782"><ele>206.66666666666669</ele><time>2026-05-04T07:48:56.06Z</time></trkpt><trkpt lat="46.1477114" lon="9.4728835"><ele>207.0</ele><time>2026-05-04T07:48:57.061Z</time></trkpt><trkpt lat="46.1476818" lon="9.4729712"><ele>207.33333333333331</ele><time>2026-05-04T07:48:58.061Z</time></trkpt><trkpt lat="46.1476305" lon="9.4731126"><ele>207.66666666666666</ele><time>2026-05-04T07:49:00.061Z</time></trkpt><trkpt lat="46.1475875" lon="9.4732144"><ele>208.0</ele><time>2026-05-04T07:49:01.062Z</time></trkpt><trkpt lat="46.1475469" lon="9.4733667"><ele>207.8</ele><time>2026-05-04T07:49:03.062Z</time></trkpt><trkpt lat="46.1475286" lon="9.4735017"><ele>207.60000000000002</ele><time>2026-05-04T07:49:04.063Z</time></trkpt><trkpt lat="46.147504" lon="9.4735855"><ele>207.39999999999998</ele><time>2026-05-04T07:49:05.061Z</time></trkpt><trkpt lat="46.1474487" lon="9.4737589"><ele>207.2</ele><time>2026-05-04T07:49:07.062Z</time></trkpt><trkpt lat="46.1474385" lon="9.4739019"><ele>207.0</ele><time>2026-05-04T07:49:10.06Z</time></trkpt><trkpt lat="46.1473928" lon="9.4740354"><ele>207.6</ele><time>2026-05-04T07:49:13.062Z</time></trkpt><trkpt lat="46.1473561" lon="9.474144"><ele>208.2</ele><time>2026-05-04T07:49:15.062Z</time></trkpt><trkpt lat="46.1472948" lon="9.4743478"><ele>208.8</ele><time>2026-05-04T07:49:18.06Z</time></trkpt><trkpt lat="46.1472634" lon="9.4744665"><ele>209.4</ele><time>2026-05-04T07:49:19.06Z</time></trkpt><trkpt lat="46.1472371" lon="9.4745587"><ele>210.0</ele><time>2026-05-04T07:49:20.06Z</time></trkpt><trkpt lat="46.1471981" lon="9.4747197"><ele>210.0</ele><time>2026-05-04T07:49:22.061Z</time></trkpt><trkpt lat="46.147175" lon="9.4748082"><ele>210.0</ele><time>2026-05-04T07:49:23.06Z</time></trkpt><trkpt lat="46.1471499" lon="9.4748927"><ele>210.0</ele><time>2026-05-04T07:49:24.061Z</time></trkpt><trkpt lat="46.1471341" lon="9.4750518"><ele>210.0</ele><time>2026-05-04T07:49:26.06Z</time></trkpt><trkpt lat="46.1471298" lon="9.4751636"><ele>210.0</ele><time>2026-05-04T07:49:28.061Z</time></trkpt><trkpt lat="46.1471227" lon="9.4752999"><ele>210.0</ele><time>2026-05-04T07:49:29.06Z</time></trkpt><trkpt lat="46.1471237" lon="9.4754175"><ele>209.14285714285714</ele><time>2026-05-04T07:49:30.061Z</time></trkpt><trkpt lat="46.1471306" lon="9.4755293"><ele>208.28571428571428</ele><time>2026-05-04T07:49:31.06Z</time></trkpt><trkpt lat="46.1471368" lon="9.4756336"><ele>207.42857142857144</ele><time>2026-05-04T07:49:32.06Z</time></trkpt><trkpt lat="46.1471437" lon="9.4757447"><ele>206.57142857142856</ele><time>2026-05-04T07:49:33.061Z</time></trkpt><trkpt lat="46.1471507" lon="9.4758464"><ele>205.71428571428572</ele><time>2026-05-04T07:49:34.06Z</time></trkpt><trkpt lat="46.1471584" lon="9.4759417"><ele>204.85714285714286</ele><time>2026-05-04T07:49:35.062Z</time></trkpt><trkpt lat="46.1471663" lon="9.4760401"><ele>204.0</ele><time>2026-05-04T07:49:36.06Z</time></trkpt><trkpt lat="46.1471731" lon="9.476135"><ele>204.16666666666666</ele><time>2026-05-04T07:49:37.062Z</time></trkpt><trkpt lat="46.1471885" lon="9.4763169"><ele>204.33333333333331</ele><time>2026-05-04T07:49:39.061Z</time></trkpt><trkpt lat="46.1471963" lon="9.4764196"><ele>204.5</ele><time>2026-05-04T07:49:40.062Z</time></trkpt><trkpt lat="46.147207" lon="9.4765251"><ele>204.66666666666666</ele><time>2026-05-04T07:49:41.062Z</time></trkpt><trkpt lat="46.1472153" lon="9.4766265"><ele>204.83333333333331</ele><time>2026-05-04T07:49:42.061Z</time></trkpt><trkpt lat="46.147224" lon="9.4767282"><ele>205.0</ele><time>2026-05-04T07:49:43.06Z</time></trkpt><trkpt lat="46.1472377" lon="9.4768303"><ele>204.99999999999997</ele><time>2026-05-04T07:49:44.061Z</time></trkpt><trkpt lat="46.1472511" lon="9.4769206"><ele>205.0</ele><time>2026-05-04T07:49:45.061Z</time></trkpt><trkpt lat="46.1472978" lon="9.4770919"><ele>205.0</ele><time>2026-05-04T07:49:47.062Z</time></trkpt><trkpt lat="46.1473342" lon="9.4772628"><ele>205.0</ele><time>2026-05-04T07:49:49.061Z</time></trkpt><trkpt lat="46.1473395" lon="9.4773537"><ele>204.99999999999997</ele><time>2026-05-04T07:49:50.061Z</time></trkpt><trkpt lat="46.1473346" lon="9.4774472"><ele>205.0</ele><time>2026-05-04T07:49:51.061Z</time></trkpt><trkpt lat="46.1473054" lon="9.4776131"><ele>205.2</ele><time>2026-05-04T07:49:53.061Z</time></trkpt><trkpt lat="46.1473192" lon="9.4777632"><ele>205.4</ele><time>2026-05-04T07:49:55.061Z</time></trkpt><trkpt lat="46.1474012" lon="9.4778711"><ele>205.60000000000002</ele><time>2026-05-04T07:49:57.061Z</time></trkpt><trkpt lat="46.1474552" lon="9.4779293"><ele>205.8</ele><time>2026-05-04T07:49:58.061Z</time></trkpt><trkpt lat="46.1475482" lon="9.4779869"><ele>206.0</ele><time>2026-05-04T07:50:00.061Z</time></trkpt><trkpt lat="46.147646" lon="9.478007"><ele>206.20000000000002</ele><time>2026-05-04T07:50:02.062Z</time></trkpt><trkpt lat="46.1477359" lon="9.4780331"><ele>206.4</ele><time>2026-05-04T07:50:04.063Z</time></trkpt><trkpt lat="46.1478313" lon="9.4780727"><ele>206.6</ele><time>2026-05-04T07:50:06.061Z</time></trkpt><trkpt lat="46.1479208" lon="9.4781211"><ele>206.8</ele><time>2026-05-04T07:50:08.061Z</time></trkpt><trkpt lat="46.1480254" lon="9.4781559"><ele>207.0</ele><time>2026-05-04T07:50:10.062Z</time></trkpt><trkpt lat="46.1481336" lon="9.4781982"><ele>207.0</ele><time>2026-05-04T07:50:12.062Z</time></trkpt><trkpt lat="46.14824" lon="9.4782402"><ele>207.0</ele><time>2026-05-04T07:50:14.061Z</time></trkpt><trkpt lat="46.1483486" lon="9.4782808"><ele>207.0</ele><time>2026-05-04T07:50:16.062Z</time></trkpt><trkpt lat="46.148439" lon="9.4783798"><ele>207.0</ele><time>2026-05-04T07:50:18.061Z</time></trkpt><trkpt lat="46.1485012" lon="9.4785051"><ele>207.0</ele><time>2026-05-04T07:50:20.062Z</time></trkpt><trkpt lat="46.1485365" lon="9.4786293"><ele>206.5</ele><time>2026-05-04T07:50:22.062Z</time></trkpt><trkpt lat="46.1485713" lon="9.4787807"><ele>206.0</ele><time>2026-05-04T07:50:24.062Z</time></trkpt><trkpt lat="46.1486179" lon="9.4789306"><ele>205.5</ele><time>2026-05-04T07:50:26.062Z</time></trkpt><trkpt lat="46.1486701" lon="9.4790882"><ele>205.0</ele><time>2026-05-04T07:50:28.063Z</time></trkpt><trkpt lat="46.1487232" lon="9.4792416"><ele>205.0</ele><time>2026-05-04T07:50:30.062Z</time></trkpt><trkpt lat="46.1487676" lon="9.4793941"><ele>205.0</ele><time>2026-05-04T07:50:32.061Z</time></trkpt><trkpt lat="46.1488262" lon="9.4795476"><ele>205.0</ele><time>2026-05-04T07:50:34.062Z</time></trkpt><trkpt lat="46.1488643" lon="9.4796316"><ele>205.0</ele><time>2026-05-04T07:50:35.061Z</time></trkpt><trkpt lat="46.1489161" lon="9.4797951"><ele>205.0</ele><time>2026-05-04T07:50:37.061Z</time></trkpt><trkpt lat="46.1489473" lon="9.4799525"><ele>205.0</ele><time>2026-05-04T07:50:39.061Z</time></trkpt><trkpt lat="46.1490121" lon="9.4800922"><ele>205.0</ele><time>2026-05-04T07:50:41.061Z</time></trkpt><trkpt lat="46.1490659" lon="9.4802386"><ele>205.0</ele><time>2026-05-04T07:50:43.062Z</time></trkpt><trkpt lat="46.1491196" lon="9.4803942"><ele>205.0</ele><time>2026-05-04T07:50:45.061Z</time></trkpt><trkpt lat="46.1491645" lon="9.4805582"><ele>205.4</ele><time>2026-05-04T07:50:47.062Z</time></trkpt><trkpt lat="46.1492174" lon="9.4807192"><ele>205.8</ele><time>2026-05-04T07:50:49.062Z</time></trkpt><trkpt lat="46.1492476" lon="9.4807991"><ele>206.2</ele><time>2026-05-04T07:50:50.062Z</time></trkpt><trkpt lat="46.1492991" lon="9.4809523"><ele>206.6</ele><time>2026-05-04T07:50:52.061Z</time></trkpt><trkpt lat="46.1493532" lon="9.4811008"><ele>207.0</ele><time>2026-05-04T07:50:54.061Z</time></trkpt><trkpt lat="46.1494042" lon="9.4812596"><ele>207.0</ele><time>2026-05-04T07:50:56.062Z</time></trkpt><trkpt lat="46.1494477" lon="9.4814143"><ele>207.0</ele><time>2026-05-04T07:50:58.062Z</time></trkpt><trkpt lat="46.1494927" lon="9.4815622"><ele>207.0</ele><time>2026-05-04T07:51:00.061Z</time></trkpt><trkpt lat="46.1495417" lon="9.4817135"><ele>207.0</ele><time>2026-05-04T07:51:02.062Z</time></trkpt><trkpt lat="46.1495693" lon="9.4817952"><ele>207.0</ele><time>2026-05-04T07:51:03.062Z</time></trkpt><trkpt lat="46.1496253" lon="9.4819557"><ele>207.0</ele><time>2026-05-04T07:51:05.062Z</time></trkpt><trkpt lat="46.1496531" lon="9.4820392"><ele>207.0</ele><time>2026-05-04T07:51:06.062Z</time></trkpt><trkpt lat="46.1497017" lon="9.4822161"><ele>207.0</ele><time>2026-05-04T07:51:08.062Z</time></trkpt><trkpt lat="46.1497606" lon="9.4823728"><ele>207.0</ele><time>2026-05-04T07:51:10.062Z</time></trkpt><trkpt lat="46.1497916" lon="9.4824523"><ele>207.0</ele><time>2026-05-04T07:51:11.062Z</time></trkpt><trkpt lat="46.1498202" lon="9.4825385"><ele>207.0</ele><time>2026-05-04T07:51:12.061Z</time></trkpt><trkpt lat="46.1498455" lon="9.4826262"><ele>207.0</ele><time>2026-05-04T07:51:13.062Z</time></trkpt><trkpt lat="46.1498809" lon="9.4827855"><ele>207.0</ele><time>2026-05-04T07:51:15.06Z</time></trkpt><trkpt lat="46.149917" lon="9.4829517"><ele>207.0</ele><time>2026-05-04T07:51:17.061Z</time></trkpt><trkpt lat="46.1499692" lon="9.483112"><ele>207.0</ele><time>2026-05-04T07:51:19.061Z</time></trkpt><trkpt lat="46.149999" lon="9.483208"><ele>207.0</ele><time>2026-05-04T07:51:20.063Z</time></trkpt><trkpt lat="46.1500274" lon="9.4832996"><ele>207.0</ele><time>2026-05-04T07:51:21.061Z</time></trkpt><trkpt lat="46.1500558" lon="9.483385"><ele>207.0</ele><time>2026-05-04T07:51:22.062Z</time></trkpt><trkpt lat="46.1501017" lon="9.4835477"><ele>207.0</ele><time>2026-05-04T07:51:24.062Z</time></trkpt><trkpt lat="46.150153" lon="9.4837115"><ele>207.0</ele><time>2026-05-04T07:51:26.062Z</time></trkpt><trkpt lat="46.1501845" lon="9.4838021"><ele>207.0</ele><time>2026-05-04T07:51:27.061Z</time></trkpt><trkpt lat="46.1502077" lon="9.4838889"><ele>207.0</ele><time>2026-05-04T07:51:28.062Z</time></trkpt><trkpt lat="46.1502317" lon="9.4839764"><ele>206.66666666666666</ele><time>2026-05-04T07:51:29.062Z</time></trkpt><trkpt lat="46.1502725" lon="9.4840493"><ele>206.33333333333331</ele><time>2026-05-04T07:51:30.061Z</time></trkpt><trkpt lat="46.1503003" lon="9.4841345"><ele>206.0</ele><time>2026-05-04T07:51:31.062Z</time></trkpt><trkpt lat="46.1503303" lon="9.4842303"><ele>205.66666666666666</ele><time>2026-05-04T07:51:32.061Z</time></trkpt><trkpt lat="46.15035" lon="9.4843348"><ele>205.33333333333331</ele><time>2026-05-04T07:51:33.061Z</time></trkpt><trkpt lat="46.1503609" lon="9.4844313"><ele>205.0</ele><time>2026-05-04T07:51:34.062Z</time></trkpt><trkpt lat="46.1503692" lon="9.4846017"><ele>205.0</ele><time>2026-05-04T07:51:36.061Z</time></trkpt><trkpt lat="46.1503607" lon="9.4847561"><ele>205.0</ele><time>2026-05-04T07:51:38.062Z</time></trkpt><trkpt lat="46.1503542" lon="9.4849335"><ele>205.0</ele><time>2026-05-04T07:51:40.062Z</time></trkpt><trkpt lat="46.150346" lon="9.4850683"><ele>205.0</ele><time>2026-05-04T07:51:42.062Z</time></trkpt><trkpt lat="46.1503493" lon="9.4852332"><ele>205.0</ele><time>2026-05-04T07:51:44.062Z</time></trkpt><trkpt lat="46.1503513" lon="9.4853358"><ele>205.4</ele><time>2026-05-04T07:51:45.061Z</time></trkpt><trkpt lat="46.1503581" lon="9.4854328"><ele>205.8</ele><time>2026-05-04T07:51:46.062Z</time></trkpt><trkpt lat="46.1503823" lon="9.485619"><ele>206.2</ele><time>2026-05-04T07:51:48.062Z</time></trkpt><trkpt lat="46.150392" lon="9.4857285"><ele>206.6</ele><time>2026-05-04T07:51:49.061Z</time></trkpt><trkpt lat="46.1503941" lon="9.4858611"><ele>207.0</ele><time>2026-05-04T07:51:50.06Z</time></trkpt><trkpt lat="46.1503938" lon="9.4859838"><ele>207.0</ele><time>2026-05-04T07:51:51.062Z</time></trkpt><trkpt lat="46.1503934" lon="9.4861063"><ele>207.0</ele><time>2026-05-04T07:51:52.063Z</time></trkpt><trkpt lat="46.1503935" lon="9.4862345"><ele>207.0</ele><time>2026-05-04T07:51:53.063Z</time></trkpt><trkpt lat="46.1503805" lon="9.4863461"><ele>207.0</ele><time>2026-05-04T07:51:54.064Z</time></trkpt><trkpt lat="46.1503647" lon="9.4864487"><ele>207.0</ele><time>2026-05-04T07:51:55.062Z</time></trkpt><trkpt lat="46.1503443" lon="9.4865355"><ele>207.0</ele><time>2026-05-04T07:51:56.061Z</time></trkpt><trkpt lat="46.1503114" lon="9.4866724"><ele>206.85714285714286</ele><time>2026-05-04T07:51:58.062Z</time></trkpt><trkpt lat="46.1502751" lon="9.4867645"><ele>206.71428571428572</ele><time>2026-05-04T07:52:00.062Z</time></trkpt><trkpt lat="46.1502634" lon="9.4868549"><ele>206.57142857142856</ele><time>2026-05-04T07:52:11.061Z</time></trkpt><trkpt lat="46.1502625" lon="9.4869568"><ele>206.42857142857144</ele><time>2026-05-04T07:52:27.063Z</time></trkpt><trkpt lat="46.150269" lon="9.487071"><ele>206.28571428571428</ele><time>2026-05-04T07:52:31.061Z</time></trkpt><trkpt lat="46.1502653" lon="9.4871826"><ele>206.14285714285714</ele><time>2026-05-04T07:52:34.061Z</time></trkpt><trkpt lat="46.1502643" lon="9.4872771"><ele>206.0</ele><time>2026-05-04T07:52:36.06Z</time></trkpt><trkpt lat="46.1502564" lon="9.4873938"><ele>206.0</ele><time>2026-05-04T07:52:38.061Z</time></trkpt><trkpt lat="46.1502552" lon="9.4875216"><ele>206.0</ele><time>2026-05-04T07:52:40.062Z</time></trkpt><trkpt lat="46.1502546" lon="9.487656"><ele>206.0</ele><time>2026-05-04T07:52:42.062Z</time></trkpt><trkpt lat="46.1502499" lon="9.4878168"><ele>206.0</ele><time>2026-05-04T07:52:44.062Z</time></trkpt><trkpt lat="46.1502523" lon="9.4879758"><ele>206.0</ele><time>2026-05-04T07:52:46.062Z</time></trkpt><trkpt lat="46.1502637" lon="9.4881359"><ele>206.0</ele><time>2026-05-04T07:52:48.062Z</time></trkpt><trkpt lat="46.1502807" lon="9.4882905"><ele>206.0</ele><time>2026-05-04T07:52:50.061Z</time></trkpt><trkpt lat="46.1503035" lon="9.4884627"><ele>206.0</ele><time>2026-05-04T07:52:52.061Z</time></trkpt><trkpt lat="46.1503363" lon="9.4886279"><ele>206.0</ele><time>2026-05-04T07:52:54.063Z</time></trkpt><trkpt lat="46.1503586" lon="9.4887972"><ele>206.00000000000003</ele><time>2026-05-04T07:52:56.062Z</time></trkpt><trkpt lat="46.1503828" lon="9.4889621"><ele>206.0</ele><time>2026-05-04T07:52:58.062Z</time></trkpt><trkpt lat="46.1504019" lon="9.4890513"><ele>206.0</ele><time>2026-05-04T07:52:59.061Z</time></trkpt><trkpt lat="46.1504165" lon="9.4891424"><ele>206.0</ele><time>2026-05-04T07:53:00.062Z</time></trkpt><trkpt lat="46.1504323" lon="9.4892356"><ele>206.00000000000003</ele><time>2026-05-04T07:53:01.062Z</time></trkpt><trkpt lat="46.150459" lon="9.489333"><ele>206.0</ele><time>2026-05-04T07:53:02.062Z</time></trkpt><trkpt lat="46.1504824" lon="9.4894259"><ele>206.0</ele><time>2026-05-04T07:53:03.061Z</time></trkpt><trkpt lat="46.1505013" lon="9.4895153"><ele>206.0</ele><time>2026-05-04T07:53:04.062Z</time></trkpt><trkpt lat="46.1505245" lon="9.4896007"><ele>206.0</ele><time>2026-05-04T07:53:05.062Z</time></trkpt><trkpt lat="46.1505637" lon="9.4897535"><ele>206.0</ele><time>2026-05-04T07:53:07.062Z</time></trkpt><trkpt lat="46.1506069" lon="9.4899131"><ele>206.0</ele><time>2026-05-04T07:53:09.063Z</time></trkpt><trkpt lat="46.1506514" lon="9.490084"><ele>205.99999999999997</ele><time>2026-05-04T07:53:11.062Z</time></trkpt><trkpt lat="46.1506697" lon="9.4901739"><ele>206.0</ele><time>2026-05-04T07:53:12.062Z</time></trkpt><trkpt lat="46.1506868" lon="9.4902636"><ele>206.0</ele><time>2026-05-04T07:53:13.063Z</time></trkpt><trkpt lat="46.150705" lon="9.490357"><ele>206.0</ele><time>2026-05-04T07:53:14.062Z</time></trkpt><trkpt lat="46.1507257" lon="9.4904498"><ele>206.0</ele><time>2026-05-04T07:53:15.062Z</time></trkpt><trkpt lat="46.1507499" lon="9.4905398"><ele>205.99999999999997</ele><time>2026-05-04T07:53:16.062Z</time></trkpt><trkpt lat="46.1507768" lon="9.4906983"><ele>206.0</ele><time>2026-05-04T07:53:18.062Z</time></trkpt><trkpt lat="46.1508118" lon="9.4908823"><ele>206.00000000000003</ele><time>2026-05-04T07:53:20.062Z</time></trkpt><trkpt lat="46.1508276" lon="9.4909775"><ele>206.0</ele><time>2026-05-04T07:53:21.063Z</time></trkpt><trkpt lat="46.1508461" lon="9.4910658"><ele>206.0</ele><time>2026-05-04T07:53:22.061Z</time></trkpt><trkpt lat="46.150865" lon="9.4911576"><ele>206.0</ele><time>2026-05-04T07:53:23.062Z</time></trkpt><trkpt lat="46.1508848" lon="9.4912513"><ele>206.00000000000003</ele><time>2026-05-04T07:53:24.062Z</time></trkpt><trkpt lat="46.1509045" lon="9.4913423"><ele>206.0</ele><time>2026-05-04T07:53:25.062Z</time></trkpt><trkpt lat="46.1509424" lon="9.4915144"><ele>206.00000000000003</ele><time>2026-05-04T07:53:27.063Z</time></trkpt><trkpt lat="46.1509825" lon="9.4916845"><ele>206.0</ele><time>2026-05-04T07:53:29.063Z</time></trkpt><trkpt lat="46.1510055" lon="9.4917733"><ele>206.0</ele><time>2026-05-04T07:53:30.062Z</time></trkpt><trkpt lat="46.1510533" lon="9.4919448"><ele>206.0</ele><time>2026-05-04T07:53:32.063Z</time></trkpt><trkpt lat="46.1510772" lon="9.4920329"><ele>206.00000000000003</ele><time>2026-05-04T07:53:33.062Z</time></trkpt><trkpt lat="46.1510967" lon="9.4921224"><ele>206.0</ele><time>2026-05-04T07:53:34.061Z</time></trkpt><trkpt lat="46.1511151" lon="9.4922137"><ele>206.0</ele><time>2026-05-04T07:53:35.062Z</time></trkpt><trkpt lat="46.1511381" lon="9.4923007"><ele>206.0</ele><time>2026-05-04T07:53:36.063Z</time></trkpt><trkpt lat="46.1511762" lon="9.4924692"><ele>206.0</ele><time>2026-05-04T07:53:38.063Z</time></trkpt><trkpt lat="46.1512001" lon="9.4925539"><ele>206.0</ele><time>2026-05-04T07:53:39.061Z</time></trkpt><trkpt lat="46.1512336" lon="9.4927182"><ele>206.0</ele><time>2026-05-04T07:53:41.062Z</time></trkpt><trkpt lat="46.1512547" lon="9.492902"><ele>205.99999999999997</ele><time>2026-05-04T07:53:43.062Z</time></trkpt><trkpt lat="46.1512681" lon="9.4929985"><ele>206.0</ele><time>2026-05-04T07:53:44.063Z</time></trkpt><trkpt lat="46.1512795" lon="9.4930947"><ele>206.0</ele><time>2026-05-04T07:53:45.062Z</time></trkpt><trkpt lat="46.1512881" lon="9.4931961"><ele>206.0</ele><time>2026-05-04T07:53:46.063Z</time></trkpt><trkpt lat="46.151286" lon="9.4932891"><ele>206.0</ele><time>2026-05-04T07:53:47.062Z</time></trkpt><trkpt lat="46.1512938" lon="9.4933825"><ele>205.99999999999997</ele><time>2026-05-04T07:53:48.062Z</time></trkpt><trkpt lat="46.151299" lon="9.4934746"><ele>206.0</ele><time>2026-05-04T07:53:49.061Z</time></trkpt><trkpt lat="46.1513168" lon="9.4936531"><ele>206.0</ele><time>2026-05-04T07:53:51.063Z</time></trkpt><trkpt lat="46.1513295" lon="9.4938357"><ele>206.0</ele><time>2026-05-04T07:53:53.063Z</time></trkpt><trkpt lat="46.1513301" lon="9.4939346"><ele>206.0</ele><time>2026-05-04T07:53:54.061Z</time></trkpt><trkpt lat="46.1513321" lon="9.4940342"><ele>206.0</ele><time>2026-05-04T07:53:55.062Z</time></trkpt><trkpt lat="46.1513284" lon="9.494125"><ele>206.0</ele><time>2026-05-04T07:53:56.062Z</time></trkpt><trkpt lat="46.1513272" lon="9.4943062"><ele>206.0</ele><time>2026-05-04T07:53:58.062Z</time></trkpt><trkpt lat="46.1513106" lon="9.4944756"><ele>206.0</ele><time>2026-05-04T07:54:00.062Z</time></trkpt><trkpt lat="46.1512926" lon="9.4946498"><ele>206.0</ele><time>2026-05-04T07:54:02.062Z</time></trkpt><trkpt lat="46.1512851" lon="9.4947452"><ele>206.0</ele><time>2026-05-04T07:54:03.062Z</time></trkpt><trkpt lat="46.1512766" lon="9.4948584"><ele>206.0</ele><time>2026-05-04T07:54:04.061Z</time></trkpt><trkpt lat="46.1512614" lon="9.4949584"><ele>206.16666666666669</ele><time>2026-05-04T07:54:05.062Z</time></trkpt><trkpt lat="46.1512484" lon="9.4950516"><ele>206.33333333333334</ele><time>2026-05-04T07:54:06.063Z</time></trkpt><trkpt lat="46.151235" lon="9.495144"><ele>206.5</ele><time>2026-05-04T07:54:07.063Z</time></trkpt><trkpt lat="46.1512202" lon="9.4952365"><ele>206.66666666666669</ele><time>2026-05-04T07:54:08.062Z</time></trkpt><trkpt lat="46.1511886" lon="9.4954081"><ele>206.83333333333334</ele><time>2026-05-04T07:54:10.062Z</time></trkpt><trkpt lat="46.1511683" lon="9.4955002"><ele>207.0</ele><time>2026-05-04T07:54:11.062Z</time></trkpt><trkpt lat="46.1511489" lon="9.4955944"><ele>207.16666666666666</ele><time>2026-05-04T07:54:12.063Z</time></trkpt><trkpt lat="46.1511296" lon="9.4956889"><ele>207.33333333333331</ele><time>2026-05-04T07:54:13.062Z</time></trkpt><trkpt lat="46.151107" lon="9.4957789"><ele>207.5</ele><time>2026-05-04T07:54:14.062Z</time></trkpt><trkpt lat="46.1510624" lon="9.4959481"><ele>207.66666666666666</ele><time>2026-05-04T07:54:16.062Z</time></trkpt><trkpt lat="46.1510122" lon="9.496113"><ele>207.83333333333331</ele><time>2026-05-04T07:54:18.061Z</time></trkpt><trkpt lat="46.1509831" lon="9.4961937"><ele>208.0</ele><time>2026-05-04T07:54:19.061Z</time></trkpt><trkpt lat="46.1509533" lon="9.4962765"><ele>207.99999999999997</ele><time>2026-05-04T07:54:20.062Z</time></trkpt><trkpt lat="46.1509221" lon="9.4963586"><ele>208.0</ele><time>2026-05-04T07:54:21.062Z</time></trkpt><trkpt lat="46.1508594" lon="9.4965125"><ele>208.0</ele><time>2026-05-04T07:54:23.064Z</time></trkpt><trkpt lat="46.1508274" lon="9.4965938"><ele>208.0</ele><time>2026-05-04T07:54:24.062Z</time></trkpt><trkpt lat="46.1507928" lon="9.4966734"><ele>207.99999999999997</ele><time>2026-05-04T07:54:25.061Z</time></trkpt><trkpt lat="46.1507512" lon="9.4967578"><ele>208.0</ele><time>2026-05-04T07:54:26.061Z</time></trkpt><trkpt lat="46.1507128" lon="9.4968372"><ele>208.28571428571428</ele><time>2026-05-04T07:54:27.062Z</time></trkpt><trkpt lat="46.1506751" lon="9.4969148"><ele>208.57142857142858</ele><time>2026-05-04T07:54:28.061Z</time></trkpt><trkpt lat="46.1506337" lon="9.4969839"><ele>208.85714285714286</ele><time>2026-05-04T07:54:29.061Z</time></trkpt><trkpt lat="46.1505552" lon="9.4971218"><ele>209.14285714285714</ele><time>2026-05-04T07:54:31.063Z</time></trkpt><trkpt lat="46.1505111" lon="9.4971919"><ele>209.42857142857144</ele><time>2026-05-04T07:54:32.062Z</time></trkpt><trkpt lat="46.1504704" lon="9.4972634"><ele>209.71428571428572</ele><time>2026-05-04T07:54:33.063Z</time></trkpt><trkpt lat="46.1504337" lon="9.4973395"><ele>210.0</ele><time>2026-05-04T07:54:34.064Z</time></trkpt><trkpt lat="46.1503927" lon="9.4974129"><ele>209.2</ele><time>2026-05-04T07:54:35.062Z</time></trkpt><trkpt lat="46.1503087" lon="9.4975574"><ele>208.4</ele><time>2026-05-04T07:54:37.061Z</time></trkpt><trkpt lat="46.1502655" lon="9.4976301"><ele>207.60000000000002</ele><time>2026-05-04T07:54:38.061Z</time></trkpt><trkpt lat="46.1502244" lon="9.4977016"><ele>206.8</ele><time>2026-05-04T07:54:39.061Z</time></trkpt><trkpt lat="46.1501542" lon="9.4978297"><ele>206.0</ele><time>2026-05-04T07:54:41.063Z</time></trkpt><trkpt lat="46.1500792" lon="9.4979758"><ele>205.83333333333334</ele><time>2026-05-04T07:54:43.063Z</time></trkpt><trkpt lat="46.1500403" lon="9.4980515"><ele>205.66666666666669</ele><time>2026-05-04T07:54:44.063Z</time></trkpt><trkpt lat="46.1500002" lon="9.4981253"><ele>205.5</ele><time>2026-05-04T07:54:45.062Z</time></trkpt><trkpt lat="46.1499654" lon="9.498202"><ele>205.33333333333331</ele><time>2026-05-04T07:54:46.062Z</time></trkpt><trkpt lat="46.1498936" lon="9.4983495"><ele>205.16666666666666</ele><time>2026-05-04T07:54:48.062Z</time></trkpt><trkpt lat="46.1498457" lon="9.4984165"><ele>205.0</ele><time>2026-05-04T07:54:49.063Z</time></trkpt><trkpt lat="46.1497582" lon="9.4985466"><ele>205.2857142857143</ele><time>2026-05-04T07:54:51.062Z</time></trkpt><trkpt lat="46.1496837" lon="9.4986847"><ele>205.57142857142856</ele><time>2026-05-04T07:54:53.063Z</time></trkpt><trkpt lat="46.1496419" lon="9.4987532"><ele>205.85714285714286</ele><time>2026-05-04T07:54:54.062Z</time></trkpt><trkpt lat="46.1495988" lon="9.4988231"><ele>206.14285714285717</ele><time>2026-05-04T07:54:55.061Z</time></trkpt><trkpt lat="46.1495521" lon="9.498894"><ele>206.42857142857144</ele><time>2026-05-04T07:54:56.062Z</time></trkpt><trkpt lat="46.1495091" lon="9.498966"><ele>206.71428571428572</ele><time>2026-05-04T07:54:57.062Z</time></trkpt><trkpt lat="46.1494664" lon="9.4990338"><ele>207.0</ele><time>2026-05-04T07:54:58.063Z</time></trkpt><trkpt lat="46.1493887" lon="9.4991631"><ele>207.00000000000003</ele><time>2026-05-04T07:55:00.062Z</time></trkpt><trkpt lat="46.1493509" lon="9.4992382"><ele>207.0</ele><time>2026-05-04T07:55:01.062Z</time></trkpt><trkpt lat="46.1493108" lon="9.4993109"><ele>207.0</ele><time>2026-05-04T07:55:02.064Z</time></trkpt><trkpt lat="46.1492696" lon="9.4993809"><ele>207.0</ele><time>2026-05-04T07:55:03.063Z</time></trkpt><trkpt lat="46.1492284" lon="9.4994518"><ele>207.0</ele><time>2026-05-04T07:55:04.062Z</time></trkpt><trkpt lat="46.1491871" lon="9.4995221"><ele>207.00000000000003</ele><time>2026-05-04T07:55:05.062Z</time></trkpt><trkpt lat="46.1491095" lon="9.4996616"><ele>207.0</ele><time>2026-05-04T07:55:07.062Z</time></trkpt><trkpt lat="46.1490352" lon="9.4997996"><ele>207.33333333333334</ele><time>2026-05-04T07:55:09.061Z</time></trkpt><trkpt lat="46.1489566" lon="9.4999272"><ele>207.66666666666669</ele><time>2026-05-04T07:55:11.062Z</time></trkpt><trkpt lat="46.148872" lon="9.5000603"><ele>208.0</ele><time>2026-05-04T07:55:13.063Z</time></trkpt><trkpt lat="46.1488256" lon="9.5001228"><ele>208.33333333333334</ele><time>2026-05-04T07:55:14.062Z</time></trkpt><trkpt lat="46.1487768" lon="9.5001861"><ele>208.66666666666669</ele><time>2026-05-04T07:55:15.061Z</time></trkpt><trkpt lat="46.1487329" lon="9.5002573"><ele>209.0</ele><time>2026-05-04T07:55:16.062Z</time></trkpt><trkpt lat="46.1486894" lon="9.5003306"><ele>209.00000000000003</ele><time>2026-05-04T07:55:17.063Z</time></trkpt><trkpt lat="46.148648" lon="9.5004007"><ele>209.0</ele><time>2026-05-04T07:55:18.062Z</time></trkpt><trkpt lat="46.1486069" lon="9.5004706"><ele>209.0</ele><time>2026-05-04T07:55:19.063Z</time></trkpt><trkpt lat="46.1485652" lon="9.5005979"><ele>209.0</ele><time>2026-05-04T07:55:21.061Z</time></trkpt><trkpt lat="46.1484981" lon="9.5007321"><ele>209.00000000000003</ele><time>2026-05-04T07:55:23.062Z</time></trkpt><trkpt lat="46.1484516" lon="9.5008089"><ele>209.0</ele><time>2026-05-04T07:55:24.063Z</time></trkpt><trkpt lat="46.1484066" lon="9.5008858"><ele>209.16666666666669</ele><time>2026-05-04T07:55:25.063Z</time></trkpt><trkpt lat="46.1483628" lon="9.5009593"><ele>209.33333333333334</ele><time>2026-05-04T07:55:26.063Z</time></trkpt><trkpt lat="46.1483204" lon="9.5010311"><ele>209.5</ele><time>2026-05-04T07:55:27.062Z</time></trkpt><trkpt lat="46.1482764" lon="9.5011038"><ele>209.66666666666669</ele><time>2026-05-04T07:55:28.062Z</time></trkpt><trkpt lat="46.1482349" lon="9.5011799"><ele>209.83333333333334</ele><time>2026-05-04T07:55:29.063Z</time></trkpt><trkpt lat="46.1481613" lon="9.5013221"><ele>210.0</ele><time>2026-05-04T07:55:31.063Z</time></trkpt><trkpt lat="46.1481235" lon="9.501397"><ele>210.0</ele><time>2026-05-04T07:55:32.062Z</time></trkpt><trkpt lat="46.148083" lon="9.5014718"><ele>210.0</ele><time>2026-05-04T07:55:33.062Z</time></trkpt><trkpt lat="46.1480454" lon="9.5015451"><ele>210.0</ele><time>2026-05-04T07:55:34.064Z</time></trkpt><trkpt lat="46.1479971" lon="9.501615"><ele>210.0</ele><time>2026-05-04T07:55:35.062Z</time></trkpt><trkpt lat="46.1479539" lon="9.5016859"><ele>210.0</ele><time>2026-05-04T07:55:36.061Z</time></trkpt><trkpt lat="46.147878" lon="9.5018289"><ele>210.0</ele><time>2026-05-04T07:55:38.062Z</time></trkpt><trkpt lat="46.1478346" lon="9.5019018"><ele>210.0</ele><time>2026-05-04T07:55:39.062Z</time></trkpt><trkpt lat="46.1477907" lon="9.5019718"><ele>210.0</ele><time>2026-05-04T07:55:40.061Z</time></trkpt><trkpt lat="46.1477457" lon="9.5020438"><ele>210.0</ele><time>2026-05-04T07:55:41.062Z</time></trkpt><trkpt lat="46.1477063" lon="9.5021193"><ele>210.0</ele><time>2026-05-04T07:55:42.062Z</time></trkpt><trkpt lat="46.1476629" lon="9.5021922"><ele>210.0</ele><time>2026-05-04T07:55:43.061Z</time></trkpt><trkpt lat="46.1475775" lon="9.5023253"><ele>210.0</ele><time>2026-05-04T07:55:45.062Z</time></trkpt><trkpt lat="46.1475339" lon="9.5023968"><ele>209.5</ele><time>2026-05-04T07:55:46.061Z</time></trkpt><trkpt lat="46.1474923" lon="9.5024709"><ele>209.0</ele><time>2026-05-04T07:55:47.062Z</time></trkpt><trkpt lat="46.1474489" lon="9.5025455"><ele>208.5</ele><time>2026-05-04T07:55:48.063Z</time></trkpt><trkpt lat="46.1474065" lon="9.502616"><ele>208.0</ele><time>2026-05-04T07:55:49.061Z</time></trkpt><trkpt lat="46.147331" lon="9.5027557"><ele>207.5</ele><time>2026-05-04T07:55:51.062Z</time></trkpt><trkpt lat="46.1472873" lon="9.5028215"><ele>207.0</ele><time>2026-05-04T07:55:52.062Z</time></trkpt><trkpt lat="46.1472168" lon="9.5029364"><ele>206.5</ele><time>2026-05-04T07:55:54.414Z</time></trkpt><trkpt lat="46.1471471" lon="9.5030628"><ele>206.0</ele><time>2026-05-04T07:55:56.063Z</time></trkpt><trkpt lat="46.1470721" lon="9.5031897"><ele>205.5</ele><time>2026-05-04T07:55:58.062Z</time></trkpt><trkpt lat="46.1469961" lon="9.503316"><ele>205.0</ele><time>2026-05-04T07:56:00.062Z</time></trkpt><trkpt lat="46.1468866" lon="9.5035261"><ele>204.99999999999997</ele><time>2026-05-04T07:56:03.063Z</time></trkpt><trkpt lat="46.1468142" lon="9.5036718"><ele>205.0</ele><time>2026-05-04T07:56:05.061Z</time></trkpt><trkpt lat="46.1467717" lon="9.503743"><ele>205.0</ele><time>2026-05-04T07:56:06.061Z</time></trkpt><trkpt lat="46.1467309" lon="9.5038122"><ele>205.0</ele><time>2026-05-04T07:56:07.062Z</time></trkpt><trkpt lat="46.1466885" lon="9.5038838"><ele>204.99999999999997</ele><time>2026-05-04T07:56:08.064Z</time></trkpt><trkpt lat="46.1466423" lon="9.5039585"><ele>205.0</ele><time>2026-05-04T07:56:09.064Z</time></trkpt><trkpt lat="46.1465996" lon="9.5040323"><ele>204.85714285714286</ele><time>2026-05-04T07:56:10.061Z</time></trkpt><trkpt lat="46.1465611" lon="9.5041049"><ele>204.7142857142857</ele><time>2026-05-04T07:56:11.063Z</time></trkpt><trkpt lat="46.1465248" lon="9.5041832"><ele>204.57142857142856</ele><time>2026-05-04T07:56:12.061Z</time></trkpt><trkpt lat="46.1464795" lon="9.5042549"><ele>204.42857142857144</ele><time>2026-05-04T07:56:13.063Z</time></trkpt><trkpt lat="46.1464349" lon="9.5043254"><ele>204.28571428571428</ele><time>2026-05-04T07:56:14.062Z</time></trkpt><trkpt lat="46.1463922" lon="9.5043955"><ele>204.14285714285714</ele><time>2026-05-04T07:56:15.063Z</time></trkpt><trkpt lat="46.1463494" lon="9.5044654"><ele>204.0</ele><time>2026-05-04T07:56:16.063Z</time></trkpt><trkpt lat="46.1463045" lon="9.5045305"><ele>204.33333333333334</ele><time>2026-05-04T07:56:17.063Z</time></trkpt><trkpt lat="46.1462566" lon="9.5046045"><ele>204.66666666666669</ele><time>2026-05-04T07:56:18.064Z</time></trkpt><trkpt lat="46.1462093" lon="9.5046821"><ele>205.0</ele><time>2026-05-04T07:56:19.062Z</time></trkpt><trkpt lat="46.1461656" lon="9.5047547"><ele>205.33333333333334</ele><time>2026-05-04T07:56:20.063Z</time></trkpt><trkpt lat="46.146123" lon="9.5048245"><ele>205.66666666666669</ele><time>2026-05-04T07:56:21.062Z</time></trkpt><trkpt lat="46.146082" lon="9.5048975"><ele>206.0</ele><time>2026-05-04T07:56:22.061Z</time></trkpt><trkpt lat="46.1460046" lon="9.505031"><ele>206.00000000000003</ele><time>2026-05-04T07:56:24.061Z</time></trkpt><trkpt lat="46.1459654" lon="9.505103"><ele>206.0</ele><time>2026-05-04T07:56:25.063Z</time></trkpt><trkpt lat="46.1458846" lon="9.5052521"><ele>206.0</ele><time>2026-05-04T07:56:27.063Z</time></trkpt><trkpt lat="46.1458384" lon="9.5053254"><ele>206.0</ele><time>2026-05-04T07:56:28.064Z</time></trkpt><trkpt lat="46.1457921" lon="9.5054024"><ele>206.00000000000003</ele><time>2026-05-04T07:56:29.063Z</time></trkpt><trkpt lat="46.1457474" lon="9.5054766"><ele>206.0</ele><time>2026-05-04T07:56:30.063Z</time></trkpt><trkpt lat="46.1457021" lon="9.5055474"><ele>206.60000000000002</ele><time>2026-05-04T07:56:31.064Z</time></trkpt><trkpt lat="46.1456579" lon="9.5056216"><ele>207.2</ele><time>2026-05-04T07:56:32.061Z</time></trkpt><trkpt lat="46.1455731" lon="9.5057693"><ele>207.8</ele><time>2026-05-04T07:56:34.063Z</time></trkpt><trkpt lat="46.1455322" lon="9.5058401"><ele>208.39999999999998</ele><time>2026-05-04T07:56:35.063Z</time></trkpt><trkpt lat="46.1454855" lon="9.5059072"><ele>209.0</ele><time>2026-05-04T07:56:36.063Z</time></trkpt><trkpt lat="46.1454052" lon="9.5060456"><ele>209.0</ele><time>2026-05-04T07:56:38.064Z</time></trkpt><trkpt lat="46.1453637" lon="9.5061174"><ele>209.0</ele><time>2026-05-04T07:56:39.062Z</time></trkpt><trkpt lat="46.1453237" lon="9.5061905"><ele>209.0</ele><time>2026-05-04T07:56:40.064Z</time></trkpt><trkpt lat="46.1452885" lon="9.5062695"><ele>209.0</ele><time>2026-05-04T07:56:41.062Z</time></trkpt><trkpt lat="46.1452478" lon="9.5063453"><ele>209.0</ele><time>2026-05-04T07:56:42.063Z</time></trkpt><trkpt lat="46.1452052" lon="9.506416"><ele>209.0</ele><time>2026-05-04T07:56:43.063Z</time></trkpt><trkpt lat="46.145164" lon="9.5064879"><ele>209.0</ele><time>2026-05-04T07:56:44.062Z</time></trkpt><trkpt lat="46.145118" lon="9.5065585"><ele>209.00000000000003</ele><time>2026-05-04T07:56:45.062Z</time></trkpt><trkpt lat="46.145079" lon="9.5066346"><ele>209.0</ele><time>2026-05-04T07:56:46.062Z</time></trkpt><trkpt lat="46.1450111" lon="9.5067663"><ele>209.0</ele><time>2026-05-04T07:56:48.061Z</time></trkpt><trkpt lat="46.1449325" lon="9.5069027"><ele>209.0</ele><time>2026-05-04T07:56:50.062Z</time></trkpt><trkpt lat="46.1448845" lon="9.506976"><ele>209.00000000000003</ele><time>2026-05-04T07:56:51.061Z</time></trkpt><trkpt lat="46.1448354" lon="9.5070483"><ele>209.0</ele><time>2026-05-04T07:56:52.062Z</time></trkpt><trkpt lat="46.1447933" lon="9.5071211"><ele>208.71428571428572</ele><time>2026-05-04T07:56:53.062Z</time></trkpt><trkpt lat="46.1447515" lon="9.5071965"><ele>208.42857142857142</ele><time>2026-05-04T07:56:54.062Z</time></trkpt><trkpt lat="46.1447103" lon="9.5072724"><ele>208.14285714285717</ele><time>2026-05-04T07:56:55.062Z</time></trkpt><trkpt lat="46.1446638" lon="9.5073408"><ele>207.85714285714286</ele><time>2026-05-04T07:56:56.062Z</time></trkpt><trkpt lat="46.1446213" lon="9.5074094"><ele>207.57142857142858</ele><time>2026-05-04T07:56:57.062Z</time></trkpt><trkpt lat="46.144578" lon="9.5074818"><ele>207.2857142857143</ele><time>2026-05-04T07:56:58.062Z</time></trkpt><trkpt lat="46.1445376" lon="9.5075518"><ele>207.0</ele><time>2026-05-04T07:56:59.063Z</time></trkpt><trkpt lat="46.1444981" lon="9.507623"><ele>207.0</ele><time>2026-05-04T07:57:00.062Z</time></trkpt><trkpt lat="46.1444227" lon="9.5077686"><ele>207.0</ele><time>2026-05-04T07:57:02.064Z</time></trkpt><trkpt lat="46.1443793" lon="9.5078407"><ele>207.0</ele><time>2026-05-04T07:57:03.064Z</time></trkpt><trkpt lat="46.1443367" lon="9.50791"><ele>207.0</ele><time>2026-05-04T07:57:04.063Z</time></trkpt><trkpt lat="46.1442961" lon="9.5079812"><ele>207.0</ele><time>2026-05-04T07:57:05.063Z</time></trkpt><trkpt lat="46.1442216" lon="9.5081225"><ele>207.0</ele><time>2026-05-04T07:57:07.063Z</time></trkpt><trkpt lat="46.1441521" lon="9.5082636"><ele>207.0</ele><time>2026-05-04T07:57:09.061Z</time></trkpt><trkpt lat="46.144117" lon="9.5083402"><ele>207.0</ele><time>2026-05-04T07:57:10.062Z</time></trkpt><trkpt lat="46.1440766" lon="9.5084142"><ele>207.0</ele><time>2026-05-04T07:57:11.063Z</time></trkpt><trkpt lat="46.1440364" lon="9.50849"><ele>207.0</ele><time>2026-05-04T07:57:12.063Z</time></trkpt><trkpt lat="46.1439981" lon="9.5085673"><ele>207.0</ele><time>2026-05-04T07:57:13.063Z</time></trkpt><trkpt lat="46.1439609" lon="9.508643"><ele>207.0</ele><time>2026-05-04T07:57:14.064Z</time></trkpt><trkpt lat="46.1438647" lon="9.5088108"><ele>207.2</ele><time>2026-05-04T07:57:17.114Z</time></trkpt><trkpt lat="46.1437779" lon="9.508951"><ele>207.39999999999998</ele><time>2026-05-04T07:57:19.063Z</time></trkpt><trkpt lat="46.1437389" lon="9.509024"><ele>207.60000000000002</ele><time>2026-05-04T07:57:20.062Z</time></trkpt><trkpt lat="46.1436641" lon="9.5091512"><ele>207.8</ele><time>2026-05-04T07:57:22.063Z</time></trkpt><trkpt lat="46.1435957" lon="9.5092776"><ele>208.0</ele><time>2026-05-04T07:57:24.062Z</time></trkpt><trkpt lat="46.1435569" lon="9.5093497"><ele>207.99999999999997</ele><time>2026-05-04T07:57:25.063Z</time></trkpt><trkpt lat="46.143492" lon="9.5094575"><ele>208.0</ele><time>2026-05-04T07:57:27.127Z</time></trkpt><trkpt lat="46.1434452" lon="9.5095451"><ele>208.0</ele><time>2026-05-04T07:57:28.064Z</time></trkpt><trkpt lat="46.1433991" lon="9.509631"><ele>208.0</ele><time>2026-05-04T07:57:29.062Z</time></trkpt><trkpt lat="46.143353" lon="9.5097104"><ele>207.99999999999997</ele><time>2026-05-04T07:57:30.064Z</time></trkpt><trkpt lat="46.1433127" lon="9.5097821"><ele>208.0</ele><time>2026-05-04T07:57:31.063Z</time></trkpt><trkpt lat="46.1432379" lon="9.5099246"><ele>207.99999999999997</ele><time>2026-05-04T07:57:33.063Z</time></trkpt><trkpt lat="46.1431939" lon="9.5099993"><ele>208.0</ele><time>2026-05-04T07:57:34.063Z</time></trkpt><trkpt lat="46.1431184" lon="9.510131"><ele>208.0</ele><time>2026-05-04T07:57:36.064Z</time></trkpt><trkpt lat="46.1430792" lon="9.5102075"><ele>208.0</ele><time>2026-05-04T07:57:37.062Z</time></trkpt><trkpt lat="46.1430424" lon="9.5102872"><ele>207.99999999999997</ele><time>2026-05-04T07:57:38.062Z</time></trkpt><trkpt lat="46.1429868" lon="9.5104381"><ele>208.0</ele><time>2026-05-04T07:57:40.062Z</time></trkpt><trkpt lat="46.1429526" lon="9.5105171"><ele>207.99999999999997</ele><time>2026-05-04T07:57:41.062Z</time></trkpt><trkpt lat="46.1429013" lon="9.5105985"><ele>208.0</ele><time>2026-05-04T07:57:42.064Z</time></trkpt><trkpt lat="46.1428401" lon="9.5106816"><ele>208.0</ele><time>2026-05-04T07:57:43.062Z</time></trkpt><trkpt lat="46.1427838" lon="9.5107653"><ele>208.0</ele><time>2026-05-04T07:57:44.062Z</time></trkpt><trkpt lat="46.1427426" lon="9.5108497"><ele>207.99999999999997</ele><time>2026-05-04T07:57:45.062Z</time></trkpt><trkpt lat="46.1427123" lon="9.5109416"><ele>208.0</ele><time>2026-05-04T07:57:46.064Z</time></trkpt><trkpt lat="46.1426682" lon="9.5110209"><ele>208.0</ele><time>2026-05-04T07:57:47.063Z</time></trkpt><trkpt lat="46.1426298" lon="9.5110989"><ele>208.0</ele><time>2026-05-04T07:57:48.062Z</time></trkpt><trkpt lat="46.1426076" lon="9.5111895"><ele>208.0</ele><time>2026-05-04T07:57:49.063Z</time></trkpt><trkpt lat="46.1425764" lon="9.5112756"><ele>208.0</ele><time>2026-05-04T07:57:50.064Z</time></trkpt><trkpt lat="46.1425316" lon="9.5113575"><ele>208.0</ele><time>2026-05-04T07:57:51.064Z</time></trkpt><trkpt lat="46.1424835" lon="9.5114377"><ele>208.0</ele><time>2026-05-04T07:57:52.062Z</time></trkpt><trkpt lat="46.1424396" lon="9.5115184"><ele>208.0</ele><time>2026-05-04T07:57:53.063Z</time></trkpt><trkpt lat="46.1423978" lon="9.5115954"><ele>208.0</ele><time>2026-05-04T07:57:54.063Z</time></trkpt><trkpt lat="46.1423537" lon="9.5116707"><ele>208.0</ele><time>2026-05-04T07:57:55.062Z</time></trkpt><trkpt lat="46.1423139" lon="9.5117508"><ele>208.0</ele><time>2026-05-04T07:57:56.063Z</time></trkpt><trkpt lat="46.1422724" lon="9.5118259"><ele>208.0</ele><time>2026-05-04T07:57:57.062Z</time></trkpt><trkpt lat="46.1422262" lon="9.5118999"><ele>208.0</ele><time>2026-05-04T07:57:58.062Z</time></trkpt><trkpt lat="46.1421906" lon="9.5119794"><ele>208.0</ele><time>2026-05-04T07:57:59.064Z</time></trkpt><trkpt lat="46.142152" lon="9.5120624"><ele>208.0</ele><time>2026-05-04T07:58:00.064Z</time></trkpt><trkpt lat="46.1421146" lon="9.5121435"><ele>207.99999999999997</ele><time>2026-05-04T07:58:01.063Z</time></trkpt><trkpt lat="46.1420795" lon="9.5122191"><ele>208.0</ele><time>2026-05-04T07:58:02.062Z</time></trkpt><trkpt lat="46.1420165" lon="9.5123757"><ele>208.0</ele><time>2026-05-04T07:58:04.062Z</time></trkpt><trkpt lat="46.1419544" lon="9.5125221"><ele>208.0</ele><time>2026-05-04T07:58:06.062Z</time></trkpt><trkpt lat="46.1419184" lon="9.5125978"><ele>207.99999999999997</ele><time>2026-05-04T07:58:07.063Z</time></trkpt><trkpt lat="46.1418793" lon="9.5126719"><ele>208.0</ele><time>2026-05-04T07:58:08.062Z</time></trkpt><trkpt lat="46.1418448" lon="9.5127501"><ele>207.99999999999997</ele><time>2026-05-04T07:58:09.063Z</time></trkpt><trkpt lat="46.1417974" lon="9.5128343"><ele>208.0</ele><time>2026-05-04T07:58:10.061Z</time></trkpt><trkpt lat="46.1417567" lon="9.5129073"><ele>208.0</ele><time>2026-05-04T07:58:11.063Z</time></trkpt><trkpt lat="46.1417188" lon="9.512981"><ele>208.0</ele><time>2026-05-04T07:58:12.063Z</time></trkpt><trkpt lat="46.1416728" lon="9.51305"><ele>207.99999999999997</ele><time>2026-05-04T07:58:13.064Z</time></trkpt><trkpt lat="46.1416289" lon="9.5131201"><ele>208.0</ele><time>2026-05-04T07:58:14.062Z</time></trkpt><trkpt lat="46.1415547" lon="9.5132617"><ele>208.0</ele><time>2026-05-04T07:58:16.062Z</time></trkpt><trkpt lat="46.1415117" lon="9.5133391"><ele>208.0</ele><time>2026-05-04T07:58:17.064Z</time></trkpt><trkpt lat="46.1414719" lon="9.5134192"><ele>208.0</ele><time>2026-05-04T07:58:18.063Z</time></trkpt><trkpt lat="46.1414309" lon="9.5135084"><ele>208.0</ele><time>2026-05-04T07:58:19.063Z</time></trkpt><trkpt lat="46.1413849" lon="9.5135911"><ele>208.0</ele><time>2026-05-04T07:58:20.062Z</time></trkpt><trkpt lat="46.1413455" lon="9.5136689"><ele>208.0</ele><time>2026-05-04T07:58:21.063Z</time></trkpt><trkpt lat="46.1413067" lon="9.5137464"><ele>208.0</ele><time>2026-05-04T07:58:22.063Z</time></trkpt><trkpt lat="46.1412654" lon="9.5138204"><ele>208.33333333333331</ele><time>2026-05-04T07:58:23.063Z</time></trkpt><trkpt lat="46.1412282" lon="9.5139002"><ele>208.66666666666666</ele><time>2026-05-04T07:58:24.063Z</time></trkpt><trkpt lat="46.1411928" lon="9.5139793"><ele>209.0</ele><time>2026-05-04T07:58:25.062Z</time></trkpt><trkpt lat="46.1411169" lon="9.514129"><ele>209.33333333333331</ele><time>2026-05-04T07:58:27.063Z</time></trkpt><trkpt lat="46.1410852" lon="9.5142177"><ele>209.66666666666666</ele><time>2026-05-04T07:58:28.064Z</time></trkpt><trkpt lat="46.141049" lon="9.5142969"><ele>210.0</ele><time>2026-05-04T07:58:29.063Z</time></trkpt><trkpt lat="46.1409902" lon="9.5144482"><ele>210.0</ele><time>2026-05-04T07:58:31.062Z</time></trkpt><trkpt lat="46.140961" lon="9.5145303"><ele>210.0</ele><time>2026-05-04T07:58:32.063Z</time></trkpt><trkpt lat="46.1409026" lon="9.5146828"><ele>210.0</ele><time>2026-05-04T07:58:34.062Z</time></trkpt><trkpt lat="46.1408387" lon="9.514835"><ele>210.0</ele><time>2026-05-04T07:58:36.063Z</time></trkpt><trkpt lat="46.1407454" lon="9.5150606"><ele>210.0</ele><time>2026-05-04T07:58:39.064Z</time></trkpt><trkpt lat="46.1406888" lon="9.5152178"><ele>210.0</ele><time>2026-05-04T07:58:41.063Z</time></trkpt><trkpt lat="46.1406579" lon="9.5152974"><ele>210.0</ele><time>2026-05-04T07:58:42.063Z</time></trkpt><trkpt lat="46.1406199" lon="9.5153814"><ele>210.0</ele><time>2026-05-04T07:58:43.064Z</time></trkpt><trkpt lat="46.140563" lon="9.5155312"><ele>210.0</ele><time>2026-05-04T07:58:45.063Z</time></trkpt><trkpt lat="46.1405051" lon="9.5156873"><ele>210.0</ele><time>2026-05-04T07:58:47.062Z</time></trkpt><trkpt lat="46.1404545" lon="9.515839"><ele>210.0</ele><time>2026-05-04T07:58:49.063Z</time></trkpt><trkpt lat="46.1404198" lon="9.5160035"><ele>210.0</ele><time>2026-05-04T07:58:51.063Z</time></trkpt><trkpt lat="46.1403797" lon="9.5161535"><ele>210.0</ele><time>2026-05-04T07:58:53.062Z</time></trkpt><trkpt lat="46.1403276" lon="9.5163105"><ele>210.0</ele><time>2026-05-04T07:58:55.062Z</time></trkpt><trkpt lat="46.1402903" lon="9.516467"><ele>210.0</ele><time>2026-05-04T07:58:57.062Z</time></trkpt><trkpt lat="46.1402442" lon="9.5166244"><ele>210.0</ele><time>2026-05-04T07:58:59.063Z</time></trkpt><trkpt lat="46.1402119" lon="9.5167049"><ele>210.0</ele><time>2026-05-04T07:59:00.063Z</time></trkpt><trkpt lat="46.1401644" lon="9.5168653"><ele>210.0</ele><time>2026-05-04T07:59:02.064Z</time></trkpt><trkpt lat="46.1401357" lon="9.5169502"><ele>210.0</ele><time>2026-05-04T07:59:03.063Z</time></trkpt><trkpt lat="46.1400831" lon="9.5171025"><ele>210.0</ele><time>2026-05-04T07:59:05.062Z</time></trkpt><trkpt lat="46.1400224" lon="9.517259"><ele>210.0</ele><time>2026-05-04T07:59:07.064Z</time></trkpt><trkpt lat="46.139994" lon="9.5173436"><ele>210.0</ele><time>2026-05-04T07:59:08.062Z</time></trkpt><trkpt lat="46.1399492" lon="9.5175159"><ele>210.0</ele><time>2026-05-04T07:59:10.063Z</time></trkpt><trkpt lat="46.139928" lon="9.5176051"><ele>210.0</ele><time>2026-05-04T07:59:11.064Z</time></trkpt><trkpt lat="46.1399034" lon="9.5176907"><ele>210.0</ele><time>2026-05-04T07:59:12.063Z</time></trkpt><trkpt lat="46.1398785" lon="9.5177805"><ele>210.0</ele><time>2026-05-04T07:59:13.064Z</time></trkpt><trkpt lat="46.1398539" lon="9.5178684"><ele>210.0</ele><time>2026-05-04T07:59:14.064Z</time></trkpt><trkpt lat="46.1398306" lon="9.5179612"><ele>210.0</ele><time>2026-05-04T07:59:15.063Z</time></trkpt><trkpt lat="46.1397982" lon="9.5180459"><ele>210.0</ele><time>2026-05-04T07:59:16.063Z</time></trkpt><trkpt lat="46.139767" lon="9.518131"><ele>210.0</ele><time>2026-05-04T07:59:17.062Z</time></trkpt><trkpt lat="46.1397342" lon="9.5182157"><ele>210.16666666666666</ele><time>2026-05-04T07:59:18.062Z</time></trkpt><trkpt lat="46.1397083" lon="9.5183044"><ele>210.33333333333331</ele><time>2026-05-04T07:59:19.064Z</time></trkpt><trkpt lat="46.1396827" lon="9.5184002"><ele>210.5</ele><time>2026-05-04T07:59:20.063Z</time></trkpt><trkpt lat="46.1396384" lon="9.5185643"><ele>210.66666666666666</ele><time>2026-05-04T07:59:22.062Z</time></trkpt><trkpt lat="46.1396069" lon="9.5186502"><ele>210.83333333333331</ele><time>2026-05-04T07:59:23.063Z</time></trkpt><trkpt lat="46.1395743" lon="9.5187447"><ele>211.0</ele><time>2026-05-04T07:59:24.063Z</time></trkpt><trkpt lat="46.1395512" lon="9.5188359"><ele>210.99999999999997</ele><time>2026-05-04T07:59:25.062Z</time></trkpt><trkpt lat="46.1395282" lon="9.5189208"><ele>211.0</ele><time>2026-05-04T07:59:26.063Z</time></trkpt><trkpt lat="46.139494" lon="9.5190062"><ele>211.0</ele><time>2026-05-04T07:59:27.063Z</time></trkpt><trkpt lat="46.1394547" lon="9.5191713"><ele>211.0</ele><time>2026-05-04T07:59:29.063Z</time></trkpt><trkpt lat="46.1394272" lon="9.5192552"><ele>210.99999999999997</ele><time>2026-05-04T07:59:30.063Z</time></trkpt><trkpt lat="46.1393815" lon="9.5194149"><ele>211.0</ele><time>2026-05-04T07:59:32.064Z</time></trkpt><trkpt lat="46.1393257" lon="9.5195739"><ele>210.75</ele><time>2026-05-04T07:59:34.063Z</time></trkpt><trkpt lat="46.1392726" lon="9.5197363"><ele>210.5</ele><time>2026-05-04T07:59:36.063Z</time></trkpt><trkpt lat="46.1392298" lon="9.5199034"><ele>210.25</ele><time>2026-05-04T07:59:38.064Z</time></trkpt><trkpt lat="46.139183" lon="9.5200576"><ele>210.0</ele><time>2026-05-04T07:59:40.063Z</time></trkpt><trkpt lat="46.1391298" lon="9.5202116"><ele>210.0</ele><time>2026-05-04T07:59:42.062Z</time></trkpt><trkpt lat="46.1390841" lon="9.5203721"><ele>210.0</ele><time>2026-05-04T07:59:44.063Z</time></trkpt><trkpt lat="46.1390387" lon="9.5205344"><ele>210.0</ele><time>2026-05-04T07:59:46.062Z</time></trkpt><trkpt lat="46.1389974" lon="9.5206965"><ele>210.0</ele><time>2026-05-04T07:59:48.063Z</time></trkpt><trkpt lat="46.138945" lon="9.5208515"><ele>210.0</ele><time>2026-05-04T07:59:50.064Z</time></trkpt><trkpt lat="46.1388963" lon="9.5210099"><ele>210.0</ele><time>2026-05-04T07:59:52.063Z</time></trkpt><trkpt lat="46.1388596" lon="9.5211731"><ele>210.0</ele><time>2026-05-04T07:59:54.062Z</time></trkpt><trkpt lat="46.138835" lon="9.5212585"><ele>210.0</ele><time>2026-05-04T07:59:55.064Z</time></trkpt><trkpt lat="46.138811" lon="9.521347"><ele>210.0</ele><time>2026-05-04T07:59:56.064Z</time></trkpt><trkpt lat="46.1387834" lon="9.5214332"><ele>210.0</ele><time>2026-05-04T07:59:57.064Z</time></trkpt><trkpt lat="46.1387569" lon="9.5215265"><ele>210.0</ele><time>2026-05-04T07:59:58.063Z</time></trkpt><trkpt lat="46.1387328" lon="9.5216164"><ele>210.0</ele><time>2026-05-04T07:59:59.064Z</time></trkpt><trkpt lat="46.1387001" lon="9.5217118"><ele>210.0</ele><time>2026-05-04T08:00:00.063Z</time></trkpt><trkpt lat="46.1386713" lon="9.5217987"><ele>210.0</ele><time>2026-05-04T08:00:01.062Z</time></trkpt><trkpt lat="46.1386451" lon="9.5218876"><ele>210.0</ele><time>2026-05-04T08:00:02.063Z</time></trkpt><trkpt lat="46.1386087" lon="9.5219658"><ele>210.0</ele><time>2026-05-04T08:00:03.064Z</time></trkpt><trkpt lat="46.1385729" lon="9.5221384"><ele>210.25</ele><time>2026-05-04T08:00:05.064Z</time></trkpt><trkpt lat="46.1385401" lon="9.5222935"><ele>210.5</ele><time>2026-05-04T08:00:07.064Z</time></trkpt><trkpt lat="46.1385272" lon="9.522383"><ele>210.75</ele><time>2026-05-04T08:00:08.065Z</time></trkpt><trkpt lat="46.1385067" lon="9.5225459"><ele>211.0</ele><time>2026-05-04T08:00:10.065Z</time></trkpt><trkpt lat="46.1384842" lon="9.5228188"><ele>211.0</ele><time>2026-05-04T08:00:13.063Z</time></trkpt><trkpt lat="46.1384792" lon="9.5229113"><ele>211.0</ele><time>2026-05-04T08:00:14.063Z</time></trkpt><trkpt lat="46.1384726" lon="9.5230032"><ele>211.0</ele><time>2026-05-04T08:00:15.064Z</time></trkpt><trkpt lat="46.138461" lon="9.523099"><ele>211.0</ele><time>2026-05-04T08:00:16.063Z</time></trkpt><trkpt lat="46.1384452" lon="9.5231924"><ele>211.0</ele><time>2026-05-04T08:00:17.063Z</time></trkpt><trkpt lat="46.1384251" lon="9.5232809"><ele>211.0</ele><time>2026-05-04T08:00:18.063Z</time></trkpt><trkpt lat="46.1384158" lon="9.5233748"><ele>211.0</ele><time>2026-05-04T08:00:19.065Z</time></trkpt><trkpt lat="46.1383845" lon="9.5235537"><ele>211.0</ele><time>2026-05-04T08:00:21.063Z</time></trkpt><trkpt lat="46.1383697" lon="9.5236489"><ele>211.0</ele><time>2026-05-04T08:00:22.064Z</time></trkpt><trkpt lat="46.1383602" lon="9.5237438"><ele>211.0</ele><time>2026-05-04T08:00:23.064Z</time></trkpt><trkpt lat="46.1383711" lon="9.5238359"><ele>211.0</ele><time>2026-05-04T08:00:24.064Z</time></trkpt><trkpt lat="46.1383806" lon="9.5239394"><ele>211.0</ele><time>2026-05-04T08:00:25.063Z</time></trkpt><trkpt lat="46.138381" lon="9.5240456"><ele>211.0</ele><time>2026-05-04T08:00:26.062Z</time></trkpt><trkpt lat="46.1383783" lon="9.5241512"><ele>211.0</ele><time>2026-05-04T08:00:27.062Z</time></trkpt><trkpt lat="46.1383755" lon="9.524252"><ele>210.85714285714286</ele><time>2026-05-04T08:00:28.062Z</time></trkpt><trkpt lat="46.1383779" lon="9.5243502"><ele>210.71428571428572</ele><time>2026-05-04T08:00:29.063Z</time></trkpt><trkpt lat="46.1383777" lon="9.5244589"><ele>210.57142857142856</ele><time>2026-05-04T08:00:30.063Z</time></trkpt><trkpt lat="46.1383788" lon="9.5245654"><ele>210.42857142857144</ele><time>2026-05-04T08:00:31.063Z</time></trkpt><trkpt lat="46.1383765" lon="9.5246626"><ele>210.28571428571428</ele><time>2026-05-04T08:00:32.065Z</time></trkpt><trkpt lat="46.1383747" lon="9.524775"><ele>210.14285714285714</ele><time>2026-05-04T08:00:33.064Z</time></trkpt><trkpt lat="46.138372" lon="9.5248854"><ele>210.0</ele><time>2026-05-04T08:00:34.064Z</time></trkpt><trkpt lat="46.1383676" lon="9.5250023"><ele>210.0</ele><time>2026-05-04T08:00:35.063Z</time></trkpt><trkpt lat="46.1383584" lon="9.5251202"><ele>210.0</ele><time>2026-05-04T08:00:36.064Z</time></trkpt><trkpt lat="46.1383559" lon="9.525229"><ele>210.0</ele><time>2026-05-04T08:00:37.064Z</time></trkpt><trkpt lat="46.1383508" lon="9.5253352"><ele>210.0</ele><time>2026-05-04T08:00:38.063Z</time></trkpt><trkpt lat="46.1383439" lon="9.5254394"><ele>210.0</ele><time>2026-05-04T08:00:39.065Z</time></trkpt><trkpt lat="46.138341" lon="9.5255484"><ele>210.0</ele><time>2026-05-04T08:00:40.064Z</time></trkpt><trkpt lat="46.138338" lon="9.5256601"><ele>210.0</ele><time>2026-05-04T08:00:41.063Z</time></trkpt><trkpt lat="46.1383304" lon="9.525767"><ele>210.0</ele><time>2026-05-04T08:00:42.063Z</time></trkpt><trkpt lat="46.1383298" lon="9.5258722"><ele>210.0</ele><time>2026-05-04T08:00:43.063Z</time></trkpt><trkpt lat="46.1383252" lon="9.5259758"><ele>210.0</ele><time>2026-05-04T08:00:44.064Z</time></trkpt><trkpt lat="46.1383234" lon="9.5260817"><ele>210.0</ele><time>2026-05-04T08:00:45.064Z</time></trkpt><trkpt lat="46.1383204" lon="9.526183"><ele>210.0</ele><time>2026-05-04T08:00:46.064Z</time></trkpt><trkpt lat="46.1383172" lon="9.526285"><ele>210.0</ele><time>2026-05-04T08:00:47.063Z</time></trkpt><trkpt lat="46.1383163" lon="9.5263885"><ele>210.0</ele><time>2026-05-04T08:00:48.063Z</time></trkpt><trkpt lat="46.1383104" lon="9.5264898"><ele>210.0</ele><time>2026-05-04T08:00:49.063Z</time></trkpt><trkpt lat="46.1383036" lon="9.5265859"><ele>210.0</ele><time>2026-05-04T08:00:50.063Z</time></trkpt><trkpt lat="46.1383013" lon="9.5266816"><ele>210.0</ele><time>2026-05-04T08:00:51.064Z</time></trkpt><trkpt lat="46.1382988" lon="9.526781"><ele>210.0</ele><time>2026-05-04T08:00:52.063Z</time></trkpt><trkpt lat="46.1382965" lon="9.5268828"><ele>210.0</ele><time>2026-05-04T08:00:53.065Z</time></trkpt><trkpt lat="46.1382968" lon="9.5269825"><ele>210.0</ele><time>2026-05-04T08:00:54.063Z</time></trkpt><trkpt lat="46.1382952" lon="9.5270758"><ele>210.0</ele><time>2026-05-04T08:00:55.063Z</time></trkpt><trkpt lat="46.1382939" lon="9.5271695"><ele>210.0</ele><time>2026-05-04T08:00:56.064Z</time></trkpt><trkpt lat="46.1382942" lon="9.5273465"><ele>210.0</ele><time>2026-05-04T08:00:58.064Z</time></trkpt><trkpt lat="46.1382803" lon="9.5274941"><ele>210.0</ele><time>2026-05-04T08:01:00.063Z</time></trkpt><trkpt lat="46.1382617" lon="9.527621"><ele>210.0</ele><time>2026-05-04T08:01:02.062Z</time></trkpt><trkpt lat="46.1382317" lon="9.5277435"><ele>210.0</ele><time>2026-05-04T08:01:04.063Z</time></trkpt><trkpt lat="46.1382194" lon="9.52788"><ele>210.0</ele><time>2026-05-04T08:01:06.064Z</time></trkpt><trkpt lat="46.1382118" lon="9.5280431"><ele>210.0</ele><time>2026-05-04T08:01:08.063Z</time></trkpt><trkpt lat="46.1382092" lon="9.5281366"><ele>210.0</ele><time>2026-05-04T08:01:09.064Z</time></trkpt><trkpt lat="46.1381959" lon="9.5282257"><ele>210.0</ele><time>2026-05-04T08:01:10.064Z</time></trkpt><trkpt lat="46.1381926" lon="9.5283195"><ele>210.0</ele><time>2026-05-04T08:01:11.062Z</time></trkpt><trkpt lat="46.1381844" lon="9.5285021"><ele>210.16666666666666</ele><time>2026-05-04T08:01:13.062Z</time></trkpt><trkpt lat="46.1381833" lon="9.5286014"><ele>210.33333333333331</ele><time>2026-05-04T08:01:14.064Z</time></trkpt><trkpt lat="46.1381783" lon="9.5287012"><ele>210.5</ele><time>2026-05-04T08:01:15.065Z</time></trkpt><trkpt lat="46.1381731" lon="9.5287961"><ele>210.66666666666666</ele><time>2026-05-04T08:01:16.064Z</time></trkpt><trkpt lat="46.1381649" lon="9.5289734"><ele>210.83333333333331</ele><time>2026-05-04T08:01:18.063Z</time></trkpt><trkpt lat="46.1381577" lon="9.529068"><ele>211.0</ele><time>2026-05-04T08:01:19.063Z</time></trkpt><trkpt lat="46.1381481" lon="9.5292312"><ele>211.25</ele><time>2026-05-04T08:01:21.063Z</time></trkpt><trkpt lat="46.13813" lon="9.5294055"><ele>211.5</ele><time>2026-05-04T08:01:23.063Z</time></trkpt><trkpt lat="46.138121" lon="9.5295801"><ele>211.75</ele><time>2026-05-04T08:01:25.062Z</time></trkpt><trkpt lat="46.1381131" lon="9.5297644"><ele>212.0</ele><time>2026-05-04T08:01:27.064Z</time></trkpt><trkpt lat="46.1380556" lon="9.5299185"><ele>212.33333333333334</ele><time>2026-05-04T08:01:29.063Z</time></trkpt><trkpt lat="46.1380388" lon="9.5300066"><ele>212.66666666666669</ele><time>2026-05-04T08:01:30.063Z</time></trkpt><trkpt lat="46.1380226" lon="9.530101"><ele>213.0</ele><time>2026-05-04T08:01:31.065Z</time></trkpt><trkpt lat="46.1380139" lon="9.5301914"><ele>213.33333333333331</ele><time>2026-05-04T08:01:32.063Z</time></trkpt><trkpt lat="46.1380076" lon="9.5303609"><ele>213.66666666666666</ele><time>2026-05-04T08:01:34.064Z</time></trkpt><trkpt lat="46.1379891" lon="9.5305374"><ele>214.0</ele><time>2026-05-04T08:01:36.063Z</time></trkpt><trkpt lat="46.1379827" lon="9.5307112"><ele>214.39999999999998</ele><time>2026-05-04T08:01:38.063Z</time></trkpt><trkpt lat="46.1379781" lon="9.5308893"><ele>214.79999999999998</ele><time>2026-05-04T08:01:40.065Z</time></trkpt><trkpt lat="46.1379756" lon="9.5309842"><ele>215.20000000000002</ele><time>2026-05-04T08:01:41.064Z</time></trkpt><trkpt lat="46.137978" lon="9.5311635"><ele>215.60000000000002</ele><time>2026-05-04T08:01:43.063Z</time></trkpt><trkpt lat="46.1379727" lon="9.5313489"><ele>216.0</ele><time>2026-05-04T08:01:45.064Z</time></trkpt><trkpt lat="46.1379682" lon="9.5314402"><ele>216.0</ele><time>2026-05-04T08:01:46.063Z</time></trkpt><trkpt lat="46.1379449" lon="9.5315922"><ele>216.0</ele><time>2026-05-04T08:01:48.064Z</time></trkpt><trkpt lat="46.1379315" lon="9.5317686"><ele>216.0</ele><time>2026-05-04T08:01:50.065Z</time></trkpt><trkpt lat="46.1379343" lon="9.5318653"><ele>216.0</ele><time>2026-05-04T08:01:51.064Z</time></trkpt><trkpt lat="46.1379358" lon="9.5319625"><ele>216.0</ele><time>2026-05-04T08:01:52.062Z</time></trkpt><trkpt lat="46.1379361" lon="9.5320551"><ele>216.0</ele><time>2026-05-04T08:01:53.063Z</time></trkpt><trkpt lat="46.1379319" lon="9.5322126"><ele>215.75</ele><time>2026-05-04T08:01:55.064Z</time></trkpt><trkpt lat="46.1379355" lon="9.5323677"><ele>215.5</ele><time>2026-05-04T08:01:57.063Z</time></trkpt><trkpt lat="46.137928" lon="9.5325523"><ele>215.25</ele><time>2026-05-04T08:01:59.063Z</time></trkpt><trkpt lat="46.1379224" lon="9.5327066"><ele>215.0</ele><time>2026-05-04T08:02:01.064Z</time></trkpt><trkpt lat="46.1379198" lon="9.5328841"><ele>214.66666666666669</ele><time>2026-05-04T08:02:03.065Z</time></trkpt><trkpt lat="46.1379155" lon="9.5330451"><ele>214.33333333333334</ele><time>2026-05-04T08:02:05.063Z</time></trkpt><trkpt lat="46.1379027" lon="9.533245"><ele>214.0</ele><time>2026-05-04T08:02:07.063Z</time></trkpt><trkpt lat="46.1378963" lon="9.5333371"><ele>213.66666666666669</ele><time>2026-05-04T08:02:08.064Z</time></trkpt><trkpt lat="46.1379031" lon="9.5334344"><ele>213.33333333333334</ele><time>2026-05-04T08:02:09.064Z</time></trkpt><trkpt lat="46.1379009" lon="9.5335258"><ele>213.0</ele><time>2026-05-04T08:02:10.063Z</time></trkpt><trkpt lat="46.137906" lon="9.5336176"><ele>213.0</ele><time>2026-05-04T08:02:11.064Z</time></trkpt><trkpt lat="46.1378999" lon="9.5337164"><ele>213.0</ele><time>2026-05-04T08:02:12.063Z</time></trkpt><trkpt lat="46.1378913" lon="9.5338182"><ele>213.0</ele><time>2026-05-04T08:02:13.063Z</time></trkpt><trkpt lat="46.1378803" lon="9.5339188"><ele>213.0</ele><time>2026-05-04T08:02:14.065Z</time></trkpt><trkpt lat="46.1378679" lon="9.5340179"><ele>213.0</ele><time>2026-05-04T08:02:15.063Z</time></trkpt><trkpt lat="46.1378573" lon="9.534115"><ele>213.0</ele><time>2026-05-04T08:02:16.063Z</time></trkpt><trkpt lat="46.1378471" lon="9.5342879"><ele>213.8</ele><time>2026-05-04T08:02:18.064Z</time></trkpt><trkpt lat="46.137845" lon="9.5343793"><ele>214.60000000000002</ele><time>2026-05-04T08:02:19.063Z</time></trkpt><trkpt lat="46.1378445" lon="9.5345218"><ele>215.39999999999998</ele><time>2026-05-04T08:02:21.063Z</time></trkpt><trkpt lat="46.1378468" lon="9.5346791"><ele>216.2</ele><time>2026-05-04T08:02:23.063Z</time></trkpt><trkpt lat="46.1378427" lon="9.5348405"><ele>217.0</ele><time>2026-05-04T08:02:25.063Z</time></trkpt><trkpt lat="46.1378506" lon="9.5349373"><ele>217.28571428571428</ele><time>2026-05-04T08:02:26.063Z</time></trkpt><trkpt lat="46.1378624" lon="9.5350314"><ele>217.57142857142856</ele><time>2026-05-04T08:02:27.064Z</time></trkpt><trkpt lat="46.1378788" lon="9.5351197"><ele>217.85714285714286</ele><time>2026-05-04T08:02:28.063Z</time></trkpt><trkpt lat="46.137898" lon="9.5352073"><ele>218.14285714285714</ele><time>2026-05-04T08:02:29.063Z</time></trkpt><trkpt lat="46.1379076" lon="9.5353118"><ele>218.42857142857142</ele><time>2026-05-04T08:02:30.064Z</time></trkpt><trkpt lat="46.1379705" lon="9.5354453"><ele>218.71428571428572</ele><time>2026-05-04T08:02:32.064Z</time></trkpt><trkpt lat="46.137998" lon="9.5355314"><ele>219.0</ele><time>2026-05-04T08:02:33.064Z</time></trkpt><trkpt lat="46.1380292" lon="9.5356125"><ele>218.33333333333334</ele><time>2026-05-04T08:02:34.064Z</time></trkpt><trkpt lat="46.1380713" lon="9.5357873"><ele>217.66666666666669</ele><time>2026-05-04T08:02:36.063Z</time></trkpt><trkpt lat="46.1380903" lon="9.5358803"><ele>217.0</ele><time>2026-05-04T08:02:37.065Z</time></trkpt><trkpt lat="46.1381089" lon="9.5359698"><ele>216.33333333333334</ele><time>2026-05-04T08:02:38.064Z</time></trkpt><trkpt lat="46.1381238" lon="9.5360598"><ele>215.66666666666669</ele><time>2026-05-04T08:02:39.064Z</time></trkpt><trkpt lat="46.1381488" lon="9.5362248"><ele>215.0</ele><time>2026-05-04T08:02:41.062Z</time></trkpt><trkpt lat="46.1381527" lon="9.5363175"><ele>214.83333333333334</ele><time>2026-05-04T08:02:42.064Z</time></trkpt><trkpt lat="46.1381513" lon="9.536411"><ele>214.66666666666669</ele><time>2026-05-04T08:02:43.063Z</time></trkpt><trkpt lat="46.1381541" lon="9.5365958"><ele>214.5</ele><time>2026-05-04T08:02:45.065Z</time></trkpt><trkpt lat="46.1381589" lon="9.5366921"><ele>214.33333333333331</ele><time>2026-05-04T08:02:46.064Z</time></trkpt><trkpt lat="46.1381639" lon="9.5367844"><ele>214.16666666666666</ele><time>2026-05-04T08:02:47.063Z</time></trkpt><trkpt lat="46.1381666" lon="9.5368757"><ele>214.0</ele><time>2026-05-04T08:02:48.064Z</time></trkpt><trkpt lat="46.1381755" lon="9.5370522"><ele>214.25</ele><time>2026-05-04T08:02:50.064Z</time></trkpt><trkpt lat="46.1381796" lon="9.5372209"><ele>214.5</ele><time>2026-05-04T08:02:52.064Z</time></trkpt><trkpt lat="46.1381814" lon="9.5373831"><ele>214.75</ele><time>2026-05-04T08:02:54.063Z</time></trkpt><trkpt lat="46.1382017" lon="9.5375447"><ele>215.0</ele><time>2026-05-04T08:02:56.063Z</time></trkpt><trkpt lat="46.1382179" lon="9.5377249"><ele>216.4</ele><time>2026-05-04T08:02:58.064Z</time></trkpt><trkpt lat="46.1382257" lon="9.5379005"><ele>217.8</ele><time>2026-05-04T08:03:00.064Z</time></trkpt><trkpt lat="46.1382299" lon="9.5379912"><ele>219.2</ele><time>2026-05-04T08:03:01.064Z</time></trkpt><trkpt lat="46.1382344" lon="9.5380877"><ele>220.6</ele><time>2026-05-04T08:03:02.063Z</time></trkpt><trkpt lat="46.1382509" lon="9.5382526"><ele>222.0</ele><time>2026-05-04T08:03:04.064Z</time></trkpt><trkpt lat="46.1382646" lon="9.5384176"><ele>222.0</ele><time>2026-05-04T08:03:06.063Z</time></trkpt><trkpt lat="46.1382837" lon="9.5385886"><ele>222.0</ele><time>2026-05-04T08:03:08.064Z</time></trkpt><trkpt lat="46.1382996" lon="9.5387478"><ele>222.0</ele><time>2026-05-04T08:03:10.065Z</time></trkpt><trkpt lat="46.1383014" lon="9.5389192"><ele>222.0</ele><time>2026-05-04T08:03:12.064Z</time></trkpt><trkpt lat="46.1382988" lon="9.5390943"><ele>221.39999999999998</ele><time>2026-05-04T08:03:14.064Z</time></trkpt><trkpt lat="46.1382967" lon="9.5391955"><ele>220.79999999999998</ele><time>2026-05-04T08:03:15.064Z</time></trkpt><trkpt lat="46.138302" lon="9.5392957"><ele>220.2</ele><time>2026-05-04T08:03:16.064Z</time></trkpt><trkpt lat="46.1383179" lon="9.5394647"><ele>219.6</ele><time>2026-05-04T08:03:18.063Z</time></trkpt><trkpt lat="46.1383261" lon="9.539627"><ele>219.0</ele><time>2026-05-04T08:03:20.064Z</time></trkpt><trkpt lat="46.1383773" lon="9.5397451"><ele>218.2</ele><time>2026-05-04T08:03:22.064Z</time></trkpt><trkpt lat="46.1383833" lon="9.5399201"><ele>217.39999999999998</ele><time>2026-05-04T08:03:24.063Z</time></trkpt><trkpt lat="46.138389" lon="9.5400152"><ele>216.6</ele><time>2026-05-04T08:03:25.064Z</time></trkpt><trkpt lat="46.1384083" lon="9.5401754"><ele>215.8</ele><time>2026-05-04T08:03:27.064Z</time></trkpt><trkpt lat="46.138479" lon="9.54025"><ele>215.0</ele><time>2026-05-04T08:03:29.063Z</time></trkpt><trkpt lat="46.1385618" lon="9.5402617"><ele>215.00000000000003</ele><time>2026-05-04T08:03:31.063Z</time></trkpt><trkpt lat="46.1386796" lon="9.5402921"><ele>215.0</ele><time>2026-05-04T08:03:33.063Z</time></trkpt><trkpt lat="46.1387263" lon="9.5403673"><ele>215.0</ele><time>2026-05-04T08:03:34.063Z</time></trkpt><trkpt lat="46.1387599" lon="9.5404571"><ele>215.0</ele><time>2026-05-04T08:03:35.064Z</time></trkpt><trkpt lat="46.1387817" lon="9.5405525"><ele>215.00000000000003</ele><time>2026-05-04T08:03:36.062Z</time></trkpt><trkpt lat="46.1388059" lon="9.5406567"><ele>215.0</ele><time>2026-05-04T08:03:37.064Z</time></trkpt><trkpt lat="46.1388336" lon="9.5407496"><ele>215.16666666666669</ele><time>2026-05-04T08:03:38.063Z</time></trkpt><trkpt lat="46.1388699" lon="9.5408404"><ele>215.33333333333334</ele><time>2026-05-04T08:03:39.063Z</time></trkpt><trkpt lat="46.138899" lon="9.5409255"><ele>215.5</ele><time>2026-05-04T08:03:40.063Z</time></trkpt><trkpt lat="46.1389184" lon="9.5410144"><ele>215.66666666666669</ele><time>2026-05-04T08:03:41.064Z</time></trkpt><trkpt lat="46.1389374" lon="9.5411071"><ele>215.83333333333334</ele><time>2026-05-04T08:03:42.063Z</time></trkpt><trkpt lat="46.1389805" lon="9.5412777"><ele>216.0</ele><time>2026-05-04T08:03:44.064Z</time></trkpt><trkpt lat="46.1390025" lon="9.5413668"><ele>216.0</ele><time>2026-05-04T08:03:45.063Z</time></trkpt><trkpt lat="46.139028" lon="9.5414545"><ele>216.0</ele><time>2026-05-04T08:03:46.064Z</time></trkpt><trkpt lat="46.1390636" lon="9.5415385"><ele>216.0</ele><time>2026-05-04T08:03:47.064Z</time></trkpt><trkpt lat="46.1390959" lon="9.5416209"><ele>216.0</ele><time>2026-05-04T08:03:48.064Z</time></trkpt><trkpt lat="46.1391199" lon="9.5417135"><ele>216.0</ele><time>2026-05-04T08:03:49.063Z</time></trkpt><trkpt lat="46.1391608" lon="9.5418768"><ele>216.0</ele><time>2026-05-04T08:03:51.064Z</time></trkpt><trkpt lat="46.1391896" lon="9.5420407"><ele>216.0</ele><time>2026-05-04T08:03:53.063Z</time></trkpt><trkpt lat="46.1392253" lon="9.5421879"><ele>216.0</ele><time>2026-05-04T08:03:55.065Z</time></trkpt><trkpt lat="46.1392666" lon="9.5423471"><ele>216.0</ele><time>2026-05-04T08:03:57.065Z</time></trkpt><trkpt lat="46.1392925" lon="9.5425095"><ele>216.0</ele><time>2026-05-04T08:03:59.065Z</time></trkpt><trkpt lat="46.1393313" lon="9.5426711"><ele>216.0</ele><time>2026-05-04T08:04:01.065Z</time></trkpt><trkpt lat="46.1393811" lon="9.5428408"><ele>216.00000000000003</ele><time>2026-05-04T08:04:03.065Z</time></trkpt><trkpt lat="46.1394014" lon="9.5429328"><ele>216.00000000000003</ele><time>2026-05-04T08:04:04.065Z</time></trkpt><trkpt lat="46.1394231" lon="9.5430204"><ele>216.0</ele><time>2026-05-04T08:04:05.065Z</time></trkpt><trkpt lat="46.1394761" lon="9.5431748"><ele>216.0</ele><time>2026-05-04T08:04:07.064Z</time></trkpt><trkpt lat="46.1395323" lon="9.5433303"><ele>216.20000000000002</ele><time>2026-05-04T08:04:09.065Z</time></trkpt><trkpt lat="46.1395809" lon="9.54349"><ele>216.40000000000003</ele><time>2026-05-04T08:04:11.064Z</time></trkpt><trkpt lat="46.1396212" lon="9.5436628"><ele>216.6</ele><time>2026-05-04T08:04:13.063Z</time></trkpt><trkpt lat="46.1396581" lon="9.5438288"><ele>216.8</ele><time>2026-05-04T08:04:15.065Z</time></trkpt><trkpt lat="46.1396854" lon="9.5439138"><ele>217.0</ele><time>2026-05-04T08:04:16.063Z</time></trkpt><trkpt lat="46.1397078" lon="9.5440047"><ele>216.99999999999997</ele><time>2026-05-04T08:04:17.064Z</time></trkpt><trkpt lat="46.1397449" lon="9.5441819"><ele>217.0</ele><time>2026-05-04T08:04:19.064Z</time></trkpt><trkpt lat="46.1397646" lon="9.5442708"><ele>217.0</ele><time>2026-05-04T08:04:20.064Z</time></trkpt><trkpt lat="46.1397845" lon="9.544358"><ele>217.0</ele><time>2026-05-04T08:04:21.063Z</time></trkpt><trkpt lat="46.1398302" lon="9.5445187"><ele>216.99999999999997</ele><time>2026-05-04T08:04:23.065Z</time></trkpt><trkpt lat="46.1398554" lon="9.5446097"><ele>217.0</ele><time>2026-05-04T08:04:24.064Z</time></trkpt><trkpt lat="46.139869" lon="9.5447138"><ele>216.83333333333331</ele><time>2026-05-04T08:04:25.063Z</time></trkpt><trkpt lat="46.1398914" lon="9.5448175"><ele>216.66666666666666</ele><time>2026-05-04T08:04:26.065Z</time></trkpt><trkpt lat="46.1399119" lon="9.5449039"><ele>216.5</ele><time>2026-05-04T08:04:27.064Z</time></trkpt><trkpt lat="46.1399535" lon="9.5450662"><ele>216.33333333333331</ele><time>2026-05-04T08:04:29.063Z</time></trkpt><trkpt lat="46.1399757" lon="9.5451514"><ele>216.16666666666666</ele><time>2026-05-04T08:04:30.063Z</time></trkpt><trkpt lat="46.139995" lon="9.5452421"><ele>216.0</ele><time>2026-05-04T08:04:31.064Z</time></trkpt><trkpt lat="46.1400302" lon="9.5454033"><ele>216.0</ele><time>2026-05-04T08:04:33.063Z</time></trkpt><trkpt lat="46.1400775" lon="9.5455735"><ele>216.00000000000003</ele><time>2026-05-04T08:04:35.064Z</time></trkpt><trkpt lat="46.1400972" lon="9.5457322"><ele>216.00000000000003</ele><time>2026-05-04T08:04:37.064Z</time></trkpt><trkpt lat="46.1401432" lon="9.5458981"><ele>216.0</ele><time>2026-05-04T08:04:39.064Z</time></trkpt><trkpt lat="46.1401573" lon="9.5459895"><ele>216.0</ele><time>2026-05-04T08:04:40.065Z</time></trkpt><trkpt lat="46.140179" lon="9.5460795"><ele>216.5</ele><time>2026-05-04T08:04:41.064Z</time></trkpt><trkpt lat="46.140222" lon="9.5462485"><ele>217.0</ele><time>2026-05-04T08:04:43.063Z</time></trkpt><trkpt lat="46.1402762" lon="9.5464124"><ele>217.5</ele><time>2026-05-04T08:04:45.064Z</time></trkpt><trkpt lat="46.1403065" lon="9.5464967"><ele>218.0</ele><time>2026-05-04T08:04:46.064Z</time></trkpt><trkpt lat="46.1403364" lon="9.5465817"><ele>218.5</ele><time>2026-05-04T08:04:47.063Z</time></trkpt><trkpt lat="46.1403669" lon="9.5466651"><ele>219.0</ele><time>2026-05-04T08:04:48.064Z</time></trkpt><trkpt lat="46.1404098" lon="9.5468294"><ele>219.0</ele><time>2026-05-04T08:04:50.064Z</time></trkpt><trkpt lat="46.1404491" lon="9.5469795"><ele>219.0</ele><time>2026-05-04T08:04:52.063Z</time></trkpt><trkpt lat="46.1405173" lon="9.5471287"><ele>219.0</ele><time>2026-05-04T08:04:54.063Z</time></trkpt><trkpt lat="46.140597" lon="9.547266"><ele>219.0</ele><time>2026-05-04T08:04:56.063Z</time></trkpt><trkpt lat="46.1406606" lon="9.5474193"><ele>219.2</ele><time>2026-05-04T08:04:58.064Z</time></trkpt><trkpt lat="46.1407133" lon="9.5475641"><ele>219.39999999999998</ele><time>2026-05-04T08:05:00.064Z</time></trkpt><trkpt lat="46.140769" lon="9.5477233"><ele>219.6</ele><time>2026-05-04T08:05:02.065Z</time></trkpt><trkpt lat="46.1408144" lon="9.5478763"><ele>219.8</ele><time>2026-05-04T08:05:04.065Z</time></trkpt><trkpt lat="46.1408477" lon="9.5479573"><ele>220.0</ele><time>2026-05-04T08:05:05.064Z</time></trkpt><trkpt lat="46.1408824" lon="9.5480405"><ele>219.2</ele><time>2026-05-04T08:05:06.065Z</time></trkpt><trkpt lat="46.1409065" lon="9.5481351"><ele>218.4</ele><time>2026-05-04T08:05:07.064Z</time></trkpt><trkpt lat="46.1409212" lon="9.5482933"><ele>217.60000000000002</ele><time>2026-05-04T08:05:09.064Z</time></trkpt><trkpt lat="46.140887" lon="9.5483758"><ele>216.8</ele><time>2026-05-04T08:05:10.065Z</time></trkpt><trkpt lat="46.1408833" lon="9.5485469"><ele>216.0</ele><time>2026-05-04T08:05:12.065Z</time></trkpt><trkpt lat="46.1409641" lon="9.5485812"><ele>216.0</ele><time>2026-05-04T08:05:14.065Z</time></trkpt><trkpt lat="46.1410342" lon="9.5485223"><ele>216.00000000000003</ele><time>2026-05-04T08:05:16.064Z</time></trkpt><trkpt lat="46.1410972" lon="9.5484755"><ele>216.00000000000003</ele><time>2026-05-04T08:05:18.066Z</time></trkpt><trkpt lat="46.1411884" lon="9.5484063"><ele>216.0</ele><time>2026-05-04T08:05:23.065Z</time></trkpt><trkpt lat="46.1412993" lon="9.5483066"><ele>216.0</ele><time>2026-05-04T08:05:25.065Z</time></trkpt><trkpt lat="46.1413611" lon="9.5482648"><ele>216.0</ele><time>2026-05-04T08:05:26.064Z</time></trkpt><trkpt lat="46.1414207" lon="9.5482265"><ele>216.0</ele><time>2026-05-04T08:05:27.063Z</time></trkpt><trkpt lat="46.1415411" lon="9.5481915"><ele>216.0</ele><time>2026-05-04T08:05:29.064Z</time></trkpt><trkpt lat="46.141581" lon="9.5482625"><ele>216.0</ele><time>2026-05-04T08:05:30.064Z</time></trkpt><trkpt lat="46.1416124" lon="9.5483416"><ele>216.0</ele><time>2026-05-04T08:05:31.064Z</time></trkpt><trkpt lat="46.1416224" lon="9.5484939"><ele>216.0</ele><time>2026-05-04T08:05:33.063Z</time></trkpt><trkpt lat="46.1416492" lon="9.5485975"><ele>216.66666666666666</ele><time>2026-05-04T08:05:34.063Z</time></trkpt><trkpt lat="46.1416807" lon="9.548691"><ele>217.33333333333331</ele><time>2026-05-04T08:05:35.065Z</time></trkpt><trkpt lat="46.1417224" lon="9.5487745"><ele>218.0</ele><time>2026-05-04T08:05:36.063Z</time></trkpt><trkpt lat="46.1417736" lon="9.5488469"><ele>218.66666666666666</ele><time>2026-05-04T08:05:37.063Z</time></trkpt><trkpt lat="46.1418133" lon="9.5489307"><ele>219.33333333333331</ele><time>2026-05-04T08:05:38.064Z</time></trkpt><trkpt lat="46.141888" lon="9.5490632"><ele>220.0</ele><time>2026-05-04T08:05:40.066Z</time></trkpt><trkpt lat="46.1419291" lon="9.5491344"><ele>220.25</ele><time>2026-05-04T08:05:41.065Z</time></trkpt><trkpt lat="46.1420092" lon="9.5492683"><ele>220.5</ele><time>2026-05-04T08:05:43.064Z</time></trkpt><trkpt lat="46.1420862" lon="9.5493887"><ele>220.75</ele><time>2026-05-04T08:05:45.064Z</time></trkpt><trkpt lat="46.1421655" lon="9.5495057"><ele>221.0</ele><time>2026-05-04T08:05:47.064Z</time></trkpt><trkpt lat="46.1422538" lon="9.5496184"><ele>220.60000000000002</ele><time>2026-05-04T08:05:49.064Z</time></trkpt><trkpt lat="46.1423393" lon="9.5497321"><ele>220.20000000000002</ele><time>2026-05-04T08:05:51.065Z</time></trkpt><trkpt lat="46.1424151" lon="9.5498559"><ele>219.79999999999998</ele><time>2026-05-04T08:05:53.064Z</time></trkpt><trkpt lat="46.1424707" lon="9.5499275"><ele>219.39999999999998</ele><time>2026-05-04T08:05:55.064Z</time></trkpt><trkpt lat="46.1425654" lon="9.550065"><ele>219.0</ele><time>2026-05-04T08:05:57.064Z</time></trkpt><trkpt lat="46.1426555" lon="9.5501844"><ele>219.39999999999998</ele><time>2026-05-04T08:05:59.064Z</time></trkpt><trkpt lat="46.1427339" lon="9.5503008"><ele>219.79999999999998</ele><time>2026-05-04T08:06:01.064Z</time></trkpt><trkpt lat="46.1427759" lon="9.5503693"><ele>220.20000000000002</ele><time>2026-05-04T08:06:02.065Z</time></trkpt><trkpt lat="46.1428661" lon="9.5504822"><ele>220.60000000000002</ele><time>2026-05-04T08:06:04.064Z</time></trkpt><trkpt lat="46.1429482" lon="9.5506161"><ele>221.0</ele><time>2026-05-04T08:06:06.064Z</time></trkpt><trkpt lat="46.1430196" lon="9.5507317"><ele>221.0</ele><time>2026-05-04T08:06:08.065Z</time></trkpt><trkpt lat="46.1430838" lon="9.5508605"><ele>221.00000000000003</ele><time>2026-05-04T08:06:10.064Z</time></trkpt><trkpt lat="46.1431827" lon="9.5509238"><ele>221.00000000000003</ele><time>2026-05-04T08:06:12.064Z</time></trkpt><trkpt lat="46.1432933" lon="9.550934"><ele>221.0</ele><time>2026-05-04T08:06:14.064Z</time></trkpt><trkpt lat="46.1433866" lon="9.5508766"><ele>221.0</ele><time>2026-05-04T08:06:16.064Z</time></trkpt><trkpt lat="46.1434684" lon="9.5508065"><ele>220.83333333333334</ele><time>2026-05-04T08:06:18.065Z</time></trkpt><trkpt lat="46.1435293" lon="9.5507542"><ele>220.66666666666669</ele><time>2026-05-04T08:06:20.064Z</time></trkpt><trkpt lat="46.1436112" lon="9.5507042"><ele>220.5</ele><time>2026-05-04T08:06:22.064Z</time></trkpt><trkpt lat="46.1436699" lon="9.5506442"><ele>220.33333333333331</ele><time>2026-05-04T08:06:24.065Z</time></trkpt><trkpt lat="46.1437222" lon="9.5505923"><ele>220.16666666666666</ele><time>2026-05-04T08:06:26.064Z</time></trkpt><trkpt lat="46.1438332" lon="9.5504961"><ele>220.0</ele><time>2026-05-04T08:06:28.066Z</time></trkpt><trkpt lat="46.1439557" lon="9.5504976"><ele>220.66666666666666</ele><time>2026-05-04T08:06:30.064Z</time></trkpt><trkpt lat="46.1440513" lon="9.5506144"><ele>221.33333333333331</ele><time>2026-05-04T08:06:32.064Z</time></trkpt><trkpt lat="46.144098" lon="9.5506856"><ele>222.0</ele><time>2026-05-04T08:06:33.064Z</time></trkpt><trkpt lat="46.1441303" lon="9.5507727"><ele>222.66666666666669</ele><time>2026-05-04T08:06:34.064Z</time></trkpt><trkpt lat="46.1441528" lon="9.5508585"><ele>223.33333333333334</ele><time>2026-05-04T08:06:35.063Z</time></trkpt><trkpt lat="46.1441705" lon="9.5509493"><ele>224.0</ele><time>2026-05-04T08:06:36.066Z</time></trkpt><trkpt lat="46.1441858" lon="9.5510403"><ele>223.00000000000003</ele><time>2026-05-04T08:06:37.064Z</time></trkpt><trkpt lat="46.1442068" lon="9.5512138"><ele>222.0</ele><time>2026-05-04T08:06:39.063Z</time></trkpt><trkpt lat="46.144241" lon="9.5513681"><ele>221.0</ele><time>2026-05-04T08:06:41.064Z</time></trkpt><trkpt lat="46.1442561" lon="9.5514572"><ele>220.0</ele><time>2026-05-04T08:06:42.064Z</time></trkpt><trkpt lat="46.1442737" lon="9.5515541"><ele>219.00000000000003</ele><time>2026-05-04T08:06:43.065Z</time></trkpt><trkpt lat="46.1442993" lon="9.5516469"><ele>218.0</ele><time>2026-05-04T08:06:44.065Z</time></trkpt><trkpt lat="46.1443248" lon="9.5517432"><ele>218.0</ele><time>2026-05-04T08:06:45.065Z</time></trkpt><trkpt lat="46.1443583" lon="9.5518391"><ele>218.0</ele><time>2026-05-04T08:06:46.063Z</time></trkpt><trkpt lat="46.144415" lon="9.5519848"><ele>218.0</ele><time>2026-05-04T08:06:48.066Z</time></trkpt><trkpt lat="46.1444451" lon="9.5520667"><ele>218.0</ele><time>2026-05-04T08:06:49.063Z</time></trkpt><trkpt lat="46.1444768" lon="9.552182"><ele>218.0</ele><time>2026-05-04T08:06:50.064Z</time></trkpt><trkpt lat="46.144499" lon="9.5523373"><ele>218.0</ele><time>2026-05-04T08:06:52.064Z</time></trkpt><trkpt lat="46.1445344" lon="9.5525056"><ele>218.0</ele><time>2026-05-04T08:06:54.064Z</time></trkpt><trkpt lat="46.144578" lon="9.5526479"><ele>218.0</ele><time>2026-05-04T08:06:56.065Z</time></trkpt><trkpt lat="46.1446164" lon="9.5527987"><ele>218.0</ele><time>2026-05-04T08:06:58.064Z</time></trkpt><trkpt lat="46.144644" lon="9.5529351"><ele>218.0</ele><time>2026-05-04T08:07:00.064Z</time></trkpt><trkpt lat="46.1446693" lon="9.5530686"><ele>218.00000000000003</ele><time>2026-05-04T08:07:02.064Z</time></trkpt><trkpt lat="46.1447105" lon="9.553181"><ele>218.0</ele><time>2026-05-04T08:07:04.066Z</time></trkpt><trkpt lat="46.1447238" lon="9.5532936"><ele>218.0</ele><time>2026-05-04T08:07:06.064Z</time></trkpt><trkpt lat="46.1447529" lon="9.5534038"><ele>218.0</ele><time>2026-05-04T08:07:08.064Z</time></trkpt><trkpt lat="46.1447517" lon="9.5535439"><ele>218.00000000000003</ele><time>2026-05-04T08:07:10.065Z</time></trkpt><trkpt lat="46.1447545" lon="9.5536842"><ele>218.0</ele><time>2026-05-04T08:07:12.064Z</time></trkpt><trkpt lat="46.1447518" lon="9.5538496"><ele>219.0</ele><time>2026-05-04T08:07:14.065Z</time></trkpt><trkpt lat="46.1447849" lon="9.5539824"><ele>220.0</ele><time>2026-05-04T08:07:16.066Z</time></trkpt><trkpt lat="46.1447798" lon="9.5540794"><ele>221.0</ele><time>2026-05-04T08:07:17.065Z</time></trkpt><trkpt lat="46.1448165" lon="9.5542264"><ele>222.0</ele><time>2026-05-04T08:07:19.065Z</time></trkpt><trkpt lat="46.1448357" lon="9.554386"><ele>223.0</ele><time>2026-05-04T08:07:21.065Z</time></trkpt><trkpt lat="46.1448279" lon="9.5544824"><ele>223.0</ele><time>2026-05-04T08:07:22.065Z</time></trkpt><trkpt lat="46.144819" lon="9.5546408"><ele>223.0</ele><time>2026-05-04T08:07:24.065Z</time></trkpt><trkpt lat="46.1448345" lon="9.5547889"><ele>223.0</ele><time>2026-05-04T08:07:26.063Z</time></trkpt><trkpt lat="46.1448321" lon="9.5549485"><ele>223.0</ele><time>2026-05-04T08:07:28.064Z</time></trkpt><trkpt lat="46.1448456" lon="9.5551004"><ele>223.0</ele><time>2026-05-04T08:07:30.065Z</time></trkpt><trkpt lat="46.144863" lon="9.5552449"><ele>223.2</ele><time>2026-05-04T08:07:32.063Z</time></trkpt><trkpt lat="46.1448717" lon="9.555391"><ele>223.4</ele><time>2026-05-04T08:07:34.066Z</time></trkpt><trkpt lat="46.1448777" lon="9.5555575"><ele>223.59999999999997</ele><time>2026-05-04T08:07:36.065Z</time></trkpt><trkpt lat="46.1448901" lon="9.5557169"><ele>223.79999999999998</ele><time>2026-05-04T08:07:38.064Z</time></trkpt><trkpt lat="46.144892" lon="9.5558721"><ele>224.0</ele><time>2026-05-04T08:07:40.063Z</time></trkpt><trkpt lat="46.1448986" lon="9.5560245"><ele>228.6</ele><time>2026-05-04T08:07:42.064Z</time></trkpt><trkpt lat="46.1449018" lon="9.5561801"><ele>233.2</ele><time>2026-05-04T08:07:44.065Z</time></trkpt><trkpt lat="46.1449113" lon="9.5563296"><ele>237.79999999999998</ele><time>2026-05-04T08:07:46.065Z</time></trkpt><trkpt lat="46.1449296" lon="9.5564811"><ele>242.39999999999998</ele><time>2026-05-04T08:07:48.063Z</time></trkpt><trkpt lat="46.1449519" lon="9.5566174"><ele>247.0</ele><time>2026-05-04T08:07:50.066Z</time></trkpt><trkpt lat="46.1449734" lon="9.5567657"><ele>247.0</ele><time>2026-05-04T08:07:52.063Z</time></trkpt><trkpt lat="46.1449787" lon="9.5569127"><ele>247.0</ele><time>2026-05-04T08:07:54.065Z</time></trkpt><trkpt lat="46.144995" lon="9.5570538"><ele>247.0</ele><time>2026-05-04T08:07:56.065Z</time></trkpt><trkpt lat="46.1450172" lon="9.5572083"><ele>247.0</ele><time>2026-05-04T08:07:58.064Z</time></trkpt><trkpt lat="46.1450315" lon="9.557354"><ele>247.0</ele><time>2026-05-04T08:08:00.065Z</time></trkpt><trkpt lat="46.145043" lon="9.5575122"><ele>243.8</ele><time>2026-05-04T08:08:02.065Z</time></trkpt><trkpt lat="46.1450636" lon="9.5576548"><ele>240.6</ele><time>2026-05-04T08:08:04.065Z</time></trkpt><trkpt lat="46.1450955" lon="9.5577784"><ele>237.40000000000003</ele><time>2026-05-04T08:08:06.064Z</time></trkpt><trkpt lat="46.1450973" lon="9.5579367"><ele>234.20000000000002</ele><time>2026-05-04T08:08:08.066Z</time></trkpt><trkpt lat="46.1450996" lon="9.5580833"><ele>231.0</ele><time>2026-05-04T08:08:10.066Z</time></trkpt><trkpt lat="46.1451088" lon="9.5582378"><ele>230.20000000000002</ele><time>2026-05-04T08:08:12.065Z</time></trkpt><trkpt lat="46.1451221" lon="9.5583853"><ele>229.40000000000003</ele><time>2026-05-04T08:08:14.065Z</time></trkpt><trkpt lat="46.1451578" lon="9.5585357"><ele>228.6</ele><time>2026-05-04T08:08:16.064Z</time></trkpt><trkpt lat="46.1451853" lon="9.5586749"><ele>227.8</ele><time>2026-05-04T08:08:18.065Z</time></trkpt><trkpt lat="46.1452014" lon="9.5587847"><ele>227.0</ele><time>2026-05-04T08:08:20.063Z</time></trkpt><trkpt lat="46.1452205" lon="9.558934"><ele>226.8</ele><time>2026-05-04T08:08:22.065Z</time></trkpt><trkpt lat="46.1452412" lon="9.5590934"><ele>226.6</ele><time>2026-05-04T08:08:24.065Z</time></trkpt><trkpt lat="46.1452754" lon="9.5592457"><ele>226.40000000000003</ele><time>2026-05-04T08:08:26.066Z</time></trkpt><trkpt lat="46.1453023" lon="9.5594011"><ele>226.20000000000002</ele><time>2026-05-04T08:08:28.065Z</time></trkpt><trkpt lat="46.1453124" lon="9.5595482"><ele>226.0</ele><time>2026-05-04T08:08:30.065Z</time></trkpt><trkpt lat="46.1453266" lon="9.559716"><ele>226.4</ele><time>2026-05-04T08:08:32.066Z</time></trkpt><trkpt lat="46.1453312" lon="9.5598696"><ele>226.8</ele><time>2026-05-04T08:08:34.065Z</time></trkpt><trkpt lat="46.1453435" lon="9.5600189"><ele>227.20000000000002</ele><time>2026-05-04T08:08:36.065Z</time></trkpt><trkpt lat="46.1453543" lon="9.5601545"><ele>227.60000000000002</ele><time>2026-05-04T08:08:38.065Z</time></trkpt><trkpt lat="46.1453635" lon="9.5603249"><ele>228.0</ele><time>2026-05-04T08:08:40.064Z</time></trkpt><trkpt lat="46.1453576" lon="9.560501"><ele>227.0</ele><time>2026-05-04T08:08:42.065Z</time></trkpt><trkpt lat="46.1453726" lon="9.5606293"><ele>226.0</ele><time>2026-05-04T08:08:44.066Z</time></trkpt><trkpt lat="46.1453845" lon="9.5607843"><ele>225.0</ele><time>2026-05-04T08:08:46.065Z</time></trkpt><trkpt lat="46.145411" lon="9.5609321"><ele>224.0</ele><time>2026-05-04T08:08:48.064Z</time></trkpt><trkpt lat="46.1454317" lon="9.5610688"><ele>223.0</ele><time>2026-05-04T08:08:50.063Z</time></trkpt><trkpt lat="46.1454492" lon="9.5612263"><ele>222.0</ele><time>2026-05-04T08:08:52.065Z</time></trkpt><trkpt lat="46.1454772" lon="9.5613794"><ele>221.0</ele><time>2026-05-04T08:08:54.064Z</time></trkpt><trkpt lat="46.145499" lon="9.56151"><ele>220.0</ele><time>2026-05-04T08:08:56.066Z</time></trkpt><trkpt lat="46.1455157" lon="9.5616723"><ele>219.0</ele><time>2026-05-04T08:08:58.064Z</time></trkpt><trkpt lat="46.1455309" lon="9.5618363"><ele>218.0</ele><time>2026-05-04T08:09:00.064Z</time></trkpt><trkpt lat="46.1455437" lon="9.5619903"><ele>218.25</ele><time>2026-05-04T08:09:02.064Z</time></trkpt><trkpt lat="46.1455652" lon="9.5621483"><ele>218.5</ele><time>2026-05-04T08:09:04.064Z</time></trkpt><trkpt lat="46.1455853" lon="9.5623065"><ele>218.75</ele><time>2026-05-04T08:09:06.066Z</time></trkpt><trkpt lat="46.1455984" lon="9.5624787"><ele>219.0</ele><time>2026-05-04T08:09:08.065Z</time></trkpt><trkpt lat="46.1456012" lon="9.5626343"><ele>219.0</ele><time>2026-05-04T08:09:10.065Z</time></trkpt><trkpt lat="46.1456098" lon="9.562782"><ele>218.99999999999997</ele><time>2026-05-04T08:09:12.065Z</time></trkpt><trkpt lat="46.145622" lon="9.5629313"><ele>218.99999999999997</ele><time>2026-05-04T08:09:14.064Z</time></trkpt><trkpt lat="46.1456366" lon="9.5630862"><ele>219.0</ele><time>2026-05-04T08:09:16.065Z</time></trkpt><trkpt lat="46.1456573" lon="9.5632534"><ele>219.0</ele><time>2026-05-04T08:09:18.065Z</time></trkpt><trkpt lat="46.1456847" lon="9.5634102"><ele>220.25</ele><time>2026-05-04T08:09:20.065Z</time></trkpt><trkpt lat="46.145711" lon="9.5635704"><ele>221.5</ele><time>2026-05-04T08:09:22.064Z</time></trkpt><trkpt lat="46.1457149" lon="9.5637267"><ele>222.75</ele><time>2026-05-04T08:09:24.065Z</time></trkpt><trkpt lat="46.1457102" lon="9.5638858"><ele>224.0</ele><time>2026-05-04T08:09:26.064Z</time></trkpt><trkpt lat="46.1457162" lon="9.5640603"><ele>230.0</ele><time>2026-05-04T08:09:28.064Z</time></trkpt><trkpt lat="46.1457319" lon="9.5642251"><ele>236.0</ele><time>2026-05-04T08:09:30.065Z</time></trkpt><trkpt lat="46.1457347" lon="9.5643942"><ele>242.0</ele><time>2026-05-04T08:09:32.066Z</time></trkpt><trkpt lat="46.1457408" lon="9.5645675"><ele>248.0</ele><time>2026-05-04T08:09:34.066Z</time></trkpt><trkpt lat="46.1457597" lon="9.5647089"><ele>248.0</ele><time>2026-05-04T08:09:36.066Z</time></trkpt><trkpt lat="46.1457762" lon="9.5648514"><ele>248.0</ele><time>2026-05-04T08:09:38.065Z</time></trkpt><trkpt lat="46.1457866" lon="9.5650025"><ele>248.0</ele><time>2026-05-04T08:09:40.065Z</time></trkpt><trkpt lat="46.1457931" lon="9.5650949"><ele>248.0</ele><time>2026-05-04T08:09:41.066Z</time></trkpt><trkpt lat="46.1458258" lon="9.5652427"><ele>248.0</ele><time>2026-05-04T08:09:43.065Z</time></trkpt><trkpt lat="46.1458482" lon="9.5653877"><ele>247.60000000000002</ele><time>2026-05-04T08:09:45.066Z</time></trkpt><trkpt lat="46.1458431" lon="9.5655437"><ele>247.20000000000002</ele><time>2026-05-04T08:09:47.065Z</time></trkpt><trkpt lat="46.1458551" lon="9.5656988"><ele>246.8</ele><time>2026-05-04T08:09:49.066Z</time></trkpt><trkpt lat="46.1458612" lon="9.5658501"><ele>246.4</ele><time>2026-05-04T08:09:51.066Z</time></trkpt><trkpt lat="46.1458476" lon="9.5659791"><ele>246.0</ele><time>2026-05-04T08:09:53.066Z</time></trkpt><trkpt lat="46.1458737" lon="9.5660887"><ele>244.60000000000002</ele><time>2026-05-04T08:09:55.065Z</time></trkpt><trkpt lat="46.1459047" lon="9.5662435"><ele>243.20000000000002</ele><time>2026-05-04T08:09:57.064Z</time></trkpt><trkpt lat="46.1459208" lon="9.5663894"><ele>241.79999999999998</ele><time>2026-05-04T08:09:59.064Z</time></trkpt><trkpt lat="46.1459413" lon="9.5665128"><ele>240.39999999999998</ele><time>2026-05-04T08:10:01.065Z</time></trkpt><trkpt lat="46.1459503" lon="9.5666315"><ele>239.0</ele><time>2026-05-04T08:10:03.065Z</time></trkpt><trkpt lat="46.145978" lon="9.5667558"><ele>239.00000000000003</ele><time>2026-05-04T08:10:05.065Z</time></trkpt><trkpt lat="46.1459854" lon="9.5668646"><ele>239.0</ele><time>2026-05-04T08:10:06.066Z</time></trkpt><trkpt lat="46.1459907" lon="9.566967"><ele>239.0</ele><time>2026-05-04T08:10:07.065Z</time></trkpt><trkpt lat="46.1459897" lon="9.5670662"><ele>239.0</ele><time>2026-05-04T08:10:08.065Z</time></trkpt><trkpt lat="46.1459933" lon="9.5672301"><ele>239.00000000000003</ele><time>2026-05-04T08:10:10.065Z</time></trkpt><trkpt lat="46.1459922" lon="9.5673243"><ele>239.0</ele><time>2026-05-04T08:10:11.066Z</time></trkpt><trkpt lat="46.1460044" lon="9.5674977"><ele>238.6</ele><time>2026-05-04T08:10:13.065Z</time></trkpt><trkpt lat="46.1460005" lon="9.5676681"><ele>238.2</ele><time>2026-05-04T08:10:15.065Z</time></trkpt><trkpt lat="46.146004" lon="9.5678367"><ele>237.79999999999998</ele><time>2026-05-04T08:10:17.066Z</time></trkpt><trkpt lat="46.1460021" lon="9.5679338"><ele>237.39999999999998</ele><time>2026-05-04T08:10:18.065Z</time></trkpt><trkpt lat="46.1460045" lon="9.5681008"><ele>237.0</ele><time>2026-05-04T08:10:20.066Z</time></trkpt><trkpt lat="46.1460079" lon="9.5682576"><ele>236.0</ele><time>2026-05-04T08:10:22.064Z</time></trkpt><trkpt lat="46.1460299" lon="9.5684185"><ele>235.0</ele><time>2026-05-04T08:10:24.064Z</time></trkpt><trkpt lat="46.1460547" lon="9.5685742"><ele>234.0</ele><time>2026-05-04T08:10:26.067Z</time></trkpt><trkpt lat="46.1460736" lon="9.5687377"><ele>233.0</ele><time>2026-05-04T08:10:28.064Z</time></trkpt><trkpt lat="46.146086" lon="9.5689151"><ele>233.75</ele><time>2026-05-04T08:10:30.065Z</time></trkpt><trkpt lat="46.1460901" lon="9.5690866"><ele>234.5</ele><time>2026-05-04T08:10:32.064Z</time></trkpt><trkpt lat="46.1460881" lon="9.5692598"><ele>235.25</ele><time>2026-05-04T08:10:34.066Z</time></trkpt><trkpt lat="46.1460999" lon="9.5694358"><ele>236.0</ele><time>2026-05-04T08:10:36.064Z</time></trkpt><trkpt lat="46.146114" lon="9.5695938"><ele>236.0</ele><time>2026-05-04T08:10:38.066Z</time></trkpt><trkpt lat="46.1461249" lon="9.5697539"><ele>236.00000000000003</ele><time>2026-05-04T08:10:40.064Z</time></trkpt><trkpt lat="46.1461546" lon="9.5698868"><ele>236.00000000000003</ele><time>2026-05-04T08:10:42.065Z</time></trkpt><trkpt lat="46.1461518" lon="9.5700444"><ele>236.0</ele><time>2026-05-04T08:10:44.066Z</time></trkpt><trkpt lat="46.146143" lon="9.5702045"><ele>236.0</ele><time>2026-05-04T08:10:46.065Z</time></trkpt><trkpt lat="46.1461455" lon="9.5703572"><ele>233.75</ele><time>2026-05-04T08:10:48.064Z</time></trkpt><trkpt lat="46.1461546" lon="9.5705297"><ele>231.5</ele><time>2026-05-04T08:10:50.065Z</time></trkpt><trkpt lat="46.14615" lon="9.5706993"><ele>229.25</ele><time>2026-05-04T08:10:52.065Z</time></trkpt><trkpt lat="46.1461601" lon="9.5708485"><ele>227.0</ele><time>2026-05-04T08:10:54.064Z</time></trkpt><trkpt lat="46.1461838" lon="9.5710103"><ele>227.00000000000003</ele><time>2026-05-04T08:10:56.065Z</time></trkpt><trkpt lat="46.146205" lon="9.5711479"><ele>227.0</ele><time>2026-05-04T08:10:58.066Z</time></trkpt><trkpt lat="46.1462223" lon="9.571253"><ele>227.0</ele><time>2026-05-04T08:11:00.419Z</time></trkpt><trkpt lat="46.1462617" lon="9.5713555"><ele>227.0</ele><time>2026-05-04T08:11:03.064Z</time></trkpt><trkpt lat="46.1463106" lon="9.571443"><ele>227.00000000000003</ele><time>2026-05-04T08:11:06.065Z</time></trkpt><trkpt lat="46.1463631" lon="9.5715029"><ele>227.0</ele><time>2026-05-04T08:11:09.064Z</time></trkpt><trkpt lat="46.1463776" lon="9.5716061"><ele>226.66666666666669</ele><time>2026-05-04T08:11:12.065Z</time></trkpt><trkpt lat="46.1463825" lon="9.5717155"><ele>226.33333333333334</ele><time>2026-05-04T08:11:15.064Z</time></trkpt><trkpt lat="46.1463758" lon="9.5718353"><ele>226.0</ele><time>2026-05-04T08:11:18.064Z</time></trkpt><trkpt lat="46.1463874" lon="9.5719518"><ele>225.66666666666669</ele><time>2026-05-04T08:11:20.065Z</time></trkpt><trkpt lat="46.1464013" lon="9.5721038"><ele>225.33333333333334</ele><time>2026-05-04T08:11:22.065Z</time></trkpt><trkpt lat="46.1464058" lon="9.5721965"><ele>225.0</ele><time>2026-05-04T08:11:23.065Z</time></trkpt><trkpt lat="46.1464138" lon="9.5722867"><ele>225.0</ele><time>2026-05-04T08:11:24.064Z</time></trkpt><trkpt lat="46.1464168" lon="9.5723828"><ele>225.0</ele><time>2026-05-04T08:11:25.065Z</time></trkpt><trkpt lat="46.1464212" lon="9.5724776"><ele>225.0</ele><time>2026-05-04T08:11:26.066Z</time></trkpt><trkpt lat="46.1464353" lon="9.5726528"><ele>225.0</ele><time>2026-05-04T08:11:28.065Z</time></trkpt><trkpt lat="46.1464228" lon="9.5728378"><ele>225.0</ele><time>2026-05-04T08:11:30.064Z</time></trkpt><trkpt lat="46.1464103" lon="9.5729324"><ele>225.5</ele><time>2026-05-04T08:11:31.066Z</time></trkpt><trkpt lat="46.1464031" lon="9.5731088"><ele>226.0</ele><time>2026-05-04T08:11:33.065Z</time></trkpt><trkpt lat="46.1463967" lon="9.5732728"><ele>226.5</ele><time>2026-05-04T08:11:35.066Z</time></trkpt><trkpt lat="46.1464109" lon="9.5734174"><ele>227.0</ele><time>2026-05-04T08:11:37.065Z</time></trkpt><trkpt lat="46.1464234" lon="9.5735844"><ele>226.6</ele><time>2026-05-04T08:11:39.064Z</time></trkpt><trkpt lat="46.1464422" lon="9.5737461"><ele>226.2</ele><time>2026-05-04T08:11:41.064Z</time></trkpt><trkpt lat="46.1464626" lon="9.573895"><ele>225.8</ele><time>2026-05-04T08:11:43.064Z</time></trkpt><trkpt lat="46.1464877" lon="9.5740339"><ele>225.4</ele><time>2026-05-04T08:11:45.065Z</time></trkpt><trkpt lat="46.1465193" lon="9.5741965"><ele>225.0</ele><time>2026-05-04T08:11:47.065Z</time></trkpt><trkpt lat="46.1465611" lon="9.5743502"><ele>227.8</ele><time>2026-05-04T08:11:49.064Z</time></trkpt><trkpt lat="46.1465973" lon="9.5744978"><ele>230.6</ele><time>2026-05-04T08:11:51.066Z</time></trkpt><trkpt lat="46.1466271" lon="9.5746547"><ele>233.39999999999998</ele><time>2026-05-04T08:11:53.065Z</time></trkpt><trkpt lat="46.146655" lon="9.5748124"><ele>236.2</ele><time>2026-05-04T08:11:55.066Z</time></trkpt><trkpt lat="46.1466954" lon="9.5749522"><ele>239.0</ele><time>2026-05-04T08:11:57.065Z</time></trkpt><trkpt lat="46.1467375" lon="9.5751242"><ele>239.0</ele><time>2026-05-04T08:11:59.065Z</time></trkpt><trkpt lat="46.1467752" lon="9.5752879"><ele>239.0</ele><time>2026-05-04T08:12:01.066Z</time></trkpt><trkpt lat="46.1467909" lon="9.5754427"><ele>239.0</ele><time>2026-05-04T08:12:03.065Z</time></trkpt><trkpt lat="46.1467713" lon="9.5756017"><ele>239.0</ele><time>2026-05-04T08:12:05.065Z</time></trkpt><trkpt lat="46.1467224" lon="9.5757527"><ele>237.39999999999998</ele><time>2026-05-04T08:12:07.065Z</time></trkpt><trkpt lat="46.1466621" lon="9.5758684"><ele>235.79999999999998</ele><time>2026-05-04T08:12:09.066Z</time></trkpt><trkpt lat="46.1465714" lon="9.5759592"><ele>234.20000000000002</ele><time>2026-05-04T08:12:11.065Z</time></trkpt><trkpt lat="46.1464803" lon="9.576051"><ele>232.60000000000002</ele><time>2026-05-04T08:12:13.066Z</time></trkpt><trkpt lat="46.1464007" lon="9.5761296"><ele>231.0</ele><time>2026-05-04T08:12:15.067Z</time></trkpt><trkpt lat="46.1463126" lon="9.5762179"><ele>229.8</ele><time>2026-05-04T08:12:17.065Z</time></trkpt><trkpt lat="46.1462222" lon="9.5762925"><ele>228.60000000000002</ele><time>2026-05-04T08:12:19.065Z</time></trkpt><trkpt lat="46.1461254" lon="9.576369"><ele>227.4</ele><time>2026-05-04T08:12:21.066Z</time></trkpt><trkpt lat="46.146038" lon="9.5764549"><ele>226.2</ele><time>2026-05-04T08:12:23.065Z</time></trkpt><trkpt lat="46.1459761" lon="9.5765659"><ele>225.0</ele><time>2026-05-04T08:12:25.066Z</time></trkpt><trkpt lat="46.1459756" lon="9.5767099"><ele>225.0</ele><time>2026-05-04T08:12:27.065Z</time></trkpt><trkpt lat="46.1459799" lon="9.5768418"><ele>225.0</ele><time>2026-05-04T08:12:29.066Z</time></trkpt><trkpt lat="46.1459822" lon="9.5769757"><ele>225.0</ele><time>2026-05-04T08:12:31.067Z</time></trkpt><trkpt lat="46.1459887" lon="9.5771147"><ele>225.0</ele><time>2026-05-04T08:12:33.066Z</time></trkpt><trkpt lat="46.1460011" lon="9.577265"><ele>225.0</ele><time>2026-05-04T08:12:35.066Z</time></trkpt><trkpt lat="46.1459814" lon="9.5773863"><ele>225.33333333333334</ele><time>2026-05-04T08:12:37.065Z</time></trkpt><trkpt lat="46.145919" lon="9.5774033"><ele>225.66666666666669</ele><time>2026-05-04T08:12:39.066Z</time></trkpt><trkpt lat="46.1458389" lon="9.5774187"><ele>226.0</ele><time>2026-05-04T08:12:41.065Z</time></trkpt><trkpt lat="46.1457469" lon="9.5774441"><ele>226.33333333333334</ele><time>2026-05-04T08:12:43.066Z</time></trkpt><trkpt lat="46.1456703" lon="9.577532"><ele>226.66666666666669</ele><time>2026-05-04T08:12:45.064Z</time></trkpt><trkpt lat="46.1456171" lon="9.5776311"><ele>227.0</ele><time>2026-05-04T08:12:47.065Z</time></trkpt><trkpt lat="46.1455674" lon="9.57776"><ele>226.6</ele><time>2026-05-04T08:12:49.066Z</time></trkpt><trkpt lat="46.1455425" lon="9.5779203"><ele>226.2</ele><time>2026-05-04T08:12:51.065Z</time></trkpt><trkpt lat="46.1455227" lon="9.5780731"><ele>225.8</ele><time>2026-05-04T08:12:53.066Z</time></trkpt><trkpt lat="46.145509" lon="9.578232"><ele>225.4</ele><time>2026-05-04T08:12:55.065Z</time></trkpt><trkpt lat="46.1454965" lon="9.5783953"><ele>225.0</ele><time>2026-05-04T08:12:57.065Z</time></trkpt><trkpt lat="46.1454732" lon="9.5785576"><ele>225.75</ele><time>2026-05-04T08:12:59.067Z</time></trkpt><trkpt lat="46.1454409" lon="9.5787182"><ele>226.5</ele><time>2026-05-04T08:13:01.065Z</time></trkpt><trkpt lat="46.1453992" lon="9.5788759"><ele>227.25</ele><time>2026-05-04T08:13:03.066Z</time></trkpt><trkpt lat="46.145333" lon="9.5790132"><ele>228.0</ele><time>2026-05-04T08:13:05.066Z</time></trkpt><trkpt lat="46.1452498" lon="9.5791006"><ele>228.0</ele><time>2026-05-04T08:13:07.064Z</time></trkpt><trkpt lat="46.1451711" lon="9.5792028"><ele>228.0</ele><time>2026-05-04T08:13:09.064Z</time></trkpt><trkpt lat="46.1450706" lon="9.5792794"><ele>228.0</ele><time>2026-05-04T08:13:11.065Z</time></trkpt><trkpt lat="46.1449771" lon="9.579356"><ele>228.0</ele><time>2026-05-04T08:13:13.064Z</time></trkpt><trkpt lat="46.1448868" lon="9.5794191"><ele>228.0</ele><time>2026-05-04T08:13:15.066Z</time></trkpt><trkpt lat="46.1447892" lon="9.5794986"><ele>228.2</ele><time>2026-05-04T08:13:17.065Z</time></trkpt><trkpt lat="46.1446981" lon="9.5796092"><ele>228.4</ele><time>2026-05-04T08:13:19.064Z</time></trkpt><trkpt lat="46.1446241" lon="9.5797338"><ele>228.59999999999997</ele><time>2026-05-04T08:13:21.066Z</time></trkpt><trkpt lat="46.1445918" lon="9.5798213"><ele>228.79999999999998</ele><time>2026-05-04T08:13:22.065Z</time></trkpt><trkpt lat="46.1445331" lon="9.5799474"><ele>229.0</ele><time>2026-05-04T08:13:24.066Z</time></trkpt><trkpt lat="46.1444995" lon="9.5800348"><ele>229.0</ele><time>2026-05-04T08:13:25.066Z</time></trkpt><trkpt lat="46.1444422" lon="9.5801723"><ele>228.99999999999997</ele><time>2026-05-04T08:13:27.065Z</time></trkpt><trkpt lat="46.1443853" lon="9.5803009"><ele>228.99999999999997</ele><time>2026-05-04T08:13:29.067Z</time></trkpt><trkpt lat="46.1443169" lon="9.5804266"><ele>229.0</ele><time>2026-05-04T08:13:31.064Z</time></trkpt><trkpt lat="46.1442455" lon="9.5805603"><ele>229.0</ele><time>2026-05-04T08:13:33.066Z</time></trkpt><trkpt lat="46.1442004" lon="9.5807063"><ele>229.2</ele><time>2026-05-04T08:13:35.065Z</time></trkpt><trkpt lat="46.1441661" lon="9.5807864"><ele>229.39999999999998</ele><time>2026-05-04T08:13:36.066Z</time></trkpt><trkpt lat="46.1440957" lon="9.5809395"><ele>229.6</ele><time>2026-05-04T08:13:38.065Z</time></trkpt><trkpt lat="46.1440461" lon="9.5810855"><ele>229.8</ele><time>2026-05-04T08:13:40.066Z</time></trkpt><trkpt lat="46.1439889" lon="9.5812055"><ele>230.0</ele><time>2026-05-04T08:13:42.067Z</time></trkpt><trkpt lat="46.143918" lon="9.5813526"><ele>229.6</ele><time>2026-05-04T08:13:44.065Z</time></trkpt><trkpt lat="46.1438867" lon="9.5814351"><ele>229.2</ele><time>2026-05-04T08:13:45.065Z</time></trkpt><trkpt lat="46.1438223" lon="9.5815806"><ele>228.8</ele><time>2026-05-04T08:13:47.066Z</time></trkpt><trkpt lat="46.1437553" lon="9.5817262"><ele>228.4</ele><time>2026-05-04T08:13:49.065Z</time></trkpt><trkpt lat="46.1436923" lon="9.5818856"><ele>228.0</ele><time>2026-05-04T08:13:51.066Z</time></trkpt><trkpt lat="46.1436284" lon="9.5820258"><ele>228.0</ele><time>2026-05-04T08:13:53.065Z</time></trkpt><trkpt lat="46.143565" lon="9.5821671"><ele>228.0</ele><time>2026-05-04T08:13:55.065Z</time></trkpt><trkpt lat="46.1435003" lon="9.5823192"><ele>228.0</ele><time>2026-05-04T08:13:57.064Z</time></trkpt><trkpt lat="46.1434397" lon="9.5824672"><ele>228.0</ele><time>2026-05-04T08:13:59.064Z</time></trkpt><trkpt lat="46.1433765" lon="9.5826104"><ele>228.0</ele><time>2026-05-04T08:14:01.065Z</time></trkpt><trkpt lat="46.1433053" lon="9.5827567"><ele>228.0</ele><time>2026-05-04T08:14:03.068Z</time></trkpt><trkpt lat="46.1432723" lon="9.58285"><ele>228.0</ele><time>2026-05-04T08:14:04.067Z</time></trkpt><trkpt lat="46.1432042" lon="9.5829819"><ele>228.0</ele><time>2026-05-04T08:14:06.065Z</time></trkpt><trkpt lat="46.1431693" lon="9.5831406"><ele>228.0</ele><time>2026-05-04T08:14:08.067Z</time></trkpt><trkpt lat="46.1431513" lon="9.5833194"><ele>228.4</ele><time>2026-05-04T08:14:10.066Z</time></trkpt><trkpt lat="46.1431511" lon="9.5834718"><ele>228.8</ele><time>2026-05-04T08:14:12.065Z</time></trkpt><trkpt lat="46.1431449" lon="9.5835824"><ele>229.2</ele><time>2026-05-04T08:14:13.065Z</time></trkpt><trkpt lat="46.1431478" lon="9.5837562"><ele>229.6</ele><time>2026-05-04T08:14:15.065Z</time></trkpt><trkpt lat="46.1431607" lon="9.5839182"><ele>230.0</ele><time>2026-05-04T08:14:17.066Z</time></trkpt><trkpt lat="46.1431591" lon="9.584011"><ele>230.25</ele><time>2026-05-04T08:14:18.065Z</time></trkpt><trkpt lat="46.1431488" lon="9.5841782"><ele>230.5</ele><time>2026-05-04T08:14:20.065Z</time></trkpt><trkpt lat="46.1431569" lon="9.5843413"><ele>230.75</ele><time>2026-05-04T08:14:22.066Z</time></trkpt><trkpt lat="46.1431551" lon="9.5845142"><ele>231.0</ele><time>2026-05-04T08:14:24.065Z</time></trkpt><trkpt lat="46.1431234" lon="9.5846643"><ele>231.0</ele><time>2026-05-04T08:14:26.065Z</time></trkpt><trkpt lat="46.143074" lon="9.5848024"><ele>231.0</ele><time>2026-05-04T08:14:28.066Z</time></trkpt><trkpt lat="46.1430274" lon="9.5849569"><ele>231.0</ele><time>2026-05-04T08:14:30.067Z</time></trkpt><trkpt lat="46.142979" lon="9.5851146"><ele>231.0</ele><time>2026-05-04T08:14:32.066Z</time></trkpt><trkpt lat="46.1429305" lon="9.5852752"><ele>231.25</ele><time>2026-05-04T08:14:34.067Z</time></trkpt><trkpt lat="46.1429011" lon="9.5854368"><ele>231.5</ele><time>2026-05-04T08:14:36.066Z</time></trkpt><trkpt lat="46.1428648" lon="9.5856074"><ele>231.75</ele><time>2026-05-04T08:14:38.066Z</time></trkpt><trkpt lat="46.1428223" lon="9.5857632"><ele>232.0</ele><time>2026-05-04T08:14:40.064Z</time></trkpt><trkpt lat="46.1427891" lon="9.5859346"><ele>232.0</ele><time>2026-05-04T08:14:42.065Z</time></trkpt><trkpt lat="46.1427613" lon="9.5861026"><ele>232.0</ele><time>2026-05-04T08:14:44.066Z</time></trkpt><trkpt lat="46.1427291" lon="9.5862593"><ele>232.0</ele><time>2026-05-04T08:14:46.067Z</time></trkpt><trkpt lat="46.1427032" lon="9.5864218"><ele>232.0</ele><time>2026-05-04T08:14:48.066Z</time></trkpt><trkpt lat="46.1426905" lon="9.5865694"><ele>232.0</ele><time>2026-05-04T08:14:50.064Z</time></trkpt><trkpt lat="46.142662" lon="9.5867314"><ele>232.0</ele><time>2026-05-04T08:14:52.066Z</time></trkpt><trkpt lat="46.1426101" lon="9.5868863"><ele>232.0</ele><time>2026-05-04T08:14:54.065Z</time></trkpt><trkpt lat="46.1425619" lon="9.587038"><ele>232.0</ele><time>2026-05-04T08:14:56.065Z</time></trkpt><trkpt lat="46.1425173" lon="9.5872022"><ele>232.0</ele><time>2026-05-04T08:14:58.067Z</time></trkpt><trkpt lat="46.1425" lon="9.5873013"><ele>232.0</ele><time>2026-05-04T08:14:59.067Z</time></trkpt><trkpt lat="46.1424799" lon="9.5874644"><ele>232.0</ele><time>2026-05-04T08:15:01.067Z</time></trkpt><trkpt lat="46.1424749" lon="9.5876406"><ele>232.0</ele><time>2026-05-04T08:15:03.065Z</time></trkpt><trkpt lat="46.1424768" lon="9.5878066"><ele>232.0</ele><time>2026-05-04T08:15:05.064Z</time></trkpt><trkpt lat="46.1424757" lon="9.5879679"><ele>232.0</ele><time>2026-05-04T08:15:07.066Z</time></trkpt><trkpt lat="46.1424549" lon="9.5881477"><ele>232.0</ele><time>2026-05-04T08:15:09.066Z</time></trkpt><trkpt lat="46.1424598" lon="9.5883188"><ele>232.0</ele><time>2026-05-04T08:15:11.065Z</time></trkpt><trkpt lat="46.1424507" lon="9.5884189"><ele>232.0</ele><time>2026-05-04T08:15:12.066Z</time></trkpt><trkpt lat="46.1424553" lon="9.5885604"><ele>232.0</ele><time>2026-05-04T08:15:14.066Z</time></trkpt><trkpt lat="46.1424901" lon="9.588713"><ele>232.0</ele><time>2026-05-04T08:15:16.066Z</time></trkpt><trkpt lat="46.1425296" lon="9.5888644"><ele>232.0</ele><time>2026-05-04T08:15:18.067Z</time></trkpt><trkpt lat="46.1425563" lon="9.5889512"><ele>232.0</ele><time>2026-05-04T08:15:19.065Z</time></trkpt><trkpt lat="46.1425933" lon="9.5891279"><ele>232.0</ele><time>2026-05-04T08:15:21.066Z</time></trkpt><trkpt lat="46.1426253" lon="9.5892927"><ele>232.0</ele><time>2026-05-04T08:15:23.065Z</time></trkpt><trkpt lat="46.1426544" lon="9.589381"><ele>232.0</ele><time>2026-05-04T08:15:24.066Z</time></trkpt><trkpt lat="46.1426693" lon="9.5894729"><ele>232.0</ele><time>2026-05-04T08:15:25.065Z</time></trkpt><trkpt lat="46.1427055" lon="9.5896176"><ele>232.0</ele><time>2026-05-04T08:15:27.065Z</time></trkpt><trkpt lat="46.1427463" lon="9.5897532"><ele>232.0</ele><time>2026-05-04T08:15:29.066Z</time></trkpt><trkpt lat="46.1427819" lon="9.5898919"><ele>232.0</ele><time>2026-05-04T08:15:31.066Z</time></trkpt><trkpt lat="46.1428198" lon="9.5900147"><ele>231.8</ele><time>2026-05-04T08:15:33.067Z</time></trkpt><trkpt lat="46.1428342" lon="9.5901599"><ele>231.6</ele><time>2026-05-04T08:15:35.066Z</time></trkpt><trkpt lat="46.1428428" lon="9.5903094"><ele>231.40000000000003</ele><time>2026-05-04T08:15:37.066Z</time></trkpt><trkpt lat="46.1428373" lon="9.5904642"><ele>231.20000000000002</ele><time>2026-05-04T08:15:39.066Z</time></trkpt><trkpt lat="46.1428311" lon="9.5906236"><ele>231.0</ele><time>2026-05-04T08:15:41.066Z</time></trkpt><trkpt lat="46.1428347" lon="9.5907891"><ele>231.0</ele><time>2026-05-04T08:15:43.065Z</time></trkpt><trkpt lat="46.1428489" lon="9.5909491"><ele>231.00000000000003</ele><time>2026-05-04T08:15:45.067Z</time></trkpt><trkpt lat="46.1428796" lon="9.5911059"><ele>231.00000000000003</ele><time>2026-05-04T08:15:47.065Z</time></trkpt><trkpt lat="46.1428858" lon="9.5912638"><ele>231.0</ele><time>2026-05-04T08:15:49.066Z</time></trkpt><trkpt lat="46.1429088" lon="9.5914077"><ele>231.0</ele><time>2026-05-04T08:15:51.064Z</time></trkpt><trkpt lat="46.1429309" lon="9.5915531"><ele>231.0</ele><time>2026-05-04T08:15:53.066Z</time></trkpt><trkpt lat="46.1429517" lon="9.5917209"><ele>231.00000000000003</ele><time>2026-05-04T08:15:55.065Z</time></trkpt><trkpt lat="46.1429664" lon="9.5918791"><ele>231.00000000000003</ele><time>2026-05-04T08:15:57.066Z</time></trkpt><trkpt lat="46.1429815" lon="9.5919738"><ele>231.0</ele><time>2026-05-04T08:15:58.066Z</time></trkpt><trkpt lat="46.1429933" lon="9.5921303"><ele>231.0</ele><time>2026-05-04T08:16:00.066Z</time></trkpt><trkpt lat="46.1430302" lon="9.592288"><ele>230.8</ele><time>2026-05-04T08:16:02.066Z</time></trkpt><trkpt lat="46.1430501" lon="9.5924542"><ele>230.60000000000002</ele><time>2026-05-04T08:16:04.065Z</time></trkpt><trkpt lat="46.143071" lon="9.5926122"><ele>230.4</ele><time>2026-05-04T08:16:06.067Z</time></trkpt><trkpt lat="46.1430843" lon="9.5927852"><ele>230.2</ele><time>2026-05-04T08:16:08.066Z</time></trkpt><trkpt lat="46.1430885" lon="9.5928792"><ele>230.0</ele><time>2026-05-04T08:16:09.066Z</time></trkpt><trkpt lat="46.1431203" lon="9.5930473"><ele>230.0</ele><time>2026-05-04T08:16:11.066Z</time></trkpt><trkpt lat="46.1431389" lon="9.5932253"><ele>230.0</ele><time>2026-05-04T08:16:13.065Z</time></trkpt><trkpt lat="46.1431743" lon="9.5933532"><ele>230.0</ele><time>2026-05-04T08:16:15.066Z</time></trkpt><trkpt lat="46.1432171" lon="9.5934387"><ele>230.0</ele><time>2026-05-04T08:16:16.066Z</time></trkpt><trkpt lat="46.1432454" lon="9.5936014"><ele>230.0</ele><time>2026-05-04T08:16:18.066Z</time></trkpt><trkpt lat="46.1432541" lon="9.5936966"><ele>230.0</ele><time>2026-05-04T08:16:19.066Z</time></trkpt><trkpt lat="46.1433008" lon="9.5938039"><ele>230.0</ele><time>2026-05-04T08:16:21.067Z</time></trkpt><trkpt lat="46.1433281" lon="9.5939424"><ele>230.0</ele><time>2026-05-04T08:16:23.065Z</time></trkpt><trkpt lat="46.1433605" lon="9.5941034"><ele>230.0</ele><time>2026-05-04T08:16:25.066Z</time></trkpt><trkpt lat="46.1433939" lon="9.5942654"><ele>230.0</ele><time>2026-05-04T08:16:27.065Z</time></trkpt><trkpt lat="46.1434156" lon="9.594411"><ele>230.16666666666669</ele><time>2026-05-04T08:16:29.065Z</time></trkpt><trkpt lat="46.1434516" lon="9.5945763"><ele>230.33333333333334</ele><time>2026-05-04T08:16:31.067Z</time></trkpt><trkpt lat="46.143447" lon="9.5946872"><ele>230.5</ele><time>2026-05-04T08:16:32.065Z</time></trkpt><trkpt lat="46.1434886" lon="9.5948255"><ele>230.66666666666669</ele><time>2026-05-04T08:16:34.066Z</time></trkpt><trkpt lat="46.1434966" lon="9.5949335"><ele>230.83333333333334</ele><time>2026-05-04T08:16:36.065Z</time></trkpt><trkpt lat="46.143541" lon="9.5950086"><ele>231.0</ele><time>2026-05-04T08:16:37.067Z</time></trkpt><trkpt lat="46.143551" lon="9.5951099"><ele>231.0</ele><time>2026-05-04T08:16:38.066Z</time></trkpt><trkpt lat="46.1435508" lon="9.5952728"><ele>231.00000000000003</ele><time>2026-05-04T08:16:40.065Z</time></trkpt><trkpt lat="46.1435914" lon="9.5954281"><ele>231.00000000000003</ele><time>2026-05-04T08:16:42.066Z</time></trkpt><trkpt lat="46.1436125" lon="9.5955806"><ele>231.0</ele><time>2026-05-04T08:16:44.067Z</time></trkpt><trkpt lat="46.14363" lon="9.5956789"><ele>231.0</ele><time>2026-05-04T08:16:45.067Z</time></trkpt><trkpt lat="46.1436677" lon="9.5958329"><ele>230.8</ele><time>2026-05-04T08:16:47.066Z</time></trkpt><trkpt lat="46.1436967" lon="9.5959962"><ele>230.60000000000002</ele><time>2026-05-04T08:16:49.067Z</time></trkpt><trkpt lat="46.1437371" lon="9.5961615"><ele>230.4</ele><time>2026-05-04T08:16:51.066Z</time></trkpt><trkpt lat="46.1437407" lon="9.596263"><ele>230.2</ele><time>2026-05-04T08:16:52.066Z</time></trkpt><trkpt lat="46.1437695" lon="9.596413"><ele>230.0</ele><time>2026-05-04T08:16:54.066Z</time></trkpt><trkpt lat="46.1437974" lon="9.5965694"><ele>229.8</ele><time>2026-05-04T08:16:56.065Z</time></trkpt><trkpt lat="46.1438307" lon="9.5967017"><ele>229.6</ele><time>2026-05-04T08:16:58.066Z</time></trkpt><trkpt lat="46.1438461" lon="9.5968399"><ele>229.39999999999998</ele><time>2026-05-04T08:17:00.066Z</time></trkpt><trkpt lat="46.1438926" lon="9.5969873"><ele>229.2</ele><time>2026-05-04T08:17:02.067Z</time></trkpt><trkpt lat="46.1439767" lon="9.5970738"><ele>229.0</ele><time>2026-05-04T08:17:04.066Z</time></trkpt><trkpt lat="46.1440888" lon="9.5970707"><ele>229.99999999999997</ele><time>2026-05-04T08:17:06.065Z</time></trkpt><trkpt lat="46.1441951" lon="9.5970541"><ele>231.0</ele><time>2026-05-04T08:17:08.066Z</time></trkpt><trkpt lat="46.1442594" lon="9.5970232"><ele>232.0</ele><time>2026-05-04T08:17:10.067Z</time></trkpt><trkpt lat="46.1442958" lon="9.5971158"><ele>233.0</ele><time>2026-05-04T08:17:13.067Z</time></trkpt><trkpt lat="46.1443089" lon="9.5972116"><ele>233.99999999999997</ele><time>2026-05-04T08:17:15.066Z</time></trkpt><trkpt lat="46.1442454" lon="9.5972674"><ele>235.0</ele><time>2026-05-04T08:17:17.066Z</time></trkpt><trkpt lat="46.1441587" lon="9.5972927"><ele>234.99999999999997</ele><time>2026-05-04T08:17:19.067Z</time></trkpt><trkpt lat="46.1440788" lon="9.5973342"><ele>235.0</ele><time>2026-05-04T08:17:21.067Z</time></trkpt><trkpt lat="46.1440158" lon="9.5974047"><ele>235.0</ele><time>2026-05-04T08:17:23.066Z</time></trkpt><trkpt lat="46.1439996" lon="9.5975019"><ele>235.0</ele><time>2026-05-04T08:17:25.066Z</time></trkpt><trkpt lat="46.1440062" lon="9.5976366"><ele>234.99999999999997</ele><time>2026-05-04T08:17:27.067Z</time></trkpt><trkpt lat="46.1440063" lon="9.5977872"><ele>235.0</ele><time>2026-05-04T08:17:29.065Z</time></trkpt><trkpt lat="46.144057" lon="9.5979446"><ele>235.2</ele><time>2026-05-04T08:17:31.068Z</time></trkpt><trkpt lat="46.1440712" lon="9.598106"><ele>235.4</ele><time>2026-05-04T08:17:33.067Z</time></trkpt><trkpt lat="46.1440899" lon="9.5982395"><ele>235.60000000000002</ele><time>2026-05-04T08:17:35.066Z</time></trkpt><trkpt lat="46.1441122" lon="9.5983937"><ele>235.8</ele><time>2026-05-04T08:17:37.066Z</time></trkpt><trkpt lat="46.1440961" lon="9.5984848"><ele>236.0</ele><time>2026-05-04T08:17:38.068Z</time></trkpt><trkpt lat="46.144112" lon="9.5986231"><ele>235.8</ele><time>2026-05-04T08:17:40.067Z</time></trkpt><trkpt lat="46.1441263" lon="9.5987598"><ele>235.60000000000002</ele><time>2026-05-04T08:17:42.065Z</time></trkpt><trkpt lat="46.1441475" lon="9.5988788"><ele>235.4</ele><time>2026-05-04T08:17:44.066Z</time></trkpt><trkpt lat="46.1441698" lon="9.5990121"><ele>235.2</ele><time>2026-05-04T08:17:46.066Z</time></trkpt><trkpt lat="46.1441895" lon="9.5991055"><ele>235.0</ele><time>2026-05-04T08:17:47.067Z</time></trkpt><trkpt lat="46.1442227" lon="9.599272"><ele>235.0</ele><time>2026-05-04T08:17:49.067Z</time></trkpt><trkpt lat="46.1442511" lon="9.5994437"><ele>235.0</ele><time>2026-05-04T08:17:51.067Z</time></trkpt><trkpt lat="46.1442681" lon="9.5996162"><ele>235.0</ele><time>2026-05-04T08:17:53.065Z</time></trkpt><trkpt lat="46.1442922" lon="9.5997833"><ele>235.0</ele><time>2026-05-04T08:17:55.066Z</time></trkpt><trkpt lat="46.1443244" lon="9.5999006"><ele>235.0</ele><time>2026-05-04T08:17:57.066Z</time></trkpt><trkpt lat="46.1443435" lon="9.6000775"><ele>234.8</ele><time>2026-05-04T08:17:59.066Z</time></trkpt><trkpt lat="46.1443669" lon="9.6002319"><ele>234.6</ele><time>2026-05-04T08:18:01.066Z</time></trkpt><trkpt lat="46.1443834" lon="9.6004031"><ele>234.39999999999998</ele><time>2026-05-04T08:18:03.067Z</time></trkpt><trkpt lat="46.1444224" lon="9.6005362"><ele>234.2</ele><time>2026-05-04T08:18:05.067Z</time></trkpt><trkpt lat="46.1444467" lon="9.6006651"><ele>234.0</ele><time>2026-05-04T08:18:07.067Z</time></trkpt><trkpt lat="46.1444582" lon="9.6008047"><ele>234.39999999999998</ele><time>2026-05-04T08:18:09.065Z</time></trkpt><trkpt lat="46.1444846" lon="9.6009514"><ele>234.79999999999998</ele><time>2026-05-04T08:18:11.067Z</time></trkpt><trkpt lat="46.1445062" lon="9.6011051"><ele>235.20000000000002</ele><time>2026-05-04T08:18:13.066Z</time></trkpt><trkpt lat="46.1445283" lon="9.6012574"><ele>235.60000000000002</ele><time>2026-05-04T08:18:15.065Z</time></trkpt><trkpt lat="46.144546" lon="9.6014037"><ele>236.0</ele><time>2026-05-04T08:18:17.067Z</time></trkpt><trkpt lat="46.1445554" lon="9.6015663"><ele>236.20000000000002</ele><time>2026-05-04T08:18:19.066Z</time></trkpt><trkpt lat="46.1445794" lon="9.6017183"><ele>236.40000000000003</ele><time>2026-05-04T08:18:21.066Z</time></trkpt><trkpt lat="46.1445844" lon="9.6018099"><ele>236.6</ele><time>2026-05-04T08:18:22.067Z</time></trkpt><trkpt lat="46.1445907" lon="9.6019624"><ele>236.8</ele><time>2026-05-04T08:18:24.066Z</time></trkpt><trkpt lat="46.1445866" lon="9.602109"><ele>237.0</ele><time>2026-05-04T08:18:26.066Z</time></trkpt><trkpt lat="46.1445814" lon="9.6022783"><ele>237.0</ele><time>2026-05-04T08:18:28.066Z</time></trkpt><trkpt lat="46.1445758" lon="9.6023968"><ele>237.0</ele><time>2026-05-04T08:18:29.065Z</time></trkpt><trkpt lat="46.1445597" lon="9.6025317"><ele>237.0</ele><time>2026-05-04T08:18:31.065Z</time></trkpt><trkpt lat="46.1445546" lon="9.6026236"><ele>237.0</ele><time>2026-05-04T08:18:32.067Z</time></trkpt><trkpt lat="46.1445554" lon="9.6027899"><ele>237.0</ele><time>2026-05-04T08:18:34.066Z</time></trkpt><trkpt lat="46.1445528" lon="9.6029644"><ele>237.2</ele><time>2026-05-04T08:18:36.068Z</time></trkpt><trkpt lat="46.144547" lon="9.6031101"><ele>237.39999999999998</ele><time>2026-05-04T08:18:38.066Z</time></trkpt><trkpt lat="46.1445362" lon="9.6032592"><ele>237.60000000000002</ele><time>2026-05-04T08:18:40.067Z</time></trkpt><trkpt lat="46.1445131" lon="9.6034064"><ele>237.8</ele><time>2026-05-04T08:18:42.066Z</time></trkpt><trkpt lat="46.1444855" lon="9.6035627"><ele>238.0</ele><time>2026-05-04T08:18:44.067Z</time></trkpt><trkpt lat="46.1444598" lon="9.6037001"><ele>238.2</ele><time>2026-05-04T08:18:46.065Z</time></trkpt><trkpt lat="46.1444208" lon="9.6038603"><ele>238.4</ele><time>2026-05-04T08:18:48.066Z</time></trkpt><trkpt lat="46.1443872" lon="9.604009"><ele>238.59999999999997</ele><time>2026-05-04T08:18:50.067Z</time></trkpt><trkpt lat="46.1443787" lon="9.6041029"><ele>238.79999999999998</ele><time>2026-05-04T08:18:51.068Z</time></trkpt><trkpt lat="46.1443666" lon="9.6041951"><ele>239.0</ele><time>2026-05-04T08:18:52.067Z</time></trkpt><trkpt lat="46.1443451" lon="9.6043459"><ele>239.0</ele><time>2026-05-04T08:18:54.066Z</time></trkpt><trkpt lat="46.1443529" lon="9.6044757"><ele>238.99999999999997</ele><time>2026-05-04T08:18:56.066Z</time></trkpt><trkpt lat="46.1443553" lon="9.6046291"><ele>238.99999999999997</ele><time>2026-05-04T08:18:58.067Z</time></trkpt><trkpt lat="46.1443593" lon="9.6047996"><ele>239.0</ele><time>2026-05-04T08:19:00.068Z</time></trkpt><trkpt lat="46.1443639" lon="9.6049633"><ele>239.0</ele><time>2026-05-04T08:19:02.065Z</time></trkpt><trkpt lat="46.1443588" lon="9.605105"><ele>239.0</ele><time>2026-05-04T08:19:04.066Z</time></trkpt><trkpt lat="46.1443518" lon="9.6052546"><ele>238.99999999999997</ele><time>2026-05-04T08:19:06.066Z</time></trkpt><trkpt lat="46.1443527" lon="9.6053985"><ele>238.99999999999997</ele><time>2026-05-04T08:19:08.067Z</time></trkpt><trkpt lat="46.1443597" lon="9.6055478"><ele>239.0</ele><time>2026-05-04T08:19:10.067Z</time></trkpt><trkpt lat="46.1443583" lon="9.605695"><ele>239.0</ele><time>2026-05-04T08:19:12.066Z</time></trkpt><trkpt lat="46.1443468" lon="9.6058367"><ele>239.0</ele><time>2026-05-04T08:19:14.066Z</time></trkpt><trkpt lat="46.1443337" lon="9.6060086"><ele>238.99999999999997</ele><time>2026-05-04T08:19:16.068Z</time></trkpt><trkpt lat="46.1443269" lon="9.6061707"><ele>238.99999999999997</ele><time>2026-05-04T08:19:18.067Z</time></trkpt><trkpt lat="46.1443186" lon="9.6063261"><ele>239.0</ele><time>2026-05-04T08:19:20.066Z</time></trkpt><trkpt lat="46.1443191" lon="9.6064677"><ele>239.0</ele><time>2026-05-04T08:19:22.065Z</time></trkpt><trkpt lat="46.1443008" lon="9.6066291"><ele>239.2</ele><time>2026-05-04T08:19:24.067Z</time></trkpt><trkpt lat="46.1442887" lon="9.6067896"><ele>239.39999999999998</ele><time>2026-05-04T08:19:26.065Z</time></trkpt><trkpt lat="46.1442672" lon="9.6069422"><ele>239.6</ele><time>2026-05-04T08:19:28.066Z</time></trkpt><trkpt lat="46.1442508" lon="9.6070976"><ele>239.8</ele><time>2026-05-04T08:19:30.067Z</time></trkpt><trkpt lat="46.1442263" lon="9.6072428"><ele>240.0</ele><time>2026-05-04T08:19:32.068Z</time></trkpt><trkpt lat="46.1441993" lon="9.6073835"><ele>240.2</ele><time>2026-05-04T08:19:34.066Z</time></trkpt><trkpt lat="46.1441771" lon="9.6075092"><ele>240.4</ele><time>2026-05-04T08:19:36.068Z</time></trkpt><trkpt lat="46.1441989" lon="9.607644"><ele>240.60000000000002</ele><time>2026-05-04T08:19:38.067Z</time></trkpt><trkpt lat="46.1442347" lon="9.6078057"><ele>240.8</ele><time>2026-05-04T08:19:40.067Z</time></trkpt><trkpt lat="46.1442459" lon="9.6079774"><ele>241.0</ele><time>2026-05-04T08:19:42.065Z</time></trkpt><trkpt lat="46.1442348" lon="9.6081571"><ele>241.20000000000002</ele><time>2026-05-04T08:19:44.067Z</time></trkpt><trkpt lat="46.1442258" lon="9.6082479"><ele>241.40000000000003</ele><time>2026-05-04T08:19:45.066Z</time></trkpt><trkpt lat="46.1442093" lon="9.6084149"><ele>241.6</ele><time>2026-05-04T08:19:47.067Z</time></trkpt><trkpt lat="46.1442056" lon="9.6085094"><ele>241.8</ele><time>2026-05-04T08:19:48.068Z</time></trkpt><trkpt lat="46.1441794" lon="9.6086845"><ele>242.0</ele><time>2026-05-04T08:19:50.068Z</time></trkpt><trkpt lat="46.1441632" lon="9.6088604"><ele>242.25</ele><time>2026-05-04T08:19:52.068Z</time></trkpt><trkpt lat="46.1441416" lon="9.6090205"><ele>242.5</ele><time>2026-05-04T08:19:54.066Z</time></trkpt><trkpt lat="46.1441216" lon="9.609185"><ele>242.75</ele><time>2026-05-04T08:19:56.066Z</time></trkpt><trkpt lat="46.1441043" lon="9.6093606"><ele>243.0</ele><time>2026-05-04T08:19:58.067Z</time></trkpt><trkpt lat="46.1440953" lon="9.6095069"><ele>243.2</ele><time>2026-05-04T08:20:00.068Z</time></trkpt><trkpt lat="46.1440723" lon="9.6096511"><ele>243.4</ele><time>2026-05-04T08:20:02.066Z</time></trkpt><trkpt lat="46.1440511" lon="9.6097999"><ele>243.59999999999997</ele><time>2026-05-04T08:20:04.067Z</time></trkpt><trkpt lat="46.1440316" lon="9.6099396"><ele>243.79999999999998</ele><time>2026-05-04T08:20:06.066Z</time></trkpt><trkpt lat="46.1439969" lon="9.610054"><ele>244.0</ele><time>2026-05-04T08:20:08.066Z</time></trkpt><trkpt lat="46.1439568" lon="9.6101353"><ele>244.16666666666666</ele><time>2026-05-04T08:20:14.068Z</time></trkpt><trkpt lat="46.1439673" lon="9.6102336"><ele>244.33333333333331</ele><time>2026-05-04T08:21:22.067Z</time></trkpt><trkpt lat="46.1440392" lon="9.6103096"><ele>244.5</ele><time>2026-05-04T08:21:26.066Z</time></trkpt><trkpt lat="46.1440932" lon="9.6103604"><ele>244.66666666666669</ele><time>2026-05-04T08:21:28.067Z</time></trkpt><trkpt lat="46.1441506" lon="9.6104364"><ele>244.83333333333334</ele><time>2026-05-04T08:21:30.066Z</time></trkpt><trkpt lat="46.144209" lon="9.6105108"><ele>245.0</ele><time>2026-05-04T08:21:32.067Z</time></trkpt><trkpt lat="46.1442757" lon="9.6105994"><ele>245.0</ele><time>2026-05-04T08:21:34.067Z</time></trkpt><trkpt lat="46.1443397" lon="9.6107272"><ele>245.0</ele><time>2026-05-04T08:21:36.067Z</time></trkpt><trkpt lat="46.1444008" lon="9.6108645"><ele>245.0</ele><time>2026-05-04T08:21:38.066Z</time></trkpt><trkpt lat="46.1444592" lon="9.6110115"><ele>245.0</ele><time>2026-05-04T08:21:40.068Z</time></trkpt><trkpt lat="46.1445199" lon="9.611158"><ele>245.0</ele><time>2026-05-04T08:21:42.068Z</time></trkpt><trkpt lat="46.1445631" lon="9.6112951"><ele>245.0</ele><time>2026-05-04T08:21:44.067Z</time></trkpt><trkpt lat="46.1446191" lon="9.6114492"><ele>245.0</ele><time>2026-05-04T08:21:46.067Z</time></trkpt><trkpt lat="46.1446731" lon="9.6116068"><ele>245.0</ele><time>2026-05-04T08:21:48.068Z</time></trkpt><trkpt lat="46.1447294" lon="9.6117583"><ele>245.00000000000003</ele><time>2026-05-04T08:21:50.066Z</time></trkpt><trkpt lat="46.1447627" lon="9.6118356"><ele>245.0</ele><time>2026-05-04T08:21:51.068Z</time></trkpt><trkpt lat="46.144826" lon="9.6119793"><ele>245.0</ele><time>2026-05-04T08:21:53.066Z</time></trkpt><trkpt lat="46.1448573" lon="9.6120714"><ele>245.0</ele><time>2026-05-04T08:21:54.067Z</time></trkpt><trkpt lat="46.1449045" lon="9.6122245"><ele>245.00000000000003</ele><time>2026-05-04T08:21:56.067Z</time></trkpt><trkpt lat="46.1449327" lon="9.6123081"><ele>245.0</ele><time>2026-05-04T08:21:57.067Z</time></trkpt><trkpt lat="46.1449923" lon="9.6124547"><ele>245.33333333333334</ele><time>2026-05-04T08:21:59.068Z</time></trkpt><trkpt lat="46.1450166" lon="9.6125402"><ele>245.66666666666669</ele><time>2026-05-04T08:22:00.067Z</time></trkpt><trkpt lat="46.1450426" lon="9.6126231"><ele>246.0</ele><time>2026-05-04T08:22:01.067Z</time></trkpt><trkpt lat="46.145095" lon="9.6127636"><ele>246.33333333333331</ele><time>2026-05-04T08:22:03.068Z</time></trkpt><trkpt lat="46.1451389" lon="9.612897"><ele>246.66666666666666</ele><time>2026-05-04T08:22:05.067Z</time></trkpt><trkpt lat="46.1451916" lon="9.6130305"><ele>247.0</ele><time>2026-05-04T08:22:07.067Z</time></trkpt><trkpt lat="46.1452277" lon="9.6131663"><ele>247.39999999999998</ele><time>2026-05-04T08:22:09.068Z</time></trkpt><trkpt lat="46.1452677" lon="9.6132721"><ele>247.79999999999998</ele><time>2026-05-04T08:22:11.066Z</time></trkpt><trkpt lat="46.1452705" lon="9.6134005"><ele>248.2</ele><time>2026-05-04T08:22:13.066Z</time></trkpt><trkpt lat="46.1452938" lon="9.6135303"><ele>248.6</ele><time>2026-05-04T08:22:15.067Z</time></trkpt><trkpt lat="46.1453399" lon="9.6136531"><ele>249.0</ele><time>2026-05-04T08:22:17.067Z</time></trkpt><trkpt lat="46.1453792" lon="9.6137736"><ele>249.0</ele><time>2026-05-04T08:22:19.067Z</time></trkpt><trkpt lat="46.1454245" lon="9.6139011"><ele>248.99999999999997</ele><time>2026-05-04T08:22:21.068Z</time></trkpt><trkpt lat="46.1454733" lon="9.6140186"><ele>248.99999999999997</ele><time>2026-05-04T08:22:23.067Z</time></trkpt><trkpt lat="46.1455139" lon="9.6141545"><ele>249.0</ele><time>2026-05-04T08:22:25.067Z</time></trkpt><trkpt lat="46.1455379" lon="9.6142921"><ele>249.0</ele><time>2026-05-04T08:22:27.066Z</time></trkpt><trkpt lat="46.1455396" lon="9.6144515"><ele>249.0</ele><time>2026-05-04T08:22:29.066Z</time></trkpt><trkpt lat="46.1455639" lon="9.6145884"><ele>248.99999999999997</ele><time>2026-05-04T08:22:31.067Z</time></trkpt><trkpt lat="46.1455859" lon="9.6147256"><ele>248.99999999999997</ele><time>2026-05-04T08:22:33.067Z</time></trkpt><trkpt lat="46.145613" lon="9.614876"><ele>249.0</ele><time>2026-05-04T08:22:35.067Z</time></trkpt><trkpt lat="46.1456182" lon="9.6150328"><ele>249.0</ele><time>2026-05-04T08:22:37.067Z</time></trkpt><trkpt lat="46.1456201" lon="9.6151663"><ele>249.0</ele><time>2026-05-04T08:22:39.069Z</time></trkpt><trkpt lat="46.1456191" lon="9.6153194"><ele>248.99999999999997</ele><time>2026-05-04T08:22:41.067Z</time></trkpt><trkpt lat="46.1456216" lon="9.6154789"><ele>248.99999999999997</ele><time>2026-05-04T08:22:43.067Z</time></trkpt><trkpt lat="46.1456194" lon="9.6156324"><ele>249.0</ele><time>2026-05-04T08:22:45.067Z</time></trkpt><trkpt lat="46.1456249" lon="9.6157719"><ele>249.0</ele><time>2026-05-04T08:22:47.067Z</time></trkpt><trkpt lat="46.1456452" lon="9.6158992"><ele>248.79999999999998</ele><time>2026-05-04T08:22:49.067Z</time></trkpt><trkpt lat="46.1456668" lon="9.6160261"><ele>248.59999999999997</ele><time>2026-05-04T08:22:51.068Z</time></trkpt><trkpt lat="46.1456941" lon="9.6161726"><ele>248.4</ele><time>2026-05-04T08:22:53.068Z</time></trkpt><trkpt lat="46.1457309" lon="9.6163374"><ele>248.2</ele><time>2026-05-04T08:22:55.068Z</time></trkpt><trkpt lat="46.1457412" lon="9.6164829"><ele>248.0</ele><time>2026-05-04T08:22:57.068Z</time></trkpt><trkpt lat="46.1457499" lon="9.6165731"><ele>252.60000000000002</ele><time>2026-05-04T08:22:58.069Z</time></trkpt><trkpt lat="46.1457774" lon="9.6167096"><ele>257.20000000000005</ele><time>2026-05-04T08:23:00.067Z</time></trkpt><trkpt lat="46.1457676" lon="9.6168321"><ele>261.8</ele><time>2026-05-04T08:23:02.068Z</time></trkpt><trkpt lat="46.1457794" lon="9.6169693"><ele>266.40000000000003</ele><time>2026-05-04T08:23:04.066Z</time></trkpt><trkpt lat="46.1457774" lon="9.6170943"><ele>271.0</ele><time>2026-05-04T08:23:06.068Z</time></trkpt><trkpt lat="46.1457816" lon="9.617235"><ele>271.0</ele><time>2026-05-04T08:23:08.068Z</time></trkpt><trkpt lat="46.1458011" lon="9.6173946"><ele>271.0</ele><time>2026-05-04T08:23:10.066Z</time></trkpt><trkpt lat="46.1458124" lon="9.617489"><ele>271.0</ele><time>2026-05-04T08:23:12.068Z</time></trkpt><trkpt lat="46.1458092" lon="9.6176251"><ele>271.0</ele><time>2026-05-04T08:23:15.068Z</time></trkpt><trkpt lat="46.145812" lon="9.6177206"><ele>271.0</ele><time>2026-05-04T08:23:17.067Z</time></trkpt><trkpt lat="46.1458252" lon="9.6178533"><ele>271.0</ele><time>2026-05-04T08:23:20.066Z</time></trkpt><trkpt lat="46.1458298" lon="9.61796"><ele>270.0</ele><time>2026-05-04T08:23:22.067Z</time></trkpt><trkpt lat="46.14583" lon="9.6180637"><ele>269.0</ele><time>2026-05-04T08:23:24.067Z</time></trkpt><trkpt lat="46.1458305" lon="9.6181705"><ele>268.0</ele><time>2026-05-04T08:23:26.067Z</time></trkpt><trkpt lat="46.145835" lon="9.6182864"><ele>267.0</ele><time>2026-05-04T08:23:28.067Z</time></trkpt><trkpt lat="46.145832" lon="9.6184033"><ele>266.0</ele><time>2026-05-04T08:23:30.067Z</time></trkpt><trkpt lat="46.1458355" lon="9.6184968"><ele>265.0</ele><time>2026-05-04T08:23:32.067Z</time></trkpt><trkpt lat="46.1458445" lon="9.6186154"><ele>264.8</ele><time>2026-05-04T08:23:34.067Z</time></trkpt><trkpt lat="46.1458369" lon="9.6187597"><ele>264.6</ele><time>2026-05-04T08:23:36.066Z</time></trkpt><trkpt lat="46.1458426" lon="9.6188997"><ele>264.4</ele><time>2026-05-04T08:23:38.067Z</time></trkpt><trkpt lat="46.145857" lon="9.6190371"><ele>264.2</ele><time>2026-05-04T08:23:40.068Z</time></trkpt><trkpt lat="46.1458469" lon="9.6191865"><ele>264.0</ele><time>2026-05-04T08:23:42.067Z</time></trkpt><trkpt lat="46.1458402" lon="9.6193186"><ele>264.0</ele><time>2026-05-04T08:23:44.069Z</time></trkpt><trkpt lat="46.1458386" lon="9.6194464"><ele>264.0</ele><time>2026-05-04T08:23:46.066Z</time></trkpt><trkpt lat="46.145845" lon="9.6195573"><ele>264.0</ele><time>2026-05-04T08:23:48.067Z</time></trkpt><trkpt lat="46.14584" lon="9.6197037"><ele>264.0</ele><time>2026-05-04T08:23:50.068Z</time></trkpt><trkpt lat="46.1458494" lon="9.6198346"><ele>264.0</ele><time>2026-05-04T08:23:52.066Z</time></trkpt><trkpt lat="46.145873" lon="9.61998"><ele>263.59999999999997</ele><time>2026-05-04T08:23:54.066Z</time></trkpt><trkpt lat="46.1459007" lon="9.6201305"><ele>263.2</ele><time>2026-05-04T08:23:56.067Z</time></trkpt><trkpt lat="46.145949" lon="9.6202747"><ele>262.79999999999995</ele><time>2026-05-04T08:23:58.067Z</time></trkpt><trkpt lat="46.1460082" lon="9.6203965"><ele>262.4</ele><time>2026-05-04T08:24:00.067Z</time></trkpt><trkpt lat="46.146052" lon="9.6205327"><ele>262.0</ele><time>2026-05-04T08:24:02.068Z</time></trkpt><trkpt lat="46.1460792" lon="9.6206787"><ele>260.6</ele><time>2026-05-04T08:24:04.069Z</time></trkpt><trkpt lat="46.1461174" lon="9.620843"><ele>259.2</ele><time>2026-05-04T08:24:06.066Z</time></trkpt><trkpt lat="46.146151" lon="9.6209893"><ele>257.8</ele><time>2026-05-04T08:24:08.068Z</time></trkpt><trkpt lat="46.1461661" lon="9.6210855"><ele>256.4</ele><time>2026-05-04T08:24:09.068Z</time></trkpt><trkpt lat="46.1461931" lon="9.6211705"><ele>255.0</ele><time>2026-05-04T08:24:10.067Z</time></trkpt><trkpt lat="46.1462342" lon="9.621298"><ele>254.6</ele><time>2026-05-04T08:24:12.067Z</time></trkpt><trkpt lat="46.1462806" lon="9.6214438"><ele>254.2</ele><time>2026-05-04T08:24:14.066Z</time></trkpt><trkpt lat="46.1463205" lon="9.6215895"><ele>253.8</ele><time>2026-05-04T08:24:16.067Z</time></trkpt><trkpt lat="46.1463603" lon="9.6217098"><ele>253.4</ele><time>2026-05-04T08:24:18.067Z</time></trkpt><trkpt lat="46.146386" lon="9.6218573"><ele>253.0</ele><time>2026-05-04T08:24:20.068Z</time></trkpt><trkpt lat="46.1464203" lon="9.6219744"><ele>253.83333333333331</ele><time>2026-05-04T08:24:22.067Z</time></trkpt><trkpt lat="46.146445" lon="9.6220811"><ele>254.66666666666666</ele><time>2026-05-04T08:24:24.069Z</time></trkpt><trkpt lat="46.1464692" lon="9.6221749"><ele>255.5</ele><time>2026-05-04T08:24:26.066Z</time></trkpt><trkpt lat="46.1465042" lon="9.6222805"><ele>256.3333333333333</ele><time>2026-05-04T08:24:29.068Z</time></trkpt><trkpt lat="46.1465447" lon="9.6223748"><ele>257.1666666666667</ele><time>2026-05-04T08:24:33.069Z</time></trkpt><trkpt lat="46.1465951" lon="9.6224602"><ele>258.0</ele><time>2026-05-04T08:24:37.067Z</time></trkpt><trkpt lat="46.1466376" lon="9.6225533"><ele>258.85714285714283</ele><time>2026-05-04T08:24:41.066Z</time></trkpt><trkpt lat="46.1466815" lon="9.6226191"><ele>259.7142857142857</ele><time>2026-05-04T08:24:45.067Z</time></trkpt><trkpt lat="46.1467102" lon="9.6227189"><ele>260.57142857142856</ele><time>2026-05-04T08:24:49.069Z</time></trkpt><trkpt lat="46.1467358" lon="9.6228168"><ele>261.42857142857144</ele><time>2026-05-04T08:24:53.068Z</time></trkpt><trkpt lat="46.1467655" lon="9.6229156"><ele>262.2857142857143</ele><time>2026-05-04T08:24:57.067Z</time></trkpt><trkpt lat="46.1467878" lon="9.6230139"><ele>263.1428571428571</ele><time>2026-05-04T08:25:01.067Z</time></trkpt><trkpt lat="46.1468154" lon="9.6231112"><ele>264.0</ele><time>2026-05-04T08:25:05.068Z</time></trkpt><trkpt lat="46.1468185" lon="9.623214"><ele>264.0</ele><time>2026-05-04T08:25:10.068Z</time></trkpt><trkpt lat="46.1468391" lon="9.6233193"><ele>264.0</ele><time>2026-05-04T08:25:14.068Z</time></trkpt><trkpt lat="46.1468665" lon="9.623407"><ele>264.0</ele><time>2026-05-04T08:25:18.067Z</time></trkpt><trkpt lat="46.1468822" lon="9.6235128"><ele>264.0</ele><time>2026-05-04T08:25:23.068Z</time></trkpt><trkpt lat="46.1469137" lon="9.6236005"><ele>264.0</ele><time>2026-05-04T08:25:28.066Z</time></trkpt><trkpt lat="46.1469533" lon="9.6236716"><ele>264.0</ele><time>2026-05-04T08:25:35.066Z</time></trkpt><trkpt lat="46.1469889" lon="9.6237562"><ele>264.0</ele><time>2026-05-04T08:25:39.067Z</time></trkpt><trkpt lat="46.1469963" lon="9.6238523"><ele>264.1428571428571</ele><time>2026-05-04T08:25:43.069Z</time></trkpt><trkpt lat="46.1470056" lon="9.6239548"><ele>264.2857142857143</ele><time>2026-05-04T08:25:47.068Z</time></trkpt><trkpt lat="46.1470145" lon="9.6240484"><ele>264.42857142857144</ele><time>2026-05-04T08:25:51.068Z</time></trkpt><trkpt lat="46.1469972" lon="9.6241436"><ele>264.57142857142856</ele><time>2026-05-04T08:25:57.067Z</time></trkpt><trkpt lat="46.1470199" lon="9.6242488"><ele>264.7142857142857</ele><time>2026-05-04T08:26:02.068Z</time></trkpt><trkpt lat="46.1470015" lon="9.6243437"><ele>264.85714285714283</ele><time>2026-05-04T08:26:06.067Z</time></trkpt><trkpt lat="46.146983" lon="9.6244521"><ele>265.0</ele><time>2026-05-04T08:26:10.067Z</time></trkpt><trkpt lat="46.1469813" lon="9.6245589"><ele>265.4285714285714</ele><time>2026-05-04T08:26:14.067Z</time></trkpt><trkpt lat="46.1469932" lon="9.624658"><ele>265.85714285714283</ele><time>2026-05-04T08:26:18.068Z</time></trkpt><trkpt lat="46.1469897" lon="9.624762"><ele>266.2857142857143</ele><time>2026-05-04T08:26:22.066Z</time></trkpt><trkpt lat="46.1469737" lon="9.6248669"><ele>266.71428571428567</ele><time>2026-05-04T08:26:26.067Z</time></trkpt><trkpt lat="46.1469648" lon="9.624961"><ele>267.1428571428571</ele><time>2026-05-04T08:26:30.067Z</time></trkpt><trkpt lat="46.1469483" lon="9.6250535"><ele>267.57142857142856</ele><time>2026-05-04T08:26:34.067Z</time></trkpt><trkpt lat="46.1469361" lon="9.6251554"><ele>268.0</ele><time>2026-05-04T08:26:39.067Z</time></trkpt><trkpt lat="46.1469195" lon="9.6252563"><ele>268.57142857142856</ele><time>2026-05-04T08:26:45.068Z</time></trkpt><trkpt lat="46.1469233" lon="9.6253536"><ele>269.1428571428571</ele><time>2026-05-04T08:26:51.067Z</time></trkpt><trkpt lat="46.1469114" lon="9.625447"><ele>269.71428571428567</ele><time>2026-05-04T08:26:56.068Z</time></trkpt><trkpt lat="46.1469357" lon="9.6255359"><ele>270.2857142857143</ele><time>2026-05-04T08:27:02.067Z</time></trkpt><trkpt lat="46.1469317" lon="9.6256411"><ele>270.85714285714283</ele><time>2026-05-04T08:27:10.068Z</time></trkpt><trkpt lat="46.1469239" lon="9.6257384"><ele>271.4285714285714</ele><time>2026-05-04T08:27:15.068Z</time></trkpt><trkpt lat="46.1469164" lon="9.6258433"><ele>272.0</ele><time>2026-05-04T08:27:21.068Z</time></trkpt><trkpt lat="46.1469071" lon="9.6259505"><ele>271.99999999999994</ele><time>2026-05-04T08:27:27.067Z</time></trkpt><trkpt lat="46.1469242" lon="9.6260536"><ele>272.0</ele><time>2026-05-04T08:27:34.067Z</time></trkpt><trkpt lat="46.146955" lon="9.6261434"><ele>272.0</ele><time>2026-05-04T08:27:40.067Z</time></trkpt><trkpt lat="46.1469743" lon="9.6262335"><ele>272.0</ele><time>2026-05-04T08:27:46.067Z</time></trkpt><trkpt lat="46.1469803" lon="9.6263377"><ele>272.0</ele><time>2026-05-04T08:27:54.068Z</time></trkpt><trkpt lat="46.147018" lon="9.6264296"><ele>271.99999999999994</ele><time>2026-05-04T08:28:00.068Z</time></trkpt><trkpt lat="46.1470617" lon="9.6265092"><ele>272.0</ele><time>2026-05-04T08:28:05.069Z</time></trkpt><trkpt lat="46.1471018" lon="9.6265808"><ele>271.83333333333337</ele><time>2026-05-04T08:28:10.067Z</time></trkpt><trkpt lat="46.1471504" lon="9.6266575"><ele>271.6666666666667</ele><time>2026-05-04T08:28:16.068Z</time></trkpt><trkpt lat="46.147193" lon="9.6267392"><ele>271.5</ele><time>2026-05-04T08:28:20.068Z</time></trkpt><trkpt lat="46.1472221" lon="9.626841"><ele>271.3333333333333</ele><time>2026-05-04T08:28:24.068Z</time></trkpt><trkpt lat="46.1472433" lon="9.6269492"><ele>271.16666666666663</ele><time>2026-05-04T08:28:28.068Z</time></trkpt><trkpt lat="46.1472673" lon="9.6270705"><ele>271.0</ele><time>2026-05-04T08:28:32.068Z</time></trkpt><trkpt lat="46.1472988" lon="9.6271829"><ele>271.0</ele><time>2026-05-04T08:28:35.068Z</time></trkpt><trkpt lat="46.147329" lon="9.6272754"><ele>271.0</ele><time>2026-05-04T08:28:38.068Z</time></trkpt><trkpt lat="46.1473184" lon="9.6271828"><ele>271.0</ele><time>2026-05-04T08:28:45.068Z</time></trkpt><trkpt lat="46.1473015" lon="9.6270903"><ele>271.0</ele><time>2026-05-04T08:28:49.068Z</time></trkpt><trkpt lat="46.1472767" lon="9.627006"><ele>271.0</ele><time>2026-05-04T08:28:53.067Z</time></trkpt><trkpt lat="46.1472495" lon="9.626912"><ele>271.0</ele><time>2026-05-04T08:32:08.069Z</time></trkpt><trkpt lat="46.1472182" lon="9.626808"><ele>271.0</ele><time>2026-05-04T08:32:11.069Z</time></trkpt><trkpt lat="46.1471915" lon="9.626722"><ele>271.0</ele><time>2026-05-04T08:32:13.069Z</time></trkpt><trkpt lat="46.1471367" lon="9.6266262"><ele>271.0</ele><time>2026-05-04T08:32:15.068Z</time></trkpt><trkpt lat="46.1470701" lon="9.6265023"><ele>271.0</ele><time>2026-05-04T08:32:17.069Z</time></trkpt><trkpt lat="46.1470295" lon="9.6264183"><ele>271.0</ele><time>2026-05-04T08:32:18.069Z</time></trkpt><trkpt lat="46.1469904" lon="9.6263266"><ele>271.0</ele><time>2026-05-04T08:32:19.068Z</time></trkpt><trkpt lat="46.1469687" lon="9.62624"><ele>271.0</ele><time>2026-05-04T08:32:20.068Z</time></trkpt><trkpt lat="46.1469478" lon="9.6261438"><ele>271.2</ele><time>2026-05-04T08:32:21.07Z</time></trkpt><trkpt lat="46.1469319" lon="9.6260207"><ele>271.40000000000003</ele><time>2026-05-04T08:32:22.068Z</time></trkpt><trkpt lat="46.1469228" lon="9.6258942"><ele>271.6</ele><time>2026-05-04T08:32:23.069Z</time></trkpt><trkpt lat="46.1469357" lon="9.6257227"><ele>271.8</ele><time>2026-05-04T08:32:24.068Z</time></trkpt><trkpt lat="46.1469492" lon="9.6255843"><ele>272.0</ele><time>2026-05-04T08:32:25.068Z</time></trkpt><trkpt lat="46.1469691" lon="9.6254656"><ele>272.0</ele><time>2026-05-04T08:32:26.068Z</time></trkpt><trkpt lat="46.1469819" lon="9.6253147"><ele>272.0</ele><time>2026-05-04T08:32:27.068Z</time></trkpt><trkpt lat="46.1469925" lon="9.6251402"><ele>272.0</ele><time>2026-05-04T08:32:28.068Z</time></trkpt><trkpt lat="46.1470039" lon="9.6249751"><ele>272.0</ele><time>2026-05-04T08:32:29.068Z</time></trkpt><trkpt lat="46.1469942" lon="9.6247999"><ele>271.2</ele><time>2026-05-04T08:32:30.069Z</time></trkpt><trkpt lat="46.1469888" lon="9.6246436"><ele>270.4</ele><time>2026-05-04T08:32:31.07Z</time></trkpt><trkpt lat="46.1469906" lon="9.6244898"><ele>269.6</ele><time>2026-05-04T08:32:32.07Z</time></trkpt><trkpt lat="46.1469976" lon="9.6243309"><ele>268.8</ele><time>2026-05-04T08:32:33.069Z</time></trkpt><trkpt lat="46.1470193" lon="9.6242136"><ele>268.0</ele><time>2026-05-04T08:32:34.069Z</time></trkpt><trkpt lat="46.1470534" lon="9.6241186"><ele>267.4</ele><time>2026-05-04T08:32:35.069Z</time></trkpt><trkpt lat="46.1470798" lon="9.6240269"><ele>266.8</ele><time>2026-05-04T08:32:36.068Z</time></trkpt><trkpt lat="46.1470973" lon="9.623913"><ele>266.2</ele><time>2026-05-04T08:32:37.069Z</time></trkpt><trkpt lat="46.1470316" lon="9.6237774"><ele>265.6</ele><time>2026-05-04T08:32:38.069Z</time></trkpt><trkpt lat="46.1469524" lon="9.6236344"><ele>265.0</ele><time>2026-05-04T08:32:39.068Z</time></trkpt><trkpt lat="46.1469084" lon="9.6235073"><ele>264.75</ele><time>2026-05-04T08:32:40.068Z</time></trkpt><trkpt lat="46.1468749" lon="9.6233699"><ele>264.5</ele><time>2026-05-04T08:32:41.068Z</time></trkpt><trkpt lat="46.1468558" lon="9.6231983"><ele>264.25</ele><time>2026-05-04T08:32:42.069Z</time></trkpt><trkpt lat="46.1468055" lon="9.6230486"><ele>264.0</ele><time>2026-05-04T08:32:43.069Z</time></trkpt><trkpt lat="46.1467577" lon="9.6228791"><ele>262.5</ele><time>2026-05-04T08:32:44.068Z</time></trkpt><trkpt lat="46.1467025" lon="9.6226966"><ele>261.0</ele><time>2026-05-04T08:32:45.07Z</time></trkpt><trkpt lat="46.1466266" lon="9.6225246"><ele>259.5</ele><time>2026-05-04T08:32:46.069Z</time></trkpt><trkpt lat="46.1465424" lon="9.622353"><ele>258.0</ele><time>2026-05-04T08:32:47.069Z</time></trkpt><trkpt lat="46.1464779" lon="9.6221911"><ele>258.0</ele><time>2026-05-04T08:32:48.068Z</time></trkpt><trkpt lat="46.1464219" lon="9.6220149"><ele>258.0</ele><time>2026-05-04T08:32:49.069Z</time></trkpt><trkpt lat="46.1463644" lon="9.6218278"><ele>258.0</ele><time>2026-05-04T08:32:50.069Z</time></trkpt><trkpt lat="46.1463276" lon="9.6216571"><ele>258.0</ele><time>2026-05-04T08:32:51.069Z</time></trkpt><trkpt lat="46.1462594" lon="9.621491"><ele>257.25</ele><time>2026-05-04T08:32:52.07Z</time></trkpt><trkpt lat="46.1462391" lon="9.6213258"><ele>256.5</ele><time>2026-05-04T08:32:53.069Z</time></trkpt><trkpt lat="46.1462035" lon="9.621164"><ele>255.75</ele><time>2026-05-04T08:32:54.068Z</time></trkpt><trkpt lat="46.1461831" lon="9.6210119"><ele>255.0</ele><time>2026-05-04T08:32:55.07Z</time></trkpt><trkpt lat="46.1461475" lon="9.6208552"><ele>255.0</ele><time>2026-05-04T08:32:56.069Z</time></trkpt><trkpt lat="46.1460885" lon="9.6206945"><ele>255.0</ele><time>2026-05-04T08:32:57.069Z</time></trkpt><trkpt lat="46.1460543" lon="9.6205433"><ele>255.0</ele><time>2026-05-04T08:32:58.069Z</time></trkpt><trkpt lat="46.1459976" lon="9.6204022"><ele>255.0</ele><time>2026-05-04T08:32:59.069Z</time></trkpt><trkpt lat="46.145962" lon="9.6202686"><ele>255.0</ele><time>2026-05-04T08:33:00.069Z</time></trkpt><trkpt lat="46.1459414" lon="9.6201482"><ele>256.4</ele><time>2026-05-04T08:33:01.069Z</time></trkpt><trkpt lat="46.145942" lon="9.6200203"><ele>257.8</ele><time>2026-05-04T08:33:02.068Z</time></trkpt><trkpt lat="46.1458845" lon="9.6197951"><ele>259.2</ele><time>2026-05-04T08:33:04.07Z</time></trkpt><trkpt lat="46.1458716" lon="9.6196764"><ele>260.6</ele><time>2026-05-04T08:33:05.068Z</time></trkpt><trkpt lat="46.14586" lon="9.6195642"><ele>262.0</ele><time>2026-05-04T08:33:06.07Z</time></trkpt><trkpt lat="46.1458526" lon="9.6194536"><ele>262.3333333333333</ele><time>2026-05-04T08:33:07.068Z</time></trkpt><trkpt lat="46.1458454" lon="9.6193461"><ele>262.66666666666663</ele><time>2026-05-04T08:33:08.069Z</time></trkpt><trkpt lat="46.1458403" lon="9.6192365"><ele>263.0</ele><time>2026-05-04T08:33:09.068Z</time></trkpt><trkpt lat="46.1458377" lon="9.6191234"><ele>263.3333333333333</ele><time>2026-05-04T08:33:10.068Z</time></trkpt><trkpt lat="46.1458362" lon="9.6190226"><ele>263.6666666666667</ele><time>2026-05-04T08:33:11.07Z</time></trkpt><trkpt lat="46.1458273" lon="9.6189094"><ele>264.0</ele><time>2026-05-04T08:33:12.067Z</time></trkpt><trkpt lat="46.1458243" lon="9.6188037"><ele>264.0</ele><time>2026-05-04T08:33:13.068Z</time></trkpt><trkpt lat="46.1458289" lon="9.6186907"><ele>264.0</ele><time>2026-05-04T08:33:14.067Z</time></trkpt><trkpt lat="46.1458224" lon="9.618578"><ele>264.0</ele><time>2026-05-04T08:33:15.069Z</time></trkpt><trkpt lat="46.1458148" lon="9.6183743"><ele>264.0</ele><time>2026-05-04T08:33:17.067Z</time></trkpt><trkpt lat="46.1458185" lon="9.6182702"><ele>264.0</ele><time>2026-05-04T08:33:18.069Z</time></trkpt><trkpt lat="46.1458245" lon="9.6181621"><ele>264.0</ele><time>2026-05-04T08:33:19.07Z</time></trkpt><trkpt lat="46.1458253" lon="9.6180514"><ele>264.1666666666667</ele><time>2026-05-04T08:33:20.068Z</time></trkpt><trkpt lat="46.1458446" lon="9.6179511"><ele>264.3333333333333</ele><time>2026-05-04T08:33:21.068Z</time></trkpt><trkpt lat="46.1458373" lon="9.6178307"><ele>264.5</ele><time>2026-05-04T08:33:22.069Z</time></trkpt><trkpt lat="46.1458215" lon="9.6177112"><ele>264.66666666666663</ele><time>2026-05-04T08:33:23.069Z</time></trkpt><trkpt lat="46.1458082" lon="9.6175826"><ele>264.8333333333333</ele><time>2026-05-04T08:33:24.068Z</time></trkpt><trkpt lat="46.1458075" lon="9.6174806"><ele>265.0</ele><time>2026-05-04T08:33:25.068Z</time></trkpt><trkpt lat="46.145803" lon="9.6173548"><ele>266.2</ele><time>2026-05-04T08:33:26.068Z</time></trkpt><trkpt lat="46.1457859" lon="9.6172105"><ele>267.4</ele><time>2026-05-04T08:33:27.069Z</time></trkpt><trkpt lat="46.1457778" lon="9.6170776"><ele>268.6</ele><time>2026-05-04T08:33:28.068Z</time></trkpt><trkpt lat="46.1457504" lon="9.6169517"><ele>269.8</ele><time>2026-05-04T08:33:29.069Z</time></trkpt><trkpt lat="46.1457296" lon="9.6168253"><ele>271.0</ele><time>2026-05-04T08:33:30.069Z</time></trkpt><trkpt lat="46.1457174" lon="9.6166906"><ele>266.40000000000003</ele><time>2026-05-04T08:33:31.069Z</time></trkpt><trkpt lat="46.1457097" lon="9.6165619"><ele>261.8</ele><time>2026-05-04T08:33:32.067Z</time></trkpt><trkpt lat="46.1457051" lon="9.6164337"><ele>257.20000000000005</ele><time>2026-05-04T08:33:33.07Z</time></trkpt><trkpt lat="46.1456852" lon="9.6162992"><ele>252.60000000000002</ele><time>2026-05-04T08:33:34.068Z</time></trkpt><trkpt lat="46.1456569" lon="9.6161712"><ele>248.0</ele><time>2026-05-04T08:33:35.069Z</time></trkpt><trkpt lat="46.1456542" lon="9.6160272"><ele>248.00000000000003</ele><time>2026-05-04T08:33:36.068Z</time></trkpt><trkpt lat="46.1456337" lon="9.6159054"><ele>248.0</ele><time>2026-05-04T08:33:37.069Z</time></trkpt><trkpt lat="46.1456182" lon="9.615785"><ele>248.0</ele><time>2026-05-04T08:33:38.068Z</time></trkpt><trkpt lat="46.1456114" lon="9.6156562"><ele>248.0</ele><time>2026-05-04T08:33:39.069Z</time></trkpt><trkpt lat="46.1456103" lon="9.6155297"><ele>248.00000000000003</ele><time>2026-05-04T08:33:40.07Z</time></trkpt><trkpt lat="46.1456008" lon="9.6154227"><ele>248.0</ele><time>2026-05-04T08:33:41.07Z</time></trkpt><trkpt lat="46.1455827" lon="9.6153305"><ele>248.16666666666669</ele><time>2026-05-04T08:33:42.068Z</time></trkpt><trkpt lat="46.145577" lon="9.615223"><ele>248.33333333333334</ele><time>2026-05-04T08:33:43.068Z</time></trkpt><trkpt lat="46.1455684" lon="9.615114"><ele>248.5</ele><time>2026-05-04T08:33:44.069Z</time></trkpt><trkpt lat="46.1455643" lon="9.615001"><ele>248.66666666666669</ele><time>2026-05-04T08:33:45.069Z</time></trkpt><trkpt lat="46.1455722" lon="9.614893"><ele>248.83333333333334</ele><time>2026-05-04T08:33:46.067Z</time></trkpt><trkpt lat="46.1455732" lon="9.6147776"><ele>249.0</ele><time>2026-05-04T08:33:47.07Z</time></trkpt><trkpt lat="46.1455775" lon="9.6146665"><ele>249.0</ele><time>2026-05-04T08:33:48.069Z</time></trkpt><trkpt lat="46.145559" lon="9.6145584"><ele>249.0</ele><time>2026-05-04T08:33:49.069Z</time></trkpt><trkpt lat="46.1455514" lon="9.6144472"><ele>249.0</ele><time>2026-05-04T08:33:50.07Z</time></trkpt><trkpt lat="46.1455391" lon="9.6143398"><ele>249.0</ele><time>2026-05-04T08:33:51.068Z</time></trkpt><trkpt lat="46.1455248" lon="9.6142451"><ele>249.0</ele><time>2026-05-04T08:33:52.068Z</time></trkpt><trkpt lat="46.1455034" lon="9.6141531"><ele>249.0</ele><time>2026-05-04T08:33:53.068Z</time></trkpt><trkpt lat="46.1454418" lon="9.6139869"><ele>249.0</ele><time>2026-05-04T08:33:55.069Z</time></trkpt><trkpt lat="46.1453953" lon="9.6138222"><ele>248.99999999999997</ele><time>2026-05-04T08:33:57.07Z</time></trkpt><trkpt lat="46.1453531" lon="9.6137478"><ele>248.99999999999997</ele><time>2026-05-04T08:33:58.068Z</time></trkpt><trkpt lat="46.1453175" lon="9.61367"><ele>249.0</ele><time>2026-05-04T08:33:59.068Z</time></trkpt><trkpt lat="46.1452599" lon="9.6135001"><ele>249.0</ele><time>2026-05-04T08:34:01.069Z</time></trkpt><trkpt lat="46.1452388" lon="9.6134048"><ele>249.0</ele><time>2026-05-04T08:34:02.069Z</time></trkpt><trkpt lat="46.1452239" lon="9.6133073"><ele>249.0</ele><time>2026-05-04T08:34:03.068Z</time></trkpt><trkpt lat="46.1452102" lon="9.6132108"><ele>249.0</ele><time>2026-05-04T08:34:04.068Z</time></trkpt><trkpt lat="46.1451825" lon="9.6131103"><ele>249.0</ele><time>2026-05-04T08:34:05.069Z</time></trkpt><trkpt lat="46.1451712" lon="9.6129828"><ele>249.0</ele><time>2026-05-04T08:34:06.068Z</time></trkpt><trkpt lat="46.1451376" lon="9.6128598"><ele>249.0</ele><time>2026-05-04T08:34:07.069Z</time></trkpt><trkpt lat="46.1451019" lon="9.6127429"><ele>248.66666666666666</ele><time>2026-05-04T08:34:08.069Z</time></trkpt><trkpt lat="46.1450691" lon="9.6126321"><ele>248.33333333333331</ele><time>2026-05-04T08:34:09.069Z</time></trkpt><trkpt lat="46.1450333" lon="9.6125254"><ele>248.0</ele><time>2026-05-04T08:34:10.069Z</time></trkpt><trkpt lat="46.1450018" lon="9.6124218"><ele>247.66666666666666</ele><time>2026-05-04T08:34:11.069Z</time></trkpt><trkpt lat="46.1449715" lon="9.6123033"><ele>247.33333333333331</ele><time>2026-05-04T08:34:12.069Z</time></trkpt><trkpt lat="46.1449375" lon="9.6121915"><ele>247.0</ele><time>2026-05-04T08:34:13.068Z</time></trkpt><trkpt lat="46.1449032" lon="9.6120991"><ele>246.66666666666666</ele><time>2026-05-04T08:34:14.069Z</time></trkpt><trkpt lat="46.1448646" lon="9.6120025"><ele>246.33333333333331</ele><time>2026-05-04T08:34:15.069Z</time></trkpt><trkpt lat="46.1448376" lon="9.6119109"><ele>246.0</ele><time>2026-05-04T08:34:16.069Z</time></trkpt><trkpt lat="46.144806" lon="9.6118205"><ele>245.66666666666669</ele><time>2026-05-04T08:34:17.07Z</time></trkpt><trkpt lat="46.144773" lon="9.6117365"><ele>245.33333333333334</ele><time>2026-05-04T08:34:18.07Z</time></trkpt><trkpt lat="46.1447227" lon="9.6115772"><ele>245.0</ele><time>2026-05-04T08:34:20.069Z</time></trkpt><trkpt lat="46.1446599" lon="9.6114225"><ele>245.00000000000003</ele><time>2026-05-04T08:34:22.067Z</time></trkpt><trkpt lat="46.144627" lon="9.6113405"><ele>245.0</ele><time>2026-05-04T08:34:23.068Z</time></trkpt><trkpt lat="46.1445607" lon="9.6111923"><ele>245.0</ele><time>2026-05-04T08:34:25.07Z</time></trkpt><trkpt lat="46.1445282" lon="9.6111083"><ele>245.0</ele><time>2026-05-04T08:34:26.069Z</time></trkpt><trkpt lat="46.1444961" lon="9.6110293"><ele>245.00000000000003</ele><time>2026-05-04T08:34:27.069Z</time></trkpt><trkpt lat="46.1444328" lon="9.6108725"><ele>245.0</ele><time>2026-05-04T08:34:29.068Z</time></trkpt><trkpt lat="46.1443622" lon="9.6107269"><ele>245.0</ele><time>2026-05-04T08:34:31.069Z</time></trkpt><trkpt lat="46.1442927" lon="9.6105974"><ele>245.0</ele><time>2026-05-04T08:34:33.068Z</time></trkpt><trkpt lat="46.1442361" lon="9.6104795"><ele>245.0</ele><time>2026-05-04T08:34:35.068Z</time></trkpt><trkpt lat="46.1441762" lon="9.6103513"><ele>245.0</ele><time>2026-05-04T08:34:37.069Z</time></trkpt><trkpt lat="46.1441189" lon="9.6102271"><ele>245.0</ele><time>2026-05-04T08:34:39.068Z</time></trkpt><trkpt lat="46.1440895" lon="9.6100747"><ele>244.75</ele><time>2026-05-04T08:34:41.068Z</time></trkpt><trkpt lat="46.1440987" lon="9.6099198"><ele>244.5</ele><time>2026-05-04T08:34:43.069Z</time></trkpt><trkpt lat="46.1441138" lon="9.609749"><ele>244.25</ele><time>2026-05-04T08:34:45.067Z</time></trkpt><trkpt lat="46.1441244" lon="9.6095794"><ele>244.0</ele><time>2026-05-04T08:34:47.068Z</time></trkpt><trkpt lat="46.1441499" lon="9.6094148"><ele>243.79999999999998</ele><time>2026-05-04T08:34:49.069Z</time></trkpt><trkpt lat="46.1441793" lon="9.6092436"><ele>243.59999999999997</ele><time>2026-05-04T08:34:51.069Z</time></trkpt><trkpt lat="46.1441955" lon="9.6090768"><ele>243.4</ele><time>2026-05-04T08:34:53.069Z</time></trkpt><trkpt lat="46.1442062" lon="9.6089147"><ele>243.2</ele><time>2026-05-04T08:34:55.068Z</time></trkpt><trkpt lat="46.1442186" lon="9.6088164"><ele>243.0</ele><time>2026-05-04T08:34:56.068Z</time></trkpt><trkpt lat="46.1442252" lon="9.6087222"><ele>242.8</ele><time>2026-05-04T08:34:57.07Z</time></trkpt><trkpt lat="46.1442325" lon="9.6085473"><ele>242.60000000000002</ele><time>2026-05-04T08:34:59.068Z</time></trkpt><trkpt lat="46.1442655" lon="9.6083786"><ele>242.39999999999998</ele><time>2026-05-04T08:35:01.07Z</time></trkpt><trkpt lat="46.1442898" lon="9.6082013"><ele>242.2</ele><time>2026-05-04T08:35:03.07Z</time></trkpt><trkpt lat="46.1442998" lon="9.6081074"><ele>242.0</ele><time>2026-05-04T08:35:04.069Z</time></trkpt><trkpt lat="46.1443119" lon="9.6080124"><ele>242.00000000000003</ele><time>2026-05-04T08:35:05.069Z</time></trkpt><trkpt lat="46.1443253" lon="9.6079137"><ele>242.0</ele><time>2026-05-04T08:35:06.068Z</time></trkpt><trkpt lat="46.1443401" lon="9.6078223"><ele>242.0</ele><time>2026-05-04T08:35:07.07Z</time></trkpt><trkpt lat="46.1443534" lon="9.6077282"><ele>242.0</ele><time>2026-05-04T08:35:08.069Z</time></trkpt><trkpt lat="46.144361" lon="9.6076322"><ele>242.00000000000003</ele><time>2026-05-04T08:35:09.069Z</time></trkpt><trkpt lat="46.1443788" lon="9.6074584"><ele>242.0</ele><time>2026-05-04T08:35:11.069Z</time></trkpt><trkpt lat="46.1443814" lon="9.6072833"><ele>241.83333333333334</ele><time>2026-05-04T08:35:13.069Z</time></trkpt><trkpt lat="46.1444059" lon="9.6070912"><ele>241.66666666666669</ele><time>2026-05-04T08:35:15.068Z</time></trkpt><trkpt lat="46.1444202" lon="9.6069919"><ele>241.5</ele><time>2026-05-04T08:35:16.07Z</time></trkpt><trkpt lat="46.1444478" lon="9.6068819"><ele>241.33333333333331</ele><time>2026-05-04T08:35:17.068Z</time></trkpt><trkpt lat="46.1444638" lon="9.6067825"><ele>241.16666666666666</ele><time>2026-05-04T08:35:18.068Z</time></trkpt><trkpt lat="46.1444782" lon="9.6066861"><ele>241.0</ele><time>2026-05-04T08:35:19.069Z</time></trkpt><trkpt lat="46.1444859" lon="9.6065943"><ele>240.75</ele><time>2026-05-04T08:35:20.07Z</time></trkpt><trkpt lat="46.1444995" lon="9.6064178"><ele>240.5</ele><time>2026-05-04T08:35:22.069Z</time></trkpt><trkpt lat="46.1445315" lon="9.6062401"><ele>240.25</ele><time>2026-05-04T08:35:24.069Z</time></trkpt><trkpt lat="46.1445576" lon="9.6060616"><ele>240.0</ele><time>2026-05-04T08:35:26.069Z</time></trkpt><trkpt lat="46.1445813" lon="9.6058884"><ele>240.0</ele><time>2026-05-04T08:35:28.069Z</time></trkpt><trkpt lat="46.1446074" lon="9.605706"><ele>240.0</ele><time>2026-05-04T08:35:30.069Z</time></trkpt><trkpt lat="46.144632" lon="9.6055422"><ele>240.0</ele><time>2026-05-04T08:35:32.068Z</time></trkpt><trkpt lat="46.1446519" lon="9.6054174"><ele>240.0</ele><time>2026-05-04T08:35:34.069Z</time></trkpt><trkpt lat="46.1446663" lon="9.6053266"><ele>240.0</ele><time>2026-05-04T08:37:23.069Z</time></trkpt><trkpt lat="46.1446691" lon="9.6052081"><ele>240.0</ele><time>2026-05-04T08:37:27.07Z</time></trkpt><trkpt lat="46.1446855" lon="9.6051166"><ele>240.0</ele><time>2026-05-04T08:37:29.068Z</time></trkpt><trkpt lat="46.1446945" lon="9.6050093"><ele>240.0</ele><time>2026-05-04T08:37:31.07Z</time></trkpt><trkpt lat="46.1447029" lon="9.6048958"><ele>240.0</ele><time>2026-05-04T08:37:33.069Z</time></trkpt><trkpt lat="46.1447143" lon="9.6047814"><ele>240.0</ele><time>2026-05-04T08:37:35.071Z</time></trkpt><trkpt lat="46.1447303" lon="9.60467"><ele>240.0</ele><time>2026-05-04T08:37:37.069Z</time></trkpt><trkpt lat="46.1447549" lon="9.6045532"><ele>240.0</ele><time>2026-05-04T08:37:39.068Z</time></trkpt><trkpt lat="46.1447673" lon="9.6044418"><ele>240.0</ele><time>2026-05-04T08:37:41.068Z</time></trkpt><trkpt lat="46.1447875" lon="9.6043083"><ele>240.0</ele><time>2026-05-04T08:37:43.07Z</time></trkpt><trkpt lat="46.1448191" lon="9.6042041"><ele>240.0</ele><time>2026-05-04T08:37:45.069Z</time></trkpt><trkpt lat="46.1448465" lon="9.6040952"><ele>240.0</ele><time>2026-05-04T08:37:47.069Z</time></trkpt><trkpt lat="46.1448783" lon="9.603936"><ele>240.0</ele><time>2026-05-04T08:37:49.069Z</time></trkpt><trkpt lat="46.1448884" lon="9.6038042"><ele>240.0</ele><time>2026-05-04T08:37:50.069Z</time></trkpt><trkpt lat="46.1448997" lon="9.6036877"><ele>240.0</ele><time>2026-05-04T08:37:51.068Z</time></trkpt><trkpt lat="46.144905" lon="9.6035844"><ele>240.0</ele><time>2026-05-04T08:37:52.068Z</time></trkpt><trkpt lat="46.1449092" lon="9.6034895"><ele>240.0</ele><time>2026-05-04T08:37:53.068Z</time></trkpt><trkpt lat="46.1449244" lon="9.6033187"><ele>240.0</ele><time>2026-05-04T08:37:55.07Z</time></trkpt><trkpt lat="46.1449395" lon="9.603157"><ele>240.0</ele><time>2026-05-04T08:37:57.069Z</time></trkpt><trkpt lat="46.1449499" lon="9.6030655"><ele>240.0</ele><time>2026-05-04T08:37:58.07Z</time></trkpt><trkpt lat="46.1449797" lon="9.6028938"><ele>240.0</ele><time>2026-05-04T08:38:00.069Z</time></trkpt><trkpt lat="46.1449916" lon="9.6027162"><ele>240.0</ele><time>2026-05-04T08:38:02.069Z</time></trkpt><trkpt lat="46.1450062" lon="9.6025527"><ele>240.0</ele><time>2026-05-04T08:38:04.069Z</time></trkpt><trkpt lat="46.1450184" lon="9.6023754"><ele>239.83333333333334</ele><time>2026-05-04T08:38:06.068Z</time></trkpt><trkpt lat="46.145029" lon="9.6022803"><ele>239.66666666666669</ele><time>2026-05-04T08:38:07.07Z</time></trkpt><trkpt lat="46.1450523" lon="9.6021052"><ele>239.5</ele><time>2026-05-04T08:38:09.069Z</time></trkpt><trkpt lat="46.1450626" lon="9.6020153"><ele>239.33333333333334</ele><time>2026-05-04T08:38:10.071Z</time></trkpt><trkpt lat="46.1450761" lon="9.6019213"><ele>239.16666666666669</ele><time>2026-05-04T08:38:11.07Z</time></trkpt><trkpt lat="46.1450892" lon="9.6018308"><ele>239.0</ele><time>2026-05-04T08:38:12.069Z</time></trkpt><trkpt lat="46.1450973" lon="9.6017341"><ele>239.0</ele><time>2026-05-04T08:38:13.07Z</time></trkpt><trkpt lat="46.1451099" lon="9.6015562"><ele>238.99999999999997</ele><time>2026-05-04T08:38:15.07Z</time></trkpt><trkpt lat="46.1451201" lon="9.6014638"><ele>238.99999999999997</ele><time>2026-05-04T08:38:16.07Z</time></trkpt><trkpt lat="46.1451291" lon="9.601373"><ele>239.0</ele><time>2026-05-04T08:38:17.069Z</time></trkpt><trkpt lat="46.1451565" lon="9.6012053"><ele>239.0</ele><time>2026-05-04T08:38:19.07Z</time></trkpt><trkpt lat="46.1451738" lon="9.6010334"><ele>238.83333333333334</ele><time>2026-05-04T08:38:21.068Z</time></trkpt><trkpt lat="46.145184" lon="9.6009353"><ele>238.66666666666669</ele><time>2026-05-04T08:38:22.069Z</time></trkpt><trkpt lat="46.1451963" lon="9.6008396"><ele>238.5</ele><time>2026-05-04T08:38:23.071Z</time></trkpt><trkpt lat="46.1452131" lon="9.6006622"><ele>238.33333333333331</ele><time>2026-05-04T08:38:25.068Z</time></trkpt><trkpt lat="46.1452311" lon="9.6004899"><ele>238.16666666666666</ele><time>2026-05-04T08:38:27.069Z</time></trkpt><trkpt lat="46.1452448" lon="9.6003991"><ele>238.0</ele><time>2026-05-04T08:38:28.07Z</time></trkpt><trkpt lat="46.1452596" lon="9.6002229"><ele>238.0</ele><time>2026-05-04T08:38:30.069Z</time></trkpt><trkpt lat="46.1452668" lon="9.6001311"><ele>238.0</ele><time>2026-05-04T08:38:31.07Z</time></trkpt><trkpt lat="46.1452697" lon="9.6000395"><ele>238.0</ele><time>2026-05-04T08:38:32.07Z</time></trkpt><trkpt lat="46.1452786" lon="9.5999478"><ele>238.0</ele><time>2026-05-04T08:38:33.069Z</time></trkpt><trkpt lat="46.1452924" lon="9.5998506"><ele>238.0</ele><time>2026-05-04T08:38:34.068Z</time></trkpt><trkpt lat="46.145302" lon="9.599758"><ele>238.0</ele><time>2026-05-04T08:38:35.07Z</time></trkpt><trkpt lat="46.1453014" lon="9.5996661"><ele>238.0</ele><time>2026-05-04T08:38:36.071Z</time></trkpt><trkpt lat="46.1453035" lon="9.5995675"><ele>237.85714285714286</ele><time>2026-05-04T08:38:37.069Z</time></trkpt><trkpt lat="46.1453097" lon="9.5994661"><ele>237.71428571428572</ele><time>2026-05-04T08:38:38.07Z</time></trkpt><trkpt lat="46.1453208" lon="9.5993605"><ele>237.57142857142856</ele><time>2026-05-04T08:38:39.07Z</time></trkpt><trkpt lat="46.1453321" lon="9.5992687"><ele>237.42857142857142</ele><time>2026-05-04T08:38:40.069Z</time></trkpt><trkpt lat="46.145336" lon="9.5991686"><ele>237.28571428571428</ele><time>2026-05-04T08:38:41.071Z</time></trkpt><trkpt lat="46.1453356" lon="9.5990679"><ele>237.1428571428571</ele><time>2026-05-04T08:38:42.07Z</time></trkpt><trkpt lat="46.1453409" lon="9.598974"><ele>236.99999999999997</ele><time>2026-05-04T08:38:43.07Z</time></trkpt><trkpt lat="46.1453556" lon="9.5988087"><ele>237.5</ele><time>2026-05-04T08:38:45.069Z</time></trkpt><trkpt lat="46.1453564" lon="9.598619"><ele>238.0</ele><time>2026-05-04T08:38:47.069Z</time></trkpt><trkpt lat="46.14536" lon="9.5984354"><ele>238.5</ele><time>2026-05-04T08:38:49.069Z</time></trkpt><trkpt lat="46.1453628" lon="9.5983308"><ele>239.0</ele><time>2026-05-04T08:38:50.069Z</time></trkpt><trkpt lat="46.1453732" lon="9.5981552"><ele>239.00000000000003</ele><time>2026-05-04T08:38:52.07Z</time></trkpt><trkpt lat="46.1453729" lon="9.5980541"><ele>239.0</ele><time>2026-05-04T08:38:53.071Z</time></trkpt><trkpt lat="46.1453735" lon="9.5979594"><ele>239.0</ele><time>2026-05-04T08:38:54.069Z</time></trkpt><trkpt lat="46.1453764" lon="9.5978685"><ele>239.0</ele><time>2026-05-04T08:38:55.07Z</time></trkpt><trkpt lat="46.1453827" lon="9.5977071"><ele>239.00000000000003</ele><time>2026-05-04T08:38:57.071Z</time></trkpt><trkpt lat="46.1453747" lon="9.5975392"><ele>239.0</ele><time>2026-05-04T08:38:59.071Z</time></trkpt><trkpt lat="46.1453704" lon="9.5973746"><ele>239.0</ele><time>2026-05-04T08:39:01.068Z</time></trkpt><trkpt lat="46.1453707" lon="9.5972078"><ele>238.99999999999997</ele><time>2026-05-04T08:39:03.069Z</time></trkpt><trkpt lat="46.1453681" lon="9.597057"><ele>238.99999999999997</ele><time>2026-05-04T08:39:05.07Z</time></trkpt><trkpt lat="46.1453643" lon="9.5969075"><ele>239.0</ele><time>2026-05-04T08:39:07.07Z</time></trkpt><trkpt lat="46.1453581" lon="9.5967432"><ele>239.0</ele><time>2026-05-04T08:39:09.069Z</time></trkpt><trkpt lat="46.1453652" lon="9.5965901"><ele>239.0</ele><time>2026-05-04T08:39:11.07Z</time></trkpt><trkpt lat="46.1453562" lon="9.5964388"><ele>238.99999999999997</ele><time>2026-05-04T08:39:13.068Z</time></trkpt><trkpt lat="46.1453503" lon="9.5962881"><ele>238.99999999999997</ele><time>2026-05-04T08:39:15.071Z</time></trkpt><trkpt lat="46.1453531" lon="9.5961165"><ele>239.0</ele><time>2026-05-04T08:39:17.069Z</time></trkpt><trkpt lat="46.1453531" lon="9.5959597"><ele>239.0</ele><time>2026-05-04T08:39:19.07Z</time></trkpt><trkpt lat="46.1453507" lon="9.59579"><ele>238.75</ele><time>2026-05-04T08:39:21.07Z</time></trkpt><trkpt lat="46.1453595" lon="9.5956291"><ele>238.5</ele><time>2026-05-04T08:39:23.07Z</time></trkpt><trkpt lat="46.1453681" lon="9.5954546"><ele>238.25</ele><time>2026-05-04T08:39:25.069Z</time></trkpt><trkpt lat="46.1453674" lon="9.595291"><ele>238.0</ele><time>2026-05-04T08:39:27.071Z</time></trkpt><trkpt lat="46.1453642" lon="9.5951229"><ele>237.75</ele><time>2026-05-04T08:39:29.07Z</time></trkpt><trkpt lat="46.1453652" lon="9.5949562"><ele>237.5</ele><time>2026-05-04T08:39:31.07Z</time></trkpt><trkpt lat="46.1453678" lon="9.5947916"><ele>237.25</ele><time>2026-05-04T08:39:33.069Z</time></trkpt><trkpt lat="46.1453762" lon="9.594625"><ele>237.0</ele><time>2026-05-04T08:39:35.069Z</time></trkpt><trkpt lat="46.1453781" lon="9.594435"><ele>236.99999999999997</ele><time>2026-05-04T08:39:37.07Z</time></trkpt><trkpt lat="46.1453785" lon="9.5943305"><ele>237.0</ele><time>2026-05-04T08:39:38.071Z</time></trkpt><trkpt lat="46.1453804" lon="9.5942355"><ele>236.99999999999997</ele><time>2026-05-04T08:39:39.069Z</time></trkpt><trkpt lat="46.1453811" lon="9.5941311"><ele>236.99999999999997</ele><time>2026-05-04T08:39:40.07Z</time></trkpt><trkpt lat="46.14538" lon="9.5940339"><ele>237.0</ele><time>2026-05-04T08:39:41.07Z</time></trkpt><trkpt lat="46.1453786" lon="9.593934"><ele>236.99999999999997</ele><time>2026-05-04T08:39:42.069Z</time></trkpt><trkpt lat="46.1453746" lon="9.5938382"><ele>236.99999999999997</ele><time>2026-05-04T08:39:43.07Z</time></trkpt><trkpt lat="46.1453772" lon="9.5937375"><ele>237.16666666666666</ele><time>2026-05-04T08:39:44.069Z</time></trkpt><trkpt lat="46.1453783" lon="9.5936391"><ele>237.33333333333331</ele><time>2026-05-04T08:39:45.07Z</time></trkpt><trkpt lat="46.1453776" lon="9.5935427"><ele>237.5</ele><time>2026-05-04T08:39:46.071Z</time></trkpt><trkpt lat="46.1453783" lon="9.5934485"><ele>237.66666666666666</ele><time>2026-05-04T08:39:47.069Z</time></trkpt><trkpt lat="46.1453727" lon="9.5932778"><ele>237.83333333333331</ele><time>2026-05-04T08:39:49.07Z</time></trkpt><trkpt lat="46.1453666" lon="9.593101"><ele>238.0</ele><time>2026-05-04T08:39:51.07Z</time></trkpt><trkpt lat="46.1453599" lon="9.5929971"><ele>238.0</ele><time>2026-05-04T08:39:52.071Z</time></trkpt><trkpt lat="46.1453612" lon="9.5928913"><ele>238.0</ele><time>2026-05-04T08:39:53.069Z</time></trkpt><trkpt lat="46.1453586" lon="9.5927907"><ele>238.0</ele><time>2026-05-04T08:39:54.07Z</time></trkpt><trkpt lat="46.1453595" lon="9.5926961"><ele>238.0</ele><time>2026-05-04T08:39:55.07Z</time></trkpt><trkpt lat="46.1453644" lon="9.5925953"><ele>238.0</ele><time>2026-05-04T08:39:56.07Z</time></trkpt><trkpt lat="46.1453697" lon="9.5924911"><ele>238.0</ele><time>2026-05-04T08:39:57.07Z</time></trkpt><trkpt lat="46.1453699" lon="9.5923903"><ele>238.0</ele><time>2026-05-04T08:39:58.07Z</time></trkpt><trkpt lat="46.1453709" lon="9.592293"><ele>237.83333333333331</ele><time>2026-05-04T08:39:59.07Z</time></trkpt><trkpt lat="46.145381" lon="9.5921037"><ele>237.66666666666666</ele><time>2026-05-04T08:40:01.07Z</time></trkpt><trkpt lat="46.145387" lon="9.5920003"><ele>237.5</ele><time>2026-05-04T08:40:02.069Z</time></trkpt><trkpt lat="46.1453972" lon="9.5918992"><ele>237.33333333333331</ele><time>2026-05-04T08:40:03.069Z</time></trkpt><trkpt lat="46.1454073" lon="9.5918033"><ele>237.16666666666666</ele><time>2026-05-04T08:40:04.069Z</time></trkpt><trkpt lat="46.1454152" lon="9.5916952"><ele>237.0</ele><time>2026-05-04T08:40:05.07Z</time></trkpt><trkpt lat="46.1454231" lon="9.5915925"><ele>236.66666666666666</ele><time>2026-05-04T08:40:06.07Z</time></trkpt><trkpt lat="46.1454353" lon="9.591492"><ele>236.33333333333331</ele><time>2026-05-04T08:40:07.07Z</time></trkpt><trkpt lat="46.1454513" lon="9.5913859"><ele>236.0</ele><time>2026-05-04T08:40:08.069Z</time></trkpt><trkpt lat="46.1454629" lon="9.5912929"><ele>235.66666666666666</ele><time>2026-05-04T08:40:09.069Z</time></trkpt><trkpt lat="46.1454789" lon="9.591195"><ele>235.33333333333331</ele><time>2026-05-04T08:40:10.068Z</time></trkpt><trkpt lat="46.1455142" lon="9.5910048"><ele>235.0</ele><time>2026-05-04T08:40:12.071Z</time></trkpt><trkpt lat="46.1455258" lon="9.5908972"><ele>234.85714285714283</ele><time>2026-05-04T08:40:13.07Z</time></trkpt><trkpt lat="46.1455454" lon="9.5907935"><ele>234.7142857142857</ele><time>2026-05-04T08:40:14.069Z</time></trkpt><trkpt lat="46.1455653" lon="9.5906891"><ele>234.57142857142856</ele><time>2026-05-04T08:40:15.068Z</time></trkpt><trkpt lat="46.1455959" lon="9.5905835"><ele>234.42857142857144</ele><time>2026-05-04T08:40:16.069Z</time></trkpt><trkpt lat="46.1456205" lon="9.5904811"><ele>234.2857142857143</ele><time>2026-05-04T08:40:17.071Z</time></trkpt><trkpt lat="46.1456453" lon="9.5903889"><ele>234.14285714285717</ele><time>2026-05-04T08:40:18.07Z</time></trkpt><trkpt lat="46.1456712" lon="9.5902922"><ele>234.0</ele><time>2026-05-04T08:40:19.069Z</time></trkpt><trkpt lat="46.145696" lon="9.590194"><ele>234.14285714285717</ele><time>2026-05-04T08:40:20.069Z</time></trkpt><trkpt lat="46.1457236" lon="9.590107"><ele>234.2857142857143</ele><time>2026-05-04T08:40:21.07Z</time></trkpt><trkpt lat="46.1457556" lon="9.5900225"><ele>234.42857142857144</ele><time>2026-05-04T08:40:22.07Z</time></trkpt><trkpt lat="46.1457935" lon="9.5899348"><ele>234.57142857142856</ele><time>2026-05-04T08:40:23.069Z</time></trkpt><trkpt lat="46.1458364" lon="9.5898445"><ele>234.7142857142857</ele><time>2026-05-04T08:40:24.069Z</time></trkpt><trkpt lat="46.1458727" lon="9.5897571"><ele>234.85714285714283</ele><time>2026-05-04T08:40:25.07Z</time></trkpt><trkpt lat="46.1459122" lon="9.5896704"><ele>235.0</ele><time>2026-05-04T08:40:26.07Z</time></trkpt><trkpt lat="46.1459415" lon="9.5895829"><ele>234.83333333333331</ele><time>2026-05-04T08:40:27.069Z</time></trkpt><trkpt lat="46.1459711" lon="9.5894893"><ele>234.66666666666666</ele><time>2026-05-04T08:40:28.069Z</time></trkpt><trkpt lat="46.1459946" lon="9.5893943"><ele>234.5</ele><time>2026-05-04T08:40:29.07Z</time></trkpt><trkpt lat="46.1460097" lon="9.5892885"><ele>234.33333333333331</ele><time>2026-05-04T08:40:30.07Z</time></trkpt><trkpt lat="46.146022" lon="9.5891837"><ele>234.16666666666666</ele><time>2026-05-04T08:40:31.069Z</time></trkpt><trkpt lat="46.146037" lon="9.5890706"><ele>234.0</ele><time>2026-05-04T08:40:32.07Z</time></trkpt><trkpt lat="46.1460502" lon="9.5889541"><ele>234.0</ele><time>2026-05-04T08:40:33.071Z</time></trkpt><trkpt lat="46.1460623" lon="9.5888402"><ele>234.0</ele><time>2026-05-04T08:40:34.069Z</time></trkpt><trkpt lat="46.1460762" lon="9.5887365"><ele>234.0</ele><time>2026-05-04T08:40:35.07Z</time></trkpt><trkpt lat="46.1460916" lon="9.5886204"><ele>234.0</ele><time>2026-05-04T08:40:36.069Z</time></trkpt><trkpt lat="46.1461107" lon="9.5885066"><ele>234.0</ele><time>2026-05-04T08:40:37.069Z</time></trkpt><trkpt lat="46.1461286" lon="9.5883887"><ele>234.0</ele><time>2026-05-04T08:40:38.07Z</time></trkpt><trkpt lat="46.1461431" lon="9.5882814"><ele>233.83333333333334</ele><time>2026-05-04T08:40:39.069Z</time></trkpt><trkpt lat="46.1461617" lon="9.588165"><ele>233.66666666666669</ele><time>2026-05-04T08:40:40.071Z</time></trkpt><trkpt lat="46.1461799" lon="9.5880543"><ele>233.5</ele><time>2026-05-04T08:40:41.07Z</time></trkpt><trkpt lat="46.1461899" lon="9.5879416"><ele>233.33333333333334</ele><time>2026-05-04T08:40:42.07Z</time></trkpt><trkpt lat="46.1462032" lon="9.5878174"><ele>233.16666666666669</ele><time>2026-05-04T08:40:43.071Z</time></trkpt><trkpt lat="46.1462144" lon="9.5877036"><ele>233.0</ele><time>2026-05-04T08:40:44.069Z</time></trkpt><trkpt lat="46.1462183" lon="9.5875807"><ele>232.66666666666669</ele><time>2026-05-04T08:40:45.07Z</time></trkpt><trkpt lat="46.1462231" lon="9.587466"><ele>232.33333333333334</ele><time>2026-05-04T08:40:46.069Z</time></trkpt><trkpt lat="46.1462331" lon="9.5873298"><ele>232.0</ele><time>2026-05-04T08:40:47.069Z</time></trkpt><trkpt lat="46.1462186" lon="9.5872211"><ele>231.66666666666669</ele><time>2026-05-04T08:40:48.07Z</time></trkpt><trkpt lat="46.1462118" lon="9.5870985"><ele>231.33333333333334</ele><time>2026-05-04T08:40:49.069Z</time></trkpt><trkpt lat="46.1462072" lon="9.586973"><ele>231.0</ele><time>2026-05-04T08:40:50.071Z</time></trkpt><trkpt lat="46.146204" lon="9.5868426"><ele>231.0</ele><time>2026-05-04T08:40:51.071Z</time></trkpt><trkpt lat="46.1461958" lon="9.5867246"><ele>231.0</ele><time>2026-05-04T08:40:52.071Z</time></trkpt><trkpt lat="46.1461936" lon="9.5866011"><ele>231.0</ele><time>2026-05-04T08:40:53.069Z</time></trkpt><trkpt lat="46.1461877" lon="9.5864702"><ele>231.0</ele><time>2026-05-04T08:40:54.07Z</time></trkpt><trkpt lat="46.1461854" lon="9.586345"><ele>231.0</ele><time>2026-05-04T08:40:55.071Z</time></trkpt><trkpt lat="46.1461918" lon="9.5862305"><ele>231.0</ele><time>2026-05-04T08:40:56.069Z</time></trkpt><trkpt lat="46.1461922" lon="9.5861183"><ele>231.0</ele><time>2026-05-04T08:40:57.071Z</time></trkpt><trkpt lat="46.1462025" lon="9.5860186"><ele>231.0</ele><time>2026-05-04T08:40:58.07Z</time></trkpt><trkpt lat="46.146207" lon="9.5859174"><ele>231.0</ele><time>2026-05-04T08:40:59.07Z</time></trkpt><trkpt lat="46.1462195" lon="9.5858053"><ele>231.0</ele><time>2026-05-04T08:41:00.071Z</time></trkpt><trkpt lat="46.1462191" lon="9.5856834"><ele>231.0</ele><time>2026-05-04T08:41:01.07Z</time></trkpt><trkpt lat="46.1462294" lon="9.585568"><ele>231.0</ele><time>2026-05-04T08:41:02.07Z</time></trkpt><trkpt lat="46.1462246" lon="9.5854536"><ele>231.0</ele><time>2026-05-04T08:41:03.069Z</time></trkpt><trkpt lat="46.1462299" lon="9.5853475"><ele>231.0</ele><time>2026-05-04T08:41:04.07Z</time></trkpt><trkpt lat="46.1462358" lon="9.585253"><ele>231.0</ele><time>2026-05-04T08:41:05.071Z</time></trkpt><trkpt lat="46.1462239" lon="9.5851551"><ele>231.0</ele><time>2026-05-04T08:41:06.069Z</time></trkpt><trkpt lat="46.146249" lon="9.5850589"><ele>231.0</ele><time>2026-05-04T08:41:07.069Z</time></trkpt><trkpt lat="46.1462546" lon="9.5849638"><ele>231.0</ele><time>2026-05-04T08:41:08.07Z</time></trkpt><trkpt lat="46.1462138" lon="9.584883"><ele>231.0</ele><time>2026-05-04T08:41:09.072Z</time></trkpt><trkpt lat="46.1462131" lon="9.5847875"><ele>230.60000000000002</ele><time>2026-05-04T08:41:10.07Z</time></trkpt><trkpt lat="46.1462032" lon="9.58469"><ele>230.20000000000002</ele><time>2026-05-04T08:41:11.07Z</time></trkpt><trkpt lat="46.1461986" lon="9.5845398"><ele>229.79999999999998</ele><time>2026-05-04T08:41:12.071Z</time></trkpt><trkpt lat="46.1462126" lon="9.5844258"><ele>229.39999999999998</ele><time>2026-05-04T08:41:13.069Z</time></trkpt><trkpt lat="46.1462103" lon="9.5843222"><ele>229.0</ele><time>2026-05-04T08:41:14.07Z</time></trkpt><trkpt lat="46.1462083" lon="9.5841086"><ele>228.66666666666666</ele><time>2026-05-04T08:41:16.069Z</time></trkpt><trkpt lat="46.1462115" lon="9.5840062"><ele>228.33333333333331</ele><time>2026-05-04T08:41:17.07Z</time></trkpt><trkpt lat="46.1462133" lon="9.583909"><ele>228.0</ele><time>2026-05-04T08:41:18.07Z</time></trkpt><trkpt lat="46.146221" lon="9.5838153"><ele>227.66666666666669</ele><time>2026-05-04T08:41:19.069Z</time></trkpt><trkpt lat="46.1462296" lon="9.5837226"><ele>227.33333333333334</ele><time>2026-05-04T08:41:20.069Z</time></trkpt><trkpt lat="46.14624" lon="9.5836275"><ele>227.0</ele><time>2026-05-04T08:41:21.071Z</time></trkpt><trkpt lat="46.146262" lon="9.5834499"><ele>227.00000000000003</ele><time>2026-05-04T08:41:23.069Z</time></trkpt><trkpt lat="46.1462714" lon="9.5833546"><ele>227.0</ele><time>2026-05-04T08:41:24.069Z</time></trkpt><trkpt lat="46.1462808" lon="9.5831731"><ele>227.0</ele><time>2026-05-04T08:41:26.07Z</time></trkpt><trkpt lat="46.1462889" lon="9.5830794"><ele>227.0</ele><time>2026-05-04T08:41:27.069Z</time></trkpt><trkpt lat="46.1462988" lon="9.5829862"><ele>227.00000000000003</ele><time>2026-05-04T08:41:28.069Z</time></trkpt><trkpt lat="46.1463108" lon="9.5828892"><ele>227.0</ele><time>2026-05-04T08:41:29.07Z</time></trkpt><trkpt lat="46.1463204" lon="9.5827992"><ele>227.14285714285717</ele><time>2026-05-04T08:41:30.07Z</time></trkpt><trkpt lat="46.1463355" lon="9.5827082"><ele>227.2857142857143</ele><time>2026-05-04T08:41:31.07Z</time></trkpt><trkpt lat="46.1463514" lon="9.5826094"><ele>227.42857142857144</ele><time>2026-05-04T08:41:32.07Z</time></trkpt><trkpt lat="46.1463557" lon="9.5825119"><ele>227.57142857142856</ele><time>2026-05-04T08:41:33.069Z</time></trkpt><trkpt lat="46.1463548" lon="9.5824139"><ele>227.7142857142857</ele><time>2026-05-04T08:41:34.07Z</time></trkpt><trkpt lat="46.1463585" lon="9.5823173"><ele>227.85714285714283</ele><time>2026-05-04T08:41:35.07Z</time></trkpt><trkpt lat="46.1463656" lon="9.5822233"><ele>228.0</ele><time>2026-05-04T08:41:36.07Z</time></trkpt><trkpt lat="46.1463767" lon="9.5821294"><ele>228.0</ele><time>2026-05-04T08:41:37.07Z</time></trkpt><trkpt lat="46.1463914" lon="9.5820313"><ele>228.0</ele><time>2026-05-04T08:41:38.069Z</time></trkpt><trkpt lat="46.1464087" lon="9.5819348"><ele>228.0</ele><time>2026-05-04T08:41:39.069Z</time></trkpt><trkpt lat="46.1464411" lon="9.5817566"><ele>228.0</ele><time>2026-05-04T08:41:41.072Z</time></trkpt><trkpt lat="46.1464698" lon="9.581585"><ele>228.0</ele><time>2026-05-04T08:41:43.069Z</time></trkpt><trkpt lat="46.1464996" lon="9.5814099"><ele>227.8</ele><time>2026-05-04T08:41:45.069Z</time></trkpt><trkpt lat="46.1465238" lon="9.5812481"><ele>227.60000000000002</ele><time>2026-05-04T08:41:47.071Z</time></trkpt><trkpt lat="46.1465485" lon="9.5810746"><ele>227.39999999999998</ele><time>2026-05-04T08:41:49.07Z</time></trkpt><trkpt lat="46.1465624" lon="9.5809851"><ele>227.2</ele><time>2026-05-04T08:41:50.07Z</time></trkpt><trkpt lat="46.1465764" lon="9.5808961"><ele>227.0</ele><time>2026-05-04T08:41:51.071Z</time></trkpt><trkpt lat="46.1466029" lon="9.5807237"><ele>227.5</ele><time>2026-05-04T08:41:53.07Z</time></trkpt><trkpt lat="46.1466267" lon="9.5805592"><ele>228.0</ele><time>2026-05-04T08:41:55.07Z</time></trkpt><trkpt lat="46.1466622" lon="9.5803995"><ele>228.5</ele><time>2026-05-04T08:41:57.07Z</time></trkpt><trkpt lat="46.146693" lon="9.5802406"><ele>229.0</ele><time>2026-05-04T08:41:59.071Z</time></trkpt><trkpt lat="46.1467342" lon="9.5800743"><ele>229.0</ele><time>2026-05-04T08:42:01.07Z</time></trkpt><trkpt lat="46.1467688" lon="9.5799169"><ele>229.0</ele><time>2026-05-04T08:42:03.07Z</time></trkpt><trkpt lat="46.1468141" lon="9.5797504"><ele>229.0</ele><time>2026-05-04T08:42:05.07Z</time></trkpt><trkpt lat="46.1468622" lon="9.5795939"><ele>229.0</ele><time>2026-05-04T08:42:07.069Z</time></trkpt><trkpt lat="46.1469053" lon="9.5794252"><ele>228.0</ele><time>2026-05-04T08:42:09.071Z</time></trkpt><trkpt lat="46.146951" lon="9.5792559"><ele>227.0</ele><time>2026-05-04T08:42:11.069Z</time></trkpt><trkpt lat="46.1469964" lon="9.5790942"><ele>226.0</ele><time>2026-05-04T08:42:13.069Z</time></trkpt><trkpt lat="46.1470272" lon="9.5789285"><ele>225.0</ele><time>2026-05-04T08:42:15.072Z</time></trkpt><trkpt lat="46.1470431" lon="9.5787491"><ele>225.16666666666666</ele><time>2026-05-04T08:42:17.07Z</time></trkpt><trkpt lat="46.1470588" lon="9.5785784"><ele>225.33333333333331</ele><time>2026-05-04T08:42:19.07Z</time></trkpt><trkpt lat="46.1470799" lon="9.5784082"><ele>225.5</ele><time>2026-05-04T08:42:21.071Z</time></trkpt><trkpt lat="46.1470849" lon="9.5783169"><ele>225.66666666666666</ele><time>2026-05-04T08:42:22.069Z</time></trkpt><trkpt lat="46.1470877" lon="9.5782198"><ele>225.83333333333331</ele><time>2026-05-04T08:42:23.071Z</time></trkpt><trkpt lat="46.1470897" lon="9.578123"><ele>226.0</ele><time>2026-05-04T08:42:24.071Z</time></trkpt><trkpt lat="46.1470935" lon="9.5780287"><ele>225.99999999999997</ele><time>2026-05-04T08:42:25.069Z</time></trkpt><trkpt lat="46.1471035" lon="9.5779338"><ele>226.0</ele><time>2026-05-04T08:42:26.07Z</time></trkpt><trkpt lat="46.1471181" lon="9.5778448"><ele>226.0</ele><time>2026-05-04T08:42:27.07Z</time></trkpt><trkpt lat="46.1471384" lon="9.5776706"><ele>226.0</ele><time>2026-05-04T08:42:29.069Z</time></trkpt><trkpt lat="46.1471427" lon="9.5775788"><ele>225.99999999999997</ele><time>2026-05-04T08:42:30.07Z</time></trkpt><trkpt lat="46.147166" lon="9.5774142"><ele>226.0</ele><time>2026-05-04T08:42:32.071Z</time></trkpt><trkpt lat="46.1471748" lon="9.5773156"><ele>227.0</ele><time>2026-05-04T08:42:33.07Z</time></trkpt><trkpt lat="46.1471511" lon="9.5771302"><ele>228.0</ele><time>2026-05-04T08:42:35.07Z</time></trkpt><trkpt lat="46.1471099" lon="9.5769558"><ele>229.0</ele><time>2026-05-04T08:42:37.069Z</time></trkpt><trkpt lat="46.1470832" lon="9.5767918"><ele>230.0</ele><time>2026-05-04T08:42:39.07Z</time></trkpt><trkpt lat="46.147063" lon="9.5766242"><ele>230.00000000000003</ele><time>2026-05-04T08:42:41.069Z</time></trkpt><trkpt lat="46.14705" lon="9.5764476"><ele>230.0</ele><time>2026-05-04T08:42:43.069Z</time></trkpt><trkpt lat="46.1470323" lon="9.5762677"><ele>230.0</ele><time>2026-05-04T08:42:45.071Z</time></trkpt><trkpt lat="46.1470134" lon="9.576179"><ele>230.0</ele><time>2026-05-04T08:42:46.07Z</time></trkpt><trkpt lat="46.146992" lon="9.5760896"><ele>230.00000000000003</ele><time>2026-05-04T08:42:47.07Z</time></trkpt><trkpt lat="46.1469688" lon="9.5760018"><ele>230.0</ele><time>2026-05-04T08:42:48.069Z</time></trkpt><trkpt lat="46.1469428" lon="9.5758264"><ele>230.2</ele><time>2026-05-04T08:42:50.069Z</time></trkpt><trkpt lat="46.1469384" lon="9.5757331"><ele>230.4</ele><time>2026-05-04T08:42:51.071Z</time></trkpt><trkpt lat="46.1469299" lon="9.5755714"><ele>230.60000000000002</ele><time>2026-05-04T08:42:53.069Z</time></trkpt><trkpt lat="46.1469168" lon="9.5754107"><ele>230.8</ele><time>2026-05-04T08:42:55.07Z</time></trkpt><trkpt lat="46.1468913" lon="9.5752465"><ele>231.0</ele><time>2026-05-04T08:42:57.07Z</time></trkpt><trkpt lat="46.1468462" lon="9.5750913"><ele>233.0</ele><time>2026-05-04T08:42:59.07Z</time></trkpt><trkpt lat="46.1468012" lon="9.5749374"><ele>235.0</ele><time>2026-05-04T08:43:01.069Z</time></trkpt><trkpt lat="46.1467589" lon="9.574781"><ele>237.0</ele><time>2026-05-04T08:43:03.071Z</time></trkpt><trkpt lat="46.146715" lon="9.5746138"><ele>239.0</ele><time>2026-05-04T08:43:05.07Z</time></trkpt><trkpt lat="46.1466673" lon="9.5744647"><ele>241.25</ele><time>2026-05-04T08:43:07.07Z</time></trkpt><trkpt lat="46.1466358" lon="9.5743016"><ele>243.5</ele><time>2026-05-04T08:43:09.069Z</time></trkpt><trkpt lat="46.1465993" lon="9.5741433"><ele>245.75</ele><time>2026-05-04T08:43:11.071Z</time></trkpt><trkpt lat="46.1465599" lon="9.5739799"><ele>248.0</ele><time>2026-05-04T08:43:13.071Z</time></trkpt><trkpt lat="46.1465375" lon="9.5738092"><ele>243.8</ele><time>2026-05-04T08:43:15.071Z</time></trkpt><trkpt lat="46.146518" lon="9.5736404"><ele>239.60000000000002</ele><time>2026-05-04T08:43:17.07Z</time></trkpt><trkpt lat="46.146508" lon="9.5734693"><ele>235.39999999999998</ele><time>2026-05-04T08:43:19.07Z</time></trkpt><trkpt lat="46.1464978" lon="9.5733719"><ele>231.2</ele><time>2026-05-04T08:43:20.07Z</time></trkpt><trkpt lat="46.1464868" lon="9.573279"><ele>227.0</ele><time>2026-05-04T08:43:21.07Z</time></trkpt><trkpt lat="46.1464832" lon="9.5731082"><ele>227.0</ele><time>2026-05-04T08:43:23.069Z</time></trkpt><trkpt lat="46.1464785" lon="9.5729328"><ele>227.0</ele><time>2026-05-04T08:43:25.07Z</time></trkpt><trkpt lat="46.1464716" lon="9.5727611"><ele>227.0</ele><time>2026-05-04T08:43:27.07Z</time></trkpt><trkpt lat="46.1464681" lon="9.5725895"><ele>227.0</ele><time>2026-05-04T08:43:29.07Z</time></trkpt><trkpt lat="46.146454" lon="9.5724156"><ele>226.6</ele><time>2026-05-04T08:43:31.071Z</time></trkpt><trkpt lat="46.1464371" lon="9.5722465"><ele>226.2</ele><time>2026-05-04T08:43:33.07Z</time></trkpt><trkpt lat="46.1464222" lon="9.5720836"><ele>225.8</ele><time>2026-05-04T08:43:35.07Z</time></trkpt><trkpt lat="46.146398" lon="9.571944"><ele>225.4</ele><time>2026-05-04T08:43:37.071Z</time></trkpt><trkpt lat="46.1463768" lon="9.5718236"><ele>225.0</ele><time>2026-05-04T08:43:39.07Z</time></trkpt><trkpt lat="46.1463378" lon="9.571708"><ele>224.66666666666666</ele><time>2026-05-04T08:43:43.07Z</time></trkpt><trkpt lat="46.1462983" lon="9.571632"><ele>224.33333333333331</ele><time>2026-05-04T08:43:45.16Z</time></trkpt><trkpt lat="46.1462704" lon="9.5715365"><ele>224.0</ele><time>2026-05-04T08:43:47.152Z</time></trkpt><trkpt lat="46.1462424" lon="9.5714074"><ele>223.66666666666666</ele><time>2026-05-04T08:43:49.071Z</time></trkpt><trkpt lat="46.1461939" lon="9.5712479"><ele>223.33333333333331</ele><time>2026-05-04T08:43:51.07Z</time></trkpt><trkpt lat="46.1461786" lon="9.5711414"><ele>223.0</ele><time>2026-05-04T08:43:52.07Z</time></trkpt><trkpt lat="46.1461651" lon="9.5710452"><ele>223.66666666666666</ele><time>2026-05-04T08:43:53.07Z</time></trkpt><trkpt lat="46.1461519" lon="9.5709467"><ele>224.33333333333331</ele><time>2026-05-04T08:43:54.07Z</time></trkpt><trkpt lat="46.1461415" lon="9.5708477"><ele>225.0</ele><time>2026-05-04T08:43:55.071Z</time></trkpt><trkpt lat="46.1461471" lon="9.5707493"><ele>225.66666666666669</ele><time>2026-05-04T08:43:56.07Z</time></trkpt><trkpt lat="46.1461594" lon="9.570591"><ele>226.33333333333334</ele><time>2026-05-04T08:43:58.07Z</time></trkpt><trkpt lat="46.1461604" lon="9.5704926"><ele>227.0</ele><time>2026-05-04T08:43:59.071Z</time></trkpt><trkpt lat="46.1461581" lon="9.5704005"><ele>228.8</ele><time>2026-05-04T08:44:00.071Z</time></trkpt><trkpt lat="46.1461557" lon="9.5703021"><ele>230.6</ele><time>2026-05-04T08:44:01.071Z</time></trkpt><trkpt lat="46.1461592" lon="9.5701323"><ele>232.40000000000003</ele><time>2026-05-04T08:44:03.071Z</time></trkpt><trkpt lat="46.1461634" lon="9.5699487"><ele>234.20000000000002</ele><time>2026-05-04T08:44:05.071Z</time></trkpt><trkpt lat="46.1461463" lon="9.5698385"><ele>236.0</ele><time>2026-05-04T08:44:06.071Z</time></trkpt><trkpt lat="46.1461355" lon="9.5697349"><ele>236.00000000000003</ele><time>2026-05-04T08:44:07.07Z</time></trkpt><trkpt lat="46.146129" lon="9.5696248"><ele>236.0</ele><time>2026-05-04T08:44:08.071Z</time></trkpt><trkpt lat="46.1461204" lon="9.5695238"><ele>236.0</ele><time>2026-05-04T08:44:09.069Z</time></trkpt><trkpt lat="46.1461068" lon="9.5694292"><ele>236.0</ele><time>2026-05-04T08:44:10.071Z</time></trkpt><trkpt lat="46.1460975" lon="9.5692573"><ele>236.00000000000003</ele><time>2026-05-04T08:44:12.071Z</time></trkpt><trkpt lat="46.1460834" lon="9.5691617"><ele>236.0</ele><time>2026-05-04T08:44:13.071Z</time></trkpt><trkpt lat="46.1460742" lon="9.5690522"><ele>235.50000000000003</ele><time>2026-05-04T08:44:14.071Z</time></trkpt><trkpt lat="46.1460673" lon="9.56888"><ele>235.0</ele><time>2026-05-04T08:44:16.071Z</time></trkpt><trkpt lat="46.1460684" lon="9.5687718"><ele>234.5</ele><time>2026-05-04T08:44:17.07Z</time></trkpt><trkpt lat="46.1460628" lon="9.5686679"><ele>234.0</ele><time>2026-05-04T08:44:18.069Z</time></trkpt><trkpt lat="46.1460546" lon="9.5685574"><ele>233.50000000000003</ele><time>2026-05-04T08:44:19.07Z</time></trkpt><trkpt lat="46.1460573" lon="9.5684524"><ele>233.0</ele><time>2026-05-04T08:44:20.071Z</time></trkpt><trkpt lat="46.1460507" lon="9.5683587"><ele>233.00000000000003</ele><time>2026-05-04T08:44:21.071Z</time></trkpt><trkpt lat="46.1460429" lon="9.5682644"><ele>233.0</ele><time>2026-05-04T08:44:22.071Z</time></trkpt><trkpt lat="46.1460379" lon="9.5681714"><ele>233.0</ele><time>2026-05-04T08:44:23.071Z</time></trkpt><trkpt lat="46.1460182" lon="9.5679958"><ele>233.0</ele><time>2026-05-04T08:44:25.072Z</time></trkpt><trkpt lat="46.1460107" lon="9.5678984"><ele>233.00000000000003</ele><time>2026-05-04T08:44:26.071Z</time></trkpt><trkpt lat="46.1459781" lon="9.5677269"><ele>233.0</ele><time>2026-05-04T08:44:28.069Z</time></trkpt><trkpt lat="46.145979" lon="9.5675639"><ele>233.8</ele><time>2026-05-04T08:44:30.07Z</time></trkpt><trkpt lat="46.1459768" lon="9.567389"><ele>234.60000000000002</ele><time>2026-05-04T08:44:32.072Z</time></trkpt><trkpt lat="46.1459746" lon="9.5672955"><ele>235.39999999999998</ele><time>2026-05-04T08:44:33.069Z</time></trkpt><trkpt lat="46.1459658" lon="9.5671167"><ele>236.2</ele><time>2026-05-04T08:44:35.071Z</time></trkpt><trkpt lat="46.1459493" lon="9.5669553"><ele>237.0</ele><time>2026-05-04T08:44:37.07Z</time></trkpt><trkpt lat="46.1459401" lon="9.5667953"><ele>237.28571428571425</ele><time>2026-05-04T08:44:39.071Z</time></trkpt><trkpt lat="46.1459301" lon="9.5666912"><ele>237.57142857142856</ele><time>2026-05-04T08:44:41.072Z</time></trkpt><trkpt lat="46.1459042" lon="9.5665845"><ele>237.85714285714286</ele><time>2026-05-04T08:44:43.07Z</time></trkpt><trkpt lat="46.145902" lon="9.5664742"><ele>238.14285714285714</ele><time>2026-05-04T08:44:44.07Z</time></trkpt><trkpt lat="46.1458965" lon="9.5663787"><ele>238.42857142857144</ele><time>2026-05-04T08:44:45.071Z</time></trkpt><trkpt lat="46.1458902" lon="9.5662672"><ele>238.71428571428575</ele><time>2026-05-04T08:44:46.072Z</time></trkpt><trkpt lat="46.1458847" lon="9.5661564"><ele>239.00000000000003</ele><time>2026-05-04T08:44:47.069Z</time></trkpt><trkpt lat="46.1458742" lon="9.5660482"><ele>240.39999999999998</ele><time>2026-05-04T08:44:48.071Z</time></trkpt><trkpt lat="46.1458515" lon="9.5658828"><ele>241.79999999999998</ele><time>2026-05-04T08:44:50.071Z</time></trkpt><trkpt lat="46.1458242" lon="9.5657156"><ele>243.20000000000002</ele><time>2026-05-04T08:44:52.072Z</time></trkpt><trkpt lat="46.1458085" lon="9.5656091"><ele>244.60000000000002</ele><time>2026-05-04T08:44:53.071Z</time></trkpt><trkpt lat="46.1458041" lon="9.5654958"><ele>246.0</ele><time>2026-05-04T08:44:54.071Z</time></trkpt><trkpt lat="46.1457924" lon="9.5653184"><ele>246.33333333333334</ele><time>2026-05-04T08:44:56.07Z</time></trkpt><trkpt lat="46.1457761" lon="9.5651382"><ele>246.66666666666669</ele><time>2026-05-04T08:44:58.071Z</time></trkpt><trkpt lat="46.145772" lon="9.5650467"><ele>247.0</ele><time>2026-05-04T08:44:59.07Z</time></trkpt><trkpt lat="46.1457644" lon="9.564949"><ele>247.33333333333334</ele><time>2026-05-04T08:45:00.07Z</time></trkpt><trkpt lat="46.1457624" lon="9.5648578"><ele>247.66666666666669</ele><time>2026-05-04T08:45:01.072Z</time></trkpt><trkpt lat="46.1458048" lon="9.5647712"><ele>248.0</ele><time>2026-05-04T08:45:03.071Z</time></trkpt><trkpt lat="46.1458024" lon="9.564665"><ele>248.2</ele><time>2026-05-04T08:45:04.072Z</time></trkpt><trkpt lat="46.1457947" lon="9.5644772"><ele>248.4</ele><time>2026-05-04T08:45:06.072Z</time></trkpt><trkpt lat="46.1458059" lon="9.56437"><ele>248.59999999999997</ele><time>2026-05-04T08:45:07.071Z</time></trkpt><trkpt lat="46.1458066" lon="9.5642646"><ele>248.79999999999998</ele><time>2026-05-04T08:45:08.071Z</time></trkpt><trkpt lat="46.1457995" lon="9.5641068"><ele>249.0</ele><time>2026-05-04T08:45:10.07Z</time></trkpt><trkpt lat="46.145777" lon="9.5640028"><ele>249.0</ele><time>2026-05-04T08:45:11.072Z</time></trkpt><trkpt lat="46.145761" lon="9.5639083"><ele>249.0</ele><time>2026-05-04T08:45:12.07Z</time></trkpt><trkpt lat="46.1457561" lon="9.563799"><ele>249.0</ele><time>2026-05-04T08:45:13.07Z</time></trkpt><trkpt lat="46.1457542" lon="9.5637055"><ele>249.0</ele><time>2026-05-04T08:45:14.071Z</time></trkpt><trkpt lat="46.1457358" lon="9.5636098"><ele>249.0</ele><time>2026-05-04T08:45:15.072Z</time></trkpt><trkpt lat="46.1457247" lon="9.5635173"><ele>249.0</ele><time>2026-05-04T08:45:16.07Z</time></trkpt><trkpt lat="46.145691" lon="9.5633347"><ele>244.83333333333334</ele><time>2026-05-04T08:45:18.071Z</time></trkpt><trkpt lat="46.1456791" lon="9.5632336"><ele>240.66666666666669</ele><time>2026-05-04T08:45:19.071Z</time></trkpt><trkpt lat="46.1456678" lon="9.5631352"><ele>236.5</ele><time>2026-05-04T08:45:20.072Z</time></trkpt><trkpt lat="46.1456653" lon="9.5630425"><ele>232.33333333333334</ele><time>2026-05-04T08:45:21.07Z</time></trkpt><trkpt lat="46.1456445" lon="9.5628766"><ele>228.16666666666669</ele><time>2026-05-04T08:45:23.07Z</time></trkpt><trkpt lat="46.1456329" lon="9.5626974"><ele>224.0</ele><time>2026-05-04T08:45:25.07Z</time></trkpt><trkpt lat="46.1456198" lon="9.5625164"><ele>223.16666666666669</ele><time>2026-05-04T08:45:27.071Z</time></trkpt><trkpt lat="46.1456055" lon="9.5623522"><ele>222.33333333333334</ele><time>2026-05-04T08:45:29.069Z</time></trkpt><trkpt lat="46.1455906" lon="9.5622527"><ele>221.5</ele><time>2026-05-04T08:45:30.071Z</time></trkpt><trkpt lat="46.1455764" lon="9.5621473"><ele>220.66666666666669</ele><time>2026-05-04T08:45:31.07Z</time></trkpt><trkpt lat="46.1455674" lon="9.5620561"><ele>219.83333333333334</ele><time>2026-05-04T08:45:32.071Z</time></trkpt><trkpt lat="46.1455626" lon="9.5619614"><ele>219.0</ele><time>2026-05-04T08:45:33.071Z</time></trkpt><trkpt lat="46.1455517" lon="9.561866"><ele>218.85714285714286</ele><time>2026-05-04T08:45:34.07Z</time></trkpt><trkpt lat="46.145539" lon="9.5617742"><ele>218.7142857142857</ele><time>2026-05-04T08:45:35.07Z</time></trkpt><trkpt lat="46.1455272" lon="9.5616829"><ele>218.57142857142856</ele><time>2026-05-04T08:45:36.069Z</time></trkpt><trkpt lat="46.1455089" lon="9.5615884"><ele>218.42857142857144</ele><time>2026-05-04T08:45:37.072Z</time></trkpt><trkpt lat="46.1454987" lon="9.5614897"><ele>218.28571428571428</ele><time>2026-05-04T08:45:38.071Z</time></trkpt><trkpt lat="46.1454934" lon="9.5613989"><ele>218.14285714285714</ele><time>2026-05-04T08:45:39.071Z</time></trkpt><trkpt lat="46.1454717" lon="9.5612373"><ele>218.0</ele><time>2026-05-04T08:45:41.07Z</time></trkpt><trkpt lat="46.1454602" lon="9.5611397"><ele>219.0</ele><time>2026-05-04T08:45:42.072Z</time></trkpt><trkpt lat="46.1454391" lon="9.5609466"><ele>220.0</ele><time>2026-05-04T08:45:44.071Z</time></trkpt><trkpt lat="46.1454304" lon="9.5608494"><ele>221.0</ele><time>2026-05-04T08:45:45.07Z</time></trkpt><trkpt lat="46.1454097" lon="9.5606654"><ele>222.0</ele><time>2026-05-04T08:45:47.072Z</time></trkpt><trkpt lat="46.1453949" lon="9.5605677"><ele>223.0</ele><time>2026-05-04T08:45:48.07Z</time></trkpt><trkpt lat="46.1453808" lon="9.5604646"><ele>224.0</ele><time>2026-05-04T08:45:49.072Z</time></trkpt><trkpt lat="46.1453658" lon="9.5602875"><ele>225.0</ele><time>2026-05-04T08:45:51.07Z</time></trkpt><trkpt lat="46.1453589" lon="9.5601126"><ele>226.0</ele><time>2026-05-04T08:45:53.071Z</time></trkpt><trkpt lat="46.1453464" lon="9.5600211"><ele>227.0</ele><time>2026-05-04T08:45:54.072Z</time></trkpt><trkpt lat="46.1453229" lon="9.559842"><ele>228.0</ele><time>2026-05-04T08:45:56.071Z</time></trkpt><trkpt lat="46.1453062" lon="9.5596737"><ele>227.5</ele><time>2026-05-04T08:45:58.071Z</time></trkpt><trkpt lat="46.1452816" lon="9.5594999"><ele>227.0</ele><time>2026-05-04T08:46:00.071Z</time></trkpt><trkpt lat="46.1452681" lon="9.5593315"><ele>226.5</ele><time>2026-05-04T08:46:02.069Z</time></trkpt><trkpt lat="46.145252" lon="9.5591625"><ele>226.0</ele><time>2026-05-04T08:46:04.071Z</time></trkpt><trkpt lat="46.1452438" lon="9.5590047"><ele>226.0</ele><time>2026-05-04T08:46:06.069Z</time></trkpt><trkpt lat="46.1452221" lon="9.5588855"><ele>226.00000000000003</ele><time>2026-05-04T08:46:07.07Z</time></trkpt><trkpt lat="46.1452085" lon="9.5587803"><ele>226.00000000000003</ele><time>2026-05-04T08:46:08.07Z</time></trkpt><trkpt lat="46.1451802" lon="9.5586142"><ele>226.0</ele><time>2026-05-04T08:46:10.071Z</time></trkpt><trkpt lat="46.1451461" lon="9.5584695"><ele>226.0</ele><time>2026-05-04T08:46:12.073Z</time></trkpt><trkpt lat="46.1451177" lon="9.5583015"><ele>226.20000000000002</ele><time>2026-05-04T08:46:14.069Z</time></trkpt><trkpt lat="46.1451188" lon="9.5581244"><ele>226.40000000000003</ele><time>2026-05-04T08:46:16.071Z</time></trkpt><trkpt lat="46.1450973" lon="9.5579839"><ele>226.6</ele><time>2026-05-04T08:46:18.071Z</time></trkpt><trkpt lat="46.1450781" lon="9.5578407"><ele>226.8</ele><time>2026-05-04T08:46:20.071Z</time></trkpt><trkpt lat="46.1450547" lon="9.5576713"><ele>227.0</ele><time>2026-05-04T08:46:22.07Z</time></trkpt><trkpt lat="46.1450316" lon="9.5575812"><ele>227.66666666666669</ele><time>2026-05-04T08:46:23.071Z</time></trkpt><trkpt lat="46.1450068" lon="9.5574164"><ele>228.33333333333334</ele><time>2026-05-04T08:46:25.07Z</time></trkpt><trkpt lat="46.1450008" lon="9.5572443"><ele>229.0</ele><time>2026-05-04T08:46:27.072Z</time></trkpt><trkpt lat="46.1449875" lon="9.5571505"><ele>229.66666666666669</ele><time>2026-05-04T08:46:28.071Z</time></trkpt><trkpt lat="46.1449767" lon="9.5570575"><ele>230.33333333333334</ele><time>2026-05-04T08:46:29.07Z</time></trkpt><trkpt lat="46.1449655" lon="9.5569631"><ele>231.0</ele><time>2026-05-04T08:46:30.072Z</time></trkpt><trkpt lat="46.144955" lon="9.5568572"><ele>233.28571428571428</ele><time>2026-05-04T08:46:31.071Z</time></trkpt><trkpt lat="46.1449474" lon="9.5567541"><ele>235.57142857142856</ele><time>2026-05-04T08:46:32.07Z</time></trkpt><trkpt lat="46.1449446" lon="9.5566616"><ele>237.85714285714286</ele><time>2026-05-04T08:46:33.07Z</time></trkpt><trkpt lat="46.1449323" lon="9.556568"><ele>240.14285714285714</ele><time>2026-05-04T08:46:34.07Z</time></trkpt><trkpt lat="46.1449221" lon="9.5564779"><ele>242.42857142857142</ele><time>2026-05-04T08:46:35.07Z</time></trkpt><trkpt lat="46.144912" lon="9.5563748"><ele>244.71428571428572</ele><time>2026-05-04T08:46:36.07Z</time></trkpt><trkpt lat="46.1449007" lon="9.5562707"><ele>247.0</ele><time>2026-05-04T08:46:37.072Z</time></trkpt><trkpt lat="46.1448908" lon="9.5561639"><ele>247.28571428571428</ele><time>2026-05-04T08:46:38.071Z</time></trkpt><trkpt lat="46.1448983" lon="9.5560593"><ele>247.57142857142856</ele><time>2026-05-04T08:46:39.071Z</time></trkpt><trkpt lat="46.1448979" lon="9.5559551"><ele>247.85714285714283</ele><time>2026-05-04T08:46:40.07Z</time></trkpt><trkpt lat="46.1449023" lon="9.5558513"><ele>248.14285714285714</ele><time>2026-05-04T08:46:41.072Z</time></trkpt><trkpt lat="46.1449033" lon="9.5557485"><ele>248.4285714285714</ele><time>2026-05-04T08:46:42.071Z</time></trkpt><trkpt lat="46.1449006" lon="9.555643"><ele>248.7142857142857</ele><time>2026-05-04T08:46:43.072Z</time></trkpt><trkpt lat="46.1448962" lon="9.5555398"><ele>249.0</ele><time>2026-05-04T08:46:44.072Z</time></trkpt><trkpt lat="46.1449179" lon="9.5554369"><ele>249.66666666666666</ele><time>2026-05-04T08:46:45.071Z</time></trkpt><trkpt lat="46.1449194" lon="9.5553452"><ele>250.33333333333331</ele><time>2026-05-04T08:46:46.07Z</time></trkpt><trkpt lat="46.1449188" lon="9.5551763"><ele>251.0</ele><time>2026-05-04T08:46:48.07Z</time></trkpt><trkpt lat="46.1449093" lon="9.5550808"><ele>251.66666666666666</ele><time>2026-05-04T08:46:49.071Z</time></trkpt><trkpt lat="46.144894" lon="9.5549885"><ele>252.33333333333331</ele><time>2026-05-04T08:46:50.071Z</time></trkpt><trkpt lat="46.1448706" lon="9.5548164"><ele>253.0</ele><time>2026-05-04T08:46:52.07Z</time></trkpt><trkpt lat="46.1448767" lon="9.5546453"><ele>251.66666666666666</ele><time>2026-05-04T08:46:54.072Z</time></trkpt><trkpt lat="46.144882" lon="9.5544729"><ele>250.33333333333331</ele><time>2026-05-04T08:46:56.071Z</time></trkpt><trkpt lat="46.1448901" lon="9.5543808"><ele>249.0</ele><time>2026-05-04T08:46:57.072Z</time></trkpt><trkpt lat="46.1448896" lon="9.5542135"><ele>247.66666666666669</ele><time>2026-05-04T08:46:59.071Z</time></trkpt><trkpt lat="46.1448804" lon="9.5541099"><ele>246.33333333333334</ele><time>2026-05-04T08:47:00.07Z</time></trkpt><trkpt lat="46.1448649" lon="9.5540137"><ele>245.0</ele><time>2026-05-04T08:47:01.07Z</time></trkpt><trkpt lat="46.1448637" lon="9.5538804"><ele>240.6</ele><time>2026-05-04T08:47:03.071Z</time></trkpt><trkpt lat="46.1448346" lon="9.5537065"><ele>236.2</ele><time>2026-05-04T08:47:05.07Z</time></trkpt><trkpt lat="46.1448244" lon="9.5535933"><ele>231.8</ele><time>2026-05-04T08:47:06.071Z</time></trkpt><trkpt lat="46.1448371" lon="9.5534066"><ele>227.4</ele><time>2026-05-04T08:47:08.071Z</time></trkpt><trkpt lat="46.1448083" lon="9.5533094"><ele>223.0</ele><time>2026-05-04T08:47:09.071Z</time></trkpt><trkpt lat="46.1447545" lon="9.553181"><ele>222.0</ele><time>2026-05-04T08:47:11.071Z</time></trkpt><trkpt lat="46.1447093" lon="9.5530082"><ele>221.0</ele><time>2026-05-04T08:47:13.071Z</time></trkpt><trkpt lat="46.1446717" lon="9.5529123"><ele>220.0</ele><time>2026-05-04T08:47:14.071Z</time></trkpt><trkpt lat="46.1446267" lon="9.5527501"><ele>219.0</ele><time>2026-05-04T08:47:16.071Z</time></trkpt><trkpt lat="46.1445944" lon="9.5526335"><ele>218.0</ele><time>2026-05-04T08:47:18.071Z</time></trkpt><trkpt lat="46.1445795" lon="9.5525377"><ele>218.00000000000003</ele><time>2026-05-04T08:47:19.07Z</time></trkpt><trkpt lat="46.1445644" lon="9.5524438"><ele>218.0</ele><time>2026-05-04T08:47:20.071Z</time></trkpt><trkpt lat="46.1445275" lon="9.552288"><ele>218.0</ele><time>2026-05-04T08:47:22.07Z</time></trkpt><trkpt lat="46.1444986" lon="9.5521291"><ele>218.0</ele><time>2026-05-04T08:47:24.072Z</time></trkpt><trkpt lat="46.1444751" lon="9.5520249"><ele>218.00000000000003</ele><time>2026-05-04T08:47:25.072Z</time></trkpt><trkpt lat="46.1444536" lon="9.5519379"><ele>218.0</ele><time>2026-05-04T08:47:26.071Z</time></trkpt><trkpt lat="46.1444177" lon="9.551787"><ele>218.0</ele><time>2026-05-04T08:47:28.072Z</time></trkpt><trkpt lat="46.1443681" lon="9.5516246"><ele>218.0</ele><time>2026-05-04T08:47:30.071Z</time></trkpt><trkpt lat="46.1443329" lon="9.5514798"><ele>218.0</ele><time>2026-05-04T08:47:32.07Z</time></trkpt><trkpt lat="46.1442891" lon="9.5513228"><ele>218.0</ele><time>2026-05-04T08:47:34.071Z</time></trkpt><trkpt lat="46.1442775" lon="9.5512254"><ele>218.0</ele><time>2026-05-04T08:47:35.072Z</time></trkpt><trkpt lat="46.1442594" lon="9.5510637"><ele>218.4</ele><time>2026-05-04T08:47:37.071Z</time></trkpt><trkpt lat="46.1442239" lon="9.5508867"><ele>218.8</ele><time>2026-05-04T08:47:39.071Z</time></trkpt><trkpt lat="46.1441916" lon="9.5507691"><ele>219.2</ele><time>2026-05-04T08:47:41.071Z</time></trkpt><trkpt lat="46.1441441" lon="9.5506562"><ele>219.6</ele><time>2026-05-04T08:47:43.071Z</time></trkpt><trkpt lat="46.144059" lon="9.5505594"><ele>220.0</ele><time>2026-05-04T08:47:45.07Z</time></trkpt><trkpt lat="46.1439328" lon="9.550428"><ele>220.2</ele><time>2026-05-04T08:47:48.071Z</time></trkpt><trkpt lat="46.1438504" lon="9.5503344"><ele>220.4</ele><time>2026-05-04T08:47:50.071Z</time></trkpt><trkpt lat="46.1437437" lon="9.5502114"><ele>220.60000000000002</ele><time>2026-05-04T08:47:52.071Z</time></trkpt><trkpt lat="46.1436828" lon="9.5501315"><ele>220.8</ele><time>2026-05-04T08:47:53.072Z</time></trkpt><trkpt lat="46.14363" lon="9.550051"><ele>221.0</ele><time>2026-05-04T08:47:54.07Z</time></trkpt><trkpt lat="46.1435889" lon="9.5499688"><ele>221.0</ele><time>2026-05-04T08:47:55.071Z</time></trkpt><trkpt lat="46.1435493" lon="9.5498854"><ele>221.00000000000003</ele><time>2026-05-04T08:47:56.071Z</time></trkpt><trkpt lat="46.143514" lon="9.5497222"><ele>221.00000000000003</ele><time>2026-05-04T08:47:58.07Z</time></trkpt><trkpt lat="46.1434857" lon="9.5495696"><ele>221.0</ele><time>2026-05-04T08:48:00.071Z</time></trkpt><trkpt lat="46.1434269" lon="9.5494297"><ele>221.0</ele><time>2026-05-04T08:48:02.072Z</time></trkpt><trkpt lat="46.1433545" lon="9.5492871"><ele>220.60000000000002</ele><time>2026-05-04T08:48:04.071Z</time></trkpt><trkpt lat="46.143312" lon="9.5492137"><ele>220.20000000000002</ele><time>2026-05-04T08:48:05.07Z</time></trkpt><trkpt lat="46.1432675" lon="9.5491365"><ele>219.79999999999998</ele><time>2026-05-04T08:48:06.07Z</time></trkpt><trkpt lat="46.1431996" lon="9.5490164"><ele>219.39999999999998</ele><time>2026-05-04T08:48:08.072Z</time></trkpt><trkpt lat="46.1431265" lon="9.5488713"><ele>219.0</ele><time>2026-05-04T08:48:10.07Z</time></trkpt><trkpt lat="46.1430613" lon="9.5487456"><ele>218.83333333333334</ele><time>2026-05-04T08:48:12.072Z</time></trkpt><trkpt lat="46.1429984" lon="9.548601"><ele>218.66666666666669</ele><time>2026-05-04T08:48:14.07Z</time></trkpt><trkpt lat="46.1429672" lon="9.5485141"><ele>218.5</ele><time>2026-05-04T08:48:15.073Z</time></trkpt><trkpt lat="46.1429429" lon="9.5484203"><ele>218.33333333333334</ele><time>2026-05-04T08:48:16.071Z</time></trkpt><trkpt lat="46.1429238" lon="9.5483327"><ele>218.16666666666669</ele><time>2026-05-04T08:48:17.071Z</time></trkpt><trkpt lat="46.1428971" lon="9.5481526"><ele>218.0</ele><time>2026-05-04T08:48:19.072Z</time></trkpt><trkpt lat="46.142878" lon="9.5480646"><ele>218.0</ele><time>2026-05-04T08:48:20.071Z</time></trkpt><trkpt lat="46.142847" lon="9.5478858"><ele>218.0</ele><time>2026-05-04T08:48:22.072Z</time></trkpt><trkpt lat="46.1428405" lon="9.5477937"><ele>218.0</ele><time>2026-05-04T08:48:23.071Z</time></trkpt><trkpt lat="46.142825" lon="9.5476157"><ele>218.0</ele><time>2026-05-04T08:48:25.072Z</time></trkpt><trkpt lat="46.1428177" lon="9.5475226"><ele>218.0</ele><time>2026-05-04T08:48:26.07Z</time></trkpt><trkpt lat="46.1428178" lon="9.547422"><ele>217.66666666666669</ele><time>2026-05-04T08:48:27.071Z</time></trkpt><trkpt lat="46.1428255" lon="9.5473204"><ele>217.33333333333334</ele><time>2026-05-04T08:48:28.071Z</time></trkpt><trkpt lat="46.1428372" lon="9.5472161"><ele>217.0</ele><time>2026-05-04T08:48:29.071Z</time></trkpt><trkpt lat="46.1428421" lon="9.5471211"><ele>216.66666666666669</ele><time>2026-05-04T08:48:30.07Z</time></trkpt><trkpt lat="46.1428447" lon="9.5470278"><ele>216.33333333333334</ele><time>2026-05-04T08:48:31.072Z</time></trkpt><trkpt lat="46.142848" lon="9.5469341"><ele>216.0</ele><time>2026-05-04T08:48:32.071Z</time></trkpt><trkpt lat="46.1428527" lon="9.5467457"><ele>216.0</ele><time>2026-05-04T08:48:34.072Z</time></trkpt><trkpt lat="46.1428573" lon="9.546648"><ele>216.0</ele><time>2026-05-04T08:48:35.071Z</time></trkpt><trkpt lat="46.1428666" lon="9.546557"><ele>216.0</ele><time>2026-05-04T08:48:36.071Z</time></trkpt><trkpt lat="46.142871" lon="9.546458"><ele>216.0</ele><time>2026-05-04T08:48:37.072Z</time></trkpt><trkpt lat="46.1428605" lon="9.5463543"><ele>216.0</ele><time>2026-05-04T08:48:38.072Z</time></trkpt><trkpt lat="46.1428556" lon="9.5462619"><ele>216.0</ele><time>2026-05-04T08:48:39.07Z</time></trkpt><trkpt lat="46.1428397" lon="9.5461719"><ele>216.0</ele><time>2026-05-04T08:48:40.071Z</time></trkpt><trkpt lat="46.1428255" lon="9.5460795"><ele>216.0</ele><time>2026-05-04T08:48:41.071Z</time></trkpt><trkpt lat="46.1428079" lon="9.5459817"><ele>216.0</ele><time>2026-05-04T08:48:42.071Z</time></trkpt><trkpt lat="46.1427931" lon="9.5458929"><ele>216.0</ele><time>2026-05-04T08:48:43.071Z</time></trkpt><trkpt lat="46.1427769" lon="9.5457992"><ele>216.0</ele><time>2026-05-04T08:48:44.072Z</time></trkpt><trkpt lat="46.1427416" lon="9.5456815"><ele>216.0</ele><time>2026-05-04T08:48:45.07Z</time></trkpt><trkpt lat="46.1427231" lon="9.545583"><ele>216.0</ele><time>2026-05-04T08:48:46.07Z</time></trkpt><trkpt lat="46.1427138" lon="9.5454917"><ele>216.0</ele><time>2026-05-04T08:48:47.071Z</time></trkpt><trkpt lat="46.1426959" lon="9.5453115"><ele>215.8</ele><time>2026-05-04T08:48:49.071Z</time></trkpt><trkpt lat="46.1426653" lon="9.5451427"><ele>215.60000000000002</ele><time>2026-05-04T08:48:51.072Z</time></trkpt><trkpt lat="46.1426475" lon="9.5449794"><ele>215.4</ele><time>2026-05-04T08:48:53.07Z</time></trkpt><trkpt lat="46.1426389" lon="9.5448868"><ele>215.2</ele><time>2026-05-04T08:48:54.072Z</time></trkpt><trkpt lat="46.1426137" lon="9.5447231"><ele>215.0</ele><time>2026-05-04T08:48:56.071Z</time></trkpt><trkpt lat="46.1426113" lon="9.5445515"><ele>214.83333333333334</ele><time>2026-05-04T08:48:58.071Z</time></trkpt><trkpt lat="46.142579" lon="9.5444058"><ele>214.66666666666669</ele><time>2026-05-04T08:49:00.073Z</time></trkpt><trkpt lat="46.1425431" lon="9.5442419"><ele>214.5</ele><time>2026-05-04T08:49:02.07Z</time></trkpt><trkpt lat="46.1425279" lon="9.544152"><ele>214.33333333333331</ele><time>2026-05-04T08:49:03.071Z</time></trkpt><trkpt lat="46.1425126" lon="9.5440636"><ele>214.16666666666666</ele><time>2026-05-04T08:49:04.071Z</time></trkpt><trkpt lat="46.1424996" lon="9.5439738"><ele>214.0</ele><time>2026-05-04T08:49:05.07Z</time></trkpt><trkpt lat="46.1424677" lon="9.5437958"><ele>214.39999999999998</ele><time>2026-05-04T08:49:07.071Z</time></trkpt><trkpt lat="46.1424501" lon="9.5437073"><ele>214.79999999999998</ele><time>2026-05-04T08:49:08.071Z</time></trkpt><trkpt lat="46.1424377" lon="9.5435335"><ele>215.20000000000002</ele><time>2026-05-04T08:49:10.071Z</time></trkpt><trkpt lat="46.142434" lon="9.5433554"><ele>215.60000000000002</ele><time>2026-05-04T08:49:12.072Z</time></trkpt><trkpt lat="46.1424293" lon="9.5432594"><ele>216.0</ele><time>2026-05-04T08:49:13.07Z</time></trkpt><trkpt lat="46.1424185" lon="9.5431001"><ele>216.0</ele><time>2026-05-04T08:49:15.071Z</time></trkpt><trkpt lat="46.142414" lon="9.5429631"><ele>216.00000000000003</ele><time>2026-05-04T08:49:17.071Z</time></trkpt><trkpt lat="46.1424042" lon="9.5428237"><ele>216.00000000000003</ele><time>2026-05-04T08:49:19.071Z</time></trkpt><trkpt lat="46.142438" lon="9.54271"><ele>216.0</ele><time>2026-05-04T08:49:21.072Z</time></trkpt><trkpt lat="46.142512" lon="9.5426438"><ele>216.0</ele><time>2026-05-04T08:49:23.072Z</time></trkpt><trkpt lat="46.1425968" lon="9.5426348"><ele>215.8</ele><time>2026-05-04T08:49:25.071Z</time></trkpt><trkpt lat="46.1426797" lon="9.5426298"><ele>215.60000000000002</ele><time>2026-05-04T08:49:27.072Z</time></trkpt><trkpt lat="46.1427771" lon="9.5425862"><ele>215.4</ele><time>2026-05-04T08:49:29.07Z</time></trkpt><trkpt lat="46.1428737" lon="9.5425516"><ele>215.2</ele><time>2026-05-04T08:49:31.073Z</time></trkpt><trkpt lat="46.1429705" lon="9.5425041"><ele>215.0</ele><time>2026-05-04T08:49:33.071Z</time></trkpt><trkpt lat="46.1430652" lon="9.5424646"><ele>215.00000000000003</ele><time>2026-05-04T08:49:35.071Z</time></trkpt><trkpt lat="46.1431523" lon="9.5424367"><ele>215.0</ele><time>2026-05-04T08:49:37.071Z</time></trkpt><trkpt lat="46.1432342" lon="9.5424003"><ele>215.0</ele><time>2026-05-04T08:49:39.07Z</time></trkpt><trkpt lat="46.1433091" lon="9.5423582"><ele>215.0</ele><time>2026-05-04T08:49:41.072Z</time></trkpt><trkpt lat="46.1433842" lon="9.5423337"><ele>215.00000000000003</ele><time>2026-05-04T08:49:43.072Z</time></trkpt><trkpt lat="46.1434553" lon="9.542308"><ele>215.0</ele><time>2026-05-04T08:50:10.072Z</time></trkpt><trkpt lat="46.1435236" lon="9.542326"><ele>215.33333333333334</ele><time>2026-05-04T08:50:14.071Z</time></trkpt><trkpt lat="46.143592" lon="9.5423893"><ele>215.66666666666669</ele><time>2026-05-04T08:50:17.07Z</time></trkpt><trkpt lat="46.1436464" lon="9.5424406"><ele>216.0</ele><time>2026-05-04T08:50:19.071Z</time></trkpt><trkpt lat="46.1437093" lon="9.5424996"><ele>216.33333333333331</ele><time>2026-05-04T08:50:21.071Z</time></trkpt><trkpt lat="46.1437798" lon="9.5425616"><ele>216.66666666666666</ele><time>2026-05-04T08:50:23.072Z</time></trkpt><trkpt lat="46.1438509" lon="9.5426253"><ele>217.0</ele><time>2026-05-04T08:50:25.071Z</time></trkpt><trkpt lat="46.1439326" lon="9.5426128"><ele>217.0</ele><time>2026-05-04T08:50:27.071Z</time></trkpt><trkpt lat="46.1439769" lon="9.5424843"><ele>217.0</ele><time>2026-05-04T08:50:29.07Z</time></trkpt><trkpt lat="46.1439788" lon="9.5423399"><ele>217.0</ele><time>2026-05-04T08:50:31.071Z</time></trkpt><trkpt lat="46.1439825" lon="9.5421873"><ele>217.0</ele><time>2026-05-04T08:50:33.071Z</time></trkpt><trkpt lat="46.1439938" lon="9.5420363"><ele>217.0</ele><time>2026-05-04T08:50:35.07Z</time></trkpt><trkpt lat="46.1440175" lon="9.5418798"><ele>216.8</ele><time>2026-05-04T08:50:37.071Z</time></trkpt><trkpt lat="46.1440365" lon="9.5417329"><ele>216.6</ele><time>2026-05-04T08:50:39.071Z</time></trkpt><trkpt lat="46.1440639" lon="9.541579"><ele>216.40000000000003</ele><time>2026-05-04T08:50:41.071Z</time></trkpt><trkpt lat="46.1440878" lon="9.5414105"><ele>216.20000000000002</ele><time>2026-05-04T08:50:43.071Z</time></trkpt><trkpt lat="46.1440959" lon="9.5412625"><ele>216.0</ele><time>2026-05-04T08:50:45.071Z</time></trkpt><trkpt lat="46.1441184" lon="9.5411042"><ele>216.0</ele><time>2026-05-04T08:50:47.073Z</time></trkpt><trkpt lat="46.1441362" lon="9.5410137"><ele>216.00000000000003</ele><time>2026-05-04T08:50:48.071Z</time></trkpt><trkpt lat="46.1441593" lon="9.5408562"><ele>216.00000000000003</ele><time>2026-05-04T08:50:50.071Z</time></trkpt><trkpt lat="46.1441889" lon="9.5406973"><ele>216.0</ele><time>2026-05-04T08:50:52.072Z</time></trkpt><trkpt lat="46.1442117" lon="9.5405346"><ele>216.0</ele><time>2026-05-04T08:50:54.072Z</time></trkpt><trkpt lat="46.1442325" lon="9.5403842"><ele>215.75</ele><time>2026-05-04T08:50:56.072Z</time></trkpt><trkpt lat="46.1442605" lon="9.540219"><ele>215.5</ele><time>2026-05-04T08:50:58.072Z</time></trkpt><trkpt lat="46.1442867" lon="9.54005"><ele>215.25</ele><time>2026-05-04T08:51:00.07Z</time></trkpt><trkpt lat="46.1443063" lon="9.539889"><ele>215.0</ele><time>2026-05-04T08:51:02.072Z</time></trkpt><trkpt lat="46.1443316" lon="9.5397349"><ele>215.0</ele><time>2026-05-04T08:51:04.071Z</time></trkpt><trkpt lat="46.1443391" lon="9.5395756"><ele>215.0</ele><time>2026-05-04T08:51:06.072Z</time></trkpt><trkpt lat="46.144368" lon="9.5394223"><ele>215.0</ele><time>2026-05-04T08:51:08.072Z</time></trkpt><trkpt lat="46.1443932" lon="9.539264"><ele>215.0</ele><time>2026-05-04T08:51:10.073Z</time></trkpt><trkpt lat="46.1444164" lon="9.5391061"><ele>215.0</ele><time>2026-05-04T08:51:12.071Z</time></trkpt><trkpt lat="46.1444429" lon="9.5389412"><ele>214.75</ele><time>2026-05-04T08:51:14.072Z</time></trkpt><trkpt lat="46.144471" lon="9.5387788"><ele>214.5</ele><time>2026-05-04T08:51:16.073Z</time></trkpt><trkpt lat="46.1445032" lon="9.538627"><ele>214.25</ele><time>2026-05-04T08:51:18.072Z</time></trkpt><trkpt lat="46.1445285" lon="9.538462"><ele>214.0</ele><time>2026-05-04T08:51:20.072Z</time></trkpt><trkpt lat="46.1445525" lon="9.5382926"><ele>214.0</ele><time>2026-05-04T08:51:22.07Z</time></trkpt><trkpt lat="46.1445745" lon="9.5381384"><ele>214.0</ele><time>2026-05-04T08:51:24.072Z</time></trkpt><trkpt lat="46.1446047" lon="9.5379733"><ele>214.0</ele><time>2026-05-04T08:51:26.072Z</time></trkpt><trkpt lat="46.1446319" lon="9.5378159"><ele>214.0</ele><time>2026-05-04T08:51:28.072Z</time></trkpt><trkpt lat="46.1446536" lon="9.5376533"><ele>214.0</ele><time>2026-05-04T08:51:30.073Z</time></trkpt><trkpt lat="46.1446858" lon="9.5374898"><ele>213.99999999999997</ele><time>2026-05-04T08:51:32.072Z</time></trkpt><trkpt lat="46.1447044" lon="9.5374025"><ele>213.99999999999997</ele><time>2026-05-04T08:51:33.073Z</time></trkpt><trkpt lat="46.1447288" lon="9.5372295"><ele>214.0</ele><time>2026-05-04T08:51:35.072Z</time></trkpt><trkpt lat="46.1447572" lon="9.5370642"><ele>214.0</ele><time>2026-05-04T08:51:37.072Z</time></trkpt><trkpt lat="46.1447855" lon="9.5368868"><ele>214.0</ele><time>2026-05-04T08:51:39.071Z</time></trkpt><trkpt lat="46.1448086" lon="9.5367221"><ele>213.99999999999997</ele><time>2026-05-04T08:51:41.073Z</time></trkpt><trkpt lat="46.1448307" lon="9.5365604"><ele>213.99999999999997</ele><time>2026-05-04T08:51:43.07Z</time></trkpt><trkpt lat="46.1448554" lon="9.5363841"><ele>214.0</ele><time>2026-05-04T08:51:45.072Z</time></trkpt><trkpt lat="46.1448728" lon="9.5362942"><ele>214.0</ele><time>2026-05-04T08:51:46.071Z</time></trkpt><trkpt lat="46.1449035" lon="9.5361217"><ele>214.5</ele><time>2026-05-04T08:51:48.072Z</time></trkpt><trkpt lat="46.1449311" lon="9.5359523"><ele>215.0</ele><time>2026-05-04T08:51:50.07Z</time></trkpt><trkpt lat="46.1449541" lon="9.5357873"><ele>215.5</ele><time>2026-05-04T08:51:52.072Z</time></trkpt><trkpt lat="46.1449865" lon="9.5356287"><ele>216.0</ele><time>2026-05-04T08:51:54.073Z</time></trkpt><trkpt lat="46.1450096" lon="9.5354613"><ele>215.60000000000002</ele><time>2026-05-04T08:51:56.072Z</time></trkpt><trkpt lat="46.145022" lon="9.5352991"><ele>215.20000000000002</ele><time>2026-05-04T08:51:58.072Z</time></trkpt><trkpt lat="46.1450456" lon="9.53514"><ele>214.79999999999998</ele><time>2026-05-04T08:52:00.072Z</time></trkpt><trkpt lat="46.1450717" lon="9.5349827"><ele>214.39999999999998</ele><time>2026-05-04T08:52:02.072Z</time></trkpt><trkpt lat="46.1450911" lon="9.5348396"><ele>214.0</ele><time>2026-05-04T08:52:04.071Z</time></trkpt><trkpt lat="46.1450997" lon="9.5347084"><ele>214.0</ele><time>2026-05-04T08:52:06.072Z</time></trkpt><trkpt lat="46.1451186" lon="9.5345701"><ele>213.99999999999997</ele><time>2026-05-04T08:52:08.072Z</time></trkpt><trkpt lat="46.1451362" lon="9.5344241"><ele>213.99999999999997</ele><time>2026-05-04T08:52:10.072Z</time></trkpt><trkpt lat="46.1451607" lon="9.5342774"><ele>214.0</ele><time>2026-05-04T08:52:12.07Z</time></trkpt><trkpt lat="46.1451781" lon="9.5341494"><ele>214.0</ele><time>2026-05-04T08:52:14.071Z</time></trkpt><trkpt lat="46.1451912" lon="9.5340177"><ele>213.99999999999997</ele><time>2026-05-04T08:52:16.071Z</time></trkpt><trkpt lat="46.1452179" lon="9.5338942"><ele>214.0</ele><time>2026-05-04T08:52:18.071Z</time></trkpt><trkpt lat="46.1452378" lon="9.5337679"><ele>214.0</ele><time>2026-05-04T08:52:20.072Z</time></trkpt><trkpt lat="46.1452557" lon="9.5336395"><ele>214.0</ele><time>2026-05-04T08:52:22.072Z</time></trkpt><trkpt lat="46.145274" lon="9.533525"><ele>213.99999999999997</ele><time>2026-05-04T08:52:24.072Z</time></trkpt><trkpt lat="46.1452886" lon="9.5333998"><ele>214.0</ele><time>2026-05-04T08:52:26.07Z</time></trkpt><trkpt lat="46.1453033" lon="9.5332715"><ele>214.2</ele><time>2026-05-04T08:52:28.073Z</time></trkpt><trkpt lat="46.145318" lon="9.5331456"><ele>214.39999999999998</ele><time>2026-05-04T08:52:30.072Z</time></trkpt><trkpt lat="46.1453266" lon="9.533015"><ele>214.6</ele><time>2026-05-04T08:52:32.07Z</time></trkpt><trkpt lat="46.145343" lon="9.5328874"><ele>214.8</ele><time>2026-05-04T08:52:34.073Z</time></trkpt><trkpt lat="46.1453611" lon="9.5327622"><ele>215.0</ele><time>2026-05-04T08:52:36.072Z</time></trkpt><trkpt lat="46.1453933" lon="9.5326076"><ele>215.00000000000003</ele><time>2026-05-04T08:52:39.072Z</time></trkpt><trkpt lat="46.145415" lon="9.5325109"><ele>215.0</ele><time>2026-05-04T08:52:40.116Z</time></trkpt><trkpt lat="46.1454256" lon="9.5324159"><ele>215.0</ele><time>2026-05-04T08:52:42.144Z</time></trkpt><trkpt lat="46.1454374" lon="9.5323"><ele>215.0</ele><time>2026-05-04T08:52:44.071Z</time></trkpt><trkpt lat="46.1454543" lon="9.5321813"><ele>215.00000000000003</ele><time>2026-05-04T08:52:46.073Z</time></trkpt><trkpt lat="46.1454733" lon="9.5320695"><ele>215.0</ele><time>2026-05-04T08:52:48.073Z</time></trkpt><trkpt lat="46.1454922" lon="9.5319514"><ele>215.33333333333334</ele><time>2026-05-04T08:52:50.19Z</time></trkpt><trkpt lat="46.14551" lon="9.5318153"><ele>215.66666666666669</ele><time>2026-05-04T08:52:53.073Z</time></trkpt><trkpt lat="46.1455229" lon="9.531715"><ele>216.0</ele><time>2026-05-04T08:52:55.072Z</time></trkpt><trkpt lat="46.1455326" lon="9.5315966"><ele>216.33333333333331</ele><time>2026-05-04T08:52:57.198Z</time></trkpt><trkpt lat="46.1455546" lon="9.531436"><ele>216.66666666666666</ele><time>2026-05-04T08:53:00.071Z</time></trkpt><trkpt lat="46.1455774" lon="9.5313264"><ele>217.0</ele><time>2026-05-04T08:53:02.146Z</time></trkpt><trkpt lat="46.145598" lon="9.5312252"><ele>217.33333333333331</ele><time>2026-05-04T08:53:04.072Z</time></trkpt><trkpt lat="46.1456127" lon="9.5311064"><ele>217.66666666666666</ele><time>2026-05-04T08:53:06.072Z</time></trkpt><trkpt lat="46.1456219" lon="9.530987"><ele>218.0</ele><time>2026-05-04T08:53:08.072Z</time></trkpt><trkpt lat="46.145634" lon="9.5308662"><ele>218.33333333333331</ele><time>2026-05-04T08:53:10.073Z</time></trkpt><trkpt lat="46.1456479" lon="9.5307431"><ele>218.66666666666666</ele><time>2026-05-04T08:53:12.147Z</time></trkpt><trkpt lat="46.1456715" lon="9.5306316"><ele>219.0</ele><time>2026-05-04T08:53:14.072Z</time></trkpt><trkpt lat="46.1456891" lon="9.530518"><ele>219.0</ele><time>2026-05-04T08:53:16.071Z</time></trkpt><trkpt lat="46.1457048" lon="9.5304138"><ele>219.0</ele><time>2026-05-04T08:53:18.071Z</time></trkpt><trkpt lat="46.1457296" lon="9.5303142"><ele>219.0</ele><time>2026-05-04T08:53:20.071Z</time></trkpt><trkpt lat="46.145747" lon="9.5301957"><ele>219.0</ele><time>2026-05-04T08:53:22.142Z</time></trkpt><trkpt lat="46.1457588" lon="9.5300868"><ele>219.0</ele><time>2026-05-04T08:53:24.077Z</time></trkpt><trkpt lat="46.145781" lon="9.5299703"><ele>219.0</ele><time>2026-05-04T08:53:26.073Z</time></trkpt><trkpt lat="46.145796" lon="9.5298572"><ele>219.79999999999998</ele><time>2026-05-04T08:53:28.071Z</time></trkpt><trkpt lat="46.1458141" lon="9.5297296"><ele>220.59999999999997</ele><time>2026-05-04T08:53:30.072Z</time></trkpt><trkpt lat="46.1458293" lon="9.5295977"><ele>221.4</ele><time>2026-05-04T08:53:32.072Z</time></trkpt><trkpt lat="46.1458429" lon="9.5294694"><ele>222.2</ele><time>2026-05-04T08:53:34.072Z</time></trkpt><trkpt lat="46.1458595" lon="9.5293318"><ele>223.0</ele><time>2026-05-04T08:53:36.072Z</time></trkpt><trkpt lat="46.1458793" lon="9.529192"><ele>223.0</ele><time>2026-05-04T08:53:38.071Z</time></trkpt><trkpt lat="46.1459026" lon="9.5290573"><ele>223.0</ele><time>2026-05-04T08:53:40.073Z</time></trkpt><trkpt lat="46.1459173" lon="9.5289213"><ele>223.0</ele><time>2026-05-04T08:53:42.071Z</time></trkpt><trkpt lat="46.1459475" lon="9.5287801"><ele>223.0</ele><time>2026-05-04T08:53:44.071Z</time></trkpt><trkpt lat="46.1459896" lon="9.5286341"><ele>223.0</ele><time>2026-05-04T08:53:46.071Z</time></trkpt><trkpt lat="46.1460476" lon="9.5284828"><ele>223.2</ele><time>2026-05-04T08:53:48.072Z</time></trkpt><trkpt lat="46.146116" lon="9.5283314"><ele>223.4</ele><time>2026-05-04T08:53:50.071Z</time></trkpt><trkpt lat="46.1461823" lon="9.5281754"><ele>223.59999999999997</ele><time>2026-05-04T08:53:52.072Z</time></trkpt><trkpt lat="46.1462241" lon="9.5280883"><ele>223.79999999999998</ele><time>2026-05-04T08:53:53.072Z</time></trkpt><trkpt lat="46.1462636" lon="9.528012"><ele>224.0</ele><time>2026-05-04T08:53:54.072Z</time></trkpt><trkpt lat="46.1463063" lon="9.5279262"><ele>223.57142857142858</ele><time>2026-05-04T08:53:55.07Z</time></trkpt><trkpt lat="46.1463459" lon="9.5278403"><ele>223.14285714285714</ele><time>2026-05-04T08:53:56.072Z</time></trkpt><trkpt lat="46.1463797" lon="9.5277589"><ele>222.71428571428572</ele><time>2026-05-04T08:53:57.072Z</time></trkpt><trkpt lat="46.1464206" lon="9.527672"><ele>222.28571428571428</ele><time>2026-05-04T08:53:58.071Z</time></trkpt><trkpt lat="46.146461" lon="9.5275819"><ele>221.85714285714286</ele><time>2026-05-04T08:53:59.072Z</time></trkpt><trkpt lat="46.1465004" lon="9.5274859"><ele>221.42857142857144</ele><time>2026-05-04T08:54:00.072Z</time></trkpt><trkpt lat="46.1465364" lon="9.5273942"><ele>221.0</ele><time>2026-05-04T08:54:01.072Z</time></trkpt><trkpt lat="46.1465702" lon="9.5273163"><ele>221.2857142857143</ele><time>2026-05-04T08:54:02.071Z</time></trkpt><trkpt lat="46.1466041" lon="9.5272263"><ele>221.57142857142858</ele><time>2026-05-04T08:54:03.071Z</time></trkpt><trkpt lat="46.1466392" lon="9.5271302"><ele>221.85714285714286</ele><time>2026-05-04T08:54:04.072Z</time></trkpt><trkpt lat="46.1466669" lon="9.5270412"><ele>222.14285714285717</ele><time>2026-05-04T08:54:05.071Z</time></trkpt><trkpt lat="46.1466955" lon="9.5269545"><ele>222.42857142857142</ele><time>2026-05-04T08:54:06.071Z</time></trkpt><trkpt lat="46.1467221" lon="9.5268717"><ele>222.71428571428572</ele><time>2026-05-04T08:54:07.072Z</time></trkpt><trkpt lat="46.1467494" lon="9.5267897"><ele>223.0</ele><time>2026-05-04T08:54:08.072Z</time></trkpt><trkpt lat="46.1467781" lon="9.5267083"><ele>223.0</ele><time>2026-05-04T08:54:09.071Z</time></trkpt><trkpt lat="46.146809" lon="9.5266236"><ele>223.0</ele><time>2026-05-04T08:54:10.072Z</time></trkpt><trkpt lat="46.146842" lon="9.5265398"><ele>223.0</ele><time>2026-05-04T08:54:11.073Z</time></trkpt><trkpt lat="46.1468769" lon="9.5264586"><ele>223.0</ele><time>2026-05-04T08:54:12.071Z</time></trkpt><trkpt lat="46.1469134" lon="9.5263823"><ele>223.0</ele><time>2026-05-04T08:54:13.072Z</time></trkpt><trkpt lat="46.1469487" lon="9.5263055"><ele>223.0</ele><time>2026-05-04T08:54:14.071Z</time></trkpt><trkpt lat="46.1469843" lon="9.5262301"><ele>223.0</ele><time>2026-05-04T08:54:15.072Z</time></trkpt><trkpt lat="46.1470216" lon="9.5261544"><ele>222.33333333333331</ele><time>2026-05-04T08:54:16.072Z</time></trkpt><trkpt lat="46.1470594" lon="9.5260799"><ele>221.66666666666666</ele><time>2026-05-04T08:54:17.071Z</time></trkpt><trkpt lat="46.1470973" lon="9.5260047"><ele>221.0</ele><time>2026-05-04T08:54:18.073Z</time></trkpt><trkpt lat="46.1471364" lon="9.5259295"><ele>220.33333333333331</ele><time>2026-05-04T08:54:19.072Z</time></trkpt><trkpt lat="46.1472059" lon="9.5257931"><ele>219.66666666666666</ele><time>2026-05-04T08:54:21.072Z</time></trkpt><trkpt lat="46.1472759" lon="9.5256601"><ele>219.0</ele><time>2026-05-04T08:54:23.073Z</time></trkpt><trkpt lat="46.1473407" lon="9.5255334"><ele>220.0</ele><time>2026-05-04T08:54:25.072Z</time></trkpt><trkpt lat="46.1474067" lon="9.5254093"><ele>220.99999999999997</ele><time>2026-05-04T08:54:27.072Z</time></trkpt><trkpt lat="46.147474" lon="9.5252793"><ele>221.99999999999997</ele><time>2026-05-04T08:54:29.074Z</time></trkpt><trkpt lat="46.1475366" lon="9.5251386"><ele>223.0</ele><time>2026-05-04T08:54:31.073Z</time></trkpt><trkpt lat="46.147607" lon="9.5250154"><ele>224.0</ele><time>2026-05-04T08:54:33.073Z</time></trkpt><trkpt lat="46.147676" lon="9.5248921"><ele>224.0</ele><time>2026-05-04T08:54:35.072Z</time></trkpt><trkpt lat="46.147748" lon="9.5247614"><ele>224.0</ele><time>2026-05-04T08:54:37.071Z</time></trkpt><trkpt lat="46.1478161" lon="9.5246214"><ele>224.0</ele><time>2026-05-04T08:54:39.072Z</time></trkpt><trkpt lat="46.1478991" lon="9.5244937"><ele>224.0</ele><time>2026-05-04T08:54:41.072Z</time></trkpt><trkpt lat="46.1479638" lon="9.5243493"><ele>223.83333333333334</ele><time>2026-05-04T08:54:43.072Z</time></trkpt><trkpt lat="46.1480148" lon="9.5241907"><ele>223.66666666666669</ele><time>2026-05-04T08:54:45.071Z</time></trkpt><trkpt lat="46.1480532" lon="9.5241156"><ele>223.5</ele><time>2026-05-04T08:54:46.071Z</time></trkpt><trkpt lat="46.1481327" lon="9.5239692"><ele>223.33333333333331</ele><time>2026-05-04T08:54:48.073Z</time></trkpt><trkpt lat="46.1481669" lon="9.523888"><ele>223.16666666666666</ele><time>2026-05-04T08:54:49.072Z</time></trkpt><trkpt lat="46.1482017" lon="9.523804"><ele>223.0</ele><time>2026-05-04T08:54:50.073Z</time></trkpt><trkpt lat="46.1482376" lon="9.5237251"><ele>222.83333333333331</ele><time>2026-05-04T08:54:51.072Z</time></trkpt><trkpt lat="46.1482766" lon="9.5236383"><ele>222.66666666666666</ele><time>2026-05-04T08:54:52.072Z</time></trkpt><trkpt lat="46.148316" lon="9.5235572"><ele>222.5</ele><time>2026-05-04T08:54:53.072Z</time></trkpt><trkpt lat="46.1483567" lon="9.5234762"><ele>222.33333333333331</ele><time>2026-05-04T08:54:54.073Z</time></trkpt><trkpt lat="46.1484262" lon="9.5233234"><ele>222.16666666666666</ele><time>2026-05-04T08:54:56.073Z</time></trkpt><trkpt lat="46.1484601" lon="9.52323"><ele>222.0</ele><time>2026-05-04T08:54:57.073Z</time></trkpt><trkpt lat="46.1484904" lon="9.5231392"><ele>222.0</ele><time>2026-05-04T08:54:58.073Z</time></trkpt><trkpt lat="46.1485259" lon="9.5230498"><ele>222.0</ele><time>2026-05-04T08:54:59.073Z</time></trkpt><trkpt lat="46.1485585" lon="9.522964"><ele>222.0</ele><time>2026-05-04T08:55:00.073Z</time></trkpt><trkpt lat="46.1485931" lon="9.5228725"><ele>222.0</ele><time>2026-05-04T08:55:01.072Z</time></trkpt><trkpt lat="46.1486228" lon="9.5227843"><ele>222.0</ele><time>2026-05-04T08:55:02.072Z</time></trkpt><trkpt lat="46.1486559" lon="9.5226939"><ele>222.0</ele><time>2026-05-04T08:55:03.073Z</time></trkpt><trkpt lat="46.1486883" lon="9.5225982"><ele>222.0</ele><time>2026-05-04T08:55:04.072Z</time></trkpt><trkpt lat="46.1487143" lon="9.5225013"><ele>221.5</ele><time>2026-05-04T08:55:05.073Z</time></trkpt><trkpt lat="46.1487464" lon="9.5224096"><ele>221.0</ele><time>2026-05-04T08:55:06.071Z</time></trkpt><trkpt lat="46.1487782" lon="9.522306"><ele>220.5</ele><time>2026-05-04T08:55:07.072Z</time></trkpt><trkpt lat="46.1488138" lon="9.5222057"><ele>220.0</ele><time>2026-05-04T08:55:08.071Z</time></trkpt><trkpt lat="46.1488544" lon="9.5221051"><ele>219.5</ele><time>2026-05-04T08:55:09.073Z</time></trkpt><trkpt lat="46.1488865" lon="9.5219895"><ele>219.0</ele><time>2026-05-04T08:55:10.072Z</time></trkpt><trkpt lat="46.1489202" lon="9.5218892"><ele>218.85714285714286</ele><time>2026-05-04T08:55:11.072Z</time></trkpt><trkpt lat="46.1489574" lon="9.5217962"><ele>218.7142857142857</ele><time>2026-05-04T08:55:12.072Z</time></trkpt><trkpt lat="46.1489928" lon="9.5216915"><ele>218.57142857142856</ele><time>2026-05-04T08:55:13.072Z</time></trkpt><trkpt lat="46.1490259" lon="9.5215965"><ele>218.42857142857144</ele><time>2026-05-04T08:55:14.072Z</time></trkpt><trkpt lat="46.1490593" lon="9.5215054"><ele>218.28571428571428</ele><time>2026-05-04T08:55:15.074Z</time></trkpt><trkpt lat="46.1490921" lon="9.5214188"><ele>218.14285714285714</ele><time>2026-05-04T08:55:16.072Z</time></trkpt><trkpt lat="46.1491233" lon="9.5213316"><ele>218.0</ele><time>2026-05-04T08:55:17.073Z</time></trkpt><trkpt lat="46.1491564" lon="9.5212429"><ele>218.14285714285714</ele><time>2026-05-04T08:55:18.072Z</time></trkpt><trkpt lat="46.1491924" lon="9.5211576"><ele>218.28571428571428</ele><time>2026-05-04T08:55:19.072Z</time></trkpt><trkpt lat="46.149225" lon="9.5210698"><ele>218.42857142857144</ele><time>2026-05-04T08:55:20.072Z</time></trkpt><trkpt lat="46.149258" lon="9.5209752"><ele>218.57142857142856</ele><time>2026-05-04T08:55:21.073Z</time></trkpt><trkpt lat="46.1492928" lon="9.5208818"><ele>218.7142857142857</ele><time>2026-05-04T08:55:22.073Z</time></trkpt><trkpt lat="46.1493277" lon="9.5207844"><ele>218.85714285714286</ele><time>2026-05-04T08:55:23.072Z</time></trkpt><trkpt lat="46.1493577" lon="9.5206873"><ele>219.0</ele><time>2026-05-04T08:55:24.072Z</time></trkpt><trkpt lat="46.149391" lon="9.5205855"><ele>219.0</ele><time>2026-05-04T08:55:25.073Z</time></trkpt><trkpt lat="46.1494232" lon="9.5204832"><ele>219.0</ele><time>2026-05-04T08:55:26.072Z</time></trkpt><trkpt lat="46.1494575" lon="9.5203893"><ele>219.0</ele><time>2026-05-04T08:55:27.073Z</time></trkpt><trkpt lat="46.1494896" lon="9.520291"><ele>219.0</ele><time>2026-05-04T08:55:28.073Z</time></trkpt><trkpt lat="46.1495241" lon="9.5201945"><ele>219.0</ele><time>2026-05-04T08:55:29.071Z</time></trkpt><trkpt lat="46.1495594" lon="9.5200981"><ele>219.0</ele><time>2026-05-04T08:55:30.072Z</time></trkpt><trkpt lat="46.1495904" lon="9.5200029"><ele>218.2857142857143</ele><time>2026-05-04T08:55:31.072Z</time></trkpt><trkpt lat="46.1496262" lon="9.5199049"><ele>217.57142857142856</ele><time>2026-05-04T08:55:32.072Z</time></trkpt><trkpt lat="46.1496565" lon="9.5198118"><ele>216.85714285714286</ele><time>2026-05-04T08:55:33.074Z</time></trkpt><trkpt lat="46.1496889" lon="9.5197149"><ele>216.14285714285717</ele><time>2026-05-04T08:55:34.072Z</time></trkpt><trkpt lat="46.1497207" lon="9.5196199"><ele>215.42857142857144</ele><time>2026-05-04T08:55:35.071Z</time></trkpt><trkpt lat="46.1497533" lon="9.5195255"><ele>214.71428571428572</ele><time>2026-05-04T08:55:36.072Z</time></trkpt><trkpt lat="46.1497878" lon="9.5194296"><ele>214.0</ele><time>2026-05-04T08:55:37.073Z</time></trkpt><trkpt lat="46.1498235" lon="9.5193391"><ele>214.2857142857143</ele><time>2026-05-04T08:55:38.072Z</time></trkpt><trkpt lat="46.1498583" lon="9.5192439"><ele>214.57142857142858</ele><time>2026-05-04T08:55:39.073Z</time></trkpt><trkpt lat="46.1498903" lon="9.5191504"><ele>214.85714285714286</ele><time>2026-05-04T08:55:40.073Z</time></trkpt><trkpt lat="46.1499208" lon="9.5190549"><ele>215.14285714285717</ele><time>2026-05-04T08:55:41.072Z</time></trkpt><trkpt lat="46.1499528" lon="9.5189614"><ele>215.42857142857142</ele><time>2026-05-04T08:55:42.072Z</time></trkpt><trkpt lat="46.1499927" lon="9.5188779"><ele>215.71428571428572</ele><time>2026-05-04T08:55:43.072Z</time></trkpt><trkpt lat="46.1500345" lon="9.5187991"><ele>216.0</ele><time>2026-05-04T08:55:44.071Z</time></trkpt><trkpt lat="46.1500736" lon="9.5187217"><ele>215.42857142857142</ele><time>2026-05-04T08:55:45.072Z</time></trkpt><trkpt lat="46.1500949" lon="9.5186282"><ele>214.85714285714283</ele><time>2026-05-04T08:55:46.072Z</time></trkpt><trkpt lat="46.1500965" lon="9.5185372"><ele>214.28571428571428</ele><time>2026-05-04T08:55:47.072Z</time></trkpt><trkpt lat="46.1501106" lon="9.5184042"><ele>213.71428571428572</ele><time>2026-05-04T08:55:49.071Z</time></trkpt><trkpt lat="46.1500991" lon="9.5183135"><ele>213.14285714285714</ele><time>2026-05-04T08:55:51.074Z</time></trkpt><trkpt lat="46.1500327" lon="9.5182736"><ele>212.57142857142858</ele><time>2026-05-04T08:55:53.074Z</time></trkpt><trkpt lat="46.1499677" lon="9.5183371"><ele>212.0</ele><time>2026-05-04T08:55:56.072Z</time></trkpt><trkpt lat="46.1498983" lon="9.5183878"><ele>212.0</ele><time>2026-05-04T08:56:00.071Z</time></trkpt><trkpt lat="46.149862" lon="9.5182998"><ele>212.0</ele><time>2026-05-04T09:03:49.173Z</time></trkpt><trkpt lat="46.149842" lon="9.5183875"><ele>212.0</ele><time>2026-05-04T09:07:00.075Z</time></trkpt><trkpt lat="46.1498946" lon="9.5184477"><ele>212.0</ele><time>2026-05-04T09:10:42.137Z</time></trkpt><trkpt lat="46.1499663" lon="9.5183901"><ele>212.0</ele><time>2026-05-04T09:10:55.075Z</time></trkpt><trkpt lat="46.1499966" lon="9.5183048"><ele>212.0</ele><time>2026-05-04T09:10:58.124Z</time></trkpt><trkpt lat="46.1500527" lon="9.5182341"><ele>212.0</ele><time>2026-05-04T09:11:01.073Z</time></trkpt><trkpt lat="46.1501238" lon="9.5182662"><ele>212.0</ele><time>2026-05-04T09:11:02.074Z</time></trkpt><trkpt lat="46.1501817" lon="9.5182006"><ele>212.0</ele><time>2026-05-04T09:11:04.074Z</time></trkpt><trkpt lat="46.1502243" lon="9.5180913"><ele>212.0</ele><time>2026-05-04T09:11:06.074Z</time></trkpt><trkpt lat="46.150262" lon="9.5179549"><ele>212.0</ele><time>2026-05-04T09:11:08.073Z</time></trkpt><trkpt lat="46.1503094" lon="9.5178069"><ele>212.0</ele><time>2026-05-04T09:11:10.073Z</time></trkpt><trkpt lat="46.1503626" lon="9.517656"><ele>211.75</ele><time>2026-05-04T09:11:12.073Z</time></trkpt><trkpt lat="46.1504113" lon="9.5175092"><ele>211.5</ele><time>2026-05-04T09:11:14.074Z</time></trkpt><trkpt lat="46.150468" lon="9.5173554"><ele>211.25</ele><time>2026-05-04T09:11:16.073Z</time></trkpt><trkpt lat="46.150523" lon="9.5171941"><ele>211.0</ele><time>2026-05-04T09:11:18.073Z</time></trkpt><trkpt lat="46.1505769" lon="9.5170423"><ele>210.99999999999997</ele><time>2026-05-04T09:11:20.075Z</time></trkpt><trkpt lat="46.1506039" lon="9.5169597"><ele>211.0</ele><time>2026-05-04T09:11:21.074Z</time></trkpt><trkpt lat="46.1506382" lon="9.5168815"><ele>211.0</ele><time>2026-05-04T09:11:22.074Z</time></trkpt><trkpt lat="46.1506937" lon="9.5167103"><ele>211.0</ele><time>2026-05-04T09:11:24.075Z</time></trkpt><trkpt lat="46.15074" lon="9.5165455"><ele>210.99999999999997</ele><time>2026-05-04T09:11:26.073Z</time></trkpt><trkpt lat="46.1507656" lon="9.5164583"><ele>211.0</ele><time>2026-05-04T09:11:27.076Z</time></trkpt><trkpt lat="46.1508026" lon="9.5162913"><ele>211.0</ele><time>2026-05-04T09:11:29.074Z</time></trkpt><trkpt lat="46.150819" lon="9.5162017"><ele>211.0</ele><time>2026-05-04T09:11:30.074Z</time></trkpt><trkpt lat="46.1508364" lon="9.5161093"><ele>211.0</ele><time>2026-05-04T09:11:31.073Z</time></trkpt><trkpt lat="46.1508528" lon="9.5160107"><ele>211.0</ele><time>2026-05-04T09:11:32.075Z</time></trkpt><trkpt lat="46.1508577" lon="9.5159159"><ele>211.0</ele><time>2026-05-04T09:11:33.075Z</time></trkpt><trkpt lat="46.1508742" lon="9.5158246"><ele>211.0</ele><time>2026-05-04T09:11:34.073Z</time></trkpt><trkpt lat="46.1508886" lon="9.5157265"><ele>211.0</ele><time>2026-05-04T09:11:35.075Z</time></trkpt><trkpt lat="46.1508986" lon="9.5156357"><ele>211.0</ele><time>2026-05-04T09:11:36.074Z</time></trkpt><trkpt lat="46.1509074" lon="9.515538"><ele>211.0</ele><time>2026-05-04T09:11:37.075Z</time></trkpt><trkpt lat="46.1509191" lon="9.5154371"><ele>211.0</ele><time>2026-05-04T09:11:38.075Z</time></trkpt><trkpt lat="46.1509293" lon="9.515339"><ele>211.0</ele><time>2026-05-04T09:11:39.075Z</time></trkpt><trkpt lat="46.1509368" lon="9.5152417"><ele>211.0</ele><time>2026-05-04T09:11:40.074Z</time></trkpt><trkpt lat="46.1509417" lon="9.5151411"><ele>211.0</ele><time>2026-05-04T09:11:41.074Z</time></trkpt><trkpt lat="46.1509487" lon="9.5150386"><ele>211.0</ele><time>2026-05-04T09:11:42.074Z</time></trkpt><trkpt lat="46.1509539" lon="9.5149388"><ele>210.85714285714286</ele><time>2026-05-04T09:11:43.074Z</time></trkpt><trkpt lat="46.1509549" lon="9.5148408"><ele>210.71428571428572</ele><time>2026-05-04T09:11:44.074Z</time></trkpt><trkpt lat="46.1509584" lon="9.5147405"><ele>210.57142857142856</ele><time>2026-05-04T09:11:45.073Z</time></trkpt><trkpt lat="46.150961" lon="9.5146347"><ele>210.42857142857144</ele><time>2026-05-04T09:11:46.074Z</time></trkpt><trkpt lat="46.1509619" lon="9.5145329"><ele>210.28571428571428</ele><time>2026-05-04T09:11:47.074Z</time></trkpt><trkpt lat="46.1509674" lon="9.514433"><ele>210.14285714285714</ele><time>2026-05-04T09:11:48.074Z</time></trkpt><trkpt lat="46.1509639" lon="9.5143377"><ele>210.0</ele><time>2026-05-04T09:11:49.074Z</time></trkpt><trkpt lat="46.1509613" lon="9.5142415"><ele>210.14285714285714</ele><time>2026-05-04T09:11:50.074Z</time></trkpt><trkpt lat="46.1509619" lon="9.5141483"><ele>210.28571428571428</ele><time>2026-05-04T09:11:51.073Z</time></trkpt><trkpt lat="46.1509663" lon="9.5140538"><ele>210.42857142857144</ele><time>2026-05-04T09:11:52.074Z</time></trkpt><trkpt lat="46.1509688" lon="9.5139586"><ele>210.57142857142856</ele><time>2026-05-04T09:11:53.073Z</time></trkpt><trkpt lat="46.1509711" lon="9.5138675"><ele>210.71428571428572</ele><time>2026-05-04T09:11:54.075Z</time></trkpt><trkpt lat="46.1509678" lon="9.5137738"><ele>210.85714285714286</ele><time>2026-05-04T09:11:55.076Z</time></trkpt><trkpt lat="46.1509699" lon="9.513679"><ele>211.0</ele><time>2026-05-04T09:11:56.074Z</time></trkpt><trkpt lat="46.150971" lon="9.5135001"><ele>210.99999999999997</ele><time>2026-05-04T09:11:58.074Z</time></trkpt><trkpt lat="46.1509758" lon="9.5134044"><ele>211.0</ele><time>2026-05-04T09:11:59.073Z</time></trkpt><trkpt lat="46.1509795" lon="9.5133026"><ele>211.0</ele><time>2026-05-04T09:12:00.073Z</time></trkpt><trkpt lat="46.1509814" lon="9.5132101"><ele>211.0</ele><time>2026-05-04T09:12:01.075Z</time></trkpt><trkpt lat="46.1509886" lon="9.513118"><ele>210.99999999999997</ele><time>2026-05-04T09:12:02.074Z</time></trkpt><trkpt lat="46.1509955" lon="9.512943"><ele>211.0</ele><time>2026-05-04T09:12:04.075Z</time></trkpt><trkpt lat="46.1509972" lon="9.5128485"><ele>211.33333333333331</ele><time>2026-05-04T09:12:05.073Z</time></trkpt><trkpt lat="46.1509982" lon="9.5127551"><ele>211.66666666666666</ele><time>2026-05-04T09:12:06.073Z</time></trkpt><trkpt lat="46.1510006" lon="9.512574"><ele>212.0</ele><time>2026-05-04T09:12:08.074Z</time></trkpt><trkpt lat="46.1510012" lon="9.5124787"><ele>212.33333333333331</ele><time>2026-05-04T09:12:09.074Z</time></trkpt><trkpt lat="46.1510044" lon="9.5123843"><ele>212.66666666666666</ele><time>2026-05-04T09:12:10.074Z</time></trkpt><trkpt lat="46.1510079" lon="9.5122045"><ele>213.0</ele><time>2026-05-04T09:12:12.074Z</time></trkpt><trkpt lat="46.1510122" lon="9.5121071"><ele>212.83333333333334</ele><time>2026-05-04T09:12:13.075Z</time></trkpt><trkpt lat="46.1510128" lon="9.5120138"><ele>212.66666666666669</ele><time>2026-05-04T09:12:14.074Z</time></trkpt><trkpt lat="46.1510139" lon="9.5119225"><ele>212.5</ele><time>2026-05-04T09:12:15.074Z</time></trkpt><trkpt lat="46.151015" lon="9.5118273"><ele>212.33333333333334</ele><time>2026-05-04T09:12:16.074Z</time></trkpt><trkpt lat="46.1510123" lon="9.5116479"><ele>212.16666666666669</ele><time>2026-05-04T09:12:18.075Z</time></trkpt><trkpt lat="46.1510105" lon="9.5115562"><ele>212.0</ele><time>2026-05-04T09:12:19.074Z</time></trkpt><trkpt lat="46.1510161" lon="9.51138"><ele>211.25</ele><time>2026-05-04T09:12:21.074Z</time></trkpt><trkpt lat="46.1510174" lon="9.5112076"><ele>210.5</ele><time>2026-05-04T09:12:23.076Z</time></trkpt><trkpt lat="46.1510222" lon="9.5110379"><ele>209.75</ele><time>2026-05-04T09:12:25.075Z</time></trkpt><trkpt lat="46.1510281" lon="9.5108632"><ele>209.0</ele><time>2026-05-04T09:12:27.074Z</time></trkpt><trkpt lat="46.1510231" lon="9.5106795"><ele>209.00000000000003</ele><time>2026-05-04T09:12:29.074Z</time></trkpt><trkpt lat="46.1510307" lon="9.5105032"><ele>209.0</ele><time>2026-05-04T09:12:31.074Z</time></trkpt><trkpt lat="46.1510385" lon="9.5104075"><ele>209.0</ele><time>2026-05-04T09:12:32.074Z</time></trkpt><trkpt lat="46.1510471" lon="9.5103135"><ele>209.0</ele><time>2026-05-04T09:12:33.076Z</time></trkpt><trkpt lat="46.1510552" lon="9.5102181"><ele>209.00000000000003</ele><time>2026-05-04T09:12:34.075Z</time></trkpt><trkpt lat="46.1510646" lon="9.5101261"><ele>209.0</ele><time>2026-05-04T09:12:35.075Z</time></trkpt><trkpt lat="46.151073" lon="9.5100337"><ele>209.0</ele><time>2026-05-04T09:12:36.074Z</time></trkpt><trkpt lat="46.1510808" lon="9.5099422"><ele>209.0</ele><time>2026-05-04T09:12:37.074Z</time></trkpt><trkpt lat="46.1510925" lon="9.509852"><ele>209.0</ele><time>2026-05-04T09:12:38.073Z</time></trkpt><trkpt lat="46.1511175" lon="9.5096888"><ele>209.0</ele><time>2026-05-04T09:12:40.074Z</time></trkpt><trkpt lat="46.1511384" lon="9.5095265"><ele>209.0</ele><time>2026-05-04T09:12:42.075Z</time></trkpt><trkpt lat="46.1511568" lon="9.5093518"><ele>209.0</ele><time>2026-05-04T09:12:44.074Z</time></trkpt><trkpt lat="46.1511702" lon="9.5091792"><ele>209.0</ele><time>2026-05-04T09:12:46.074Z</time></trkpt><trkpt lat="46.1511763" lon="9.5090018"><ele>209.0</ele><time>2026-05-04T09:12:48.074Z</time></trkpt><trkpt lat="46.151176" lon="9.5088336"><ele>209.0</ele><time>2026-05-04T09:12:50.073Z</time></trkpt><trkpt lat="46.1511769" lon="9.5086755"><ele>209.6</ele><time>2026-05-04T09:12:52.075Z</time></trkpt><trkpt lat="46.1511615" lon="9.5085167"><ele>210.2</ele><time>2026-05-04T09:12:54.076Z</time></trkpt><trkpt lat="46.151136" lon="9.50836"><ele>210.79999999999998</ele><time>2026-05-04T09:12:56.075Z</time></trkpt><trkpt lat="46.1511055" lon="9.5082227"><ele>211.39999999999998</ele><time>2026-05-04T09:12:58.075Z</time></trkpt><trkpt lat="46.1510592" lon="9.5080662"><ele>212.0</ele><time>2026-05-04T09:13:00.075Z</time></trkpt><trkpt lat="46.1510188" lon="9.5079149"><ele>212.39999999999998</ele><time>2026-05-04T09:13:02.075Z</time></trkpt><trkpt lat="46.1509724" lon="9.5077686"><ele>212.79999999999998</ele><time>2026-05-04T09:13:04.073Z</time></trkpt><trkpt lat="46.15093" lon="9.5076313"><ele>213.2</ele><time>2026-05-04T09:13:06.073Z</time></trkpt><trkpt lat="46.1508878" lon="9.507486"><ele>213.6</ele><time>2026-05-04T09:13:08.075Z</time></trkpt><trkpt lat="46.1508311" lon="9.5073496"><ele>214.0</ele><time>2026-05-04T09:13:10.075Z</time></trkpt><trkpt lat="46.1507847" lon="9.5071869"><ele>214.6</ele><time>2026-05-04T09:13:12.074Z</time></trkpt><trkpt lat="46.1507462" lon="9.507035"><ele>215.2</ele><time>2026-05-04T09:13:14.076Z</time></trkpt><trkpt lat="46.1507073" lon="9.5068906"><ele>215.79999999999998</ele><time>2026-05-04T09:13:16.076Z</time></trkpt><trkpt lat="46.150665" lon="9.5067442"><ele>216.39999999999998</ele><time>2026-05-04T09:13:18.074Z</time></trkpt><trkpt lat="46.1506295" lon="9.5066031"><ele>217.0</ele><time>2026-05-04T09:13:20.073Z</time></trkpt><trkpt lat="46.1505899" lon="9.5064404"><ele>215.6</ele><time>2026-05-04T09:13:22.076Z</time></trkpt><trkpt lat="46.1505486" lon="9.5062879"><ele>214.2</ele><time>2026-05-04T09:13:24.073Z</time></trkpt><trkpt lat="46.1505065" lon="9.5061325"><ele>212.8</ele><time>2026-05-04T09:13:26.076Z</time></trkpt><trkpt lat="46.1504745" lon="9.5059889"><ele>211.4</ele><time>2026-05-04T09:13:28.075Z</time></trkpt><trkpt lat="46.1504343" lon="9.5058336"><ele>210.0</ele><time>2026-05-04T09:13:30.074Z</time></trkpt><trkpt lat="46.1503921" lon="9.5056788"><ele>210.0</ele><time>2026-05-04T09:13:32.074Z</time></trkpt><trkpt lat="46.1503504" lon="9.5055143"><ele>210.0</ele><time>2026-05-04T09:13:34.075Z</time></trkpt><trkpt lat="46.1503208" lon="9.5053538"><ele>210.0</ele><time>2026-05-04T09:13:36.074Z</time></trkpt><trkpt lat="46.150287" lon="9.5051819"><ele>210.0</ele><time>2026-05-04T09:13:38.074Z</time></trkpt><trkpt lat="46.1502744" lon="9.5050888"><ele>210.0</ele><time>2026-05-04T09:13:39.074Z</time></trkpt><trkpt lat="46.1502535" lon="9.5050006"><ele>210.4</ele><time>2026-05-04T09:13:40.074Z</time></trkpt><trkpt lat="46.1502383" lon="9.5049106"><ele>210.8</ele><time>2026-05-04T09:13:41.075Z</time></trkpt><trkpt lat="46.1502216" lon="9.5047483"><ele>211.2</ele><time>2026-05-04T09:13:43.074Z</time></trkpt><trkpt lat="46.1502144" lon="9.5045723"><ele>211.6</ele><time>2026-05-04T09:13:45.076Z</time></trkpt><trkpt lat="46.1502096" lon="9.5044795"><ele>212.0</ele><time>2026-05-04T09:13:46.074Z</time></trkpt><trkpt lat="46.150198" lon="9.504313"><ele>212.0</ele><time>2026-05-04T09:13:48.073Z</time></trkpt><trkpt lat="46.15019" lon="9.5041601"><ele>212.0</ele><time>2026-05-04T09:13:50.073Z</time></trkpt><trkpt lat="46.1501936" lon="9.5039915"><ele>212.0</ele><time>2026-05-04T09:13:52.073Z</time></trkpt><trkpt lat="46.1501992" lon="9.5038443"><ele>212.0</ele><time>2026-05-04T09:13:54.286Z</time></trkpt><trkpt lat="46.1501992" lon="9.5037485"><ele>212.0</ele><time>2026-05-04T09:13:55.535Z</time></trkpt><trkpt lat="46.1502059" lon="9.5035818"><ele>212.0</ele><time>2026-05-04T09:13:57.075Z</time></trkpt><trkpt lat="46.1502127" lon="9.5034897"><ele>212.0</ele><time>2026-05-04T09:13:58.074Z</time></trkpt><trkpt lat="46.1502223" lon="9.5033101"><ele>212.0</ele><time>2026-05-04T09:14:00.076Z</time></trkpt><trkpt lat="46.1502356" lon="9.5031336"><ele>212.0</ele><time>2026-05-04T09:14:02.074Z</time></trkpt><trkpt lat="46.1502552" lon="9.5029601"><ele>212.0</ele><time>2026-05-04T09:14:04.075Z</time></trkpt><trkpt lat="46.1502788" lon="9.5027882"><ele>211.5</ele><time>2026-05-04T09:14:06.075Z</time></trkpt><trkpt lat="46.1503075" lon="9.5026171"><ele>211.0</ele><time>2026-05-04T09:14:08.075Z</time></trkpt><trkpt lat="46.1503394" lon="9.5024455"><ele>210.5</ele><time>2026-05-04T09:14:10.075Z</time></trkpt><trkpt lat="46.1503716" lon="9.5022728"><ele>210.0</ele><time>2026-05-04T09:14:12.075Z</time></trkpt><trkpt lat="46.1504098" lon="9.5021001"><ele>209.8</ele><time>2026-05-04T09:14:14.073Z</time></trkpt><trkpt lat="46.150452" lon="9.5019347"><ele>209.6</ele><time>2026-05-04T09:14:16.075Z</time></trkpt><trkpt lat="46.150495" lon="9.5017785"><ele>209.39999999999998</ele><time>2026-05-04T09:14:18.075Z</time></trkpt><trkpt lat="46.1505197" lon="9.5016949"><ele>209.2</ele><time>2026-05-04T09:14:19.075Z</time></trkpt><trkpt lat="46.1505698" lon="9.5015295"><ele>209.0</ele><time>2026-05-04T09:14:21.075Z</time></trkpt><trkpt lat="46.1505984" lon="9.5014479"><ele>209.00000000000003</ele><time>2026-05-04T09:14:22.074Z</time></trkpt><trkpt lat="46.1506258" lon="9.5013647"><ele>209.0</ele><time>2026-05-04T09:14:23.074Z</time></trkpt><trkpt lat="46.1506752" lon="9.5011966"><ele>209.0</ele><time>2026-05-04T09:14:25.075Z</time></trkpt><trkpt lat="46.150705" lon="9.5011113"><ele>209.0</ele><time>2026-05-04T09:14:26.075Z</time></trkpt><trkpt lat="46.1507357" lon="9.501025"><ele>209.00000000000003</ele><time>2026-05-04T09:14:27.076Z</time></trkpt><trkpt lat="46.1507651" lon="9.5009373"><ele>209.0</ele><time>2026-05-04T09:14:28.074Z</time></trkpt><trkpt lat="46.1507954" lon="9.5008509"><ele>209.42857142857142</ele><time>2026-05-04T09:14:29.075Z</time></trkpt><trkpt lat="46.1508283" lon="9.500764"><ele>209.85714285714283</ele><time>2026-05-04T09:14:30.074Z</time></trkpt><trkpt lat="46.1508551" lon="9.500665"><ele>210.28571428571428</ele><time>2026-05-04T09:14:31.074Z</time></trkpt><trkpt lat="46.1508863" lon="9.5005688"><ele>210.71428571428572</ele><time>2026-05-04T09:14:32.074Z</time></trkpt><trkpt lat="46.1509164" lon="9.5004714"><ele>211.14285714285714</ele><time>2026-05-04T09:14:33.074Z</time></trkpt><trkpt lat="46.1509488" lon="9.5003794"><ele>211.57142857142858</ele><time>2026-05-04T09:14:34.073Z</time></trkpt><trkpt lat="46.1509809" lon="9.5002887"><ele>212.0</ele><time>2026-05-04T09:14:35.076Z</time></trkpt><trkpt lat="46.1510105" lon="9.5001966"><ele>212.0</ele><time>2026-05-04T09:14:36.076Z</time></trkpt><trkpt lat="46.1510432" lon="9.500106"><ele>212.0</ele><time>2026-05-04T09:14:37.075Z</time></trkpt><trkpt lat="46.1510754" lon="9.5000133"><ele>212.0</ele><time>2026-05-04T09:14:38.075Z</time></trkpt><trkpt lat="46.151107" lon="9.4999242"><ele>212.0</ele><time>2026-05-04T09:14:39.074Z</time></trkpt><trkpt lat="46.1511416" lon="9.4998336"><ele>212.0</ele><time>2026-05-04T09:14:40.076Z</time></trkpt><trkpt lat="46.1511749" lon="9.4997397"><ele>212.0</ele><time>2026-05-04T09:14:41.075Z</time></trkpt><trkpt lat="46.1512063" lon="9.499648"><ele>212.0</ele><time>2026-05-04T09:14:42.076Z</time></trkpt><trkpt lat="46.1512381" lon="9.4995539"><ele>211.85714285714286</ele><time>2026-05-04T09:14:43.075Z</time></trkpt><trkpt lat="46.1512699" lon="9.4994622"><ele>211.7142857142857</ele><time>2026-05-04T09:14:44.074Z</time></trkpt><trkpt lat="46.1513048" lon="9.4993701"><ele>211.57142857142856</ele><time>2026-05-04T09:14:45.075Z</time></trkpt><trkpt lat="46.1513382" lon="9.4992781"><ele>211.42857142857144</ele><time>2026-05-04T09:14:46.075Z</time></trkpt><trkpt lat="46.1513721" lon="9.4991823"><ele>211.28571428571428</ele><time>2026-05-04T09:14:47.075Z</time></trkpt><trkpt lat="46.1513998" lon="9.4990789"><ele>211.14285714285714</ele><time>2026-05-04T09:14:48.074Z</time></trkpt><trkpt lat="46.1514347" lon="9.4989815"><ele>211.0</ele><time>2026-05-04T09:14:49.075Z</time></trkpt><trkpt lat="46.151468" lon="9.4988886"><ele>211.0</ele><time>2026-05-04T09:14:50.075Z</time></trkpt><trkpt lat="46.1515104" lon="9.4988171"><ele>211.0</ele><time>2026-05-04T09:14:51.074Z</time></trkpt><trkpt lat="46.1515455" lon="9.4987289"><ele>211.0</ele><time>2026-05-04T09:14:52.074Z</time></trkpt><trkpt lat="46.1515778" lon="9.4986344"><ele>211.0</ele><time>2026-05-04T09:14:53.073Z</time></trkpt><trkpt lat="46.1516117" lon="9.4985393"><ele>211.0</ele><time>2026-05-04T09:14:54.074Z</time></trkpt><trkpt lat="46.151645" lon="9.4984461"><ele>211.0</ele><time>2026-05-04T09:14:55.074Z</time></trkpt><trkpt lat="46.1516798" lon="9.4983485"><ele>211.0</ele><time>2026-05-04T09:14:56.076Z</time></trkpt><trkpt lat="46.1517216" lon="9.4982721"><ele>210.85714285714286</ele><time>2026-05-04T09:14:57.074Z</time></trkpt><trkpt lat="46.1517546" lon="9.498182"><ele>210.71428571428572</ele><time>2026-05-04T09:14:58.076Z</time></trkpt><trkpt lat="46.1517891" lon="9.4980912"><ele>210.57142857142856</ele><time>2026-05-04T09:14:59.075Z</time></trkpt><trkpt lat="46.1518219" lon="9.4979953"><ele>210.42857142857144</ele><time>2026-05-04T09:15:00.076Z</time></trkpt><trkpt lat="46.1518556" lon="9.4979021"><ele>210.28571428571428</ele><time>2026-05-04T09:15:01.076Z</time></trkpt><trkpt lat="46.1518883" lon="9.4978059"><ele>210.14285714285714</ele><time>2026-05-04T09:15:02.074Z</time></trkpt><trkpt lat="46.1519233" lon="9.4977102"><ele>210.0</ele><time>2026-05-04T09:15:03.074Z</time></trkpt><trkpt lat="46.1519572" lon="9.4976193"><ele>209.57142857142858</ele><time>2026-05-04T09:15:04.074Z</time></trkpt><trkpt lat="46.1519875" lon="9.4975224"><ele>209.14285714285714</ele><time>2026-05-04T09:15:05.075Z</time></trkpt><trkpt lat="46.1520204" lon="9.4974281"><ele>208.71428571428572</ele><time>2026-05-04T09:15:06.075Z</time></trkpt><trkpt lat="46.1520535" lon="9.4973406"><ele>208.28571428571428</ele><time>2026-05-04T09:15:07.073Z</time></trkpt><trkpt lat="46.1520856" lon="9.497249"><ele>207.85714285714286</ele><time>2026-05-04T09:15:08.074Z</time></trkpt><trkpt lat="46.1521168" lon="9.4971561"><ele>207.42857142857144</ele><time>2026-05-04T09:15:09.075Z</time></trkpt><trkpt lat="46.1521468" lon="9.4970638"><ele>207.0</ele><time>2026-05-04T09:15:10.074Z</time></trkpt><trkpt lat="46.1521774" lon="9.4969696"><ele>207.00000000000003</ele><time>2026-05-04T09:15:11.074Z</time></trkpt><trkpt lat="46.1522068" lon="9.4968736"><ele>207.0</ele><time>2026-05-04T09:15:12.075Z</time></trkpt><trkpt lat="46.1522377" lon="9.4967838"><ele>207.0</ele><time>2026-05-04T09:15:13.075Z</time></trkpt><trkpt lat="46.1522695" lon="9.4966933"><ele>207.0</ele><time>2026-05-04T09:15:14.074Z</time></trkpt><trkpt lat="46.1522991" lon="9.4966019"><ele>207.0</ele><time>2026-05-04T09:15:15.075Z</time></trkpt><trkpt lat="46.1523328" lon="9.4965187"><ele>207.00000000000003</ele><time>2026-05-04T09:15:16.075Z</time></trkpt><trkpt lat="46.1523653" lon="9.4964337"><ele>207.0</ele><time>2026-05-04T09:15:17.076Z</time></trkpt><trkpt lat="46.1523969" lon="9.4963491"><ele>207.14285714285717</ele><time>2026-05-04T09:15:18.075Z</time></trkpt><trkpt lat="46.1524268" lon="9.4962616"><ele>207.28571428571428</ele><time>2026-05-04T09:15:19.073Z</time></trkpt><trkpt lat="46.1524575" lon="9.4961741"><ele>207.42857142857144</ele><time>2026-05-04T09:15:20.074Z</time></trkpt><trkpt lat="46.1524875" lon="9.4960863"><ele>207.57142857142858</ele><time>2026-05-04T09:15:21.075Z</time></trkpt><trkpt lat="46.1525121" lon="9.4959943"><ele>207.71428571428572</ele><time>2026-05-04T09:15:22.075Z</time></trkpt><trkpt lat="46.152532" lon="9.4959005"><ele>207.85714285714286</ele><time>2026-05-04T09:15:23.076Z</time></trkpt><trkpt lat="46.152551" lon="9.4958071"><ele>208.0</ele><time>2026-05-04T09:15:24.075Z</time></trkpt><trkpt lat="46.1525653" lon="9.4957148"><ele>208.0</ele><time>2026-05-04T09:15:25.075Z</time></trkpt><trkpt lat="46.1525809" lon="9.4956189"><ele>208.0</ele><time>2026-05-04T09:15:26.074Z</time></trkpt><trkpt lat="46.1525896" lon="9.495523"><ele>208.0</ele><time>2026-05-04T09:15:27.075Z</time></trkpt><trkpt lat="46.1525936" lon="9.4954241"><ele>208.0</ele><time>2026-05-04T09:15:28.075Z</time></trkpt><trkpt lat="46.1525947" lon="9.4953271"><ele>208.0</ele><time>2026-05-04T09:15:29.073Z</time></trkpt><trkpt lat="46.152595" lon="9.4952279"><ele>208.0</ele><time>2026-05-04T09:15:30.074Z</time></trkpt><trkpt lat="46.1525908" lon="9.4951269"><ele>208.0</ele><time>2026-05-04T09:15:31.076Z</time></trkpt><trkpt lat="46.1525839" lon="9.4950238"><ele>207.85714285714286</ele><time>2026-05-04T09:15:32.076Z</time></trkpt><trkpt lat="46.1525742" lon="9.4949256"><ele>207.71428571428572</ele><time>2026-05-04T09:15:33.075Z</time></trkpt><trkpt lat="46.1525581" lon="9.4948217"><ele>207.57142857142858</ele><time>2026-05-04T09:15:34.074Z</time></trkpt><trkpt lat="46.1525433" lon="9.4947211"><ele>207.42857142857144</ele><time>2026-05-04T09:15:35.074Z</time></trkpt><trkpt lat="46.1525246" lon="9.494615"><ele>207.28571428571428</ele><time>2026-05-04T09:15:36.076Z</time></trkpt><trkpt lat="46.152509" lon="9.4945123"><ele>207.14285714285717</ele><time>2026-05-04T09:15:37.073Z</time></trkpt><trkpt lat="46.1524918" lon="9.4944077"><ele>207.0</ele><time>2026-05-04T09:15:38.073Z</time></trkpt><trkpt lat="46.1524678" lon="9.4942981"><ele>207.33333333333334</ele><time>2026-05-04T09:15:39.073Z</time></trkpt><trkpt lat="46.1524503" lon="9.4941903"><ele>207.66666666666669</ele><time>2026-05-04T09:15:40.075Z</time></trkpt><trkpt lat="46.1524356" lon="9.4940791"><ele>208.0</ele><time>2026-05-04T09:15:41.075Z</time></trkpt><trkpt lat="46.1524192" lon="9.4939604"><ele>208.33333333333334</ele><time>2026-05-04T09:15:42.075Z</time></trkpt><trkpt lat="46.1524011" lon="9.4938517"><ele>208.66666666666669</ele><time>2026-05-04T09:15:43.074Z</time></trkpt><trkpt lat="46.1523851" lon="9.4937364"><ele>209.0</ele><time>2026-05-04T09:15:44.076Z</time></trkpt><trkpt lat="46.1523606" lon="9.4936296"><ele>208.16666666666669</ele><time>2026-05-04T09:15:45.073Z</time></trkpt><trkpt lat="46.1523428" lon="9.4935197"><ele>207.33333333333334</ele><time>2026-05-04T09:15:46.075Z</time></trkpt><trkpt lat="46.1523258" lon="9.4934151"><ele>206.5</ele><time>2026-05-04T09:15:47.075Z</time></trkpt><trkpt lat="46.1523063" lon="9.4933115"><ele>205.66666666666669</ele><time>2026-05-04T09:15:48.074Z</time></trkpt><trkpt lat="46.1522973" lon="9.4932051"><ele>204.83333333333334</ele><time>2026-05-04T09:15:49.073Z</time></trkpt><trkpt lat="46.1522875" lon="9.4930957"><ele>204.0</ele><time>2026-05-04T09:15:50.073Z</time></trkpt><trkpt lat="46.1522724" lon="9.4929866"><ele>204.16666666666666</ele><time>2026-05-04T09:15:51.075Z</time></trkpt><trkpt lat="46.1522541" lon="9.4928789"><ele>204.33333333333331</ele><time>2026-05-04T09:15:52.073Z</time></trkpt><trkpt lat="46.1522436" lon="9.4927734"><ele>204.5</ele><time>2026-05-04T09:15:53.075Z</time></trkpt><trkpt lat="46.15223" lon="9.4926656"><ele>204.66666666666666</ele><time>2026-05-04T09:15:54.075Z</time></trkpt><trkpt lat="46.152213" lon="9.4925573"><ele>204.83333333333331</ele><time>2026-05-04T09:15:55.074Z</time></trkpt><trkpt lat="46.1521954" lon="9.4924517"><ele>205.0</ele><time>2026-05-04T09:15:56.075Z</time></trkpt><trkpt lat="46.1521782" lon="9.4923491"><ele>205.0</ele><time>2026-05-04T09:15:57.074Z</time></trkpt><trkpt lat="46.152164" lon="9.492245"><ele>205.0</ele><time>2026-05-04T09:15:58.074Z</time></trkpt><trkpt lat="46.152143" lon="9.4921441"><ele>205.0</ele><time>2026-05-04T09:15:59.074Z</time></trkpt><trkpt lat="46.1521287" lon="9.4920458"><ele>205.0</ele><time>2026-05-04T09:16:00.074Z</time></trkpt><trkpt lat="46.1521106" lon="9.4919411"><ele>205.0</ele><time>2026-05-04T09:16:01.075Z</time></trkpt><trkpt lat="46.1520907" lon="9.4918415"><ele>205.0</ele><time>2026-05-04T09:16:02.074Z</time></trkpt><trkpt lat="46.1520745" lon="9.4917418"><ele>205.0</ele><time>2026-05-04T09:16:03.075Z</time></trkpt><trkpt lat="46.1520624" lon="9.4916317"><ele>204.99999999999997</ele><time>2026-05-04T09:16:04.074Z</time></trkpt><trkpt lat="46.1520424" lon="9.4915214"><ele>205.0</ele><time>2026-05-04T09:16:05.074Z</time></trkpt><trkpt lat="46.1520275" lon="9.4914121"><ele>205.0</ele><time>2026-05-04T09:16:06.074Z</time></trkpt><trkpt lat="46.1520096" lon="9.4913148"><ele>205.0</ele><time>2026-05-04T09:16:07.074Z</time></trkpt><trkpt lat="46.1519919" lon="9.4912138"><ele>204.99999999999997</ele><time>2026-05-04T09:16:08.074Z</time></trkpt><trkpt lat="46.151978" lon="9.4911209"><ele>205.0</ele><time>2026-05-04T09:16:09.075Z</time></trkpt><trkpt lat="46.1519602" lon="9.4909406"><ele>204.83333333333331</ele><time>2026-05-04T09:16:11.075Z</time></trkpt><trkpt lat="46.1519497" lon="9.4908461"><ele>204.66666666666666</ele><time>2026-05-04T09:16:12.075Z</time></trkpt><trkpt lat="46.1519416" lon="9.4907471"><ele>204.5</ele><time>2026-05-04T09:16:13.075Z</time></trkpt><trkpt lat="46.1519283" lon="9.4906509"><ele>204.33333333333331</ele><time>2026-05-04T09:16:14.075Z</time></trkpt><trkpt lat="46.1519168" lon="9.4905458"><ele>204.16666666666666</ele><time>2026-05-04T09:16:15.075Z</time></trkpt><trkpt lat="46.1519054" lon="9.4904467"><ele>204.0</ele><time>2026-05-04T09:16:16.075Z</time></trkpt><trkpt lat="46.1518949" lon="9.4902791"><ele>204.66666666666666</ele><time>2026-05-04T09:16:18.075Z</time></trkpt><trkpt lat="46.1518838" lon="9.4901811"><ele>205.33333333333331</ele><time>2026-05-04T09:16:19.075Z</time></trkpt><trkpt lat="46.1518675" lon="9.4900808"><ele>206.0</ele><time>2026-05-04T09:16:20.075Z</time></trkpt><trkpt lat="46.1518648" lon="9.4899883"><ele>206.66666666666666</ele><time>2026-05-04T09:16:21.075Z</time></trkpt><trkpt lat="46.1518548" lon="9.4898957"><ele>207.33333333333331</ele><time>2026-05-04T09:16:22.075Z</time></trkpt><trkpt lat="46.1518383" lon="9.4897098"><ele>208.0</ele><time>2026-05-04T09:16:24.074Z</time></trkpt><trkpt lat="46.1518188" lon="9.4895794"><ele>208.33333333333331</ele><time>2026-05-04T09:16:25.074Z</time></trkpt><trkpt lat="46.1518021" lon="9.4894724"><ele>208.66666666666666</ele><time>2026-05-04T09:16:26.076Z</time></trkpt><trkpt lat="46.1517903" lon="9.4893687"><ele>209.0</ele><time>2026-05-04T09:16:27.075Z</time></trkpt><trkpt lat="46.151776" lon="9.4891829"><ele>209.33333333333331</ele><time>2026-05-04T09:16:29.076Z</time></trkpt><trkpt lat="46.1517576" lon="9.4890913"><ele>209.66666666666666</ele><time>2026-05-04T09:16:30.075Z</time></trkpt><trkpt lat="46.1517362" lon="9.4889947"><ele>210.0</ele><time>2026-05-04T09:16:31.075Z</time></trkpt><trkpt lat="46.1517147" lon="9.488897"><ele>210.0</ele><time>2026-05-04T09:16:32.074Z</time></trkpt><trkpt lat="46.1516995" lon="9.4888049"><ele>210.0</ele><time>2026-05-04T09:16:33.074Z</time></trkpt><trkpt lat="46.1516836" lon="9.4887057"><ele>210.0</ele><time>2026-05-04T09:16:34.075Z</time></trkpt><trkpt lat="46.1516645" lon="9.488607"><ele>210.0</ele><time>2026-05-04T09:16:35.075Z</time></trkpt><trkpt lat="46.1516509" lon="9.4885079"><ele>210.0</ele><time>2026-05-04T09:16:36.074Z</time></trkpt><trkpt lat="46.1516369" lon="9.4884136"><ele>210.0</ele><time>2026-05-04T09:16:37.075Z</time></trkpt><trkpt lat="46.1516237" lon="9.4883154"><ele>210.0</ele><time>2026-05-04T09:16:38.074Z</time></trkpt><trkpt lat="46.1516037" lon="9.4881952"><ele>210.0</ele><time>2026-05-04T09:16:39.074Z</time></trkpt><trkpt lat="46.151589" lon="9.4880779"><ele>210.0</ele><time>2026-05-04T09:16:40.075Z</time></trkpt><trkpt lat="46.1515753" lon="9.4879741"><ele>210.0</ele><time>2026-05-04T09:16:41.075Z</time></trkpt><trkpt lat="46.1515575" lon="9.4878791"><ele>210.0</ele><time>2026-05-04T09:16:42.074Z</time></trkpt><trkpt lat="46.1515417" lon="9.4877813"><ele>210.0</ele><time>2026-05-04T09:16:43.076Z</time></trkpt><trkpt lat="46.1515288" lon="9.4876867"><ele>210.0</ele><time>2026-05-04T09:16:44.074Z</time></trkpt><trkpt lat="46.1514968" lon="9.4875113"><ele>209.16666666666666</ele><time>2026-05-04T09:16:46.074Z</time></trkpt><trkpt lat="46.1514857" lon="9.4874216"><ele>208.33333333333331</ele><time>2026-05-04T09:16:47.074Z</time></trkpt><trkpt lat="46.1514788" lon="9.4873292"><ele>207.5</ele><time>2026-05-04T09:16:48.074Z</time></trkpt><trkpt lat="46.1514777" lon="9.4872266"><ele>206.66666666666666</ele><time>2026-05-04T09:16:49.075Z</time></trkpt><trkpt lat="46.1514759" lon="9.4871316"><ele>205.83333333333331</ele><time>2026-05-04T09:16:50.076Z</time></trkpt><trkpt lat="46.1514781" lon="9.4869639"><ele>205.0</ele><time>2026-05-04T09:16:52.075Z</time></trkpt><trkpt lat="46.1514856" lon="9.4867918"><ele>205.0</ele><time>2026-05-04T09:16:54.074Z</time></trkpt><trkpt lat="46.1514905" lon="9.4867002"><ele>205.0</ele><time>2026-05-04T09:16:55.075Z</time></trkpt><trkpt lat="46.1515047" lon="9.4865205"><ele>205.0</ele><time>2026-05-04T09:16:57.075Z</time></trkpt><trkpt lat="46.1515157" lon="9.4863651"><ele>205.0</ele><time>2026-05-04T09:16:59.075Z</time></trkpt><trkpt lat="46.1515216" lon="9.4861902"><ele>205.0</ele><time>2026-05-04T09:17:01.075Z</time></trkpt><trkpt lat="46.1515325" lon="9.4860298"><ele>205.0</ele><time>2026-05-04T09:17:03.074Z</time></trkpt><trkpt lat="46.1515501" lon="9.4858751"><ele>205.0</ele><time>2026-05-04T09:17:05.076Z</time></trkpt><trkpt lat="46.1515164" lon="9.4857489"><ele>205.0</ele><time>2026-05-04T09:17:07.075Z</time></trkpt><trkpt lat="46.1514161" lon="9.4857142"><ele>205.0</ele><time>2026-05-04T09:17:09.074Z</time></trkpt><trkpt lat="46.1513366" lon="9.4858016"><ele>205.0</ele><time>2026-05-04T09:17:11.076Z</time></trkpt><trkpt lat="46.151287" lon="9.4859247"><ele>205.0</ele><time>2026-05-04T09:17:13.075Z</time></trkpt><trkpt lat="46.1512168" lon="9.4860215"><ele>205.0</ele><time>2026-05-04T09:17:15.076Z</time></trkpt><trkpt lat="46.1511242" lon="9.4860845"><ele>205.0</ele><time>2026-05-04T09:17:17.075Z</time></trkpt><trkpt lat="46.1510258" lon="9.4860953"><ele>205.0</ele><time>2026-05-04T09:17:19.074Z</time></trkpt><trkpt lat="46.1509261" lon="9.4860934"><ele>205.0</ele><time>2026-05-04T09:17:21.076Z</time></trkpt><trkpt lat="46.1508256" lon="9.4860973"><ele>205.0</ele><time>2026-05-04T09:17:23.074Z</time></trkpt><trkpt lat="46.1507275" lon="9.4860957"><ele>205.0</ele><time>2026-05-04T09:17:25.073Z</time></trkpt><trkpt lat="46.1506231" lon="9.4860971"><ele>205.0</ele><time>2026-05-04T09:17:27.076Z</time></trkpt><trkpt lat="46.1505113" lon="9.4861038"><ele>205.0</ele><time>2026-05-04T09:17:29.074Z</time></trkpt><trkpt lat="46.1504002" lon="9.4861054"><ele>205.0</ele><time>2026-05-04T09:17:31.075Z</time></trkpt><trkpt lat="46.1502873" lon="9.4860992"><ele>205.4</ele><time>2026-05-04T09:17:33.074Z</time></trkpt><trkpt lat="46.1501867" lon="9.4860138"><ele>205.8</ele><time>2026-05-04T09:17:35.076Z</time></trkpt><trkpt lat="46.1501121" lon="9.4858664"><ele>206.2</ele><time>2026-05-04T09:17:37.075Z</time></trkpt><trkpt lat="46.1500817" lon="9.4857802"><ele>206.6</ele><time>2026-05-04T09:17:38.074Z</time></trkpt><trkpt lat="46.1500533" lon="9.4856974"><ele>207.0</ele><time>2026-05-04T09:17:39.076Z</time></trkpt><trkpt lat="46.150009" lon="9.4855336"><ele>207.0</ele><time>2026-05-04T09:17:41.075Z</time></trkpt><trkpt lat="46.1499718" lon="9.4853685"><ele>207.0</ele><time>2026-05-04T09:17:43.075Z</time></trkpt><trkpt lat="46.1499509" lon="9.4852799"><ele>207.0</ele><time>2026-05-04T09:17:44.076Z</time></trkpt><trkpt lat="46.1499335" lon="9.4851861"><ele>207.0</ele><time>2026-05-04T09:17:45.075Z</time></trkpt><trkpt lat="46.1499136" lon="9.4850946"><ele>207.0</ele><time>2026-05-04T09:17:46.073Z</time></trkpt><trkpt lat="46.1498911" lon="9.485005"><ele>207.0</ele><time>2026-05-04T09:17:47.074Z</time></trkpt><trkpt lat="46.1498648" lon="9.4849147"><ele>207.0</ele><time>2026-05-04T09:17:48.075Z</time></trkpt><trkpt lat="46.149829" lon="9.4847436"><ele>207.0</ele><time>2026-05-04T09:17:50.074Z</time></trkpt><trkpt lat="46.1498125" lon="9.4846489"><ele>207.0</ele><time>2026-05-04T09:17:51.075Z</time></trkpt><trkpt lat="46.1497919" lon="9.484557"><ele>207.0</ele><time>2026-05-04T09:17:52.074Z</time></trkpt><trkpt lat="46.1497726" lon="9.4844691"><ele>207.0</ele><time>2026-05-04T09:17:53.075Z</time></trkpt><trkpt lat="46.1497552" lon="9.4843759"><ele>207.0</ele><time>2026-05-04T09:17:54.075Z</time></trkpt><trkpt lat="46.1497368" lon="9.4842836"><ele>207.16666666666666</ele><time>2026-05-04T09:17:55.075Z</time></trkpt><trkpt lat="46.1496983" lon="9.484117"><ele>207.33333333333331</ele><time>2026-05-04T09:17:57.073Z</time></trkpt><trkpt lat="46.1496828" lon="9.4840256"><ele>207.5</ele><time>2026-05-04T09:17:58.075Z</time></trkpt><trkpt lat="46.1496682" lon="9.4839282"><ele>207.66666666666666</ele><time>2026-05-04T09:17:59.074Z</time></trkpt><trkpt lat="46.1496468" lon="9.4838339"><ele>207.83333333333331</ele><time>2026-05-04T09:18:00.076Z</time></trkpt><trkpt lat="46.1496277" lon="9.4836759"><ele>208.0</ele><time>2026-05-04T09:18:02.076Z</time></trkpt><trkpt lat="46.1495942" lon="9.4835005"><ele>208.16666666666666</ele><time>2026-05-04T09:18:04.076Z</time></trkpt><trkpt lat="46.1495747" lon="9.4834124"><ele>208.33333333333331</ele><time>2026-05-04T09:18:05.074Z</time></trkpt><trkpt lat="46.1495522" lon="9.4833246"><ele>208.5</ele><time>2026-05-04T09:18:06.075Z</time></trkpt><trkpt lat="46.149526" lon="9.4832348"><ele>208.66666666666669</ele><time>2026-05-04T09:18:07.074Z</time></trkpt><trkpt lat="46.1494894" lon="9.4830566"><ele>208.83333333333334</ele><time>2026-05-04T09:18:09.075Z</time></trkpt><trkpt lat="46.149471" lon="9.4829688"><ele>209.0</ele><time>2026-05-04T09:18:10.076Z</time></trkpt><trkpt lat="46.1494186" lon="9.4828102"><ele>208.5</ele><time>2026-05-04T09:18:12.074Z</time></trkpt><trkpt lat="46.149379" lon="9.4826498"><ele>208.0</ele><time>2026-05-04T09:18:14.074Z</time></trkpt><trkpt lat="46.1493407" lon="9.4824824"><ele>207.5</ele><time>2026-05-04T09:18:16.075Z</time></trkpt><trkpt lat="46.1493076" lon="9.4823298"><ele>207.0</ele><time>2026-05-04T09:18:18.075Z</time></trkpt><trkpt lat="46.1492828" lon="9.482176"><ele>207.0</ele><time>2026-05-04T09:18:20.074Z</time></trkpt><trkpt lat="46.1492559" lon="9.4820285"><ele>207.0</ele><time>2026-05-04T09:18:22.076Z</time></trkpt><trkpt lat="46.1492328" lon="9.4818974"><ele>207.0</ele><time>2026-05-04T09:18:24.075Z</time></trkpt><trkpt lat="46.1491991" lon="9.4817562"><ele>207.0</ele><time>2026-05-04T09:18:26.074Z</time></trkpt><trkpt lat="46.1491731" lon="9.4816274"><ele>207.0</ele><time>2026-05-04T09:18:28.075Z</time></trkpt><trkpt lat="46.1491811" lon="9.4815172"><ele>207.0</ele><time>2026-05-04T09:18:30.075Z</time></trkpt><trkpt lat="46.1491404" lon="9.4814094"><ele>207.0</ele><time>2026-05-04T09:18:55.075Z</time></trkpt><trkpt lat="46.1490942" lon="9.4813169"><ele>207.0</ele><time>2026-05-04T09:18:59.074Z</time></trkpt><trkpt lat="46.1490566" lon="9.4811902"><ele>207.0</ele><time>2026-05-04T09:19:02.075Z</time></trkpt><trkpt lat="46.1490394" lon="9.4810812"><ele>207.0</ele><time>2026-05-04T09:19:04.076Z</time></trkpt><trkpt lat="46.1490072" lon="9.4809439"><ele>207.0</ele><time>2026-05-04T09:19:06.075Z</time></trkpt><trkpt lat="46.1489732" lon="9.4808103"><ele>206.8</ele><time>2026-05-04T09:19:08.075Z</time></trkpt><trkpt lat="46.1489393" lon="9.4806758"><ele>206.6</ele><time>2026-05-04T09:19:10.075Z</time></trkpt><trkpt lat="46.1488964" lon="9.4805317"><ele>206.4</ele><time>2026-05-04T09:19:12.075Z</time></trkpt><trkpt lat="46.1488616" lon="9.4803901"><ele>206.20000000000002</ele><time>2026-05-04T09:19:14.075Z</time></trkpt><trkpt lat="46.1488229" lon="9.4802328"><ele>206.0</ele><time>2026-05-04T09:19:16.075Z</time></trkpt><trkpt lat="46.148782" lon="9.4800812"><ele>206.0</ele><time>2026-05-04T09:19:18.074Z</time></trkpt><trkpt lat="46.1487511" lon="9.4799259"><ele>206.0</ele><time>2026-05-04T09:19:20.075Z</time></trkpt><trkpt lat="46.148712" lon="9.4797708"><ele>206.0</ele><time>2026-05-04T09:19:22.075Z</time></trkpt><trkpt lat="46.1486769" lon="9.479618"><ele>206.0</ele><time>2026-05-04T09:19:24.075Z</time></trkpt><trkpt lat="46.1486581" lon="9.4795278"><ele>206.0</ele><time>2026-05-04T09:19:25.076Z</time></trkpt><trkpt lat="46.1486269" lon="9.4793719"><ele>205.83333333333334</ele><time>2026-05-04T09:19:27.074Z</time></trkpt><trkpt lat="46.1486121" lon="9.4792822"><ele>205.66666666666669</ele><time>2026-05-04T09:19:28.075Z</time></trkpt><trkpt lat="46.1485879" lon="9.4791887"><ele>205.5</ele><time>2026-05-04T09:19:29.075Z</time></trkpt><trkpt lat="46.1485657" lon="9.4791012"><ele>205.33333333333331</ele><time>2026-05-04T09:19:30.076Z</time></trkpt><trkpt lat="46.1485288" lon="9.4789367"><ele>205.16666666666666</ele><time>2026-05-04T09:19:32.075Z</time></trkpt><trkpt lat="46.1484764" lon="9.4787739"><ele>205.0</ele><time>2026-05-04T09:19:34.074Z</time></trkpt><trkpt lat="46.1484281" lon="9.4786226"><ele>205.4</ele><time>2026-05-04T09:19:36.075Z</time></trkpt><trkpt lat="46.1483956" lon="9.4784668"><ele>205.8</ele><time>2026-05-04T09:19:38.074Z</time></trkpt><trkpt lat="46.1483504" lon="9.478336"><ele>206.2</ele><time>2026-05-04T09:19:40.075Z</time></trkpt><trkpt lat="46.1482654" lon="9.4782938"><ele>206.6</ele><time>2026-05-04T09:19:42.075Z</time></trkpt><trkpt lat="46.1481655" lon="9.478245"><ele>207.0</ele><time>2026-05-04T09:19:44.075Z</time></trkpt><trkpt lat="46.1480572" lon="9.478201"><ele>207.0</ele><time>2026-05-04T09:19:46.076Z</time></trkpt><trkpt lat="46.1479512" lon="9.4781612"><ele>207.0</ele><time>2026-05-04T09:19:48.075Z</time></trkpt><trkpt lat="46.1478286" lon="9.4781177"><ele>207.0</ele><time>2026-05-04T09:19:50.074Z</time></trkpt><trkpt lat="46.1477119" lon="9.4780732"><ele>207.0</ele><time>2026-05-04T09:19:52.075Z</time></trkpt><trkpt lat="46.1475975" lon="9.4780567"><ele>207.0</ele><time>2026-05-04T09:19:54.076Z</time></trkpt><trkpt lat="46.1475311" lon="9.4780455"><ele>207.0</ele><time>2026-05-04T09:19:55.075Z</time></trkpt><trkpt lat="46.1474682" lon="9.4780158"><ele>207.0</ele><time>2026-05-04T09:19:56.076Z</time></trkpt><trkpt lat="46.1474085" lon="9.4779683"><ele>207.0</ele><time>2026-05-04T09:19:57.074Z</time></trkpt><trkpt lat="46.1473428" lon="9.4778442"><ele>207.0</ele><time>2026-05-04T09:19:59.074Z</time></trkpt><trkpt lat="46.1473588" lon="9.4776732"><ele>207.0</ele><time>2026-05-04T09:20:01.076Z</time></trkpt><trkpt lat="46.1473566" lon="9.4775111"><ele>207.16666666666666</ele><time>2026-05-04T09:20:03.074Z</time></trkpt><trkpt lat="46.1473436" lon="9.4774193"><ele>207.33333333333331</ele><time>2026-05-04T09:20:04.076Z</time></trkpt><trkpt lat="46.1473142" lon="9.4772595"><ele>207.5</ele><time>2026-05-04T09:20:06.075Z</time></trkpt><trkpt lat="46.1472988" lon="9.4770929"><ele>207.66666666666666</ele><time>2026-05-04T09:20:08.075Z</time></trkpt><trkpt lat="46.147282" lon="9.4770009"><ele>207.83333333333331</ele><time>2026-05-04T09:20:09.074Z</time></trkpt><trkpt lat="46.1472647" lon="9.4769038"><ele>208.0</ele><time>2026-05-04T09:20:10.075Z</time></trkpt><trkpt lat="46.1472547" lon="9.4768047"><ele>207.49999999999997</ele><time>2026-05-04T09:20:11.075Z</time></trkpt><trkpt lat="46.1472386" lon="9.4767102"><ele>207.0</ele><time>2026-05-04T09:20:12.075Z</time></trkpt><trkpt lat="46.1472266" lon="9.4766179"><ele>206.5</ele><time>2026-05-04T09:20:13.075Z</time></trkpt><trkpt lat="46.1472171" lon="9.4765218"><ele>206.0</ele><time>2026-05-04T09:20:14.075Z</time></trkpt><trkpt lat="46.1471982" lon="9.4763494"><ele>205.49999999999997</ele><time>2026-05-04T09:20:16.075Z</time></trkpt><trkpt lat="46.1471889" lon="9.4762555"><ele>205.0</ele><time>2026-05-04T09:20:17.075Z</time></trkpt><trkpt lat="46.1471758" lon="9.4761559"><ele>204.83333333333331</ele><time>2026-05-04T09:20:18.075Z</time></trkpt><trkpt lat="46.14717" lon="9.4760569"><ele>204.66666666666666</ele><time>2026-05-04T09:20:19.076Z</time></trkpt><trkpt lat="46.1471537" lon="9.4759671"><ele>204.5</ele><time>2026-05-04T09:20:20.075Z</time></trkpt><trkpt lat="46.1471468" lon="9.4758734"><ele>204.33333333333331</ele><time>2026-05-04T09:20:21.075Z</time></trkpt><trkpt lat="46.147124" lon="9.4756912"><ele>204.16666666666666</ele><time>2026-05-04T09:20:23.075Z</time></trkpt><trkpt lat="46.1471153" lon="9.4755945"><ele>204.0</ele><time>2026-05-04T09:20:24.076Z</time></trkpt><trkpt lat="46.1471058" lon="9.4755009"><ele>205.2</ele><time>2026-05-04T09:20:25.075Z</time></trkpt><trkpt lat="46.1470904" lon="9.475322"><ele>206.39999999999998</ele><time>2026-05-04T09:20:27.075Z</time></trkpt><trkpt lat="46.1471066" lon="9.4752339"><ele>207.6</ele><time>2026-05-04T09:20:28.076Z</time></trkpt><trkpt lat="46.147139" lon="9.4750608"><ele>208.8</ele><time>2026-05-04T09:20:30.075Z</time></trkpt><trkpt lat="46.1471845" lon="9.4749015"><ele>210.0</ele><time>2026-05-04T09:20:32.074Z</time></trkpt><trkpt lat="46.1472198" lon="9.474724"><ele>210.0</ele><time>2026-05-04T09:20:34.074Z</time></trkpt><trkpt lat="46.1472447" lon="9.4746316"><ele>210.0</ele><time>2026-05-04T09:20:35.076Z</time></trkpt><trkpt lat="46.1472717" lon="9.4745442"><ele>210.0</ele><time>2026-05-04T09:20:36.075Z</time></trkpt><trkpt lat="46.1473047" lon="9.474371"><ele>210.0</ele><time>2026-05-04T09:20:38.075Z</time></trkpt><trkpt lat="46.1473234" lon="9.4742771"><ele>210.0</ele><time>2026-05-04T09:20:39.075Z</time></trkpt><trkpt lat="46.1473688" lon="9.4740854"><ele>210.0</ele><time>2026-05-04T09:20:41.076Z</time></trkpt><trkpt lat="46.1474118" lon="9.473926"><ele>210.0</ele><time>2026-05-04T09:20:43.076Z</time></trkpt><trkpt lat="46.1474255" lon="9.4738289"><ele>210.0</ele><time>2026-05-04T09:20:44.075Z</time></trkpt><trkpt lat="46.1474485" lon="9.4736715"><ele>210.0</ele><time>2026-05-04T09:20:46.075Z</time></trkpt><trkpt lat="46.1474769" lon="9.4735646"><ele>210.0</ele><time>2026-05-04T09:20:47.077Z</time></trkpt><trkpt lat="46.1475031" lon="9.4734734"><ele>210.0</ele><time>2026-05-04T09:20:48.075Z</time></trkpt><trkpt lat="46.1475281" lon="9.4733872"><ele>210.0</ele><time>2026-05-04T09:20:49.075Z</time></trkpt><trkpt lat="46.1475485" lon="9.4732847"><ele>210.0</ele><time>2026-05-04T09:20:50.075Z</time></trkpt><trkpt lat="46.1476109" lon="9.4731242"><ele>210.0</ele><time>2026-05-04T09:20:52.074Z</time></trkpt><trkpt lat="46.1476611" lon="9.4729673"><ele>210.0</ele><time>2026-05-04T09:20:54.074Z</time></trkpt><trkpt lat="46.1476673" lon="9.4728645"><ele>210.0</ele><time>2026-05-04T09:20:55.075Z</time></trkpt><trkpt lat="46.1476993" lon="9.472683"><ele>209.71428571428572</ele><time>2026-05-04T09:20:57.075Z</time></trkpt><trkpt lat="46.1477239" lon="9.4725909"><ele>209.42857142857144</ele><time>2026-05-04T09:20:58.074Z</time></trkpt><trkpt lat="46.1477326" lon="9.4724866"><ele>209.14285714285714</ele><time>2026-05-04T09:20:59.076Z</time></trkpt><trkpt lat="46.1477492" lon="9.4723901"><ele>208.85714285714286</ele><time>2026-05-04T09:21:00.075Z</time></trkpt><trkpt lat="46.1477622" lon="9.4722944"><ele>208.57142857142858</ele><time>2026-05-04T09:21:01.076Z</time></trkpt><trkpt lat="46.1477776" lon="9.4722035"><ele>208.28571428571428</ele><time>2026-05-04T09:21:02.075Z</time></trkpt><trkpt lat="46.1477892" lon="9.4721048"><ele>208.0</ele><time>2026-05-04T09:21:03.077Z</time></trkpt><trkpt lat="46.147804" lon="9.4720125"><ele>207.60000000000002</ele><time>2026-05-04T09:21:04.075Z</time></trkpt><trkpt lat="46.1478184" lon="9.471918"><ele>207.20000000000002</ele><time>2026-05-04T09:21:05.074Z</time></trkpt><trkpt lat="46.1478888" lon="9.4716686"><ele>206.8</ele><time>2026-05-04T09:21:08.075Z</time></trkpt><trkpt lat="46.1479125" lon="9.4715731"><ele>206.4</ele><time>2026-05-04T09:21:09.077Z</time></trkpt><trkpt lat="46.1479424" lon="9.4714783"><ele>206.0</ele><time>2026-05-04T09:21:10.076Z</time></trkpt><trkpt lat="46.1479676" lon="9.471385"><ele>206.0</ele><time>2026-05-04T09:21:11.077Z</time></trkpt><trkpt lat="46.14798" lon="9.4712959"><ele>206.0</ele><time>2026-05-04T09:21:12.076Z</time></trkpt><trkpt lat="46.1479881" lon="9.471205"><ele>206.0</ele><time>2026-05-04T09:21:13.077Z</time></trkpt><trkpt lat="46.14797" lon="9.4710145"><ele>206.0</ele><time>2026-05-04T09:21:15.074Z</time></trkpt><trkpt lat="46.1479151" lon="9.4708721"><ele>206.0</ele><time>2026-05-04T09:21:17.075Z</time></trkpt><trkpt lat="46.1478792" lon="9.4707492"><ele>206.00000000000003</ele><time>2026-05-04T09:21:19.076Z</time></trkpt><trkpt lat="46.1478636" lon="9.4706189"><ele>206.0</ele><time>2026-05-04T09:22:40.075Z</time></trkpt><trkpt lat="46.1478048" lon="9.4705798"><ele>206.0</ele><time>2026-05-04T09:22:54.075Z</time></trkpt><trkpt lat="46.1477759" lon="9.4704786"><ele>206.0</ele><time>2026-05-04T09:22:57.075Z</time></trkpt><trkpt lat="46.147735" lon="9.4703771"><ele>206.00000000000003</ele><time>2026-05-04T09:22:59.075Z</time></trkpt><trkpt lat="46.1476806" lon="9.4702572"><ele>206.0</ele><time>2026-05-04T09:23:01.076Z</time></trkpt><trkpt lat="46.1476131" lon="9.4701597"><ele>205.8</ele><time>2026-05-04T09:23:03.076Z</time></trkpt><trkpt lat="46.1475474" lon="9.4700664"><ele>205.60000000000002</ele><time>2026-05-04T09:23:05.076Z</time></trkpt><trkpt lat="46.1474462" lon="9.4699951"><ele>205.4</ele><time>2026-05-04T09:23:07.075Z</time></trkpt><trkpt lat="46.1473666" lon="9.4699275"><ele>205.2</ele><time>2026-05-04T09:23:09.075Z</time></trkpt><trkpt lat="46.1472991" lon="9.4698295"><ele>205.0</ele><time>2026-05-04T09:23:11.075Z</time></trkpt><trkpt lat="46.1472969" lon="9.4697089"><ele>205.0</ele><time>2026-05-04T09:23:13.076Z</time></trkpt><trkpt lat="46.1473182" lon="9.4695758"><ele>205.0</ele><time>2026-05-04T09:23:15.076Z</time></trkpt><trkpt lat="46.1473474" lon="9.4694349"><ele>205.0</ele><time>2026-05-04T09:23:17.076Z</time></trkpt><trkpt lat="46.147401" lon="9.4692777"><ele>205.0</ele><time>2026-05-04T09:23:19.075Z</time></trkpt><trkpt lat="46.147455" lon="9.4691149"><ele>205.0</ele><time>2026-05-04T09:23:21.074Z</time></trkpt><trkpt lat="46.1475019" lon="9.4689491"><ele>204.75</ele><time>2026-05-04T09:23:23.076Z</time></trkpt><trkpt lat="46.147519" lon="9.468776"><ele>204.5</ele><time>2026-05-04T09:23:25.074Z</time></trkpt><trkpt lat="46.1474729" lon="9.4686105"><ele>204.25</ele><time>2026-05-04T09:23:27.076Z</time></trkpt><trkpt lat="46.1473991" lon="9.4684317"><ele>204.0</ele><time>2026-05-04T09:23:29.074Z</time></trkpt><trkpt lat="46.1473465" lon="9.4682733"><ele>204.0</ele><time>2026-05-04T09:23:31.074Z</time></trkpt><trkpt lat="46.1473209" lon="9.4681873"><ele>204.0</ele><time>2026-05-04T09:23:32.075Z</time></trkpt><trkpt lat="46.1472947" lon="9.4681007"><ele>204.0</ele><time>2026-05-04T09:23:33.076Z</time></trkpt><trkpt lat="46.1472532" lon="9.4679429"><ele>204.0</ele><time>2026-05-04T09:23:35.076Z</time></trkpt><trkpt lat="46.1472324" lon="9.4678547"><ele>204.0</ele><time>2026-05-04T09:23:36.075Z</time></trkpt><trkpt lat="46.147199" lon="9.4676921"><ele>204.0</ele><time>2026-05-04T09:23:38.075Z</time></trkpt><trkpt lat="46.1471742" lon="9.4675403"><ele>204.0</ele><time>2026-05-04T09:23:40.075Z</time></trkpt><trkpt lat="46.1471476" lon="9.4673909"><ele>204.0</ele><time>2026-05-04T09:23:42.075Z</time></trkpt><trkpt lat="46.1471088" lon="9.4672276"><ele>204.0</ele><time>2026-05-04T09:23:44.075Z</time></trkpt><trkpt lat="46.1470958" lon="9.4670814"><ele>204.0</ele><time>2026-05-04T09:23:46.074Z</time></trkpt><trkpt lat="46.1470543" lon="9.4669011"><ele>204.0</ele><time>2026-05-04T09:23:48.076Z</time></trkpt><trkpt lat="46.1470244" lon="9.4667278"><ele>204.0</ele><time>2026-05-04T09:23:50.075Z</time></trkpt><trkpt lat="46.1470015" lon="9.4666398"><ele>204.0</ele><time>2026-05-04T09:23:51.077Z</time></trkpt><trkpt lat="46.1469831" lon="9.4665505"><ele>204.0</ele><time>2026-05-04T09:23:52.077Z</time></trkpt><trkpt lat="46.1469592" lon="9.4664594"><ele>204.0</ele><time>2026-05-04T09:23:53.076Z</time></trkpt><trkpt lat="46.1469479" lon="9.4663617"><ele>204.0</ele><time>2026-05-04T09:23:54.075Z</time></trkpt><trkpt lat="46.1469335" lon="9.4662705"><ele>204.0</ele><time>2026-05-04T09:23:55.074Z</time></trkpt><trkpt lat="46.1469112" lon="9.4661752"><ele>204.0</ele><time>2026-05-04T09:23:56.074Z</time></trkpt><trkpt lat="46.146892" lon="9.4660824"><ele>204.0</ele><time>2026-05-04T09:23:57.077Z</time></trkpt><trkpt lat="46.146879" lon="9.4659832"><ele>204.0</ele><time>2026-05-04T09:23:58.076Z</time></trkpt><trkpt lat="46.146854" lon="9.4658921"><ele>204.0</ele><time>2026-05-04T09:23:59.075Z</time></trkpt><trkpt lat="46.1468309" lon="9.4657142"><ele>204.0</ele><time>2026-05-04T09:24:01.075Z</time></trkpt><trkpt lat="46.1468275" lon="9.4656218"><ele>204.0</ele><time>2026-05-04T09:24:02.075Z</time></trkpt><trkpt lat="46.146827" lon="9.4654559"><ele>204.0</ele><time>2026-05-04T09:24:04.074Z</time></trkpt><trkpt lat="46.1468311" lon="9.465363"><ele>204.0</ele><time>2026-05-04T09:24:05.074Z</time></trkpt><trkpt lat="46.1468326" lon="9.4652085"><ele>204.0</ele><time>2026-05-04T09:24:07.076Z</time></trkpt><trkpt lat="46.1468335" lon="9.465059"><ele>204.0</ele><time>2026-05-04T09:24:09.076Z</time></trkpt><trkpt lat="46.1468296" lon="9.4649109"><ele>204.0</ele><time>2026-05-04T09:24:11.076Z</time></trkpt><trkpt lat="46.1468327" lon="9.4647726"><ele>204.0</ele><time>2026-05-04T09:24:13.076Z</time></trkpt><trkpt lat="46.1468537" lon="9.464621"><ele>204.0</ele><time>2026-05-04T09:24:15.075Z</time></trkpt><trkpt lat="46.1468932" lon="9.4644853"><ele>204.0</ele><time>2026-05-04T09:24:17.076Z</time></trkpt><trkpt lat="46.1469481" lon="9.4643468"><ele>204.0</ele><time>2026-05-04T09:24:19.075Z</time></trkpt><trkpt lat="46.146994" lon="9.4642037"><ele>204.25</ele><time>2026-05-04T09:24:21.076Z</time></trkpt><trkpt lat="46.1470522" lon="9.4640603"><ele>204.5</ele><time>2026-05-04T09:24:23.075Z</time></trkpt><trkpt lat="46.147109" lon="9.4639085"><ele>204.75</ele><time>2026-05-04T09:24:25.075Z</time></trkpt><trkpt lat="46.1471704" lon="9.4637548"><ele>205.0</ele><time>2026-05-04T09:24:27.074Z</time></trkpt><trkpt lat="46.1472332" lon="9.4636118"><ele>205.25</ele><time>2026-05-04T09:24:29.074Z</time></trkpt><trkpt lat="46.1472875" lon="9.4634672"><ele>205.5</ele><time>2026-05-04T09:24:31.076Z</time></trkpt><trkpt lat="46.1473482" lon="9.463324"><ele>205.75</ele><time>2026-05-04T09:24:33.074Z</time></trkpt><trkpt lat="46.1474262" lon="9.4631887"><ele>206.0</ele><time>2026-05-04T09:24:35.075Z</time></trkpt><trkpt lat="46.1475005" lon="9.4630549"><ele>205.5</ele><time>2026-05-04T09:24:37.076Z</time></trkpt><trkpt lat="46.1475804" lon="9.4629217"><ele>205.0</ele><time>2026-05-04T09:24:39.075Z</time></trkpt><trkpt lat="46.147657" lon="9.4628101"><ele>204.5</ele><time>2026-05-04T09:24:41.075Z</time></trkpt><trkpt lat="46.1477346" lon="9.462678"><ele>204.0</ele><time>2026-05-04T09:24:43.075Z</time></trkpt><trkpt lat="46.1478232" lon="9.4625593"><ele>204.0</ele><time>2026-05-04T09:24:45.075Z</time></trkpt><trkpt lat="46.1478729" lon="9.4625008"><ele>204.0</ele><time>2026-05-04T09:24:46.075Z</time></trkpt><trkpt lat="46.147918" lon="9.4624353"><ele>204.0</ele><time>2026-05-04T09:24:47.075Z</time></trkpt><trkpt lat="46.1480098" lon="9.4623121"><ele>204.0</ele><time>2026-05-04T09:24:49.075Z</time></trkpt><trkpt lat="46.1481082" lon="9.4622073"><ele>204.0</ele><time>2026-05-04T09:24:51.076Z</time></trkpt><trkpt lat="46.1482056" lon="9.4621144"><ele>203.79999999999998</ele><time>2026-05-04T09:24:53.076Z</time></trkpt><trkpt lat="46.1482927" lon="9.4620209"><ele>203.6</ele><time>2026-05-04T09:24:55.075Z</time></trkpt><trkpt lat="46.1483767" lon="9.4619215"><ele>203.4</ele><time>2026-05-04T09:24:57.076Z</time></trkpt><trkpt lat="46.1484728" lon="9.461821"><ele>203.2</ele><time>2026-05-04T09:24:59.076Z</time></trkpt><trkpt lat="46.1485595" lon="9.4617152"><ele>203.0</ele><time>2026-05-04T09:25:01.076Z</time></trkpt><trkpt lat="46.1486575" lon="9.4616078"><ele>203.0</ele><time>2026-05-04T09:25:03.075Z</time></trkpt><trkpt lat="46.14876" lon="9.4614906"><ele>203.0</ele><time>2026-05-04T09:25:05.075Z</time></trkpt><trkpt lat="46.1488437" lon="9.4613653"><ele>203.0</ele><time>2026-05-04T09:25:07.077Z</time></trkpt><trkpt lat="46.1489331" lon="9.4612382"><ele>203.0</ele><time>2026-05-04T09:25:09.074Z</time></trkpt><trkpt lat="46.1489778" lon="9.4611741"><ele>203.0</ele><time>2026-05-04T09:25:10.074Z</time></trkpt><trkpt lat="46.1490584" lon="9.4610515"><ele>203.0</ele><time>2026-05-04T09:25:12.076Z</time></trkpt><trkpt lat="46.1491255" lon="9.4609065"><ele>203.0</ele><time>2026-05-04T09:25:14.076Z</time></trkpt><trkpt lat="46.1491664" lon="9.4607654"><ele>203.0</ele><time>2026-05-04T09:25:16.076Z</time></trkpt><trkpt lat="46.1492108" lon="9.4606124"><ele>203.0</ele><time>2026-05-04T09:25:18.076Z</time></trkpt><trkpt lat="46.1492604" lon="9.4604743"><ele>203.0</ele><time>2026-05-04T09:25:20.076Z</time></trkpt><trkpt lat="46.14932" lon="9.4603187"><ele>203.0</ele><time>2026-05-04T09:25:22.075Z</time></trkpt><trkpt lat="46.1493587" lon="9.460243"><ele>203.0</ele><time>2026-05-04T09:25:23.076Z</time></trkpt><trkpt lat="46.1493927" lon="9.4601524"><ele>203.0</ele><time>2026-05-04T09:25:24.075Z</time></trkpt><trkpt lat="46.149465" lon="9.4600245"><ele>203.0</ele><time>2026-05-04T09:25:26.076Z</time></trkpt><trkpt lat="46.1494841" lon="9.4598443"><ele>203.0</ele><time>2026-05-04T09:25:28.076Z</time></trkpt><trkpt lat="46.149529" lon="9.4597467"><ele>203.0</ele><time>2026-05-04T09:25:29.077Z</time></trkpt><trkpt lat="46.1495546" lon="9.4596526"><ele>203.0</ele><time>2026-05-04T09:25:30.075Z</time></trkpt><trkpt lat="46.1495697" lon="9.4595596"><ele>203.0</ele><time>2026-05-04T09:25:31.076Z</time></trkpt><trkpt lat="46.1495808" lon="9.4594654"><ele>203.0</ele><time>2026-05-04T09:25:32.076Z</time></trkpt><trkpt lat="46.1495849" lon="9.4593681"><ele>203.0</ele><time>2026-05-04T09:25:33.076Z</time></trkpt><trkpt lat="46.1495878" lon="9.459275"><ele>203.0</ele><time>2026-05-04T09:25:34.077Z</time></trkpt><trkpt lat="46.1495756" lon="9.4591853"><ele>203.0</ele><time>2026-05-04T09:25:35.076Z</time></trkpt><trkpt lat="46.1495481" lon="9.4590289"><ele>203.0</ele><time>2026-05-04T09:25:37.076Z</time></trkpt><trkpt lat="46.1494975" lon="9.4588769"><ele>203.0</ele><time>2026-05-04T09:25:39.074Z</time></trkpt><trkpt lat="46.1494591" lon="9.4588011"><ele>203.0</ele><time>2026-05-04T09:25:40.077Z</time></trkpt><trkpt lat="46.149421" lon="9.4587274"><ele>203.0</ele><time>2026-05-04T09:25:41.075Z</time></trkpt><trkpt lat="46.1493558" lon="9.4585803"><ele>203.0</ele><time>2026-05-04T09:25:43.077Z</time></trkpt><trkpt lat="46.149286" lon="9.4584388"><ele>203.2</ele><time>2026-05-04T09:25:45.075Z</time></trkpt><trkpt lat="46.1492251" lon="9.4583224"><ele>203.4</ele><time>2026-05-04T09:25:47.074Z</time></trkpt><trkpt lat="46.1491873" lon="9.4582477"><ele>203.6</ele><time>2026-05-04T09:25:48.075Z</time></trkpt><trkpt lat="46.1491071" lon="9.458117"><ele>203.79999999999998</ele><time>2026-05-04T09:25:50.075Z</time></trkpt><trkpt lat="46.1490274" lon="9.4579743"><ele>204.0</ele><time>2026-05-04T09:25:52.075Z</time></trkpt><trkpt lat="46.148941" lon="9.4578409"><ele>203.71428571428572</ele><time>2026-05-04T09:25:54.075Z</time></trkpt><trkpt lat="46.1488943" lon="9.457773"><ele>203.42857142857144</ele><time>2026-05-04T09:25:55.075Z</time></trkpt><trkpt lat="46.1488483" lon="9.4577104"><ele>203.14285714285714</ele><time>2026-05-04T09:25:56.076Z</time></trkpt><trkpt lat="46.1487634" lon="9.4575828"><ele>202.85714285714286</ele><time>2026-05-04T09:25:58.076Z</time></trkpt><trkpt lat="46.148721" lon="9.4575155"><ele>202.57142857142856</ele><time>2026-05-04T09:25:59.075Z</time></trkpt><trkpt lat="46.1486747" lon="9.4574534"><ele>202.28571428571428</ele><time>2026-05-04T09:26:00.076Z</time></trkpt><trkpt lat="46.1486263" lon="9.4573857"><ele>202.0</ele><time>2026-05-04T09:26:01.075Z</time></trkpt><trkpt lat="46.1485388" lon="9.4572681"><ele>202.0</ele><time>2026-05-04T09:26:03.076Z</time></trkpt><trkpt lat="46.1484524" lon="9.457145"><ele>202.0</ele><time>2026-05-04T09:26:05.076Z</time></trkpt><trkpt lat="46.1484054" lon="9.4570818"><ele>202.0</ele><time>2026-05-04T09:26:06.076Z</time></trkpt><trkpt lat="46.148354" lon="9.4570224"><ele>202.0</ele><time>2026-05-04T09:26:07.075Z</time></trkpt><trkpt lat="46.148261" lon="9.456907"><ele>202.0</ele><time>2026-05-04T09:26:09.075Z</time></trkpt><trkpt lat="46.1481649" lon="9.4568039"><ele>202.6</ele><time>2026-05-04T09:26:11.076Z</time></trkpt><trkpt lat="46.1481086" lon="9.4567411"><ele>203.2</ele><time>2026-05-04T09:26:12.077Z</time></trkpt><trkpt lat="46.1480572" lon="9.4566849"><ele>203.8</ele><time>2026-05-04T09:26:13.075Z</time></trkpt><trkpt lat="46.1479589" lon="9.4565743"><ele>204.4</ele><time>2026-05-04T09:26:15.077Z</time></trkpt><trkpt lat="46.1478651" lon="9.4564809"><ele>205.0</ele><time>2026-05-04T09:26:17.076Z</time></trkpt><trkpt lat="46.1477687" lon="9.4563829"><ele>204.5</ele><time>2026-05-04T09:26:19.077Z</time></trkpt><trkpt lat="46.1476661" lon="9.4562858"><ele>204.0</ele><time>2026-05-04T09:26:21.076Z</time></trkpt><trkpt lat="46.1475607" lon="9.4561957"><ele>203.5</ele><time>2026-05-04T09:26:23.075Z</time></trkpt><trkpt lat="46.1474592" lon="9.4561008"><ele>203.0</ele><time>2026-05-04T09:26:25.076Z</time></trkpt><trkpt lat="46.1473557" lon="9.4560199"><ele>202.8</ele><time>2026-05-04T09:26:27.076Z</time></trkpt><trkpt lat="46.1472516" lon="9.4559341"><ele>202.60000000000002</ele><time>2026-05-04T09:26:29.075Z</time></trkpt><trkpt lat="46.1471408" lon="9.4558424"><ele>202.39999999999998</ele><time>2026-05-04T09:26:31.075Z</time></trkpt><trkpt lat="46.1470817" lon="9.4557981"><ele>202.2</ele><time>2026-05-04T09:26:32.074Z</time></trkpt><trkpt lat="46.1470255" lon="9.4557488"><ele>202.0</ele><time>2026-05-04T09:26:33.076Z</time></trkpt><trkpt lat="46.1469269" lon="9.45567"><ele>201.99999999999997</ele><time>2026-05-04T09:26:35.075Z</time></trkpt><trkpt lat="46.1468159" lon="9.4555944"><ele>202.0</ele><time>2026-05-04T09:26:37.077Z</time></trkpt><trkpt lat="46.1467087" lon="9.4555251"><ele>202.0</ele><time>2026-05-04T09:26:39.076Z</time></trkpt><trkpt lat="46.1466487" lon="9.455492"><ele>202.0</ele><time>2026-05-04T09:26:40.076Z</time></trkpt><trkpt lat="46.1465897" lon="9.4554551"><ele>201.99999999999997</ele><time>2026-05-04T09:26:41.076Z</time></trkpt><trkpt lat="46.1465287" lon="9.455419"><ele>202.0</ele><time>2026-05-04T09:26:42.076Z</time></trkpt><trkpt lat="46.1464664" lon="9.4553938"><ele>201.85714285714286</ele><time>2026-05-04T09:26:43.075Z</time></trkpt><trkpt lat="46.1464063" lon="9.4553596"><ele>201.71428571428572</ele><time>2026-05-04T09:26:44.076Z</time></trkpt><trkpt lat="46.1463438" lon="9.4553295"><ele>201.57142857142856</ele><time>2026-05-04T09:26:45.076Z</time></trkpt><trkpt lat="46.1462804" lon="9.4552979"><ele>201.42857142857144</ele><time>2026-05-04T09:26:46.076Z</time></trkpt><trkpt lat="46.1462151" lon="9.4552654"><ele>201.2857142857143</ele><time>2026-05-04T09:26:47.076Z</time></trkpt><trkpt lat="46.1461557" lon="9.4552332"><ele>201.14285714285714</ele><time>2026-05-04T09:26:48.075Z</time></trkpt><trkpt lat="46.1460931" lon="9.4552012"><ele>201.0</ele><time>2026-05-04T09:26:49.076Z</time></trkpt><trkpt lat="46.1459744" lon="9.4551395"><ele>201.0</ele><time>2026-05-04T09:26:51.076Z</time></trkpt><trkpt lat="46.1459101" lon="9.4551101"><ele>201.0</ele><time>2026-05-04T09:26:52.076Z</time></trkpt><trkpt lat="46.1458482" lon="9.4550811"><ele>201.0</ele><time>2026-05-04T09:26:53.075Z</time></trkpt><trkpt lat="46.1457858" lon="9.4550557"><ele>201.0</ele><time>2026-05-04T09:26:54.076Z</time></trkpt><trkpt lat="46.1457212" lon="9.4550326"><ele>201.0</ele><time>2026-05-04T09:26:55.077Z</time></trkpt><trkpt lat="46.145653" lon="9.4550143"><ele>201.0</ele><time>2026-05-04T09:26:56.076Z</time></trkpt><trkpt lat="46.1455864" lon="9.454993"><ele>201.0</ele><time>2026-05-04T09:26:57.074Z</time></trkpt><trkpt lat="46.1455181" lon="9.4549636"><ele>202.0</ele><time>2026-05-04T09:26:58.076Z</time></trkpt><trkpt lat="46.1454589" lon="9.4549325"><ele>203.0</ele><time>2026-05-04T09:26:59.076Z</time></trkpt><trkpt lat="46.1453449" lon="9.4548629"><ele>204.0</ele><time>2026-05-04T09:27:01.076Z</time></trkpt><trkpt lat="46.1452329" lon="9.4547801"><ele>205.0</ele><time>2026-05-04T09:27:03.075Z</time></trkpt><trkpt lat="46.1451109" lon="9.4547081"><ele>206.0</ele><time>2026-05-04T09:27:05.076Z</time></trkpt><trkpt lat="46.1450509" lon="9.454676"><ele>206.00000000000003</ele><time>2026-05-04T09:27:06.075Z</time></trkpt><trkpt lat="46.1449876" lon="9.4546403"><ele>206.0</ele><time>2026-05-04T09:27:07.075Z</time></trkpt><trkpt lat="46.1449195" lon="9.4546044"><ele>206.0</ele><time>2026-05-04T09:27:08.075Z</time></trkpt><trkpt lat="46.1448512" lon="9.4545596"><ele>206.0</ele><time>2026-05-04T09:27:09.076Z</time></trkpt><trkpt lat="46.144789" lon="9.4545228"><ele>206.00000000000003</ele><time>2026-05-04T09:27:10.076Z</time></trkpt><trkpt lat="46.1447263" lon="9.4544892"><ele>206.0</ele><time>2026-05-04T09:27:11.076Z</time></trkpt><trkpt lat="46.1446165" lon="9.4544334"><ele>205.4</ele><time>2026-05-04T09:27:13.076Z</time></trkpt><trkpt lat="46.1445014" lon="9.4543884"><ele>204.8</ele><time>2026-05-04T09:27:15.076Z</time></trkpt><trkpt lat="46.1443861" lon="9.4543619"><ele>204.20000000000002</ele><time>2026-05-04T09:27:17.076Z</time></trkpt><trkpt lat="46.1442743" lon="9.4543284"><ele>203.60000000000002</ele><time>2026-05-04T09:27:19.076Z</time></trkpt><trkpt lat="46.1442159" lon="9.4542152"><ele>203.0</ele><time>2026-05-04T09:27:21.077Z</time></trkpt><trkpt lat="46.1441786" lon="9.4540657"><ele>203.0</ele><time>2026-05-04T09:27:23.075Z</time></trkpt><trkpt lat="46.1441352" lon="9.4539255"><ele>203.0</ele><time>2026-05-04T09:27:25.076Z</time></trkpt><trkpt lat="46.1440775" lon="9.4537766"><ele>203.0</ele><time>2026-05-04T09:27:27.076Z</time></trkpt><trkpt lat="46.1440389" lon="9.4536217"><ele>203.0</ele><time>2026-05-04T09:27:29.076Z</time></trkpt><trkpt lat="46.1440037" lon="9.4534488"><ele>203.0</ele><time>2026-05-04T09:27:31.075Z</time></trkpt><trkpt lat="46.143988" lon="9.4533598"><ele>203.0</ele><time>2026-05-04T09:27:32.075Z</time></trkpt><trkpt lat="46.1439551" lon="9.4532023"><ele>203.0</ele><time>2026-05-04T09:27:34.076Z</time></trkpt><trkpt lat="46.1439158" lon="9.4531276"><ele>203.0</ele><time>2026-05-04T09:27:35.077Z</time></trkpt><trkpt lat="46.1438671" lon="9.4530628"><ele>203.0</ele><time>2026-05-04T09:27:36.076Z</time></trkpt><trkpt lat="46.1438144" lon="9.4530045"><ele>203.0</ele><time>2026-05-04T09:27:37.076Z</time></trkpt><trkpt lat="46.1437613" lon="9.4529455"><ele>203.0</ele><time>2026-05-04T09:27:38.077Z</time></trkpt><trkpt lat="46.1437061" lon="9.4528897"><ele>203.00000000000003</ele><time>2026-05-04T09:27:39.077Z</time></trkpt><trkpt lat="46.1436472" lon="9.4528514"><ele>203.0</ele><time>2026-05-04T09:27:40.074Z</time></trkpt><trkpt lat="46.1435805" lon="9.4528175"><ele>203.0</ele><time>2026-05-04T09:27:41.076Z</time></trkpt><trkpt lat="46.1434556" lon="9.4528033"><ele>203.0</ele><time>2026-05-04T09:27:43.076Z</time></trkpt><trkpt lat="46.1433906" lon="9.4527977"><ele>203.00000000000003</ele><time>2026-05-04T09:27:44.075Z</time></trkpt><trkpt lat="46.143327" lon="9.4527907"><ele>203.0</ele><time>2026-05-04T09:27:45.077Z</time></trkpt><trkpt lat="46.1432043" lon="9.4527958"><ele>203.00000000000003</ele><time>2026-05-04T09:27:47.076Z</time></trkpt><trkpt lat="46.1431393" lon="9.4528012"><ele>203.0</ele><time>2026-05-04T09:27:48.076Z</time></trkpt><trkpt lat="46.1430129" lon="9.4528246"><ele>203.0</ele><time>2026-05-04T09:27:50.075Z</time></trkpt><trkpt lat="46.142943" lon="9.452836"><ele>203.0</ele><time>2026-05-04T09:27:51.076Z</time></trkpt><trkpt lat="46.1428766" lon="9.4528538"><ele>203.00000000000003</ele><time>2026-05-04T09:27:52.077Z</time></trkpt><trkpt lat="46.1428068" lon="9.4528632"><ele>203.0</ele><time>2026-05-04T09:27:53.076Z</time></trkpt><trkpt lat="46.1427396" lon="9.4528609"><ele>203.0</ele><time>2026-05-04T09:27:54.077Z</time></trkpt><trkpt lat="46.1426116" lon="9.4528264"><ele>203.0</ele><time>2026-05-04T09:27:56.075Z</time></trkpt><trkpt lat="46.1424911" lon="9.4527746"><ele>203.0</ele><time>2026-05-04T09:27:58.075Z</time></trkpt><trkpt lat="46.142426" lon="9.4527472"><ele>203.0</ele><time>2026-05-04T09:27:59.076Z</time></trkpt><trkpt lat="46.1423601" lon="9.4527245"><ele>203.0</ele><time>2026-05-04T09:28:00.076Z</time></trkpt><trkpt lat="46.1422922" lon="9.4527016"><ele>203.00000000000003</ele><time>2026-05-04T09:28:01.077Z</time></trkpt><trkpt lat="46.1422253" lon="9.452684"><ele>203.0</ele><time>2026-05-04T09:28:02.075Z</time></trkpt><trkpt lat="46.1421286" lon="9.4527182"><ele>203.0</ele><time>2026-05-04T09:28:04.077Z</time></trkpt><trkpt lat="46.1420274" lon="9.4527699"><ele>203.0</ele><time>2026-05-04T09:28:06.076Z</time></trkpt><trkpt lat="46.1419508" lon="9.4528097"><ele>203.00000000000003</ele><time>2026-05-04T09:28:07.076Z</time></trkpt><trkpt lat="46.1418706" lon="9.4528434"><ele>203.0</ele><time>2026-05-04T09:28:08.076Z</time></trkpt><trkpt lat="46.141797" lon="9.4528879"><ele>203.00000000000003</ele><time>2026-05-04T09:28:09.076Z</time></trkpt><trkpt lat="46.141726" lon="9.4529301"><ele>203.0</ele><time>2026-05-04T09:28:10.076Z</time></trkpt><trkpt lat="46.1416522" lon="9.452973"><ele>203.0</ele><time>2026-05-04T09:28:11.077Z</time></trkpt><trkpt lat="46.1415837" lon="9.453011"><ele>203.0</ele><time>2026-05-04T09:28:12.075Z</time></trkpt><trkpt lat="46.1414468" lon="9.4530886"><ele>203.00000000000003</ele><time>2026-05-04T09:28:14.076Z</time></trkpt><trkpt lat="46.141382" lon="9.4531243"><ele>203.0</ele><time>2026-05-04T09:28:15.075Z</time></trkpt><trkpt lat="46.1413173" lon="9.4531611"><ele>203.2</ele><time>2026-05-04T09:28:16.075Z</time></trkpt><trkpt lat="46.1412573" lon="9.4531923"><ele>203.4</ele><time>2026-05-04T09:28:17.077Z</time></trkpt><trkpt lat="46.1411404" lon="9.453247"><ele>203.6</ele><time>2026-05-04T09:28:19.076Z</time></trkpt><trkpt lat="46.1410352" lon="9.4533096"><ele>203.79999999999998</ele><time>2026-05-04T09:28:21.075Z</time></trkpt><trkpt lat="46.140928" lon="9.4533737"><ele>204.0</ele><time>2026-05-04T09:28:23.076Z</time></trkpt><trkpt lat="46.1408416" lon="9.4534306"><ele>204.0</ele><time>2026-05-04T09:28:25.075Z</time></trkpt><trkpt lat="46.1407649" lon="9.4534767"><ele>204.0</ele><time>2026-05-04T09:28:27.077Z</time></trkpt><trkpt lat="46.1407214" lon="9.4535515"><ele>204.0</ele><time>2026-05-04T09:28:29.076Z</time></trkpt><trkpt lat="46.1406779" lon="9.4536589"><ele>204.0</ele><time>2026-05-04T09:28:31.077Z</time></trkpt><trkpt lat="46.140638" lon="9.4537742"><ele>204.0</ele><time>2026-05-04T09:28:33.075Z</time></trkpt><trkpt lat="46.1405821" lon="9.4538942"><ele>204.0</ele><time>2026-05-04T09:28:35.076Z</time></trkpt><trkpt lat="46.1405266" lon="9.4540261"><ele>204.25</ele><time>2026-05-04T09:28:37.077Z</time></trkpt><trkpt lat="46.1404728" lon="9.4541642"><ele>204.5</ele><time>2026-05-04T09:28:39.075Z</time></trkpt><trkpt lat="46.1404172" lon="9.4543089"><ele>204.75</ele><time>2026-05-04T09:28:41.076Z</time></trkpt><trkpt lat="46.1403656" lon="9.4544533"><ele>205.0</ele><time>2026-05-04T09:28:43.076Z</time></trkpt><trkpt lat="46.1403206" lon="9.4546029"><ele>205.5</ele><time>2026-05-04T09:28:45.075Z</time></trkpt><trkpt lat="46.1402778" lon="9.4547561"><ele>206.0</ele><time>2026-05-04T09:28:47.075Z</time></trkpt><trkpt lat="46.1402356" lon="9.4549093"><ele>206.5</ele><time>2026-05-04T09:28:49.076Z</time></trkpt><trkpt lat="46.1401904" lon="9.4550634"><ele>207.0</ele><time>2026-05-04T09:28:51.076Z</time></trkpt><trkpt lat="46.1401454" lon="9.4552149"><ele>207.0</ele><time>2026-05-04T09:28:53.076Z</time></trkpt><trkpt lat="46.1400907" lon="9.4553692"><ele>207.0</ele><time>2026-05-04T09:28:55.076Z</time></trkpt><trkpt lat="46.1400325" lon="9.4555198"><ele>207.0</ele><time>2026-05-04T09:28:57.076Z</time></trkpt><trkpt lat="46.1399634" lon="9.4556454"><ele>207.0</ele><time>2026-05-04T09:28:59.075Z</time></trkpt><trkpt lat="46.139895" lon="9.4557643"><ele>207.0</ele><time>2026-05-04T09:29:01.077Z</time></trkpt><trkpt lat="46.1398233" lon="9.4558777"><ele>207.0</ele><time>2026-05-04T09:29:03.076Z</time></trkpt><trkpt lat="46.1397481" lon="9.4559782"><ele>207.0</ele><time>2026-05-04T09:29:05.076Z</time></trkpt><trkpt lat="46.1396452" lon="9.4560089"><ele>207.0</ele><time>2026-05-04T09:29:07.075Z</time></trkpt><trkpt lat="46.1395465" lon="9.4559983"><ele>207.0</ele><time>2026-05-04T09:29:09.076Z</time></trkpt><trkpt lat="46.1394431" lon="9.4559863"><ele>207.0</ele><time>2026-05-04T09:29:11.075Z</time></trkpt><trkpt lat="46.1393348" lon="9.4559895"><ele>207.0</ele><time>2026-05-04T09:29:13.076Z</time></trkpt><trkpt lat="46.1392362" lon="9.4559817"><ele>207.0</ele><time>2026-05-04T09:29:15.077Z</time></trkpt><trkpt lat="46.1391424" lon="9.4559702"><ele>207.0</ele><time>2026-05-04T09:29:17.076Z</time></trkpt><trkpt lat="46.1390529" lon="9.4559779"><ele>207.0</ele><time>2026-05-04T09:29:19.076Z</time></trkpt><trkpt lat="46.1389619" lon="9.4560053"><ele>208.6</ele><time>2026-05-04T09:29:21.076Z</time></trkpt><trkpt lat="46.1388789" lon="9.4560079"><ele>210.2</ele><time>2026-05-04T09:29:23.077Z</time></trkpt><trkpt lat="46.1387972" lon="9.4559648"><ele>211.8</ele><time>2026-05-04T09:29:25.076Z</time></trkpt><trkpt lat="46.1387394" lon="9.4558643"><ele>213.4</ele><time>2026-05-04T09:29:27.076Z</time></trkpt><trkpt lat="46.1387194" lon="9.4557234"><ele>215.0</ele><time>2026-05-04T09:29:29.077Z</time></trkpt><trkpt lat="46.1387156" lon="9.4555683"><ele>214.6</ele><time>2026-05-04T09:29:31.076Z</time></trkpt><trkpt lat="46.1387183" lon="9.4554036"><ele>214.2</ele><time>2026-05-04T09:29:33.076Z</time></trkpt><trkpt lat="46.1387167" lon="9.4552321"><ele>213.8</ele><time>2026-05-04T09:29:35.077Z</time></trkpt><trkpt lat="46.1387145" lon="9.4551375"><ele>213.4</ele><time>2026-05-04T09:29:36.076Z</time></trkpt><trkpt lat="46.1387123" lon="9.4549639"><ele>213.0</ele><time>2026-05-04T09:29:38.076Z</time></trkpt><trkpt lat="46.13871" lon="9.4547819"><ele>213.0</ele><time>2026-05-04T09:29:40.078Z</time></trkpt><trkpt lat="46.1387072" lon="9.4546038"><ele>213.0</ele><time>2026-05-04T09:29:42.077Z</time></trkpt><trkpt lat="46.1387044" lon="9.4544207"><ele>213.0</ele><time>2026-05-04T09:29:44.076Z</time></trkpt><trkpt lat="46.1387021" lon="9.4543244"><ele>213.0</ele><time>2026-05-04T09:29:45.076Z</time></trkpt><trkpt lat="46.1387015" lon="9.454228"><ele>213.0</ele><time>2026-05-04T09:29:46.075Z</time></trkpt><trkpt lat="46.1387002" lon="9.4540387"><ele>213.0</ele><time>2026-05-04T09:29:48.076Z</time></trkpt><trkpt lat="46.1387034" lon="9.4539442"><ele>213.0</ele><time>2026-05-04T09:29:49.075Z</time></trkpt><trkpt lat="46.138708" lon="9.4538493"><ele>213.0</ele><time>2026-05-04T09:29:50.075Z</time></trkpt><trkpt lat="46.1387079" lon="9.4536615"><ele>213.0</ele><time>2026-05-04T09:29:52.076Z</time></trkpt><trkpt lat="46.1387106" lon="9.453481"><ele>213.0</ele><time>2026-05-04T09:29:54.077Z</time></trkpt><trkpt lat="46.1387082" lon="9.4533779"><ele>212.99999999999997</ele><time>2026-05-04T09:29:55.076Z</time></trkpt><trkpt lat="46.1387093" lon="9.4532758"><ele>213.0</ele><time>2026-05-04T09:29:56.076Z</time></trkpt><trkpt lat="46.138708" lon="9.453174"><ele>213.0</ele><time>2026-05-04T09:29:57.075Z</time></trkpt><trkpt lat="46.1387102" lon="9.453081"><ele>213.0</ele><time>2026-05-04T09:29:58.075Z</time></trkpt><trkpt lat="46.1387098" lon="9.4529783"><ele>213.0</ele><time>2026-05-04T09:29:59.077Z</time></trkpt><trkpt lat="46.1387097" lon="9.4528803"><ele>212.99999999999997</ele><time>2026-05-04T09:30:00.076Z</time></trkpt><trkpt lat="46.1387072" lon="9.4527787"><ele>213.0</ele><time>2026-05-04T09:30:01.076Z</time></trkpt><trkpt lat="46.138706" lon="9.4526798"><ele>212.99999999999997</ele><time>2026-05-04T09:30:02.077Z</time></trkpt><trkpt lat="46.1387135" lon="9.4525775"><ele>213.0</ele><time>2026-05-04T09:30:03.075Z</time></trkpt><trkpt lat="46.1387231" lon="9.4524792"><ele>213.0</ele><time>2026-05-04T09:30:04.076Z</time></trkpt><trkpt lat="46.138736" lon="9.4523834"><ele>213.0</ele><time>2026-05-04T09:30:05.076Z</time></trkpt><trkpt lat="46.138742" lon="9.4522775"><ele>213.0</ele><time>2026-05-04T09:30:06.077Z</time></trkpt><trkpt lat="46.1387531" lon="9.4521746"><ele>212.99999999999997</ele><time>2026-05-04T09:30:07.076Z</time></trkpt><trkpt lat="46.1387623" lon="9.4520838"><ele>213.0</ele><time>2026-05-04T09:30:08.077Z</time></trkpt><trkpt lat="46.1387694" lon="9.451984"><ele>212.57142857142856</ele><time>2026-05-04T09:30:09.077Z</time></trkpt><trkpt lat="46.138773" lon="9.4518802"><ele>212.14285714285714</ele><time>2026-05-04T09:30:10.076Z</time></trkpt><trkpt lat="46.1387706" lon="9.4517754"><ele>211.71428571428572</ele><time>2026-05-04T09:30:11.077Z</time></trkpt><trkpt lat="46.1387651" lon="9.451684"><ele>211.28571428571428</ele><time>2026-05-04T09:30:12.076Z</time></trkpt><trkpt lat="46.1387615" lon="9.4515873"><ele>210.85714285714286</ele><time>2026-05-04T09:30:13.076Z</time></trkpt><trkpt lat="46.1387532" lon="9.4514902"><ele>210.42857142857142</ele><time>2026-05-04T09:30:14.076Z</time></trkpt><trkpt lat="46.138745" lon="9.4513909"><ele>210.0</ele><time>2026-05-04T09:30:15.075Z</time></trkpt><trkpt lat="46.1387369" lon="9.4512891"><ele>209.33333333333334</ele><time>2026-05-04T09:30:16.076Z</time></trkpt><trkpt lat="46.1387317" lon="9.451192"><ele>208.66666666666669</ele><time>2026-05-04T09:30:17.076Z</time></trkpt><trkpt lat="46.1387284" lon="9.4510923"><ele>208.0</ele><time>2026-05-04T09:30:18.076Z</time></trkpt><trkpt lat="46.1387283" lon="9.4509956"><ele>207.33333333333334</ele><time>2026-05-04T09:30:19.075Z</time></trkpt><trkpt lat="46.1387251" lon="9.4509"><ele>206.66666666666669</ele><time>2026-05-04T09:30:20.076Z</time></trkpt><trkpt lat="46.1387222" lon="9.4507975"><ele>206.0</ele><time>2026-05-04T09:30:21.077Z</time></trkpt><trkpt lat="46.1387183" lon="9.4506046"><ele>206.00000000000003</ele><time>2026-05-04T09:30:23.076Z</time></trkpt><trkpt lat="46.1387156" lon="9.4505096"><ele>206.0</ele><time>2026-05-04T09:30:24.076Z</time></trkpt><trkpt lat="46.1387155" lon="9.4503319"><ele>206.0</ele><time>2026-05-04T09:30:26.075Z</time></trkpt><trkpt lat="46.1387053" lon="9.4502295"><ele>206.0</ele><time>2026-05-04T09:30:27.076Z</time></trkpt><trkpt lat="46.1387111" lon="9.4501314"><ele>206.00000000000003</ele><time>2026-05-04T09:30:28.076Z</time></trkpt><trkpt lat="46.1387142" lon="9.4500341"><ele>206.0</ele><time>2026-05-04T09:30:29.077Z</time></trkpt><trkpt lat="46.1387031" lon="9.4498549"><ele>205.83333333333334</ele><time>2026-05-04T09:30:31.077Z</time></trkpt><trkpt lat="46.1386966" lon="9.4497623"><ele>205.66666666666669</ele><time>2026-05-04T09:30:32.077Z</time></trkpt><trkpt lat="46.1386989" lon="9.4495891"><ele>205.5</ele><time>2026-05-04T09:30:34.076Z</time></trkpt><trkpt lat="46.1386966" lon="9.4494962"><ele>205.33333333333331</ele><time>2026-05-04T09:30:35.075Z</time></trkpt><trkpt lat="46.138692" lon="9.4493123"><ele>205.16666666666666</ele><time>2026-05-04T09:30:37.077Z</time></trkpt><trkpt lat="46.1386918" lon="9.4492194"><ele>205.0</ele><time>2026-05-04T09:30:38.077Z</time></trkpt><trkpt lat="46.1386906" lon="9.4491219"><ele>204.83333333333331</ele><time>2026-05-04T09:30:39.076Z</time></trkpt><trkpt lat="46.1386873" lon="9.4489345"><ele>204.66666666666666</ele><time>2026-05-04T09:30:41.075Z</time></trkpt><trkpt lat="46.1386864" lon="9.448836"><ele>204.5</ele><time>2026-05-04T09:30:42.076Z</time></trkpt><trkpt lat="46.1386901" lon="9.448744"><ele>204.33333333333331</ele><time>2026-05-04T09:30:43.076Z</time></trkpt><trkpt lat="46.1386952" lon="9.448649"><ele>204.16666666666666</ele><time>2026-05-04T09:30:44.076Z</time></trkpt><trkpt lat="46.1386939" lon="9.4485552"><ele>204.0</ele><time>2026-05-04T09:30:45.076Z</time></trkpt><trkpt lat="46.1386871" lon="9.4484611"><ele>204.0</ele><time>2026-05-04T09:30:46.075Z</time></trkpt><trkpt lat="46.1386918" lon="9.4483635"><ele>204.0</ele><time>2026-05-04T09:30:47.077Z</time></trkpt><trkpt lat="46.1387003" lon="9.448267"><ele>204.0</ele><time>2026-05-04T09:30:48.075Z</time></trkpt><trkpt lat="46.1387079" lon="9.4481651"><ele>204.0</ele><time>2026-05-04T09:30:49.078Z</time></trkpt><trkpt lat="46.1387092" lon="9.4480733"><ele>204.0</ele><time>2026-05-04T09:30:50.076Z</time></trkpt><trkpt lat="46.1387089" lon="9.4479765"><ele>204.0</ele><time>2026-05-04T09:30:51.076Z</time></trkpt><trkpt lat="46.1387073" lon="9.4478754"><ele>204.0</ele><time>2026-05-04T09:30:52.077Z</time></trkpt><trkpt lat="46.138706" lon="9.447781"><ele>204.0</ele><time>2026-05-04T09:30:53.077Z</time></trkpt><trkpt lat="46.1387076" lon="9.447596"><ele>204.0</ele><time>2026-05-04T09:30:55.077Z</time></trkpt><trkpt lat="46.1387072" lon="9.4474898"><ele>204.0</ele><time>2026-05-04T09:30:56.076Z</time></trkpt><trkpt lat="46.1387027" lon="9.4473839"><ele>204.0</ele><time>2026-05-04T09:30:57.076Z</time></trkpt><trkpt lat="46.1387031" lon="9.4472887"><ele>204.0</ele><time>2026-05-04T09:30:58.076Z</time></trkpt><trkpt lat="46.1387027" lon="9.4471919"><ele>204.0</ele><time>2026-05-04T09:30:59.077Z</time></trkpt><trkpt lat="46.1387058" lon="9.447088"><ele>204.0</ele><time>2026-05-04T09:31:00.075Z</time></trkpt><trkpt lat="46.1387043" lon="9.4469101"><ele>204.0</ele><time>2026-05-04T09:31:02.077Z</time></trkpt><trkpt lat="46.1386985" lon="9.4468118"><ele>204.0</ele><time>2026-05-04T09:31:03.076Z</time></trkpt><trkpt lat="46.1386952" lon="9.4467174"><ele>204.0</ele><time>2026-05-04T09:31:04.076Z</time></trkpt><trkpt lat="46.1386966" lon="9.4466171"><ele>204.0</ele><time>2026-05-04T09:31:05.076Z</time></trkpt><trkpt lat="46.1387006" lon="9.4465216"><ele>204.0</ele><time>2026-05-04T09:31:06.077Z</time></trkpt><trkpt lat="46.1386989" lon="9.4464247"><ele>204.2</ele><time>2026-05-04T09:31:07.077Z</time></trkpt><trkpt lat="46.1386939" lon="9.4462394"><ele>204.39999999999998</ele><time>2026-05-04T09:31:09.076Z</time></trkpt><trkpt lat="46.1386989" lon="9.4461486"><ele>204.6</ele><time>2026-05-04T09:31:10.076Z</time></trkpt><trkpt lat="46.1387011" lon="9.4459632"><ele>204.8</ele><time>2026-05-04T09:31:12.077Z</time></trkpt><trkpt lat="46.1386969" lon="9.4457859"><ele>205.0</ele><time>2026-05-04T09:31:14.076Z</time></trkpt><trkpt lat="46.138698" lon="9.445693"><ele>204.99999999999997</ele><time>2026-05-04T09:31:15.077Z</time></trkpt><trkpt lat="46.1387059" lon="9.4456008"><ele>205.0</ele><time>2026-05-04T09:31:16.075Z</time></trkpt><trkpt lat="46.1387033" lon="9.4455075"><ele>205.0</ele><time>2026-05-04T09:31:17.076Z</time></trkpt><trkpt lat="46.1387058" lon="9.4454108"><ele>205.0</ele><time>2026-05-04T09:31:18.076Z</time></trkpt><trkpt lat="46.1387069" lon="9.4452247"><ele>204.99999999999997</ele><time>2026-05-04T09:31:20.077Z</time></trkpt><trkpt lat="46.1387046" lon="9.4451313"><ele>205.0</ele><time>2026-05-04T09:31:21.075Z</time></trkpt><trkpt lat="46.1387012" lon="9.4450276"><ele>204.85714285714286</ele><time>2026-05-04T09:31:22.077Z</time></trkpt><trkpt lat="46.1387019" lon="9.4449335"><ele>204.7142857142857</ele><time>2026-05-04T09:31:23.076Z</time></trkpt><trkpt lat="46.1387006" lon="9.444838"><ele>204.57142857142856</ele><time>2026-05-04T09:31:24.076Z</time></trkpt><trkpt lat="46.1386972" lon="9.4447439"><ele>204.42857142857144</ele><time>2026-05-04T09:31:25.077Z</time></trkpt><trkpt lat="46.1386997" lon="9.444647"><ele>204.28571428571428</ele><time>2026-05-04T09:31:26.077Z</time></trkpt><trkpt lat="46.1387012" lon="9.44455"><ele>204.14285714285714</ele><time>2026-05-04T09:31:27.076Z</time></trkpt><trkpt lat="46.1387033" lon="9.4444505"><ele>204.0</ele><time>2026-05-04T09:31:28.076Z</time></trkpt><trkpt lat="46.1387011" lon="9.4443515"><ele>203.85714285714286</ele><time>2026-05-04T09:31:29.075Z</time></trkpt><trkpt lat="46.1386976" lon="9.4442578"><ele>203.71428571428572</ele><time>2026-05-04T09:31:30.077Z</time></trkpt><trkpt lat="46.1386981" lon="9.4441574"><ele>203.57142857142856</ele><time>2026-05-04T09:31:31.077Z</time></trkpt><trkpt lat="46.1387016" lon="9.4440582"><ele>203.42857142857144</ele><time>2026-05-04T09:31:32.077Z</time></trkpt><trkpt lat="46.1387005" lon="9.4439592"><ele>203.28571428571428</ele><time>2026-05-04T09:31:33.075Z</time></trkpt><trkpt lat="46.1387011" lon="9.4438624"><ele>203.14285714285714</ele><time>2026-05-04T09:31:34.075Z</time></trkpt><trkpt lat="46.1386993" lon="9.4437627"><ele>203.0</ele><time>2026-05-04T09:31:35.077Z</time></trkpt><trkpt lat="46.1386992" lon="9.4436704"><ele>202.85714285714286</ele><time>2026-05-04T09:31:36.077Z</time></trkpt><trkpt lat="46.1387015" lon="9.443577"><ele>202.71428571428572</ele><time>2026-05-04T09:31:37.076Z</time></trkpt><trkpt lat="46.138706" lon="9.4434826"><ele>202.57142857142856</ele><time>2026-05-04T09:31:38.075Z</time></trkpt><trkpt lat="46.1387114" lon="9.4433908"><ele>202.42857142857144</ele><time>2026-05-04T09:31:39.076Z</time></trkpt><trkpt lat="46.1387098" lon="9.4432956"><ele>202.28571428571428</ele><time>2026-05-04T09:31:40.077Z</time></trkpt><trkpt lat="46.1387074" lon="9.4431944"><ele>202.14285714285714</ele><time>2026-05-04T09:31:41.078Z</time></trkpt><trkpt lat="46.1387083" lon="9.443102"><ele>202.0</ele><time>2026-05-04T09:31:42.076Z</time></trkpt><trkpt lat="46.1387108" lon="9.4430025"><ele>202.0</ele><time>2026-05-04T09:31:43.077Z</time></trkpt><trkpt lat="46.1387131" lon="9.4429026"><ele>202.0</ele><time>2026-05-04T09:31:44.077Z</time></trkpt><trkpt lat="46.1387174" lon="9.4428065"><ele>202.0</ele><time>2026-05-04T09:31:45.076Z</time></trkpt><trkpt lat="46.13872" lon="9.4426999"><ele>202.0</ele><time>2026-05-04T09:31:46.077Z</time></trkpt><trkpt lat="46.1387186" lon="9.4426074"><ele>202.0</ele><time>2026-05-04T09:31:47.075Z</time></trkpt><trkpt lat="46.1387167" lon="9.4425113"><ele>202.0</ele><time>2026-05-04T09:31:48.076Z</time></trkpt><trkpt lat="46.1387155" lon="9.4424126"><ele>202.0</ele><time>2026-05-04T09:31:49.076Z</time></trkpt><trkpt lat="46.1387091" lon="9.4423064"><ele>202.0</ele><time>2026-05-04T09:31:50.076Z</time></trkpt><trkpt lat="46.1387087" lon="9.4422079"><ele>202.0</ele><time>2026-05-04T09:31:51.075Z</time></trkpt><trkpt lat="46.1387007" lon="9.442108"><ele>202.0</ele><time>2026-05-04T09:31:52.076Z</time></trkpt><trkpt lat="46.1387" lon="9.4420082"><ele>202.0</ele><time>2026-05-04T09:31:53.077Z</time></trkpt><trkpt lat="46.1387024" lon="9.4419057"><ele>202.0</ele><time>2026-05-04T09:31:54.077Z</time></trkpt><trkpt lat="46.1386985" lon="9.4418115"><ele>202.0</ele><time>2026-05-04T09:31:55.077Z</time></trkpt><trkpt lat="46.1386949" lon="9.4417192"><ele>202.0</ele><time>2026-05-04T09:31:56.076Z</time></trkpt><trkpt lat="46.1386973" lon="9.4416221"><ele>201.85714285714286</ele><time>2026-05-04T09:31:57.075Z</time></trkpt><trkpt lat="46.1387015" lon="9.4415195"><ele>201.71428571428572</ele><time>2026-05-04T09:31:58.076Z</time></trkpt><trkpt lat="46.1387016" lon="9.4414198"><ele>201.57142857142856</ele><time>2026-05-04T09:31:59.075Z</time></trkpt><trkpt lat="46.1386992" lon="9.4413265"><ele>201.42857142857144</ele><time>2026-05-04T09:32:00.075Z</time></trkpt><trkpt lat="46.1386999" lon="9.4412348"><ele>201.2857142857143</ele><time>2026-05-04T09:32:01.077Z</time></trkpt><trkpt lat="46.1387003" lon="9.4411436"><ele>201.14285714285714</ele><time>2026-05-04T09:32:02.076Z</time></trkpt><trkpt lat="46.1387032" lon="9.4410489"><ele>201.0</ele><time>2026-05-04T09:32:03.076Z</time></trkpt><trkpt lat="46.1387048" lon="9.4409538"><ele>201.33333333333334</ele><time>2026-05-04T09:32:04.077Z</time></trkpt><trkpt lat="46.1387082" lon="9.4408579"><ele>201.66666666666669</ele><time>2026-05-04T09:32:05.076Z</time></trkpt><trkpt lat="46.1387103" lon="9.4407619"><ele>202.0</ele><time>2026-05-04T09:32:06.078Z</time></trkpt><trkpt lat="46.1387104" lon="9.4406642"><ele>202.33333333333334</ele><time>2026-05-04T09:32:07.078Z</time></trkpt><trkpt lat="46.1387108" lon="9.4404819"><ele>202.66666666666669</ele><time>2026-05-04T09:32:09.076Z</time></trkpt><trkpt lat="46.1387137" lon="9.4403827"><ele>203.0</ele><time>2026-05-04T09:32:10.076Z</time></trkpt><trkpt lat="46.1387265" lon="9.4402109"><ele>203.00000000000003</ele><time>2026-05-04T09:32:12.077Z</time></trkpt><trkpt lat="46.1387374" lon="9.4400296"><ele>203.0</ele><time>2026-05-04T09:32:14.076Z</time></trkpt><trkpt lat="46.1387645" lon="9.4398584"><ele>203.0</ele><time>2026-05-04T09:32:16.077Z</time></trkpt><trkpt lat="46.138776" lon="9.4397684"><ele>203.0</ele><time>2026-05-04T09:32:17.077Z</time></trkpt><trkpt lat="46.1387924" lon="9.4396735"><ele>203.00000000000003</ele><time>2026-05-04T09:32:18.075Z</time></trkpt><trkpt lat="46.1388075" lon="9.4395797"><ele>203.0</ele><time>2026-05-04T09:32:19.077Z</time></trkpt><trkpt lat="46.1388177" lon="9.4394784"><ele>202.85714285714286</ele><time>2026-05-04T09:32:20.077Z</time></trkpt><trkpt lat="46.1388386" lon="9.439386"><ele>202.71428571428572</ele><time>2026-05-04T09:32:21.077Z</time></trkpt><trkpt lat="46.1388526" lon="9.4392971"><ele>202.57142857142856</ele><time>2026-05-04T09:32:22.076Z</time></trkpt><trkpt lat="46.1388715" lon="9.4392096"><ele>202.42857142857144</ele><time>2026-05-04T09:32:23.075Z</time></trkpt><trkpt lat="46.1388952" lon="9.4391211"><ele>202.28571428571428</ele><time>2026-05-04T09:32:24.077Z</time></trkpt><trkpt lat="46.1389127" lon="9.4390258"><ele>202.14285714285714</ele><time>2026-05-04T09:32:25.077Z</time></trkpt><trkpt lat="46.1389326" lon="9.4389278"><ele>202.0</ele><time>2026-05-04T09:32:26.078Z</time></trkpt><trkpt lat="46.1389491" lon="9.4388345"><ele>201.99999999999997</ele><time>2026-05-04T09:32:27.077Z</time></trkpt><trkpt lat="46.1389695" lon="9.438741"><ele>202.0</ele><time>2026-05-04T09:32:28.076Z</time></trkpt><trkpt lat="46.1389904" lon="9.4386494"><ele>202.0</ele><time>2026-05-04T09:32:29.078Z</time></trkpt><trkpt lat="46.1390135" lon="9.4385571"><ele>202.0</ele><time>2026-05-04T09:32:30.077Z</time></trkpt><trkpt lat="46.1390392" lon="9.4384602"><ele>201.99999999999997</ele><time>2026-05-04T09:32:31.075Z</time></trkpt><trkpt lat="46.1390687" lon="9.4382861"><ele>202.0</ele><time>2026-05-04T09:32:33.077Z</time></trkpt><trkpt lat="46.1391044" lon="9.4381253"><ele>201.83333333333331</ele><time>2026-05-04T09:32:35.077Z</time></trkpt><trkpt lat="46.1391459" lon="9.4379787"><ele>201.66666666666666</ele><time>2026-05-04T09:32:37.077Z</time></trkpt><trkpt lat="46.1391693" lon="9.4378916"><ele>201.5</ele><time>2026-05-04T09:32:38.077Z</time></trkpt><trkpt lat="46.1392179" lon="9.4377299"><ele>201.33333333333331</ele><time>2026-05-04T09:32:40.076Z</time></trkpt><trkpt lat="46.1392411" lon="9.4376427"><ele>201.16666666666666</ele><time>2026-05-04T09:32:41.077Z</time></trkpt><trkpt lat="46.1392674" lon="9.4375516"><ele>201.0</ele><time>2026-05-04T09:32:42.076Z</time></trkpt><trkpt lat="46.1393023" lon="9.4374649"><ele>200.83333333333334</ele><time>2026-05-04T09:32:43.075Z</time></trkpt><trkpt lat="46.139328" lon="9.4373646"><ele>200.66666666666669</ele><time>2026-05-04T09:32:44.076Z</time></trkpt><trkpt lat="46.1393726" lon="9.4372108"><ele>200.5</ele><time>2026-05-04T09:32:46.077Z</time></trkpt><trkpt lat="46.1393992" lon="9.4371266"><ele>200.33333333333334</ele><time>2026-05-04T09:32:47.076Z</time></trkpt><trkpt lat="46.1394437" lon="9.4369673"><ele>200.16666666666669</ele><time>2026-05-04T09:32:49.076Z</time></trkpt><trkpt lat="46.1394775" lon="9.4368806"><ele>200.0</ele><time>2026-05-04T09:32:50.077Z</time></trkpt><trkpt lat="46.1395043" lon="9.436788"><ele>199.85714285714286</ele><time>2026-05-04T09:32:51.077Z</time></trkpt><trkpt lat="46.1395278" lon="9.4366997"><ele>199.71428571428572</ele><time>2026-05-04T09:32:52.075Z</time></trkpt><trkpt lat="46.1395565" lon="9.4366078"><ele>199.57142857142856</ele><time>2026-05-04T09:32:53.077Z</time></trkpt><trkpt lat="46.139583" lon="9.4365154"><ele>199.42857142857144</ele><time>2026-05-04T09:32:54.075Z</time></trkpt><trkpt lat="46.1396133" lon="9.4364231"><ele>199.28571428571428</ele><time>2026-05-04T09:32:55.076Z</time></trkpt><trkpt lat="46.1396459" lon="9.4363391"><ele>199.14285714285714</ele><time>2026-05-04T09:32:56.077Z</time></trkpt><trkpt lat="46.1396736" lon="9.4362471"><ele>199.0</ele><time>2026-05-04T09:32:57.076Z</time></trkpt><trkpt lat="46.1397047" lon="9.4361592"><ele>199.33333333333331</ele><time>2026-05-04T09:32:58.077Z</time></trkpt><trkpt lat="46.1397497" lon="9.4359927"><ele>199.66666666666666</ele><time>2026-05-04T09:33:00.076Z</time></trkpt><trkpt lat="46.1398012" lon="9.4358359"><ele>200.0</ele><time>2026-05-04T09:33:02.076Z</time></trkpt><trkpt lat="46.1398312" lon="9.4357519"><ele>200.33333333333331</ele><time>2026-05-04T09:33:03.076Z</time></trkpt><trkpt lat="46.1398563" lon="9.4356633"><ele>200.66666666666666</ele><time>2026-05-04T09:33:04.075Z</time></trkpt><trkpt lat="46.1398876" lon="9.4355841"><ele>201.0</ele><time>2026-05-04T09:33:05.077Z</time></trkpt><trkpt lat="46.1399367" lon="9.4354117"><ele>201.0</ele><time>2026-05-04T09:33:07.078Z</time></trkpt><trkpt lat="46.1399594" lon="9.4353257"><ele>201.0</ele><time>2026-05-04T09:33:08.077Z</time></trkpt><trkpt lat="46.1399888" lon="9.4352401"><ele>201.0</ele><time>2026-05-04T09:33:09.078Z</time></trkpt><trkpt lat="46.1400128" lon="9.4351496"><ele>201.0</ele><time>2026-05-04T09:33:10.077Z</time></trkpt><trkpt lat="46.1400388" lon="9.4350653"><ele>201.0</ele><time>2026-05-04T09:33:11.076Z</time></trkpt><trkpt lat="46.1400686" lon="9.4349771"><ele>201.0</ele><time>2026-05-04T09:33:12.076Z</time></trkpt><trkpt lat="46.140095" lon="9.4348842"><ele>201.0</ele><time>2026-05-04T09:33:13.077Z</time></trkpt><trkpt lat="46.14012" lon="9.4347894"><ele>201.0</ele><time>2026-05-04T09:33:14.077Z</time></trkpt><trkpt lat="46.1401493" lon="9.4347032"><ele>201.0</ele><time>2026-05-04T09:33:15.077Z</time></trkpt><trkpt lat="46.140201" lon="9.4345308"><ele>201.0</ele><time>2026-05-04T09:33:17.075Z</time></trkpt><trkpt lat="46.1402539" lon="9.4343673"><ele>201.0</ele><time>2026-05-04T09:33:19.076Z</time></trkpt><trkpt lat="46.1403137" lon="9.4342263"><ele>201.0</ele><time>2026-05-04T09:33:21.076Z</time></trkpt><trkpt lat="46.1403783" lon="9.4341088"><ele>201.0</ele><time>2026-05-04T09:33:23.077Z</time></trkpt><trkpt lat="46.1404781" lon="9.4340354"><ele>201.0</ele><time>2026-05-04T09:33:25.077Z</time></trkpt><trkpt lat="46.1405945" lon="9.4340502"><ele>201.0</ele><time>2026-05-04T09:33:27.077Z</time></trkpt><trkpt lat="46.1407141" lon="9.434072"><ele>201.0</ele><time>2026-05-04T09:33:29.077Z</time></trkpt><trkpt lat="46.1408288" lon="9.4340999"><ele>201.0</ele><time>2026-05-04T09:33:31.075Z</time></trkpt><trkpt lat="46.1409487" lon="9.4341146"><ele>201.0</ele><time>2026-05-04T09:33:33.077Z</time></trkpt><trkpt lat="46.1410654" lon="9.434132"><ele>201.0</ele><time>2026-05-04T09:33:35.077Z</time></trkpt><trkpt lat="46.1411889" lon="9.4341371"><ele>201.0</ele><time>2026-05-04T09:33:37.078Z</time></trkpt><trkpt lat="46.1413172" lon="9.4341306"><ele>201.0</ele><time>2026-05-04T09:33:39.078Z</time></trkpt><trkpt lat="46.1413827" lon="9.4341343"><ele>201.0</ele><time>2026-05-04T09:33:40.076Z</time></trkpt><trkpt lat="46.1414484" lon="9.4341373"><ele>201.0</ele><time>2026-05-04T09:33:41.076Z</time></trkpt><trkpt lat="46.1415118" lon="9.4341357"><ele>201.0</ele><time>2026-05-04T09:33:42.078Z</time></trkpt><trkpt lat="46.1416235" lon="9.4341122"><ele>201.0</ele><time>2026-05-04T09:33:44.077Z</time></trkpt><trkpt lat="46.1417441" lon="9.4341035"><ele>201.0</ele><time>2026-05-04T09:33:46.076Z</time></trkpt><trkpt lat="46.1418655" lon="9.434085"><ele>201.0</ele><time>2026-05-04T09:33:48.076Z</time></trkpt><trkpt lat="46.1419734" lon="9.43409"><ele>201.0</ele><time>2026-05-04T09:33:50.078Z</time></trkpt><trkpt lat="46.1420892" lon="9.4341089"><ele>201.0</ele><time>2026-05-04T09:33:52.077Z</time></trkpt><trkpt lat="46.1421986" lon="9.4341193"><ele>201.0</ele><time>2026-05-04T09:33:54.079Z</time></trkpt><trkpt lat="46.1423161" lon="9.4341247"><ele>201.0</ele><time>2026-05-04T09:33:56.079Z</time></trkpt><trkpt lat="46.142444" lon="9.4341199"><ele>201.0</ele><time>2026-05-04T09:33:58.076Z</time></trkpt><trkpt lat="46.1425364" lon="9.434063"><ele>201.0</ele><time>2026-05-04T09:34:00.078Z</time></trkpt><trkpt lat="46.1426211" lon="9.4339285"><ele>201.0</ele><time>2026-05-04T09:34:02.075Z</time></trkpt><trkpt lat="46.1426761" lon="9.433779"><ele>201.25</ele><time>2026-05-04T09:34:04.077Z</time></trkpt><trkpt lat="46.142712" lon="9.4336175"><ele>201.5</ele><time>2026-05-04T09:34:06.077Z</time></trkpt><trkpt lat="46.1427645" lon="9.4334751"><ele>201.75</ele><time>2026-05-04T09:34:08.076Z</time></trkpt><trkpt lat="46.1428135" lon="9.4333298"><ele>202.0</ele><time>2026-05-04T09:34:10.077Z</time></trkpt><trkpt lat="46.1428586" lon="9.433181"><ele>202.0</ele><time>2026-05-04T09:34:12.076Z</time></trkpt><trkpt lat="46.1428995" lon="9.4330268"><ele>202.0</ele><time>2026-05-04T09:34:14.076Z</time></trkpt><trkpt lat="46.1429434" lon="9.4328691"><ele>202.0</ele><time>2026-05-04T09:34:16.076Z</time></trkpt><trkpt lat="46.142982" lon="9.4327092"><ele>202.0</ele><time>2026-05-04T09:34:18.076Z</time></trkpt><trkpt lat="46.1430274" lon="9.432556"><ele>201.8</ele><time>2026-05-04T09:34:20.078Z</time></trkpt><trkpt lat="46.1430717" lon="9.4323907"><ele>201.6</ele><time>2026-05-04T09:34:22.078Z</time></trkpt><trkpt lat="46.1431228" lon="9.4322318"><ele>201.4</ele><time>2026-05-04T09:34:24.078Z</time></trkpt><trkpt lat="46.143164" lon="9.4320732"><ele>201.20000000000002</ele><time>2026-05-04T09:34:26.077Z</time></trkpt><trkpt lat="46.1431876" lon="9.4319886"><ele>201.0</ele><time>2026-05-04T09:34:27.076Z</time></trkpt><trkpt lat="46.14324" lon="9.4318331"><ele>201.0</ele><time>2026-05-04T09:34:29.076Z</time></trkpt><trkpt lat="46.1432705" lon="9.4317528"><ele>201.0</ele><time>2026-05-04T09:34:30.077Z</time></trkpt><trkpt lat="46.1433001" lon="9.4316719"><ele>201.0</ele><time>2026-05-04T09:34:31.075Z</time></trkpt><trkpt lat="46.1433327" lon="9.4315861"><ele>201.0</ele><time>2026-05-04T09:34:32.077Z</time></trkpt><trkpt lat="46.1433646" lon="9.4315021"><ele>201.0</ele><time>2026-05-04T09:34:33.076Z</time></trkpt><trkpt lat="46.143402" lon="9.4314246"><ele>201.0</ele><time>2026-05-04T09:34:34.077Z</time></trkpt><trkpt lat="46.1434371" lon="9.4313398"><ele>201.0</ele><time>2026-05-04T09:34:35.078Z</time></trkpt><trkpt lat="46.1434678" lon="9.4312528"><ele>201.0</ele><time>2026-05-04T09:34:36.078Z</time></trkpt><trkpt lat="46.1435233" lon="9.431106"><ele>201.0</ele><time>2026-05-04T09:34:38.077Z</time></trkpt><trkpt lat="46.1435823" lon="9.4309596"><ele>201.0</ele><time>2026-05-04T09:34:40.077Z</time></trkpt><trkpt lat="46.1436437" lon="9.4308147"><ele>201.0</ele><time>2026-05-04T09:34:42.076Z</time></trkpt><trkpt lat="46.1437061" lon="9.4306588"><ele>201.0</ele><time>2026-05-04T09:34:44.076Z</time></trkpt><trkpt lat="46.1437331" lon="9.4305764"><ele>201.0</ele><time>2026-05-04T09:34:45.078Z</time></trkpt><trkpt lat="46.1437666" lon="9.4304938"><ele>201.0</ele><time>2026-05-04T09:34:46.076Z</time></trkpt><trkpt lat="46.1437968" lon="9.4304073"><ele>201.0</ele><time>2026-05-04T09:34:47.077Z</time></trkpt><trkpt lat="46.1438304" lon="9.4303273"><ele>201.0</ele><time>2026-05-04T09:34:48.078Z</time></trkpt><trkpt lat="46.1438891" lon="9.4301723"><ele>201.0</ele><time>2026-05-04T09:34:50.077Z</time></trkpt><trkpt lat="46.1439456" lon="9.4300108"><ele>201.0</ele><time>2026-05-04T09:34:52.078Z</time></trkpt><trkpt lat="46.1439976" lon="9.4298499"><ele>201.0</ele><time>2026-05-04T09:34:54.076Z</time></trkpt><trkpt lat="46.1440515" lon="9.4296997"><ele>201.0</ele><time>2026-05-04T09:34:56.075Z</time></trkpt><trkpt lat="46.1441126" lon="9.4295799"><ele>201.0</ele><time>2026-05-04T09:34:58.078Z</time></trkpt><trkpt lat="46.1441751" lon="9.4294484"><ele>200.75</ele><time>2026-05-04T09:35:00.076Z</time></trkpt><trkpt lat="46.1442285" lon="9.4292999"><ele>200.5</ele><time>2026-05-04T09:35:02.076Z</time></trkpt><trkpt lat="46.1442844" lon="9.4291496"><ele>200.25</ele><time>2026-05-04T09:35:04.076Z</time></trkpt><trkpt lat="46.1443473" lon="9.4290105"><ele>200.0</ele><time>2026-05-04T09:35:06.078Z</time></trkpt><trkpt lat="46.1444023" lon="9.4288736"><ele>200.4</ele><time>2026-05-04T09:35:08.076Z</time></trkpt><trkpt lat="46.1444481" lon="9.4287278"><ele>200.8</ele><time>2026-05-04T09:35:10.078Z</time></trkpt><trkpt lat="46.1445122" lon="9.4285733"><ele>201.2</ele><time>2026-05-04T09:35:12.077Z</time></trkpt><trkpt lat="46.1445737" lon="9.428426"><ele>201.6</ele><time>2026-05-04T09:35:14.077Z</time></trkpt><trkpt lat="46.1446025" lon="9.4283446"><ele>202.0</ele><time>2026-05-04T09:35:15.077Z</time></trkpt><trkpt lat="46.1446655" lon="9.4281883"><ele>201.99999999999997</ele><time>2026-05-04T09:35:17.077Z</time></trkpt><trkpt lat="46.144711" lon="9.4281137"><ele>202.0</ele><time>2026-05-04T09:35:18.078Z</time></trkpt><trkpt lat="46.1447426" lon="9.4280349"><ele>202.0</ele><time>2026-05-04T09:35:19.077Z</time></trkpt><trkpt lat="46.1447725" lon="9.4279522"><ele>202.0</ele><time>2026-05-04T09:35:20.078Z</time></trkpt><trkpt lat="46.1448339" lon="9.4278035"><ele>201.99999999999997</ele><time>2026-05-04T09:35:22.076Z</time></trkpt><trkpt lat="46.1448839" lon="9.4276442"><ele>202.0</ele><time>2026-05-04T09:35:24.078Z</time></trkpt><trkpt lat="46.1449084" lon="9.4275585"><ele>202.0</ele><time>2026-05-04T09:35:25.078Z</time></trkpt><trkpt lat="46.1449309" lon="9.4274724"><ele>202.0</ele><time>2026-05-04T09:35:26.077Z</time></trkpt><trkpt lat="46.144953" lon="9.4272925"><ele>202.0</ele><time>2026-05-04T09:35:28.076Z</time></trkpt><trkpt lat="46.1449492" lon="9.4271023"><ele>202.0</ele><time>2026-05-04T09:35:30.077Z</time></trkpt><trkpt lat="46.144869" lon="9.4269827"><ele>202.0</ele><time>2026-05-04T09:35:32.078Z</time></trkpt><trkpt lat="46.1447735" lon="9.4269091"><ele>202.25</ele><time>2026-05-04T09:35:34.077Z</time></trkpt><trkpt lat="46.1447335" lon="9.4267685"><ele>202.5</ele><time>2026-05-04T09:35:36.077Z</time></trkpt><trkpt lat="46.1447318" lon="9.4266022"><ele>202.75</ele><time>2026-05-04T09:35:38.078Z</time></trkpt><trkpt lat="46.1447239" lon="9.4264304"><ele>203.0</ele><time>2026-05-04T09:35:40.077Z</time></trkpt><trkpt lat="46.144705" lon="9.426272"><ele>203.4</ele><time>2026-05-04T09:35:42.077Z</time></trkpt><trkpt lat="46.144621" lon="9.426188"><ele>203.8</ele><time>2026-05-04T09:35:44.078Z</time></trkpt><trkpt lat="46.1445109" lon="9.426174"><ele>204.2</ele><time>2026-05-04T09:35:46.076Z</time></trkpt><trkpt lat="46.1443862" lon="9.426182"><ele>204.6</ele><time>2026-05-04T09:35:48.078Z</time></trkpt><trkpt lat="46.1443225" lon="9.426192"><ele>205.0</ele><time>2026-05-04T09:35:49.076Z</time></trkpt><trkpt lat="46.1442572" lon="9.4261943"><ele>205.0</ele><time>2026-05-04T09:35:50.077Z</time></trkpt><trkpt lat="46.1441919" lon="9.4262044"><ele>205.0</ele><time>2026-05-04T09:35:51.078Z</time></trkpt><trkpt lat="46.1441275" lon="9.4262148"><ele>205.0</ele><time>2026-05-04T09:35:52.078Z</time></trkpt><trkpt lat="46.1439988" lon="9.4262385"><ele>205.0</ele><time>2026-05-04T09:35:54.075Z</time></trkpt><trkpt lat="46.1438723" lon="9.4262589"><ele>205.0</ele><time>2026-05-04T09:35:56.078Z</time></trkpt><trkpt lat="46.1438081" lon="9.4262648"><ele>204.71428571428572</ele><time>2026-05-04T09:35:57.075Z</time></trkpt><trkpt lat="46.1437458" lon="9.4262856"><ele>204.42857142857142</ele><time>2026-05-04T09:35:58.078Z</time></trkpt><trkpt lat="46.1436818" lon="9.4262937"><ele>204.14285714285714</ele><time>2026-05-04T09:35:59.077Z</time></trkpt><trkpt lat="46.1436176" lon="9.4263065"><ele>203.85714285714286</ele><time>2026-05-04T09:36:00.078Z</time></trkpt><trkpt lat="46.1435501" lon="9.426313"><ele>203.57142857142856</ele><time>2026-05-04T09:36:01.076Z</time></trkpt><trkpt lat="46.1434849" lon="9.4263297"><ele>203.28571428571428</ele><time>2026-05-04T09:36:02.076Z</time></trkpt><trkpt lat="46.1434187" lon="9.426343"><ele>203.0</ele><time>2026-05-04T09:36:03.076Z</time></trkpt><trkpt lat="46.1433538" lon="9.4263551"><ele>203.0</ele><time>2026-05-04T09:36:04.077Z</time></trkpt><trkpt lat="46.1432902" lon="9.4263646"><ele>203.0</ele><time>2026-05-04T09:36:05.076Z</time></trkpt><trkpt lat="46.1432255" lon="9.4263703"><ele>203.0</ele><time>2026-05-04T09:36:06.078Z</time></trkpt><trkpt lat="46.1431612" lon="9.4263787"><ele>203.0</ele><time>2026-05-04T09:36:07.077Z</time></trkpt><trkpt lat="46.1430954" lon="9.4263783"><ele>203.0</ele><time>2026-05-04T09:36:08.077Z</time></trkpt><trkpt lat="46.143031" lon="9.4263755"><ele>203.0</ele><time>2026-05-04T09:36:09.077Z</time></trkpt><trkpt lat="46.1429678" lon="9.4263659"><ele>203.0</ele><time>2026-05-04T09:36:10.078Z</time></trkpt><trkpt lat="46.1428485" lon="9.4263383"><ele>202.60000000000002</ele><time>2026-05-04T09:36:12.077Z</time></trkpt><trkpt lat="46.1427351" lon="9.4263064"><ele>202.20000000000002</ele><time>2026-05-04T09:36:14.077Z</time></trkpt><trkpt lat="46.1426249" lon="9.4262847"><ele>201.8</ele><time>2026-05-04T09:36:16.076Z</time></trkpt><trkpt lat="46.1425166" lon="9.4262569"><ele>201.4</ele><time>2026-05-04T09:36:18.076Z</time></trkpt><trkpt lat="46.1424182" lon="9.4262172"><ele>201.0</ele><time>2026-05-04T09:36:20.076Z</time></trkpt><trkpt lat="46.1422972" lon="9.426186"><ele>201.0</ele><time>2026-05-04T09:36:22.077Z</time></trkpt><trkpt lat="46.1421738" lon="9.4261564"><ele>201.0</ele><time>2026-05-04T09:36:24.076Z</time></trkpt><trkpt lat="46.1420457" lon="9.4261288"><ele>201.0</ele><time>2026-05-04T09:36:26.078Z</time></trkpt><trkpt lat="46.1419782" lon="9.4261102"><ele>201.0</ele><time>2026-05-04T09:36:27.076Z</time></trkpt><trkpt lat="46.1419149" lon="9.4260956"><ele>201.0</ele><time>2026-05-04T09:36:28.077Z</time></trkpt><trkpt lat="46.1417869" lon="9.4260739"><ele>201.0</ele><time>2026-05-04T09:36:30.078Z</time></trkpt><trkpt lat="46.1417182" lon="9.4260624"><ele>201.0</ele><time>2026-05-04T09:36:31.077Z</time></trkpt><trkpt lat="46.141651" lon="9.4260489"><ele>201.0</ele><time>2026-05-04T09:36:32.077Z</time></trkpt><trkpt lat="46.1415799" lon="9.4260405"><ele>201.0</ele><time>2026-05-04T09:36:33.078Z</time></trkpt><trkpt lat="46.1415136" lon="9.4260287"><ele>201.0</ele><time>2026-05-04T09:36:34.077Z</time></trkpt><trkpt lat="46.1414465" lon="9.4260124"><ele>201.0</ele><time>2026-05-04T09:36:35.077Z</time></trkpt><trkpt lat="46.1413171" lon="9.4259911"><ele>201.14285714285714</ele><time>2026-05-04T09:36:37.078Z</time></trkpt><trkpt lat="46.141247" lon="9.4259722"><ele>201.2857142857143</ele><time>2026-05-04T09:36:38.077Z</time></trkpt><trkpt lat="46.1411795" lon="9.4259645"><ele>201.42857142857144</ele><time>2026-05-04T09:36:39.077Z</time></trkpt><trkpt lat="46.1411079" lon="9.4259585"><ele>201.57142857142856</ele><time>2026-05-04T09:36:40.076Z</time></trkpt><trkpt lat="46.1410423" lon="9.4259504"><ele>201.71428571428572</ele><time>2026-05-04T09:36:41.077Z</time></trkpt><trkpt lat="46.1409769" lon="9.4259319"><ele>201.85714285714286</ele><time>2026-05-04T09:36:42.078Z</time></trkpt><trkpt lat="46.1409113" lon="9.425921"><ele>202.0</ele><time>2026-05-04T09:36:43.077Z</time></trkpt><trkpt lat="46.1408449" lon="9.4259069"><ele>202.0</ele><time>2026-05-04T09:36:44.077Z</time></trkpt><trkpt lat="46.1407223" lon="9.4258819"><ele>202.0</ele><time>2026-05-04T09:36:46.077Z</time></trkpt><trkpt lat="46.1406057" lon="9.4258502"><ele>202.0</ele><time>2026-05-04T09:36:48.076Z</time></trkpt><trkpt lat="46.1404875" lon="9.425823"><ele>202.0</ele><time>2026-05-04T09:36:50.076Z</time></trkpt><trkpt lat="46.140374" lon="9.4258066"><ele>201.99999999999997</ele><time>2026-05-04T09:36:52.077Z</time></trkpt><trkpt lat="46.1402463" lon="9.4257846"><ele>202.0</ele><time>2026-05-04T09:36:54.076Z</time></trkpt><trkpt lat="46.1401236" lon="9.4257638"><ele>202.0</ele><time>2026-05-04T09:36:56.077Z</time></trkpt><trkpt lat="46.1400572" lon="9.4257493"><ele>202.0</ele><time>2026-05-04T09:36:57.076Z</time></trkpt><trkpt lat="46.1399944" lon="9.4257396"><ele>201.99999999999997</ele><time>2026-05-04T09:36:58.077Z</time></trkpt><trkpt lat="46.1399317" lon="9.4257241"><ele>202.0</ele><time>2026-05-04T09:36:59.076Z</time></trkpt><trkpt lat="46.1398641" lon="9.4257111"><ele>202.2</ele><time>2026-05-04T09:37:00.078Z</time></trkpt><trkpt lat="46.1398007" lon="9.4256986"><ele>202.39999999999998</ele><time>2026-05-04T09:37:01.077Z</time></trkpt><trkpt lat="46.139737" lon="9.4256853"><ele>202.60000000000002</ele><time>2026-05-04T09:37:02.076Z</time></trkpt><trkpt lat="46.1396196" lon="9.4256717"><ele>202.8</ele><time>2026-05-04T09:37:04.076Z</time></trkpt><trkpt lat="46.1395076" lon="9.4256353"><ele>203.0</ele><time>2026-05-04T09:37:06.078Z</time></trkpt><trkpt lat="46.1394187" lon="9.4255899"><ele>203.00000000000003</ele><time>2026-05-04T09:37:08.078Z</time></trkpt><trkpt lat="46.1393074" lon="9.4255717"><ele>203.0</ele><time>2026-05-04T09:37:10.079Z</time></trkpt><trkpt lat="46.1392312" lon="9.4255751"><ele>203.0</ele><time>2026-05-04T09:37:12.076Z</time></trkpt><trkpt lat="46.1391382" lon="9.42555"><ele>203.0</ele><time>2026-05-04T09:37:14.077Z</time></trkpt><trkpt lat="46.1390673" lon="9.4255205"><ele>203.00000000000003</ele><time>2026-05-04T09:37:16.077Z</time></trkpt><trkpt lat="46.1390035" lon="9.4255163"><ele>203.0</ele><time>2026-05-04T09:37:37.078Z</time></trkpt><trkpt lat="46.1389213" lon="9.4254785"><ele>202.50000000000003</ele><time>2026-05-04T09:37:41.077Z</time></trkpt><trkpt lat="46.1388614" lon="9.4254285"><ele>202.0</ele><time>2026-05-04T09:37:44.078Z</time></trkpt><trkpt lat="46.1387988" lon="9.425349"><ele>201.5</ele><time>2026-05-04T09:37:48.077Z</time></trkpt><trkpt lat="46.1387468" lon="9.4252707"><ele>201.0</ele><time>2026-05-04T09:37:50.077Z</time></trkpt><trkpt lat="46.1386905" lon="9.4251799"><ele>200.50000000000003</ele><time>2026-05-04T09:37:52.077Z</time></trkpt><trkpt lat="46.1386073" lon="9.4251147"><ele>200.0</ele><time>2026-05-04T09:37:54.078Z</time></trkpt><trkpt lat="46.1385121" lon="9.4250944"><ele>200.00000000000003</ele><time>2026-05-04T09:37:56.077Z</time></trkpt><trkpt lat="46.1384181" lon="9.4250699"><ele>200.0</ele><time>2026-05-04T09:37:58.078Z</time></trkpt><trkpt lat="46.138332" lon="9.4250554"><ele>200.0</ele><time>2026-05-04T09:38:00.079Z</time></trkpt><trkpt lat="46.1382674" lon="9.4250242"><ele>200.0</ele><time>2026-05-04T09:38:02.078Z</time></trkpt><trkpt lat="46.1382384" lon="9.4248884"><ele>200.00000000000003</ele><time>2026-05-04T09:38:05.076Z</time></trkpt><trkpt lat="46.138243" lon="9.4247578"><ele>200.0</ele><time>2026-05-04T09:38:07.076Z</time></trkpt><trkpt lat="46.1382432" lon="9.4246173"><ele>200.8</ele><time>2026-05-04T09:38:09.077Z</time></trkpt><trkpt lat="46.1382539" lon="9.4244683"><ele>201.6</ele><time>2026-05-04T09:38:11.078Z</time></trkpt><trkpt lat="46.1382585" lon="9.4242217"><ele>202.39999999999998</ele><time>2026-05-04T09:38:14.077Z</time></trkpt><trkpt lat="46.1382669" lon="9.4241306"><ele>203.2</ele><time>2026-05-04T09:38:15.076Z</time></trkpt><trkpt lat="46.1382681" lon="9.4240385"><ele>204.0</ele><time>2026-05-04T09:38:16.078Z</time></trkpt><trkpt lat="46.1382737" lon="9.4238627"><ele>204.0</ele><time>2026-05-04T09:38:18.077Z</time></trkpt><trkpt lat="46.1382773" lon="9.4237675"><ele>204.0</ele><time>2026-05-04T09:38:19.078Z</time></trkpt><trkpt lat="46.1382741" lon="9.4235846"><ele>204.0</ele><time>2026-05-04T09:38:21.077Z</time></trkpt><trkpt lat="46.1382791" lon="9.4234096"><ele>204.0</ele><time>2026-05-04T09:38:23.078Z</time></trkpt><trkpt lat="46.1382809" lon="9.4232389"><ele>204.0</ele><time>2026-05-04T09:38:25.078Z</time></trkpt><trkpt lat="46.1382771" lon="9.4230644"><ele>203.79999999999998</ele><time>2026-05-04T09:38:27.076Z</time></trkpt><trkpt lat="46.13828" lon="9.422913"><ele>203.6</ele><time>2026-05-04T09:38:29.076Z</time></trkpt><trkpt lat="46.1382894" lon="9.422749"><ele>203.4</ele><time>2026-05-04T09:38:31.078Z</time></trkpt><trkpt lat="46.1382998" lon="9.4226589"><ele>203.2</ele><time>2026-05-04T09:38:32.077Z</time></trkpt><trkpt lat="46.1383057" lon="9.4224764"><ele>203.0</ele><time>2026-05-04T09:38:34.077Z</time></trkpt><trkpt lat="46.1383262" lon="9.4223232"><ele>203.0</ele><time>2026-05-04T09:38:36.077Z</time></trkpt><trkpt lat="46.1383264" lon="9.4222308"><ele>203.0</ele><time>2026-05-04T09:38:37.076Z</time></trkpt><trkpt lat="46.1383358" lon="9.4220545"><ele>203.0</ele><time>2026-05-04T09:38:39.078Z</time></trkpt><trkpt lat="46.1383426" lon="9.4218572"><ele>203.0</ele><time>2026-05-04T09:38:41.077Z</time></trkpt><trkpt lat="46.1383558" lon="9.4216953"><ele>203.0</ele><time>2026-05-04T09:38:43.077Z</time></trkpt><trkpt lat="46.1383586" lon="9.4216017"><ele>202.8</ele><time>2026-05-04T09:38:44.077Z</time></trkpt><trkpt lat="46.1383633" lon="9.4214311"><ele>202.60000000000002</ele><time>2026-05-04T09:38:46.078Z</time></trkpt><trkpt lat="46.1383771" lon="9.4212996"><ele>202.39999999999998</ele><time>2026-05-04T09:38:48.079Z</time></trkpt><trkpt lat="46.1383699" lon="9.4211963"><ele>202.2</ele><time>2026-05-04T09:38:50.077Z</time></trkpt><trkpt lat="46.1383585" lon="9.4210612"><ele>202.0</ele><time>2026-05-04T09:38:52.078Z</time></trkpt><trkpt lat="46.1383665" lon="9.4209138"><ele>202.6</ele><time>2026-05-04T09:38:54.077Z</time></trkpt><trkpt lat="46.1383727" lon="9.420763"><ele>203.2</ele><time>2026-05-04T09:38:56.077Z</time></trkpt><trkpt lat="46.1383846" lon="9.4206286"><ele>203.8</ele><time>2026-05-04T09:38:58.077Z</time></trkpt><trkpt lat="46.1384087" lon="9.420481"><ele>204.4</ele><time>2026-05-04T09:39:00.076Z</time></trkpt><trkpt lat="46.1384319" lon="9.4203292"><ele>205.0</ele><time>2026-05-04T09:39:02.077Z</time></trkpt><trkpt lat="46.1384665" lon="9.4201853"><ele>206.75</ele><time>2026-05-04T09:39:04.078Z</time></trkpt><trkpt lat="46.1384901" lon="9.4200251"><ele>208.5</ele><time>2026-05-04T09:39:06.078Z</time></trkpt><trkpt lat="46.1385091" lon="9.4198539"><ele>210.25</ele><time>2026-05-04T09:39:08.078Z</time></trkpt><trkpt lat="46.1385536" lon="9.4197113"><ele>212.0</ele><time>2026-05-04T09:39:10.078Z</time></trkpt><trkpt lat="46.1385779" lon="9.4195488"><ele>213.0</ele><time>2026-05-04T09:39:12.076Z</time></trkpt><trkpt lat="46.138602" lon="9.4193834"><ele>214.0</ele><time>2026-05-04T09:39:14.077Z</time></trkpt><trkpt lat="46.1386207" lon="9.4192153"><ele>215.0</ele><time>2026-05-04T09:39:16.078Z</time></trkpt><trkpt lat="46.1386292" lon="9.4190673"><ele>216.0</ele><time>2026-05-04T09:39:18.076Z</time></trkpt><trkpt lat="46.1386234" lon="9.4189747"><ele>217.0</ele><time>2026-05-04T09:39:19.078Z</time></trkpt><trkpt lat="46.138614" lon="9.4188167"><ele>218.0</ele><time>2026-05-04T09:39:21.076Z</time></trkpt><trkpt lat="46.1386077" lon="9.4186664"><ele>219.0</ele><time>2026-05-04T09:39:23.078Z</time></trkpt><trkpt lat="46.1385947" lon="9.4185178"><ele>220.0</ele><time>2026-05-04T09:39:25.077Z</time></trkpt><trkpt lat="46.1385794" lon="9.4184103"><ele>221.0</ele><time>2026-05-04T09:39:26.077Z</time></trkpt><trkpt lat="46.1385776" lon="9.4182452"><ele>222.0</ele><time>2026-05-04T09:39:28.076Z</time></trkpt><trkpt lat="46.1385729" lon="9.4180939"><ele>220.6</ele><time>2026-05-04T09:39:30.077Z</time></trkpt><trkpt lat="46.1385558" lon="9.4179704"><ele>219.2</ele><time>2026-05-04T09:39:31.078Z</time></trkpt><trkpt lat="46.1385436" lon="9.4178027"><ele>217.8</ele><time>2026-05-04T09:39:33.076Z</time></trkpt><trkpt lat="46.1385293" lon="9.4177113"><ele>216.4</ele><time>2026-05-04T09:39:34.077Z</time></trkpt><trkpt lat="46.1385107" lon="9.4175587"><ele>215.0</ele><time>2026-05-04T09:39:36.078Z</time></trkpt><trkpt lat="46.138482" lon="9.4174253"><ele>215.0</ele><time>2026-05-04T09:39:38.078Z</time></trkpt><trkpt lat="46.1384449" lon="9.4172942"><ele>215.0</ele><time>2026-05-04T09:39:40.077Z</time></trkpt><trkpt lat="46.1383852" lon="9.4171989"><ele>215.0</ele><time>2026-05-04T09:39:42.076Z</time></trkpt><trkpt lat="46.1383513" lon="9.4171206"><ele>215.0</ele><time>2026-05-04T09:39:43.078Z</time></trkpt><trkpt lat="46.1382909" lon="9.4169732"><ele>215.0</ele><time>2026-05-04T09:39:45.077Z</time></trkpt><trkpt lat="46.1382318" lon="9.4168426"><ele>216.4</ele><time>2026-05-04T09:39:47.076Z</time></trkpt><trkpt lat="46.1381685" lon="9.4167125"><ele>217.8</ele><time>2026-05-04T09:39:49.079Z</time></trkpt><trkpt lat="46.1381233" lon="9.4166078"><ele>219.2</ele><time>2026-05-04T09:39:51.076Z</time></trkpt><trkpt lat="46.1380903" lon="9.4165234"><ele>220.6</ele><time>2026-05-04T09:39:52.077Z</time></trkpt><trkpt lat="46.1380366" lon="9.416394"><ele>222.0</ele><time>2026-05-04T09:39:54.077Z</time></trkpt><trkpt lat="46.1379758" lon="9.4162723"><ele>222.0</ele><time>2026-05-04T09:39:56.076Z</time></trkpt><trkpt lat="46.1379156" lon="9.4161256"><ele>222.0</ele><time>2026-05-04T09:39:58.079Z</time></trkpt><trkpt lat="46.1378679" lon="9.4160037"><ele>222.0</ele><time>2026-05-04T09:40:00.079Z</time></trkpt><trkpt lat="46.1378134" lon="9.4158692"><ele>222.0</ele><time>2026-05-04T09:40:02.078Z</time></trkpt><trkpt lat="46.1377675" lon="9.4157138"><ele>222.0</ele><time>2026-05-04T09:40:04.077Z</time></trkpt><trkpt lat="46.1377194" lon="9.4155582"><ele>219.2</ele><time>2026-05-04T09:40:06.077Z</time></trkpt><trkpt lat="46.1376634" lon="9.4154241"><ele>216.39999999999998</ele><time>2026-05-04T09:40:08.077Z</time></trkpt><trkpt lat="46.1376055" lon="9.4152857"><ele>213.60000000000002</ele><time>2026-05-04T09:40:10.077Z</time></trkpt><trkpt lat="46.1375751" lon="9.4152054"><ele>210.8</ele><time>2026-05-04T09:40:11.076Z</time></trkpt><trkpt lat="46.1375101" lon="9.4150606"><ele>208.0</ele><time>2026-05-04T09:40:13.079Z</time></trkpt><trkpt lat="46.1374505" lon="9.414895"><ele>208.0</ele><time>2026-05-04T09:40:15.077Z</time></trkpt><trkpt lat="46.1374181" lon="9.4148146"><ele>208.0</ele><time>2026-05-04T09:40:16.078Z</time></trkpt><trkpt lat="46.1373588" lon="9.4146765"><ele>208.0</ele><time>2026-05-04T09:40:18.078Z</time></trkpt><trkpt lat="46.1372962" lon="9.4145258"><ele>208.0</ele><time>2026-05-04T09:40:20.076Z</time></trkpt><trkpt lat="46.1372483" lon="9.4143706"><ele>208.0</ele><time>2026-05-04T09:40:22.076Z</time></trkpt><trkpt lat="46.1372013" lon="9.4142268"><ele>211.2</ele><time>2026-05-04T09:40:24.077Z</time></trkpt><trkpt lat="46.1371487" lon="9.4140838"><ele>214.4</ele><time>2026-05-04T09:40:26.077Z</time></trkpt><trkpt lat="46.1370991" lon="9.4139408"><ele>217.59999999999997</ele><time>2026-05-04T09:40:28.078Z</time></trkpt><trkpt lat="46.1370558" lon="9.4138117"><ele>220.79999999999998</ele><time>2026-05-04T09:40:30.076Z</time></trkpt><trkpt lat="46.1370157" lon="9.4137026"><ele>224.0</ele><time>2026-05-04T09:40:32.076Z</time></trkpt><trkpt lat="46.1369856" lon="9.4135709"><ele>224.00000000000003</ele><time>2026-05-04T09:40:34.079Z</time></trkpt><trkpt lat="46.1369539" lon="9.4134508"><ele>224.0</ele><time>2026-05-04T09:40:36.077Z</time></trkpt><trkpt lat="46.1369362" lon="9.4133353"><ele>224.0</ele><time>2026-05-04T09:40:38.077Z</time></trkpt><trkpt lat="46.1369175" lon="9.4132218"><ele>224.0</ele><time>2026-05-04T09:40:40.077Z</time></trkpt><trkpt lat="46.1368938" lon="9.413097"><ele>224.00000000000003</ele><time>2026-05-04T09:40:42.078Z</time></trkpt><trkpt lat="46.1368701" lon="9.4129799"><ele>224.0</ele><time>2026-05-04T09:40:44.078Z</time></trkpt><trkpt lat="46.1368552" lon="9.412852"><ele>222.2</ele><time>2026-05-04T09:40:46.076Z</time></trkpt><trkpt lat="46.13682" lon="9.4127029"><ele>220.39999999999998</ele><time>2026-05-04T09:40:48.079Z</time></trkpt><trkpt lat="46.1367959" lon="9.4125936"><ele>218.6</ele><time>2026-05-04T09:40:50.077Z</time></trkpt><trkpt lat="46.1367564" lon="9.4124552"><ele>216.8</ele><time>2026-05-04T09:40:52.078Z</time></trkpt><trkpt lat="46.1367433" lon="9.4123254"><ele>215.0</ele><time>2026-05-04T09:40:54.077Z</time></trkpt><trkpt lat="46.13671" lon="9.4121883"><ele>213.83333333333334</ele><time>2026-05-04T09:40:56.078Z</time></trkpt><trkpt lat="46.1366921" lon="9.4120755"><ele>212.66666666666669</ele><time>2026-05-04T09:40:58.078Z</time></trkpt><trkpt lat="46.1366579" lon="9.4119563"><ele>211.5</ele><time>2026-05-04T09:41:00.078Z</time></trkpt><trkpt lat="46.1366471" lon="9.4118361"><ele>210.33333333333331</ele><time>2026-05-04T09:41:02.077Z</time></trkpt><trkpt lat="46.1366321" lon="9.4117384"><ele>209.16666666666666</ele><time>2026-05-04T09:41:04.078Z</time></trkpt><trkpt lat="46.1366109" lon="9.4116302"><ele>208.0</ele><time>2026-05-04T09:41:06.078Z</time></trkpt><trkpt lat="46.1365954" lon="9.4115374"><ele>207.99999999999997</ele><time>2026-05-04T09:41:08.077Z</time></trkpt><trkpt lat="46.13658" lon="9.4114414"><ele>208.0</ele><time>2026-05-04T09:41:10.077Z</time></trkpt><trkpt lat="46.1365697" lon="9.4113333"><ele>208.0</ele><time>2026-05-04T09:41:12.078Z</time></trkpt><trkpt lat="46.136557" lon="9.4112064"><ele>208.0</ele><time>2026-05-04T09:41:14.076Z</time></trkpt><trkpt lat="46.1365335" lon="9.4110664"><ele>207.99999999999997</ele><time>2026-05-04T09:41:16.078Z</time></trkpt><trkpt lat="46.1365018" lon="9.4109101"><ele>208.0</ele><time>2026-05-04T09:41:18.077Z</time></trkpt><trkpt lat="46.1364776" lon="9.4108146"><ele>209.42857142857142</ele><time>2026-05-04T09:41:19.079Z</time></trkpt><trkpt lat="46.136451" lon="9.4107126"><ele>210.85714285714286</ele><time>2026-05-04T09:41:20.079Z</time></trkpt><trkpt lat="46.1364321" lon="9.4106197"><ele>212.28571428571428</ele><time>2026-05-04T09:41:21.077Z</time></trkpt><trkpt lat="46.1364169" lon="9.4105206"><ele>213.71428571428572</ele><time>2026-05-04T09:41:22.078Z</time></trkpt><trkpt lat="46.1363982" lon="9.4104226"><ele>215.14285714285717</ele><time>2026-05-04T09:41:23.079Z</time></trkpt><trkpt lat="46.1363774" lon="9.4103257"><ele>216.57142857142858</ele><time>2026-05-04T09:41:24.077Z</time></trkpt><trkpt lat="46.1363607" lon="9.4102299"><ele>218.0</ele><time>2026-05-04T09:41:25.078Z</time></trkpt><trkpt lat="46.1363495" lon="9.4101284"><ele>218.00000000000003</ele><time>2026-05-04T09:41:26.078Z</time></trkpt><trkpt lat="46.1363418" lon="9.4100294"><ele>218.0</ele><time>2026-05-04T09:41:27.078Z</time></trkpt><trkpt lat="46.1363294" lon="9.4099321"><ele>218.0</ele><time>2026-05-04T09:41:28.079Z</time></trkpt><trkpt lat="46.1363141" lon="9.4098358"><ele>218.0</ele><time>2026-05-04T09:41:29.077Z</time></trkpt><trkpt lat="46.1362894" lon="9.4096576"><ele>218.00000000000003</ele><time>2026-05-04T09:41:31.078Z</time></trkpt><trkpt lat="46.1362822" lon="9.4095617"><ele>218.0</ele><time>2026-05-04T09:41:32.077Z</time></trkpt><trkpt lat="46.1362866" lon="9.4093989"><ele>216.60000000000002</ele><time>2026-05-04T09:41:34.077Z</time></trkpt><trkpt lat="46.1362895" lon="9.4092273"><ele>215.20000000000002</ele><time>2026-05-04T09:41:36.078Z</time></trkpt><trkpt lat="46.1363036" lon="9.4090523"><ele>213.8</ele><time>2026-05-04T09:41:38.076Z</time></trkpt><trkpt lat="46.1363392" lon="9.4088937"><ele>212.4</ele><time>2026-05-04T09:41:40.077Z</time></trkpt><trkpt lat="46.1363533" lon="9.4088033"><ele>211.0</ele><time>2026-05-04T09:41:41.077Z</time></trkpt><trkpt lat="46.1363895" lon="9.4086296"><ele>210.83333333333331</ele><time>2026-05-04T09:41:43.079Z</time></trkpt><trkpt lat="46.1364096" lon="9.40854"><ele>210.66666666666666</ele><time>2026-05-04T09:41:44.077Z</time></trkpt><trkpt lat="46.1364528" lon="9.4083718"><ele>210.5</ele><time>2026-05-04T09:41:46.079Z</time></trkpt><trkpt lat="46.1364864" lon="9.4082091"><ele>210.33333333333331</ele><time>2026-05-04T09:41:48.077Z</time></trkpt><trkpt lat="46.1365089" lon="9.4081235"><ele>210.16666666666666</ele><time>2026-05-04T09:41:49.077Z</time></trkpt><trkpt lat="46.1365286" lon="9.4080358"><ele>210.0</ele><time>2026-05-04T09:41:50.079Z</time></trkpt><trkpt lat="46.1365704" lon="9.4078712"><ele>210.0</ele><time>2026-05-04T09:41:52.077Z</time></trkpt><trkpt lat="46.1366096" lon="9.4077069"><ele>210.0</ele><time>2026-05-04T09:41:54.077Z</time></trkpt><trkpt lat="46.1366542" lon="9.4075482"><ele>210.0</ele><time>2026-05-04T09:41:56.078Z</time></trkpt><trkpt lat="46.1366934" lon="9.4073936"><ele>210.0</ele><time>2026-05-04T09:41:58.076Z</time></trkpt><trkpt lat="46.1367356" lon="9.4072426"><ele>210.4</ele><time>2026-05-04T09:42:00.077Z</time></trkpt><trkpt lat="46.1367696" lon="9.4071045"><ele>210.8</ele><time>2026-05-04T09:42:02.08Z</time></trkpt><trkpt lat="46.1368036" lon="9.4069669"><ele>211.2</ele><time>2026-05-04T09:42:04.078Z</time></trkpt><trkpt lat="46.1368375" lon="9.4068197"><ele>211.6</ele><time>2026-05-04T09:42:06.077Z</time></trkpt><trkpt lat="46.1368753" lon="9.4066739"><ele>212.0</ele><time>2026-05-04T09:42:08.078Z</time></trkpt><trkpt lat="46.1369088" lon="9.4065443"><ele>212.0</ele><time>2026-05-04T09:42:10.078Z</time></trkpt><trkpt lat="46.1369439" lon="9.4063971"><ele>212.0</ele><time>2026-05-04T09:42:12.078Z</time></trkpt><trkpt lat="46.1369751" lon="9.4062527"><ele>212.0</ele><time>2026-05-04T09:42:14.078Z</time></trkpt><trkpt lat="46.1370078" lon="9.4061139"><ele>212.0</ele><time>2026-05-04T09:42:16.077Z</time></trkpt><trkpt lat="46.1370406" lon="9.4059669"><ele>212.0</ele><time>2026-05-04T09:42:18.079Z</time></trkpt><trkpt lat="46.1370747" lon="9.4058263"><ele>212.0</ele><time>2026-05-04T09:42:20.077Z</time></trkpt><trkpt lat="46.1371084" lon="9.4056854"><ele>212.0</ele><time>2026-05-04T09:42:22.077Z</time></trkpt><trkpt lat="46.1371357" lon="9.4055481"><ele>212.0</ele><time>2026-05-04T09:42:24.076Z</time></trkpt><trkpt lat="46.1371732" lon="9.4054109"><ele>212.0</ele><time>2026-05-04T09:42:26.079Z</time></trkpt><trkpt lat="46.1372073" lon="9.4052916"><ele>212.0</ele><time>2026-05-04T09:42:28.078Z</time></trkpt><trkpt lat="46.1372317" lon="9.4051553"><ele>212.16666666666669</ele><time>2026-05-04T09:42:30.078Z</time></trkpt><trkpt lat="46.1372229" lon="9.4050462"><ele>212.33333333333334</ele><time>2026-05-04T09:42:32.078Z</time></trkpt><trkpt lat="46.1372208" lon="9.4049336"><ele>212.5</ele><time>2026-05-04T09:42:34.077Z</time></trkpt><trkpt lat="46.1372454" lon="9.4048214"><ele>212.66666666666669</ele><time>2026-05-04T09:42:36.078Z</time></trkpt><trkpt lat="46.1372822" lon="9.4047067"><ele>212.83333333333334</ele><time>2026-05-04T09:42:38.077Z</time></trkpt><trkpt lat="46.1373159" lon="9.4045801"><ele>213.0</ele><time>2026-05-04T09:42:40.078Z</time></trkpt><trkpt lat="46.1373408" lon="9.4044549"><ele>213.0</ele><time>2026-05-04T09:42:42.078Z</time></trkpt><trkpt lat="46.1373723" lon="9.4043222"><ele>213.0</ele><time>2026-05-04T09:42:44.079Z</time></trkpt><trkpt lat="46.1374138" lon="9.4041831"><ele>213.0</ele><time>2026-05-04T09:42:46.078Z</time></trkpt><trkpt lat="46.1374607" lon="9.4040508"><ele>213.0</ele><time>2026-05-04T09:42:48.078Z</time></trkpt><trkpt lat="46.1374908" lon="9.4039124"><ele>213.0</ele><time>2026-05-04T09:42:50.079Z</time></trkpt><trkpt lat="46.1375261" lon="9.4037803"><ele>213.0</ele><time>2026-05-04T09:42:52.077Z</time></trkpt><trkpt lat="46.1375615" lon="9.4036514"><ele>213.0</ele><time>2026-05-04T09:42:54.079Z</time></trkpt><trkpt lat="46.1375931" lon="9.4035182"><ele>213.0</ele><time>2026-05-04T09:42:56.077Z</time></trkpt><trkpt lat="46.1376189" lon="9.4033878"><ele>213.0</ele><time>2026-05-04T09:42:58.078Z</time></trkpt><trkpt lat="46.1376454" lon="9.4032479"><ele>213.0</ele><time>2026-05-04T09:43:00.076Z</time></trkpt><trkpt lat="46.137681" lon="9.4031047"><ele>213.4</ele><time>2026-05-04T09:43:02.078Z</time></trkpt><trkpt lat="46.137717" lon="9.4029737"><ele>213.8</ele><time>2026-05-04T09:43:04.078Z</time></trkpt><trkpt lat="46.1377534" lon="9.4028382"><ele>214.2</ele><time>2026-05-04T09:43:06.077Z</time></trkpt><trkpt lat="46.1377876" lon="9.4027053"><ele>214.6</ele><time>2026-05-04T09:43:08.077Z</time></trkpt><trkpt lat="46.1378164" lon="9.4025715"><ele>215.0</ele><time>2026-05-04T09:43:10.077Z</time></trkpt><trkpt lat="46.1378471" lon="9.4024355"><ele>215.0</ele><time>2026-05-04T09:43:12.078Z</time></trkpt><trkpt lat="46.1378848" lon="9.4022965"><ele>215.0</ele><time>2026-05-04T09:43:14.077Z</time></trkpt><trkpt lat="46.1379132" lon="9.4021545"><ele>215.0</ele><time>2026-05-04T09:43:16.077Z</time></trkpt><trkpt lat="46.1379434" lon="9.4020063"><ele>215.0</ele><time>2026-05-04T09:43:18.079Z</time></trkpt><trkpt lat="46.1379858" lon="9.4018823"><ele>215.0</ele><time>2026-05-04T09:43:20.078Z</time></trkpt><trkpt lat="46.1380347" lon="9.4017617"><ele>215.2</ele><time>2026-05-04T09:43:22.079Z</time></trkpt><trkpt lat="46.1380693" lon="9.4016237"><ele>215.4</ele><time>2026-05-04T09:43:24.078Z</time></trkpt><trkpt lat="46.1381017" lon="9.4014855"><ele>215.60000000000002</ele><time>2026-05-04T09:43:26.076Z</time></trkpt><trkpt lat="46.1381352" lon="9.4013469"><ele>215.8</ele><time>2026-05-04T09:43:28.077Z</time></trkpt><trkpt lat="46.1381719" lon="9.401216"><ele>216.0</ele><time>2026-05-04T09:43:30.078Z</time></trkpt><trkpt lat="46.1381996" lon="9.4010804"><ele>215.60000000000002</ele><time>2026-05-04T09:43:32.079Z</time></trkpt><trkpt lat="46.1382275" lon="9.400961"><ele>215.20000000000002</ele><time>2026-05-04T09:43:34.078Z</time></trkpt><trkpt lat="46.1382703" lon="9.4008273"><ele>214.79999999999998</ele><time>2026-05-04T09:43:36.077Z</time></trkpt><trkpt lat="46.1383083" lon="9.4007007"><ele>214.39999999999998</ele><time>2026-05-04T09:43:38.079Z</time></trkpt><trkpt lat="46.1383469" lon="9.4005587"><ele>214.0</ele><time>2026-05-04T09:43:40.079Z</time></trkpt><trkpt lat="46.1383806" lon="9.4004181"><ele>214.0</ele><time>2026-05-04T09:43:42.078Z</time></trkpt><trkpt lat="46.138416" lon="9.4002774"><ele>213.99999999999997</ele><time>2026-05-04T09:43:44.078Z</time></trkpt><trkpt lat="46.138439" lon="9.4001363"><ele>213.99999999999997</ele><time>2026-05-04T09:43:46.078Z</time></trkpt><trkpt lat="46.1384698" lon="9.4000103"><ele>214.0</ele><time>2026-05-04T09:43:48.079Z</time></trkpt><trkpt lat="46.1385061" lon="9.399886"><ele>214.0</ele><time>2026-05-04T09:43:50.078Z</time></trkpt><trkpt lat="46.1385406" lon="9.3997509"><ele>214.6</ele><time>2026-05-04T09:43:52.077Z</time></trkpt><trkpt lat="46.1385743" lon="9.3996083"><ele>215.2</ele><time>2026-05-04T09:43:54.077Z</time></trkpt><trkpt lat="46.1386089" lon="9.3994722"><ele>215.79999999999998</ele><time>2026-05-04T09:43:56.078Z</time></trkpt><trkpt lat="46.1386362" lon="9.3993302"><ele>216.39999999999998</ele><time>2026-05-04T09:43:58.078Z</time></trkpt><trkpt lat="46.1386718" lon="9.3991975"><ele>217.0</ele><time>2026-05-04T09:44:00.078Z</time></trkpt><trkpt lat="46.1386957" lon="9.3990577"><ele>217.0</ele><time>2026-05-04T09:44:02.077Z</time></trkpt><trkpt lat="46.138738" lon="9.398916"><ele>217.0</ele><time>2026-05-04T09:44:04.078Z</time></trkpt><trkpt lat="46.1387789" lon="9.3987693"><ele>217.0</ele><time>2026-05-04T09:44:06.077Z</time></trkpt><trkpt lat="46.1388199" lon="9.3986292"><ele>217.0</ele><time>2026-05-04T09:44:08.078Z</time></trkpt><trkpt lat="46.1388547" lon="9.3984897"><ele>217.0</ele><time>2026-05-04T09:44:10.078Z</time></trkpt><trkpt lat="46.1388962" lon="9.3983595"><ele>217.16666666666666</ele><time>2026-05-04T09:44:12.077Z</time></trkpt><trkpt lat="46.1389224" lon="9.3982437"><ele>217.33333333333331</ele><time>2026-05-04T09:44:14.079Z</time></trkpt><trkpt lat="46.1389445" lon="9.3981393"><ele>217.5</ele><time>2026-05-04T09:44:16.078Z</time></trkpt><trkpt lat="46.1389731" lon="9.3980235"><ele>217.66666666666669</ele><time>2026-05-04T09:44:18.079Z</time></trkpt><trkpt lat="46.139008" lon="9.3979099"><ele>217.83333333333334</ele><time>2026-05-04T09:44:20.077Z</time></trkpt><trkpt lat="46.1390383" lon="9.3977929"><ele>218.0</ele><time>2026-05-04T09:44:22.077Z</time></trkpt><trkpt lat="46.1390633" lon="9.3976635"><ele>217.8</ele><time>2026-05-04T09:44:24.077Z</time></trkpt><trkpt lat="46.139095" lon="9.3975286"><ele>217.60000000000002</ele><time>2026-05-04T09:44:26.078Z</time></trkpt><trkpt lat="46.1391198" lon="9.3973987"><ele>217.39999999999998</ele><time>2026-05-04T09:44:28.077Z</time></trkpt><trkpt lat="46.1391541" lon="9.3972526"><ele>217.2</ele><time>2026-05-04T09:44:30.077Z</time></trkpt><trkpt lat="46.1392036" lon="9.397111"><ele>217.0</ele><time>2026-05-04T09:44:32.077Z</time></trkpt><trkpt lat="46.1392392" lon="9.3969667"><ele>217.0</ele><time>2026-05-04T09:44:34.077Z</time></trkpt><trkpt lat="46.1392753" lon="9.3968234"><ele>217.0</ele><time>2026-05-04T09:44:36.078Z</time></trkpt><trkpt lat="46.1393135" lon="9.3966818"><ele>217.0</ele><time>2026-05-04T09:44:38.079Z</time></trkpt><trkpt lat="46.1393523" lon="9.396541"><ele>217.0</ele><time>2026-05-04T09:44:40.079Z</time></trkpt><trkpt lat="46.1393933" lon="9.3963969"><ele>217.0</ele><time>2026-05-04T09:44:42.079Z</time></trkpt><trkpt lat="46.139427" lon="9.3962492"><ele>217.0</ele><time>2026-05-04T09:44:44.079Z</time></trkpt><trkpt lat="46.1394608" lon="9.3961205"><ele>217.0</ele><time>2026-05-04T09:44:46.078Z</time></trkpt><trkpt lat="46.1395008" lon="9.3959641"><ele>217.0</ele><time>2026-05-04T09:44:48.079Z</time></trkpt><trkpt lat="46.1395376" lon="9.3958018"><ele>217.0</ele><time>2026-05-04T09:44:50.079Z</time></trkpt><trkpt lat="46.1395745" lon="9.3956467"><ele>217.0</ele><time>2026-05-04T09:44:52.079Z</time></trkpt><trkpt lat="46.1396147" lon="9.3955165"><ele>217.0</ele><time>2026-05-04T09:44:54.079Z</time></trkpt><trkpt lat="46.1396529" lon="9.3953716"><ele>217.0</ele><time>2026-05-04T09:44:56.077Z</time></trkpt><trkpt lat="46.1396903" lon="9.3952125"><ele>217.0</ele><time>2026-05-04T09:44:58.078Z</time></trkpt><trkpt lat="46.1397268" lon="9.3950578"><ele>217.0</ele><time>2026-05-04T09:45:00.078Z</time></trkpt><trkpt lat="46.1397591" lon="9.3949132"><ele>217.0</ele><time>2026-05-04T09:45:02.078Z</time></trkpt><trkpt lat="46.1397798" lon="9.3947856"><ele>216.99999999999997</ele><time>2026-05-04T09:45:04.077Z</time></trkpt><trkpt lat="46.1398078" lon="9.3946718"><ele>217.0</ele><time>2026-05-04T09:45:07.078Z</time></trkpt><trkpt lat="46.1398418" lon="9.3945853"><ele>217.0</ele><time>2026-05-04T09:45:11.079Z</time></trkpt><trkpt lat="46.1399051" lon="9.3945335"><ele>217.0</ele><time>2026-05-04T09:45:14.077Z</time></trkpt><trkpt lat="46.1399399" lon="9.3944549"><ele>216.99999999999997</ele><time>2026-05-04T09:45:16.079Z</time></trkpt><trkpt lat="46.1399976" lon="9.3943682"><ele>217.0</ele><time>2026-05-04T09:45:18.077Z</time></trkpt><trkpt lat="46.1400695" lon="9.3943162"><ele>217.16666666666666</ele><time>2026-05-04T09:45:20.077Z</time></trkpt><trkpt lat="46.140151" lon="9.3942931"><ele>217.33333333333331</ele><time>2026-05-04T09:45:23.077Z</time></trkpt><trkpt lat="46.14019" lon="9.3941765"><ele>217.5</ele><time>2026-05-04T09:45:26.078Z</time></trkpt><trkpt lat="46.1401615" lon="9.3940611"><ele>217.66666666666669</ele><time>2026-05-04T09:45:28.079Z</time></trkpt><trkpt lat="46.1401578" lon="9.3939358"><ele>217.83333333333334</ele><time>2026-05-04T09:45:30.078Z</time></trkpt><trkpt lat="46.1401559" lon="9.393815"><ele>218.0</ele><time>2026-05-04T09:45:32.078Z</time></trkpt><trkpt lat="46.1401459" lon="9.3936873"><ele>218.0</ele><time>2026-05-04T09:45:34.079Z</time></trkpt><trkpt lat="46.1401459" lon="9.3935627"><ele>218.0</ele><time>2026-05-04T09:45:36.079Z</time></trkpt><trkpt lat="46.1401471" lon="9.3934389"><ele>218.0</ele><time>2026-05-04T09:45:38.078Z</time></trkpt><trkpt lat="46.1401455" lon="9.3933071"><ele>218.0</ele><time>2026-05-04T09:45:40.078Z</time></trkpt><trkpt lat="46.140139" lon="9.3931687"><ele>218.0</ele><time>2026-05-04T09:45:42.078Z</time></trkpt><trkpt lat="46.1401363" lon="9.3930229"><ele>218.2</ele><time>2026-05-04T09:45:44.078Z</time></trkpt><trkpt lat="46.1401329" lon="9.3928736"><ele>218.4</ele><time>2026-05-04T09:45:46.078Z</time></trkpt><trkpt lat="46.1401245" lon="9.3927271"><ele>218.59999999999997</ele><time>2026-05-04T09:45:48.078Z</time></trkpt><trkpt lat="46.1401218" lon="9.3925877"><ele>218.79999999999998</ele><time>2026-05-04T09:45:50.079Z</time></trkpt><trkpt lat="46.1401234" lon="9.3924521"><ele>219.0</ele><time>2026-05-04T09:45:52.079Z</time></trkpt><trkpt lat="46.1401262" lon="9.3923174"><ele>219.0</ele><time>2026-05-04T09:45:54.079Z</time></trkpt><trkpt lat="46.1401323" lon="9.3922212"><ele>218.99999999999997</ele><time>2026-05-04T09:45:55.079Z</time></trkpt><trkpt lat="46.1401347" lon="9.3920735"><ele>218.99999999999997</ele><time>2026-05-04T09:45:57.08Z</time></trkpt><trkpt lat="46.1401258" lon="9.3919248"><ele>219.0</ele><time>2026-05-04T09:45:59.079Z</time></trkpt><trkpt lat="46.140124" lon="9.3917671"><ele>219.0</ele><time>2026-05-04T09:46:01.078Z</time></trkpt><trkpt lat="46.1401077" lon="9.3916145"><ele>219.0</ele><time>2026-05-04T09:46:03.079Z</time></trkpt><trkpt lat="46.1401097" lon="9.3914774"><ele>219.0</ele><time>2026-05-04T09:46:05.078Z</time></trkpt><trkpt lat="46.1401058" lon="9.3913481"><ele>219.0</ele><time>2026-05-04T09:46:07.078Z</time></trkpt><trkpt lat="46.1401575" lon="9.3912658"><ele>219.0</ele><time>2026-05-04T09:46:09.078Z</time></trkpt><trkpt lat="46.1402538" lon="9.3913061"><ele>219.0</ele><time>2026-05-04T09:46:11.079Z</time></trkpt><trkpt lat="46.1403266" lon="9.391338"><ele>219.0</ele><time>2026-05-04T09:46:12.078Z</time></trkpt><trkpt lat="46.1404463" lon="9.3913816"><ele>218.71428571428572</ele><time>2026-05-04T09:46:14.078Z</time></trkpt><trkpt lat="46.1405192" lon="9.3913963"><ele>218.42857142857142</ele><time>2026-05-04T09:46:15.077Z</time></trkpt><trkpt lat="46.140584" lon="9.3914235"><ele>218.14285714285714</ele><time>2026-05-04T09:46:16.078Z</time></trkpt><trkpt lat="46.1406549" lon="9.3914369"><ele>217.85714285714286</ele><time>2026-05-04T09:46:17.078Z</time></trkpt><trkpt lat="46.1407275" lon="9.3914575"><ele>217.57142857142856</ele><time>2026-05-04T09:46:18.077Z</time></trkpt><trkpt lat="46.1407968" lon="9.3914908"><ele>217.28571428571428</ele><time>2026-05-04T09:46:19.079Z</time></trkpt><trkpt lat="46.1408711" lon="9.3915245"><ele>217.0</ele><time>2026-05-04T09:46:20.078Z</time></trkpt><trkpt lat="46.140943" lon="9.3915575"><ele>216.33333333333331</ele><time>2026-05-04T09:46:21.078Z</time></trkpt><trkpt lat="46.1410154" lon="9.3915824"><ele>215.66666666666666</ele><time>2026-05-04T09:46:22.078Z</time></trkpt><trkpt lat="46.1410873" lon="9.3916011"><ele>215.0</ele><time>2026-05-04T09:46:23.078Z</time></trkpt><trkpt lat="46.1411704" lon="9.391614"><ele>214.33333333333331</ele><time>2026-05-04T09:46:24.079Z</time></trkpt><trkpt lat="46.1412526" lon="9.391622"><ele>213.66666666666666</ele><time>2026-05-04T09:46:25.079Z</time></trkpt><trkpt lat="46.141326" lon="9.3916274"><ele>213.0</ele><time>2026-05-04T09:46:26.078Z</time></trkpt><trkpt lat="46.1414084" lon="9.3916277"><ele>213.0</ele><time>2026-05-04T09:46:27.078Z</time></trkpt><trkpt lat="46.1414774" lon="9.3916217"><ele>213.0</ele><time>2026-05-04T09:46:28.078Z</time></trkpt><trkpt lat="46.1415453" lon="9.3916152"><ele>213.0</ele><time>2026-05-04T09:46:29.078Z</time></trkpt><trkpt lat="46.1416561" lon="9.3915452"><ele>213.0</ele><time>2026-05-04T09:46:31.078Z</time></trkpt><trkpt lat="46.1417087" lon="9.3914041"><ele>213.0</ele><time>2026-05-04T09:46:33.079Z</time></trkpt><trkpt lat="46.1417339" lon="9.3913155"><ele>213.0</ele><time>2026-05-04T09:46:34.079Z</time></trkpt><trkpt lat="46.1417705" lon="9.3911422"><ele>212.66666666666666</ele><time>2026-05-04T09:46:36.079Z</time></trkpt><trkpt lat="46.1417946" lon="9.3909557"><ele>212.33333333333331</ele><time>2026-05-04T09:46:38.078Z</time></trkpt><trkpt lat="46.1418142" lon="9.3908683"><ele>212.0</ele><time>2026-05-04T09:46:39.079Z</time></trkpt><trkpt lat="46.1418288" lon="9.3907763"><ele>211.66666666666666</ele><time>2026-05-04T09:46:40.078Z</time></trkpt><trkpt lat="46.1418508" lon="9.3906183"><ele>211.33333333333331</ele><time>2026-05-04T09:46:42.078Z</time></trkpt><trkpt lat="46.1418654" lon="9.3905268"><ele>211.0</ele><time>2026-05-04T09:46:43.078Z</time></trkpt><trkpt lat="46.1418927" lon="9.3903663"><ele>210.99999999999997</ele><time>2026-05-04T09:46:45.078Z</time></trkpt><trkpt lat="46.1418904" lon="9.3902068"><ele>211.0</ele><time>2026-05-04T09:46:47.079Z</time></trkpt><trkpt lat="46.1418622" lon="9.3900395"><ele>211.0</ele><time>2026-05-04T09:46:49.078Z</time></trkpt><trkpt lat="46.1418379" lon="9.3899144"><ele>211.0</ele><time>2026-05-04T09:46:51.078Z</time></trkpt><trkpt lat="46.1418236" lon="9.3898251"><ele>210.99999999999997</ele><time>2026-05-04T09:46:52.078Z</time></trkpt><trkpt lat="46.1417993" lon="9.3897393"><ele>211.0</ele><time>2026-05-04T09:46:53.077Z</time></trkpt><trkpt lat="46.1417291" lon="9.3895825"><ele>210.8</ele><time>2026-05-04T09:46:55.079Z</time></trkpt><trkpt lat="46.141671" lon="9.3894293"><ele>210.60000000000002</ele><time>2026-05-04T09:46:57.078Z</time></trkpt><trkpt lat="46.1416524" lon="9.3893347"><ele>210.4</ele><time>2026-05-04T09:46:58.078Z</time></trkpt><trkpt lat="46.14163" lon="9.3892351"><ele>210.2</ele><time>2026-05-04T09:46:59.078Z</time></trkpt><trkpt lat="46.1416178" lon="9.3890912"><ele>210.0</ele><time>2026-05-04T09:47:01.078Z</time></trkpt><trkpt lat="46.141589" lon="9.3889305"><ele>210.16666666666666</ele><time>2026-05-04T09:47:03.08Z</time></trkpt><trkpt lat="46.1415698" lon="9.3888027"><ele>210.33333333333331</ele><time>2026-05-04T09:47:05.078Z</time></trkpt><trkpt lat="46.1415358" lon="9.3887028"><ele>210.5</ele><time>2026-05-04T09:47:07.077Z</time></trkpt><trkpt lat="46.1415046" lon="9.3885754"><ele>210.66666666666666</ele><time>2026-05-04T09:47:09.078Z</time></trkpt><trkpt lat="46.1414682" lon="9.3884742"><ele>210.83333333333331</ele><time>2026-05-04T09:47:11.078Z</time></trkpt><trkpt lat="46.1414242" lon="9.3883478"><ele>211.0</ele><time>2026-05-04T09:47:13.08Z</time></trkpt><trkpt lat="46.1413855" lon="9.3882477"><ele>211.42857142857144</ele><time>2026-05-04T09:47:15.078Z</time></trkpt><trkpt lat="46.1413525" lon="9.3881516"><ele>211.85714285714286</ele><time>2026-05-04T09:47:18.079Z</time></trkpt><trkpt lat="46.1413032" lon="9.3880692"><ele>212.28571428571428</ele><time>2026-05-04T09:47:48.077Z</time></trkpt><trkpt lat="46.1412606" lon="9.3880008"><ele>212.71428571428572</ele><time>2026-05-04T09:47:51.08Z</time></trkpt><trkpt lat="46.141225" lon="9.3879116"><ele>213.14285714285714</ele><time>2026-05-04T09:47:53.079Z</time></trkpt><trkpt lat="46.141198" lon="9.3878108"><ele>213.57142857142858</ele><time>2026-05-04T09:47:55.078Z</time></trkpt><trkpt lat="46.1411664" lon="9.3877059"><ele>214.0</ele><time>2026-05-04T09:47:57.078Z</time></trkpt><trkpt lat="46.1411321" lon="9.387595"><ele>213.99999999999997</ele><time>2026-05-04T09:47:59.078Z</time></trkpt><trkpt lat="46.141104" lon="9.3874819"><ele>214.0</ele><time>2026-05-04T09:48:01.079Z</time></trkpt><trkpt lat="46.1410709" lon="9.3873814"><ele>214.0</ele><time>2026-05-04T09:48:03.08Z</time></trkpt><trkpt lat="46.1410293" lon="9.3872777"><ele>214.0</ele><time>2026-05-04T09:48:05.077Z</time></trkpt><trkpt lat="46.1409861" lon="9.3871636"><ele>213.99999999999997</ele><time>2026-05-04T09:48:07.077Z</time></trkpt><trkpt lat="46.1409391" lon="9.3870438"><ele>214.0</ele><time>2026-05-04T09:48:09.078Z</time></trkpt><trkpt lat="46.1408882" lon="9.3869081"><ele>214.2</ele><time>2026-05-04T09:48:11.078Z</time></trkpt><trkpt lat="46.1408505" lon="9.3868044"><ele>214.39999999999998</ele><time>2026-05-04T09:48:13.077Z</time></trkpt><trkpt lat="46.140811" lon="9.3867"><ele>214.6</ele><time>2026-05-04T09:48:15.078Z</time></trkpt><trkpt lat="46.1407746" lon="9.3865772"><ele>214.8</ele><time>2026-05-04T09:48:17.079Z</time></trkpt><trkpt lat="46.1407408" lon="9.3864524"><ele>215.0</ele><time>2026-05-04T09:48:19.078Z</time></trkpt><trkpt lat="46.1407144" lon="9.3863072"><ele>215.8</ele><time>2026-05-04T09:48:21.079Z</time></trkpt><trkpt lat="46.1406768" lon="9.3861659"><ele>216.6</ele><time>2026-05-04T09:48:23.079Z</time></trkpt><trkpt lat="46.1406506" lon="9.3860805"><ele>217.39999999999998</ele><time>2026-05-04T09:48:24.077Z</time></trkpt><trkpt lat="46.1405981" lon="9.3859493"><ele>218.2</ele><time>2026-05-04T09:48:26.079Z</time></trkpt><trkpt lat="46.1405586" lon="9.3858127"><ele>219.0</ele><time>2026-05-04T09:48:28.079Z</time></trkpt><trkpt lat="46.1405142" lon="9.385673"><ele>219.0</ele><time>2026-05-04T09:48:30.079Z</time></trkpt><trkpt lat="46.1404622" lon="9.3855355"><ele>218.99999999999997</ele><time>2026-05-04T09:48:32.079Z</time></trkpt><trkpt lat="46.1404158" lon="9.3854014"><ele>218.99999999999997</ele><time>2026-05-04T09:48:34.078Z</time></trkpt><trkpt lat="46.1403744" lon="9.3852832"><ele>219.0</ele><time>2026-05-04T09:48:36.079Z</time></trkpt><trkpt lat="46.1403423" lon="9.3851469"><ele>219.0</ele><time>2026-05-04T09:48:38.077Z</time></trkpt><trkpt lat="46.1403033" lon="9.3850223"><ele>218.79999999999998</ele><time>2026-05-04T09:48:40.077Z</time></trkpt><trkpt lat="46.1402605" lon="9.384896"><ele>218.59999999999997</ele><time>2026-05-04T09:48:42.078Z</time></trkpt><trkpt lat="46.140234" lon="9.3847859"><ele>218.4</ele><time>2026-05-04T09:48:44.078Z</time></trkpt><trkpt lat="46.1402473" lon="9.3846698"><ele>218.2</ele><time>2026-05-04T09:48:46.078Z</time></trkpt><trkpt lat="46.1403089" lon="9.384617"><ele>218.0</ele><time>2026-05-04T09:48:48.079Z</time></trkpt><trkpt lat="46.1404695" lon="9.3845464"><ele>218.0</ele><time>2026-05-04T09:48:51.075Z</time></trkpt><trkpt lat="46.1405362" lon="9.3845309"><ele>218.0</ele><time>2026-05-04T09:48:52.081Z</time></trkpt><trkpt lat="46.1406543" lon="9.3844961"><ele>218.0</ele><time>2026-05-04T09:48:54.082Z</time></trkpt><trkpt lat="46.1407711" lon="9.3844646"><ele>218.0</ele><time>2026-05-04T09:48:56.077Z</time></trkpt><trkpt lat="46.1408585" lon="9.3844708"><ele>218.0</ele><time>2026-05-04T09:48:58.073Z</time></trkpt><trkpt lat="46.1409469" lon="9.3844363"><ele>217.16666666666669</ele><time>2026-05-04T09:49:00.079Z</time></trkpt><trkpt lat="46.1410319" lon="9.3844073"><ele>216.33333333333334</ele><time>2026-05-04T09:49:02.077Z</time></trkpt><trkpt lat="46.1411026" lon="9.3843838"><ele>215.5</ele><time>2026-05-04T09:49:04.085Z</time></trkpt><trkpt lat="46.1411884" lon="9.3843553"><ele>214.66666666666669</ele><time>2026-05-04T09:49:07.074Z</time></trkpt><trkpt lat="46.1412565" lon="9.3843341"><ele>213.83333333333334</ele><time>2026-05-04T09:49:09.085Z</time></trkpt><trkpt lat="46.1413242" lon="9.3843074"><ele>213.0</ele><time>2026-05-04T09:49:11.078Z</time></trkpt><trkpt lat="46.1414014" lon="9.3842667"><ele>213.0</ele><time>2026-05-04T09:49:13.081Z</time></trkpt><trkpt lat="46.1414878" lon="9.3842247"><ele>213.0</ele><time>2026-05-04T09:49:15.082Z</time></trkpt><trkpt lat="46.1415983" lon="9.3841809"><ele>213.0</ele><time>2026-05-04T09:49:17.079Z</time></trkpt><trkpt lat="46.1417206" lon="9.3840759"><ele>213.0</ele><time>2026-05-04T09:49:19.082Z</time></trkpt><trkpt lat="46.141793" lon="9.3840117"><ele>213.0</ele><time>2026-05-04T09:49:20.084Z</time></trkpt><trkpt lat="46.1418442" lon="9.3839323"><ele>212.0</ele><time>2026-05-04T09:49:21.083Z</time></trkpt><trkpt lat="46.1418776" lon="9.3838152"><ele>211.0</ele><time>2026-05-04T09:49:22.081Z</time></trkpt><trkpt lat="46.1418998" lon="9.3836986"><ele>210.0</ele><time>2026-05-04T09:49:23.082Z</time></trkpt><trkpt lat="46.1419051" lon="9.3835626"><ele>209.0</ele><time>2026-05-04T09:49:24.082Z</time></trkpt><trkpt lat="46.141902" lon="9.3834258"><ele>208.0</ele><time>2026-05-04T09:49:25.084Z</time></trkpt><trkpt lat="46.1418646" lon="9.3832955"><ele>208.0</ele><time>2026-05-04T09:49:26.082Z</time></trkpt><trkpt lat="46.1418332" lon="9.383184"><ele>208.0</ele><time>2026-05-04T09:49:27.082Z</time></trkpt><trkpt lat="46.1417762" lon="9.3830865"><ele>208.0</ele><time>2026-05-04T09:49:28.082Z</time></trkpt><trkpt lat="46.1417051" lon="9.3829847"><ele>208.0</ele><time>2026-05-04T09:49:29.077Z</time></trkpt><trkpt lat="46.1415754" lon="9.3829909"><ele>208.0</ele><time>2026-05-04T09:49:30.086Z</time></trkpt><trkpt lat="46.1414791" lon="9.3829818"><ele>208.66666666666666</ele><time>2026-05-04T09:49:31.073Z</time></trkpt><trkpt lat="46.1413876" lon="9.3830041"><ele>209.33333333333331</ele><time>2026-05-04T09:49:32.085Z</time></trkpt><trkpt lat="46.1413069" lon="9.3830194"><ele>210.0</ele><time>2026-05-04T09:49:33.076Z</time></trkpt><trkpt lat="46.1412248" lon="9.3830058"><ele>210.66666666666669</ele><time>2026-05-04T09:49:34.081Z</time></trkpt><trkpt lat="46.1411662" lon="9.3829415"><ele>211.33333333333334</ele><time>2026-05-04T09:49:35.074Z</time></trkpt><trkpt lat="46.1411141" lon="9.3828595"><ele>212.0</ele><time>2026-05-04T09:49:36.084Z</time></trkpt><trkpt lat="46.1410879" lon="9.3827526"><ele>212.00000000000003</ele><time>2026-05-04T09:49:37.076Z</time></trkpt><trkpt lat="46.1410704" lon="9.3826422"><ele>212.0</ele><time>2026-05-04T09:49:38.081Z</time></trkpt><trkpt lat="46.141042" lon="9.3824665"><ele>212.0</ele><time>2026-05-04T09:49:40.078Z</time></trkpt><trkpt lat="46.141022" lon="9.3823605"><ele>212.0</ele><time>2026-05-04T09:49:41.084Z</time></trkpt><trkpt lat="46.1409964" lon="9.3822655"><ele>212.00000000000003</ele><time>2026-05-04T09:49:42.076Z</time></trkpt><trkpt lat="46.1409715" lon="9.3821672"><ele>212.0</ele><time>2026-05-04T09:49:43.085Z</time></trkpt><trkpt lat="46.140949" lon="9.382062"><ele>211.6</ele><time>2026-05-04T09:49:44.08Z</time></trkpt><trkpt lat="46.1409289" lon="9.3819584"><ele>211.2</ele><time>2026-05-04T09:49:45.08Z</time></trkpt><trkpt lat="46.1408702" lon="9.3817619"><ele>210.8</ele><time>2026-05-04T09:49:47.081Z</time></trkpt><trkpt lat="46.1408433" lon="9.3816589"><ele>210.4</ele><time>2026-05-04T09:49:48.085Z</time></trkpt><trkpt lat="46.1408082" lon="9.3815587"><ele>210.0</ele><time>2026-05-04T09:49:49.083Z</time></trkpt><trkpt lat="46.1407715" lon="9.3813761"><ele>210.16666666666666</ele><time>2026-05-04T09:49:51.081Z</time></trkpt><trkpt lat="46.1407378" lon="9.3812011"><ele>210.33333333333331</ele><time>2026-05-04T09:49:53.079Z</time></trkpt><trkpt lat="46.1407336" lon="9.3811091"><ele>210.5</ele><time>2026-05-04T09:49:54.083Z</time></trkpt><trkpt lat="46.1407234" lon="9.3809893"><ele>210.66666666666666</ele><time>2026-05-04T09:49:55.08Z</time></trkpt><trkpt lat="46.1406997" lon="9.3808667"><ele>210.83333333333331</ele><time>2026-05-04T09:49:56.074Z</time></trkpt><trkpt lat="46.140681" lon="9.380779"><ele>211.0</ele><time>2026-05-04T09:49:57.073Z</time></trkpt><trkpt lat="46.1406525" lon="9.3806462"><ele>211.16666666666666</ele><time>2026-05-04T09:49:58.081Z</time></trkpt><trkpt lat="46.1406125" lon="9.3805147"><ele>211.33333333333331</ele><time>2026-05-04T09:49:59.072Z</time></trkpt><trkpt lat="46.1405822" lon="9.3803981"><ele>211.5</ele><time>2026-05-04T09:50:00.075Z</time></trkpt><trkpt lat="46.1405473" lon="9.3802854"><ele>211.66666666666669</ele><time>2026-05-04T09:50:01.085Z</time></trkpt><trkpt lat="46.1405175" lon="9.3801653"><ele>211.83333333333334</ele><time>2026-05-04T09:50:02.085Z</time></trkpt><trkpt lat="46.1404843" lon="9.3800623"><ele>212.0</ele><time>2026-05-04T09:50:03.079Z</time></trkpt><trkpt lat="46.1404674" lon="9.3799673"><ele>212.0</ele><time>2026-05-04T09:50:04.084Z</time></trkpt><trkpt lat="46.1404464" lon="9.37986"><ele>212.0</ele><time>2026-05-04T09:50:05.086Z</time></trkpt><trkpt lat="46.1404269" lon="9.379768"><ele>212.0</ele><time>2026-05-04T09:50:06.082Z</time></trkpt><trkpt lat="46.1403998" lon="9.37966"><ele>212.0</ele><time>2026-05-04T09:50:07.082Z</time></trkpt><trkpt lat="46.1403831" lon="9.3795551"><ele>212.0</ele><time>2026-05-04T09:50:08.077Z</time></trkpt><trkpt lat="46.1403546" lon="9.3794523"><ele>212.0</ele><time>2026-05-04T09:50:09.073Z</time></trkpt><trkpt lat="46.1403303" lon="9.3793544"><ele>212.0</ele><time>2026-05-04T09:50:10.085Z</time></trkpt><trkpt lat="46.1402908" lon="9.3792437"><ele>211.66666666666669</ele><time>2026-05-04T09:50:11.077Z</time></trkpt><trkpt lat="46.1402683" lon="9.3791176"><ele>211.33333333333334</ele><time>2026-05-04T09:50:12.085Z</time></trkpt><trkpt lat="46.1402271" lon="9.3789342"><ele>211.0</ele><time>2026-05-04T09:50:14.072Z</time></trkpt><trkpt lat="46.1402124" lon="9.3788388"><ele>210.66666666666669</ele><time>2026-05-04T09:50:15.078Z</time></trkpt><trkpt lat="46.1401968" lon="9.3787394"><ele>210.33333333333334</ele><time>2026-05-04T09:50:16.074Z</time></trkpt><trkpt lat="46.1401668" lon="9.3786546"><ele>210.0</ele><time>2026-05-04T09:50:17.076Z</time></trkpt><trkpt lat="46.1401311" lon="9.3785503"><ele>209.83333333333334</ele><time>2026-05-04T09:50:18.076Z</time></trkpt><trkpt lat="46.1400996" lon="9.3784649"><ele>209.66666666666669</ele><time>2026-05-04T09:50:19.081Z</time></trkpt><trkpt lat="46.1400673" lon="9.3783725"><ele>209.5</ele><time>2026-05-04T09:50:20.076Z</time></trkpt><trkpt lat="46.1400075" lon="9.3782279"><ele>209.33333333333334</ele><time>2026-05-04T09:50:22.076Z</time></trkpt><trkpt lat="46.1399658" lon="9.3781393"><ele>209.16666666666669</ele><time>2026-05-04T09:50:23.073Z</time></trkpt><trkpt lat="46.139917" lon="9.3780501"><ele>209.0</ele><time>2026-05-04T09:50:24.085Z</time></trkpt><trkpt lat="46.1398479" lon="9.3778963"><ele>209.00000000000003</ele><time>2026-05-04T09:50:26.075Z</time></trkpt><trkpt lat="46.139797" lon="9.3778022"><ele>209.0</ele><time>2026-05-04T09:50:27.076Z</time></trkpt><trkpt lat="46.1397548" lon="9.3777163"><ele>209.0</ele><time>2026-05-04T09:50:28.078Z</time></trkpt><trkpt lat="46.139697" lon="9.3776231"><ele>209.0</ele><time>2026-05-04T09:50:29.073Z</time></trkpt><trkpt lat="46.1396511" lon="9.3775437"><ele>209.00000000000003</ele><time>2026-05-04T09:50:30.073Z</time></trkpt><trkpt lat="46.1396077" lon="9.3774604"><ele>209.0</ele><time>2026-05-04T09:50:31.074Z</time></trkpt><trkpt lat="46.1395724" lon="9.3773745"><ele>209.0</ele><time>2026-05-04T09:50:32.083Z</time></trkpt><trkpt lat="46.1395392" lon="9.3772935"><ele>209.0</ele><time>2026-05-04T09:50:33.075Z</time></trkpt><trkpt lat="46.1395014" lon="9.3771958"><ele>209.0</ele><time>2026-05-04T09:50:34.077Z</time></trkpt><trkpt lat="46.1394703" lon="9.3771022"><ele>209.0</ele><time>2026-05-04T09:50:35.078Z</time></trkpt><trkpt lat="46.1394308" lon="9.3770098"><ele>209.0</ele><time>2026-05-04T09:50:36.079Z</time></trkpt><trkpt lat="46.1393958" lon="9.3769224"><ele>209.0</ele><time>2026-05-04T09:50:37.085Z</time></trkpt><trkpt lat="46.139356" lon="9.3768272"><ele>209.0</ele><time>2026-05-04T09:50:38.083Z</time></trkpt><trkpt lat="46.13932" lon="9.3767386"><ele>208.85714285714286</ele><time>2026-05-04T09:50:39.079Z</time></trkpt><trkpt lat="46.1392902" lon="9.3766408"><ele>208.71428571428572</ele><time>2026-05-04T09:50:40.077Z</time></trkpt><trkpt lat="46.1392622" lon="9.3765465"><ele>208.57142857142856</ele><time>2026-05-04T09:50:41.076Z</time></trkpt><trkpt lat="46.139234" lon="9.3764567"><ele>208.42857142857144</ele><time>2026-05-04T09:50:42.078Z</time></trkpt><trkpt lat="46.1392007" lon="9.376372"><ele>208.2857142857143</ele><time>2026-05-04T09:50:43.081Z</time></trkpt><trkpt lat="46.1391691" lon="9.3762737"><ele>208.14285714285714</ele><time>2026-05-04T09:50:44.083Z</time></trkpt><trkpt lat="46.1391425" lon="9.376172"><ele>208.0</ele><time>2026-05-04T09:50:45.081Z</time></trkpt><trkpt lat="46.1391171" lon="9.3760625"><ele>208.16666666666666</ele><time>2026-05-04T09:50:46.072Z</time></trkpt><trkpt lat="46.1390901" lon="9.3759609"><ele>208.33333333333331</ele><time>2026-05-04T09:50:47.083Z</time></trkpt><trkpt lat="46.1390651" lon="9.3758639"><ele>208.5</ele><time>2026-05-04T09:50:48.083Z</time></trkpt><trkpt lat="46.1390349" lon="9.3757595"><ele>208.66666666666669</ele><time>2026-05-04T09:50:49.073Z</time></trkpt><trkpt lat="46.138998" lon="9.3756501"><ele>208.83333333333334</ele><time>2026-05-04T09:50:50.074Z</time></trkpt><trkpt lat="46.1389571" lon="9.3755466"><ele>209.0</ele><time>2026-05-04T09:50:51.076Z</time></trkpt><trkpt lat="46.1389183" lon="9.3754466"><ele>208.66666666666669</ele><time>2026-05-04T09:50:52.079Z</time></trkpt><trkpt lat="46.1388722" lon="9.3753519"><ele>208.33333333333334</ele><time>2026-05-04T09:50:53.075Z</time></trkpt><trkpt lat="46.1388291" lon="9.3752529"><ele>208.0</ele><time>2026-05-04T09:50:54.079Z</time></trkpt><trkpt lat="46.1387915" lon="9.3751608"><ele>207.66666666666669</ele><time>2026-05-04T09:50:55.073Z</time></trkpt><trkpt lat="46.1387546" lon="9.3750684"><ele>207.33333333333334</ele><time>2026-05-04T09:50:56.08Z</time></trkpt><trkpt lat="46.1387301" lon="9.3749693"><ele>207.0</ele><time>2026-05-04T09:50:57.081Z</time></trkpt><trkpt lat="46.138711" lon="9.3748563"><ele>207.0</ele><time>2026-05-04T09:50:58.084Z</time></trkpt><trkpt lat="46.1386982" lon="9.3747383"><ele>207.0</ele><time>2026-05-04T09:50:59.081Z</time></trkpt><trkpt lat="46.1386821" lon="9.3746249"><ele>207.0</ele><time>2026-05-04T09:51:00.082Z</time></trkpt><trkpt lat="46.1386732" lon="9.3745133"><ele>207.0</ele><time>2026-05-04T09:51:01.077Z</time></trkpt><trkpt lat="46.1386574" lon="9.3744041"><ele>207.0</ele><time>2026-05-04T09:51:02.076Z</time></trkpt><trkpt lat="46.1386476" lon="9.3742961"><ele>207.0</ele><time>2026-05-04T09:51:03.078Z</time></trkpt><trkpt lat="46.1386386" lon="9.374199"><ele>206.5</ele><time>2026-05-04T09:51:04.075Z</time></trkpt><trkpt lat="46.138631" lon="9.3740865"><ele>206.0</ele><time>2026-05-04T09:51:05.076Z</time></trkpt><trkpt lat="46.1386253" lon="9.3739742"><ele>205.5</ele><time>2026-05-04T09:51:06.085Z</time></trkpt><trkpt lat="46.1386157" lon="9.3738606"><ele>205.0</ele><time>2026-05-04T09:51:07.077Z</time></trkpt><trkpt lat="46.1386055" lon="9.3737515"><ele>204.5</ele><time>2026-05-04T09:51:08.075Z</time></trkpt><trkpt lat="46.1385949" lon="9.3736295"><ele>204.0</ele><time>2026-05-04T09:51:09.079Z</time></trkpt><trkpt lat="46.1385915" lon="9.3735122"><ele>203.5</ele><time>2026-05-04T09:51:10.076Z</time></trkpt><trkpt lat="46.1385866" lon="9.3733938"><ele>203.0</ele><time>2026-05-04T09:51:11.078Z</time></trkpt><trkpt lat="46.1385801" lon="9.3732783"><ele>202.5</ele><time>2026-05-04T09:51:12.077Z</time></trkpt><trkpt lat="46.1385705" lon="9.3731653"><ele>202.0</ele><time>2026-05-04T09:51:13.074Z</time></trkpt><trkpt lat="46.1385563" lon="9.3730532"><ele>201.5</ele><time>2026-05-04T09:51:14.077Z</time></trkpt><trkpt lat="46.1385444" lon="9.3729422"><ele>201.0</ele><time>2026-05-04T09:51:15.079Z</time></trkpt><trkpt lat="46.1385305" lon="9.3728347"><ele>200.66666666666666</ele><time>2026-05-04T09:51:16.075Z</time></trkpt><trkpt lat="46.1385112" lon="9.372737"><ele>200.33333333333331</ele><time>2026-05-04T09:51:17.077Z</time></trkpt><trkpt lat="46.1384975" lon="9.372637"><ele>200.0</ele><time>2026-05-04T09:51:18.076Z</time></trkpt><trkpt lat="46.1384458" lon="9.3725589"><ele>199.66666666666666</ele><time>2026-05-04T09:51:19.08Z</time></trkpt><trkpt lat="46.1383981" lon="9.3724941"><ele>199.33333333333331</ele><time>2026-05-04T09:51:20.073Z</time></trkpt><trkpt lat="46.138345" lon="9.3724409"><ele>199.0</ele><time>2026-05-04T09:51:21.074Z</time></trkpt><trkpt lat="46.1382374" lon="9.3723593"><ele>199.6</ele><time>2026-05-04T09:51:23.072Z</time></trkpt><trkpt lat="46.1381792" lon="9.3723083"><ele>200.2</ele><time>2026-05-04T09:51:24.083Z</time></trkpt><trkpt lat="46.1380734" lon="9.3722259"><ele>200.79999999999998</ele><time>2026-05-04T09:51:26.086Z</time></trkpt><trkpt lat="46.1379702" lon="9.3721662"><ele>201.39999999999998</ele><time>2026-05-04T09:51:28.081Z</time></trkpt><trkpt lat="46.1378727" lon="9.3721075"><ele>202.0</ele><time>2026-05-04T09:51:30.075Z</time></trkpt><trkpt lat="46.1377732" lon="9.3720379"><ele>202.0</ele><time>2026-05-04T09:51:32.083Z</time></trkpt><trkpt lat="46.1376907" lon="9.3719777"><ele>202.0</ele><time>2026-05-04T09:51:34.084Z</time></trkpt><trkpt lat="46.1376535" lon="9.371871"><ele>202.0</ele><time>2026-05-04T09:51:36.075Z</time></trkpt><trkpt lat="46.137617" lon="9.3717727"><ele>202.0</ele><time>2026-05-04T09:51:38.076Z</time></trkpt><trkpt lat="46.1375731" lon="9.3716494"><ele>202.0</ele><time>2026-05-04T09:51:40.08Z</time></trkpt><trkpt lat="46.1375111" lon="9.3715206"><ele>201.99999999999997</ele><time>2026-05-04T09:51:42.081Z</time></trkpt><trkpt lat="46.1374477" lon="9.3714002"><ele>202.0</ele><time>2026-05-04T09:51:44.079Z</time></trkpt><trkpt lat="46.1374299" lon="9.371294"><ele>202.0</ele><time>2026-05-04T09:51:45.085Z</time></trkpt><trkpt lat="46.1373882" lon="9.3711879"><ele>202.0</ele><time>2026-05-04T09:51:47.073Z</time></trkpt><trkpt lat="46.1373354" lon="9.3711204"><ele>201.99999999999997</ele><time>2026-05-04T09:51:49.073Z</time></trkpt><trkpt lat="46.1373017" lon="9.3710306"><ele>202.0</ele><time>2026-05-04T09:51:51.077Z</time></trkpt><trkpt lat="46.1372686" lon="9.3709419"><ele>202.42857142857142</ele><time>2026-05-04T09:51:53.072Z</time></trkpt><trkpt lat="46.1372359" lon="9.3708404"><ele>202.85714285714283</ele><time>2026-05-04T09:51:55.084Z</time></trkpt><trkpt lat="46.1372058" lon="9.3707466"><ele>203.28571428571428</ele><time>2026-05-04T09:51:57.078Z</time></trkpt><trkpt lat="46.1371689" lon="9.370664"><ele>203.71428571428572</ele><time>2026-05-04T09:51:59.072Z</time></trkpt><trkpt lat="46.1371462" lon="9.3705671"><ele>204.14285714285714</ele><time>2026-05-04T09:52:01.078Z</time></trkpt><trkpt lat="46.1371304" lon="9.3704607"><ele>204.57142857142858</ele><time>2026-05-04T09:52:03.084Z</time></trkpt><trkpt lat="46.1371044" lon="9.3703568"><ele>205.0</ele><time>2026-05-04T09:52:05.084Z</time></trkpt><trkpt lat="46.137084" lon="9.3702571"><ele>204.99999999999997</ele><time>2026-05-04T09:52:07.073Z</time></trkpt><trkpt lat="46.1370738" lon="9.3701206"><ele>205.0</ele><time>2026-05-04T09:52:10.08Z</time></trkpt><trkpt lat="46.1371054" lon="9.3700106"><ele>205.0</ele><time>2026-05-04T09:52:12.079Z</time></trkpt><trkpt lat="46.1371398" lon="9.3698995"><ele>205.0</ele><time>2026-05-04T09:52:14.074Z</time></trkpt><trkpt lat="46.1371657" lon="9.36978"><ele>204.99999999999997</ele><time>2026-05-04T09:52:16.075Z</time></trkpt><trkpt lat="46.1371819" lon="9.3696588"><ele>205.0</ele><time>2026-05-04T09:52:18.082Z</time></trkpt><trkpt lat="46.1372077" lon="9.3695302"><ele>204.99999999999997</ele><time>2026-05-04T09:52:20.077Z</time></trkpt><trkpt lat="46.1372284" lon="9.3694015"><ele>205.0</ele><time>2026-05-04T09:52:22.083Z</time></trkpt><trkpt lat="46.1372566" lon="9.3692785"><ele>205.0</ele><time>2026-05-04T09:52:24.077Z</time></trkpt><trkpt lat="46.1372716" lon="9.3691637"><ele>205.0</ele><time>2026-05-04T09:52:26.082Z</time></trkpt><trkpt lat="46.1372911" lon="9.369047"><ele>204.99999999999997</ele><time>2026-05-04T09:52:28.075Z</time></trkpt><trkpt lat="46.1373011" lon="9.368919"><ele>205.0</ele><time>2026-05-04T09:52:30.076Z</time></trkpt><trkpt lat="46.1372912" lon="9.3688006"><ele>205.0</ele><time>2026-05-04T09:52:32.077Z</time></trkpt><trkpt lat="46.137272" lon="9.3686767"><ele>205.0</ele><time>2026-05-04T09:52:34.087Z</time></trkpt><trkpt lat="46.137275" lon="9.3685563"><ele>205.0</ele><time>2026-05-04T09:52:36.081Z</time></trkpt><trkpt lat="46.1372878" lon="9.3684214"><ele>205.0</ele><time>2026-05-04T09:52:38.082Z</time></trkpt><trkpt lat="46.1372837" lon="9.3682836"><ele>205.0</ele><time>2026-05-04T09:52:40.076Z</time></trkpt><trkpt lat="46.1372461" lon="9.3681447"><ele>204.4</ele><time>2026-05-04T09:52:42.081Z</time></trkpt><trkpt lat="46.1371974" lon="9.3680233"><ele>203.8</ele><time>2026-05-04T09:52:44.075Z</time></trkpt><trkpt lat="46.137138" lon="9.3679015"><ele>203.2</ele><time>2026-05-04T09:52:46.082Z</time></trkpt><trkpt lat="46.1370826" lon="9.3677659"><ele>202.6</ele><time>2026-05-04T09:52:48.082Z</time></trkpt><trkpt lat="46.1370205" lon="9.3676293"><ele>202.0</ele><time>2026-05-04T09:52:50.078Z</time></trkpt><trkpt lat="46.136961" lon="9.3675005"><ele>202.0</ele><time>2026-05-04T09:52:52.073Z</time></trkpt><trkpt lat="46.1368956" lon="9.3673874"><ele>202.0</ele><time>2026-05-04T09:52:54.075Z</time></trkpt><trkpt lat="46.1368399" lon="9.3672603"><ele>202.0</ele><time>2026-05-04T09:52:56.079Z</time></trkpt><trkpt lat="46.1367934" lon="9.3671279"><ele>202.0</ele><time>2026-05-04T09:52:58.074Z</time></trkpt><trkpt lat="46.1367631" lon="9.3669848"><ele>202.0</ele><time>2026-05-04T09:53:00.078Z</time></trkpt><trkpt lat="46.1367393" lon="9.3668361"><ele>201.6</ele><time>2026-05-04T09:53:02.078Z</time></trkpt><trkpt lat="46.1367207" lon="9.3666738"><ele>201.2</ele><time>2026-05-04T09:53:04.082Z</time></trkpt><trkpt lat="46.1366992" lon="9.3665807"><ele>200.8</ele><time>2026-05-04T09:53:05.082Z</time></trkpt><trkpt lat="46.1366728" lon="9.3664339"><ele>200.4</ele><time>2026-05-04T09:53:07.076Z</time></trkpt><trkpt lat="46.1366522" lon="9.3662955"><ele>200.0</ele><time>2026-05-04T09:53:09.081Z</time></trkpt><trkpt lat="46.1366341" lon="9.3661363"><ele>200.0</ele><time>2026-05-04T09:53:11.082Z</time></trkpt><trkpt lat="46.1365964" lon="9.3659914"><ele>200.0</ele><time>2026-05-04T09:53:13.081Z</time></trkpt><trkpt lat="46.1365384" lon="9.3658801"><ele>200.0</ele><time>2026-05-04T09:53:15.085Z</time></trkpt><trkpt lat="46.1364576" lon="9.3657423"><ele>200.0</ele><time>2026-05-04T09:53:17.085Z</time></trkpt><trkpt lat="46.1363663" lon="9.365602"><ele>200.2</ele><time>2026-05-04T09:53:19.078Z</time></trkpt><trkpt lat="46.1362802" lon="9.3654947"><ele>200.4</ele><time>2026-05-04T09:53:21.084Z</time></trkpt><trkpt lat="46.1362337" lon="9.3654313"><ele>200.60000000000002</ele><time>2026-05-04T09:53:22.076Z</time></trkpt><trkpt lat="46.136189" lon="9.3653622"><ele>200.8</ele><time>2026-05-04T09:53:23.081Z</time></trkpt><trkpt lat="46.1361217" lon="9.3652334"><ele>201.0</ele><time>2026-05-04T09:53:25.085Z</time></trkpt><trkpt lat="46.13607" lon="9.3650792"><ele>201.0</ele><time>2026-05-04T09:53:27.073Z</time></trkpt><trkpt lat="46.1360395" lon="9.3649972"><ele>201.0</ele><time>2026-05-04T09:53:28.075Z</time></trkpt><trkpt lat="46.1359909" lon="9.3648533"><ele>201.0</ele><time>2026-05-04T09:53:30.08Z</time></trkpt><trkpt lat="46.1359521" lon="9.3647028"><ele>201.0</ele><time>2026-05-04T09:53:32.077Z</time></trkpt><trkpt lat="46.1359128" lon="9.3645469"><ele>201.0</ele><time>2026-05-04T09:53:34.082Z</time></trkpt><trkpt lat="46.1358823" lon="9.364393"><ele>200.8</ele><time>2026-05-04T09:53:36.083Z</time></trkpt><trkpt lat="46.135835" lon="9.364229"><ele>200.60000000000002</ele><time>2026-05-04T09:53:38.078Z</time></trkpt><trkpt lat="46.1357916" lon="9.3640844"><ele>200.4</ele><time>2026-05-04T09:53:40.08Z</time></trkpt><trkpt lat="46.135757" lon="9.3639315"><ele>200.2</ele><time>2026-05-04T09:53:42.085Z</time></trkpt><trkpt lat="46.1357389" lon="9.3638442"><ele>200.0</ele><time>2026-05-04T09:53:43.074Z</time></trkpt><trkpt lat="46.1357268" lon="9.3637464"><ele>200.25</ele><time>2026-05-04T09:53:44.073Z</time></trkpt><trkpt lat="46.1357153" lon="9.3635841"><ele>200.5</ele><time>2026-05-04T09:53:46.081Z</time></trkpt><trkpt lat="46.1356939" lon="9.3634172"><ele>200.75</ele><time>2026-05-04T09:53:48.074Z</time></trkpt><trkpt lat="46.1356835" lon="9.3631822"><ele>201.0</ele><time>2026-05-04T09:53:51.079Z</time></trkpt><trkpt lat="46.1356765" lon="9.3630279"><ele>201.0</ele><time>2026-05-04T09:53:53.079Z</time></trkpt><trkpt lat="46.1356772" lon="9.362889"><ele>201.0</ele><time>2026-05-04T09:53:55.078Z</time></trkpt><trkpt lat="46.1356665" lon="9.3627547"><ele>201.0</ele><time>2026-05-04T09:53:57.079Z</time></trkpt><trkpt lat="46.1356164" lon="9.3626575"><ele>201.0</ele><time>2026-05-04T09:53:59.079Z</time></trkpt><trkpt lat="46.1355441" lon="9.3626706"><ele>201.0</ele><time>2026-05-04T09:54:01.08Z</time></trkpt><trkpt lat="46.1354537" lon="9.362722"><ele>201.0</ele><time>2026-05-04T09:54:03.079Z</time></trkpt><trkpt lat="46.1353778" lon="9.3627797"><ele>201.0</ele><time>2026-05-04T09:54:05.08Z</time></trkpt><trkpt lat="46.1352928" lon="9.3628347"><ele>201.0</ele><time>2026-05-04T09:54:07.079Z</time></trkpt><trkpt lat="46.1352045" lon="9.3628853"><ele>201.0</ele><time>2026-05-04T09:54:09.079Z</time></trkpt><trkpt lat="46.1351274" lon="9.3629228"><ele>201.0</ele><time>2026-05-04T09:54:11.083Z</time></trkpt><trkpt lat="46.1350742" lon="9.3629736"><ele>201.0</ele><time>2026-05-04T09:54:13.078Z</time></trkpt><trkpt lat="46.134995" lon="9.3630162"><ele>201.0</ele><time>2026-05-04T09:54:15.081Z</time></trkpt><trkpt lat="46.1349257" lon="9.3630563"><ele>201.42857142857142</ele><time>2026-05-04T09:54:17.079Z</time></trkpt><trkpt lat="46.1348578" lon="9.3630969"><ele>201.85714285714286</ele><time>2026-05-04T09:54:19.079Z</time></trkpt><trkpt lat="46.1347862" lon="9.3631505"><ele>202.28571428571428</ele><time>2026-05-04T09:54:21.079Z</time></trkpt><trkpt lat="46.1347185" lon="9.3631959"><ele>202.71428571428572</ele><time>2026-05-04T09:54:23.082Z</time></trkpt><trkpt lat="46.1346586" lon="9.3632392"><ele>203.14285714285717</ele><time>2026-05-04T09:54:25.079Z</time></trkpt><trkpt lat="46.1345954" lon="9.3632903"><ele>203.57142857142858</ele><time>2026-05-04T09:54:27.079Z</time></trkpt><trkpt lat="46.1345279" lon="9.3633399"><ele>204.0</ele><time>2026-05-04T09:54:29.08Z</time></trkpt><trkpt lat="46.1344618" lon="9.3633864"><ele>204.0</ele><time>2026-05-04T09:54:31.08Z</time></trkpt><trkpt lat="46.1344009" lon="9.3634406"><ele>204.0</ele><time>2026-05-04T09:54:33.082Z</time></trkpt><trkpt lat="46.1343424" lon="9.3634947"><ele>204.0</ele><time>2026-05-04T09:54:35.078Z</time></trkpt><trkpt lat="46.1342753" lon="9.3635257"><ele>204.0</ele><time>2026-05-04T09:54:37.081Z</time></trkpt><trkpt lat="46.1342083" lon="9.3635617"><ele>204.0</ele><time>2026-05-04T09:54:39.079Z</time></trkpt><trkpt lat="46.1341437" lon="9.3635977"><ele>204.0</ele><time>2026-05-04T09:54:41.082Z</time></trkpt><trkpt lat="46.1340772" lon="9.3636411"><ele>204.0</ele><time>2026-05-04T09:54:43.079Z</time></trkpt><trkpt lat="46.1340105" lon="9.3636715"><ele>204.42857142857144</ele><time>2026-05-04T09:54:45.078Z</time></trkpt><trkpt lat="46.1339473" lon="9.3637026"><ele>204.85714285714286</ele><time>2026-05-04T09:54:47.079Z</time></trkpt><trkpt lat="46.1338837" lon="9.3637392"><ele>205.28571428571428</ele><time>2026-05-04T09:54:49.08Z</time></trkpt><trkpt lat="46.1338125" lon="9.3637741"><ele>205.71428571428572</ele><time>2026-05-04T09:54:51.079Z</time></trkpt><trkpt lat="46.1337376" lon="9.3638097"><ele>206.14285714285714</ele><time>2026-05-04T09:54:53.079Z</time></trkpt><trkpt lat="46.1336655" lon="9.3638464"><ele>206.57142857142858</ele><time>2026-05-04T09:54:55.079Z</time></trkpt><trkpt lat="46.1335923" lon="9.3638728"><ele>207.0</ele><time>2026-05-04T09:54:57.082Z</time></trkpt><trkpt lat="46.1335154" lon="9.363851"><ele>207.0</ele><time>2026-05-04T09:54:59.082Z</time></trkpt><trkpt lat="46.1334478" lon="9.3637964"><ele>207.0</ele><time>2026-05-04T09:55:01.079Z</time></trkpt><trkpt lat="46.1334004" lon="9.363735"><ele>207.0</ele><time>2026-05-04T09:55:03.082Z</time></trkpt><trkpt lat="46.1333363" lon="9.363656"><ele>207.0</ele><time>2026-05-04T09:55:06.079Z</time></trkpt><trkpt lat="46.1332821" lon="9.3635392"><ele>207.0</ele><time>2026-05-04T09:55:09.08Z</time></trkpt><trkpt lat="46.1332373" lon="9.3634519"><ele>207.0</ele><time>2026-05-04T09:55:11.081Z</time></trkpt><trkpt lat="46.1331844" lon="9.3633634"><ele>207.42857142857144</ele><time>2026-05-04T09:55:13.083Z</time></trkpt><trkpt lat="46.1331422" lon="9.3632789"><ele>207.85714285714286</ele><time>2026-05-04T09:55:15.079Z</time></trkpt><trkpt lat="46.1331074" lon="9.3631938"><ele>208.28571428571428</ele><time>2026-05-04T09:55:17.079Z</time></trkpt><trkpt lat="46.133069" lon="9.3631034"><ele>208.71428571428572</ele><time>2026-05-04T09:55:19.081Z</time></trkpt><trkpt lat="46.1330246" lon="9.3630194"><ele>209.14285714285714</ele><time>2026-05-04T09:55:21.079Z</time></trkpt><trkpt lat="46.1329824" lon="9.3629398"><ele>209.57142857142858</ele><time>2026-05-04T09:55:23.085Z</time></trkpt><trkpt lat="46.1329429" lon="9.3628633"><ele>210.0</ele><time>2026-05-04T09:55:25.079Z</time></trkpt><trkpt lat="46.1328995" lon="9.3627824"><ele>210.0</ele><time>2026-05-04T09:55:27.079Z</time></trkpt><trkpt lat="46.1328577" lon="9.3626947"><ele>210.0</ele><time>2026-05-04T09:55:29.081Z</time></trkpt><trkpt lat="46.1328105" lon="9.3625916"><ele>210.0</ele><time>2026-05-04T09:55:31.082Z</time></trkpt><trkpt lat="46.1327579" lon="9.3624901"><ele>210.0</ele><time>2026-05-04T09:55:33.079Z</time></trkpt><trkpt lat="46.1326988" lon="9.3623883"><ele>210.0</ele><time>2026-05-04T09:55:35.082Z</time></trkpt><trkpt lat="46.1326347" lon="9.3622795"><ele>210.0</ele><time>2026-05-04T09:55:37.08Z</time></trkpt><trkpt lat="46.1325833" lon="9.3621621"><ele>209.8</ele><time>2026-05-04T09:55:39.079Z</time></trkpt><trkpt lat="46.1325347" lon="9.3620278"><ele>209.6</ele><time>2026-05-04T09:55:41.079Z</time></trkpt><trkpt lat="46.13248" lon="9.3618933"><ele>209.39999999999998</ele><time>2026-05-04T09:55:43.08Z</time></trkpt><trkpt lat="46.1324179" lon="9.3617895"><ele>209.2</ele><time>2026-05-04T09:55:45.087Z</time></trkpt><trkpt lat="46.1323573" lon="9.361662"><ele>209.0</ele><time>2026-05-04T09:55:47.082Z</time></trkpt><trkpt lat="46.132302" lon="9.3615521"><ele>210.0</ele><time>2026-05-04T09:55:49.081Z</time></trkpt><trkpt lat="46.1322538" lon="9.3614586"><ele>211.0</ele><time>2026-05-04T09:55:51.078Z</time></trkpt><trkpt lat="46.1321973" lon="9.3613529"><ele>211.99999999999997</ele><time>2026-05-04T09:55:53.08Z</time></trkpt><trkpt lat="46.1321391" lon="9.3612426"><ele>213.0</ele><time>2026-05-04T09:55:55.079Z</time></trkpt><trkpt lat="46.1320845" lon="9.3611344"><ele>214.0</ele><time>2026-05-04T09:55:57.083Z</time></trkpt><trkpt lat="46.1320305" lon="9.361018"><ele>214.0</ele><time>2026-05-04T09:55:59.08Z</time></trkpt><trkpt lat="46.1319746" lon="9.3609002"><ele>213.99999999999997</ele><time>2026-05-04T09:56:01.082Z</time></trkpt><trkpt lat="46.131926" lon="9.360783"><ele>213.99999999999997</ele><time>2026-05-04T09:56:03.083Z</time></trkpt><trkpt lat="46.131867" lon="9.3606693"><ele>214.0</ele><time>2026-05-04T09:56:05.08Z</time></trkpt><trkpt lat="46.1318081" lon="9.360558"><ele>214.0</ele><time>2026-05-04T09:56:07.082Z</time></trkpt><trkpt lat="46.1317502" lon="9.3604423"><ele>214.33333333333331</ele><time>2026-05-04T09:56:09.082Z</time></trkpt><trkpt lat="46.1317026" lon="9.3603367"><ele>214.66666666666666</ele><time>2026-05-04T09:56:11.082Z</time></trkpt><trkpt lat="46.131644" lon="9.3602221"><ele>215.0</ele><time>2026-05-04T09:56:13.08Z</time></trkpt><trkpt lat="46.1315965" lon="9.3601167"><ele>215.33333333333331</ele><time>2026-05-04T09:56:15.081Z</time></trkpt><trkpt lat="46.131536" lon="9.3600142"><ele>215.66666666666666</ele><time>2026-05-04T09:56:17.087Z</time></trkpt><trkpt lat="46.1314898" lon="9.3599186"><ele>216.0</ele><time>2026-05-04T09:56:19.08Z</time></trkpt><trkpt lat="46.1314505" lon="9.3598352"><ele>216.0</ele><time>2026-05-04T09:56:21.081Z</time></trkpt><trkpt lat="46.1313931" lon="9.3597152"><ele>216.00000000000003</ele><time>2026-05-04T09:56:23.08Z</time></trkpt><trkpt lat="46.1313502" lon="9.3595871"><ele>216.00000000000003</ele><time>2026-05-04T09:56:25.084Z</time></trkpt><trkpt lat="46.1313226" lon="9.3594674"><ele>216.0</ele><time>2026-05-04T09:56:27.082Z</time></trkpt><trkpt lat="46.131284" lon="9.359323"><ele>216.0</ele><time>2026-05-04T09:56:29.079Z</time></trkpt><trkpt lat="46.1312345" lon="9.3591718"><ele>215.20000000000002</ele><time>2026-05-04T09:56:31.087Z</time></trkpt><trkpt lat="46.1311831" lon="9.3590327"><ele>214.40000000000003</ele><time>2026-05-04T09:56:33.084Z</time></trkpt><trkpt lat="46.1311472" lon="9.35888"><ele>213.6</ele><time>2026-05-04T09:56:35.084Z</time></trkpt><trkpt lat="46.1311285" lon="9.3587291"><ele>212.8</ele><time>2026-05-04T09:56:37.082Z</time></trkpt><trkpt lat="46.1310989" lon="9.3585749"><ele>212.0</ele><time>2026-05-04T09:56:39.082Z</time></trkpt><trkpt lat="46.1310471" lon="9.3584248"><ele>211.8</ele><time>2026-05-04T09:56:41.082Z</time></trkpt><trkpt lat="46.1309925" lon="9.3582926"><ele>211.6</ele><time>2026-05-04T09:56:43.083Z</time></trkpt><trkpt lat="46.1309386" lon="9.35815"><ele>211.4</ele><time>2026-05-04T09:56:45.079Z</time></trkpt><trkpt lat="46.1308678" lon="9.3580257"><ele>211.20000000000002</ele><time>2026-05-04T09:56:47.083Z</time></trkpt><trkpt lat="46.1308059" lon="9.3579157"><ele>211.0</ele><time>2026-05-04T09:56:49.079Z</time></trkpt><trkpt lat="46.1307514" lon="9.357794"><ele>211.4</ele><time>2026-05-04T09:56:51.08Z</time></trkpt><trkpt lat="46.1307049" lon="9.3576618"><ele>211.8</ele><time>2026-05-04T09:56:53.079Z</time></trkpt><trkpt lat="46.1306759" lon="9.3575471"><ele>212.20000000000002</ele><time>2026-05-04T09:56:55.081Z</time></trkpt><trkpt lat="46.1306353" lon="9.3574035"><ele>212.60000000000002</ele><time>2026-05-04T09:56:57.085Z</time></trkpt><trkpt lat="46.1306108" lon="9.357319"><ele>213.0</ele><time>2026-05-04T09:56:58.079Z</time></trkpt><trkpt lat="46.1305759" lon="9.3571787"><ele>213.0</ele><time>2026-05-04T09:57:00.081Z</time></trkpt><trkpt lat="46.1305368" lon="9.357032"><ele>213.0</ele><time>2026-05-04T09:57:02.087Z</time></trkpt><trkpt lat="46.1304872" lon="9.3568767"><ele>213.0</ele><time>2026-05-04T09:57:04.08Z</time></trkpt><trkpt lat="46.1304389" lon="9.3567168"><ele>213.0</ele><time>2026-05-04T09:57:06.079Z</time></trkpt><trkpt lat="46.1304096" lon="9.3565598"><ele>213.0</ele><time>2026-05-04T09:57:08.081Z</time></trkpt><trkpt lat="46.1303926" lon="9.3564703"><ele>213.0</ele><time>2026-05-04T09:57:09.078Z</time></trkpt><trkpt lat="46.1303778" lon="9.3563805"><ele>213.0</ele><time>2026-05-04T09:57:10.079Z</time></trkpt><trkpt lat="46.1303446" lon="9.3562241"><ele>213.0</ele><time>2026-05-04T09:57:12.08Z</time></trkpt><trkpt lat="46.1303022" lon="9.3560693"><ele>213.0</ele><time>2026-05-04T09:57:14.08Z</time></trkpt><trkpt lat="46.1302635" lon="9.355916"><ele>212.4</ele><time>2026-05-04T09:57:16.079Z</time></trkpt><trkpt lat="46.1302307" lon="9.3557421"><ele>211.8</ele><time>2026-05-04T09:57:18.084Z</time></trkpt><trkpt lat="46.1302115" lon="9.3556509"><ele>211.2</ele><time>2026-05-04T09:57:19.081Z</time></trkpt><trkpt lat="46.1301694" lon="9.3555003"><ele>210.6</ele><time>2026-05-04T09:57:21.078Z</time></trkpt><trkpt lat="46.1301236" lon="9.3553521"><ele>210.0</ele><time>2026-05-04T09:57:23.079Z</time></trkpt><trkpt lat="46.1300712" lon="9.3551927"><ele>210.0</ele><time>2026-05-04T09:57:25.079Z</time></trkpt><trkpt lat="46.1300145" lon="9.3550486"><ele>210.0</ele><time>2026-05-04T09:57:27.079Z</time></trkpt><trkpt lat="46.1299621" lon="9.354899"><ele>210.0</ele><time>2026-05-04T09:57:29.08Z</time></trkpt><trkpt lat="46.1299206" lon="9.3547599"><ele>210.0</ele><time>2026-05-04T09:57:31.079Z</time></trkpt><trkpt lat="46.129873" lon="9.354601"><ele>210.2</ele><time>2026-05-04T09:57:33.079Z</time></trkpt><trkpt lat="46.1298356" lon="9.3544408"><ele>210.4</ele><time>2026-05-04T09:57:35.078Z</time></trkpt><trkpt lat="46.1297938" lon="9.3542731"><ele>210.60000000000002</ele><time>2026-05-04T09:57:37.08Z</time></trkpt><trkpt lat="46.1297671" lon="9.3541891"><ele>210.8</ele><time>2026-05-04T09:57:38.08Z</time></trkpt><trkpt lat="46.1296983" lon="9.3540492"><ele>211.0</ele><time>2026-05-04T09:57:40.079Z</time></trkpt><trkpt lat="46.1296556" lon="9.3539724"><ele>211.0</ele><time>2026-05-04T09:57:41.08Z</time></trkpt><trkpt lat="46.1296102" lon="9.3538969"><ele>211.0</ele><time>2026-05-04T09:57:42.08Z</time></trkpt><trkpt lat="46.129561" lon="9.3538195"><ele>211.0</ele><time>2026-05-04T09:57:43.079Z</time></trkpt><trkpt lat="46.1294763" lon="9.3537029"><ele>211.0</ele><time>2026-05-04T09:57:45.078Z</time></trkpt><trkpt lat="46.1293949" lon="9.3535655"><ele>211.0</ele><time>2026-05-04T09:57:47.081Z</time></trkpt><trkpt lat="46.1293452" lon="9.3534923"><ele>211.0</ele><time>2026-05-04T09:57:48.079Z</time></trkpt><trkpt lat="46.129255" lon="9.3533699"><ele>211.0</ele><time>2026-05-04T09:57:50.08Z</time></trkpt><trkpt lat="46.1291599" lon="9.3532422"><ele>211.0</ele><time>2026-05-04T09:57:52.08Z</time></trkpt><trkpt lat="46.1291135" lon="9.3531773"><ele>211.0</ele><time>2026-05-04T09:57:53.08Z</time></trkpt><trkpt lat="46.1290657" lon="9.3531127"><ele>211.0</ele><time>2026-05-04T09:57:54.081Z</time></trkpt><trkpt lat="46.1290174" lon="9.3530465"><ele>210.71428571428572</ele><time>2026-05-04T09:57:55.081Z</time></trkpt><trkpt lat="46.1289714" lon="9.3529781"><ele>210.42857142857144</ele><time>2026-05-04T09:57:56.079Z</time></trkpt><trkpt lat="46.1289302" lon="9.3529088"><ele>210.14285714285714</ele><time>2026-05-04T09:57:57.079Z</time></trkpt><trkpt lat="46.1288824" lon="9.3528439"><ele>209.85714285714286</ele><time>2026-05-04T09:57:58.079Z</time></trkpt><trkpt lat="46.1288346" lon="9.3527828"><ele>209.57142857142856</ele><time>2026-05-04T09:57:59.08Z</time></trkpt><trkpt lat="46.1287917" lon="9.3527137"><ele>209.28571428571428</ele><time>2026-05-04T09:58:00.079Z</time></trkpt><trkpt lat="46.1287447" lon="9.3526497"><ele>209.0</ele><time>2026-05-04T09:58:01.079Z</time></trkpt><trkpt lat="46.1286949" lon="9.3525849"><ele>209.0</ele><time>2026-05-04T09:58:02.078Z</time></trkpt><trkpt lat="46.1286429" lon="9.352524"><ele>209.0</ele><time>2026-05-04T09:58:03.079Z</time></trkpt><trkpt lat="46.128586" lon="9.3524582"><ele>209.0</ele><time>2026-05-04T09:58:04.079Z</time></trkpt><trkpt lat="46.1285293" lon="9.3524009"><ele>209.0</ele><time>2026-05-04T09:58:05.079Z</time></trkpt><trkpt lat="46.1284785" lon="9.3523432"><ele>209.0</ele><time>2026-05-04T09:58:06.08Z</time></trkpt><trkpt lat="46.1284286" lon="9.3522736"><ele>209.0</ele><time>2026-05-04T09:58:07.078Z</time></trkpt><trkpt lat="46.1283799" lon="9.3522098"><ele>209.0</ele><time>2026-05-04T09:58:08.087Z</time></trkpt><trkpt lat="46.1283321" lon="9.3521488"><ele>209.00000000000003</ele><time>2026-05-04T09:58:09.08Z</time></trkpt><trkpt lat="46.1282847" lon="9.3520865"><ele>209.0</ele><time>2026-05-04T09:58:10.078Z</time></trkpt><trkpt lat="46.1282313" lon="9.3520302"><ele>209.0</ele><time>2026-05-04T09:58:11.081Z</time></trkpt><trkpt lat="46.1281495" lon="9.3519561"><ele>209.0</ele><time>2026-05-04T09:58:13.079Z</time></trkpt><trkpt lat="46.1280849" lon="9.3519129"><ele>209.00000000000003</ele><time>2026-05-04T09:58:15.079Z</time></trkpt><trkpt lat="46.1280093" lon="9.3518849"><ele>209.0</ele><time>2026-05-04T09:58:17.078Z</time></trkpt><trkpt lat="46.1279197" lon="9.351866"><ele>209.0</ele><time>2026-05-04T09:58:19.078Z</time></trkpt><trkpt lat="46.1278176" lon="9.3518633"><ele>209.0</ele><time>2026-05-04T09:58:21.08Z</time></trkpt><trkpt lat="46.12771" lon="9.3518264"><ele>209.0</ele><time>2026-05-04T09:58:23.081Z</time></trkpt><trkpt lat="46.1275899" lon="9.351783"><ele>209.0</ele><time>2026-05-04T09:58:25.079Z</time></trkpt><trkpt lat="46.1274701" lon="9.3517195"><ele>209.00000000000003</ele><time>2026-05-04T09:58:27.079Z</time></trkpt><trkpt lat="46.1274081" lon="9.3516742"><ele>209.0</ele><time>2026-05-04T09:58:28.081Z</time></trkpt><trkpt lat="46.1273462" lon="9.3516415"><ele>209.0</ele><time>2026-05-04T09:58:29.08Z</time></trkpt><trkpt lat="46.1272852" lon="9.351609"><ele>209.0</ele><time>2026-05-04T09:58:30.078Z</time></trkpt><trkpt lat="46.1271706" lon="9.3515755"><ele>209.00000000000003</ele><time>2026-05-04T09:58:32.08Z</time></trkpt><trkpt lat="46.127071" lon="9.3515825"><ele>209.0</ele><time>2026-05-04T09:58:34.08Z</time></trkpt><trkpt lat="46.1269938" lon="9.3515822"><ele>209.00000000000003</ele><time>2026-05-04T09:58:36.08Z</time></trkpt><trkpt lat="46.1269241" lon="9.3515812"><ele>209.0</ele><time>2026-05-04T09:58:38.078Z</time></trkpt><trkpt lat="46.1268403" lon="9.3515764"><ele>209.0</ele><time>2026-05-04T09:58:40.084Z</time></trkpt><trkpt lat="46.126748" lon="9.3515654"><ele>209.0</ele><time>2026-05-04T09:58:42.079Z</time></trkpt><trkpt lat="46.1266536" lon="9.3515675"><ele>209.00000000000003</ele><time>2026-05-04T09:58:44.079Z</time></trkpt><trkpt lat="46.1265611" lon="9.3515251"><ele>209.0</ele><time>2026-05-04T09:58:46.08Z</time></trkpt><trkpt lat="46.1264848" lon="9.3514309"><ele>209.0</ele><time>2026-05-04T09:58:48.079Z</time></trkpt><trkpt lat="46.1264083" lon="9.3513148"><ele>209.0</ele><time>2026-05-04T09:58:50.079Z</time></trkpt><trkpt lat="46.1263258" lon="9.3511955"><ele>209.0</ele><time>2026-05-04T09:58:52.08Z</time></trkpt><trkpt lat="46.1262274" lon="9.3510801"><ele>209.0</ele><time>2026-05-04T09:58:54.079Z</time></trkpt><trkpt lat="46.1261803" lon="9.3510172"><ele>209.0</ele><time>2026-05-04T09:58:55.08Z</time></trkpt><trkpt lat="46.1260827" lon="9.3509037"><ele>209.0</ele><time>2026-05-04T09:58:57.079Z</time></trkpt><trkpt lat="46.1260319" lon="9.3508431"><ele>209.0</ele><time>2026-05-04T09:58:58.079Z</time></trkpt><trkpt lat="46.1259791" lon="9.3507825"><ele>209.0</ele><time>2026-05-04T09:58:59.08Z</time></trkpt><trkpt lat="46.1259317" lon="9.3507173"><ele>209.0</ele><time>2026-05-04T09:59:00.079Z</time></trkpt><trkpt lat="46.1258783" lon="9.3506458"><ele>209.0</ele><time>2026-05-04T09:59:01.079Z</time></trkpt><trkpt lat="46.1258253" lon="9.3505781"><ele>209.0</ele><time>2026-05-04T09:59:02.08Z</time></trkpt><trkpt lat="46.1257689" lon="9.3505056"><ele>209.0</ele><time>2026-05-04T09:59:03.081Z</time></trkpt><trkpt lat="46.1257122" lon="9.3504373"><ele>208.71428571428572</ele><time>2026-05-04T09:59:04.08Z</time></trkpt><trkpt lat="46.1256581" lon="9.3503615"><ele>208.42857142857142</ele><time>2026-05-04T09:59:05.079Z</time></trkpt><trkpt lat="46.125606" lon="9.3502918"><ele>208.14285714285717</ele><time>2026-05-04T09:59:06.081Z</time></trkpt><trkpt lat="46.1255492" lon="9.3502168"><ele>207.85714285714286</ele><time>2026-05-04T09:59:07.08Z</time></trkpt><trkpt lat="46.125502" lon="9.3501459"><ele>207.57142857142858</ele><time>2026-05-04T09:59:08.08Z</time></trkpt><trkpt lat="46.1254578" lon="9.3500719"><ele>207.2857142857143</ele><time>2026-05-04T09:59:09.08Z</time></trkpt><trkpt lat="46.1254112" lon="9.3499875"><ele>207.0</ele><time>2026-05-04T09:59:10.081Z</time></trkpt><trkpt lat="46.1253665" lon="9.3499033"><ele>207.0</ele><time>2026-05-04T09:59:11.08Z</time></trkpt><trkpt lat="46.1253252" lon="9.3498192"><ele>207.0</ele><time>2026-05-04T09:59:12.079Z</time></trkpt><trkpt lat="46.1252807" lon="9.3497358"><ele>207.0</ele><time>2026-05-04T09:59:13.079Z</time></trkpt><trkpt lat="46.1252317" lon="9.3496506"><ele>207.0</ele><time>2026-05-04T09:59:14.081Z</time></trkpt><trkpt lat="46.1251362" lon="9.3495119"><ele>207.0</ele><time>2026-05-04T09:59:16.08Z</time></trkpt><trkpt lat="46.1250886" lon="9.3494344"><ele>207.0</ele><time>2026-05-04T09:59:17.08Z</time></trkpt><trkpt lat="46.1250382" lon="9.3493583"><ele>206.71428571428572</ele><time>2026-05-04T09:59:18.079Z</time></trkpt><trkpt lat="46.1249882" lon="9.3492916"><ele>206.42857142857144</ele><time>2026-05-04T09:59:19.08Z</time></trkpt><trkpt lat="46.1249271" lon="9.3492254"><ele>206.14285714285717</ele><time>2026-05-04T09:59:20.079Z</time></trkpt><trkpt lat="46.1248793" lon="9.3491658"><ele>205.85714285714286</ele><time>2026-05-04T09:59:21.08Z</time></trkpt><trkpt lat="46.1248273" lon="9.3490888"><ele>205.57142857142856</ele><time>2026-05-04T09:59:22.08Z</time></trkpt><trkpt lat="46.1247781" lon="9.3490065"><ele>205.2857142857143</ele><time>2026-05-04T09:59:23.079Z</time></trkpt><trkpt lat="46.1247325" lon="9.348928"><ele>205.0</ele><time>2026-05-04T09:59:24.079Z</time></trkpt><trkpt lat="46.1246846" lon="9.3488437"><ele>204.85714285714286</ele><time>2026-05-04T09:59:25.079Z</time></trkpt><trkpt lat="46.1246323" lon="9.3487607"><ele>204.7142857142857</ele><time>2026-05-04T09:59:26.079Z</time></trkpt><trkpt lat="46.1245865" lon="9.3486834"><ele>204.57142857142856</ele><time>2026-05-04T09:59:27.08Z</time></trkpt><trkpt lat="46.1245342" lon="9.3486148"><ele>204.42857142857144</ele><time>2026-05-04T09:59:28.079Z</time></trkpt><trkpt lat="46.1244732" lon="9.3485327"><ele>204.28571428571428</ele><time>2026-05-04T09:59:29.079Z</time></trkpt><trkpt lat="46.1244227" lon="9.3484732"><ele>204.14285714285714</ele><time>2026-05-04T09:59:30.079Z</time></trkpt><trkpt lat="46.1243609" lon="9.3484238"><ele>204.0</ele><time>2026-05-04T09:59:31.08Z</time></trkpt><trkpt lat="46.1242491" lon="9.3483364"><ele>204.0</ele><time>2026-05-04T09:59:33.081Z</time></trkpt><trkpt lat="46.1241881" lon="9.3482874"><ele>204.0</ele><time>2026-05-04T09:59:34.08Z</time></trkpt><trkpt lat="46.1240848" lon="9.3482088"><ele>204.0</ele><time>2026-05-04T09:59:36.079Z</time></trkpt><trkpt lat="46.1239884" lon="9.348092"><ele>204.0</ele><time>2026-05-04T09:59:38.081Z</time></trkpt><trkpt lat="46.1239091" lon="9.3479975"><ele>204.0</ele><time>2026-05-04T09:59:40.08Z</time></trkpt><trkpt lat="46.1238291" lon="9.3479305"><ele>204.33333333333334</ele><time>2026-05-04T09:59:42.08Z</time></trkpt><trkpt lat="46.1237754" lon="9.3480169"><ele>204.66666666666669</ele><time>2026-05-04T09:59:45.079Z</time></trkpt><trkpt lat="46.1237782" lon="9.3481402"><ele>205.0</ele><time>2026-05-04T09:59:48.081Z</time></trkpt><trkpt lat="46.1237766" lon="9.3482794"><ele>205.33333333333334</ele><time>2026-05-04T09:59:51.08Z</time></trkpt><trkpt lat="46.1237625" lon="9.3483788"><ele>205.66666666666669</ele><time>2026-05-04T09:59:53.081Z</time></trkpt><trkpt lat="46.1237517" lon="9.3484705"><ele>206.0</ele><time>2026-05-04T09:59:55.079Z</time></trkpt><trkpt lat="46.1237498" lon="9.3485685"><ele>206.16666666666669</ele><time>2026-05-04T09:59:57.078Z</time></trkpt><trkpt lat="46.1237192" lon="9.3486804"><ele>206.33333333333334</ele><time>2026-05-04T10:00:00.079Z</time></trkpt><trkpt lat="46.1236959" lon="9.3488052"><ele>206.5</ele><time>2026-05-04T10:00:03.08Z</time></trkpt><trkpt lat="46.123679" lon="9.3489212"><ele>206.66666666666669</ele><time>2026-05-04T10:00:05.08Z</time></trkpt><trkpt lat="46.123656" lon="9.349052"><ele>206.83333333333334</ele><time>2026-05-04T10:00:08.079Z</time></trkpt><trkpt lat="46.1236423" lon="9.3491763"><ele>207.0</ele><time>2026-05-04T10:00:11.078Z</time></trkpt><trkpt lat="46.1236027" lon="9.349277"><ele>207.0</ele><time>2026-05-04T10:00:14.079Z</time></trkpt><trkpt lat="46.1235175" lon="9.3492475"><ele>207.0</ele><time>2026-05-04T10:00:17.08Z</time></trkpt><trkpt lat="46.1234294" lon="9.3492043"><ele>207.0</ele><time>2026-05-04T10:00:20.08Z</time></trkpt><trkpt lat="46.1233638" lon="9.3491692"><ele>207.0</ele><time>2026-05-04T10:00:22.079Z</time></trkpt><trkpt lat="46.1232959" lon="9.3491364"><ele>207.0</ele><time>2026-05-04T10:00:24.081Z</time></trkpt><trkpt lat="46.1232056" lon="9.3490867"><ele>207.0</ele><time>2026-05-04T10:00:26.08Z</time></trkpt><trkpt lat="46.1231136" lon="9.349053"><ele>207.0</ele><time>2026-05-04T10:00:28.079Z</time></trkpt><trkpt lat="46.122996" lon="9.3489967"><ele>207.0</ele><time>2026-05-04T10:00:30.079Z</time></trkpt><trkpt lat="46.1228734" lon="9.3489385"><ele>207.0</ele><time>2026-05-04T10:00:32.08Z</time></trkpt><trkpt lat="46.1228083" lon="9.3489045"><ele>207.0</ele><time>2026-05-04T10:00:33.079Z</time></trkpt><trkpt lat="46.1227428" lon="9.3488697"><ele>207.0</ele><time>2026-05-04T10:00:34.08Z</time></trkpt><trkpt lat="46.1226757" lon="9.348836"><ele>207.0</ele><time>2026-05-04T10:00:35.08Z</time></trkpt><trkpt lat="46.1226072" lon="9.3487989"><ele>207.0</ele><time>2026-05-04T10:00:36.08Z</time></trkpt><trkpt lat="46.1225367" lon="9.3487665"><ele>207.0</ele><time>2026-05-04T10:00:37.079Z</time></trkpt><trkpt lat="46.1224683" lon="9.3487345"><ele>207.0</ele><time>2026-05-04T10:00:38.08Z</time></trkpt><trkpt lat="46.1223942" lon="9.3486957"><ele>207.0</ele><time>2026-05-04T10:00:39.08Z</time></trkpt><trkpt lat="46.122322" lon="9.3486541"><ele>207.0</ele><time>2026-05-04T10:00:40.08Z</time></trkpt><trkpt lat="46.1222522" lon="9.3486185"><ele>206.83333333333334</ele><time>2026-05-04T10:00:41.08Z</time></trkpt><trkpt lat="46.122181" lon="9.3485892"><ele>206.66666666666669</ele><time>2026-05-04T10:00:42.081Z</time></trkpt><trkpt lat="46.1221069" lon="9.3485606"><ele>206.5</ele><time>2026-05-04T10:00:43.079Z</time></trkpt><trkpt lat="46.1220335" lon="9.3485407"><ele>206.33333333333334</ele><time>2026-05-04T10:00:44.079Z</time></trkpt><trkpt lat="46.1219618" lon="9.3485017"><ele>206.16666666666669</ele><time>2026-05-04T10:00:45.079Z</time></trkpt><trkpt lat="46.1218912" lon="9.3484595"><ele>206.0</ele><time>2026-05-04T10:00:46.08Z</time></trkpt><trkpt lat="46.1218215" lon="9.3484152"><ele>206.00000000000003</ele><time>2026-05-04T10:00:47.079Z</time></trkpt><trkpt lat="46.1217526" lon="9.3483839"><ele>206.0</ele><time>2026-05-04T10:00:48.08Z</time></trkpt><trkpt lat="46.1216838" lon="9.348355"><ele>206.0</ele><time>2026-05-04T10:00:49.08Z</time></trkpt><trkpt lat="46.1216131" lon="9.3483149"><ele>206.0</ele><time>2026-05-04T10:00:50.08Z</time></trkpt><trkpt lat="46.1215413" lon="9.3482799"><ele>206.00000000000003</ele><time>2026-05-04T10:00:51.079Z</time></trkpt><trkpt lat="46.1214258" lon="9.3482133"><ele>206.0</ele><time>2026-05-04T10:00:53.08Z</time></trkpt><trkpt lat="46.1213623" lon="9.3481796"><ele>206.14285714285714</ele><time>2026-05-04T10:00:54.08Z</time></trkpt><trkpt lat="46.1213008" lon="9.3481512"><ele>206.28571428571428</ele><time>2026-05-04T10:00:55.079Z</time></trkpt><trkpt lat="46.1212382" lon="9.3481177"><ele>206.42857142857144</ele><time>2026-05-04T10:00:56.08Z</time></trkpt><trkpt lat="46.1211748" lon="9.3480921"><ele>206.57142857142856</ele><time>2026-05-04T10:00:57.081Z</time></trkpt><trkpt lat="46.1211056" lon="9.3480607"><ele>206.71428571428572</ele><time>2026-05-04T10:00:58.08Z</time></trkpt><trkpt lat="46.1210389" lon="9.3480216"><ele>206.85714285714286</ele><time>2026-05-04T10:00:59.08Z</time></trkpt><trkpt lat="46.1209751" lon="9.3479882"><ele>207.0</ele><time>2026-05-04T10:01:00.079Z</time></trkpt><trkpt lat="46.1209099" lon="9.3479537"><ele>206.71428571428572</ele><time>2026-05-04T10:01:01.08Z</time></trkpt><trkpt lat="46.1208464" lon="9.3479183"><ele>206.42857142857144</ele><time>2026-05-04T10:01:02.079Z</time></trkpt><trkpt lat="46.1207814" lon="9.3478808"><ele>206.14285714285717</ele><time>2026-05-04T10:01:03.08Z</time></trkpt><trkpt lat="46.1207183" lon="9.3478428"><ele>205.85714285714286</ele><time>2026-05-04T10:01:04.081Z</time></trkpt><trkpt lat="46.1206537" lon="9.3478009"><ele>205.57142857142856</ele><time>2026-05-04T10:01:05.08Z</time></trkpt><trkpt lat="46.1205934" lon="9.3477673"><ele>205.2857142857143</ele><time>2026-05-04T10:01:06.08Z</time></trkpt><trkpt lat="46.1205305" lon="9.3477349"><ele>205.0</ele><time>2026-05-04T10:01:07.08Z</time></trkpt><trkpt lat="46.1204151" lon="9.3476825"><ele>205.0</ele><time>2026-05-04T10:01:09.08Z</time></trkpt><trkpt lat="46.1203052" lon="9.3476344"><ele>205.0</ele><time>2026-05-04T10:01:11.08Z</time></trkpt><trkpt lat="46.1202022" lon="9.3475836"><ele>205.0</ele><time>2026-05-04T10:01:13.079Z</time></trkpt><trkpt lat="46.1200995" lon="9.3475353"><ele>205.0</ele><time>2026-05-04T10:01:15.079Z</time></trkpt><trkpt lat="46.1199888" lon="9.3474802"><ele>205.0</ele><time>2026-05-04T10:01:17.08Z</time></trkpt><trkpt lat="46.1198848" lon="9.3474382"><ele>205.6</ele><time>2026-05-04T10:01:19.079Z</time></trkpt><trkpt lat="46.1197756" lon="9.3473882"><ele>206.2</ele><time>2026-05-04T10:01:21.08Z</time></trkpt><trkpt lat="46.1196703" lon="9.347342"><ele>206.8</ele><time>2026-05-04T10:01:23.08Z</time></trkpt><trkpt lat="46.1195633" lon="9.347299"><ele>207.4</ele><time>2026-05-04T10:01:25.08Z</time></trkpt><trkpt lat="46.1194654" lon="9.347256"><ele>208.0</ele><time>2026-05-04T10:01:27.08Z</time></trkpt><trkpt lat="46.1193671" lon="9.3472036"><ele>206.83333333333331</ele><time>2026-05-04T10:01:29.079Z</time></trkpt><trkpt lat="46.1192629" lon="9.3471583"><ele>205.66666666666666</ele><time>2026-05-04T10:01:31.08Z</time></trkpt><trkpt lat="46.1191439" lon="9.3471202"><ele>204.5</ele><time>2026-05-04T10:01:33.081Z</time></trkpt><trkpt lat="46.1190821" lon="9.3470961"><ele>203.33333333333331</ele><time>2026-05-04T10:01:34.08Z</time></trkpt><trkpt lat="46.1190213" lon="9.3470693"><ele>202.16666666666666</ele><time>2026-05-04T10:01:35.079Z</time></trkpt><trkpt lat="46.1189593" lon="9.3470411"><ele>201.0</ele><time>2026-05-04T10:01:36.079Z</time></trkpt><trkpt lat="46.1188957" lon="9.3470174"><ele>201.0</ele><time>2026-05-04T10:01:37.08Z</time></trkpt><trkpt lat="46.1188332" lon="9.346995"><ele>201.0</ele><time>2026-05-04T10:01:38.08Z</time></trkpt><trkpt lat="46.1187709" lon="9.3469656"><ele>201.0</ele><time>2026-05-04T10:01:39.08Z</time></trkpt><trkpt lat="46.1187081" lon="9.346948"><ele>201.0</ele><time>2026-05-04T10:01:40.08Z</time></trkpt><trkpt lat="46.1186463" lon="9.3469246"><ele>201.0</ele><time>2026-05-04T10:01:41.08Z</time></trkpt><trkpt lat="46.1185287" lon="9.3468859"><ele>201.0</ele><time>2026-05-04T10:01:43.081Z</time></trkpt><trkpt lat="46.118413" lon="9.3468599"><ele>201.0</ele><time>2026-05-04T10:01:45.08Z</time></trkpt><trkpt lat="46.1183485" lon="9.3468432"><ele>201.0</ele><time>2026-05-04T10:01:46.08Z</time></trkpt><trkpt lat="46.1182299" lon="9.3468149"><ele>201.0</ele><time>2026-05-04T10:01:48.08Z</time></trkpt><trkpt lat="46.1181607" lon="9.3467982"><ele>201.0</ele><time>2026-05-04T10:01:49.081Z</time></trkpt><trkpt lat="46.1180939" lon="9.3467788"><ele>201.0</ele><time>2026-05-04T10:01:50.079Z</time></trkpt><trkpt lat="46.118026" lon="9.3467614"><ele>201.0</ele><time>2026-05-04T10:01:51.08Z</time></trkpt><trkpt lat="46.1179565" lon="9.3467349"><ele>201.28571428571428</ele><time>2026-05-04T10:01:52.079Z</time></trkpt><trkpt lat="46.1178905" lon="9.3467091"><ele>201.57142857142858</ele><time>2026-05-04T10:01:53.08Z</time></trkpt><trkpt lat="46.1178262" lon="9.3466919"><ele>201.85714285714286</ele><time>2026-05-04T10:01:54.08Z</time></trkpt><trkpt lat="46.1177518" lon="9.3466674"><ele>202.14285714285714</ele><time>2026-05-04T10:01:55.08Z</time></trkpt><trkpt lat="46.1176781" lon="9.3466388"><ele>202.42857142857144</ele><time>2026-05-04T10:01:56.08Z</time></trkpt><trkpt lat="46.1176059" lon="9.3466143"><ele>202.71428571428572</ele><time>2026-05-04T10:01:57.08Z</time></trkpt><trkpt lat="46.1175358" lon="9.3465981"><ele>203.0</ele><time>2026-05-04T10:01:58.08Z</time></trkpt><trkpt lat="46.1174659" lon="9.3465834"><ele>203.83333333333334</ele><time>2026-05-04T10:01:59.08Z</time></trkpt><trkpt lat="46.1173932" lon="9.3465562"><ele>204.66666666666669</ele><time>2026-05-04T10:02:00.08Z</time></trkpt><trkpt lat="46.1173315" lon="9.3465333"><ele>205.5</ele><time>2026-05-04T10:02:01.081Z</time></trkpt><trkpt lat="46.1172687" lon="9.3465048"><ele>206.33333333333331</ele><time>2026-05-04T10:02:02.081Z</time></trkpt><trkpt lat="46.1171791" lon="9.3464692"><ele>207.16666666666666</ele><time>2026-05-04T10:02:04.079Z</time></trkpt><trkpt lat="46.1171015" lon="9.3464297"><ele>208.0</ele><time>2026-05-04T10:02:16.08Z</time></trkpt><trkpt lat="46.117034" lon="9.3463674"><ele>207.99999999999997</ele><time>2026-05-04T10:02:19.081Z</time></trkpt><trkpt lat="46.1169784" lon="9.3463148"><ele>208.0</ele><time>2026-05-04T10:02:21.08Z</time></trkpt><trkpt lat="46.1169059" lon="9.3462201"><ele>208.0</ele><time>2026-05-04T10:02:23.08Z</time></trkpt><trkpt lat="46.1168344" lon="9.3461169"><ele>208.0</ele><time>2026-05-04T10:02:25.081Z</time></trkpt><trkpt lat="46.1167656" lon="9.3459917"><ele>207.99999999999997</ele><time>2026-05-04T10:02:27.08Z</time></trkpt><trkpt lat="46.1167193" lon="9.3459221"><ele>208.0</ele><time>2026-05-04T10:02:28.081Z</time></trkpt><trkpt lat="46.1166733" lon="9.3458551"><ele>208.0</ele><time>2026-05-04T10:02:29.08Z</time></trkpt><trkpt lat="46.1166042" lon="9.3457224"><ele>208.0</ele><time>2026-05-04T10:02:31.08Z</time></trkpt><trkpt lat="46.1165307" lon="9.345579"><ele>208.0</ele><time>2026-05-04T10:02:33.08Z</time></trkpt><trkpt lat="46.1164876" lon="9.3454988"><ele>208.0</ele><time>2026-05-04T10:02:34.079Z</time></trkpt><trkpt lat="46.1164521" lon="9.3454048"><ele>208.0</ele><time>2026-05-04T10:02:35.08Z</time></trkpt><trkpt lat="46.1164273" lon="9.3453117"><ele>211.83333333333331</ele><time>2026-05-04T10:02:36.08Z</time></trkpt><trkpt lat="46.1164059" lon="9.345211"><ele>215.66666666666666</ele><time>2026-05-04T10:02:37.08Z</time></trkpt><trkpt lat="46.1163864" lon="9.3451154"><ele>219.5</ele><time>2026-05-04T10:02:38.082Z</time></trkpt><trkpt lat="46.1163719" lon="9.3449333"><ele>223.33333333333331</ele><time>2026-05-04T10:02:40.079Z</time></trkpt><trkpt lat="46.1163702" lon="9.3448406"><ele>227.16666666666666</ele><time>2026-05-04T10:02:41.081Z</time></trkpt><trkpt lat="46.1163595" lon="9.3447482"><ele>231.0</ele><time>2026-05-04T10:02:42.081Z</time></trkpt><trkpt lat="46.1163549" lon="9.3446543"><ele>231.0</ele><time>2026-05-04T10:02:43.081Z</time></trkpt><trkpt lat="46.1163488" lon="9.3445587"><ele>231.0</ele><time>2026-05-04T10:02:44.08Z</time></trkpt><trkpt lat="46.1163369" lon="9.3444563"><ele>231.0</ele><time>2026-05-04T10:02:45.079Z</time></trkpt><trkpt lat="46.1163195" lon="9.3442797"><ele>231.0</ele><time>2026-05-04T10:02:47.08Z</time></trkpt><trkpt lat="46.1163069" lon="9.3441574"><ele>231.0</ele><time>2026-05-04T10:02:48.08Z</time></trkpt><trkpt lat="46.1162984" lon="9.3440633"><ele>231.0</ele><time>2026-05-04T10:02:49.08Z</time></trkpt><trkpt lat="46.1162931" lon="9.3439612"><ele>231.28571428571428</ele><time>2026-05-04T10:02:50.08Z</time></trkpt><trkpt lat="46.1162852" lon="9.3438632"><ele>231.57142857142856</ele><time>2026-05-04T10:02:51.081Z</time></trkpt><trkpt lat="46.1162799" lon="9.3437608"><ele>231.85714285714286</ele><time>2026-05-04T10:02:52.079Z</time></trkpt><trkpt lat="46.116276" lon="9.3436584"><ele>232.14285714285714</ele><time>2026-05-04T10:02:53.08Z</time></trkpt><trkpt lat="46.1162675" lon="9.3435664"><ele>232.42857142857142</ele><time>2026-05-04T10:02:54.08Z</time></trkpt><trkpt lat="46.1162592" lon="9.3434668"><ele>232.71428571428572</ele><time>2026-05-04T10:02:55.08Z</time></trkpt><trkpt lat="46.1162482" lon="9.3433612"><ele>233.0</ele><time>2026-05-04T10:02:56.08Z</time></trkpt><trkpt lat="46.1162418" lon="9.3432596"><ele>233.0</ele><time>2026-05-04T10:02:57.08Z</time></trkpt><trkpt lat="46.1162298" lon="9.343148"><ele>233.0</ele><time>2026-05-04T10:02:58.08Z</time></trkpt><trkpt lat="46.1162189" lon="9.343038"><ele>233.0</ele><time>2026-05-04T10:02:59.08Z</time></trkpt><trkpt lat="46.1162144" lon="9.3429329"><ele>233.0</ele><time>2026-05-04T10:03:00.08Z</time></trkpt><trkpt lat="46.1162123" lon="9.3428273"><ele>233.0</ele><time>2026-05-04T10:03:01.08Z</time></trkpt><trkpt lat="46.1162093" lon="9.342727"><ele>233.0</ele><time>2026-05-04T10:03:02.079Z</time></trkpt><trkpt lat="46.1162129" lon="9.3426209"><ele>233.0</ele><time>2026-05-04T10:03:03.08Z</time></trkpt><trkpt lat="46.1162158" lon="9.3425152"><ele>234.50000000000003</ele><time>2026-05-04T10:03:04.08Z</time></trkpt><trkpt lat="46.116216" lon="9.3423803"><ele>236.0</ele><time>2026-05-04T10:03:05.08Z</time></trkpt><trkpt lat="46.116224" lon="9.3422684"><ele>237.5</ele><time>2026-05-04T10:03:06.079Z</time></trkpt><trkpt lat="46.1162365" lon="9.3421683"><ele>239.0</ele><time>2026-05-04T10:03:07.08Z</time></trkpt><trkpt lat="46.1162552" lon="9.3420757"><ele>240.50000000000003</ele><time>2026-05-04T10:03:08.079Z</time></trkpt><trkpt lat="46.1162705" lon="9.3419669"><ele>242.0</ele><time>2026-05-04T10:03:09.08Z</time></trkpt><trkpt lat="46.1162955" lon="9.3418738"><ele>243.50000000000003</ele><time>2026-05-04T10:03:10.079Z</time></trkpt><trkpt lat="46.1163218" lon="9.3417865"><ele>245.0</ele><time>2026-05-04T10:03:11.081Z</time></trkpt><trkpt lat="46.1163424" lon="9.3416963"><ele>246.5</ele><time>2026-05-04T10:03:12.08Z</time></trkpt><trkpt lat="46.1163656" lon="9.3416073"><ele>248.0</ele><time>2026-05-04T10:03:13.079Z</time></trkpt><trkpt lat="46.1163876" lon="9.3415221"><ele>249.50000000000003</ele><time>2026-05-04T10:03:14.079Z</time></trkpt><trkpt lat="46.1164258" lon="9.3413815"><ele>251.0</ele><time>2026-05-04T10:03:16.081Z</time></trkpt><trkpt lat="46.1164576" lon="9.3412647"><ele>254.16666666666669</ele><time>2026-05-04T10:03:18.079Z</time></trkpt><trkpt lat="46.1164888" lon="9.3411473"><ele>257.33333333333337</ele><time>2026-05-04T10:03:21.081Z</time></trkpt><trkpt lat="46.116506" lon="9.341038"><ele>260.5</ele><time>2026-05-04T10:03:24.08Z</time></trkpt><trkpt lat="46.116551" lon="9.3409367"><ele>263.6666666666667</ele><time>2026-05-04T10:03:28.081Z</time></trkpt><trkpt lat="46.1165738" lon="9.3408342"><ele>266.8333333333333</ele><time>2026-05-04T10:04:45.081Z</time></trkpt><trkpt lat="46.1165944" lon="9.3407332"><ele>270.0</ele><time>2026-05-04T10:04:48.079Z</time></trkpt><trkpt lat="46.1166297" lon="9.3406226"><ele>262.5</ele><time>2026-05-04T10:04:51.08Z</time></trkpt><trkpt lat="46.1166556" lon="9.3405347"><ele>255.0</ele><time>2026-05-04T10:04:53.08Z</time></trkpt><trkpt lat="46.1166837" lon="9.3404171"><ele>247.5</ele><time>2026-05-04T10:04:55.081Z</time></trkpt><trkpt lat="46.1167107" lon="9.3402816"><ele>240.0</ele><time>2026-05-04T10:04:57.079Z</time></trkpt><trkpt lat="46.1167418" lon="9.3401462"><ele>232.5</ele><time>2026-05-04T10:04:59.081Z</time></trkpt><trkpt lat="46.1167676" lon="9.340012"><ele>225.0</ele><time>2026-05-04T10:05:01.08Z</time></trkpt><trkpt lat="46.1167983" lon="9.3398741"><ele>225.0</ele><time>2026-05-04T10:05:03.081Z</time></trkpt><trkpt lat="46.1168275" lon="9.3397358"><ele>225.0</ele><time>2026-05-04T10:05:05.081Z</time></trkpt><trkpt lat="46.116856" lon="9.3395846"><ele>225.0</ele><time>2026-05-04T10:05:07.079Z</time></trkpt><trkpt lat="46.1168782" lon="9.3394431"><ele>225.0</ele><time>2026-05-04T10:05:09.08Z</time></trkpt><trkpt lat="46.1169011" lon="9.3392933"><ele>225.0</ele><time>2026-05-04T10:05:11.081Z</time></trkpt><trkpt lat="46.1169278" lon="9.3391596"><ele>227.4</ele><time>2026-05-04T10:05:13.081Z</time></trkpt><trkpt lat="46.1169711" lon="9.339022"><ele>229.8</ele><time>2026-05-04T10:05:15.08Z</time></trkpt><trkpt lat="46.1169904" lon="9.3388622"><ele>232.2</ele><time>2026-05-04T10:05:17.08Z</time></trkpt><trkpt lat="46.1169924" lon="9.338698"><ele>234.6</ele><time>2026-05-04T10:05:19.079Z</time></trkpt><trkpt lat="46.1169808" lon="9.3385428"><ele>237.0</ele><time>2026-05-04T10:05:21.08Z</time></trkpt><trkpt lat="46.1169967" lon="9.3384131"><ele>237.6</ele><time>2026-05-04T10:05:23.08Z</time></trkpt><trkpt lat="46.1169918" lon="9.3382537"><ele>238.2</ele><time>2026-05-04T10:05:25.08Z</time></trkpt><trkpt lat="46.1170023" lon="9.3381041"><ele>238.8</ele><time>2026-05-04T10:05:28.081Z</time></trkpt><trkpt lat="46.1170048" lon="9.3379636"><ele>239.4</ele><time>2026-05-04T10:05:30.082Z</time></trkpt><trkpt lat="46.1170044" lon="9.3378363"><ele>240.0</ele><time>2026-05-04T10:05:32.08Z</time></trkpt><trkpt lat="46.117005" lon="9.3376983"><ele>238.8</ele><time>2026-05-04T10:05:34.082Z</time></trkpt><trkpt lat="46.1169882" lon="9.3375811"><ele>237.6</ele><time>2026-05-04T10:05:36.081Z</time></trkpt><trkpt lat="46.1169663" lon="9.3374728"><ele>236.39999999999998</ele><time>2026-05-04T10:05:38.08Z</time></trkpt><trkpt lat="46.1169202" lon="9.3373463"><ele>235.2</ele><time>2026-05-04T10:05:40.081Z</time></trkpt><trkpt lat="46.116882" lon="9.3372054"><ele>234.0</ele><time>2026-05-04T10:05:42.079Z</time></trkpt><trkpt lat="46.1168449" lon="9.3370795"><ele>231.6</ele><time>2026-05-04T10:05:44.08Z</time></trkpt><trkpt lat="46.1168058" lon="9.3369752"><ele>229.2</ele><time>2026-05-04T10:05:46.08Z</time></trkpt><trkpt lat="46.1167523" lon="9.3368331"><ele>226.79999999999998</ele><time>2026-05-04T10:05:48.08Z</time></trkpt><trkpt lat="46.1167153" lon="9.3367395"><ele>224.39999999999998</ele><time>2026-05-04T10:05:50.079Z</time></trkpt><trkpt lat="46.1166823" lon="9.3366564"><ele>222.0</ele><time>2026-05-04T10:05:51.081Z</time></trkpt><trkpt lat="46.1166298" lon="9.3365062"><ele>222.0</ele><time>2026-05-04T10:05:53.08Z</time></trkpt><trkpt lat="46.1165871" lon="9.3364123"><ele>222.0</ele><time>2026-05-04T10:05:55.082Z</time></trkpt><trkpt lat="46.1165434" lon="9.336323"><ele>222.0</ele><time>2026-05-04T10:05:57.081Z</time></trkpt><trkpt lat="46.1165053" lon="9.3362202"><ele>222.0</ele><time>2026-05-04T10:05:59.08Z</time></trkpt><trkpt lat="46.1164628" lon="9.3361262"><ele>222.0</ele><time>2026-05-04T10:06:01.081Z</time></trkpt><trkpt lat="46.1164053" lon="9.3360094"><ele>222.0</ele><time>2026-05-04T10:06:03.081Z</time></trkpt><trkpt lat="46.1163472" lon="9.3359336"><ele>225.33333333333334</ele><time>2026-05-04T10:06:06.081Z</time></trkpt><trkpt lat="46.1163075" lon="9.3358505"><ele>228.66666666666669</ele><time>2026-05-04T10:06:08.081Z</time></trkpt><trkpt lat="46.1162607" lon="9.3357837"><ele>232.0</ele><time>2026-05-04T10:06:10.081Z</time></trkpt><trkpt lat="46.1162042" lon="9.3357104"><ele>235.33333333333334</ele><time>2026-05-04T10:06:12.081Z</time></trkpt><trkpt lat="46.1161372" lon="9.3356056"><ele>238.66666666666669</ele><time>2026-05-04T10:06:14.08Z</time></trkpt><trkpt lat="46.1160947" lon="9.3355032"><ele>242.0</ele><time>2026-05-04T10:06:16.08Z</time></trkpt><trkpt lat="46.1160564" lon="9.335423"><ele>242.00000000000003</ele><time>2026-05-04T10:06:18.08Z</time></trkpt><trkpt lat="46.1160133" lon="9.335327"><ele>242.0</ele><time>2026-05-04T10:06:20.08Z</time></trkpt><trkpt lat="46.1159771" lon="9.335224"><ele>242.0</ele><time>2026-05-04T10:06:22.08Z</time></trkpt><trkpt lat="46.1159453" lon="9.3351224"><ele>242.0</ele><time>2026-05-04T10:06:24.079Z</time></trkpt><trkpt lat="46.1159161" lon="9.3350114"><ele>242.00000000000003</ele><time>2026-05-04T10:06:26.081Z</time></trkpt><trkpt lat="46.1159032" lon="9.3348865"><ele>242.0</ele><time>2026-05-04T10:06:28.081Z</time></trkpt><trkpt lat="46.115904" lon="9.3347406"><ele>239.00000000000003</ele><time>2026-05-04T10:06:30.08Z</time></trkpt><trkpt lat="46.1159043" lon="9.3346071"><ele>236.0</ele><time>2026-05-04T10:06:32.081Z</time></trkpt><trkpt lat="46.1158889" lon="9.3344781"><ele>233.0</ele><time>2026-05-04T10:06:34.082Z</time></trkpt><trkpt lat="46.1158597" lon="9.3343596"><ele>230.0</ele><time>2026-05-04T10:06:36.08Z</time></trkpt><trkpt lat="46.1158294" lon="9.3342694"><ele>227.00000000000003</ele><time>2026-05-04T10:06:38.081Z</time></trkpt><trkpt lat="46.115784" lon="9.3341565"><ele>224.0</ele><time>2026-05-04T10:06:40.079Z</time></trkpt><trkpt lat="46.1157449" lon="9.334072"><ele>227.83333333333334</ele><time>2026-05-04T10:06:41.191Z</time></trkpt><trkpt lat="46.1157046" lon="9.3339727"><ele>231.66666666666669</ele><time>2026-05-04T10:06:43.08Z</time></trkpt><trkpt lat="46.1156678" lon="9.3338745"><ele>235.5</ele><time>2026-05-04T10:06:45.081Z</time></trkpt><trkpt lat="46.115625" lon="9.3337685"><ele>239.33333333333331</ele><time>2026-05-04T10:06:47.079Z</time></trkpt><trkpt lat="46.1155826" lon="9.3336719"><ele>243.16666666666666</ele><time>2026-05-04T10:06:49.081Z</time></trkpt><trkpt lat="46.115538" lon="9.3335766"><ele>247.0</ele><time>2026-05-04T10:06:51.08Z</time></trkpt><trkpt lat="46.1154603" lon="9.3334564"><ele>246.99999999999997</ele><time>2026-05-04T10:06:54.08Z</time></trkpt><trkpt lat="46.1154108" lon="9.3333875"><ele>247.0</ele><time>2026-05-04T10:06:55.081Z</time></trkpt><trkpt lat="46.1153759" lon="9.3332818"><ele>247.0</ele><time>2026-05-04T10:06:57.08Z</time></trkpt><trkpt lat="46.115318" lon="9.3331913"><ele>247.0</ele><time>2026-05-04T10:06:59.08Z</time></trkpt><trkpt lat="46.1152595" lon="9.3331001"><ele>246.99999999999997</ele><time>2026-05-04T10:07:01.081Z</time></trkpt><trkpt lat="46.1152103" lon="9.3330085"><ele>247.0</ele><time>2026-05-04T10:07:03.08Z</time></trkpt><trkpt lat="46.1151519" lon="9.332911"><ele>243.33333333333331</ele><time>2026-05-04T10:07:05.081Z</time></trkpt><trkpt lat="46.1150938" lon="9.3327993"><ele>239.66666666666666</ele><time>2026-05-04T10:07:07.08Z</time></trkpt><trkpt lat="46.1150566" lon="9.3327026"><ele>236.0</ele><time>2026-05-04T10:07:09.08Z</time></trkpt><trkpt lat="46.1150201" lon="9.3325919"><ele>232.33333333333331</ele><time>2026-05-04T10:07:11.081Z</time></trkpt><trkpt lat="46.1149944" lon="9.3324836"><ele>228.66666666666666</ele><time>2026-05-04T10:07:13.08Z</time></trkpt><trkpt lat="46.1149651" lon="9.3323651"><ele>225.0</ele><time>2026-05-04T10:07:15.081Z</time></trkpt><trkpt lat="46.1149246" lon="9.3322517"><ele>230.4</ele><time>2026-05-04T10:07:17.082Z</time></trkpt><trkpt lat="46.1148671" lon="9.3321303"><ele>235.8</ele><time>2026-05-04T10:07:19.081Z</time></trkpt><trkpt lat="46.1148195" lon="9.3320161"><ele>241.2</ele><time>2026-05-04T10:07:21.082Z</time></trkpt><trkpt lat="46.1147739" lon="9.3319098"><ele>246.6</ele><time>2026-05-04T10:07:23.082Z</time></trkpt><trkpt lat="46.1147254" lon="9.3317615"><ele>252.0</ele><time>2026-05-04T10:07:25.08Z</time></trkpt><trkpt lat="46.1146848" lon="9.3316261"><ele>252.0</ele><time>2026-05-04T10:07:27.081Z</time></trkpt><trkpt lat="46.1146532" lon="9.3315054"><ele>252.0</ele><time>2026-05-04T10:07:29.081Z</time></trkpt><trkpt lat="46.1146173" lon="9.3313993"><ele>252.0</ele><time>2026-05-04T10:07:31.081Z</time></trkpt><trkpt lat="46.1145935" lon="9.3312917"><ele>252.0</ele><time>2026-05-04T10:07:33.081Z</time></trkpt><trkpt lat="46.1145579" lon="9.3311705"><ele>252.0</ele><time>2026-05-04T10:07:35.081Z</time></trkpt><trkpt lat="46.1145223" lon="9.3310203"><ele>250.6</ele><time>2026-05-04T10:07:37.081Z</time></trkpt><trkpt lat="46.1144895" lon="9.3308704"><ele>249.2</ele><time>2026-05-04T10:07:39.081Z</time></trkpt><trkpt lat="46.1144792" lon="9.3307363"><ele>247.8</ele><time>2026-05-04T10:07:41.081Z</time></trkpt><trkpt lat="46.1144597" lon="9.3305979"><ele>246.4</ele><time>2026-05-04T10:07:43.08Z</time></trkpt><trkpt lat="46.1144518" lon="9.3304556"><ele>245.0</ele><time>2026-05-04T10:07:45.08Z</time></trkpt><trkpt lat="46.1144479" lon="9.3303244"><ele>243.4</ele><time>2026-05-04T10:07:47.081Z</time></trkpt><trkpt lat="46.1144265" lon="9.3301926"><ele>241.8</ele><time>2026-05-04T10:07:49.082Z</time></trkpt><trkpt lat="46.1144165" lon="9.3300629"><ele>240.2</ele><time>2026-05-04T10:07:51.08Z</time></trkpt><trkpt lat="46.1144101" lon="9.3299198"><ele>238.6</ele><time>2026-05-04T10:07:53.082Z</time></trkpt><trkpt lat="46.1144043" lon="9.3297758"><ele>237.0</ele><time>2026-05-04T10:07:55.08Z</time></trkpt><trkpt lat="46.1143956" lon="9.3296025"><ele>236.39999999999998</ele><time>2026-05-04T10:07:57.081Z</time></trkpt><trkpt lat="46.1143891" lon="9.329451"><ele>235.79999999999998</ele><time>2026-05-04T10:07:59.079Z</time></trkpt><trkpt lat="46.1143804" lon="9.3293012"><ele>235.2</ele><time>2026-05-04T10:08:01.08Z</time></trkpt><trkpt lat="46.114371" lon="9.3291536"><ele>234.6</ele><time>2026-05-04T10:08:03.082Z</time></trkpt><trkpt lat="46.1143696" lon="9.3290412"><ele>234.0</ele><time>2026-05-04T10:08:05.08Z</time></trkpt><trkpt lat="46.1143746" lon="9.3289142"><ele>232.6</ele><time>2026-05-04T10:08:07.08Z</time></trkpt><trkpt lat="46.1143646" lon="9.3287819"><ele>231.2</ele><time>2026-05-04T10:08:09.081Z</time></trkpt><trkpt lat="46.1143409" lon="9.3286444"><ele>229.79999999999998</ele><time>2026-05-04T10:08:11.081Z</time></trkpt><trkpt lat="46.1143048" lon="9.328521"><ele>228.39999999999998</ele><time>2026-05-04T10:08:13.08Z</time></trkpt><trkpt lat="46.1142504" lon="9.3284185"><ele>227.0</ele><time>2026-05-04T10:08:15.081Z</time></trkpt><trkpt lat="46.1141802" lon="9.3283142"><ele>227.0</ele><time>2026-05-04T10:08:17.08Z</time></trkpt><trkpt lat="46.1141128" lon="9.3282006"><ele>227.0</ele><time>2026-05-04T10:08:19.08Z</time></trkpt><trkpt lat="46.1140579" lon="9.32808"><ele>227.0</ele><time>2026-05-04T10:08:21.08Z</time></trkpt><trkpt lat="46.1140226" lon="9.327955"><ele>227.0</ele><time>2026-05-04T10:08:23.081Z</time></trkpt><trkpt lat="46.1140124" lon="9.3278021"><ele>227.0</ele><time>2026-05-04T10:08:25.081Z</time></trkpt><trkpt lat="46.1140067" lon="9.3276707"><ele>238.39999999999998</ele><time>2026-05-04T10:08:27.082Z</time></trkpt><trkpt lat="46.1140014" lon="9.3275296"><ele>249.79999999999998</ele><time>2026-05-04T10:08:29.082Z</time></trkpt><trkpt lat="46.1139986" lon="9.327386"><ele>261.2</ele><time>2026-05-04T10:08:31.082Z</time></trkpt><trkpt lat="46.113991" lon="9.3272325"><ele>272.59999999999997</ele><time>2026-05-04T10:08:33.08Z</time></trkpt><trkpt lat="46.1139836" lon="9.3270943"><ele>284.0</ele><time>2026-05-04T10:08:35.081Z</time></trkpt><trkpt lat="46.1139803" lon="9.3269287"><ele>284.5</ele><time>2026-05-04T10:08:37.08Z</time></trkpt><trkpt lat="46.1139735" lon="9.3267703"><ele>285.0</ele><time>2026-05-04T10:08:39.08Z</time></trkpt><trkpt lat="46.1139923" lon="9.3266211"><ele>285.5</ele><time>2026-05-04T10:08:41.082Z</time></trkpt><trkpt lat="46.1140221" lon="9.3264558"><ele>286.0</ele><time>2026-05-04T10:08:43.08Z</time></trkpt><trkpt lat="46.1140572" lon="9.3262869"><ele>279.6</ele><time>2026-05-04T10:08:45.08Z</time></trkpt><trkpt lat="46.1140937" lon="9.3261233"><ele>273.20000000000005</ele><time>2026-05-04T10:08:47.081Z</time></trkpt><trkpt lat="46.114139" lon="9.3259906"><ele>266.79999999999995</ele><time>2026-05-04T10:08:49.082Z</time></trkpt><trkpt lat="46.1141619" lon="9.3258391"><ele>260.4</ele><time>2026-05-04T10:08:51.082Z</time></trkpt><trkpt lat="46.114197" lon="9.3257055"><ele>254.0</ele><time>2026-05-04T10:08:53.081Z</time></trkpt><trkpt lat="46.1142334" lon="9.3255609"><ele>254.00000000000003</ele><time>2026-05-04T10:08:55.08Z</time></trkpt><trkpt lat="46.1142773" lon="9.3254473"><ele>254.0</ele><time>2026-05-04T10:08:57.082Z</time></trkpt><trkpt lat="46.1143249" lon="9.3253293"><ele>254.0</ele><time>2026-05-04T10:08:59.081Z</time></trkpt><trkpt lat="46.11436" lon="9.3252196"><ele>254.0</ele><time>2026-05-04T10:09:01.082Z</time></trkpt><trkpt lat="46.1144107" lon="9.3251125"><ele>254.00000000000003</ele><time>2026-05-04T10:09:03.081Z</time></trkpt><trkpt lat="46.1144521" lon="9.3250239"><ele>254.0</ele><time>2026-05-04T10:09:05.082Z</time></trkpt><trkpt lat="46.1145116" lon="9.324946"><ele>254.00000000000003</ele><time>2026-05-04T10:09:07.081Z</time></trkpt><trkpt lat="46.1145815" lon="9.3248753"><ele>254.0</ele><time>2026-05-04T10:09:09.081Z</time></trkpt><trkpt lat="46.1146346" lon="9.3248081"><ele>254.0</ele><time>2026-05-04T10:09:12.08Z</time></trkpt><trkpt lat="46.1146724" lon="9.3246958"><ele>254.0</ele><time>2026-05-04T10:09:14.081Z</time></trkpt><trkpt lat="46.1147095" lon="9.3245782"><ele>254.00000000000003</ele><time>2026-05-04T10:09:17.081Z</time></trkpt><trkpt lat="46.1147236" lon="9.3244501"><ele>254.0</ele><time>2026-05-04T10:09:20.081Z</time></trkpt><trkpt lat="46.1147336" lon="9.3243572"><ele>256.5</ele><time>2026-05-04T10:09:22.125Z</time></trkpt><trkpt lat="46.114736" lon="9.324234"><ele>259.0</ele><time>2026-05-04T10:09:25.081Z</time></trkpt><trkpt lat="46.1147316" lon="9.3241046"><ele>261.5</ele><time>2026-05-04T10:09:28.08Z</time></trkpt><trkpt lat="46.1147247" lon="9.3239825"><ele>264.0</ele><time>2026-05-04T10:09:31.081Z</time></trkpt><trkpt lat="46.1147118" lon="9.3238707"><ele>266.5</ele><time>2026-05-04T10:09:34.136Z</time></trkpt><trkpt lat="46.1147131" lon="9.32375"><ele>269.0</ele><time>2026-05-04T10:09:37.165Z</time></trkpt><trkpt lat="46.1146892" lon="9.3236365"><ele>269.1666666666667</ele><time>2026-05-04T10:09:40.081Z</time></trkpt><trkpt lat="46.1146575" lon="9.3235248"><ele>269.33333333333337</ele><time>2026-05-04T10:09:43.164Z</time></trkpt><trkpt lat="46.1146244" lon="9.3234285"><ele>269.5</ele><time>2026-05-04T10:09:46.082Z</time></trkpt><trkpt lat="46.1145984" lon="9.3233154"><ele>269.6666666666667</ele><time>2026-05-04T10:09:49.081Z</time></trkpt><trkpt lat="46.1145682" lon="9.3232205"><ele>269.8333333333333</ele><time>2026-05-04T10:09:51.164Z</time></trkpt><trkpt lat="46.1145323" lon="9.3231253"><ele>270.0</ele><time>2026-05-04T10:09:54.082Z</time></trkpt><trkpt lat="46.1145171" lon="9.3230242"><ele>270.0</ele><time>2026-05-04T10:09:57.122Z</time></trkpt><trkpt lat="46.1145208" lon="9.322931"><ele>270.0</ele><time>2026-05-04T10:10:00.082Z</time></trkpt><trkpt lat="46.1145264" lon="9.3228175"><ele>270.0</ele><time>2026-05-04T10:10:03.146Z</time></trkpt><trkpt lat="46.1145366" lon="9.3227121"><ele>270.0</ele><time>2026-05-04T10:10:06.165Z</time></trkpt><trkpt lat="46.1145192" lon="9.3226113"><ele>270.0</ele><time>2026-05-04T10:10:09.082Z</time></trkpt><trkpt lat="46.1145024" lon="9.3224933"><ele>270.0</ele><time>2026-05-04T10:10:12.164Z</time></trkpt><trkpt lat="46.1145066" lon="9.3223816"><ele>270.0</ele><time>2026-05-04T10:10:15.082Z</time></trkpt><trkpt lat="46.1145167" lon="9.3222756"><ele>270.0</ele><time>2026-05-04T10:10:18.24Z</time></trkpt><trkpt lat="46.1145211" lon="9.3221678"><ele>270.0</ele><time>2026-05-04T10:10:21.081Z</time></trkpt><trkpt lat="46.1145362" lon="9.3220627"><ele>270.0</ele><time>2026-05-04T10:10:24.082Z</time></trkpt><trkpt lat="46.1145401" lon="9.3219452"><ele>270.0</ele><time>2026-05-04T10:10:27.164Z</time></trkpt><trkpt lat="46.1145279" lon="9.321835"><ele>270.0</ele><time>2026-05-04T10:10:30.081Z</time></trkpt><trkpt lat="46.1145267" lon="9.3217194"><ele>269.85714285714283</ele><time>2026-05-04T10:10:33.17Z</time></trkpt><trkpt lat="46.1145356" lon="9.3215939"><ele>269.71428571428567</ele><time>2026-05-04T10:10:37.164Z</time></trkpt><trkpt lat="46.1145125" lon="9.3214885"><ele>269.57142857142856</ele><time>2026-05-04T10:10:40.165Z</time></trkpt><trkpt lat="46.1145083" lon="9.3213906"><ele>269.42857142857144</ele><time>2026-05-04T10:10:43.081Z</time></trkpt><trkpt lat="46.1145101" lon="9.3212948"><ele>269.28571428571433</ele><time>2026-05-04T10:10:46.164Z</time></trkpt><trkpt lat="46.1145162" lon="9.3211974"><ele>269.14285714285717</ele><time>2026-05-04T10:10:49.081Z</time></trkpt><trkpt lat="46.1145228" lon="9.3210875"><ele>269.0</ele><time>2026-05-04T10:10:52.081Z</time></trkpt><trkpt lat="46.1145234" lon="9.3209686"><ele>268.6666666666667</ele><time>2026-05-04T10:10:55.081Z</time></trkpt><trkpt lat="46.114523" lon="9.3208458"><ele>268.33333333333337</ele><time>2026-05-04T10:10:58.164Z</time></trkpt><trkpt lat="46.1145344" lon="9.320751"><ele>268.0</ele><time>2026-05-04T10:11:01.08Z</time></trkpt><trkpt lat="46.1145471" lon="9.3206505"><ele>267.6666666666667</ele><time>2026-05-04T10:11:04.082Z</time></trkpt><trkpt lat="46.1145479" lon="9.3205446"><ele>267.3333333333333</ele><time>2026-05-04T10:11:07.164Z</time></trkpt><trkpt lat="46.1145548" lon="9.3204102"><ele>267.0</ele><time>2026-05-04T10:11:10.081Z</time></trkpt><trkpt lat="46.1145676" lon="9.3203168"><ele>266.8333333333333</ele><time>2026-05-04T10:11:12.081Z</time></trkpt><trkpt lat="46.1145638" lon="9.3202148"><ele>266.6666666666667</ele><time>2026-05-04T10:11:14.112Z</time></trkpt><trkpt lat="46.1145584" lon="9.3201094"><ele>266.5</ele><time>2026-05-04T10:11:16.081Z</time></trkpt><trkpt lat="46.1145668" lon="9.3200083"><ele>266.33333333333337</ele><time>2026-05-04T10:11:18.081Z</time></trkpt><trkpt lat="46.1145761" lon="9.3199162"><ele>266.1666666666667</ele><time>2026-05-04T10:11:20.195Z</time></trkpt><trkpt lat="46.1145663" lon="9.3197856"><ele>266.0</ele><time>2026-05-04T10:11:23.082Z</time></trkpt><trkpt lat="46.1145655" lon="9.3196651"><ele>266.0</ele><time>2026-05-04T10:11:26.162Z</time></trkpt><trkpt lat="46.1145689" lon="9.3195513"><ele>266.0</ele><time>2026-05-04T10:11:29.172Z</time></trkpt><trkpt lat="46.1145676" lon="9.3194487"><ele>266.0</ele><time>2026-05-04T10:11:32.08Z</time></trkpt><trkpt lat="46.1145606" lon="9.3193283"><ele>266.0</ele><time>2026-05-04T10:11:35.165Z</time></trkpt><trkpt lat="46.1145602" lon="9.3192128"><ele>266.0</ele><time>2026-05-04T10:11:38.081Z</time></trkpt><trkpt lat="46.1145577" lon="9.319101"><ele>266.0</ele><time>2026-05-04T10:11:41.184Z</time></trkpt><trkpt lat="46.1145572" lon="9.3189894"><ele>264.83333333333337</ele><time>2026-05-04T10:11:44.082Z</time></trkpt><trkpt lat="46.1145534" lon="9.3188788"><ele>263.6666666666667</ele><time>2026-05-04T10:11:47.148Z</time></trkpt><trkpt lat="46.1145639" lon="9.3187789"><ele>262.5</ele><time>2026-05-04T10:11:50.082Z</time></trkpt><trkpt lat="46.1145794" lon="9.3186668"><ele>261.3333333333333</ele><time>2026-05-04T10:11:53.08Z</time></trkpt><trkpt lat="46.1145901" lon="9.3185544"><ele>260.16666666666663</ele><time>2026-05-04T10:11:56.081Z</time></trkpt><trkpt lat="46.1145789" lon="9.3184362"><ele>259.0</ele><time>2026-05-04T10:11:59.081Z</time></trkpt><trkpt lat="46.1145728" lon="9.3183235"><ele>259.0</ele><time>2026-05-04T10:12:02.082Z</time></trkpt><trkpt lat="46.1145592" lon="9.3182049"><ele>259.0</ele><time>2026-05-04T10:12:05.082Z</time></trkpt><trkpt lat="46.1145341" lon="9.3180749"><ele>259.0</ele><time>2026-05-04T10:12:08.082Z</time></trkpt><trkpt lat="46.1145068" lon="9.3179734"><ele>259.0</ele><time>2026-05-04T10:12:10.083Z</time></trkpt><trkpt lat="46.1144776" lon="9.3178509"><ele>259.0</ele><time>2026-05-04T10:12:12.082Z</time></trkpt><trkpt lat="46.1144418" lon="9.3177247"><ele>259.0</ele><time>2026-05-04T10:12:14.081Z</time></trkpt><trkpt lat="46.1143871" lon="9.3175934"><ele>259.3333333333333</ele><time>2026-05-04T10:12:16.08Z</time></trkpt><trkpt lat="46.1143073" lon="9.3174388"><ele>259.66666666666663</ele><time>2026-05-04T10:12:18.083Z</time></trkpt><trkpt lat="46.1142649" lon="9.3173676"><ele>260.0</ele><time>2026-05-04T10:12:19.081Z</time></trkpt><trkpt lat="46.1142173" lon="9.3172956"><ele>260.3333333333333</ele><time>2026-05-04T10:12:20.082Z</time></trkpt><trkpt lat="46.1141644" lon="9.3172234"><ele>260.6666666666667</ele><time>2026-05-04T10:12:21.082Z</time></trkpt><trkpt lat="46.1141098" lon="9.3171591"><ele>261.0</ele><time>2026-05-04T10:12:22.08Z</time></trkpt><trkpt lat="46.114044" lon="9.3170817"><ele>259.8333333333333</ele><time>2026-05-04T10:12:23.081Z</time></trkpt><trkpt lat="46.1139836" lon="9.3170113"><ele>258.6666666666667</ele><time>2026-05-04T10:12:24.081Z</time></trkpt><trkpt lat="46.1139113" lon="9.3169362"><ele>257.5</ele><time>2026-05-04T10:12:25.082Z</time></trkpt><trkpt lat="46.1138445" lon="9.3168694"><ele>256.33333333333337</ele><time>2026-05-04T10:12:26.082Z</time></trkpt><trkpt lat="46.1137767" lon="9.3167996"><ele>255.16666666666669</ele><time>2026-05-04T10:12:27.082Z</time></trkpt><trkpt lat="46.1137092" lon="9.316733"><ele>254.0</ele><time>2026-05-04T10:12:28.081Z</time></trkpt><trkpt lat="46.1136469" lon="9.3166761"><ele>254.00000000000003</ele><time>2026-05-04T10:12:29.081Z</time></trkpt><trkpt lat="46.1135769" lon="9.3166235"><ele>254.0</ele><time>2026-05-04T10:12:30.082Z</time></trkpt><trkpt lat="46.1135055" lon="9.3165795"><ele>254.0</ele><time>2026-05-04T10:12:31.082Z</time></trkpt><trkpt lat="46.1134285" lon="9.316553"><ele>254.0</ele><time>2026-05-04T10:12:32.083Z</time></trkpt><trkpt lat="46.1133407" lon="9.3165419"><ele>254.00000000000003</ele><time>2026-05-04T10:12:33.082Z</time></trkpt><trkpt lat="46.1132519" lon="9.3165495"><ele>254.0</ele><time>2026-05-04T10:12:34.083Z</time></trkpt><trkpt lat="46.1131602" lon="9.3165711"><ele>253.2</ele><time>2026-05-04T10:12:35.082Z</time></trkpt><trkpt lat="46.1130717" lon="9.3165925"><ele>252.39999999999998</ele><time>2026-05-04T10:12:36.081Z</time></trkpt><trkpt lat="46.1129808" lon="9.3166294"><ele>251.6</ele><time>2026-05-04T10:12:37.081Z</time></trkpt><trkpt lat="46.1128812" lon="9.3166536"><ele>250.8</ele><time>2026-05-04T10:12:38.081Z</time></trkpt><trkpt lat="46.1127918" lon="9.3166807"><ele>250.0</ele><time>2026-05-04T10:12:39.083Z</time></trkpt><trkpt lat="46.112705" lon="9.316701"><ele>249.99999999999997</ele><time>2026-05-04T10:12:40.081Z</time></trkpt><trkpt lat="46.1126196" lon="9.3167157"><ele>250.0</ele><time>2026-05-04T10:12:41.08Z</time></trkpt><trkpt lat="46.1125347" lon="9.3167209"><ele>250.0</ele><time>2026-05-04T10:12:42.082Z</time></trkpt><trkpt lat="46.1124479" lon="9.3167165"><ele>250.0</ele><time>2026-05-04T10:12:43.082Z</time></trkpt><trkpt lat="46.1123614" lon="9.3167254"><ele>249.99999999999997</ele><time>2026-05-04T10:12:44.081Z</time></trkpt><trkpt lat="46.1122713" lon="9.3167161"><ele>250.0</ele><time>2026-05-04T10:12:45.08Z</time></trkpt><trkpt lat="46.1121878" lon="9.3167201"><ele>247.83333333333331</ele><time>2026-05-04T10:12:46.081Z</time></trkpt><trkpt lat="46.112104" lon="9.316727"><ele>245.66666666666666</ele><time>2026-05-04T10:12:47.081Z</time></trkpt><trkpt lat="46.1120267" lon="9.3167414"><ele>243.5</ele><time>2026-05-04T10:12:48.082Z</time></trkpt><trkpt lat="46.111946" lon="9.3167715"><ele>241.33333333333331</ele><time>2026-05-04T10:12:49.081Z</time></trkpt><trkpt lat="46.1118673" lon="9.3168139"><ele>239.16666666666666</ele><time>2026-05-04T10:12:50.082Z</time></trkpt><trkpt lat="46.1117965" lon="9.3168661"><ele>237.0</ele><time>2026-05-04T10:12:51.082Z</time></trkpt><trkpt lat="46.1117278" lon="9.316924"><ele>237.0</ele><time>2026-05-04T10:12:52.082Z</time></trkpt><trkpt lat="46.1116539" lon="9.3169866"><ele>237.0</ele><time>2026-05-04T10:12:53.081Z</time></trkpt><trkpt lat="46.1115912" lon="9.3170597"><ele>237.0</ele><time>2026-05-04T10:12:54.081Z</time></trkpt><trkpt lat="46.1115241" lon="9.3171242"><ele>237.0</ele><time>2026-05-04T10:12:55.082Z</time></trkpt><trkpt lat="46.1114505" lon="9.3172044"><ele>237.0</ele><time>2026-05-04T10:12:56.081Z</time></trkpt><trkpt lat="46.1113849" lon="9.3172939"><ele>237.0</ele><time>2026-05-04T10:12:57.083Z</time></trkpt><trkpt lat="46.1113256" lon="9.3173674"><ele>236.33333333333334</ele><time>2026-05-04T10:12:58.083Z</time></trkpt><trkpt lat="46.1112641" lon="9.3174514"><ele>235.66666666666669</ele><time>2026-05-04T10:12:59.081Z</time></trkpt><trkpt lat="46.1112079" lon="9.3175287"><ele>235.0</ele><time>2026-05-04T10:13:00.08Z</time></trkpt><trkpt lat="46.1111491" lon="9.317606"><ele>234.33333333333334</ele><time>2026-05-04T10:13:01.082Z</time></trkpt><trkpt lat="46.1110872" lon="9.3176926"><ele>233.66666666666669</ele><time>2026-05-04T10:13:02.083Z</time></trkpt><trkpt lat="46.1110275" lon="9.317774"><ele>233.0</ele><time>2026-05-04T10:13:03.082Z</time></trkpt><trkpt lat="46.1109739" lon="9.3178346"><ele>233.00000000000003</ele><time>2026-05-04T10:13:04.083Z</time></trkpt><trkpt lat="46.1109121" lon="9.3179084"><ele>233.0</ele><time>2026-05-04T10:13:05.082Z</time></trkpt><trkpt lat="46.1108483" lon="9.3179837"><ele>233.0</ele><time>2026-05-04T10:13:06.082Z</time></trkpt><trkpt lat="46.1107845" lon="9.3180535"><ele>233.0</ele><time>2026-05-04T10:13:07.082Z</time></trkpt><trkpt lat="46.1107228" lon="9.3181132"><ele>233.00000000000003</ele><time>2026-05-04T10:13:08.082Z</time></trkpt><trkpt lat="46.1106537" lon="9.3181487"><ele>233.0</ele><time>2026-05-04T10:13:09.083Z</time></trkpt><trkpt lat="46.1105776" lon="9.3181827"><ele>231.0</ele><time>2026-05-04T10:13:10.082Z</time></trkpt><trkpt lat="46.1104877" lon="9.3181974"><ele>229.0</ele><time>2026-05-04T10:13:11.081Z</time></trkpt><trkpt lat="46.1103871" lon="9.3182114"><ele>227.0</ele><time>2026-05-04T10:13:12.082Z</time></trkpt><trkpt lat="46.1103014" lon="9.3182303"><ele>225.0</ele><time>2026-05-04T10:13:13.082Z</time></trkpt><trkpt lat="46.1102195" lon="9.3182579"><ele>223.0</ele><time>2026-05-04T10:13:14.083Z</time></trkpt><trkpt lat="46.110134" lon="9.3183016"><ele>222.99999999999997</ele><time>2026-05-04T10:13:15.083Z</time></trkpt><trkpt lat="46.1100569" lon="9.3183519"><ele>223.0</ele><time>2026-05-04T10:13:16.081Z</time></trkpt><trkpt lat="46.1099774" lon="9.3184089"><ele>223.0</ele><time>2026-05-04T10:13:17.083Z</time></trkpt><trkpt lat="46.1099166" lon="9.3184838"><ele>223.0</ele><time>2026-05-04T10:13:18.082Z</time></trkpt><trkpt lat="46.1098546" lon="9.3185649"><ele>222.99999999999997</ele><time>2026-05-04T10:13:19.082Z</time></trkpt><trkpt lat="46.1097881" lon="9.3186502"><ele>223.0</ele><time>2026-05-04T10:13:20.081Z</time></trkpt><trkpt lat="46.1097258" lon="9.3187331"><ele>223.66666666666666</ele><time>2026-05-04T10:13:21.081Z</time></trkpt><trkpt lat="46.1096706" lon="9.3188083"><ele>224.33333333333331</ele><time>2026-05-04T10:13:22.081Z</time></trkpt><trkpt lat="46.1096035" lon="9.3188879"><ele>225.0</ele><time>2026-05-04T10:13:23.08Z</time></trkpt><trkpt lat="46.1095407" lon="9.3189693"><ele>225.66666666666669</ele><time>2026-05-04T10:13:24.082Z</time></trkpt><trkpt lat="46.1094791" lon="9.3190426"><ele>226.33333333333334</ele><time>2026-05-04T10:13:25.082Z</time></trkpt><trkpt lat="46.1094222" lon="9.3191146"><ele>227.0</ele><time>2026-05-04T10:13:26.082Z</time></trkpt><trkpt lat="46.1093661" lon="9.3191947"><ele>227.00000000000003</ele><time>2026-05-04T10:13:27.08Z</time></trkpt><trkpt lat="46.1093125" lon="9.3192827"><ele>227.0</ele><time>2026-05-04T10:13:28.082Z</time></trkpt><trkpt lat="46.1092608" lon="9.319373"><ele>227.0</ele><time>2026-05-04T10:13:29.082Z</time></trkpt><trkpt lat="46.1092082" lon="9.3194475"><ele>227.0</ele><time>2026-05-04T10:13:30.082Z</time></trkpt><trkpt lat="46.1091542" lon="9.3195254"><ele>227.00000000000003</ele><time>2026-05-04T10:13:31.081Z</time></trkpt><trkpt lat="46.1090651" lon="9.3195679"><ele>227.0</ele><time>2026-05-04T10:13:32.08Z</time></trkpt><trkpt lat="46.1089971" lon="9.319584"><ele>224.66666666666669</ele><time>2026-05-04T10:13:33.081Z</time></trkpt><trkpt lat="46.1089171" lon="9.3195814"><ele>222.33333333333334</ele><time>2026-05-04T10:13:34.082Z</time></trkpt><trkpt lat="46.1088293" lon="9.3195989"><ele>220.0</ele><time>2026-05-04T10:13:35.083Z</time></trkpt><trkpt lat="46.1087418" lon="9.3196013"><ele>217.66666666666669</ele><time>2026-05-04T10:13:36.081Z</time></trkpt><trkpt lat="46.1086487" lon="9.3196036"><ele>215.33333333333334</ele><time>2026-05-04T10:13:37.082Z</time></trkpt><trkpt lat="46.1085622" lon="9.3196114"><ele>213.0</ele><time>2026-05-04T10:13:38.08Z</time></trkpt><trkpt lat="46.108472" lon="9.3196266"><ele>213.0</ele><time>2026-05-04T10:13:39.081Z</time></trkpt><trkpt lat="46.1083761" lon="9.3196468"><ele>213.0</ele><time>2026-05-04T10:13:40.081Z</time></trkpt><trkpt lat="46.1082884" lon="9.3196797"><ele>213.0</ele><time>2026-05-04T10:13:41.083Z</time></trkpt><trkpt lat="46.1082006" lon="9.3197113"><ele>213.0</ele><time>2026-05-04T10:13:42.08Z</time></trkpt><trkpt lat="46.1081148" lon="9.3197399"><ele>213.0</ele><time>2026-05-04T10:13:43.083Z</time></trkpt><trkpt lat="46.1080294" lon="9.3197519"><ele>215.33333333333334</ele><time>2026-05-04T10:13:44.081Z</time></trkpt><trkpt lat="46.1079573" lon="9.319786"><ele>217.66666666666669</ele><time>2026-05-04T10:13:45.082Z</time></trkpt><trkpt lat="46.1078705" lon="9.3198193"><ele>220.0</ele><time>2026-05-04T10:13:46.082Z</time></trkpt><trkpt lat="46.107775" lon="9.3198505"><ele>222.33333333333334</ele><time>2026-05-04T10:13:47.083Z</time></trkpt><trkpt lat="46.1076888" lon="9.3198793"><ele>224.66666666666669</ele><time>2026-05-04T10:13:48.083Z</time></trkpt><trkpt lat="46.1076019" lon="9.3199012"><ele>227.0</ele><time>2026-05-04T10:13:49.082Z</time></trkpt><trkpt lat="46.1075252" lon="9.3199232"><ele>227.00000000000003</ele><time>2026-05-04T10:13:50.081Z</time></trkpt><trkpt lat="46.1074444" lon="9.3199382"><ele>227.0</ele><time>2026-05-04T10:13:51.08Z</time></trkpt><trkpt lat="46.1073568" lon="9.3199628"><ele>227.0</ele><time>2026-05-04T10:13:52.08Z</time></trkpt><trkpt lat="46.1072708" lon="9.3199784"><ele>227.0</ele><time>2026-05-04T10:13:53.081Z</time></trkpt><trkpt lat="46.107182" lon="9.3199987"><ele>227.00000000000003</ele><time>2026-05-04T10:13:54.082Z</time></trkpt><trkpt lat="46.1070965" lon="9.3200408"><ele>227.0</ele><time>2026-05-04T10:13:55.082Z</time></trkpt><trkpt lat="46.1070122" lon="9.3200888"><ele>224.83333333333334</ele><time>2026-05-04T10:13:56.082Z</time></trkpt><trkpt lat="46.1069359" lon="9.3201424"><ele>222.66666666666669</ele><time>2026-05-04T10:13:57.082Z</time></trkpt><trkpt lat="46.1068654" lon="9.3202112"><ele>220.5</ele><time>2026-05-04T10:13:58.081Z</time></trkpt><trkpt lat="46.1067879" lon="9.3202635"><ele>218.33333333333331</ele><time>2026-05-04T10:13:59.081Z</time></trkpt><trkpt lat="46.1067195" lon="9.3203316"><ele>216.16666666666666</ele><time>2026-05-04T10:14:00.081Z</time></trkpt><trkpt lat="46.1066404" lon="9.3204003"><ele>214.0</ele><time>2026-05-04T10:14:01.081Z</time></trkpt><trkpt lat="46.1065651" lon="9.3204678"><ele>214.16666666666666</ele><time>2026-05-04T10:14:02.081Z</time></trkpt><trkpt lat="46.1064872" lon="9.3205268"><ele>214.33333333333331</ele><time>2026-05-04T10:14:03.083Z</time></trkpt><trkpt lat="46.1064083" lon="9.3205809"><ele>214.5</ele><time>2026-05-04T10:14:04.082Z</time></trkpt><trkpt lat="46.1063269" lon="9.3206294"><ele>214.66666666666669</ele><time>2026-05-04T10:14:05.082Z</time></trkpt><trkpt lat="46.1062449" lon="9.3206666"><ele>214.83333333333334</ele><time>2026-05-04T10:14:06.082Z</time></trkpt><trkpt lat="46.1061615" lon="9.3207006"><ele>215.0</ele><time>2026-05-04T10:14:07.083Z</time></trkpt><trkpt lat="46.1060838" lon="9.3207299"><ele>215.00000000000003</ele><time>2026-05-04T10:14:08.082Z</time></trkpt><trkpt lat="46.1060097" lon="9.3207618"><ele>215.0</ele><time>2026-05-04T10:14:09.082Z</time></trkpt><trkpt lat="46.1059338" lon="9.3207893"><ele>215.0</ele><time>2026-05-04T10:14:10.082Z</time></trkpt><trkpt lat="46.105862" lon="9.320824"><ele>215.0</ele><time>2026-05-04T10:14:11.082Z</time></trkpt><trkpt lat="46.1057894" lon="9.3208466"><ele>215.00000000000003</ele><time>2026-05-04T10:14:12.082Z</time></trkpt><trkpt lat="46.1057151" lon="9.320878"><ele>215.0</ele><time>2026-05-04T10:14:13.082Z</time></trkpt><trkpt lat="46.1056456" lon="9.3209078"><ele>215.83333333333334</ele><time>2026-05-04T10:14:14.082Z</time></trkpt><trkpt lat="46.1055692" lon="9.3209343"><ele>216.66666666666669</ele><time>2026-05-04T10:14:15.081Z</time></trkpt><trkpt lat="46.1055009" lon="9.320982"><ele>217.5</ele><time>2026-05-04T10:14:16.081Z</time></trkpt><trkpt lat="46.1054245" lon="9.3210058"><ele>218.33333333333331</ele><time>2026-05-04T10:14:17.082Z</time></trkpt><trkpt lat="46.1053461" lon="9.3210286"><ele>219.16666666666666</ele><time>2026-05-04T10:14:18.083Z</time></trkpt><trkpt lat="46.1052679" lon="9.3210569"><ele>220.0</ele><time>2026-05-04T10:14:19.081Z</time></trkpt><trkpt lat="46.1051868" lon="9.3210879"><ele>219.99999999999997</ele><time>2026-05-04T10:14:20.081Z</time></trkpt><trkpt lat="46.1051095" lon="9.321115"><ele>220.0</ele><time>2026-05-04T10:14:21.08Z</time></trkpt><trkpt lat="46.1050229" lon="9.3211289"><ele>220.0</ele><time>2026-05-04T10:14:22.082Z</time></trkpt><trkpt lat="46.1049356" lon="9.3211169"><ele>220.0</ele><time>2026-05-04T10:14:23.083Z</time></trkpt><trkpt lat="46.104851" lon="9.3210894"><ele>219.99999999999997</ele><time>2026-05-04T10:14:24.081Z</time></trkpt><trkpt lat="46.104766" lon="9.3210557"><ele>220.0</ele><time>2026-05-04T10:14:25.081Z</time></trkpt><trkpt lat="46.104675" lon="9.3210196"><ele>220.16666666666666</ele><time>2026-05-04T10:14:26.082Z</time></trkpt><trkpt lat="46.1045916" lon="9.3209731"><ele>220.33333333333331</ele><time>2026-05-04T10:14:27.08Z</time></trkpt><trkpt lat="46.1045109" lon="9.3209379"><ele>220.5</ele><time>2026-05-04T10:14:28.082Z</time></trkpt><trkpt lat="46.10443" lon="9.3209033"><ele>220.66666666666669</ele><time>2026-05-04T10:14:29.083Z</time></trkpt><trkpt lat="46.1043468" lon="9.3208552"><ele>220.83333333333334</ele><time>2026-05-04T10:14:30.081Z</time></trkpt><trkpt lat="46.1042637" lon="9.3208068"><ele>221.0</ele><time>2026-05-04T10:14:31.082Z</time></trkpt><trkpt lat="46.1041867" lon="9.3207534"><ele>221.00000000000003</ele><time>2026-05-04T10:14:32.082Z</time></trkpt><trkpt lat="46.1041192" lon="9.3207053"><ele>221.0</ele><time>2026-05-04T10:14:33.081Z</time></trkpt><trkpt lat="46.1040473" lon="9.3206494"><ele>221.0</ele><time>2026-05-04T10:14:34.082Z</time></trkpt><trkpt lat="46.1039825" lon="9.3205911"><ele>221.0</ele><time>2026-05-04T10:14:35.081Z</time></trkpt><trkpt lat="46.1039239" lon="9.3205257"><ele>221.0</ele><time>2026-05-04T10:14:36.082Z</time></trkpt><trkpt lat="46.1038635" lon="9.3204716"><ele>221.00000000000003</ele><time>2026-05-04T10:14:37.083Z</time></trkpt><trkpt lat="46.1038073" lon="9.3204174"><ele>221.0</ele><time>2026-05-04T10:14:38.082Z</time></trkpt><trkpt lat="46.1037485" lon="9.3203652"><ele>219.66666666666669</ele><time>2026-05-04T10:14:39.082Z</time></trkpt><trkpt lat="46.1036842" lon="9.3203083"><ele>218.33333333333334</ele><time>2026-05-04T10:14:40.082Z</time></trkpt><trkpt lat="46.1036238" lon="9.3202495"><ele>217.0</ele><time>2026-05-04T10:14:41.081Z</time></trkpt><trkpt lat="46.1035659" lon="9.3201929"><ele>215.66666666666669</ele><time>2026-05-04T10:14:42.082Z</time></trkpt><trkpt lat="46.103507" lon="9.3201415"><ele>214.33333333333334</ele><time>2026-05-04T10:14:43.081Z</time></trkpt><trkpt lat="46.1034458" lon="9.3200836"><ele>213.0</ele><time>2026-05-04T10:14:44.082Z</time></trkpt><trkpt lat="46.1033354" lon="9.3199907"><ele>214.0</ele><time>2026-05-04T10:14:46.081Z</time></trkpt><trkpt lat="46.1032304" lon="9.3198955"><ele>215.0</ele><time>2026-05-04T10:14:48.083Z</time></trkpt><trkpt lat="46.1031748" lon="9.3198493"><ele>216.0</ele><time>2026-05-04T10:14:49.082Z</time></trkpt><trkpt lat="46.1031219" lon="9.3197951"><ele>217.0</ele><time>2026-05-04T10:14:50.08Z</time></trkpt><trkpt lat="46.1030649" lon="9.3197461"><ele>218.0</ele><time>2026-05-04T10:14:51.081Z</time></trkpt><trkpt lat="46.1030046" lon="9.319698"><ele>219.0</ele><time>2026-05-04T10:14:52.08Z</time></trkpt><trkpt lat="46.1029413" lon="9.3196516"><ele>219.0</ele><time>2026-05-04T10:14:53.083Z</time></trkpt><trkpt lat="46.10288" lon="9.3195998"><ele>219.0</ele><time>2026-05-04T10:14:54.081Z</time></trkpt><trkpt lat="46.1028239" lon="9.3195538"><ele>219.0</ele><time>2026-05-04T10:14:55.082Z</time></trkpt><trkpt lat="46.1027187" lon="9.3194678"><ele>219.0</ele><time>2026-05-04T10:14:57.081Z</time></trkpt><trkpt lat="46.1026641" lon="9.3194172"><ele>219.0</ele><time>2026-05-04T10:14:58.082Z</time></trkpt><trkpt lat="46.1026074" lon="9.3193719"><ele>219.0</ele><time>2026-05-04T10:14:59.081Z</time></trkpt><trkpt lat="46.1024966" lon="9.3192856"><ele>219.0</ele><time>2026-05-04T10:15:01.081Z</time></trkpt><trkpt lat="46.1024019" lon="9.3191912"><ele>219.0</ele><time>2026-05-04T10:15:03.082Z</time></trkpt><trkpt lat="46.1023136" lon="9.319089"><ele>219.0</ele><time>2026-05-04T10:15:05.082Z</time></trkpt><trkpt lat="46.1022327" lon="9.3189765"><ele>219.0</ele><time>2026-05-04T10:15:07.082Z</time></trkpt><trkpt lat="46.1021574" lon="9.3188511"><ele>219.0</ele><time>2026-05-04T10:15:09.082Z</time></trkpt><trkpt lat="46.1021159" lon="9.3187766"><ele>219.0</ele><time>2026-05-04T10:15:10.082Z</time></trkpt><trkpt lat="46.1020751" lon="9.3187059"><ele>219.0</ele><time>2026-05-04T10:15:11.082Z</time></trkpt><trkpt lat="46.1019912" lon="9.3185806"><ele>219.0</ele><time>2026-05-04T10:15:13.081Z</time></trkpt><trkpt lat="46.1019061" lon="9.3184634"><ele>219.0</ele><time>2026-05-04T10:15:15.081Z</time></trkpt><trkpt lat="46.101857" lon="9.3184039"><ele>219.0</ele><time>2026-05-04T10:15:16.082Z</time></trkpt><trkpt lat="46.1017549" lon="9.318305"><ele>219.0</ele><time>2026-05-04T10:15:18.081Z</time></trkpt><trkpt lat="46.1016499" lon="9.3182216"><ele>219.0</ele><time>2026-05-04T10:15:20.082Z</time></trkpt><trkpt lat="46.1015542" lon="9.318151"><ele>219.0</ele><time>2026-05-04T10:15:22.081Z</time></trkpt><trkpt lat="46.1014567" lon="9.3180768"><ele>219.0</ele><time>2026-05-04T10:15:24.081Z</time></trkpt><trkpt lat="46.1013539" lon="9.3180127"><ele>218.79999999999998</ele><time>2026-05-04T10:15:26.08Z</time></trkpt><trkpt lat="46.101219" lon="9.3179166"><ele>218.59999999999997</ele><time>2026-05-04T10:15:29.082Z</time></trkpt><trkpt lat="46.101127" lon="9.3178622"><ele>218.4</ele><time>2026-05-04T10:15:31.082Z</time></trkpt><trkpt lat="46.1010467" lon="9.3178127"><ele>218.2</ele><time>2026-05-04T10:15:33.082Z</time></trkpt><trkpt lat="46.1009664" lon="9.317745"><ele>218.0</ele><time>2026-05-04T10:15:35.082Z</time></trkpt><trkpt lat="46.1008894" lon="9.3177013"><ele>218.0</ele><time>2026-05-04T10:15:37.083Z</time></trkpt><trkpt lat="46.1008114" lon="9.3176501"><ele>218.0</ele><time>2026-05-04T10:15:39.082Z</time></trkpt><trkpt lat="46.1007356" lon="9.3175886"><ele>218.0</ele><time>2026-05-04T10:15:41.083Z</time></trkpt><trkpt lat="46.1006524" lon="9.3175353"><ele>218.0</ele><time>2026-05-04T10:15:43.082Z</time></trkpt><trkpt lat="46.1005636" lon="9.3174779"><ele>218.0</ele><time>2026-05-04T10:15:45.082Z</time></trkpt><trkpt lat="46.1004747" lon="9.3174226"><ele>219.60000000000002</ele><time>2026-05-04T10:15:47.082Z</time></trkpt><trkpt lat="46.1003844" lon="9.3173511"><ele>221.20000000000002</ele><time>2026-05-04T10:15:49.081Z</time></trkpt><trkpt lat="46.1002826" lon="9.3172884"><ele>222.8</ele><time>2026-05-04T10:15:51.083Z</time></trkpt><trkpt lat="46.1001788" lon="9.3172265"><ele>224.4</ele><time>2026-05-04T10:15:53.082Z</time></trkpt><trkpt lat="46.1000737" lon="9.3171772"><ele>226.0</ele><time>2026-05-04T10:15:55.083Z</time></trkpt><trkpt lat="46.0999665" lon="9.3171302"><ele>222.0</ele><time>2026-05-04T10:15:57.081Z</time></trkpt><trkpt lat="46.0998607" lon="9.3170862"><ele>218.00000000000003</ele><time>2026-05-04T10:15:59.082Z</time></trkpt><trkpt lat="46.099753" lon="9.3170675"><ele>214.0</ele><time>2026-05-04T10:16:01.083Z</time></trkpt><trkpt lat="46.0996524" lon="9.3170454"><ele>210.0</ele><time>2026-05-04T10:16:03.082Z</time></trkpt><trkpt lat="46.0995423" lon="9.317032"><ele>206.0</ele><time>2026-05-04T10:16:05.081Z</time></trkpt><trkpt lat="46.0994307" lon="9.3170585"><ele>206.0</ele><time>2026-05-04T10:16:07.081Z</time></trkpt><trkpt lat="46.0993232" lon="9.317045"><ele>206.0</ele><time>2026-05-04T10:16:09.082Z</time></trkpt><trkpt lat="46.0992169" lon="9.3170454"><ele>206.0</ele><time>2026-05-04T10:16:11.082Z</time></trkpt><trkpt lat="46.0991156" lon="9.3170508"><ele>206.0</ele><time>2026-05-04T10:16:13.083Z</time></trkpt><trkpt lat="46.0990139" lon="9.3170493"><ele>206.0</ele><time>2026-05-04T10:16:15.082Z</time></trkpt><trkpt lat="46.0989001" lon="9.3170552"><ele>206.75</ele><time>2026-05-04T10:16:17.081Z</time></trkpt><trkpt lat="46.0987794" lon="9.3170529"><ele>207.5</ele><time>2026-05-04T10:16:19.083Z</time></trkpt><trkpt lat="46.098658" lon="9.3170455"><ele>208.25</ele><time>2026-05-04T10:16:21.081Z</time></trkpt><trkpt lat="46.0985388" lon="9.317055"><ele>209.0</ele><time>2026-05-04T10:16:23.082Z</time></trkpt><trkpt lat="46.0984161" lon="9.3170605"><ele>209.0</ele><time>2026-05-04T10:16:25.082Z</time></trkpt><trkpt lat="46.0982886" lon="9.3170642"><ele>209.0</ele><time>2026-05-04T10:16:27.081Z</time></trkpt><trkpt lat="46.0981816" lon="9.317057"><ele>209.0</ele><time>2026-05-04T10:16:29.081Z</time></trkpt><trkpt lat="46.0981185" lon="9.3170562"><ele>209.0</ele><time>2026-05-04T10:16:30.081Z</time></trkpt><trkpt lat="46.0980096" lon="9.3170172"><ele>209.0</ele><time>2026-05-04T10:16:32.082Z</time></trkpt><trkpt lat="46.0978976" lon="9.3169633"><ele>211.0</ele><time>2026-05-04T10:16:34.082Z</time></trkpt><trkpt lat="46.0977993" lon="9.3168823"><ele>213.0</ele><time>2026-05-04T10:16:36.082Z</time></trkpt><trkpt lat="46.0976952" lon="9.3167863"><ele>215.0</ele><time>2026-05-04T10:16:38.083Z</time></trkpt><trkpt lat="46.0975936" lon="9.3166999"><ele>217.0</ele><time>2026-05-04T10:16:40.083Z</time></trkpt><trkpt lat="46.0974923" lon="9.3166202"><ele>218.0</ele><time>2026-05-04T10:16:42.083Z</time></trkpt><trkpt lat="46.0973883" lon="9.316555"><ele>219.0</ele><time>2026-05-04T10:16:44.082Z</time></trkpt><trkpt lat="46.0972791" lon="9.3165001"><ele>220.0</ele><time>2026-05-04T10:16:46.081Z</time></trkpt><trkpt lat="46.0971701" lon="9.3164771"><ele>221.0</ele><time>2026-05-04T10:16:48.081Z</time></trkpt><trkpt lat="46.0970622" lon="9.3164713"><ele>222.0</ele><time>2026-05-04T10:16:50.082Z</time></trkpt><trkpt lat="46.0969571" lon="9.3164887"><ele>222.0</ele><time>2026-05-04T10:16:52.081Z</time></trkpt><trkpt lat="46.0968561" lon="9.3165193"><ele>222.0</ele><time>2026-05-04T10:16:54.082Z</time></trkpt><trkpt lat="46.0967492" lon="9.3165596"><ele>222.0</ele><time>2026-05-04T10:16:56.083Z</time></trkpt><trkpt lat="46.0966352" lon="9.3165851"><ele>222.0</ele><time>2026-05-04T10:16:58.082Z</time></trkpt><trkpt lat="46.0965174" lon="9.3166045"><ele>222.0</ele><time>2026-05-04T10:17:00.081Z</time></trkpt><trkpt lat="46.096398" lon="9.3165888"><ele>222.39999999999998</ele><time>2026-05-04T10:17:02.082Z</time></trkpt><trkpt lat="46.0962791" lon="9.3165672"><ele>222.79999999999998</ele><time>2026-05-04T10:17:04.081Z</time></trkpt><trkpt lat="46.0961568" lon="9.3165366"><ele>223.2</ele><time>2026-05-04T10:17:06.081Z</time></trkpt><trkpt lat="46.0960348" lon="9.3164883"><ele>223.6</ele><time>2026-05-04T10:17:08.082Z</time></trkpt><trkpt lat="46.0959729" lon="9.3164695"><ele>224.0</ele><time>2026-05-04T10:17:09.082Z</time></trkpt><trkpt lat="46.0958543" lon="9.316431"><ele>222.5</ele><time>2026-05-04T10:17:11.081Z</time></trkpt><trkpt lat="46.0957391" lon="9.3163888"><ele>221.0</ele><time>2026-05-04T10:17:13.083Z</time></trkpt><trkpt lat="46.095622" lon="9.3163487"><ele>219.5</ele><time>2026-05-04T10:17:15.083Z</time></trkpt><trkpt lat="46.095508" lon="9.3163094"><ele>218.0</ele><time>2026-05-04T10:17:17.083Z</time></trkpt><trkpt lat="46.0953942" lon="9.3162642"><ele>218.0</ele><time>2026-05-04T10:17:19.081Z</time></trkpt><trkpt lat="46.0952796" lon="9.3161977"><ele>218.0</ele><time>2026-05-04T10:17:21.082Z</time></trkpt><trkpt lat="46.0951723" lon="9.3161116"><ele>218.0</ele><time>2026-05-04T10:17:23.082Z</time></trkpt><trkpt lat="46.095121" lon="9.3160567"><ele>218.0</ele><time>2026-05-04T10:17:24.081Z</time></trkpt><trkpt lat="46.0950663" lon="9.3159981"><ele>218.0</ele><time>2026-05-04T10:17:25.084Z</time></trkpt><trkpt lat="46.094971" lon="9.3158807"><ele>218.0</ele><time>2026-05-04T10:17:27.081Z</time></trkpt><trkpt lat="46.0949301" lon="9.3158047"><ele>218.0</ele><time>2026-05-04T10:17:28.082Z</time></trkpt><trkpt lat="46.0948858" lon="9.3157387"><ele>218.0</ele><time>2026-05-04T10:17:29.081Z</time></trkpt><trkpt lat="46.0948408" lon="9.3156699"><ele>218.0</ele><time>2026-05-04T10:17:30.083Z</time></trkpt><trkpt lat="46.0947953" lon="9.3156038"><ele>218.0</ele><time>2026-05-04T10:17:31.081Z</time></trkpt><trkpt lat="46.0947487" lon="9.3155367"><ele>218.0</ele><time>2026-05-04T10:17:32.082Z</time></trkpt><trkpt lat="46.0947091" lon="9.3154658"><ele>218.0</ele><time>2026-05-04T10:17:33.082Z</time></trkpt><trkpt lat="46.0946642" lon="9.3153954"><ele>219.16666666666669</ele><time>2026-05-04T10:17:34.081Z</time></trkpt><trkpt lat="46.0946185" lon="9.3153319"><ele>220.33333333333334</ele><time>2026-05-04T10:17:35.081Z</time></trkpt><trkpt lat="46.0945746" lon="9.3152609"><ele>221.5</ele><time>2026-05-04T10:17:36.082Z</time></trkpt><trkpt lat="46.0945269" lon="9.3151956"><ele>222.66666666666669</ele><time>2026-05-04T10:17:37.082Z</time></trkpt><trkpt lat="46.0944407" lon="9.3150606"><ele>223.83333333333334</ele><time>2026-05-04T10:17:39.082Z</time></trkpt><trkpt lat="46.0943918" lon="9.3149899"><ele>225.0</ele><time>2026-05-04T10:17:40.082Z</time></trkpt><trkpt lat="46.0943101" lon="9.3148701"><ele>225.0</ele><time>2026-05-04T10:17:42.082Z</time></trkpt><trkpt lat="46.0942609" lon="9.3148062"><ele>225.0</ele><time>2026-05-04T10:17:43.082Z</time></trkpt><trkpt lat="46.0941755" lon="9.3146786"><ele>225.0</ele><time>2026-05-04T10:17:45.081Z</time></trkpt><trkpt lat="46.0940902" lon="9.3145495"><ele>225.0</ele><time>2026-05-04T10:17:47.082Z</time></trkpt><trkpt lat="46.0940081" lon="9.3144196"><ele>225.0</ele><time>2026-05-04T10:17:49.081Z</time></trkpt><trkpt lat="46.0939342" lon="9.314303"><ele>226.6</ele><time>2026-05-04T10:17:51.083Z</time></trkpt><trkpt lat="46.0938557" lon="9.3142018"><ele>228.2</ele><time>2026-05-04T10:17:53.082Z</time></trkpt><trkpt lat="46.0937783" lon="9.314108"><ele>229.8</ele><time>2026-05-04T10:17:55.083Z</time></trkpt><trkpt lat="46.0937001" lon="9.3140353"><ele>231.4</ele><time>2026-05-04T10:17:57.082Z</time></trkpt><trkpt lat="46.0936211" lon="9.3139546"><ele>233.0</ele><time>2026-05-04T10:17:59.082Z</time></trkpt><trkpt lat="46.0935398" lon="9.3138913"><ele>232.16666666666669</ele><time>2026-05-04T10:18:01.083Z</time></trkpt><trkpt lat="46.0934605" lon="9.313822"><ele>231.33333333333334</ele><time>2026-05-04T10:18:03.083Z</time></trkpt><trkpt lat="46.093386" lon="9.3137635"><ele>230.5</ele><time>2026-05-04T10:18:05.082Z</time></trkpt><trkpt lat="46.0933106" lon="9.3136966"><ele>229.66666666666669</ele><time>2026-05-04T10:18:07.084Z</time></trkpt><trkpt lat="46.0932372" lon="9.3136444"><ele>228.83333333333334</ele><time>2026-05-04T10:18:09.082Z</time></trkpt><trkpt lat="46.0931576" lon="9.313574"><ele>228.0</ele><time>2026-05-04T10:18:11.081Z</time></trkpt><trkpt lat="46.0930786" lon="9.3135049"><ele>228.0</ele><time>2026-05-04T10:18:13.084Z</time></trkpt><trkpt lat="46.0930005" lon="9.3134431"><ele>228.0</ele><time>2026-05-04T10:18:15.082Z</time></trkpt><trkpt lat="46.0929246" lon="9.3133846"><ele>228.0</ele><time>2026-05-04T10:18:17.081Z</time></trkpt><trkpt lat="46.0928477" lon="9.313319"><ele>228.0</ele><time>2026-05-04T10:18:19.083Z</time></trkpt><trkpt lat="46.0927643" lon="9.3132596"><ele>228.0</ele><time>2026-05-04T10:18:21.082Z</time></trkpt><trkpt lat="46.0926993" lon="9.3132131"><ele>228.0</ele><time>2026-05-04T10:18:23.081Z</time></trkpt><trkpt lat="46.0926228" lon="9.3131576"><ele>228.0</ele><time>2026-05-04T10:18:25.083Z</time></trkpt><trkpt lat="46.0925466" lon="9.3130965"><ele>228.0</ele><time>2026-05-04T10:18:27.082Z</time></trkpt><trkpt lat="46.0924748" lon="9.3130388"><ele>228.0</ele><time>2026-05-04T10:18:29.082Z</time></trkpt><trkpt lat="46.0924046" lon="9.3129915"><ele>228.0</ele><time>2026-05-04T10:18:31.082Z</time></trkpt><trkpt lat="46.0923391" lon="9.3129458"><ele>228.0</ele><time>2026-05-04T10:18:33.082Z</time></trkpt><trkpt lat="46.0922708" lon="9.3128928"><ele>228.0</ele><time>2026-05-04T10:18:35.083Z</time></trkpt><trkpt lat="46.0922003" lon="9.3128385"><ele>227.7142857142857</ele><time>2026-05-04T10:18:37.082Z</time></trkpt><trkpt lat="46.0921406" lon="9.3127826"><ele>227.4285714285714</ele><time>2026-05-04T10:18:39.083Z</time></trkpt><trkpt lat="46.0920757" lon="9.3127214"><ele>227.14285714285714</ele><time>2026-05-04T10:18:41.083Z</time></trkpt><trkpt lat="46.092006" lon="9.3126785"><ele>226.85714285714283</ele><time>2026-05-04T10:18:43.081Z</time></trkpt><trkpt lat="46.0919356" lon="9.312637"><ele>226.57142857142856</ele><time>2026-05-04T10:18:45.083Z</time></trkpt><trkpt lat="46.0918707" lon="9.3125932"><ele>226.28571428571428</ele><time>2026-05-04T10:18:47.082Z</time></trkpt><trkpt lat="46.0918029" lon="9.3125689"><ele>226.0</ele><time>2026-05-04T10:18:49.084Z</time></trkpt><trkpt lat="46.0917309" lon="9.3125357"><ele>226.0</ele><time>2026-05-04T10:18:51.083Z</time></trkpt><trkpt lat="46.0916618" lon="9.3125186"><ele>226.0</ele><time>2026-05-04T10:18:53.082Z</time></trkpt><trkpt lat="46.0915875" lon="9.3124963"><ele>226.0</ele><time>2026-05-04T10:18:55.082Z</time></trkpt><trkpt lat="46.091519" lon="9.3124772"><ele>226.0</ele><time>2026-05-04T10:18:57.083Z</time></trkpt><trkpt lat="46.0914447" lon="9.3124513"><ele>226.0</ele><time>2026-05-04T10:18:59.081Z</time></trkpt><trkpt lat="46.0913759" lon="9.3124012"><ele>226.0</ele><time>2026-05-04T10:19:01.082Z</time></trkpt><trkpt lat="46.0913132" lon="9.3123503"><ele>226.0</ele><time>2026-05-04T10:19:03.082Z</time></trkpt><trkpt lat="46.091253" lon="9.3122948"><ele>225.49999999999997</ele><time>2026-05-04T10:19:05.082Z</time></trkpt><trkpt lat="46.0911936" lon="9.3122323"><ele>225.0</ele><time>2026-05-04T10:19:07.083Z</time></trkpt><trkpt lat="46.0911308" lon="9.3121598"><ele>224.5</ele><time>2026-05-04T10:19:09.082Z</time></trkpt><trkpt lat="46.0910742" lon="9.3121029"><ele>224.0</ele><time>2026-05-04T10:19:11.083Z</time></trkpt><trkpt lat="46.0910105" lon="9.3120397"><ele>223.49999999999997</ele><time>2026-05-04T10:19:13.082Z</time></trkpt><trkpt lat="46.0909395" lon="9.3119699"><ele>223.0</ele><time>2026-05-04T10:19:15.081Z</time></trkpt><trkpt lat="46.0908755" lon="9.3119086"><ele>222.99999999999997</ele><time>2026-05-04T10:19:17.083Z</time></trkpt><trkpt lat="46.0908079" lon="9.3118377"><ele>223.0</ele><time>2026-05-04T10:19:19.083Z</time></trkpt><trkpt lat="46.090731" lon="9.3117791"><ele>223.0</ele><time>2026-05-04T10:19:21.084Z</time></trkpt><trkpt lat="46.0906575" lon="9.3117309"><ele>223.0</ele><time>2026-05-04T10:19:23.083Z</time></trkpt><trkpt lat="46.0905908" lon="9.3117004"><ele>222.99999999999997</ele><time>2026-05-04T10:19:25.082Z</time></trkpt><trkpt lat="46.0905232" lon="9.3116746"><ele>223.0</ele><time>2026-05-04T10:19:27.081Z</time></trkpt><trkpt lat="46.0904536" lon="9.3116476"><ele>226.16666666666666</ele><time>2026-05-04T10:19:29.082Z</time></trkpt><trkpt lat="46.0903802" lon="9.311623"><ele>229.33333333333331</ele><time>2026-05-04T10:19:31.082Z</time></trkpt><trkpt lat="46.090306" lon="9.3115934"><ele>232.5</ele><time>2026-05-04T10:19:33.082Z</time></trkpt><trkpt lat="46.0902287" lon="9.3115586"><ele>235.66666666666669</ele><time>2026-05-04T10:19:35.082Z</time></trkpt><trkpt lat="46.0901441" lon="9.3115222"><ele>238.83333333333334</ele><time>2026-05-04T10:19:37.082Z</time></trkpt><trkpt lat="46.0900696" lon="9.3114842"><ele>242.0</ele><time>2026-05-04T10:19:39.082Z</time></trkpt><trkpt lat="46.0899845" lon="9.3114469"><ele>241.83333333333334</ele><time>2026-05-04T10:19:41.083Z</time></trkpt><trkpt lat="46.0898989" lon="9.3114123"><ele>241.66666666666669</ele><time>2026-05-04T10:19:43.082Z</time></trkpt><trkpt lat="46.0898189" lon="9.3113889"><ele>241.5</ele><time>2026-05-04T10:19:45.083Z</time></trkpt><trkpt lat="46.0897332" lon="9.3113654"><ele>241.33333333333331</ele><time>2026-05-04T10:19:47.082Z</time></trkpt><trkpt lat="46.0896376" lon="9.3113645"><ele>241.16666666666666</ele><time>2026-05-04T10:19:49.083Z</time></trkpt><trkpt lat="46.0895466" lon="9.3113537"><ele>241.0</ele><time>2026-05-04T10:19:51.082Z</time></trkpt><trkpt lat="46.0894585" lon="9.3113586"><ele>238.0</ele><time>2026-05-04T10:19:53.081Z</time></trkpt><trkpt lat="46.0893686" lon="9.3113699"><ele>235.00000000000003</ele><time>2026-05-04T10:19:55.083Z</time></trkpt><trkpt lat="46.0892791" lon="9.3113552"><ele>232.00000000000003</ele><time>2026-05-04T10:19:57.082Z</time></trkpt><trkpt lat="46.0891661" lon="9.3113293"><ele>229.0</ele><time>2026-05-04T10:19:59.082Z</time></trkpt><trkpt lat="46.0890392" lon="9.3113002"><ele>226.0</ele><time>2026-05-04T10:20:01.083Z</time></trkpt><trkpt lat="46.0889734" lon="9.3112786"><ele>225.99999999999997</ele><time>2026-05-04T10:20:02.081Z</time></trkpt><trkpt lat="46.0889023" lon="9.3112438"><ele>226.0</ele><time>2026-05-04T10:20:03.082Z</time></trkpt><trkpt lat="46.0888297" lon="9.3112049"><ele>226.0</ele><time>2026-05-04T10:20:04.084Z</time></trkpt><trkpt lat="46.0887561" lon="9.311154"><ele>226.0</ele><time>2026-05-04T10:20:05.082Z</time></trkpt><trkpt lat="46.0886839" lon="9.3110949"><ele>225.99999999999997</ele><time>2026-05-04T10:20:06.083Z</time></trkpt><trkpt lat="46.0886066" lon="9.3110355"><ele>226.0</ele><time>2026-05-04T10:20:07.084Z</time></trkpt><trkpt lat="46.0885293" lon="9.3109722"><ele>226.0</ele><time>2026-05-04T10:20:08.084Z</time></trkpt><trkpt lat="46.0884448" lon="9.3109139"><ele>226.00000000000003</ele><time>2026-05-04T10:20:09.082Z</time></trkpt><trkpt lat="46.0883675" lon="9.3108565"><ele>226.00000000000003</ele><time>2026-05-04T10:20:10.082Z</time></trkpt><trkpt lat="46.0882809" lon="9.3107976"><ele>226.0</ele><time>2026-05-04T10:20:11.084Z</time></trkpt><trkpt lat="46.0881944" lon="9.3107317"><ele>226.0</ele><time>2026-05-04T10:20:12.082Z</time></trkpt><trkpt lat="46.0881026" lon="9.3106737"><ele>228.20000000000002</ele><time>2026-05-04T10:20:13.082Z</time></trkpt><trkpt lat="46.0880124" lon="9.3106016"><ele>230.40000000000003</ele><time>2026-05-04T10:20:14.082Z</time></trkpt><trkpt lat="46.0879214" lon="9.3105242"><ele>232.6</ele><time>2026-05-04T10:20:15.081Z</time></trkpt><trkpt lat="46.0878305" lon="9.310456"><ele>234.8</ele><time>2026-05-04T10:20:16.082Z</time></trkpt><trkpt lat="46.087742" lon="9.3103757"><ele>237.0</ele><time>2026-05-04T10:20:17.084Z</time></trkpt><trkpt lat="46.0876517" lon="9.3103004"><ele>233.2</ele><time>2026-05-04T10:20:18.082Z</time></trkpt><trkpt lat="46.0875627" lon="9.3102232"><ele>229.39999999999998</ele><time>2026-05-04T10:20:19.083Z</time></trkpt><trkpt lat="46.087472" lon="9.3101514"><ele>225.60000000000002</ele><time>2026-05-04T10:20:20.082Z</time></trkpt><trkpt lat="46.0873769" lon="9.3100794"><ele>221.8</ele><time>2026-05-04T10:20:21.083Z</time></trkpt><trkpt lat="46.087284" lon="9.310013"><ele>218.0</ele><time>2026-05-04T10:20:22.083Z</time></trkpt><trkpt lat="46.0871938" lon="9.3099542"><ele>218.0</ele><time>2026-05-04T10:20:23.081Z</time></trkpt><trkpt lat="46.0871002" lon="9.3099176"><ele>218.0</ele><time>2026-05-04T10:20:24.083Z</time></trkpt><trkpt lat="46.0870079" lon="9.309908"><ele>218.0</ele><time>2026-05-04T10:20:25.083Z</time></trkpt><trkpt lat="46.0869089" lon="9.3099135"><ele>218.0</ele><time>2026-05-04T10:20:26.083Z</time></trkpt><trkpt lat="46.086814" lon="9.3099244"><ele>218.0</ele><time>2026-05-04T10:20:27.082Z</time></trkpt><trkpt lat="46.0867199" lon="9.3099205"><ele>218.00000000000003</ele><time>2026-05-04T10:20:28.084Z</time></trkpt><trkpt lat="46.0866287" lon="9.3099341"><ele>218.0</ele><time>2026-05-04T10:20:29.082Z</time></trkpt><trkpt lat="46.0865401" lon="9.3099584"><ele>218.0</ele><time>2026-05-04T10:20:30.082Z</time></trkpt><trkpt lat="46.0864521" lon="9.3099765"><ele>218.0</ele><time>2026-05-04T10:20:31.082Z</time></trkpt><trkpt lat="46.0863645" lon="9.3099922"><ele>218.00000000000003</ele><time>2026-05-04T10:20:32.082Z</time></trkpt><trkpt lat="46.0862761" lon="9.310015"><ele>218.0</ele><time>2026-05-04T10:20:33.082Z</time></trkpt><trkpt lat="46.0861857" lon="9.3100507"><ele>215.60000000000002</ele><time>2026-05-04T10:20:34.083Z</time></trkpt><trkpt lat="46.0861022" lon="9.3100847"><ele>213.20000000000002</ele><time>2026-05-04T10:20:35.084Z</time></trkpt><trkpt lat="46.0860165" lon="9.3101173"><ele>210.8</ele><time>2026-05-04T10:20:36.081Z</time></trkpt><trkpt lat="46.0859308" lon="9.3101487"><ele>208.4</ele><time>2026-05-04T10:20:37.083Z</time></trkpt><trkpt lat="46.0858414" lon="9.3101885"><ele>206.0</ele><time>2026-05-04T10:20:38.083Z</time></trkpt><trkpt lat="46.0857508" lon="9.3102235"><ele>205.4</ele><time>2026-05-04T10:20:39.081Z</time></trkpt><trkpt lat="46.0856665" lon="9.3102653"><ele>204.8</ele><time>2026-05-04T10:20:40.084Z</time></trkpt><trkpt lat="46.0855755" lon="9.3103072"><ele>204.20000000000002</ele><time>2026-05-04T10:20:41.082Z</time></trkpt><trkpt lat="46.0854856" lon="9.3103468"><ele>203.60000000000002</ele><time>2026-05-04T10:20:42.082Z</time></trkpt><trkpt lat="46.0854006" lon="9.3103854"><ele>203.0</ele><time>2026-05-04T10:20:43.084Z</time></trkpt><trkpt lat="46.0853194" lon="9.3104331"><ele>203.00000000000003</ele><time>2026-05-04T10:20:44.083Z</time></trkpt><trkpt lat="46.0852369" lon="9.3104725"><ele>203.0</ele><time>2026-05-04T10:20:45.083Z</time></trkpt><trkpt lat="46.0851579" lon="9.3105215"><ele>203.0</ele><time>2026-05-04T10:20:46.082Z</time></trkpt><trkpt lat="46.0850763" lon="9.3105629"><ele>203.0</ele><time>2026-05-04T10:20:47.081Z</time></trkpt><trkpt lat="46.0850022" lon="9.3106019"><ele>203.00000000000003</ele><time>2026-05-04T10:20:48.082Z</time></trkpt><trkpt lat="46.0849288" lon="9.3106515"><ele>203.0</ele><time>2026-05-04T10:20:49.083Z</time></trkpt><trkpt lat="46.0848533" lon="9.3106887"><ele>205.14285714285714</ele><time>2026-05-04T10:20:50.083Z</time></trkpt><trkpt lat="46.0847775" lon="9.3107255"><ele>207.28571428571428</ele><time>2026-05-04T10:20:51.082Z</time></trkpt><trkpt lat="46.0847091" lon="9.3107521"><ele>209.42857142857144</ele><time>2026-05-04T10:20:52.083Z</time></trkpt><trkpt lat="46.0846377" lon="9.3107811"><ele>211.57142857142856</ele><time>2026-05-04T10:20:53.084Z</time></trkpt><trkpt lat="46.0845689" lon="9.3108055"><ele>213.71428571428572</ele><time>2026-05-04T10:20:54.082Z</time></trkpt><trkpt lat="46.0845008" lon="9.3108253"><ele>215.85714285714286</ele><time>2026-05-04T10:20:55.083Z</time></trkpt><trkpt lat="46.0844389" lon="9.3108509"><ele>218.0</ele><time>2026-05-04T10:20:56.082Z</time></trkpt><trkpt lat="46.0843691" lon="9.3108686"><ele>218.00000000000003</ele><time>2026-05-04T10:20:57.083Z</time></trkpt><trkpt lat="46.0843056" lon="9.3109061"><ele>218.0</ele><time>2026-05-04T10:20:58.083Z</time></trkpt><trkpt lat="46.0842293" lon="9.3109254"><ele>218.0</ele><time>2026-05-04T10:20:59.082Z</time></trkpt><trkpt lat="46.0841551" lon="9.310941"><ele>218.0</ele><time>2026-05-04T10:21:00.083Z</time></trkpt><trkpt lat="46.0840853" lon="9.3109658"><ele>218.00000000000003</ele><time>2026-05-04T10:21:01.082Z</time></trkpt><trkpt lat="46.0840072" lon="9.3109908"><ele>218.0</ele><time>2026-05-04T10:21:02.081Z</time></trkpt><trkpt lat="46.0839322" lon="9.3110137"><ele>217.0</ele><time>2026-05-04T10:21:03.082Z</time></trkpt><trkpt lat="46.0838528" lon="9.3110321"><ele>216.0</ele><time>2026-05-04T10:21:04.082Z</time></trkpt><trkpt lat="46.0837905" lon="9.3110483"><ele>215.0</ele><time>2026-05-04T10:21:05.082Z</time></trkpt><trkpt lat="46.0837136" lon="9.3110624"><ele>214.0</ele><time>2026-05-04T10:21:06.082Z</time></trkpt><trkpt lat="46.0836387" lon="9.3110825"><ele>213.0</ele><time>2026-05-04T10:21:07.082Z</time></trkpt><trkpt lat="46.0835659" lon="9.3111035"><ele>212.0</ele><time>2026-05-04T10:21:08.083Z</time></trkpt><trkpt lat="46.0834921" lon="9.3111212"><ele>211.0</ele><time>2026-05-04T10:21:09.083Z</time></trkpt><trkpt lat="46.0834195" lon="9.3111394"><ele>210.99999999999997</ele><time>2026-05-04T10:21:10.082Z</time></trkpt><trkpt lat="46.0833535" lon="9.3111548"><ele>211.0</ele><time>2026-05-04T10:21:11.083Z</time></trkpt><trkpt lat="46.0832235" lon="9.3111817"><ele>211.0</ele><time>2026-05-04T10:21:13.082Z</time></trkpt><trkpt lat="46.0831558" lon="9.3111893"><ele>211.0</ele><time>2026-05-04T10:21:14.083Z</time></trkpt><trkpt lat="46.0830805" lon="9.3112012"><ele>210.99999999999997</ele><time>2026-05-04T10:21:15.084Z</time></trkpt><trkpt lat="46.0830073" lon="9.3112098"><ele>211.0</ele><time>2026-05-04T10:21:16.082Z</time></trkpt><trkpt lat="46.0828809" lon="9.3112208"><ele>211.28571428571428</ele><time>2026-05-04T10:21:18.084Z</time></trkpt><trkpt lat="46.0828057" lon="9.3112106"><ele>211.57142857142858</ele><time>2026-05-04T10:21:19.082Z</time></trkpt><trkpt lat="46.0827279" lon="9.3112009"><ele>211.85714285714283</ele><time>2026-05-04T10:21:20.082Z</time></trkpt><trkpt lat="46.0826598" lon="9.3111894"><ele>212.14285714285714</ele><time>2026-05-04T10:21:21.083Z</time></trkpt><trkpt lat="46.0825884" lon="9.3111541"><ele>212.42857142857142</ele><time>2026-05-04T10:21:22.083Z</time></trkpt><trkpt lat="46.0825228" lon="9.3111071"><ele>212.7142857142857</ele><time>2026-05-04T10:21:23.082Z</time></trkpt><trkpt lat="46.082459" lon="9.3110657"><ele>213.0</ele><time>2026-05-04T10:21:24.083Z</time></trkpt><trkpt lat="46.0823915" lon="9.3110201"><ele>213.0</ele><time>2026-05-04T10:21:25.083Z</time></trkpt><trkpt lat="46.0823234" lon="9.3109849"><ele>213.0</ele><time>2026-05-04T10:21:26.082Z</time></trkpt><trkpt lat="46.0822588" lon="9.310949"><ele>213.0</ele><time>2026-05-04T10:21:27.084Z</time></trkpt><trkpt lat="46.0821935" lon="9.3109169"><ele>213.0</ele><time>2026-05-04T10:21:28.082Z</time></trkpt><trkpt lat="46.0820732" lon="9.3108815"><ele>213.0</ele><time>2026-05-04T10:21:30.083Z</time></trkpt><trkpt lat="46.0819553" lon="9.3108519"><ele>212.99999999999997</ele><time>2026-05-04T10:21:32.084Z</time></trkpt><trkpt lat="46.0818908" lon="9.3108452"><ele>213.0</ele><time>2026-05-04T10:21:33.083Z</time></trkpt><trkpt lat="46.0818279" lon="9.3108353"><ele>213.0</ele><time>2026-05-04T10:21:34.083Z</time></trkpt><trkpt lat="46.081761" lon="9.3108195"><ele>213.0</ele><time>2026-05-04T10:21:35.083Z</time></trkpt><trkpt lat="46.0816976" lon="9.3108158"><ele>213.0</ele><time>2026-05-04T10:21:36.081Z</time></trkpt><trkpt lat="46.081632" lon="9.3108013"><ele>212.99999999999997</ele><time>2026-05-04T10:21:37.082Z</time></trkpt><trkpt lat="46.0815651" lon="9.3107737"><ele>213.0</ele><time>2026-05-04T10:21:38.083Z</time></trkpt><trkpt lat="46.081494" lon="9.3107474"><ele>212.2</ele><time>2026-05-04T10:21:39.082Z</time></trkpt><trkpt lat="46.0814294" lon="9.3107209"><ele>211.4</ele><time>2026-05-04T10:21:40.082Z</time></trkpt><trkpt lat="46.0813085" lon="9.3106553"><ele>210.6</ele><time>2026-05-04T10:21:42.083Z</time></trkpt><trkpt lat="46.0812491" lon="9.3106218"><ele>209.79999999999998</ele><time>2026-05-04T10:21:43.084Z</time></trkpt><trkpt lat="46.0811832" lon="9.3105906"><ele>209.0</ele><time>2026-05-04T10:21:44.082Z</time></trkpt><trkpt lat="46.0810752" lon="9.3105133"><ele>209.0</ele><time>2026-05-04T10:21:46.081Z</time></trkpt><trkpt lat="46.0809823" lon="9.3104219"><ele>209.0</ele><time>2026-05-04T10:21:48.081Z</time></trkpt><trkpt lat="46.0808913" lon="9.310326"><ele>209.0</ele><time>2026-05-04T10:21:50.083Z</time></trkpt><trkpt lat="46.0808137" lon="9.3102018"><ele>209.0</ele><time>2026-05-04T10:21:52.082Z</time></trkpt><trkpt lat="46.0807341" lon="9.3100714"><ele>210.0</ele><time>2026-05-04T10:21:54.083Z</time></trkpt><trkpt lat="46.0806545" lon="9.3099284"><ele>211.0</ele><time>2026-05-04T10:21:56.083Z</time></trkpt><trkpt lat="46.0806148" lon="9.3098476"><ele>211.99999999999997</ele><time>2026-05-04T10:21:57.083Z</time></trkpt><trkpt lat="46.0805529" lon="9.3097006"><ele>213.0</ele><time>2026-05-04T10:21:59.084Z</time></trkpt><trkpt lat="46.0804804" lon="9.3095582"><ele>214.0</ele><time>2026-05-04T10:22:01.082Z</time></trkpt><trkpt lat="46.0804095" lon="9.3094226"><ele>214.0</ele><time>2026-05-04T10:22:03.083Z</time></trkpt><trkpt lat="46.0803389" lon="9.3092705"><ele>213.99999999999997</ele><time>2026-05-04T10:22:05.082Z</time></trkpt><trkpt lat="46.0802644" lon="9.3091231"><ele>213.99999999999997</ele><time>2026-05-04T10:22:07.083Z</time></trkpt><trkpt lat="46.0802255" lon="9.3090472"><ele>214.0</ele><time>2026-05-04T10:22:08.082Z</time></trkpt><trkpt lat="46.0801541" lon="9.3088903"><ele>214.0</ele><time>2026-05-04T10:22:10.083Z</time></trkpt><trkpt lat="46.0801167" lon="9.3088136"><ele>213.83333333333331</ele><time>2026-05-04T10:22:11.083Z</time></trkpt><trkpt lat="46.0800811" lon="9.3087387"><ele>213.66666666666666</ele><time>2026-05-04T10:22:12.083Z</time></trkpt><trkpt lat="46.0800485" lon="9.3086603"><ele>213.5</ele><time>2026-05-04T10:22:13.083Z</time></trkpt><trkpt lat="46.0800092" lon="9.3085884"><ele>213.33333333333331</ele><time>2026-05-04T10:22:14.083Z</time></trkpt><trkpt lat="46.0799712" lon="9.3085083"><ele>213.16666666666666</ele><time>2026-05-04T10:22:15.082Z</time></trkpt><trkpt lat="46.079899" lon="9.3083572"><ele>213.0</ele><time>2026-05-04T10:22:17.081Z</time></trkpt><trkpt lat="46.0798581" lon="9.3082771"><ele>212.83333333333334</ele><time>2026-05-04T10:22:18.082Z</time></trkpt><trkpt lat="46.079818" lon="9.3081948"><ele>212.66666666666669</ele><time>2026-05-04T10:22:19.083Z</time></trkpt><trkpt lat="46.079779" lon="9.3081175"><ele>212.5</ele><time>2026-05-04T10:22:20.083Z</time></trkpt><trkpt lat="46.0797411" lon="9.3080376"><ele>212.33333333333334</ele><time>2026-05-04T10:22:21.083Z</time></trkpt><trkpt lat="46.0797058" lon="9.307961"><ele>212.16666666666669</ele><time>2026-05-04T10:22:22.082Z</time></trkpt><trkpt lat="46.0796316" lon="9.3078188"><ele>212.0</ele><time>2026-05-04T10:22:24.082Z</time></trkpt><trkpt lat="46.0795596" lon="9.3076619"><ele>212.0</ele><time>2026-05-04T10:22:26.082Z</time></trkpt><trkpt lat="46.0794848" lon="9.3075215"><ele>212.0</ele><time>2026-05-04T10:22:28.083Z</time></trkpt><trkpt lat="46.0794139" lon="9.3073716"><ele>212.0</ele><time>2026-05-04T10:22:30.083Z</time></trkpt><trkpt lat="46.079343" lon="9.3072265"><ele>212.0</ele><time>2026-05-04T10:22:32.083Z</time></trkpt><trkpt lat="46.0793059" lon="9.3071464"><ele>212.0</ele><time>2026-05-04T10:22:33.082Z</time></trkpt><trkpt lat="46.0792669" lon="9.3070671"><ele>212.00000000000003</ele><time>2026-05-04T10:22:34.084Z</time></trkpt><trkpt lat="46.0792282" lon="9.3069901"><ele>212.0</ele><time>2026-05-04T10:22:35.083Z</time></trkpt><trkpt lat="46.0791905" lon="9.3069136"><ele>212.0</ele><time>2026-05-04T10:22:36.082Z</time></trkpt><trkpt lat="46.0791539" lon="9.3068313"><ele>212.0</ele><time>2026-05-04T10:22:37.084Z</time></trkpt><trkpt lat="46.0791216" lon="9.3067526"><ele>212.00000000000003</ele><time>2026-05-04T10:22:38.083Z</time></trkpt><trkpt lat="46.0790565" lon="9.3066223"><ele>212.0</ele><time>2026-05-04T10:22:40.084Z</time></trkpt><trkpt lat="46.0789889" lon="9.3064983"><ele>212.75</ele><time>2026-05-04T10:22:42.083Z</time></trkpt><trkpt lat="46.0789272" lon="9.3063758"><ele>213.5</ele><time>2026-05-04T10:22:44.082Z</time></trkpt><trkpt lat="46.0788782" lon="9.3062579"><ele>214.25</ele><time>2026-05-04T10:22:46.083Z</time></trkpt><trkpt lat="46.0788086" lon="9.3061393"><ele>215.0</ele><time>2026-05-04T10:22:48.081Z</time></trkpt><trkpt lat="46.078709" lon="9.3059697"><ele>215.00000000000003</ele><time>2026-05-04T10:22:50.083Z</time></trkpt><trkpt lat="46.078665" lon="9.305877"><ele>215.0</ele><time>2026-05-04T10:22:52.082Z</time></trkpt><trkpt lat="46.0786143" lon="9.3057829"><ele>215.0</ele><time>2026-05-04T10:22:54.082Z</time></trkpt><trkpt lat="46.0785536" lon="9.3056886"><ele>215.0</ele><time>2026-05-04T10:22:56.082Z</time></trkpt><trkpt lat="46.0784894" lon="9.3055796"><ele>215.00000000000003</ele><time>2026-05-04T10:22:58.083Z</time></trkpt><trkpt lat="46.0784355" lon="9.3054701"><ele>215.0</ele><time>2026-05-04T10:23:00.083Z</time></trkpt><trkpt lat="46.0783584" lon="9.3053648"><ele>214.8</ele><time>2026-05-04T10:23:02.083Z</time></trkpt><trkpt lat="46.0782751" lon="9.3052634"><ele>214.6</ele><time>2026-05-04T10:23:04.084Z</time></trkpt><trkpt lat="46.078181" lon="9.3051691"><ele>214.39999999999998</ele><time>2026-05-04T10:23:06.083Z</time></trkpt><trkpt lat="46.0781233" lon="9.3051235"><ele>214.2</ele><time>2026-05-04T10:23:07.083Z</time></trkpt><trkpt lat="46.0780377" lon="9.3050389"><ele>214.0</ele><time>2026-05-04T10:23:09.083Z</time></trkpt><trkpt lat="46.0779553" lon="9.3049607"><ele>213.79999999999998</ele><time>2026-05-04T10:23:11.082Z</time></trkpt><trkpt lat="46.077868" lon="9.3048884"><ele>213.59999999999997</ele><time>2026-05-04T10:23:13.084Z</time></trkpt><trkpt lat="46.0777845" lon="9.3048301"><ele>213.4</ele><time>2026-05-04T10:23:15.084Z</time></trkpt><trkpt lat="46.0776964" lon="9.3047649"><ele>213.2</ele><time>2026-05-04T10:23:17.083Z</time></trkpt><trkpt lat="46.0776079" lon="9.3047214"><ele>213.0</ele><time>2026-05-04T10:23:19.084Z</time></trkpt><trkpt lat="46.0775124" lon="9.3046814"><ele>212.4</ele><time>2026-05-04T10:23:21.083Z</time></trkpt><trkpt lat="46.0774148" lon="9.3046399"><ele>211.8</ele><time>2026-05-04T10:23:23.082Z</time></trkpt><trkpt lat="46.077318" lon="9.304602"><ele>211.2</ele><time>2026-05-04T10:23:25.084Z</time></trkpt><trkpt lat="46.077222" lon="9.3045746"><ele>210.6</ele><time>2026-05-04T10:23:27.082Z</time></trkpt><trkpt lat="46.0771334" lon="9.3045595"><ele>210.0</ele><time>2026-05-04T10:23:29.084Z</time></trkpt><trkpt lat="46.0770603" lon="9.3045582"><ele>210.0</ele><time>2026-05-04T10:23:32.083Z</time></trkpt><trkpt lat="46.076992" lon="9.3045382"><ele>210.0</ele><time>2026-05-04T10:23:35.083Z</time></trkpt><trkpt lat="46.0769289" lon="9.304535"><ele>210.0</ele><time>2026-05-04T10:23:51.084Z</time></trkpt><trkpt lat="46.0768567" lon="9.3045271"><ele>210.0</ele><time>2026-05-04T10:23:54.083Z</time></trkpt><trkpt lat="46.0767894" lon="9.3044828"><ele>210.0</ele><time>2026-05-04T10:23:56.082Z</time></trkpt><trkpt lat="46.0767119" lon="9.3044412"><ele>210.0</ele><time>2026-05-04T10:23:58.082Z</time></trkpt><trkpt lat="46.0766333" lon="9.3044165"><ele>210.0</ele><time>2026-05-04T10:24:00.084Z</time></trkpt><trkpt lat="46.076548" lon="9.304408"><ele>210.16666666666666</ele><time>2026-05-04T10:24:02.083Z</time></trkpt><trkpt lat="46.0764589" lon="9.3043968"><ele>210.33333333333331</ele><time>2026-05-04T10:24:04.082Z</time></trkpt><trkpt lat="46.0763742" lon="9.3043775"><ele>210.5</ele><time>2026-05-04T10:24:06.083Z</time></trkpt><trkpt lat="46.0762929" lon="9.304361"><ele>210.66666666666666</ele><time>2026-05-04T10:24:08.083Z</time></trkpt><trkpt lat="46.0762051" lon="9.3043595"><ele>210.83333333333331</ele><time>2026-05-04T10:24:10.084Z</time></trkpt><trkpt lat="46.0761232" lon="9.3043423"><ele>211.0</ele><time>2026-05-04T10:24:12.082Z</time></trkpt><trkpt lat="46.076035" lon="9.3043328"><ele>211.0</ele><time>2026-05-04T10:24:14.083Z</time></trkpt><trkpt lat="46.0759438" lon="9.3043278"><ele>211.0</ele><time>2026-05-04T10:24:16.083Z</time></trkpt><trkpt lat="46.0758548" lon="9.3043113"><ele>211.0</ele><time>2026-05-04T10:24:18.083Z</time></trkpt><trkpt lat="46.0757583" lon="9.3043051"><ele>211.0</ele><time>2026-05-04T10:24:20.082Z</time></trkpt><trkpt lat="46.0756483" lon="9.3043116"><ele>211.0</ele><time>2026-05-04T10:24:22.083Z</time></trkpt><trkpt lat="46.0755525" lon="9.3043054"><ele>210.60000000000002</ele><time>2026-05-04T10:24:24.083Z</time></trkpt><trkpt lat="46.0754547" lon="9.3043118"><ele>210.2</ele><time>2026-05-04T10:24:26.084Z</time></trkpt><trkpt lat="46.0753479" lon="9.3043359"><ele>209.8</ele><time>2026-05-04T10:24:28.083Z</time></trkpt><trkpt lat="46.0752579" lon="9.3043555"><ele>209.39999999999998</ele><time>2026-05-04T10:24:30.083Z</time></trkpt><trkpt lat="46.0751547" lon="9.3043752"><ele>209.0</ele><time>2026-05-04T10:24:32.082Z</time></trkpt><trkpt lat="46.0750563" lon="9.3043899"><ele>209.0</ele><time>2026-05-04T10:24:34.082Z</time></trkpt><trkpt lat="46.0749617" lon="9.3044249"><ele>209.0</ele><time>2026-05-04T10:24:36.084Z</time></trkpt><trkpt lat="46.074857" lon="9.3044609"><ele>209.0</ele><time>2026-05-04T10:24:38.082Z</time></trkpt><trkpt lat="46.0747635" lon="9.3045007"><ele>209.0</ele><time>2026-05-04T10:24:40.083Z</time></trkpt><trkpt lat="46.0746889" lon="9.3045466"><ele>209.0</ele><time>2026-05-04T10:24:42.083Z</time></trkpt><trkpt lat="46.0745983" lon="9.3045936"><ele>208.79999999999998</ele><time>2026-05-04T10:24:44.082Z</time></trkpt><trkpt lat="46.0745082" lon="9.304641"><ele>208.6</ele><time>2026-05-04T10:24:46.083Z</time></trkpt><trkpt lat="46.0744146" lon="9.3046903"><ele>208.4</ele><time>2026-05-04T10:24:48.083Z</time></trkpt><trkpt lat="46.0743279" lon="9.3047349"><ele>208.2</ele><time>2026-05-04T10:24:50.083Z</time></trkpt><trkpt lat="46.0742315" lon="9.3047296"><ele>208.0</ele><time>2026-05-04T10:24:52.084Z</time></trkpt><trkpt lat="46.0741497" lon="9.3046682"><ele>208.16666666666666</ele><time>2026-05-04T10:24:54.082Z</time></trkpt><trkpt lat="46.0740678" lon="9.3045391"><ele>208.33333333333331</ele><time>2026-05-04T10:24:56.082Z</time></trkpt><trkpt lat="46.0740249" lon="9.3044711"><ele>208.5</ele><time>2026-05-04T10:24:57.082Z</time></trkpt><trkpt lat="46.0739798" lon="9.3043996"><ele>208.66666666666669</ele><time>2026-05-04T10:24:58.084Z</time></trkpt><trkpt lat="46.073886" lon="9.3042748"><ele>208.83333333333334</ele><time>2026-05-04T10:25:00.083Z</time></trkpt><trkpt lat="46.073837" lon="9.3042051"><ele>209.0</ele><time>2026-05-04T10:25:01.083Z</time></trkpt><trkpt lat="46.0737862" lon="9.3041307"><ele>209.0</ele><time>2026-05-04T10:25:02.082Z</time></trkpt><trkpt lat="46.0737394" lon="9.3040606"><ele>209.0</ele><time>2026-05-04T10:25:03.084Z</time></trkpt><trkpt lat="46.0736937" lon="9.3039782"><ele>209.0</ele><time>2026-05-04T10:25:04.083Z</time></trkpt><trkpt lat="46.0736457" lon="9.303904"><ele>209.0</ele><time>2026-05-04T10:25:05.083Z</time></trkpt><trkpt lat="46.0735944" lon="9.3038333"><ele>209.0</ele><time>2026-05-04T10:25:06.082Z</time></trkpt><trkpt lat="46.0735496" lon="9.3037535"><ele>209.0</ele><time>2026-05-04T10:25:07.084Z</time></trkpt><trkpt lat="46.0735106" lon="9.3036697"><ele>209.0</ele><time>2026-05-04T10:25:08.083Z</time></trkpt><trkpt lat="46.0734784" lon="9.3035813"><ele>208.6</ele><time>2026-05-04T10:25:09.083Z</time></trkpt><trkpt lat="46.0734567" lon="9.3034827"><ele>208.2</ele><time>2026-05-04T10:25:10.082Z</time></trkpt><trkpt lat="46.0734451" lon="9.3033932"><ele>207.79999999999998</ele><time>2026-05-04T10:25:11.083Z</time></trkpt><trkpt lat="46.0733857" lon="9.3032419"><ele>207.39999999999998</ele><time>2026-05-04T10:25:13.083Z</time></trkpt><trkpt lat="46.07331" lon="9.3031244"><ele>207.0</ele><time>2026-05-04T10:25:15.083Z</time></trkpt><trkpt lat="46.0732308" lon="9.3029915"><ele>207.0</ele><time>2026-05-04T10:25:17.082Z</time></trkpt><trkpt lat="46.0731593" lon="9.3028688"><ele>207.0</ele><time>2026-05-04T10:25:19.084Z</time></trkpt><trkpt lat="46.0730613" lon="9.3028162"><ele>207.0</ele><time>2026-05-04T10:25:21.084Z</time></trkpt><trkpt lat="46.072979" lon="9.3028358"><ele>207.0</ele><time>2026-05-04T10:25:23.083Z</time></trkpt><trkpt lat="46.0729797" lon="9.3029864"><ele>207.0</ele><time>2026-05-04T10:25:25.082Z</time></trkpt><trkpt lat="46.0729593" lon="9.3031298"><ele>207.0</ele><time>2026-05-04T10:25:27.082Z</time></trkpt><trkpt lat="46.0729332" lon="9.3032922"><ele>207.0</ele><time>2026-05-04T10:25:29.083Z</time></trkpt><trkpt lat="46.0729302" lon="9.303395"><ele>207.0</ele><time>2026-05-04T10:25:31.083Z</time></trkpt><trkpt lat="46.0728903" lon="9.3035087"><ele>207.0</ele><time>2026-05-04T10:25:33.084Z</time></trkpt><trkpt lat="46.0728819" lon="9.3036178"><ele>207.0</ele><time>2026-05-04T10:25:35.082Z</time></trkpt><trkpt lat="46.0728765" lon="9.3037209"><ele>207.0</ele><time>2026-05-04T10:25:37.084Z</time></trkpt><trkpt lat="46.0729271" lon="9.3038033"><ele>207.0</ele><time>2026-05-04T10:25:40.083Z</time></trkpt><trkpt lat="46.0729499" lon="9.303983"><ele>207.0</ele><time>2026-05-04T10:26:08.083Z</time></trkpt><trkpt lat="46.072962" lon="9.304109"><ele>207.0</ele><time>2026-05-04T10:26:14.084Z</time></trkpt><trkpt lat="46.0729734" lon="9.304204"><ele>207.0</ele><time>2026-05-04T10:26:16.083Z</time></trkpt><trkpt lat="46.0729407" lon="9.3042932"><ele>207.0</ele><time>2026-05-04T10:26:20.084Z</time></trkpt><trkpt lat="46.0728711" lon="9.3042406"><ele>207.0</ele><time>2026-05-04T10:26:23.086Z</time></trkpt><trkpt lat="46.0729432" lon="9.3041566"><ele>207.0</ele><time>2026-05-04T10:26:49.083Z</time></trkpt></trkseg></trk></gpx>